<?xml version="1.0" encoding="UTF-8"?>
<gpx version="1.1" creator="https://www.youtrack.es" xsi:schemaLocation="http://www.topografix.com/GPX/1/1 http://www.topografix.com/GPX/1/1/gpx.xsd http://www.garmin.com/xmlschemas/GpxExtensions/v3 http://www.garmin.com/xmlschemas/GpxExtensionsv3.xsd http://www.garmin.com/xmlschemas/TrackPointExtension/v1 http://www.garmin.com/xmlschemas/TrackPointExtensionv1.xsd" xmlns:gpxtpx="http://www.garmin.com/xmlschemas/TrackPointExtension/v1" xmlns:gpxx="http://www.garmin.com/xmlschemas/GpxExtensions/v3" xmlns:xsi="http://www.w3.org/2001/XMLSchema-instance">
  <metadata>
    <link href="https://www.youtrack.es">
      <text>YouTrack.es</text>
    </link>
    <time>2026-05-10T15:52:57Z</time>
  </metadata>
  <trk>
    <src>https://www.youtrack.es</src>
    <link href="https://www.youtrack.es/ruta/33030-llera-escapatoria">
      <text>YouTrack.es</text>
    </link>
    <trkseg>
      <trkpt lat="43.5120432078838348388671875" lon="-5.68235442973673343658447265625">
        <ele>42</ele>
        <time>2022-06-04T06:32:59.000Z</time>
      </trkpt>
      <trkpt lat="43.5120430402457714080810546875" lon="-5.682355351746082305908203125">
        <ele>42</ele>
        <time>2022-06-04T06:33:00.000Z</time>
      </trkpt>
      <trkpt lat="43.5119548626244068145751953125" lon="-5.6823162920773029327392578125">
        <ele>42</ele>
        <time>2022-06-04T06:44:10.000Z</time>
      </trkpt>
      <trkpt lat="43.511928878724575042724609375" lon="-5.6823229975998401641845703125">
        <ele>42</ele>
        <time>2022-06-04T06:44:11.000Z</time>
      </trkpt>
      <trkpt lat="43.51187448017299175262451171875" lon="-5.68233967758715152740478515625">
        <ele>42</ele>
        <time>2022-06-04T06:44:13.000Z</time>
      </trkpt>
      <trkpt lat="43.5118194110691547393798828125" lon="-5.68233397789299488067626953125">
        <ele>42</ele>
        <time>2022-06-04T06:44:15.000Z</time>
      </trkpt>
      <trkpt lat="43.511800467967987060546875" lon="-5.6823172979056835174560546875">
        <ele>42</ele>
        <time>2022-06-04T06:44:16.000Z</time>
      </trkpt>
      <trkpt lat="43.5117872245609760284423828125" lon="-5.682295672595500946044921875">
        <ele>42</ele>
        <time>2022-06-04T06:44:17.000Z</time>
      </trkpt>
      <trkpt lat="43.5117590613663196563720703125" lon="-5.68225376307964324951171875">
        <ele>42</ele>
        <time>2022-06-04T06:44:19.000Z</time>
      </trkpt>
      <trkpt lat="43.51172612048685550689697265625" lon="-5.682211183011531829833984375">
        <ele>42.200000762939453125</ele>
        <time>2022-06-04T06:44:21.000Z</time>
      </trkpt>
      <trkpt lat="43.5116730630397796630859375" lon="-5.68219165317714214324951171875">
        <ele>42.200000762939453125</ele>
        <time>2022-06-04T06:44:23.000Z</time>
      </trkpt>
      <trkpt lat="43.51164196617901325225830078125" lon="-5.682191736996173858642578125">
        <ele>42.200000762939453125</ele>
        <time>2022-06-04T06:44:24.000Z</time>
      </trkpt>
      <trkpt lat="43.5116108693182468414306640625" lon="-5.68219634704291820526123046875">
        <ele>42.200000762939453125</ele>
        <time>2022-06-04T06:44:25.000Z</time>
      </trkpt>
      <trkpt lat="43.5115461610257625579833984375" lon="-5.682208836078643798828125">
        <ele>42.40000152587890625</ele>
        <time>2022-06-04T06:44:27.000Z</time>
      </trkpt>
      <trkpt lat="43.5114851407706737518310546875" lon="-5.6822262704372406005859375">
        <ele>42.59999847412109375</ele>
        <time>2022-06-04T06:44:29.000Z</time>
      </trkpt>
      <trkpt lat="43.51141883991658687591552734375" lon="-5.68224261514842510223388671875">
        <ele>42.59999847412109375</ele>
        <time>2022-06-04T06:44:31.000Z</time>
      </trkpt>
      <trkpt lat="43.5113513655960559844970703125" lon="-5.68226072005927562713623046875">
        <ele>42.799999237060546875</ele>
        <time>2022-06-04T06:44:33.000Z</time>
      </trkpt>
      <trkpt lat="43.511285483837127685546875" lon="-5.6822772324085235595703125">
        <ele>42.799999237060546875</ele>
        <time>2022-06-04T06:44:35.000Z</time>
      </trkpt>
      <trkpt lat="43.511223457753658294677734375" lon="-5.6823042221367359161376953125">
        <ele>42.799999237060546875</ele>
        <time>2022-06-04T06:44:37.000Z</time>
      </trkpt>
      <trkpt lat="43.51119202561676502227783203125" lon="-5.6823172979056835174560546875">
        <ele>43</ele>
        <time>2022-06-04T06:44:38.000Z</time>
      </trkpt>
      <trkpt lat="43.51115849800407886505126953125" lon="-5.6823307089507579803466796875">
        <ele>43</ele>
        <time>2022-06-04T06:44:39.000Z</time>
      </trkpt>
      <trkpt lat="43.511087000370025634765625" lon="-5.68235292099416255950927734375">
        <ele>43.200000762939453125</ele>
        <time>2022-06-04T06:44:41.000Z</time>
      </trkpt>
      <trkpt lat="43.51105087436735630035400390625" lon="-5.68236247636377811431884765625">
        <ele>43.200000762939453125</ele>
        <time>2022-06-04T06:44:42.000Z</time>
      </trkpt>
      <trkpt lat="43.5110159218311309814453125" lon="-5.6823739595711231231689453125">
        <ele>43.200000762939453125</ele>
        <time>2022-06-04T06:44:43.000Z</time>
      </trkpt>
      <trkpt lat="43.51094911806285381317138671875" lon="-5.68239667452871799468994140625">
        <ele>43.40000152587890625</ele>
        <time>2022-06-04T06:44:45.000Z</time>
      </trkpt>
      <trkpt lat="43.5109185241162776947021484375" lon="-5.68240622989833354949951171875">
        <ele>43.40000152587890625</ele>
        <time>2022-06-04T06:44:46.000Z</time>
      </trkpt>
      <trkpt lat="43.5108873434364795684814453125" lon="-5.682408325374126434326171875">
        <ele>43.59999847412109375</ele>
        <time>2022-06-04T06:44:47.000Z</time>
      </trkpt>
      <trkpt lat="43.51083286106586456298828125" lon="-5.68241964094340801239013671875">
        <ele>43.59999847412109375</ele>
        <time>2022-06-04T06:44:49.000Z</time>
      </trkpt>
      <trkpt lat="43.51077494211494922637939453125" lon="-5.682433806359767913818359375">
        <ele>43.799999237060546875</ele>
        <time>2022-06-04T06:44:51.000Z</time>
      </trkpt>
      <trkpt lat="43.5107129998505115509033203125" lon="-5.68244629539549350738525390625">
        <ele>43.799999237060546875</ele>
        <time>2022-06-04T06:44:53.000Z</time>
      </trkpt>
      <trkpt lat="43.5106511414051055908203125" lon="-5.68246071226894855499267578125">
        <ele>44</ele>
        <time>2022-06-04T06:44:55.000Z</time>
      </trkpt>
      <trkpt lat="43.5105921328067779541015625" lon="-5.682472698390483856201171875">
        <ele>44</ele>
        <time>2022-06-04T06:44:57.000Z</time>
      </trkpt>
      <trkpt lat="43.51053337566554546356201171875" lon="-5.6824862770736217498779296875">
        <ele>44.40000152587890625</ele>
        <time>2022-06-04T06:44:59.000Z</time>
      </trkpt>
      <trkpt lat="43.51047470234334468841552734375" lon="-5.68250345997512340545654296875">
        <ele>44.59999847412109375</ele>
        <time>2022-06-04T06:45:01.000Z</time>
      </trkpt>
      <trkpt lat="43.51044603623449802398681640625" lon="-5.682510919868946075439453125">
        <ele>44.799999237060546875</ele>
        <time>2022-06-04T06:45:02.000Z</time>
      </trkpt>
      <trkpt lat="43.5104166157543659210205078125" lon="-5.6825161166489124298095703125">
        <ele>45</ele>
        <time>2022-06-04T06:45:03.000Z</time>
      </trkpt>
      <trkpt lat="43.510359786450862884521484375" lon="-5.68253078497946262359619140625">
        <ele>45.40000152587890625</ele>
        <time>2022-06-04T06:45:05.000Z</time>
      </trkpt>
      <trkpt lat="43.5103009454905986785888671875" lon="-5.6825513206422328948974609375">
        <ele>45.59999847412109375</ele>
        <time>2022-06-04T06:45:07.000Z</time>
      </trkpt>
      <trkpt lat="43.51024688221514225006103515625" lon="-5.68257026374340057373046875">
        <ele>46</ele>
        <time>2022-06-04T06:45:09.000Z</time>
      </trkpt>
      <trkpt lat="43.5102171264588832855224609375" lon="-5.682576633989810943603515625">
        <ele>46</ele>
        <time>2022-06-04T06:45:10.000Z</time>
      </trkpt>
      <trkpt lat="43.5101923160254955291748046875" lon="-5.6825845129787921905517578125">
        <ele>46.200000762939453125</ele>
        <time>2022-06-04T06:45:11.000Z</time>
      </trkpt>
      <trkpt lat="43.51016490720212459564208984375" lon="-5.6825912185013294219970703125">
        <ele>46.40000152587890625</ele>
        <time>2022-06-04T06:45:12.000Z</time>
      </trkpt>
      <trkpt lat="43.51013875566422939300537109375" lon="-5.6825996004045009613037109375">
        <ele>46.59999847412109375</ele>
        <time>2022-06-04T06:45:13.000Z</time>
      </trkpt>
      <trkpt lat="43.5100836865603923797607421875" lon="-5.68261577747762203216552734375">
        <ele>47.200000762939453125</ele>
        <time>2022-06-04T06:45:15.000Z</time>
      </trkpt>
      <trkpt lat="43.51002828218042850494384765625" lon="-5.682628266513347625732421875">
        <ele>47.40000152587890625</ele>
        <time>2022-06-04T06:45:17.000Z</time>
      </trkpt>
      <trkpt lat="43.51000028662383556365966796875" lon="-5.68263237364590167999267578125">
        <ele>47.59999847412109375</ele>
        <time>2022-06-04T06:45:18.000Z</time>
      </trkpt>
      <trkpt lat="43.50997514091432094573974609375" lon="-5.682637989521026611328125">
        <ele>47.799999237060546875</ele>
        <time>2022-06-04T06:45:19.000Z</time>
      </trkpt>
      <trkpt lat="43.5099215805530548095703125" lon="-5.682654418051242828369140625">
        <ele>48</ele>
        <time>2022-06-04T06:45:21.000Z</time>
      </trkpt>
      <trkpt lat="43.50987070240080356597900390625" lon="-5.682668499648571014404296875">
        <ele>48.40000152587890625</ele>
        <time>2022-06-04T06:45:23.000Z</time>
      </trkpt>
      <trkpt lat="43.50984455086290836334228515625" lon="-5.68267478607594966888427734375">
        <ele>48.40000152587890625</ele>
        <time>2022-06-04T06:45:24.000Z</time>
      </trkpt>
      <trkpt lat="43.5098215006291866302490234375" lon="-5.68268165923655033111572265625">
        <ele>48.59999847412109375</ele>
        <time>2022-06-04T06:45:25.000Z</time>
      </trkpt>
      <trkpt lat="43.509799540042877197265625" lon="-5.68268987350165843963623046875">
        <ele>48.799999237060546875</ele>
        <time>2022-06-04T06:45:26.000Z</time>
      </trkpt>
      <trkpt lat="43.50977741181850433349609375" lon="-5.68270043469965457916259765625">
        <ele>48.799999237060546875</ele>
        <time>2022-06-04T06:45:27.000Z</time>
      </trkpt>
      <trkpt lat="43.509722091257572174072265625" lon="-5.6827144324779510498046875">
        <ele>49</ele>
        <time>2022-06-04T06:45:29.000Z</time>
      </trkpt>
      <trkpt lat="43.50966668687760829925537109375" lon="-5.6827243231236934661865234375">
        <ele>49.200000762939453125</ele>
        <time>2022-06-04T06:45:31.000Z</time>
      </trkpt>
      <trkpt lat="43.50963869132101535797119140625" lon="-5.68272859789431095123291015625">
        <ele>49.40000152587890625</ele>
        <time>2022-06-04T06:45:32.000Z</time>
      </trkpt>
      <trkpt lat="43.50961153395473957061767578125" lon="-5.682732202112674713134765625">
        <ele>49.59999847412109375</ele>
        <time>2022-06-04T06:45:33.000Z</time>
      </trkpt>
      <trkpt lat="43.5095608234405517578125" lon="-5.68273387849330902099609375">
        <ele>49.799999237060546875</ele>
        <time>2022-06-04T06:45:35.000Z</time>
      </trkpt>
      <trkpt lat="43.509510196745395660400390625" lon="-5.6827179528772830963134765625">
        <ele>50</ele>
        <time>2022-06-04T06:45:37.000Z</time>
      </trkpt>
      <trkpt lat="43.50946418009698390960693359375" lon="-5.6826787255704402923583984375">
        <ele>50.200000762939453125</ele>
        <time>2022-06-04T06:45:39.000Z</time>
      </trkpt>
      <trkpt lat="43.50943031720817089080810546875" lon="-5.68262030370533466339111328125">
        <ele>50.59999847412109375</ele>
        <time>2022-06-04T06:45:41.000Z</time>
      </trkpt>
      <trkpt lat="43.509412296116352081298828125" lon="-5.68254872225224971771240234375">
        <ele>50.799999237060546875</ele>
        <time>2022-06-04T06:45:43.000Z</time>
      </trkpt>
      <trkpt lat="43.50940617732703685760498046875" lon="-5.68250932730734348297119140625">
        <ele>51</ele>
        <time>2022-06-04T06:45:44.000Z</time>
      </trkpt>
      <trkpt lat="43.50940047763288021087646484375" lon="-5.68246892653405666351318359375">
        <ele>51</ele>
        <time>2022-06-04T06:45:45.000Z</time>
      </trkpt>
      <trkpt lat="43.50938756950199604034423828125" lon="-5.6823930703103542327880859375">
        <ele>51.40000152587890625</ele>
        <time>2022-06-04T06:45:47.000Z</time>
      </trkpt>
      <trkpt lat="43.50937449373304843902587890625" lon="-5.68231285549700260162353515625">
        <ele>51.40000152587890625</ele>
        <time>2022-06-04T06:45:49.000Z</time>
      </trkpt>
      <trkpt lat="43.5093636810779571533203125" lon="-5.68222601898014545440673828125">
        <ele>51.59999847412109375</ele>
        <time>2022-06-04T06:45:51.000Z</time>
      </trkpt>
      <trkpt lat="43.50935739465057849884033203125" lon="-5.68218025378882884979248046875">
        <ele>51.799999237060546875</ele>
        <time>2022-06-04T06:45:52.000Z</time>
      </trkpt>
      <trkpt lat="43.50935102440416812896728515625" lon="-5.682135410606861114501953125">
        <ele>52</ele>
        <time>2022-06-04T06:45:53.000Z</time>
      </trkpt>
      <trkpt lat="43.5093410499393939971923828125" lon="-5.68204714916646480560302734375">
        <ele>52.200000762939453125</ele>
        <time>2022-06-04T06:45:55.000Z</time>
      </trkpt>
      <trkpt lat="43.50932789035141468048095703125" lon="-5.6819568760693073272705078125">
        <ele>52.40000152587890625</ele>
        <time>2022-06-04T06:45:57.000Z</time>
      </trkpt>
      <trkpt lat="43.5093155689537525177001953125" lon="-5.68186811171472072601318359375">
        <ele>52.59999847412109375</ele>
        <time>2022-06-04T06:45:59.000Z</time>
      </trkpt>
      <trkpt lat="43.509302325546741485595703125" lon="-5.681775994598865509033203125">
        <ele>52.799999237060546875</ele>
        <time>2022-06-04T06:46:01.000Z</time>
      </trkpt>
      <trkpt lat="43.50929587148129940032958984375" lon="-5.6817308999598026275634765625">
        <ele>53</ele>
        <time>2022-06-04T06:46:02.000Z</time>
      </trkpt>
      <trkpt lat="43.50928983651101589202880859375" lon="-5.68168588913977146148681640625">
        <ele>53</ele>
        <time>2022-06-04T06:46:03.000Z</time>
      </trkpt>
      <trkpt lat="43.50927793420851230621337890625" lon="-5.68159234710037708282470703125">
        <ele>53.200000762939453125</ele>
        <time>2022-06-04T06:46:05.000Z</time>
      </trkpt>
      <trkpt lat="43.50926452316343784332275390625" lon="-5.68149595521390438079833984375">
        <ele>53.40000152587890625</ele>
        <time>2022-06-04T06:46:07.000Z</time>
      </trkpt>
      <trkpt lat="43.509250693023204803466796875" lon="-5.68140174262225627899169921875">
        <ele>53.59999847412109375</ele>
        <time>2022-06-04T06:46:09.000Z</time>
      </trkpt>
      <trkpt lat="43.5092367790639400482177734375" lon="-5.6813128106296062469482421875">
        <ele>53.59999847412109375</ele>
        <time>2022-06-04T06:46:11.000Z</time>
      </trkpt>
      <trkpt lat="43.509230576455593109130859375" lon="-5.6812687218189239501953125">
        <ele>53.799999237060546875</ele>
        <time>2022-06-04T06:46:12.000Z</time>
      </trkpt>
      <trkpt lat="43.509223870933055877685546875" lon="-5.68122320808470249176025390625">
        <ele>53.799999237060546875</ele>
        <time>2022-06-04T06:46:13.000Z</time>
      </trkpt>
      <trkpt lat="43.5092166624963283538818359375" lon="-5.6811760179698467254638671875">
        <ele>54</ele>
        <time>2022-06-04T06:46:14.000Z</time>
      </trkpt>
      <trkpt lat="43.50921071134507656097412109375" lon="-5.68113083951175212860107421875">
        <ele>54</ele>
        <time>2022-06-04T06:46:15.000Z</time>
      </trkpt>
      <trkpt lat="43.509199060499668121337890625" lon="-5.681041739881038665771484375">
        <ele>54.200000762939453125</ele>
        <time>2022-06-04T06:46:17.000Z</time>
      </trkpt>
      <trkpt lat="43.50918707437813282012939453125" lon="-5.6809577532112598419189453125">
        <ele>54.200000762939453125</ele>
        <time>2022-06-04T06:46:19.000Z</time>
      </trkpt>
      <trkpt lat="43.50917383097112178802490234375" lon="-5.6808692403137683868408203125">
        <ele>54.40000152587890625</ele>
        <time>2022-06-04T06:46:21.000Z</time>
      </trkpt>
      <trkpt lat="43.50915991701185703277587890625" lon="-5.68077586591243743896484375">
        <ele>54.59999847412109375</ele>
        <time>2022-06-04T06:46:23.000Z</time>
      </trkpt>
      <trkpt lat="43.50914499722421169281005859375" lon="-5.68068073131144046783447265625">
        <ele>54.799999237060546875</ele>
        <time>2022-06-04T06:46:25.000Z</time>
      </trkpt>
      <trkpt lat="43.50913234055042266845703125" lon="-5.6805876083672046661376953125">
        <ele>54.799999237060546875</ele>
        <time>2022-06-04T06:46:27.000Z</time>
      </trkpt>
      <trkpt lat="43.50912219844758510589599609375" lon="-5.68049532361328601837158203125">
        <ele>54.799999237060546875</ele>
        <time>2022-06-04T06:46:29.000Z</time>
      </trkpt>
      <trkpt lat="43.5091147385537624359130859375" lon="-5.6804491393268108367919921875">
        <ele>55</ele>
        <time>2022-06-04T06:46:30.000Z</time>
      </trkpt>
      <trkpt lat="43.509105853736400604248046875" lon="-5.68040245212614536285400390625">
        <ele>55</ele>
        <time>2022-06-04T06:46:31.000Z</time>
      </trkpt>
      <trkpt lat="43.50909688510000705718994140625" lon="-5.68035484291613101959228515625">
        <ele>55</ele>
        <time>2022-06-04T06:46:32.000Z</time>
      </trkpt>
      <trkpt lat="43.50908850319683551788330078125" lon="-5.680308826267719268798828125">
        <ele>55</ele>
        <time>2022-06-04T06:46:33.000Z</time>
      </trkpt>
      <trkpt lat="43.509073667228221893310546875" lon="-5.6802171282470226287841796875">
        <ele>55.200000762939453125</ele>
        <time>2022-06-04T06:46:35.000Z</time>
      </trkpt>
      <trkpt lat="43.50906050764024257659912109375" lon="-5.6801282800734043121337890625">
        <ele>55.40000152587890625</ele>
        <time>2022-06-04T06:46:37.000Z</time>
      </trkpt>
      <trkpt lat="43.50904944352805614471435546875" lon="-5.6800434552133083343505859375">
        <ele>55.40000152587890625</ele>
        <time>2022-06-04T06:46:39.000Z</time>
      </trkpt>
      <trkpt lat="43.50903770886361598968505859375" lon="-5.6799619831144809722900390625">
        <ele>55.40000152587890625</ele>
        <time>2022-06-04T06:46:41.000Z</time>
      </trkpt>
      <trkpt lat="43.50902781821787357330322265625" lon="-5.6798835285007953643798828125">
        <ele>55.59999847412109375</ele>
        <time>2022-06-04T06:46:43.000Z</time>
      </trkpt>
      <trkpt lat="43.5090168379247188568115234375" lon="-5.6798000447452068328857421875">
        <ele>55.799999237060546875</ele>
        <time>2022-06-04T06:46:45.000Z</time>
      </trkpt>
      <trkpt lat="43.50900535471737384796142578125" lon="-5.67971228621900081634521484375">
        <ele>56</ele>
        <time>2022-06-04T06:46:47.000Z</time>
      </trkpt>
      <trkpt lat="43.5089994035661220550537109375" lon="-5.6796676106750965118408203125">
        <ele>56</ele>
        <time>2022-06-04T06:46:48.000Z</time>
      </trkpt>
      <trkpt lat="43.50899286568164825439453125" lon="-5.67962561734020709991455078125">
        <ele>56</ele>
        <time>2022-06-04T06:46:49.000Z</time>
      </trkpt>
      <trkpt lat="43.508976437151432037353515625" lon="-5.679542720317840576171875">
        <ele>56.200000762939453125</ele>
        <time>2022-06-04T06:46:51.000Z</time>
      </trkpt>
      <trkpt lat="43.50896495394408702850341796875" lon="-5.67945881746709346771240234375">
        <ele>56.40000152587890625</ele>
        <time>2022-06-04T06:46:53.000Z</time>
      </trkpt>
      <trkpt lat="43.50895129144191741943359375" lon="-5.67938287742435932159423828125">
        <ele>56.799999237060546875</ele>
        <time>2022-06-04T06:46:55.000Z</time>
      </trkpt>
      <trkpt lat="43.50893964059650897979736328125" lon="-5.6793071888387203216552734375">
        <ele>57</ele>
        <time>2022-06-04T06:46:57.000Z</time>
      </trkpt>
      <trkpt lat="43.5089246369898319244384765625" lon="-5.6792357750236988067626953125">
        <ele>57</ele>
        <time>2022-06-04T06:46:59.000Z</time>
      </trkpt>
      <trkpt lat="43.5089108906686305999755859375" lon="-5.67916662432253360748291015625">
        <ele>57.40000152587890625</ele>
        <time>2022-06-04T06:47:01.000Z</time>
      </trkpt>
      <trkpt lat="43.50890393368899822235107421875" lon="-5.6791390478610992431640625">
        <ele>57.59999847412109375</ele>
        <time>2022-06-04T06:47:02.000Z</time>
      </trkpt>
      <trkpt lat="43.50889722816646099090576171875" lon="-5.67911650054156780242919921875">
        <ele>57.59999847412109375</ele>
        <time>2022-06-04T06:47:03.000Z</time>
      </trkpt>
      <trkpt lat="43.50888825953006744384765625" lon="-5.67909336648881435394287109375">
        <ele>58</ele>
        <time>2022-06-04T06:47:05.000Z</time>
      </trkpt>
      <trkpt lat="43.508884571492671966552734375" lon="-5.67907945252954959869384765625">
        <ele>58</ele>
        <time>2022-06-04T06:47:06.000Z</time>
      </trkpt>
      <trkpt lat="43.5088813863694667816162109375" lon="-5.67906470037996768951416015625">
        <ele>58.200000762939453125</ele>
        <time>2022-06-04T06:47:07.000Z</time>
      </trkpt>
      <trkpt lat="43.508878536522388458251953125" lon="-5.67906034179031848907470703125">
        <ele>58.40000152587890625</ele>
        <time>2022-06-04T06:47:08.000Z</time>
      </trkpt>
      <trkpt lat="43.508877195417881011962890625" lon="-5.67905522882938385009765625">
        <ele>58.40000152587890625</ele>
        <time>2022-06-04T06:47:09.000Z</time>
      </trkpt>
      <trkpt lat="43.50885833613574504852294921875" lon="-5.679007954895496368408203125">
        <ele>58.59999847412109375</ele>
        <time>2022-06-04T06:47:12.000Z</time>
      </trkpt>
      <trkpt lat="43.5088433325290679931640625" lon="-5.67898708395659923553466796875">
        <ele>58.59999847412109375</ele>
        <time>2022-06-04T06:47:13.000Z</time>
      </trkpt>
      <trkpt lat="43.508821539580821990966796875" lon="-5.67896177060902118682861328125">
        <ele>58.799999237060546875</ele>
        <time>2022-06-04T06:47:14.000Z</time>
      </trkpt>
      <trkpt lat="43.508796393871307373046875" lon="-5.67893310450017452239990234375">
        <ele>58.799999237060546875</ele>
        <time>2022-06-04T06:47:15.000Z</time>
      </trkpt>
      <trkpt lat="43.508738391101360321044921875" lon="-5.67887015640735626220703125">
        <ele>58.799999237060546875</ele>
        <time>2022-06-04T06:47:17.000Z</time>
      </trkpt>
      <trkpt lat="43.5086932964622974395751953125" lon="-5.67878960631787776947021484375">
        <ele>59</ele>
        <time>2022-06-04T06:47:19.000Z</time>
      </trkpt>
      <trkpt lat="43.508678711950778961181640625" lon="-5.67874551750719547271728515625">
        <ele>59.200000762939453125</ele>
        <time>2022-06-04T06:47:20.000Z</time>
      </trkpt>
      <trkpt lat="43.50867041386663913726806640625" lon="-5.67869740538299083709716796875">
        <ele>59.40000152587890625</ele>
        <time>2022-06-04T06:47:21.000Z</time>
      </trkpt>
      <trkpt lat="43.50866789929568767547607421875" lon="-5.67858609370887279510498046875">
        <ele>59.59999847412109375</ele>
        <time>2022-06-04T06:47:23.000Z</time>
      </trkpt>
      <trkpt lat="43.5086825676262378692626953125" lon="-5.67847184836864471435546875">
        <ele>60</ele>
        <time>2022-06-04T06:47:25.000Z</time>
      </trkpt>
      <trkpt lat="43.50869891233742237091064453125" lon="-5.678415857255458831787109375">
        <ele>60.200000762939453125</ele>
        <time>2022-06-04T06:47:26.000Z</time>
      </trkpt>
      <trkpt lat="43.5087171010673046112060546875" lon="-5.678358189761638641357421875">
        <ele>60.40000152587890625</ele>
        <time>2022-06-04T06:47:27.000Z</time>
      </trkpt>
      <trkpt lat="43.5087261535227298736572265625" lon="-5.67829423584043979644775390625">
        <ele>60.40000152587890625</ele>
        <time>2022-06-04T06:47:28.000Z</time>
      </trkpt>
      <trkpt lat="43.5087254829704761505126953125" lon="-5.67822399549186229705810546875">
        <ele>60.40000152587890625</ele>
        <time>2022-06-04T06:47:29.000Z</time>
      </trkpt>
      <trkpt lat="43.50869773887097835540771484375" lon="-5.67807965911924839019775390625">
        <ele>60.59999847412109375</ele>
        <time>2022-06-04T06:47:31.000Z</time>
      </trkpt>
      <trkpt lat="43.508680723607540130615234375" lon="-5.6780029647052288055419921875">
        <ele>60.59999847412109375</ele>
        <time>2022-06-04T06:47:32.000Z</time>
      </trkpt>
      <trkpt lat="43.5086609423160552978515625" lon="-5.67792342044413089752197265625">
        <ele>60.59999847412109375</ele>
        <time>2022-06-04T06:47:33.000Z</time>
      </trkpt>
      <trkpt lat="43.5086165182292461395263671875" lon="-5.67775293253362178802490234375">
        <ele>60.40000152587890625</ele>
        <time>2022-06-04T06:47:35.000Z</time>
      </trkpt>
      <trkpt lat="43.508568070828914642333984375" lon="-5.67756450735032558441162109375">
        <ele>60.40000152587890625</ele>
        <time>2022-06-04T06:47:37.000Z</time>
      </trkpt>
      <trkpt lat="43.50854099728167057037353515625" lon="-5.67746610380709171295166015625">
        <ele>60.200000762939453125</ele>
        <time>2022-06-04T06:47:38.000Z</time>
      </trkpt>
      <trkpt lat="43.50851451046764850616455078125" lon="-5.67736485041677951812744140625">
        <ele>59.799999237060546875</ele>
        <time>2022-06-04T06:47:39.000Z</time>
      </trkpt>
      <trkpt lat="43.50845902226865291595458984375" lon="-5.67715245299041271209716796875">
        <ele>59.40000152587890625</ele>
        <time>2022-06-04T06:47:41.000Z</time>
      </trkpt>
      <trkpt lat="43.50843169726431369781494140625" lon="-5.6770444102585315704345703125">
        <ele>58.799999237060546875</ele>
        <time>2022-06-04T06:47:42.000Z</time>
      </trkpt>
      <trkpt lat="43.5084136761724948883056640625" lon="-5.67693720571696758270263671875">
        <ele>58.59999847412109375</ele>
        <time>2022-06-04T06:47:43.000Z</time>
      </trkpt>
      <trkpt lat="43.50840789265930652618408203125" lon="-5.6768296658992767333984375">
        <ele>58.200000762939453125</ele>
        <time>2022-06-04T06:47:44.000Z</time>
      </trkpt>
      <trkpt lat="43.50841091014444828033447265625" lon="-5.67672413773834705352783203125">
        <ele>58.200000762939453125</ele>
        <time>2022-06-04T06:47:45.000Z</time>
      </trkpt>
      <trkpt lat="43.50844192318618297576904296875" lon="-5.67652565427124500274658203125">
        <ele>57.59999847412109375</ele>
        <time>2022-06-04T06:47:47.000Z</time>
      </trkpt>
      <trkpt lat="43.5084705054759979248046875" lon="-5.6764264963567256927490234375">
        <ele>57</ele>
        <time>2022-06-04T06:47:48.000Z</time>
      </trkpt>
      <trkpt lat="43.508502356708049774169921875" lon="-5.67632867954671382904052734375">
        <ele>56.59999847412109375</ele>
        <time>2022-06-04T06:47:49.000Z</time>
      </trkpt>
      <trkpt lat="43.50852993316948413848876953125" lon="-5.6762333773076534271240234375">
        <ele>56.200000762939453125</ele>
        <time>2022-06-04T06:47:50.000Z</time>
      </trkpt>
      <trkpt lat="43.5085571743547916412353515625" lon="-5.6761349737644195556640625">
        <ele>55.59999847412109375</ele>
        <time>2022-06-04T06:47:51.000Z</time>
      </trkpt>
      <trkpt lat="43.50859095342457294464111328125" lon="-5.67603548057377338409423828125">
        <ele>55</ele>
        <time>2022-06-04T06:47:52.000Z</time>
      </trkpt>
      <trkpt lat="43.50862800143659114837646484375" lon="-5.67593623884022235870361328125">
        <ele>54.59999847412109375</ele>
        <time>2022-06-04T06:47:53.000Z</time>
      </trkpt>
      <trkpt lat="43.50870327092707157135009765625" lon="-5.675722919404506683349609375">
        <ele>53.799999237060546875</ele>
        <time>2022-06-04T06:47:55.000Z</time>
      </trkpt>
      <trkpt lat="43.5087791271507740020751953125" lon="-5.6754950992763042449951171875">
        <ele>52.799999237060546875</ele>
        <time>2022-06-04T06:47:57.000Z</time>
      </trkpt>
      <trkpt lat="43.50881986320018768310546875" lon="-5.67538286559283733367919921875">
        <ele>52.40000152587890625</ele>
        <time>2022-06-04T06:47:58.000Z</time>
      </trkpt>
      <trkpt lat="43.50885883904993534088134765625" lon="-5.67527121864259243011474609375">
        <ele>52</ele>
        <time>2022-06-04T06:47:59.000Z</time>
      </trkpt>
      <trkpt lat="43.50889689289033412933349609375" lon="-5.67516426555812358856201171875">
        <ele>51</ele>
        <time>2022-06-04T06:48:00.000Z</time>
      </trkpt>
      <trkpt lat="43.50893377326428890228271484375" lon="-5.67506100051105022430419921875">
        <ele>50.59999847412109375</ele>
        <time>2022-06-04T06:48:01.000Z</time>
      </trkpt>
      <trkpt lat="43.50900091230869293212890625" lon="-5.67485799081623554229736328125">
        <ele>50</ele>
        <time>2022-06-04T06:48:03.000Z</time>
      </trkpt>
      <trkpt lat="43.5090305842459201812744140625" lon="-5.67476369440555572509765625">
        <ele>49.59999847412109375</ele>
        <time>2022-06-04T06:48:04.000Z</time>
      </trkpt>
      <trkpt lat="43.5090637765824794769287109375" lon="-5.67466805689036846160888671875">
        <ele>49</ele>
        <time>2022-06-04T06:48:05.000Z</time>
      </trkpt>
      <trkpt lat="43.50913426838815212249755859375" lon="-5.67446404136717319488525390625">
        <ele>48.200000762939453125</ele>
        <time>2022-06-04T06:48:07.000Z</time>
      </trkpt>
      <trkpt lat="43.5091703943908214569091796875" lon="-5.6743578426539897918701171875">
        <ele>47.59999847412109375</ele>
        <time>2022-06-04T06:48:08.000Z</time>
      </trkpt>
      <trkpt lat="43.509209789335727691650390625" lon="-5.67425164394080638885498046875">
        <ele>47.200000762939453125</ele>
        <time>2022-06-04T06:48:09.000Z</time>
      </trkpt>
      <trkpt lat="43.5092924349009990692138671875" lon="-5.6740319542586803436279296875">
        <ele>46.200000762939453125</ele>
        <time>2022-06-04T06:48:11.000Z</time>
      </trkpt>
      <trkpt lat="43.50937348790466785430908203125" lon="-5.67380304448306560516357421875">
        <ele>45.200000762939453125</ele>
        <time>2022-06-04T06:48:13.000Z</time>
      </trkpt>
      <trkpt lat="43.50941439159214496612548828125" lon="-5.67368687130510807037353515625">
        <ele>44.59999847412109375</ele>
        <time>2022-06-04T06:48:14.000Z</time>
      </trkpt>
      <trkpt lat="43.50945512764155864715576171875" lon="-5.67357069812715053558349609375">
        <ele>44.200000762939453125</ele>
        <time>2022-06-04T06:48:15.000Z</time>
      </trkpt>
      <trkpt lat="43.5094977915287017822265625" lon="-5.67345452494919300079345703125">
        <ele>43.799999237060546875</ele>
        <time>2022-06-04T06:48:16.000Z</time>
      </trkpt>
      <trkpt lat="43.50953894667327404022216796875" lon="-5.6733389385044574737548828125">
        <ele>43.59999847412109375</ele>
        <time>2022-06-04T06:48:17.000Z</time>
      </trkpt>
      <trkpt lat="43.50962276570498943328857421875" lon="-5.67310818471014499664306640625">
        <ele>42.799999237060546875</ele>
        <time>2022-06-04T06:48:19.000Z</time>
      </trkpt>
      <trkpt lat="43.5097091831266880035400390625" lon="-5.672877095639705657958984375">
        <ele>42</ele>
        <time>2022-06-04T06:48:21.000Z</time>
      </trkpt>
      <trkpt lat="43.5097909905016422271728515625" lon="-5.67265505902469158172607421875">
        <ele>41.59999847412109375</ele>
        <time>2022-06-04T06:48:23.000Z</time>
      </trkpt>
      <trkpt lat="43.50986030884087085723876953125" lon="-5.67244232632219791412353515625">
        <ele>41.200000762939453125</ele>
        <time>2022-06-04T06:48:25.000Z</time>
      </trkpt>
      <trkpt lat="43.50989618338644504547119140625" lon="-5.672338642179965972900390625">
        <ele>40.799999237060546875</ele>
        <time>2022-06-04T06:48:26.000Z</time>
      </trkpt>
      <trkpt lat="43.50993105210363864898681640625" lon="-5.67223395220935344696044921875">
        <ele>40.40000152587890625</ele>
        <time>2022-06-04T06:48:27.000Z</time>
      </trkpt>
      <trkpt lat="43.51000548340380191802978515625" lon="-5.67202323116362094879150390625">
        <ele>40</ele>
        <time>2022-06-04T06:48:29.000Z</time>
      </trkpt>
      <trkpt lat="43.510080166161060333251953125" lon="-5.6718107499182224273681640625">
        <ele>39.40000152587890625</ele>
        <time>2022-06-04T06:48:31.000Z</time>
      </trkpt>
      <trkpt lat="43.51014621555805206298828125" lon="-5.6716065667569637298583984375">
        <ele>38.799999237060546875</ele>
        <time>2022-06-04T06:48:33.000Z</time>
      </trkpt>
      <trkpt lat="43.51018049754202365875244140625" lon="-5.671506822109222412109375">
        <ele>38.40000152587890625</ele>
        <time>2022-06-04T06:48:34.000Z</time>
      </trkpt>
      <trkpt lat="43.5102137736976146697998046875" lon="-5.67140732891857624053955078125">
        <ele>38.200000762939453125</ele>
        <time>2022-06-04T06:48:35.000Z</time>
      </trkpt>
      <trkpt lat="43.51028393022716045379638671875" lon="-5.67120901308953762054443359375">
        <ele>38</ele>
        <time>2022-06-04T06:48:37.000Z</time>
      </trkpt>
      <trkpt lat="43.5103515721857547760009765625" lon="-5.67101086489856243133544921875">
        <ele>37.59999847412109375</ele>
        <time>2022-06-04T06:48:39.000Z</time>
      </trkpt>
      <trkpt lat="43.51041334681212902069091796875" lon="-5.67081816494464874267578125">
        <ele>37.200000762939453125</ele>
        <time>2022-06-04T06:48:41.000Z</time>
      </trkpt>
      <trkpt lat="43.51044251583516597747802734375" lon="-5.67072403617203235626220703125">
        <ele>37</ele>
        <time>2022-06-04T06:48:42.000Z</time>
      </trkpt>
      <trkpt lat="43.51047369651496410369873046875" lon="-5.67062999121844768524169921875">
        <ele>37</ele>
        <time>2022-06-04T06:48:43.000Z</time>
      </trkpt>
      <trkpt lat="43.51054108701646327972412109375" lon="-5.67044324241578578948974609375">
        <ele>36.59999847412109375</ele>
        <time>2022-06-04T06:48:45.000Z</time>
      </trkpt>
      <trkpt lat="43.51060696877539157867431640625" lon="-5.67025364376604557037353515625">
        <ele>36.200000762939453125</ele>
        <time>2022-06-04T06:48:47.000Z</time>
      </trkpt>
      <trkpt lat="43.5106385685503482818603515625" lon="-5.67016077227890491485595703125">
        <ele>36</ele>
        <time>2022-06-04T06:48:48.000Z</time>
      </trkpt>
      <trkpt lat="43.51066983304917812347412109375" lon="-5.67007008008658885955810546875">
        <ele>35.799999237060546875</ele>
        <time>2022-06-04T06:48:49.000Z</time>
      </trkpt>
      <trkpt lat="43.51070352829992771148681640625" lon="-5.6699791364371776580810546875">
        <ele>35.59999847412109375</ele>
        <time>2022-06-04T06:48:50.000Z</time>
      </trkpt>
      <trkpt lat="43.51073889993131160736083984375" lon="-5.6698899529874324798583984375">
        <ele>35.59999847412109375</ele>
        <time>2022-06-04T06:48:51.000Z</time>
      </trkpt>
      <trkpt lat="43.5107986629009246826171875" lon="-5.6697196327149868011474609375">
        <ele>35.40000152587890625</ele>
        <time>2022-06-04T06:48:53.000Z</time>
      </trkpt>
      <trkpt lat="43.51085297763347625732421875" lon="-5.6695528328418731689453125">
        <ele>34.799999237060546875</ele>
        <time>2022-06-04T06:48:55.000Z</time>
      </trkpt>
      <trkpt lat="43.51090536452829837799072265625" lon="-5.66939198412001132965087890625">
        <ele>34.40000152587890625</ele>
        <time>2022-06-04T06:48:57.000Z</time>
      </trkpt>
      <trkpt lat="43.51095381192862987518310546875" lon="-5.66922602243721485137939453125">
        <ele>34.200000762939453125</ele>
        <time>2022-06-04T06:48:59.000Z</time>
      </trkpt>
      <trkpt lat="43.51100460626184940338134765625" lon="-5.6690628267824649810791015625">
        <ele>34.200000762939453125</ele>
        <time>2022-06-04T06:49:01.000Z</time>
      </trkpt>
      <trkpt lat="43.51105892099440097808837890625" lon="-5.66890164278447628021240234375">
        <ele>34</ele>
        <time>2022-06-04T06:49:03.000Z</time>
      </trkpt>
      <trkpt lat="43.51111449301242828369140625" lon="-5.6687423028051853179931640625">
        <ele>34</ele>
        <time>2022-06-04T06:49:05.000Z</time>
      </trkpt>
      <trkpt lat="43.51117157377302646636962890625" lon="-5.668584890663623809814453125">
        <ele>33.799999237060546875</ele>
        <time>2022-06-04T06:49:07.000Z</time>
      </trkpt>
      <trkpt lat="43.51122722961008548736572265625" lon="-5.6684281490743160247802734375">
        <ele>33.59999847412109375</ele>
        <time>2022-06-04T06:49:09.000Z</time>
      </trkpt>
      <trkpt lat="43.5112776048481464385986328125" lon="-5.66827551461756229400634765625">
        <ele>33.59999847412109375</ele>
        <time>2022-06-04T06:49:11.000Z</time>
      </trkpt>
      <trkpt lat="43.51133166812360286712646484375" lon="-5.66811961121857166290283203125">
        <ele>33.59999847412109375</ele>
        <time>2022-06-04T06:49:13.000Z</time>
      </trkpt>
      <trkpt lat="43.51138807833194732666015625" lon="-5.66796404309570789337158203125">
        <ele>33.59999847412109375</ele>
        <time>2022-06-04T06:49:15.000Z</time>
      </trkpt>
      <trkpt lat="43.5114157386124134063720703125" lon="-5.66788525320589542388916015625">
        <ele>33.40000152587890625</ele>
        <time>2022-06-04T06:49:16.000Z</time>
      </trkpt>
      <trkpt lat="43.5114423930644989013671875" lon="-5.66780646331608295440673828125">
        <ele>33.40000152587890625</ele>
        <time>2022-06-04T06:49:17.000Z</time>
      </trkpt>
      <trkpt lat="43.511496372520923614501953125" lon="-5.66764703951776027679443359375">
        <ele>33.200000762939453125</ele>
        <time>2022-06-04T06:49:19.000Z</time>
      </trkpt>
      <trkpt lat="43.51155328564345836639404296875" lon="-5.6674809940159320831298828125">
        <ele>32.799999237060546875</ele>
        <time>2022-06-04T06:49:21.000Z</time>
      </trkpt>
      <trkpt lat="43.5116088576614856719970703125" lon="-5.6673086620867252349853515625">
        <ele>32.59999847412109375</ele>
        <time>2022-06-04T06:49:23.000Z</time>
      </trkpt>
      <trkpt lat="43.511635176837444305419921875" lon="-5.66722325049340724945068359375">
        <ele>32.40000152587890625</ele>
        <time>2022-06-04T06:49:24.000Z</time>
      </trkpt>
      <trkpt lat="43.51166241802275180816650390625" lon="-5.66714010201394557952880859375">
        <ele>32.40000152587890625</ele>
        <time>2022-06-04T06:49:25.000Z</time>
      </trkpt>
      <trkpt lat="43.5117181576788425445556640625" lon="-5.66698386333882808685302734375">
        <ele>32.40000152587890625</ele>
        <time>2022-06-04T06:49:27.000Z</time>
      </trkpt>
      <trkpt lat="43.51177071221172809600830078125" lon="-5.6668438017368316650390625">
        <ele>32.40000152587890625</ele>
        <time>2022-06-04T06:49:29.000Z</time>
      </trkpt>
      <trkpt lat="43.51179367862641811370849609375" lon="-5.6667821109294891357421875">
        <ele>32.200000762939453125</ele>
        <time>2022-06-04T06:49:30.000Z</time>
      </trkpt>
      <trkpt lat="43.5118157230317592620849609375" lon="-5.666721425950527191162109375">
        <ele>32.200000762939453125</ele>
        <time>2022-06-04T06:49:31.000Z</time>
      </trkpt>
      <trkpt lat="43.511853106319904327392578125" lon="-5.66661673597991466522216796875">
        <ele>32</ele>
        <time>2022-06-04T06:49:33.000Z</time>
      </trkpt>
      <trkpt lat="43.51188319735229015350341796875" lon="-5.666523613035678863525390625">
        <ele>31.799999237060546875</ele>
        <time>2022-06-04T06:49:35.000Z</time>
      </trkpt>
      <trkpt lat="43.51189794950187206268310546875" lon="-5.66647835075855255126953125">
        <ele>31.799999237060546875</ele>
        <time>2022-06-04T06:49:36.000Z</time>
      </trkpt>
      <trkpt lat="43.51190842688083648681640625" lon="-5.66643099300563335418701171875">
        <ele>31.799999237060546875</ele>
        <time>2022-06-04T06:49:37.000Z</time>
      </trkpt>
      <trkpt lat="43.51190197281539440155029296875" lon="-5.6663236208260059356689453125">
        <ele>31.6000003814697265625</ele>
        <time>2022-06-04T06:49:39.000Z</time>
      </trkpt>
      <trkpt lat="43.51188252680003643035888671875" lon="-5.66626922227442264556884765625">
        <ele>31.6000003814697265625</ele>
        <time>2022-06-04T06:49:40.000Z</time>
      </trkpt>
      <trkpt lat="43.5118581354618072509765625" lon="-5.66621507517993450164794921875">
        <ele>31.6000003814697265625</ele>
        <time>2022-06-04T06:49:41.000Z</time>
      </trkpt>
      <trkpt lat="43.51183625869452953338623046875" lon="-5.666157491505146026611328125">
        <ele>31.6000003814697265625</ele>
        <time>2022-06-04T06:49:42.000Z</time>
      </trkpt>
      <trkpt lat="43.5118207521736621856689453125" lon="-5.6660936214029788970947265625">
        <ele>31.6000003814697265625</ele>
        <time>2022-06-04T06:49:43.000Z</time>
      </trkpt>
      <trkpt lat="43.511817567050457000732421875" lon="-5.66595322452485561370849609375">
        <ele>31.6000003814697265625</ele>
        <time>2022-06-04T06:49:45.000Z</time>
      </trkpt>
      <trkpt lat="43.51186039857566356658935546875" lon="-5.66581324674189090728759765625">
        <ele>31.6000003814697265625</ele>
        <time>2022-06-04T06:49:47.000Z</time>
      </trkpt>
      <trkpt lat="43.5118995420634746551513671875" lon="-5.6657573394477367401123046875">
        <ele>31.6000003814697265625</ele>
        <time>2022-06-04T06:49:48.000Z</time>
      </trkpt>
      <trkpt lat="43.51194824092090129852294921875" lon="-5.66571601666510105133056640625">
        <ele>31.6000003814697265625</ele>
        <time>2022-06-04T06:49:49.000Z</time>
      </trkpt>
      <trkpt lat="43.5120554454624652862548828125" lon="-5.6656698323786258697509765625">
        <ele>31.6000003814697265625</ele>
        <time>2022-06-04T06:49:51.000Z</time>
      </trkpt>
      <trkpt lat="43.51210531778633594512939453125" lon="-5.66564611159265041351318359375">
        <ele>31.6000003814697265625</ele>
        <time>2022-06-04T06:49:52.000Z</time>
      </trkpt>
      <trkpt lat="43.51214840076863765716552734375" lon="-5.66560738719999790191650390625">
        <ele>31.3999996185302734375</ele>
        <time>2022-06-04T06:49:53.000Z</time>
      </trkpt>
      <trkpt lat="43.5121848620474338531494140625" lon="-5.66555156372487545013427734375">
        <ele>31.3999996185302734375</ele>
        <time>2022-06-04T06:49:54.000Z</time>
      </trkpt>
      <trkpt lat="43.51221411488950252532958984375" lon="-5.66548551432788372039794921875">
        <ele>31.3999996185302734375</ele>
        <time>2022-06-04T06:49:55.000Z</time>
      </trkpt>
      <trkpt lat="43.51223993115127086639404296875" lon="-5.66541410051286220550537109375">
        <ele>31.3999996185302734375</ele>
        <time>2022-06-04T06:49:56.000Z</time>
      </trkpt>
      <trkpt lat="43.51226440630853176116943359375" lon="-5.66534109413623809814453125">
        <ele>31.200000762939453125</ele>
        <time>2022-06-04T06:49:57.000Z</time>
      </trkpt>
      <trkpt lat="43.5123203136026859283447265625" lon="-5.66518326289951801300048828125">
        <ele>31</ele>
        <time>2022-06-04T06:49:59.000Z</time>
      </trkpt>
      <trkpt lat="43.512379825115203857421875" lon="-5.66501461900770664215087890625">
        <ele>30.799999237060546875</ele>
        <time>2022-06-04T06:50:01.000Z</time>
      </trkpt>
      <trkpt lat="43.5124400071799755096435546875" lon="-5.66483558155596256256103515625">
        <ele>30.6000003814697265625</ele>
        <time>2022-06-04T06:50:03.000Z</time>
      </trkpt>
      <trkpt lat="43.512500189244747161865234375" lon="-5.66466375254094600677490234375">
        <ele>30.200000762939453125</ele>
        <time>2022-06-04T06:50:05.000Z</time>
      </trkpt>
      <trkpt lat="43.5125580243766307830810546875" lon="-5.66449779085814952850341796875">
        <ele>29.6000003814697265625</ele>
        <time>2022-06-04T06:50:07.000Z</time>
      </trkpt>
      <trkpt lat="43.5126126743853092193603515625" lon="-5.66432126797735691070556640625">
        <ele>29</ele>
        <time>2022-06-04T06:50:09.000Z</time>
      </trkpt>
      <trkpt lat="43.51267025806009769439697265625" lon="-5.664140470325946807861328125">
        <ele>28.6000003814697265625</ele>
        <time>2022-06-04T06:50:11.000Z</time>
      </trkpt>
      <trkpt lat="43.51269833743572235107421875" lon="-5.6640517897903919219970703125">
        <ele>28.200000762939453125</ele>
        <time>2022-06-04T06:50:12.000Z</time>
      </trkpt>
      <trkpt lat="43.5127259977161884307861328125" lon="-5.6639669649302959442138671875">
        <ele>28</ele>
        <time>2022-06-04T06:50:13.000Z</time>
      </trkpt>
      <trkpt lat="43.51275441236793994903564453125" lon="-5.66388876177370548248291015625">
        <ele>27.6000003814697265625</ele>
        <time>2022-06-04T06:50:14.000Z</time>
      </trkpt>
      <trkpt lat="43.512780480086803436279296875" lon="-5.6638157553970813751220703125">
        <ele>27.3999996185302734375</ele>
        <time>2022-06-04T06:50:15.000Z</time>
      </trkpt>
      <trkpt lat="43.5128021053969860076904296875" lon="-5.66374526359140872955322265625">
        <ele>27.200000762939453125</ele>
        <time>2022-06-04T06:50:16.000Z</time>
      </trkpt>
      <trkpt lat="43.512820713222026824951171875" lon="-5.6636853329837322235107421875">
        <ele>26.799999237060546875</ele>
        <time>2022-06-04T06:50:17.000Z</time>
      </trkpt>
      <trkpt lat="43.512850217521190643310546875" lon="-5.6635914556682109832763671875">
        <ele>26</ele>
        <time>2022-06-04T06:50:19.000Z</time>
      </trkpt>
      <trkpt lat="43.5128641314804553985595703125" lon="-5.6635522283613681793212890625">
        <ele>25.799999237060546875</ele>
        <time>2022-06-04T06:50:20.000Z</time>
      </trkpt>
      <trkpt lat="43.51287511177361011505126953125" lon="-5.66351559944450855255126953125">
        <ele>25.6000003814697265625</ele>
        <time>2022-06-04T06:50:21.000Z</time>
      </trkpt>
      <trkpt lat="43.51287310011684894561767578125" lon="-5.6634761206805706024169921875">
        <ele>25.3999996185302734375</ele>
        <time>2022-06-04T06:50:22.000Z</time>
      </trkpt>
      <trkpt lat="43.512855581939220428466796875" lon="-5.66344586201012134552001953125">
        <ele>25.3999996185302734375</ele>
        <time>2022-06-04T06:50:23.000Z</time>
      </trkpt>
      <trkpt lat="43.512798584997653961181640625" lon="-5.6634053774178028106689453125">
        <ele>25.200000762939453125</ele>
        <time>2022-06-04T06:50:25.000Z</time>
      </trkpt>
      <trkpt lat="43.51275810040533542633056640625" lon="-5.66338534466922283172607421875">
        <ele>25.200000762939453125</ele>
        <time>2022-06-04T06:50:26.000Z</time>
      </trkpt>
      <trkpt lat="43.51271417923271656036376953125" lon="-5.6633658148348331451416015625">
        <ele>25</ele>
        <time>2022-06-04T06:50:27.000Z</time>
      </trkpt>
      <trkpt lat="43.5126207210123538970947265625" lon="-5.663313008844852447509765625">
        <ele>25</ele>
        <time>2022-06-04T06:50:29.000Z</time>
      </trkpt>
      <trkpt lat="43.5125767998397350311279296875" lon="-5.66328258253633975982666015625">
        <ele>25</ele>
        <time>2022-06-04T06:50:30.000Z</time>
      </trkpt>
      <trkpt lat="43.51253204047679901123046875" lon="-5.66325559280812740325927734375">
        <ele>25</ele>
        <time>2022-06-04T06:50:31.000Z</time>
      </trkpt>
      <trkpt lat="43.51248552091419696807861328125" lon="-5.66323379985988140106201171875">
        <ele>24.799999237060546875</ele>
        <time>2022-06-04T06:50:32.000Z</time>
      </trkpt>
      <trkpt lat="43.51243707351386547088623046875" lon="-5.66320915706455707550048828125">
        <ele>24.799999237060546875</ele>
        <time>2022-06-04T06:50:33.000Z</time>
      </trkpt>
      <trkpt lat="43.5123414359986782073974609375" lon="-5.6631599552929401397705078125">
        <ele>24.6000003814697265625</ele>
        <time>2022-06-04T06:50:35.000Z</time>
      </trkpt>
      <trkpt lat="43.51228720508515834808349609375" lon="-5.66307999193668365478515625">
        <ele>24.200000762939453125</ele>
        <time>2022-06-04T06:50:37.000Z</time>
      </trkpt>
      <trkpt lat="43.51226775906980037689208984375" lon="-5.66304386593401432037353515625">
        <ele>24.200000762939453125</ele>
        <time>2022-06-04T06:50:38.000Z</time>
      </trkpt>
      <trkpt lat="43.5122452117502689361572265625" lon="-5.66301234997808933258056640625">
        <ele>24.200000762939453125</ele>
        <time>2022-06-04T06:50:39.000Z</time>
      </trkpt>
      <trkpt lat="43.5121999494731426239013671875" lon="-5.662957616150379180908203125">
        <ele>24.200000762939453125</ele>
        <time>2022-06-04T06:50:41.000Z</time>
      </trkpt>
      <trkpt lat="43.51215644739568233489990234375" lon="-5.6628987751901149749755859375">
        <ele>24.200000762939453125</ele>
        <time>2022-06-04T06:50:43.000Z</time>
      </trkpt>
      <trkpt lat="43.51213415153324604034423828125" lon="-5.66287119872868061065673828125">
        <ele>24.200000762939453125</ele>
        <time>2022-06-04T06:50:44.000Z</time>
      </trkpt>
      <trkpt lat="43.5121144540607929229736328125" lon="-5.662844963371753692626953125">
        <ele>24.200000762939453125</ele>
        <time>2022-06-04T06:50:45.000Z</time>
      </trkpt>
      <trkpt lat="43.51207195781171321868896484375" lon="-5.66279274411499500274658203125">
        <ele>25</ele>
        <time>2022-06-04T06:50:47.000Z</time>
      </trkpt>
      <trkpt lat="43.51204765029251575469970703125" lon="-5.66276826895773410797119140625">
        <ele>25.3999996185302734375</ele>
        <time>2022-06-04T06:50:48.000Z</time>
      </trkpt>
      <trkpt lat="43.51202267222106456756591796875" lon="-5.66274412907660007476806640625">
        <ele>26</ele>
        <time>2022-06-04T06:50:49.000Z</time>
      </trkpt>
      <trkpt lat="43.51199568249285221099853515625" lon="-5.662722252309322357177734375">
        <ele>26.3999996185302734375</ele>
        <time>2022-06-04T06:50:50.000Z</time>
      </trkpt>
      <trkpt lat="43.51196802221238613128662109375" lon="-5.6627002917230129241943359375">
        <ele>27</ele>
        <time>2022-06-04T06:50:51.000Z</time>
      </trkpt>
      <trkpt lat="43.5119401104748249053955078125" lon="-5.662681348621845245361328125">
        <ele>27.3999996185302734375</ele>
        <time>2022-06-04T06:50:52.000Z</time>
      </trkpt>
      <trkpt lat="43.51191353984177112579345703125" lon="-5.66266399808228015899658203125">
        <ele>28</ele>
        <time>2022-06-04T06:50:53.000Z</time>
      </trkpt>
      <trkpt lat="43.51186207495629787445068359375" lon="-5.66263432614505290985107421875">
        <ele>28.6000003814697265625</ele>
        <time>2022-06-04T06:50:55.000Z</time>
      </trkpt>
      <trkpt lat="43.5118366777896881103515625" lon="-5.6626245193183422088623046875">
        <ele>29</ele>
        <time>2022-06-04T06:50:56.000Z</time>
      </trkpt>
      <trkpt lat="43.51180960424244403839111328125" lon="-5.66261772997677326202392578125">
        <ele>29.3999996185302734375</ele>
        <time>2022-06-04T06:50:57.000Z</time>
      </trkpt>
      <trkpt lat="43.51178144104778766632080078125" lon="-5.66261655651032924652099609375">
        <ele>29.799999237060546875</ele>
        <time>2022-06-04T06:50:58.000Z</time>
      </trkpt>
      <trkpt lat="43.5117536969482898712158203125" lon="-5.66262007690966129302978515625">
        <ele>30.200000762939453125</ele>
        <time>2022-06-04T06:50:59.000Z</time>
      </trkpt>
      <trkpt lat="43.51170080713927745819091796875" lon="-5.66264019347727298736572265625">
        <ele>30.6000003814697265625</ele>
        <time>2022-06-04T06:51:01.000Z</time>
      </trkpt>
      <trkpt lat="43.5116739012300968170166015625" lon="-5.6626587174832820892333984375">
        <ele>31</ele>
        <time>2022-06-04T06:51:02.000Z</time>
      </trkpt>
      <trkpt lat="43.5116480849683284759521484375" lon="-5.66268168389797210693359375">
        <ele>31.200000762939453125</ele>
        <time>2022-06-04T06:51:03.000Z</time>
      </trkpt>
      <trkpt lat="43.51159251295030117034912109375" lon="-5.66273323260247707366943359375">
        <ele>31.3999996185302734375</ele>
        <time>2022-06-04T06:51:05.000Z</time>
      </trkpt>
      <trkpt lat="43.511529229581356048583984375" lon="-5.662770532071590423583984375">
        <ele>32</ele>
        <time>2022-06-04T06:51:07.000Z</time>
      </trkpt>
      <trkpt lat="43.51149578578770160675048828125" lon="-5.6627797521650791168212890625">
        <ele>32.200000762939453125</ele>
        <time>2022-06-04T06:51:08.000Z</time>
      </trkpt>
      <trkpt lat="43.5114633478224277496337890625" lon="-5.66278872080147266387939453125">
        <ele>32.200000762939453125</ele>
        <time>2022-06-04T06:51:09.000Z</time>
      </trkpt>
      <trkpt lat="43.51139855571091175079345703125" lon="-5.66280045546591281890869140625">
        <ele>32.59999847412109375</ele>
        <time>2022-06-04T06:51:11.000Z</time>
      </trkpt>
      <trkpt lat="43.5113324224948883056640625" lon="-5.6628075800836086273193359375">
        <ele>32.799999237060546875</ele>
        <time>2022-06-04T06:51:13.000Z</time>
      </trkpt>
      <trkpt lat="43.51130082271993160247802734375" lon="-5.66280967555940151214599609375">
        <ele>33</ele>
        <time>2022-06-04T06:51:14.000Z</time>
      </trkpt>
      <trkpt lat="43.51127081550657749176025390625" lon="-5.66280967555940151214599609375">
        <ele>33</ele>
        <time>2022-06-04T06:51:15.000Z</time>
      </trkpt>
      <trkpt lat="43.51121373474597930908203125" lon="-5.6628092564642429351806640625">
        <ele>33.40000152587890625</ele>
        <time>2022-06-04T06:51:17.000Z</time>
      </trkpt>
      <trkpt lat="43.51115866564214229583740234375" lon="-5.66281302832067012786865234375">
        <ele>33.59999847412109375</ele>
        <time>2022-06-04T06:51:19.000Z</time>
      </trkpt>
      <trkpt lat="43.5111069492995738983154296875" lon="-5.66281856037676334381103515625">
        <ele>33.799999237060546875</ele>
        <time>2022-06-04T06:51:21.000Z</time>
      </trkpt>
      <trkpt lat="43.511054813861846923828125" lon="-5.6628236733376979827880859375">
        <ele>34</ele>
        <time>2022-06-04T06:51:23.000Z</time>
      </trkpt>
      <trkpt lat="43.5110107250511646270751953125" lon="-5.6628338992595672607421875">
        <ele>34.59999847412109375</ele>
        <time>2022-06-04T06:51:25.000Z</time>
      </trkpt>
      <trkpt lat="43.51096772588789463043212890625" lon="-5.662850327789783477783203125">
        <ele>35.200000762939453125</ele>
        <time>2022-06-04T06:51:27.000Z</time>
      </trkpt>
      <trkpt lat="43.51092481054365634918212890625" lon="-5.66286449320614337921142578125">
        <ele>35.799999237060546875</ele>
        <time>2022-06-04T06:51:29.000Z</time>
      </trkpt>
      <trkpt lat="43.51088055409491062164306640625" lon="-5.66287371329963207244873046875">
        <ele>36.40000152587890625</ele>
        <time>2022-06-04T06:51:31.000Z</time>
      </trkpt>
      <trkpt lat="43.510834872722625732421875" lon="-5.6628850288689136505126953125">
        <ele>37</ele>
        <time>2022-06-04T06:51:33.000Z</time>
      </trkpt>
      <trkpt lat="43.51078768260776996612548828125" lon="-5.6628957577049732208251953125">
        <ele>37.59999847412109375</ele>
        <time>2022-06-04T06:51:35.000Z</time>
      </trkpt>
      <trkpt lat="43.510739989578723907470703125" lon="-5.662906654179096221923828125">
        <ele>38</ele>
        <time>2022-06-04T06:51:37.000Z</time>
      </trkpt>
      <trkpt lat="43.51069095544517040252685546875" lon="-5.66291528753936290740966796875">
        <ele>38.40000152587890625</ele>
        <time>2022-06-04T06:51:39.000Z</time>
      </trkpt>
      <trkpt lat="43.5106658935546875" lon="-5.66291662864387035369873046875">
        <ele>38.59999847412109375</ele>
        <time>2022-06-04T06:51:40.000Z</time>
      </trkpt>
      <trkpt lat="43.51064066402614116668701171875" lon="-5.6629152037203311920166015625">
        <ele>39.200000762939453125</ele>
        <time>2022-06-04T06:51:41.000Z</time>
      </trkpt>
      <trkpt lat="43.5106161050498485565185546875" lon="-5.66291227005422115325927734375">
        <ele>39.40000152587890625</ele>
        <time>2022-06-04T06:51:42.000Z</time>
      </trkpt>
      <trkpt lat="43.5105907917022705078125" lon="-5.6629090011119842529296875">
        <ele>39.799999237060546875</ele>
        <time>2022-06-04T06:51:43.000Z</time>
      </trkpt>
      <trkpt lat="43.510538153350353240966796875" lon="-5.6629009544849395751953125">
        <ele>40.200000762939453125</ele>
        <time>2022-06-04T06:51:45.000Z</time>
      </trkpt>
      <trkpt lat="43.51048945449292659759521484375" lon="-5.6628902256488800048828125">
        <ele>40.799999237060546875</ele>
        <time>2022-06-04T06:51:47.000Z</time>
      </trkpt>
      <trkpt lat="43.51044201292097568511962890625" lon="-5.6628813408315181732177734375">
        <ele>41.40000152587890625</ele>
        <time>2022-06-04T06:51:49.000Z</time>
      </trkpt>
      <trkpt lat="43.51041669957339763641357421875" lon="-5.66287153400480747222900390625">
        <ele>41.59999847412109375</ele>
        <time>2022-06-04T06:51:50.000Z</time>
      </trkpt>
      <trkpt lat="43.51039172150194644927978515625" lon="-5.662858374416828155517578125">
        <ele>41.799999237060546875</ele>
        <time>2022-06-04T06:51:51.000Z</time>
      </trkpt>
      <trkpt lat="43.51034075953066349029541015625" lon="-5.662825517356395721435546875">
        <ele>42.40000152587890625</ele>
        <time>2022-06-04T06:51:53.000Z</time>
      </trkpt>
      <trkpt lat="43.51029030047357082366943359375" lon="-5.66278637386858463287353515625">
        <ele>42.799999237060546875</ele>
        <time>2022-06-04T06:51:55.000Z</time>
      </trkpt>
      <trkpt lat="43.51024034433066844940185546875" lon="-5.66274228505790233612060546875">
        <ele>43</ele>
        <time>2022-06-04T06:51:57.000Z</time>
      </trkpt>
      <trkpt lat="43.5102139413356781005859375" lon="-5.66272057592868804931640625">
        <ele>43.200000762939453125</ele>
        <time>2022-06-04T06:51:58.000Z</time>
      </trkpt>
      <trkpt lat="43.51018619723618030548095703125" lon="-5.6626982800662517547607421875">
        <ele>43.40000152587890625</ele>
        <time>2022-06-04T06:51:59.000Z</time>
      </trkpt>
      <trkpt lat="43.51013121195137500762939453125" lon="-5.6626533530652523040771484375">
        <ele>44</ele>
        <time>2022-06-04T06:52:01.000Z</time>
      </trkpt>
      <trkpt lat="43.5100783221423625946044921875" lon="-5.66261219792068004608154296875">
        <ele>44.200000762939453125</ele>
        <time>2022-06-04T06:52:03.000Z</time>
      </trkpt>
      <trkpt lat="43.51002409122884273529052734375" lon="-5.66256903111934661865234375">
        <ele>44.40000152587890625</ele>
        <time>2022-06-04T06:52:05.000Z</time>
      </trkpt>
      <trkpt lat="43.5099723748862743377685546875" lon="-5.66252854652702808380126953125">
        <ele>44.59999847412109375</ele>
        <time>2022-06-04T06:52:07.000Z</time>
      </trkpt>
      <trkpt lat="43.50992300547659397125244140625" lon="-5.66248898394405841827392578125">
        <ele>45</ele>
        <time>2022-06-04T06:52:09.000Z</time>
      </trkpt>
      <trkpt lat="43.50987170822918415069580078125" lon="-5.662450678646564483642578125">
        <ele>45.200000762939453125</ele>
        <time>2022-06-04T06:52:11.000Z</time>
      </trkpt>
      <trkpt lat="43.50981806404888629913330078125" lon="-5.66241639666259288787841796875">
        <ele>45.40000152587890625</ele>
        <time>2022-06-04T06:52:13.000Z</time>
      </trkpt>
      <trkpt lat="43.50979258306324481964111328125" lon="-5.66240013577044010162353515625">
        <ele>45.40000152587890625</ele>
        <time>2022-06-04T06:52:14.000Z</time>
      </trkpt>
      <trkpt lat="43.509767353534698486328125" lon="-5.66238471306860446929931640625">
        <ele>45.59999847412109375</ele>
        <time>2022-06-04T06:52:15.000Z</time>
      </trkpt>
      <trkpt lat="43.50971437990665435791015625" lon="-5.66235235892236232757568359375">
        <ele>46.200000762939453125</ele>
        <time>2022-06-04T06:52:17.000Z</time>
      </trkpt>
      <trkpt lat="43.50966274738311767578125" lon="-5.6623214296996593475341796875">
        <ele>46.59999847412109375</ele>
        <time>2022-06-04T06:52:19.000Z</time>
      </trkpt>
      <trkpt lat="43.509611450135707855224609375" lon="-5.662293098866939544677734375">
        <ele>46.799999237060546875</ele>
        <time>2022-06-04T06:52:21.000Z</time>
      </trkpt>
      <trkpt lat="43.5095593146979808807373046875" lon="-5.66226552240550518035888671875">
        <ele>47.200000762939453125</ele>
        <time>2022-06-04T06:52:23.000Z</time>
      </trkpt>
      <trkpt lat="43.509504497051239013671875" lon="-5.66223819740116596221923828125">
        <ele>47.59999847412109375</ele>
        <time>2022-06-04T06:52:25.000Z</time>
      </trkpt>
      <trkpt lat="43.50945227779448032379150390625" lon="-5.6622131355106830596923828125">
        <ele>48</ele>
        <time>2022-06-04T06:52:27.000Z</time>
      </trkpt>
      <trkpt lat="43.50940148346126079559326171875" lon="-5.66218505613505840301513671875">
        <ele>48.59999847412109375</ele>
        <time>2022-06-04T06:52:29.000Z</time>
      </trkpt>
      <trkpt lat="43.509375751018524169921875" lon="-5.66217030398547649383544921875">
        <ele>48.799999237060546875</ele>
        <time>2022-06-04T06:52:30.000Z</time>
      </trkpt>
      <trkpt lat="43.50935001857578754425048828125" lon="-5.662156641483306884765625">
        <ele>49</ele>
        <time>2022-06-04T06:52:31.000Z</time>
      </trkpt>
      <trkpt lat="43.50929654203355312347412109375" lon="-5.6621323339641094207763671875">
        <ele>49.59999847412109375</ele>
        <time>2022-06-04T06:52:33.000Z</time>
      </trkpt>
      <trkpt lat="43.50926737301051616668701171875" lon="-5.66211967729032039642333984375">
        <ele>49.799999237060546875</ele>
        <time>2022-06-04T06:52:34.000Z</time>
      </trkpt>
      <trkpt lat="43.50923853926360607147216796875" lon="-5.6621091999113559722900390625">
        <ele>50.200000762939453125</ele>
        <time>2022-06-04T06:52:35.000Z</time>
      </trkpt>
      <trkpt lat="43.50917994976043701171875" lon="-5.66209168173372745513916015625">
        <ele>50.59999847412109375</ele>
        <time>2022-06-04T06:52:37.000Z</time>
      </trkpt>
      <trkpt lat="43.509150445461273193359375" lon="-5.6620786897838115692138671875">
        <ele>50.799999237060546875</ele>
        <time>2022-06-04T06:52:38.000Z</time>
      </trkpt>
      <trkpt lat="43.50912169553339481353759765625" lon="-5.66206083633005619049072265625">
        <ele>51</ele>
        <time>2022-06-04T06:52:39.000Z</time>
      </trkpt>
      <trkpt lat="43.509062267839908599853515625" lon="-5.66201247274875640869140625">
        <ele>51.200000762939453125</ele>
        <time>2022-06-04T06:52:41.000Z</time>
      </trkpt>
      <trkpt lat="43.50903066806495189666748046875" lon="-5.6619757600128650665283203125">
        <ele>51.200000762939453125</ele>
        <time>2022-06-04T06:52:42.000Z</time>
      </trkpt>
      <trkpt lat="43.5090000741183757781982421875" lon="-5.66192890517413616180419921875">
        <ele>51.200000762939453125</ele>
        <time>2022-06-04T06:52:43.000Z</time>
      </trkpt>
      <trkpt lat="43.5089373774826526641845703125" lon="-5.6618208624422550201416015625">
        <ele>51.40000152587890625</ele>
        <time>2022-06-04T06:52:45.000Z</time>
      </trkpt>
      <trkpt lat="43.508860766887664794921875" lon="-5.66170712001621723175048828125">
        <ele>51.40000152587890625</ele>
        <time>2022-06-04T06:52:47.000Z</time>
      </trkpt>
      <trkpt lat="43.508756160736083984375" lon="-5.6616126559674739837646484375">
        <ele>51.200000762939453125</ele>
        <time>2022-06-04T06:52:49.000Z</time>
      </trkpt>
      <trkpt lat="43.50863956846296787261962890625" lon="-5.66160486079752445220947265625">
        <ele>51</ele>
        <time>2022-06-04T06:52:51.000Z</time>
      </trkpt>
      <trkpt lat="43.5085803084075450897216796875" lon="-5.6616243906319141387939453125">
        <ele>50.799999237060546875</ele>
        <time>2022-06-04T06:52:52.000Z</time>
      </trkpt>
      <trkpt lat="43.508521132171154022216796875" lon="-5.66164291463792324066162109375">
        <ele>50.799999237060546875</ele>
        <time>2022-06-04T06:52:53.000Z</time>
      </trkpt>
      <trkpt lat="43.5084126703441143035888671875" lon="-5.66166470758616924285888671875">
        <ele>50.200000762939453125</ele>
        <time>2022-06-04T06:52:55.000Z</time>
      </trkpt>
      <trkpt lat="43.50831200368702411651611328125" lon="-5.66167987883090972900390625">
        <ele>50</ele>
        <time>2022-06-04T06:52:57.000Z</time>
      </trkpt>
      <trkpt lat="43.50826506502926349639892578125" lon="-5.6616854108870029449462890625">
        <ele>49.799999237060546875</ele>
        <time>2022-06-04T06:52:58.000Z</time>
      </trkpt>
      <trkpt lat="43.50822282023727893829345703125" lon="-5.66169018857181072235107421875">
        <ele>49.799999237060546875</ele>
        <time>2022-06-04T06:52:59.000Z</time>
      </trkpt>
      <trkpt lat="43.50814470089972019195556640625" lon="-5.6617011688649654388427734375">
        <ele>49.799999237060546875</ele>
        <time>2022-06-04T06:53:01.000Z</time>
      </trkpt>
      <trkpt lat="43.5080676712095737457275390625" lon="-5.6617072038352489471435546875">
        <ele>49.799999237060546875</ele>
        <time>2022-06-04T06:53:03.000Z</time>
      </trkpt>
      <trkpt lat="43.50799047388136386871337890625" lon="-5.66171030513942241668701171875">
        <ele>50.200000762939453125</ele>
        <time>2022-06-04T06:53:05.000Z</time>
      </trkpt>
      <trkpt lat="43.50789978168904781341552734375" lon="-5.661715082824230194091796875">
        <ele>50.40000152587890625</ele>
        <time>2022-06-04T06:53:07.000Z</time>
      </trkpt>
      <trkpt lat="43.50784647278487682342529296875" lon="-5.6617249734699726104736328125">
        <ele>50.40000152587890625</ele>
        <time>2022-06-04T06:53:08.000Z</time>
      </trkpt>
      <trkpt lat="43.5077907331287860870361328125" lon="-5.6617422401905059814453125">
        <ele>50.40000152587890625</ele>
        <time>2022-06-04T06:53:09.000Z</time>
      </trkpt>
      <trkpt lat="43.5076767392456531524658203125" lon="-5.6618134863674640655517578125">
        <ele>50.40000152587890625</ele>
        <time>2022-06-04T06:53:11.000Z</time>
      </trkpt>
      <trkpt lat="43.5075587220489978790283203125" lon="-5.6619056873023509979248046875">
        <ele>50.40000152587890625</ele>
        <time>2022-06-04T06:53:13.000Z</time>
      </trkpt>
      <trkpt lat="43.507437519729137420654296875" lon="-5.661945082247257232666015625">
        <ele>50.40000152587890625</ele>
        <time>2022-06-04T06:53:15.000Z</time>
      </trkpt>
      <trkpt lat="43.50738823413848876953125" lon="-5.66192287020385265350341796875">
        <ele>50.200000762939453125</ele>
        <time>2022-06-04T06:53:16.000Z</time>
      </trkpt>
      <trkpt lat="43.50734892301261425018310546875" lon="-5.661885403096675872802734375">
        <ele>49.799999237060546875</ele>
        <time>2022-06-04T06:53:17.000Z</time>
      </trkpt>
      <trkpt lat="43.507281951606273651123046875" lon="-5.6618010811507701873779296875">
        <ele>48.40000152587890625</ele>
        <time>2022-06-04T06:53:19.000Z</time>
      </trkpt>
      <trkpt lat="43.5072474181652069091796875" lon="-5.66176210530102252960205078125">
        <ele>48</ele>
        <time>2022-06-04T06:53:20.000Z</time>
      </trkpt>
      <trkpt lat="43.5072137229144573211669921875" lon="-5.6617300026118755340576171875">
        <ele>47.799999237060546875</ele>
        <time>2022-06-04T06:53:21.000Z</time>
      </trkpt>
      <trkpt lat="43.50715060718357563018798828125" lon="-5.661686919629573822021484375">
        <ele>47.59999847412109375</ele>
        <time>2022-06-04T06:53:23.000Z</time>
      </trkpt>
      <trkpt lat="43.50711858831346035003662109375" lon="-5.66167577169835567474365234375">
        <ele>47.59999847412109375</ele>
        <time>2022-06-04T06:53:24.000Z</time>
      </trkpt>
      <trkpt lat="43.50708656944334506988525390625" lon="-5.66167040728032588958740234375">
        <ele>47.59999847412109375</ele>
        <time>2022-06-04T06:53:25.000Z</time>
      </trkpt>
      <trkpt lat="43.50703091360628604888916015625" lon="-5.661668479442596435546875">
        <ele>47.59999847412109375</ele>
        <time>2022-06-04T06:53:27.000Z</time>
      </trkpt>
      <trkpt lat="43.506978861987590789794921875" lon="-5.6616663001477718353271484375">
        <ele>47.59999847412109375</ele>
        <time>2022-06-04T06:53:29.000Z</time>
      </trkpt>
      <trkpt lat="43.50692681036889553070068359375" lon="-5.6616671383380889892578125">
        <ele>48</ele>
        <time>2022-06-04T06:53:31.000Z</time>
      </trkpt>
      <trkpt lat="43.5068767704069614410400390625" lon="-5.66166638396680355072021484375">
        <ele>49.200000762939453125</ele>
        <time>2022-06-04T06:53:33.000Z</time>
      </trkpt>
      <trkpt lat="43.5068519599735736846923828125" lon="-5.661667473614215850830078125">
        <ele>49.59999847412109375</ele>
        <time>2022-06-04T06:53:34.000Z</time>
      </trkpt>
      <trkpt lat="43.506827317178249359130859375" lon="-5.6616689823567867279052734375">
        <ele>50</ele>
        <time>2022-06-04T06:53:35.000Z</time>
      </trkpt>
      <trkpt lat="43.506778366863727569580078125" lon="-5.661671496927738189697265625">
        <ele>50.59999847412109375</ele>
        <time>2022-06-04T06:53:37.000Z</time>
      </trkpt>
      <trkpt lat="43.50672882981598377227783203125" lon="-5.66167677752673625946044921875">
        <ele>51.200000762939453125</ele>
        <time>2022-06-04T06:53:39.000Z</time>
      </trkpt>
      <trkpt lat="43.506679125130176544189453125" lon="-5.6616790406405925750732421875">
        <ele>51.799999237060546875</ele>
        <time>2022-06-04T06:53:41.000Z</time>
      </trkpt>
      <trkpt lat="43.5066541470587253570556640625" lon="-5.66168046556413173675537109375">
        <ele>52</ele>
        <time>2022-06-04T06:53:42.000Z</time>
      </trkpt>
      <trkpt lat="43.5066283307969570159912109375" lon="-5.66168264485895633697509765625">
        <ele>52.40000152587890625</ele>
        <time>2022-06-04T06:53:43.000Z</time>
      </trkpt>
      <trkpt lat="43.5065770335495471954345703125" lon="-5.66169194877147674560546875">
        <ele>53</ele>
        <time>2022-06-04T06:53:45.000Z</time>
      </trkpt>
      <trkpt lat="43.5065280832350254058837890625" lon="-5.6616961397230625152587890625">
        <ele>53.59999847412109375</ele>
        <time>2022-06-04T06:53:47.000Z</time>
      </trkpt>
      <trkpt lat="43.5064801387488842010498046875" lon="-5.66169672645628452301025390625">
        <ele>54.200000762939453125</ele>
        <time>2022-06-04T06:53:49.000Z</time>
      </trkpt>
      <trkpt lat="43.50642993114888668060302734375" lon="-5.66170309670269489288330078125">
        <ele>54.59999847412109375</ele>
        <time>2022-06-04T06:53:51.000Z</time>
      </trkpt>
      <trkpt lat="43.5063783824443817138671875" lon="-5.661711394786834716796875">
        <ele>55.200000762939453125</ele>
        <time>2022-06-04T06:53:53.000Z</time>
      </trkpt>
      <trkpt lat="43.50635223090648651123046875" lon="-5.66171466372907161712646484375">
        <ele>55.200000762939453125</ele>
        <time>2022-06-04T06:53:54.000Z</time>
      </trkpt>
      <trkpt lat="43.5063262470066547393798828125" lon="-5.6617186032235622406005859375">
        <ele>55.40000152587890625</ele>
        <time>2022-06-04T06:53:55.000Z</time>
      </trkpt>
      <trkpt lat="43.5062736086547374725341796875" lon="-5.6617249734699726104736328125">
        <ele>55.799999237060546875</ele>
        <time>2022-06-04T06:53:57.000Z</time>
      </trkpt>
      <trkpt lat="43.50622340105473995208740234375" lon="-5.6617306731641292572021484375">
        <ele>56.200000762939453125</ele>
        <time>2022-06-04T06:53:59.000Z</time>
      </trkpt>
      <trkpt lat="43.5061981715261936187744140625" lon="-5.6617350317537784576416015625">
        <ele>56.59999847412109375</ele>
        <time>2022-06-04T06:54:00.000Z</time>
      </trkpt>
      <trkpt lat="43.50617327727377414703369140625" lon="-5.66174299456179141998291015625">
        <ele>56.799999237060546875</ele>
        <time>2022-06-04T06:54:01.000Z</time>
      </trkpt>
      <trkpt lat="43.50612164475023746490478515625" lon="-5.6617556512355804443359375">
        <ele>57.200000762939453125</ele>
        <time>2022-06-04T06:54:03.000Z</time>
      </trkpt>
      <trkpt lat="43.50606925785541534423828125" lon="-5.661765038967132568359375">
        <ele>57.59999847412109375</ele>
        <time>2022-06-04T06:54:05.000Z</time>
      </trkpt>
      <trkpt lat="43.50604402832686901092529296875" lon="-5.66177216358482837677001953125">
        <ele>57.59999847412109375</ele>
        <time>2022-06-04T06:54:06.000Z</time>
      </trkpt>
      <trkpt lat="43.50601921789348125457763671875" lon="-5.66177912056446075439453125">
        <ele>57.799999237060546875</ele>
        <time>2022-06-04T06:54:07.000Z</time>
      </trkpt>
      <trkpt lat="43.5059695132076740264892578125" lon="-5.661792196333408355712890625">
        <ele>58.200000762939453125</ele>
        <time>2022-06-04T06:54:09.000Z</time>
      </trkpt>
      <trkpt lat="43.505921065807342529296875" lon="-5.66180267371237277984619140625">
        <ele>58.59999847412109375</ele>
        <time>2022-06-04T06:54:11.000Z</time>
      </trkpt>
      <trkpt lat="43.5058970935642719268798828125" lon="-5.66181021742522716522216796875">
        <ele>59</ele>
        <time>2022-06-04T06:54:12.000Z</time>
      </trkpt>
      <trkpt lat="43.505872450768947601318359375" lon="-5.6618158333003520965576171875">
        <ele>59.200000762939453125</ele>
        <time>2022-06-04T06:54:13.000Z</time>
      </trkpt>
      <trkpt lat="43.50582391954958438873291015625" lon="-5.6618336029350757598876953125">
        <ele>59.59999847412109375</ele>
        <time>2022-06-04T06:54:15.000Z</time>
      </trkpt>
      <trkpt lat="43.5057753883302211761474609375" lon="-5.6618513725697994232177734375">
        <ele>60.200000762939453125</ele>
        <time>2022-06-04T06:54:17.000Z</time>
      </trkpt>
      <trkpt lat="43.5057281143963336944580078125" lon="-5.66187090240418910980224609375">
        <ele>60.59999847412109375</ele>
        <time>2022-06-04T06:54:19.000Z</time>
      </trkpt>
      <trkpt lat="43.50570707581937313079833984375" lon="-5.66188565455377101898193359375">
        <ele>60.799999237060546875</ele>
        <time>2022-06-04T06:54:20.000Z</time>
      </trkpt>
      <trkpt lat="43.5056875459849834442138671875" lon="-5.66190308891236782073974609375">
        <ele>61</ele>
        <time>2022-06-04T06:54:21.000Z</time>
      </trkpt>
      <trkpt lat="43.50564974360167980194091796875" lon="-5.66194499842822551727294921875">
        <ele>61.59999847412109375</ele>
        <time>2022-06-04T06:54:23.000Z</time>
      </trkpt>
      <trkpt lat="43.5056322254240512847900390625" lon="-5.661969222128391265869140625">
        <ele>62</ele>
        <time>2022-06-04T06:54:24.000Z</time>
      </trkpt>
      <trkpt lat="43.50561604835093021392822265625" lon="-5.66199394874274730682373046875">
        <ele>62.200000762939453125</ele>
        <time>2022-06-04T06:54:25.000Z</time>
      </trkpt>
      <trkpt lat="43.5055839456617832183837890625" lon="-5.66204155795276165008544921875">
        <ele>62.799999237060546875</ele>
        <time>2022-06-04T06:54:27.000Z</time>
      </trkpt>
      <trkpt lat="43.505566008388996124267578125" lon="-5.6620622612535953521728515625">
        <ele>63.59999847412109375</ele>
        <time>2022-06-04T06:54:28.000Z</time>
      </trkpt>
      <trkpt lat="43.50554681383073329925537109375" lon="-5.66208095289766788482666015625">
        <ele>63.799999237060546875</ele>
        <time>2022-06-04T06:54:29.000Z</time>
      </trkpt>
      <trkpt lat="43.50550490431487560272216796875" lon="-5.66210676915943622589111328125">
        <ele>64.1999969482421875</ele>
        <time>2022-06-04T06:54:31.000Z</time>
      </trkpt>
      <trkpt lat="43.50545905530452728271484375" lon="-5.66212319768965244293212890625">
        <ele>64.40000152587890625</ele>
        <time>2022-06-04T06:54:33.000Z</time>
      </trkpt>
      <trkpt lat="43.50543600507080554962158203125" lon="-5.662130154669284820556640625">
        <ele>64.59999847412109375</ele>
        <time>2022-06-04T06:54:34.000Z</time>
      </trkpt>
      <trkpt lat="43.5054127871990203857421875" lon="-5.66213627345860004425048828125">
        <ele>64.8000030517578125</ele>
        <time>2022-06-04T06:54:35.000Z</time>
      </trkpt>
      <trkpt lat="43.50536651909351348876953125" lon="-5.66214733757078647613525390625">
        <ele>65.1999969482421875</ele>
        <time>2022-06-04T06:54:37.000Z</time>
      </trkpt>
      <trkpt lat="43.50531932897865772247314453125" lon="-5.6621574796736240386962890625">
        <ele>65.8000030517578125</ele>
        <time>2022-06-04T06:54:39.000Z</time>
      </trkpt>
      <trkpt lat="43.50527389906346797943115234375" lon="-5.6621819548308849334716796875">
        <ele>66.40000152587890625</ele>
        <time>2022-06-04T06:54:41.000Z</time>
      </trkpt>
      <trkpt lat="43.50524791516363620758056640625" lon="-5.66219645552337169647216796875">
        <ele>66.59999847412109375</ele>
        <time>2022-06-04T06:54:42.000Z</time>
      </trkpt>
      <trkpt lat="43.50522075779736042022705078125" lon="-5.66220693290233612060546875">
        <ele>67</ele>
        <time>2022-06-04T06:54:43.000Z</time>
      </trkpt>
      <trkpt lat="43.5051682032644748687744140625" lon="-5.66222193650901317596435546875">
        <ele>67.40000152587890625</ele>
        <time>2022-06-04T06:54:45.000Z</time>
      </trkpt>
      <trkpt lat="43.50511631928384304046630859375" lon="-5.66223618574440479278564453125">
        <ele>68</ele>
        <time>2022-06-04T06:54:47.000Z</time>
      </trkpt>
      <trkpt lat="43.5050602443516254425048828125" lon="-5.66225311718881130218505859375">
        <ele>68.40000152587890625</ele>
        <time>2022-06-04T06:54:49.000Z</time>
      </trkpt>
      <trkpt lat="43.50499964319169521331787109375" lon="-5.662264265120029449462890625">
        <ele>68.8000030517578125</ele>
        <time>2022-06-04T06:54:51.000Z</time>
      </trkpt>
      <trkpt lat="43.50493946112692356109619140625" lon="-5.66227532923221588134765625">
        <ele>69</ele>
        <time>2022-06-04T06:54:53.000Z</time>
      </trkpt>
      <trkpt lat="43.50491054356098175048828125" lon="-5.66228547133505344390869140625">
        <ele>69.1999969482421875</ele>
        <time>2022-06-04T06:54:54.000Z</time>
      </trkpt>
      <trkpt lat="43.50488229654729366302490234375" lon="-5.66230072639882564544677734375">
        <ele>69.59999847412109375</ele>
        <time>2022-06-04T06:54:55.000Z</time>
      </trkpt>
      <trkpt lat="43.50485346280038356781005859375" lon="-5.662316568195819854736328125">
        <ele>69.59999847412109375</ele>
        <time>2022-06-04T06:54:56.000Z</time>
      </trkpt>
      <trkpt lat="43.50482345558702945709228515625" lon="-5.6623318232595920562744140625">
        <ele>69.8000030517578125</ele>
        <time>2022-06-04T06:54:57.000Z</time>
      </trkpt>
      <trkpt lat="43.50476427935063838958740234375" lon="-5.6623683683574199676513671875">
        <ele>70</ele>
        <time>2022-06-04T06:54:59.000Z</time>
      </trkpt>
      <trkpt lat="43.50470543839037418365478515625" lon="-5.66241220571100711822509765625">
        <ele>70</ele>
        <time>2022-06-04T06:55:01.000Z</time>
      </trkpt>
      <trkpt lat="43.50464500486850738525390625" lon="-5.66245612688362598419189453125">
        <ele>70.1999969482421875</ele>
        <time>2022-06-04T06:55:03.000Z</time>
      </trkpt>
      <trkpt lat="43.5046163387596607208251953125" lon="-5.66247942857444286346435546875">
        <ele>70.1999969482421875</ele>
        <time>2022-06-04T06:55:04.000Z</time>
      </trkpt>
      <trkpt lat="43.5045885108411312103271484375" lon="-5.6625031493604183197021484375">
        <ele>70.40000152587890625</ele>
        <time>2022-06-04T06:55:05.000Z</time>
      </trkpt>
      <trkpt lat="43.5045284964144229888916015625" lon="-5.662545226514339447021484375">
        <ele>70.40000152587890625</ele>
        <time>2022-06-04T06:55:07.000Z</time>
      </trkpt>
      <trkpt lat="43.5044644586741924285888671875" lon="-5.66258001141250133514404296875">
        <ele>70.40000152587890625</ele>
        <time>2022-06-04T06:55:09.000Z</time>
      </trkpt>
      <trkpt lat="43.5044310986995697021484375" lon="-5.66259660758078098297119140625">
        <ele>70.59999847412109375</ele>
        <time>2022-06-04T06:55:10.000Z</time>
      </trkpt>
      <trkpt lat="43.50439581088721752166748046875" lon="-5.6626168079674243927001953125">
        <ele>70.59999847412109375</ele>
        <time>2022-06-04T06:55:11.000Z</time>
      </trkpt>
      <trkpt lat="43.5043259896337985992431640625" lon="-5.662670619785785675048828125">
        <ele>70.59999847412109375</ele>
        <time>2022-06-04T06:55:13.000Z</time>
      </trkpt>
      <trkpt lat="43.50426337681710720062255859375" lon="-5.66274027340114116668701171875">
        <ele>70.8000030517578125</ele>
        <time>2022-06-04T06:55:15.000Z</time>
      </trkpt>
      <trkpt lat="43.50420135073363780975341796875" lon="-5.66280129365622997283935546875">
        <ele>70.8000030517578125</ele>
        <time>2022-06-04T06:55:17.000Z</time>
      </trkpt>
      <trkpt lat="43.50414133630692958831787109375" lon="-5.6628585420548915863037109375">
        <ele>70.8000030517578125</ele>
        <time>2022-06-04T06:55:19.000Z</time>
      </trkpt>
      <trkpt lat="43.504083417356014251708984375" lon="-5.66291696391999721527099609375">
        <ele>71</ele>
        <time>2022-06-04T06:55:21.000Z</time>
      </trkpt>
      <trkpt lat="43.50402734242379665374755859375" lon="-5.66298049874603748321533203125">
        <ele>71.40000152587890625</ele>
        <time>2022-06-04T06:55:23.000Z</time>
      </trkpt>
      <trkpt lat="43.50396900437772274017333984375" lon="-5.66304319538176059722900390625">
        <ele>71.59999847412109375</ele>
        <time>2022-06-04T06:55:25.000Z</time>
      </trkpt>
      <trkpt lat="43.5039129294455051422119140625" lon="-5.66311796195805072784423828125">
        <ele>72</ele>
        <time>2022-06-04T06:55:27.000Z</time>
      </trkpt>
      <trkpt lat="43.50385903380811214447021484375" lon="-5.66319675184786319732666015625">
        <ele>72.40000152587890625</ele>
        <time>2022-06-04T06:55:29.000Z</time>
      </trkpt>
      <trkpt lat="43.5038317926228046417236328125" lon="-5.6632357276976108551025390625">
        <ele>72.40000152587890625</ele>
        <time>2022-06-04T06:55:30.000Z</time>
      </trkpt>
      <trkpt lat="43.5038034617900848388671875" lon="-5.66327353008091449737548828125">
        <ele>72.59999847412109375</ele>
        <time>2022-06-04T06:55:31.000Z</time>
      </trkpt>
      <trkpt lat="43.50374101661145687103271484375" lon="-5.663340501487255096435546875">
        <ele>73</ele>
        <time>2022-06-04T06:55:33.000Z</time>
      </trkpt>
      <trkpt lat="43.50367345847189426422119140625" lon="-5.66339657641947269439697265625">
        <ele>73.40000152587890625</ele>
        <time>2022-06-04T06:55:35.000Z</time>
      </trkpt>
      <trkpt lat="43.503596596419811248779296875" lon="-5.6634355522692203521728515625">
        <ele>73.59999847412109375</ele>
        <time>2022-06-04T06:55:37.000Z</time>
      </trkpt>
      <trkpt lat="43.50351168774068355560302734375" lon="-5.6634697504341602325439453125">
        <ele>73.59999847412109375</ele>
        <time>2022-06-04T06:55:39.000Z</time>
      </trkpt>
      <trkpt lat="43.50341630168259143829345703125" lon="-5.6635042838752269744873046875">
        <ele>73.8000030517578125</ele>
        <time>2022-06-04T06:55:41.000Z</time>
      </trkpt>
      <trkpt lat="43.5033191554248332977294921875" lon="-5.66354309208691120147705078125">
        <ele>73.8000030517578125</ele>
        <time>2022-06-04T06:55:43.000Z</time>
      </trkpt>
      <trkpt lat="43.50327431224286556243896484375" lon="-5.66357108764350414276123046875">
        <ele>74</ele>
        <time>2022-06-04T06:55:44.000Z</time>
      </trkpt>
      <trkpt lat="43.5032326541841030120849609375" lon="-5.66360243596136569976806640625">
        <ele>74</ele>
        <time>2022-06-04T06:55:45.000Z</time>
      </trkpt>
      <trkpt lat="43.5031947679817676544189453125" lon="-5.66363864578306674957275390625">
        <ele>74</ele>
        <time>2022-06-04T06:55:46.000Z</time>
      </trkpt>
      <trkpt lat="43.50316484458744525909423828125" lon="-5.66368541680276393890380859375">
        <ele>74</ele>
        <time>2022-06-04T06:55:47.000Z</time>
      </trkpt>
      <trkpt lat="43.503141961991786956787109375" lon="-5.66373755224049091339111328125">
        <ele>74</ele>
        <time>2022-06-04T06:55:48.000Z</time>
      </trkpt>
      <trkpt lat="43.5031141340732574462890625" lon="-5.663782395422458648681640625">
        <ele>74</ele>
        <time>2022-06-04T06:55:49.000Z</time>
      </trkpt>
      <trkpt lat="43.50304146297276020050048828125" lon="-5.6637681461870670318603515625">
        <ele>74</ele>
        <time>2022-06-04T06:55:51.000Z</time>
      </trkpt>
      <trkpt lat="43.50300927646458148956298828125" lon="-5.6636466085910797119140625">
        <ele>74</ele>
        <time>2022-06-04T06:55:53.000Z</time>
      </trkpt>
      <trkpt lat="43.502993769943714141845703125" lon="-5.66356739960610866546630859375">
        <ele>74</ele>
        <time>2022-06-04T06:55:54.000Z</time>
      </trkpt>
      <trkpt lat="43.50296837277710437774658203125" lon="-5.66348827444016933441162109375">
        <ele>74</ele>
        <time>2022-06-04T06:55:55.000Z</time>
      </trkpt>
      <trkpt lat="43.502874411642551422119140625" lon="-5.663339830935001373291015625">
        <ele>74</ele>
        <time>2022-06-04T06:55:57.000Z</time>
      </trkpt>
      <trkpt lat="43.50275882519781589508056640625" lon="-5.66321007907390594482421875">
        <ele>73.8000030517578125</ele>
        <time>2022-06-04T06:55:59.000Z</time>
      </trkpt>
      <trkpt lat="43.5026231221854686737060546875" lon="-5.6630865298211574554443359375">
        <ele>73.40000152587890625</ele>
        <time>2022-06-04T06:56:01.000Z</time>
      </trkpt>
      <trkpt lat="43.5025550611317157745361328125" lon="-5.66301452927291393280029296875">
        <ele>73</ele>
        <time>2022-06-04T06:56:02.000Z</time>
      </trkpt>
      <trkpt lat="43.50248993374407291412353515625" lon="-5.66293188370764255523681640625">
        <ele>72.8000030517578125</ele>
        <time>2022-06-04T06:56:03.000Z</time>
      </trkpt>
      <trkpt lat="43.502423465251922607421875" lon="-5.66284722648561000823974609375">
        <ele>72.40000152587890625</ele>
        <time>2022-06-04T06:56:04.000Z</time>
      </trkpt>
      <trkpt lat="43.50235213525593280792236328125" lon="-5.66276458092033863067626953125">
        <ele>72</ele>
        <time>2022-06-04T06:56:05.000Z</time>
      </trkpt>
      <trkpt lat="43.502190448343753814697265625" lon="-5.662604235112667083740234375">
        <ele>71.1999969482421875</ele>
        <time>2022-06-04T06:56:07.000Z</time>
      </trkpt>
      <trkpt lat="43.50202314555644989013671875" lon="-5.6624330766499042510986328125">
        <ele>70.40000152587890625</ele>
        <time>2022-06-04T06:56:09.000Z</time>
      </trkpt>
      <trkpt lat="43.50194008089601993560791015625" lon="-5.66234917379915714263916015625">
        <ele>69.8000030517578125</ele>
        <time>2022-06-04T06:56:10.000Z</time>
      </trkpt>
      <trkpt lat="43.50185508839786052703857421875" lon="-5.66227532923221588134765625">
        <ele>69.40000152587890625</ele>
        <time>2022-06-04T06:56:11.000Z</time>
      </trkpt>
      <trkpt lat="43.50166548974812030792236328125" lon="-5.6621638499200344085693359375">
        <ele>68.59999847412109375</ele>
        <time>2022-06-04T06:56:13.000Z</time>
      </trkpt>
      <trkpt lat="43.50147505290806293487548828125" lon="-5.66206351853907108306884765625">
        <ele>67.40000152587890625</ele>
        <time>2022-06-04T06:56:15.000Z</time>
      </trkpt>
      <trkpt lat="43.501296937465667724609375" lon="-5.66194550134241580963134765625">
        <ele>65.8000030517578125</ele>
        <time>2022-06-04T06:56:17.000Z</time>
      </trkpt>
      <trkpt lat="43.50122074596583843231201171875" lon="-5.6618818826973438262939453125">
        <ele>65</ele>
        <time>2022-06-04T06:56:18.000Z</time>
      </trkpt>
      <trkpt lat="43.5011482425034046173095703125" lon="-5.66181943751871585845947265625">
        <ele>63.59999847412109375</ele>
        <time>2022-06-04T06:56:19.000Z</time>
      </trkpt>
      <trkpt lat="43.50099208764731884002685546875" lon="-5.66171164624392986297607421875">
        <ele>62.59999847412109375</ele>
        <time>2022-06-04T06:56:21.000Z</time>
      </trkpt>
      <trkpt lat="43.500820510089397430419921875" lon="-5.6616240553557872772216796875">
        <ele>61.40000152587890625</ele>
        <time>2022-06-04T06:56:23.000Z</time>
      </trkpt>
      <trkpt lat="43.500646166503429412841796875" lon="-5.66154099069535732269287109375">
        <ele>59.799999237060546875</ele>
        <time>2022-06-04T06:56:25.000Z</time>
      </trkpt>
      <trkpt lat="43.5005574859678745269775390625" lon="-5.66150628961622714996337890625">
        <ele>59.200000762939453125</ele>
        <time>2022-06-04T06:56:26.000Z</time>
      </trkpt>
      <trkpt lat="43.500467799603939056396484375" lon="-5.6614795513451099395751953125">
        <ele>58.799999237060546875</ele>
        <time>2022-06-04T06:56:27.000Z</time>
      </trkpt>
      <trkpt lat="43.50037819705903530120849609375" lon="-5.6614584289491176605224609375">
        <ele>58.200000762939453125</ele>
        <time>2022-06-04T06:56:28.000Z</time>
      </trkpt>
      <trkpt lat="43.5002875886857509613037109375" lon="-5.6614423356950283050537109375">
        <ele>58</ele>
        <time>2022-06-04T06:56:29.000Z</time>
      </trkpt>
      <trkpt lat="43.5001943819224834442138671875" lon="-5.66142900846898555755615234375">
        <ele>57.59999847412109375</ele>
        <time>2022-06-04T06:56:30.000Z</time>
      </trkpt>
      <trkpt lat="43.50010670721530914306640625" lon="-5.6614168547093868255615234375">
        <ele>57</ele>
        <time>2022-06-04T06:56:31.000Z</time>
      </trkpt>
      <trkpt lat="43.50003219209611415863037109375" lon="-5.6614078022539615631103515625">
        <ele>56.59999847412109375</ele>
        <time>2022-06-04T06:56:32.000Z</time>
      </trkpt>
      <trkpt lat="43.49997536279261112213134765625" lon="-5.66140361130237579345703125">
        <ele>56.200000762939453125</ele>
        <time>2022-06-04T06:56:33.000Z</time>
      </trkpt>
      <trkpt lat="43.4998805634677410125732421875" lon="-5.66139330156147480010986328125">
        <ele>55.40000152587890625</ele>
        <time>2022-06-04T06:56:35.000Z</time>
      </trkpt>
      <trkpt lat="43.4998403303325176239013671875" lon="-5.66138508729636669158935546875">
        <ele>55</ele>
        <time>2022-06-04T06:56:36.000Z</time>
      </trkpt>
      <trkpt lat="43.49979749880731105804443359375" lon="-5.661373436450958251953125">
        <ele>54.799999237060546875</ele>
        <time>2022-06-04T06:56:37.000Z</time>
      </trkpt>
      <trkpt lat="43.49971468560397624969482421875" lon="-5.66135608591139316558837890625">
        <ele>54.40000152587890625</ele>
        <time>2022-06-04T06:56:39.000Z</time>
      </trkpt>
      <trkpt lat="43.499679900705814361572265625" lon="-5.66134787164628505706787109375">
        <ele>54</ele>
        <time>2022-06-04T06:56:40.000Z</time>
      </trkpt>
      <trkpt lat="43.4996451996266841888427734375" lon="-5.66134066320955753326416015625">
        <ele>53.799999237060546875</ele>
        <time>2022-06-04T06:56:41.000Z</time>
      </trkpt>
      <trkpt lat="43.49957386963069438934326171875" lon="-5.66132540814578533172607421875">
        <ele>53.40000152587890625</ele>
        <time>2022-06-04T06:56:43.000Z</time>
      </trkpt>
      <trkpt lat="43.49949222989380359649658203125" lon="-5.6613157689571380615234375">
        <ele>53.200000762939453125</ele>
        <time>2022-06-04T06:56:45.000Z</time>
      </trkpt>
      <trkpt lat="43.4994430281221866607666015625" lon="-5.66131149418652057647705078125">
        <ele>53</ele>
        <time>2022-06-04T06:56:46.000Z</time>
      </trkpt>
      <trkpt lat="43.4993870370090007781982421875" lon="-5.6613068841397762298583984375">
        <ele>52.40000152587890625</ele>
        <time>2022-06-04T06:56:47.000Z</time>
      </trkpt>
      <trkpt lat="43.4992592968046665191650390625" lon="-5.66130076535046100616455078125">
        <ele>51.59999847412109375</ele>
        <time>2022-06-04T06:56:49.000Z</time>
      </trkpt>
      <trkpt lat="43.49912057630717754364013671875" lon="-5.66129632294178009033203125">
        <ele>51.200000762939453125</ele>
        <time>2022-06-04T06:56:51.000Z</time>
      </trkpt>
      <trkpt lat="43.499052263796329498291015625" lon="-5.66129372455179691314697265625">
        <ele>51</ele>
        <time>2022-06-04T06:56:52.000Z</time>
      </trkpt>
      <trkpt lat="43.4989863820374011993408203125" lon="-5.66129003651440143585205078125">
        <ele>50.799999237060546875</ele>
        <time>2022-06-04T06:56:53.000Z</time>
      </trkpt>
      <trkpt lat="43.49891982972621917724609375" lon="-5.66128802485764026641845703125">
        <ele>50.40000152587890625</ele>
        <time>2022-06-04T06:56:54.000Z</time>
      </trkpt>
      <trkpt lat="43.49885654635727405548095703125" lon="-5.66128986887633800506591796875">
        <ele>50</ele>
        <time>2022-06-04T06:56:55.000Z</time>
      </trkpt>
      <trkpt lat="43.49873534403741359710693359375" lon="-5.66130696795880794525146484375">
        <ele>49.200000762939453125</ele>
        <time>2022-06-04T06:56:57.000Z</time>
      </trkpt>
      <trkpt lat="43.498678095638751983642578125" lon="-5.66131970845162868499755859375">
        <ele>48.799999237060546875</ele>
        <time>2022-06-04T06:56:58.000Z</time>
      </trkpt>
      <trkpt lat="43.4986269660294055938720703125" lon="-5.66133211366832256317138671875">
        <ele>48.40000152587890625</ele>
        <time>2022-06-04T06:56:59.000Z</time>
      </trkpt>
      <trkpt lat="43.49858463741838932037353515625" lon="-5.66134083084762096405029296875">
        <ele>48.200000762939453125</ele>
        <time>2022-06-04T06:57:00.000Z</time>
      </trkpt>
      <trkpt lat="43.49855144508183002471923828125" lon="-5.66134720109403133392333984375">
        <ele>47.799999237060546875</ele>
        <time>2022-06-04T06:57:01.000Z</time>
      </trkpt>
      <trkpt lat="43.4985257126390933990478515625" lon="-5.66135290078818798065185546875">
        <ele>47.799999237060546875</ele>
        <time>2022-06-04T06:57:02.000Z</time>
      </trkpt>
      <trkpt lat="43.49850140511989593505859375" lon="-5.66135759465396404266357421875">
        <ele>47.799999237060546875</ele>
        <time>2022-06-04T06:57:03.000Z</time>
      </trkpt>
      <trkpt lat="43.49845320917665958404541015625" lon="-5.66136094741523265838623046875">
        <ele>47.799999237060546875</ele>
        <time>2022-06-04T06:57:05.000Z</time>
      </trkpt>
      <trkpt lat="43.49840342067182064056396484375" lon="-5.66136228851974010467529296875">
        <ele>47.799999237060546875</ele>
        <time>2022-06-04T06:57:07.000Z</time>
      </trkpt>
      <trkpt lat="43.49835178814828395843505859375" lon="-5.6613586843013763427734375">
        <ele>48</ele>
        <time>2022-06-04T06:57:09.000Z</time>
      </trkpt>
      <trkpt lat="43.4982994012534618377685546875" lon="-5.6613588519394397735595703125">
        <ele>48.799999237060546875</ele>
        <time>2022-06-04T06:57:11.000Z</time>
      </trkpt>
      <trkpt lat="43.4982725791633129119873046875" lon="-5.66135910339653491973876953125">
        <ele>49.40000152587890625</ele>
        <time>2022-06-04T06:57:12.000Z</time>
      </trkpt>
      <trkpt lat="43.49824433214962482452392578125" lon="-5.66136061213910579681396484375">
        <ele>49.59999847412109375</ele>
        <time>2022-06-04T06:57:13.000Z</time>
      </trkpt>
      <trkpt lat="43.4981833957135677337646484375" lon="-5.66135440953075885772705078125">
        <ele>50.799999237060546875</ele>
        <time>2022-06-04T06:57:15.000Z</time>
      </trkpt>
      <trkpt lat="43.498126901686191558837890625" lon="-5.66132180392742156982421875">
        <ele>51.59999847412109375</ele>
        <time>2022-06-04T06:57:17.000Z</time>
      </trkpt>
      <trkpt lat="43.498102761805057525634765625" lon="-5.66129221580922603607177734375">
        <ele>52</ele>
        <time>2022-06-04T06:57:18.000Z</time>
      </trkpt>
      <trkpt lat="43.49808440543711185455322265625" lon="-5.66125701181590557098388671875">
        <ele>52.40000152587890625</ele>
        <time>2022-06-04T06:57:19.000Z</time>
      </trkpt>
      <trkpt lat="43.49805138073861598968505859375" lon="-5.6611771322786808013916015625">
        <ele>52.799999237060546875</ele>
        <time>2022-06-04T06:57:21.000Z</time>
      </trkpt>
      <trkpt lat="43.498035706579685211181640625" lon="-5.66113346256315708160400390625">
        <ele>52.799999237060546875</ele>
        <time>2022-06-04T06:57:22.000Z</time>
      </trkpt>
      <trkpt lat="43.4980197809636592864990234375" lon="-5.66108484752476215362548828125">
        <ele>53</ele>
        <time>2022-06-04T06:57:23.000Z</time>
      </trkpt>
      <trkpt lat="43.49798776209354400634765625" lon="-5.66097655333578586578369140625">
        <ele>53</ele>
        <time>2022-06-04T06:57:25.000Z</time>
      </trkpt>
      <trkpt lat="43.49796018563210964202880859375" lon="-5.66084705293178558349609375">
        <ele>53</ele>
        <time>2022-06-04T06:57:27.000Z</time>
      </trkpt>
      <trkpt lat="43.49795063026249408721923828125" lon="-5.6607739627361297607421875">
        <ele>53</ele>
        <time>2022-06-04T06:57:28.000Z</time>
      </trkpt>
      <trkpt lat="43.4979409910738468170166015625" lon="-5.66069508902728557586669921875">
        <ele>53</ele>
        <time>2022-06-04T06:57:29.000Z</time>
      </trkpt>
      <trkpt lat="43.49792296998202800750732421875" lon="-5.66052510403096675872802734375">
        <ele>52.799999237060546875</ele>
        <time>2022-06-04T06:57:31.000Z</time>
      </trkpt>
      <trkpt lat="43.4979071281850337982177734375" lon="-5.660348832607269287109375">
        <ele>52.59999847412109375</ele>
        <time>2022-06-04T06:57:33.000Z</time>
      </trkpt>
      <trkpt lat="43.49789413623511791229248046875" lon="-5.66017943434417247772216796875">
        <ele>52</ele>
        <time>2022-06-04T06:57:35.000Z</time>
      </trkpt>
      <trkpt lat="43.4978784620761871337890625" lon="-5.66003568470478057861328125">
        <ele>51.59999847412109375</ele>
        <time>2022-06-04T06:57:37.000Z</time>
      </trkpt>
      <trkpt lat="43.49787251092493534088134765625" lon="-5.65996854566037654876708984375">
        <ele>51.200000762939453125</ele>
        <time>2022-06-04T06:57:38.000Z</time>
      </trkpt>
      <trkpt lat="43.49786815233528614044189453125" lon="-5.659899897873401641845703125">
        <ele>51</ele>
        <time>2022-06-04T06:57:39.000Z</time>
      </trkpt>
      <trkpt lat="43.4978538192808628082275390625" lon="-5.6597729958593845367431640625">
        <ele>50</ele>
        <time>2022-06-04T06:57:41.000Z</time>
      </trkpt>
      <trkpt lat="43.4978435933589935302734375" lon="-5.6597113050520420074462890625">
        <ele>49.200000762939453125</ele>
        <time>2022-06-04T06:57:42.000Z</time>
      </trkpt>
      <trkpt lat="43.49783110432326793670654296875" lon="-5.659647770226001739501953125">
        <ele>48.799999237060546875</ele>
        <time>2022-06-04T06:57:43.000Z</time>
      </trkpt>
      <trkpt lat="43.49781651981174945831298828125" lon="-5.65958079881966114044189453125">
        <ele>48.40000152587890625</ele>
        <time>2022-06-04T06:57:44.000Z</time>
      </trkpt>
      <trkpt lat="43.4978025220334529876708984375" lon="-5.659508295357227325439453125">
        <ele>48.200000762939453125</ele>
        <time>2022-06-04T06:57:45.000Z</time>
      </trkpt>
      <trkpt lat="43.497784920036792755126953125" lon="-5.65935683436691761016845703125">
        <ele>47.799999237060546875</ele>
        <time>2022-06-04T06:57:47.000Z</time>
      </trkpt>
      <trkpt lat="43.49778299219906330108642578125" lon="-5.65927988849580287933349609375">
        <ele>47.59999847412109375</ele>
        <time>2022-06-04T06:57:48.000Z</time>
      </trkpt>
      <trkpt lat="43.4977870993316173553466796875" lon="-5.6592013500630855560302734375">
        <ele>47.40000152587890625</ele>
        <time>2022-06-04T06:57:49.000Z</time>
      </trkpt>
      <trkpt lat="43.49779036827385425567626953125" lon="-5.65912046469748020172119140625">
        <ele>47.200000762939453125</ele>
        <time>2022-06-04T06:57:50.000Z</time>
      </trkpt>
      <trkpt lat="43.49779271520674228668212890625" lon="-5.65903723239898681640625">
        <ele>47</ele>
        <time>2022-06-04T06:57:51.000Z</time>
      </trkpt>
      <trkpt lat="43.49778785370290279388427734375" lon="-5.6588664092123508453369140625">
        <ele>46.59999847412109375</ele>
        <time>2022-06-04T06:57:53.000Z</time>
      </trkpt>
      <trkpt lat="43.4977753646671772003173828125" lon="-5.6587775610387325286865234375">
        <ele>46.59999847412109375</ele>
        <time>2022-06-04T06:57:54.000Z</time>
      </trkpt>
      <trkpt lat="43.4977498836815357208251953125" lon="-5.65868846140801906585693359375">
        <ele>46.40000152587890625</ele>
        <time>2022-06-04T06:57:55.000Z</time>
      </trkpt>
      <trkpt lat="43.4976638853549957275390625" lon="-5.658541023731231689453125">
        <ele>46.200000762939453125</ele>
        <time>2022-06-04T06:57:57.000Z</time>
      </trkpt>
      <trkpt lat="43.4976110793650150299072265625" lon="-5.6584858708083629608154296875">
        <ele>46</ele>
        <time>2022-06-04T06:57:58.000Z</time>
      </trkpt>
      <trkpt lat="43.4975537471473217010498046875" lon="-5.65843641757965087890625">
        <ele>45.59999847412109375</ele>
        <time>2022-06-04T06:57:59.000Z</time>
      </trkpt>
      <trkpt lat="43.49749851040542125701904296875" lon="-5.6583916582167148590087890625">
        <ele>45.200000762939453125</ele>
        <time>2022-06-04T06:58:00.000Z</time>
      </trkpt>
      <trkpt lat="43.49744972772896289825439453125" lon="-5.65835016779601573944091796875">
        <ele>44.799999237060546875</ele>
        <time>2022-06-04T06:58:01.000Z</time>
      </trkpt>
      <trkpt lat="43.49740647710859775543212890625" lon="-5.6583125330507755279541015625">
        <ele>44.40000152587890625</ele>
        <time>2022-06-04T06:58:02.000Z</time>
      </trkpt>
      <trkpt lat="43.49736951291561126708984375" lon="-5.65827774815261363983154296875">
        <ele>44</ele>
        <time>2022-06-04T06:58:03.000Z</time>
      </trkpt>
      <trkpt lat="43.497336991131305694580078125" lon="-5.6582414545118808746337890625">
        <ele>43.59999847412109375</ele>
        <time>2022-06-04T06:58:04.000Z</time>
      </trkpt>
      <trkpt lat="43.4973098337650299072265625" lon="-5.6582022272050380706787109375">
        <ele>43.200000762939453125</ele>
        <time>2022-06-04T06:58:05.000Z</time>
      </trkpt>
      <trkpt lat="43.49726063199341297149658203125" lon="-5.65814162604510784149169921875">
        <ele>42.59999847412109375</ele>
        <time>2022-06-04T06:58:07.000Z</time>
      </trkpt>
      <trkpt lat="43.49723481573164463043212890625" lon="-5.65813307650387287139892578125">
        <ele>42.40000152587890625</ele>
        <time>2022-06-04T06:58:08.000Z</time>
      </trkpt>
      <trkpt lat="43.49721084348857402801513671875" lon="-5.65814045257866382598876953125">
        <ele>42.200000762939453125</ele>
        <time>2022-06-04T06:58:09.000Z</time>
      </trkpt>
      <trkpt lat="43.4971872903406620025634765625" lon="-5.65816241316497325897216796875">
        <ele>41.799999237060546875</ele>
        <time>2022-06-04T06:58:10.000Z</time>
      </trkpt>
      <trkpt lat="43.49716323427855968475341796875" lon="-5.658195354044437408447265625">
        <ele>41.59999847412109375</ele>
        <time>2022-06-04T06:58:11.000Z</time>
      </trkpt>
      <trkpt lat="43.49710623733699321746826171875" lon="-5.658275149762630462646484375">
        <ele>41.59999847412109375</ele>
        <time>2022-06-04T06:58:13.000Z</time>
      </trkpt>
      <trkpt lat="43.49707639776170253753662109375" lon="-5.65832016058266162872314453125">
        <ele>41.40000152587890625</ele>
        <time>2022-06-04T06:58:14.000Z</time>
      </trkpt>
      <trkpt lat="43.49704722873866558074951171875" lon="-5.6583641655743122100830078125">
        <ele>41.40000152587890625</ele>
        <time>2022-06-04T06:58:15.000Z</time>
      </trkpt>
      <trkpt lat="43.49698637612164020538330078125" lon="-5.65844488330185413360595703125">
        <ele>41.40000152587890625</ele>
        <time>2022-06-04T06:58:17.000Z</time>
      </trkpt>
      <trkpt lat="43.496931307017803192138671875" lon="-5.6585230864584445953369140625">
        <ele>41.40000152587890625</ele>
        <time>2022-06-04T06:58:19.000Z</time>
      </trkpt>
      <trkpt lat="43.49688000977039337158203125" lon="-5.65860950388014316558837890625">
        <ele>41.40000152587890625</ele>
        <time>2022-06-04T06:58:21.000Z</time>
      </trkpt>
      <trkpt lat="43.49685209803283214569091796875" lon="-5.65865577198565006256103515625">
        <ele>41.40000152587890625</ele>
        <time>2022-06-04T06:58:22.000Z</time>
      </trkpt>
      <trkpt lat="43.49682502448558807373046875" lon="-5.6587032973766326904296875">
        <ele>41.40000152587890625</ele>
        <time>2022-06-04T06:58:23.000Z</time>
      </trkpt>
      <trkpt lat="43.4967653453350067138671875" lon="-5.6587944924831390380859375">
        <ele>41.40000152587890625</ele>
        <time>2022-06-04T06:58:25.000Z</time>
      </trkpt>
      <trkpt lat="43.49670440889894962310791015625" lon="-5.658888705074787139892578125">
        <ele>41.40000152587890625</ele>
        <time>2022-06-04T06:58:27.000Z</time>
      </trkpt>
      <trkpt lat="43.496673814952373504638671875" lon="-5.65893790684640407562255859375">
        <ele>41.40000152587890625</ele>
        <time>2022-06-04T06:58:28.000Z</time>
      </trkpt>
      <trkpt lat="43.49664271809160709381103515625" lon="-5.6589850969612598419189453125">
        <ele>41.40000152587890625</ele>
        <time>2022-06-04T06:58:29.000Z</time>
      </trkpt>
      <trkpt lat="43.496583960950374603271484375" lon="-5.659079812467098236083984375">
        <ele>41.40000152587890625</ele>
        <time>2022-06-04T06:58:31.000Z</time>
      </trkpt>
      <trkpt lat="43.49655546247959136962890625" lon="-5.65913178026676177978515625">
        <ele>41.200000762939453125</ele>
        <time>2022-06-04T06:58:32.000Z</time>
      </trkpt>
      <trkpt lat="43.496525287628173828125" lon="-5.65918433479964733123779296875">
        <ele>41</ele>
        <time>2022-06-04T06:58:33.000Z</time>
      </trkpt>
      <trkpt lat="43.4964617528021335601806640625" lon="-5.6592907011508941650390625">
        <ele>41</ele>
        <time>2022-06-04T06:58:35.000Z</time>
      </trkpt>
      <trkpt lat="43.49639779888093471527099609375" lon="-5.65940360538661479949951171875">
        <ele>41</ele>
        <time>2022-06-04T06:58:37.000Z</time>
      </trkpt>
      <trkpt lat="43.4963323362171649932861328125" lon="-5.659520365297794342041015625">
        <ele>41</ele>
        <time>2022-06-04T06:58:39.000Z</time>
      </trkpt>
      <trkpt lat="43.49626653827726840972900390625" lon="-5.65962958149611949920654296875">
        <ele>41</ele>
        <time>2022-06-04T06:58:41.000Z</time>
      </trkpt>
      <trkpt lat="43.49620467983186244964599609375" lon="-5.65973200835287570953369140625">
        <ele>41</ele>
        <time>2022-06-04T06:58:43.000Z</time>
      </trkpt>
      <trkpt lat="43.496157824993133544921875" lon="-5.6598437391221523284912109375">
        <ele>41.200000762939453125</ele>
        <time>2022-06-04T06:58:45.000Z</time>
      </trkpt>
      <trkpt lat="43.496140055358409881591796875" lon="-5.659907273948192596435546875">
        <ele>41.40000152587890625</ele>
        <time>2022-06-04T06:58:46.000Z</time>
      </trkpt>
      <trkpt lat="43.49612035788595676422119140625" lon="-5.6599719822406768798828125">
        <ele>41.40000152587890625</ele>
        <time>2022-06-04T06:58:47.000Z</time>
      </trkpt>
      <trkpt lat="43.49609940312802791595458984375" lon="-5.660033337771892547607421875">
        <ele>41.59999847412109375</ele>
        <time>2022-06-04T06:58:48.000Z</time>
      </trkpt>
      <trkpt lat="43.49607928656041622161865234375" lon="-5.66009444184601306915283203125">
        <ele>41.59999847412109375</ele>
        <time>2022-06-04T06:58:49.000Z</time>
      </trkpt>
      <trkpt lat="43.4960406459867954254150390625" lon="-5.6602158956229686737060546875">
        <ele>41.799999237060546875</ele>
        <time>2022-06-04T06:58:51.000Z</time>
      </trkpt>
      <trkpt lat="43.49602782167494297027587890625" lon="-5.6602772511541843414306640625">
        <ele>42</ele>
        <time>2022-06-04T06:58:52.000Z</time>
      </trkpt>
      <trkpt lat="43.49602296017110347747802734375" lon="-5.660338103771209716796875">
        <ele>42</ele>
        <time>2022-06-04T06:58:53.000Z</time>
      </trkpt>
      <trkpt lat="43.496026732027530670166015625" lon="-5.66046307794749736785888671875">
        <ele>42.40000152587890625</ele>
        <time>2022-06-04T06:58:55.000Z</time>
      </trkpt>
      <trkpt lat="43.4960466809570789337158203125" lon="-5.66058360971510410308837890625">
        <ele>42.59999847412109375</ele>
        <time>2022-06-04T06:58:57.000Z</time>
      </trkpt>
      <trkpt lat="43.4960634447634220123291015625" lon="-5.66064186394214630126953125">
        <ele>42.59999847412109375</ele>
        <time>2022-06-04T06:58:58.000Z</time>
      </trkpt>
      <trkpt lat="43.49608414806425571441650390625" lon="-5.6606980226933956146240234375">
        <ele>42.799999237060546875</ele>
        <time>2022-06-04T06:58:59.000Z</time>
      </trkpt>
      <trkpt lat="43.49612186662852764129638671875" lon="-5.6608079932630062103271484375">
        <ele>43.200000762939453125</ele>
        <time>2022-06-04T06:59:01.000Z</time>
      </trkpt>
      <trkpt lat="43.49613829515874385833740234375" lon="-5.66086356528103351593017578125">
        <ele>43.40000152587890625</ele>
        <time>2022-06-04T06:59:02.000Z</time>
      </trkpt>
      <trkpt lat="43.49615103565156459808349609375" lon="-5.66091955639421939849853515625">
        <ele>43.59999847412109375</ele>
        <time>2022-06-04T06:59:03.000Z</time>
      </trkpt>
      <trkpt lat="43.4961764328181743621826171875" lon="-5.66103019751608371734619140625">
        <ele>43.799999237060546875</ele>
        <time>2022-06-04T06:59:05.000Z</time>
      </trkpt>
      <trkpt lat="43.49619805812835693359375" lon="-5.661143772304058074951171875">
        <ele>44.200000762939453125</ele>
        <time>2022-06-04T06:59:07.000Z</time>
      </trkpt>
      <trkpt lat="43.4962042607367038726806640625" lon="-5.661201439797878265380859375">
        <ele>44.40000152587890625</ele>
        <time>2022-06-04T06:59:08.000Z</time>
      </trkpt>
      <trkpt lat="43.4962089546024799346923828125" lon="-5.661261118948459625244140625">
        <ele>44.59999847412109375</ele>
        <time>2022-06-04T06:59:09.000Z</time>
      </trkpt>
      <trkpt lat="43.4962076134979724884033203125" lon="-5.661320127546787261962890625">
        <ele>44.799999237060546875</ele>
        <time>2022-06-04T06:59:10.000Z</time>
      </trkpt>
      <trkpt lat="43.4961975552141666412353515625" lon="-5.66138206981122493743896484375">
        <ele>45</ele>
        <time>2022-06-04T06:59:11.000Z</time>
      </trkpt>
      <trkpt lat="43.496164195239543914794921875" lon="-5.66149991936981678009033203125">
        <ele>45.40000152587890625</ele>
        <time>2022-06-04T06:59:13.000Z</time>
      </trkpt>
      <trkpt lat="43.4961439110338687896728515625" lon="-5.6615570001304149627685546875">
        <ele>45.59999847412109375</ele>
        <time>2022-06-04T06:59:14.000Z</time>
      </trkpt>
      <trkpt lat="43.49612002260982990264892578125" lon="-5.66161391325294971466064453125">
        <ele>45.799999237060546875</ele>
        <time>2022-06-04T06:59:15.000Z</time>
      </trkpt>
      <trkpt lat="43.49608347751200199127197265625" lon="-5.6617139093577861785888671875">
        <ele>46</ele>
        <time>2022-06-04T06:59:17.000Z</time>
      </trkpt>
      <trkpt lat="43.49605548195540904998779296875" lon="-5.66180367954075336456298828125">
        <ele>46</ele>
        <time>2022-06-04T06:59:19.000Z</time>
      </trkpt>
      <trkpt lat="43.49602178670465946197509765625" lon="-5.6619100458920001983642578125">
        <ele>46</ele>
        <time>2022-06-04T06:59:21.000Z</time>
      </trkpt>
      <trkpt lat="43.4959813021123409271240234375" lon="-5.662026219069957733154296875">
        <ele>46.200000762939453125</ele>
        <time>2022-06-04T06:59:23.000Z</time>
      </trkpt>
      <trkpt lat="43.49594383500516414642333984375" lon="-5.6621383689343929290771484375">
        <ele>46.200000762939453125</ele>
        <time>2022-06-04T06:59:25.000Z</time>
      </trkpt>
      <trkpt lat="43.495912067592144012451171875" lon="-5.66225160844624042510986328125">
        <ele>46.200000762939453125</ele>
        <time>2022-06-04T06:59:27.000Z</time>
      </trkpt>
      <trkpt lat="43.4958770312368869781494140625" lon="-5.6623670272529125213623046875">
        <ele>46.40000152587890625</ele>
        <time>2022-06-04T06:59:29.000Z</time>
      </trkpt>
      <trkpt lat="43.49584157578647136688232421875" lon="-5.662485547363758087158203125">
        <ele>46.40000152587890625</ele>
        <time>2022-06-04T06:59:31.000Z</time>
      </trkpt>
      <trkpt lat="43.495802767574787139892578125" lon="-5.6625913269817829132080078125">
        <ele>46.59999847412109375</ele>
        <time>2022-06-04T06:59:33.000Z</time>
      </trkpt>
      <trkpt lat="43.49577032960951328277587890625" lon="-5.66268931142985820770263671875">
        <ele>46.59999847412109375</ele>
        <time>2022-06-04T06:59:35.000Z</time>
      </trkpt>
      <trkpt lat="43.49575608037412166595458984375" lon="-5.66273792646825313568115234375">
        <ele>46.799999237060546875</ele>
        <time>2022-06-04T06:59:36.000Z</time>
      </trkpt>
      <trkpt lat="43.49573965184390544891357421875" lon="-5.662783943116664886474609375">
        <ele>47</ele>
        <time>2022-06-04T06:59:37.000Z</time>
      </trkpt>
      <trkpt lat="43.49571115337312221527099609375" lon="-5.66287287510931491851806640625">
        <ele>47</ele>
        <time>2022-06-04T06:59:39.000Z</time>
      </trkpt>
      <trkpt lat="43.4956899471580982208251953125" lon="-5.66296507604420185089111328125">
        <ele>47.200000762939453125</ele>
        <time>2022-06-04T06:59:41.000Z</time>
      </trkpt>
      <trkpt lat="43.49568307399749755859375" lon="-5.6630633957684040069580078125">
        <ele>47.40000152587890625</ele>
        <time>2022-06-04T06:59:43.000Z</time>
      </trkpt>
      <trkpt lat="43.49568366073071956634521484375" lon="-5.6631217338144779205322265625">
        <ele>47.59999847412109375</ele>
        <time>2022-06-04T06:59:44.000Z</time>
      </trkpt>
      <trkpt lat="43.495689444243907928466796875" lon="-5.66317412070930004119873046875">
        <ele>47.59999847412109375</ele>
        <time>2022-06-04T06:59:45.000Z</time>
      </trkpt>
      <trkpt lat="43.4957031905651092529296875" lon="-5.66327705048024654388427734375">
        <ele>48</ele>
        <time>2022-06-04T06:59:47.000Z</time>
      </trkpt>
      <trkpt lat="43.4957194514572620391845703125" lon="-5.66338584758341312408447265625">
        <ele>48.200000762939453125</ele>
        <time>2022-06-04T06:59:49.000Z</time>
      </trkpt>
      <trkpt lat="43.49573629908263683319091796875" lon="-5.66349464468657970428466796875">
        <ele>48.200000762939453125</ele>
        <time>2022-06-04T06:59:51.000Z</time>
      </trkpt>
      <trkpt lat="43.495755493640899658203125" lon="-5.66360344178974628448486328125">
        <ele>48.40000152587890625</ele>
        <time>2022-06-04T06:59:53.000Z</time>
      </trkpt>
      <trkpt lat="43.49576412700116634368896484375" lon="-5.6636591814458370208740234375">
        <ele>48.59999847412109375</ele>
        <time>2022-06-04T06:59:54.000Z</time>
      </trkpt>
      <trkpt lat="43.49577083252370357513427734375" lon="-5.66371726803481578826904296875">
        <ele>48.59999847412109375</ele>
        <time>2022-06-04T06:59:55.000Z</time>
      </trkpt>
      <trkpt lat="43.4957962296903133392333984375" lon="-5.663829334080219268798828125">
        <ele>48.799999237060546875</ele>
        <time>2022-06-04T06:59:57.000Z</time>
      </trkpt>
      <trkpt lat="43.4958277456462383270263671875" lon="-5.66393787972629070281982421875">
        <ele>48.799999237060546875</ele>
        <time>2022-06-04T06:59:59.000Z</time>
      </trkpt>
      <trkpt lat="43.4958441741764545440673828125" lon="-5.66399018280208110809326171875">
        <ele>49</ele>
        <time>2022-06-04T07:00:00.000Z</time>
      </trkpt>
      <trkpt lat="43.49585766904056072235107421875" lon="-5.66404022276401519775390625">
        <ele>49</ele>
        <time>2022-06-04T07:00:01.000Z</time>
      </trkpt>
      <trkpt lat="43.4958656318485736846923828125" lon="-5.66414742730557918548583984375">
        <ele>49.200000762939453125</ele>
        <time>2022-06-04T07:00:03.000Z</time>
      </trkpt>
      <trkpt lat="43.49585901014506816864013671875" lon="-5.66423879005014896392822265625">
        <ele>49.40000152587890625</ele>
        <time>2022-06-04T07:00:05.000Z</time>
      </trkpt>
      <trkpt lat="43.495824225246906280517578125" lon="-5.664320848882198333740234375">
        <ele>49.40000152587890625</ele>
        <time>2022-06-04T07:00:07.000Z</time>
      </trkpt>
      <trkpt lat="43.49577091634273529052734375" lon="-5.66439921967685222625732421875">
        <ele>49.40000152587890625</ele>
        <time>2022-06-04T07:00:09.000Z</time>
      </trkpt>
      <trkpt lat="43.4956899471580982208251953125" lon="-5.6644754111766815185546875">
        <ele>49.40000152587890625</ele>
        <time>2022-06-04T07:00:11.000Z</time>
      </trkpt>
      <trkpt lat="43.49559933878481388092041015625" lon="-5.66454992629587650299072265625">
        <ele>49.40000152587890625</ele>
        <time>2022-06-04T07:00:13.000Z</time>
      </trkpt>
      <trkpt lat="43.49554535932838916778564453125" lon="-5.6645899079740047454833984375">
        <ele>49.40000152587890625</ele>
        <time>2022-06-04T07:00:14.000Z</time>
      </trkpt>
      <trkpt lat="43.49549330770969390869140625" lon="-5.6646311469376087188720703125">
        <ele>49.40000152587890625</ele>
        <time>2022-06-04T07:00:15.000Z</time>
      </trkpt>
      <trkpt lat="43.4954032860696315765380859375" lon="-5.66471504978835582733154296875">
        <ele>49.40000152587890625</ele>
        <time>2022-06-04T07:00:17.000Z</time>
      </trkpt>
      <trkpt lat="43.4953330457210540771484375" lon="-5.664806663990020751953125">
        <ele>49</ele>
        <time>2022-06-04T07:00:19.000Z</time>
      </trkpt>
      <trkpt lat="43.49525886587798595428466796875" lon="-5.6649037264287471771240234375">
        <ele>48.40000152587890625</ele>
        <time>2022-06-04T07:00:21.000Z</time>
      </trkpt>
      <trkpt lat="43.49517135880887508392333984375" lon="-5.6650096736848354339599609375">
        <ele>48</ele>
        <time>2022-06-04T07:00:23.000Z</time>
      </trkpt>
      <trkpt lat="43.495085276663303375244140625" lon="-5.66511436365544795989990234375">
        <ele>47.799999237060546875</ele>
        <time>2022-06-04T07:00:25.000Z</time>
      </trkpt>
      <trkpt lat="43.49500221200287342071533203125" lon="-5.665212012827396392822265625">
        <ele>47.799999237060546875</ele>
        <time>2022-06-04T07:00:27.000Z</time>
      </trkpt>
      <trkpt lat="43.49493004381656646728515625" lon="-5.6652854382991790771484375">
        <ele>47.799999237060546875</ele>
        <time>2022-06-04T07:00:29.000Z</time>
      </trkpt>
      <trkpt lat="43.494894504547119140625" lon="-5.665316283702850341796875">
        <ele>47.799999237060546875</ele>
        <time>2022-06-04T07:00:30.000Z</time>
      </trkpt>
      <trkpt lat="43.4948582947254180908203125" lon="-5.665347464382648468017578125">
        <ele>48</ele>
        <time>2022-06-04T07:00:31.000Z</time>
      </trkpt>
      <trkpt lat="43.4947880543768405914306640625" lon="-5.66540756262838840484619140625">
        <ele>48</ele>
        <time>2022-06-04T07:00:33.000Z</time>
      </trkpt>
      <trkpt lat="43.494751341640949249267578125" lon="-5.6654334627091884613037109375">
        <ele>48</ele>
        <time>2022-06-04T07:00:34.000Z</time>
      </trkpt>
      <trkpt lat="43.49471337161958217620849609375" lon="-5.66545533947646617889404296875">
        <ele>48</ele>
        <time>2022-06-04T07:00:35.000Z</time>
      </trkpt>
      <trkpt lat="43.4946395270526409149169921875" lon="-5.6654887832701206207275390625">
        <ele>48</ele>
        <time>2022-06-04T07:00:37.000Z</time>
      </trkpt>
      <trkpt lat="43.49456727504730224609375" lon="-5.6655058823525905609130859375">
        <ele>48.59999847412109375</ele>
        <time>2022-06-04T07:00:39.000Z</time>
      </trkpt>
      <trkpt lat="43.49449074827134609222412109375" lon="-5.6655192933976650238037109375">
        <ele>49.40000152587890625</ele>
        <time>2022-06-04T07:00:41.000Z</time>
      </trkpt>
      <trkpt lat="43.4944521076977252960205078125" lon="-5.66552742384374141693115234375">
        <ele>49.799999237060546875</ele>
        <time>2022-06-04T07:00:42.000Z</time>
      </trkpt>
      <trkpt lat="43.494412712752819061279296875" lon="-5.66553865559399127960205078125">
        <ele>50.200000762939453125</ele>
        <time>2022-06-04T07:00:43.000Z</time>
      </trkpt>
      <trkpt lat="43.49433593451976776123046875" lon="-5.66557888872921466827392578125">
        <ele>50.59999847412109375</ele>
        <time>2022-06-04T07:00:45.000Z</time>
      </trkpt>
      <trkpt lat="43.49426887929439544677734375" lon="-5.665654242038726806640625">
        <ele>50.799999237060546875</ele>
        <time>2022-06-04T07:00:47.000Z</time>
      </trkpt>
      <trkpt lat="43.4942117147147655487060546875" lon="-5.66574334166944026947021484375">
        <ele>50.799999237060546875</ele>
        <time>2022-06-04T07:00:49.000Z</time>
      </trkpt>
      <trkpt lat="43.4941869042813777923583984375" lon="-5.66579128615558147430419921875">
        <ele>50.799999237060546875</ele>
        <time>2022-06-04T07:00:50.000Z</time>
      </trkpt>
      <trkpt lat="43.49416133947670459747314453125" lon="-5.66583864390850067138671875">
        <ele>51</ele>
        <time>2022-06-04T07:00:51.000Z</time>
      </trkpt>
      <trkpt lat="43.49411322735249996185302734375" lon="-5.66592983901500701904296875">
        <ele>51</ele>
        <time>2022-06-04T07:00:53.000Z</time>
      </trkpt>
      <trkpt lat="43.49409176968038082122802734375" lon="-5.665975771844387054443359375">
        <ele>51</ele>
        <time>2022-06-04T07:00:54.000Z</time>
      </trkpt>
      <trkpt lat="43.49406880326569080352783203125" lon="-5.66602312959730625152587890625">
        <ele>51</ele>
        <time>2022-06-04T07:00:55.000Z</time>
      </trkpt>
      <trkpt lat="43.49402538500726222991943359375" lon="-5.66611549817025661468505859375">
        <ele>51.40000152587890625</ele>
        <time>2022-06-04T07:00:57.000Z</time>
      </trkpt>
      <trkpt lat="43.49398464895784854888916015625" lon="-5.6662086211144924163818359375">
        <ele>51.59999847412109375</ele>
        <time>2022-06-04T07:00:59.000Z</time>
      </trkpt>
      <trkpt lat="43.49396578967571258544921875" lon="-5.66625748760998249053955078125">
        <ele>52</ele>
        <time>2022-06-04T07:01:00.000Z</time>
      </trkpt>
      <trkpt lat="43.493947349488735198974609375" lon="-5.666306018829345703125">
        <ele>52.200000762939453125</ele>
        <time>2022-06-04T07:01:01.000Z</time>
      </trkpt>
      <trkpt lat="43.49392999894917011260986328125" lon="-5.6663531251251697540283203125">
        <ele>52.200000762939453125</ele>
        <time>2022-06-04T07:01:02.000Z</time>
      </trkpt>
      <trkpt lat="43.49391390569508075714111328125" lon="-5.666403584182262420654296875">
        <ele>52.40000152587890625</ele>
        <time>2022-06-04T07:01:03.000Z</time>
      </trkpt>
      <trkpt lat="43.49388406611979007720947265625" lon="-5.66650844179093837738037109375">
        <ele>52.799999237060546875</ele>
        <time>2022-06-04T07:01:05.000Z</time>
      </trkpt>
      <trkpt lat="43.493871577084064483642578125" lon="-5.66656258888542652130126953125">
        <ele>53</ele>
        <time>2022-06-04T07:01:06.000Z</time>
      </trkpt>
      <trkpt lat="43.4938603453338146209716796875" lon="-5.6666176579892635345458984375">
        <ele>53</ele>
        <time>2022-06-04T07:01:07.000Z</time>
      </trkpt>
      <trkpt lat="43.49383545108139514923095703125" lon="-5.66672452725470066070556640625">
        <ele>53.200000762939453125</ele>
        <time>2022-06-04T07:01:09.000Z</time>
      </trkpt>
      <trkpt lat="43.4938040189445018768310546875" lon="-5.6668303906917572021484375">
        <ele>53.40000152587890625</ele>
        <time>2022-06-04T07:01:11.000Z</time>
      </trkpt>
      <trkpt lat="43.4937679767608642578125" lon="-5.666926614940166473388671875">
        <ele>53.40000152587890625</ele>
        <time>2022-06-04T07:01:13.000Z</time>
      </trkpt>
      <trkpt lat="43.49372900091111660003662109375" lon="-5.66701881587505340576171875">
        <ele>53.40000152587890625</ele>
        <time>2022-06-04T07:01:15.000Z</time>
      </trkpt>
      <trkpt lat="43.4936853311955928802490234375" lon="-5.667098946869373321533203125">
        <ele>53.59999847412109375</ele>
        <time>2022-06-04T07:01:17.000Z</time>
      </trkpt>
      <trkpt lat="43.4936471097171306610107421875" lon="-5.66717036068439483642578125">
        <ele>53.59999847412109375</ele>
        <time>2022-06-04T07:01:19.000Z</time>
      </trkpt>
      <trkpt lat="43.4936323575675487518310546875" lon="-5.66724873147904872894287109375">
        <ele>53.799999237060546875</ele>
        <time>2022-06-04T07:01:21.000Z</time>
      </trkpt>
      <trkpt lat="43.493646942079067230224609375" lon="-5.66728762350976467132568359375">
        <ele>54</ele>
        <time>2022-06-04T07:01:22.000Z</time>
      </trkpt>
      <trkpt lat="43.49366865120828151702880859375" lon="-5.66732886247336864471435546875">
        <ele>54.200000762939453125</ele>
        <time>2022-06-04T07:01:23.000Z</time>
      </trkpt>
      <trkpt lat="43.4936917014420032501220703125" lon="-5.66737378947436809539794921875">
        <ele>54.200000762939453125</ele>
        <time>2022-06-04T07:01:24.000Z</time>
      </trkpt>
      <trkpt lat="43.49371290765702724456787109375" lon="-5.6674213148653507232666015625">
        <ele>54.40000152587890625</ele>
        <time>2022-06-04T07:01:25.000Z</time>
      </trkpt>
      <trkpt lat="43.49372573196887969970703125" lon="-5.66752885468304157257080078125">
        <ele>54.40000152587890625</ele>
        <time>2022-06-04T07:01:27.000Z</time>
      </trkpt>
      <trkpt lat="43.4937171824276447296142578125" lon="-5.66758451052010059356689453125">
        <ele>54.59999847412109375</ele>
        <time>2022-06-04T07:01:28.000Z</time>
      </trkpt>
      <trkpt lat="43.493703939020633697509765625" lon="-5.6676368974149227142333984375">
        <ele>54.799999237060546875</ele>
        <time>2022-06-04T07:01:29.000Z</time>
      </trkpt>
      <trkpt lat="43.4936766140162944793701171875" lon="-5.66774728707969188690185546875">
        <ele>55</ele>
        <time>2022-06-04T07:01:31.000Z</time>
      </trkpt>
      <trkpt lat="43.49366043694317340850830078125" lon="-5.66780495457351207733154296875">
        <ele>55.200000762939453125</ele>
        <time>2022-06-04T07:01:32.000Z</time>
      </trkpt>
      <trkpt lat="43.49364166148006916046142578125" lon="-5.66786161623895168304443359375">
        <ele>55.40000152587890625</ele>
        <time>2022-06-04T07:01:33.000Z</time>
      </trkpt>
      <trkpt lat="43.49360763095319271087646484375" lon="-5.6679756939411163330078125">
        <ele>55.59999847412109375</ele>
        <time>2022-06-04T07:01:35.000Z</time>
      </trkpt>
      <trkpt lat="43.49357292987406253814697265625" lon="-5.66809379495680332183837890625">
        <ele>55.799999237060546875</ele>
        <time>2022-06-04T07:01:37.000Z</time>
      </trkpt>
      <trkpt lat="43.4935418330132961273193359375" lon="-5.66821600310504436492919921875">
        <ele>55.799999237060546875</ele>
        <time>2022-06-04T07:01:39.000Z</time>
      </trkpt>
      <trkpt lat="43.4935150109231472015380859375" lon="-5.668336451053619384765625">
        <ele>55.799999237060546875</ele>
        <time>2022-06-04T07:01:41.000Z</time>
      </trkpt>
      <trkpt lat="43.493502102792263031005859375" lon="-5.668393783271312713623046875">
        <ele>55.799999237060546875</ele>
        <time>2022-06-04T07:01:42.000Z</time>
      </trkpt>
      <trkpt lat="43.4934895299375057220458984375" lon="-5.66844977438449859619140625">
        <ele>55.799999237060546875</ele>
        <time>2022-06-04T07:01:43.000Z</time>
      </trkpt>
      <trkpt lat="43.49346220493316650390625" lon="-5.6685612536966800689697265625">
        <ele>55.799999237060546875</ele>
        <time>2022-06-04T07:01:45.000Z</time>
      </trkpt>
      <trkpt lat="43.493438065052032470703125" lon="-5.66867373883724212646484375">
        <ele>56</ele>
        <time>2022-06-04T07:01:47.000Z</time>
      </trkpt>
      <trkpt lat="43.49341484718024730682373046875" lon="-5.66878781653940677642822265625">
        <ele>56</ele>
        <time>2022-06-04T07:01:49.000Z</time>
      </trkpt>
      <trkpt lat="43.49340386688709259033203125" lon="-5.66884364001452922821044921875">
        <ele>56.200000762939453125</ele>
        <time>2022-06-04T07:01:50.000Z</time>
      </trkpt>
      <trkpt lat="43.4933916293084621429443359375" lon="-5.668900050222873687744140625">
        <ele>56.200000762939453125</ele>
        <time>2022-06-04T07:01:51.000Z</time>
      </trkpt>
      <trkpt lat="43.493376709520816802978515625" lon="-5.6689555384218692779541015625">
        <ele>56.200000762939453125</ele>
        <time>2022-06-04T07:01:52.000Z</time>
      </trkpt>
      <trkpt lat="43.49335969425737857818603515625" lon="-5.669009350240230560302734375">
        <ele>56.40000152587890625</ele>
        <time>2022-06-04T07:01:53.000Z</time>
      </trkpt>
      <trkpt lat="43.4933185391128063201904296875" lon="-5.6691075861454010009765625">
        <ele>56.59999847412109375</ele>
        <time>2022-06-04T07:01:55.000Z</time>
      </trkpt>
      <trkpt lat="43.49329766817390918731689453125" lon="-5.66915192641317844390869140625">
        <ele>56.59999847412109375</ele>
        <time>2022-06-04T07:01:56.000Z</time>
      </trkpt>
      <trkpt lat="43.4932736121118068695068359375" lon="-5.66919140517711639404296875">
        <ele>56.799999237060546875</ele>
        <time>2022-06-04T07:01:57.000Z</time>
      </trkpt>
      <trkpt lat="43.49320999346673488616943359375" lon="-5.66925636492669582366943359375">
        <ele>57</ele>
        <time>2022-06-04T07:01:59.000Z</time>
      </trkpt>
      <trkpt lat="43.493139334022998809814453125" lon="-5.6693149544298648834228515625">
        <ele>57.200000762939453125</ele>
        <time>2022-06-04T07:02:01.000Z</time>
      </trkpt>
      <trkpt lat="43.49307772703468799591064453125" lon="-5.66936985589563846588134765625">
        <ele>57.40000152587890625</ele>
        <time>2022-06-04T07:02:03.000Z</time>
      </trkpt>
      <trkpt lat="43.4930182993412017822265625" lon="-5.66942551173269748687744140625">
        <ele>57.59999847412109375</ele>
        <time>2022-06-04T07:02:05.000Z</time>
      </trkpt>
      <trkpt lat="43.49294923245906829833984375" lon="-5.66948586143553256988525390625">
        <ele>57.59999847412109375</ele>
        <time>2022-06-04T07:02:07.000Z</time>
      </trkpt>
      <trkpt lat="43.49291059188544750213623046875" lon="-5.66951997578144073486328125">
        <ele>57.59999847412109375</ele>
        <time>2022-06-04T07:02:08.000Z</time>
      </trkpt>
      <trkpt lat="43.4928719513118267059326171875" lon="-5.6695536710321903228759765625">
        <ele>57.799999237060546875</ele>
        <time>2022-06-04T07:02:09.000Z</time>
      </trkpt>
      <trkpt lat="43.49279223941266536712646484375" lon="-5.66963237710297107696533203125">
        <ele>57.799999237060546875</ele>
        <time>2022-06-04T07:02:11.000Z</time>
      </trkpt>
      <trkpt lat="43.49269601516425609588623046875" lon="-5.669738240540027618408203125">
        <ele>57.799999237060546875</ele>
        <time>2022-06-04T07:02:13.000Z</time>
      </trkpt>
      <trkpt lat="43.49264505319297313690185546875" lon="-5.66979381255805492401123046875">
        <ele>57.799999237060546875</ele>
        <time>2022-06-04T07:02:14.000Z</time>
      </trkpt>
      <trkpt lat="43.49259761162102222442626953125" lon="-5.6698446907103061676025390625">
        <ele>57.799999237060546875</ele>
        <time>2022-06-04T07:02:15.000Z</time>
      </trkpt>
      <trkpt lat="43.49250172264873981475830078125" lon="-5.6699476204812526702880859375">
        <ele>57.59999847412109375</ele>
        <time>2022-06-04T07:02:17.000Z</time>
      </trkpt>
      <trkpt lat="43.4924067556858062744140625" lon="-5.670044682919979095458984375">
        <ele>57.200000762939453125</ele>
        <time>2022-06-04T07:02:19.000Z</time>
      </trkpt>
      <trkpt lat="43.4923680312931537628173828125" lon="-5.67009489051997661590576171875">
        <ele>57</ele>
        <time>2022-06-04T07:02:20.000Z</time>
      </trkpt>
      <trkpt lat="43.4923318214714527130126953125" lon="-5.6701437570154666900634765625">
        <ele>57</ele>
        <time>2022-06-04T07:02:21.000Z</time>
      </trkpt>
      <trkpt lat="43.49225093610584735870361328125" lon="-5.6702403165400028228759765625">
        <ele>56.799999237060546875</ele>
        <time>2022-06-04T07:02:23.000Z</time>
      </trkpt>
      <trkpt lat="43.49217114038765430450439453125" lon="-5.67034282721579074859619140625">
        <ele>56.799999237060546875</ele>
        <time>2022-06-04T07:02:25.000Z</time>
      </trkpt>
      <trkpt lat="43.49208832718431949615478515625" lon="-5.67044542171061038970947265625">
        <ele>56.799999237060546875</ele>
        <time>2022-06-04T07:02:27.000Z</time>
      </trkpt>
      <trkpt lat="43.4920097887516021728515625" lon="-5.670542903244495391845703125">
        <ele>57</ele>
        <time>2022-06-04T07:02:29.000Z</time>
      </trkpt>
      <trkpt lat="43.49193695001304149627685546875" lon="-5.6706302426755428314208984375">
        <ele>57</ele>
        <time>2022-06-04T07:02:31.000Z</time>
      </trkpt>
      <trkpt lat="43.49185547791421413421630859375" lon="-5.67068531177937984466552734375">
        <ele>57.40000152587890625</ele>
        <time>2022-06-04T07:02:33.000Z</time>
      </trkpt>
      <trkpt lat="43.49178272299468517303466796875" lon="-5.6707137264311313629150390625">
        <ele>57.59999847412109375</ele>
        <time>2022-06-04T07:02:35.000Z</time>
      </trkpt>
      <trkpt lat="43.4917078725993633270263671875" lon="-5.6707204319536685943603515625">
        <ele>57.59999847412109375</ele>
        <time>2022-06-04T07:02:37.000Z</time>
      </trkpt>
      <trkpt lat="43.49163352511823177337646484375" lon="-5.67071850411593914031982421875">
        <ele>58</ele>
        <time>2022-06-04T07:02:39.000Z</time>
      </trkpt>
      <trkpt lat="43.49159463308751583099365234375" lon="-5.6707197614014148712158203125">
        <ele>58.200000762939453125</ele>
        <time>2022-06-04T07:02:40.000Z</time>
      </trkpt>
      <trkpt lat="43.4915526397526264190673828125" lon="-5.6707200966775417327880859375">
        <ele>58.200000762939453125</ele>
        <time>2022-06-04T07:02:41.000Z</time>
      </trkpt>
      <trkpt lat="43.4914545714855194091796875" lon="-5.6707298196852207183837890625">
        <ele>58.59999847412109375</ele>
        <time>2022-06-04T07:02:43.000Z</time>
      </trkpt>
      <trkpt lat="43.4913994185626506805419921875" lon="-5.6707385368645191192626953125">
        <ele>58.799999237060546875</ele>
        <time>2022-06-04T07:02:44.000Z</time>
      </trkpt>
      <trkpt lat="43.49134082905948162078857421875" lon="-5.670750439167022705078125">
        <ele>58.799999237060546875</ele>
        <time>2022-06-04T07:02:45.000Z</time>
      </trkpt>
      <trkpt lat="43.49123991094529628753662109375" lon="-5.67078036256134510040283203125">
        <ele>58.799999237060546875</ele>
        <time>2022-06-04T07:02:47.000Z</time>
      </trkpt>
      <trkpt lat="43.4911563433706760406494140625" lon="-5.6708076037466526031494140625">
        <ele>58.799999237060546875</ele>
        <time>2022-06-04T07:02:49.000Z</time>
      </trkpt>
      <trkpt lat="43.49106967449188232421875" lon="-5.67083895206451416015625">
        <ele>58.799999237060546875</ele>
        <time>2022-06-04T07:02:51.000Z</time>
      </trkpt>
      <trkpt lat="43.49096699617803096771240234375" lon="-5.6708749942481517791748046875">
        <ele>58.799999237060546875</ele>
        <time>2022-06-04T07:02:53.000Z</time>
      </trkpt>
      <trkpt lat="43.49083187989890575408935546875" lon="-5.67093945108354091644287109375">
        <ele>58.59999847412109375</ele>
        <time>2022-06-04T07:02:55.000Z</time>
      </trkpt>
      <trkpt lat="43.49069139920175075531005859375" lon="-5.671023018658161163330078125">
        <ele>58.40000152587890625</ele>
        <time>2022-06-04T07:02:57.000Z</time>
      </trkpt>
      <trkpt lat="43.49062643945217132568359375" lon="-5.67107188515365123748779296875">
        <ele>57.799999237060546875</ele>
        <time>2022-06-04T07:02:58.000Z</time>
      </trkpt>
      <trkpt lat="43.49056902341544628143310546875" lon="-5.6711219251155853271484375">
        <ele>57.200000762939453125</ele>
        <time>2022-06-04T07:02:59.000Z</time>
      </trkpt>
      <trkpt lat="43.490514792501926422119140625" lon="-5.671177916228771209716796875">
        <ele>56.799999237060546875</ele>
        <time>2022-06-04T07:03:00.000Z</time>
      </trkpt>
      <trkpt lat="43.49046357907354831695556640625" lon="-5.671232901513576507568359375">
        <ele>56.59999847412109375</ele>
        <time>2022-06-04T07:03:01.000Z</time>
      </trkpt>
      <trkpt lat="43.4903709590435028076171875" lon="-5.67133792676031589508056640625">
        <ele>56.40000152587890625</ele>
        <time>2022-06-04T07:03:03.000Z</time>
      </trkpt>
      <trkpt lat="43.4902918338775634765625" lon="-5.6714342348277568817138671875">
        <ele>56.200000762939453125</ele>
        <time>2022-06-04T07:03:05.000Z</time>
      </trkpt>
      <trkpt lat="43.4902578033506870269775390625" lon="-5.671480335295200347900390625">
        <ele>56.200000762939453125</ele>
        <time>2022-06-04T07:03:06.000Z</time>
      </trkpt>
      <trkpt lat="43.49022402428090572357177734375" lon="-5.67152769304811954498291015625">
        <ele>56.200000762939453125</ele>
        <time>2022-06-04T07:03:07.000Z</time>
      </trkpt>
      <trkpt lat="43.490168116986751556396484375" lon="-5.6716266833245754241943359375">
        <ele>56.200000762939453125</ele>
        <time>2022-06-04T07:03:09.000Z</time>
      </trkpt>
      <trkpt lat="43.49014188162982463836669921875" lon="-5.6716798245906829833984375">
        <ele>56</ele>
        <time>2022-06-04T07:03:10.000Z</time>
      </trkpt>
      <trkpt lat="43.49011556245386600494384765625" lon="-5.671732127666473388671875">
        <ele>56</ele>
        <time>2022-06-04T07:03:11.000Z</time>
      </trkpt>
      <trkpt lat="43.49004247225821018218994140625" lon="-5.67182273603975772857666015625">
        <ele>56</ele>
        <time>2022-06-04T07:03:13.000Z</time>
      </trkpt>
      <trkpt lat="43.48996619693934917449951171875" lon="-5.6719143502414226531982421875">
        <ele>55.799999237060546875</ele>
        <time>2022-06-04T07:03:15.000Z</time>
      </trkpt>
      <trkpt lat="43.4899309091269969940185546875" lon="-5.67196472547948360443115234375">
        <ele>55.799999237060546875</ele>
        <time>2022-06-04T07:03:16.000Z</time>
      </trkpt>
      <trkpt lat="43.489897884428501129150390625" lon="-5.67201820202171802520751953125">
        <ele>55.799999237060546875</ele>
        <time>2022-06-04T07:03:17.000Z</time>
      </trkpt>
      <trkpt lat="43.4898688830435276031494140625" lon="-5.67207637242972850799560546875">
        <ele>55.799999237060546875</ele>
        <time>2022-06-04T07:03:18.000Z</time>
      </trkpt>
      <trkpt lat="43.48984147422015666961669921875" lon="-5.6721356324851512908935546875">
        <ele>55.59999847412109375</ele>
        <time>2022-06-04T07:03:19.000Z</time>
      </trkpt>
      <trkpt lat="43.4897904284298419952392578125" lon="-5.67225373350083827972412109375">
        <ele>55.59999847412109375</ele>
        <time>2022-06-04T07:03:21.000Z</time>
      </trkpt>
      <trkpt lat="43.48974399268627166748046875" lon="-5.67237912677228450775146484375">
        <ele>55.59999847412109375</ele>
        <time>2022-06-04T07:03:23.000Z</time>
      </trkpt>
      <trkpt lat="43.48970241844654083251953125" lon="-5.672506950795650482177734375">
        <ele>55.59999847412109375</ele>
        <time>2022-06-04T07:03:25.000Z</time>
      </trkpt>
      <trkpt lat="43.48966084420680999755859375" lon="-5.6726338528096675872802734375">
        <ele>55.40000152587890625</ele>
        <time>2022-06-04T07:03:27.000Z</time>
      </trkpt>
      <trkpt lat="43.4896392188966274261474609375" lon="-5.67269328050315380096435546875">
        <ele>55.40000152587890625</ele>
        <time>2022-06-04T07:03:28.000Z</time>
      </trkpt>
      <trkpt lat="43.4896167553961277008056640625" lon="-5.6727527081966400146484375">
        <ele>55.40000152587890625</ele>
        <time>2022-06-04T07:03:29.000Z</time>
      </trkpt>
      <trkpt lat="43.489572666585445404052734375" lon="-5.672864355146884918212890625">
        <ele>55.40000152587890625</ele>
        <time>2022-06-04T07:03:31.000Z</time>
      </trkpt>
      <trkpt lat="43.48952212370932102203369140625" lon="-5.67296803928911685943603515625">
        <ele>55.200000762939453125</ele>
        <time>2022-06-04T07:03:33.000Z</time>
      </trkpt>
      <trkpt lat="43.48950661718845367431640625" lon="-5.67302604205906391143798828125">
        <ele>55.200000762939453125</ele>
        <time>2022-06-04T07:03:34.000Z</time>
      </trkpt>
      <trkpt lat="43.48950753919780254364013671875" lon="-5.6730925105512142181396484375">
        <ele>55.200000762939453125</ele>
        <time>2022-06-04T07:03:35.000Z</time>
      </trkpt>
      <trkpt lat="43.48955431021749973297119140625" lon="-5.67320122383534908294677734375">
        <ele>55.200000762939453125</ele>
        <time>2022-06-04T07:03:37.000Z</time>
      </trkpt>
      <trkpt lat="43.4896144084632396697998046875" lon="-5.6732873059809207916259765625">
        <ele>55</ele>
        <time>2022-06-04T07:03:39.000Z</time>
      </trkpt>
      <trkpt lat="43.48965254612267017364501953125" lon="-5.67338814027607440948486328125">
        <ele>55</ele>
        <time>2022-06-04T07:03:41.000Z</time>
      </trkpt>
      <trkpt lat="43.48965589888393878936767578125" lon="-5.67344564013183116912841796875">
        <ele>55</ele>
        <time>2022-06-04T07:03:42.000Z</time>
      </trkpt>
      <trkpt lat="43.48965346813201904296875" lon="-5.6735045649111270904541015625">
        <ele>55</ele>
        <time>2022-06-04T07:03:43.000Z</time>
      </trkpt>
      <trkpt lat="43.489643074572086334228515625" lon="-5.67360623739659786224365234375">
        <ele>55</ele>
        <time>2022-06-04T07:03:45.000Z</time>
      </trkpt>
      <trkpt lat="43.48964416421949863433837890625" lon="-5.67369885742664337158203125">
        <ele>55</ele>
        <time>2022-06-04T07:03:47.000Z</time>
      </trkpt>
      <trkpt lat="43.48966428078711032867431640625" lon="-5.6738006137311458587646484375">
        <ele>55.200000762939453125</ele>
        <time>2022-06-04T07:03:49.000Z</time>
      </trkpt>
      <trkpt lat="43.4896995685994625091552734375" lon="-5.67390547133982181549072265625">
        <ele>55.59999847412109375</ele>
        <time>2022-06-04T07:03:51.000Z</time>
      </trkpt>
      <trkpt lat="43.4897210262715816497802734375" lon="-5.6739551760256290435791015625">
        <ele>55.799999237060546875</ele>
        <time>2022-06-04T07:03:52.000Z</time>
      </trkpt>
      <trkpt lat="43.48974474705755710601806640625" lon="-5.67399817518889904022216796875">
        <ele>56</ele>
        <time>2022-06-04T07:03:53.000Z</time>
      </trkpt>
      <trkpt lat="43.4897994808852672576904296875" lon="-5.67406900227069854736328125">
        <ele>56.40000152587890625</ele>
        <time>2022-06-04T07:03:55.000Z</time>
      </trkpt>
      <trkpt lat="43.48982823081314563751220703125" lon="-5.67410345189273357391357421875">
        <ele>56.59999847412109375</ele>
        <time>2022-06-04T07:03:56.000Z</time>
      </trkpt>
      <trkpt lat="43.48985924385488033294677734375" lon="-5.67414066754281520843505859375">
        <ele>56.799999237060546875</ele>
        <time>2022-06-04T07:03:57.000Z</time>
      </trkpt>
      <trkpt lat="43.48991909064352512359619140625" lon="-5.67420571111142635345458984375">
        <ele>57.40000152587890625</ele>
        <time>2022-06-04T07:03:59.000Z</time>
      </trkpt>
      <trkpt lat="43.4899724833667278289794921875" lon="-5.6742750294506549835205078125">
        <ele>57.59999847412109375</ele>
        <time>2022-06-04T07:04:01.000Z</time>
      </trkpt>
      <trkpt lat="43.4900180809199810028076171875" lon="-5.67434317432343959808349609375">
        <ele>58</ele>
        <time>2022-06-04T07:04:03.000Z</time>
      </trkpt>
      <trkpt lat="43.49005705676972866058349609375" lon="-5.67440696060657501220703125">
        <ele>58.59999847412109375</ele>
        <time>2022-06-04T07:04:05.000Z</time>
      </trkpt>
      <trkpt lat="43.4900982119143009185791015625" lon="-5.6744658015668392181396484375">
        <ele>59</ele>
        <time>2022-06-04T07:04:07.000Z</time>
      </trkpt>
      <trkpt lat="43.49014657549560070037841796875" lon="-5.67451735027134418487548828125">
        <ele>59.59999847412109375</ele>
        <time>2022-06-04T07:04:09.000Z</time>
      </trkpt>
      <trkpt lat="43.490209020674228668212890625" lon="-5.67455741576850414276123046875">
        <ele>60.200000762939453125</ele>
        <time>2022-06-04T07:04:11.000Z</time>
      </trkpt>
      <trkpt lat="43.4902878105640411376953125" lon="-5.67457954399287700653076171875">
        <ele>61.200000762939453125</ele>
        <time>2022-06-04T07:04:13.000Z</time>
      </trkpt>
      <trkpt lat="43.49032980389893054962158203125" lon="-5.67458666861057281494140625">
        <ele>61.40000152587890625</ele>
        <time>2022-06-04T07:04:14.000Z</time>
      </trkpt>
      <trkpt lat="43.49037221632897853851318359375" lon="-5.67459496669471263885498046875">
        <ele>61.799999237060546875</ele>
        <time>2022-06-04T07:04:15.000Z</time>
      </trkpt>
      <trkpt lat="43.49041546694934368133544921875" lon="-5.6746072880923748016357421875">
        <ele>62.200000762939453125</ele>
        <time>2022-06-04T07:04:16.000Z</time>
      </trkpt>
      <trkpt lat="43.49045880138874053955078125" lon="-5.6746217049658298492431640625">
        <ele>62.40000152587890625</ele>
        <time>2022-06-04T07:04:17.000Z</time>
      </trkpt>
      <trkpt lat="43.49054119549691677093505859375" lon="-5.6746562384068965911865234375">
        <ele>63</ele>
        <time>2022-06-04T07:04:19.000Z</time>
      </trkpt>
      <trkpt lat="43.49061965011060237884521484375" lon="-5.6746951304376125335693359375">
        <ele>63.200000762939453125</ele>
        <time>2022-06-04T07:04:21.000Z</time>
      </trkpt>
      <trkpt lat="43.4906901419162750244140625" lon="-5.67474760115146636962890625">
        <ele>63.200000762939453125</ele>
        <time>2022-06-04T07:04:23.000Z</time>
      </trkpt>
      <trkpt lat="43.490754850208759307861328125" lon="-5.67480401135981082916259765625">
        <ele>63.40000152587890625</ele>
        <time>2022-06-04T07:04:25.000Z</time>
      </trkpt>
      <trkpt lat="43.49081461317837238311767578125" lon="-5.67486687563359737396240234375">
        <ele>63.799999237060546875</ele>
        <time>2022-06-04T07:04:27.000Z</time>
      </trkpt>
      <trkpt lat="43.490868173539638519287109375" lon="-5.674939043819904327392578125">
        <ele>64</ele>
        <time>2022-06-04T07:04:29.000Z</time>
      </trkpt>
      <trkpt lat="43.490892983973026275634765625" lon="-5.67497651092708110809326171875">
        <ele>64.1999969482421875</ele>
        <time>2022-06-04T07:04:30.000Z</time>
      </trkpt>
      <trkpt lat="43.49091486074030399322509765625" lon="-5.6750138103961944580078125">
        <ele>64.40000152587890625</ele>
        <time>2022-06-04T07:04:31.000Z</time>
      </trkpt>
      <trkpt lat="43.4909342229366302490234375" lon="-5.675051696598529815673828125">
        <ele>64.59999847412109375</ele>
        <time>2022-06-04T07:04:32.000Z</time>
      </trkpt>
      <trkpt lat="43.49095257930457592010498046875" lon="-5.675088576972484588623046875">
        <ele>64.59999847412109375</ele>
        <time>2022-06-04T07:04:33.000Z</time>
      </trkpt>
      <trkpt lat="43.4909860230982303619384765625" lon="-5.67515940405428409576416015625">
        <ele>65</ele>
        <time>2022-06-04T07:04:35.000Z</time>
      </trkpt>
      <trkpt lat="43.49100773222744464874267578125" lon="-5.675213970243930816650390625">
        <ele>65.40000152587890625</ele>
        <time>2022-06-04T07:04:37.000Z</time>
      </trkpt>
      <trkpt lat="43.49101510830223560333251953125" lon="-5.67523484118282794952392578125">
        <ele>65.59999847412109375</ele>
        <time>2022-06-04T07:04:38.000Z</time>
      </trkpt>
      <trkpt lat="43.491021059453487396240234375" lon="-5.67525856196880340576171875">
        <ele>65.8000030517578125</ele>
        <time>2022-06-04T07:04:39.000Z</time>
      </trkpt>
      <trkpt lat="43.4910379908978939056396484375" lon="-5.67531061358749866485595703125">
        <ele>66.59999847412109375</ele>
        <time>2022-06-04T07:04:41.000Z</time>
      </trkpt>
      <trkpt lat="43.491047210991382598876953125" lon="-5.675373561680316925048828125">
        <ele>67</ele>
        <time>2022-06-04T07:04:43.000Z</time>
      </trkpt>
      <trkpt lat="43.49103991873562335968017578125" lon="-5.6754039041697978973388671875">
        <ele>67.40000152587890625</ele>
        <time>2022-06-04T07:04:44.000Z</time>
      </trkpt>
      <trkpt lat="43.49102198146283626556396484375" lon="-5.67543265409767627716064453125">
        <ele>67.59999847412109375</ele>
        <time>2022-06-04T07:04:45.000Z</time>
      </trkpt>
      <trkpt lat="43.49099683575332164764404296875" lon="-5.67545914091169834136962890625">
        <ele>67.8000030517578125</ele>
        <time>2022-06-04T07:04:46.000Z</time>
      </trkpt>
      <trkpt lat="43.49096917547285556793212890625" lon="-5.67548520863056182861328125">
        <ele>68</ele>
        <time>2022-06-04T07:04:47.000Z</time>
      </trkpt>
      <trkpt lat="43.490906059741973876953125" lon="-5.67554061301052570343017578125">
        <ele>68.1999969482421875</ele>
        <time>2022-06-04T07:04:49.000Z</time>
      </trkpt>
      <trkpt lat="43.490868173539638519287109375" lon="-5.67557430826127529144287109375">
        <ele>68.1999969482421875</ele>
        <time>2022-06-04T07:04:50.000Z</time>
      </trkpt>
      <trkpt lat="43.49082986824214458465576171875" lon="-5.67561504431068897247314453125">
        <ele>68.1999969482421875</ele>
        <time>2022-06-04T07:04:51.000Z</time>
      </trkpt>
      <trkpt lat="43.490794412791728973388671875" lon="-5.6756597198545932769775390625">
        <ele>68.1999969482421875</ele>
        <time>2022-06-04T07:04:52.000Z</time>
      </trkpt>
      <trkpt lat="43.4907607175409793853759765625" lon="-5.67570707760751247406005859375">
        <ele>68.1999969482421875</ele>
        <time>2022-06-04T07:04:53.000Z</time>
      </trkpt>
      <trkpt lat="43.4907322190701961517333984375" lon="-5.67575518973171710968017578125">
        <ele>68.1999969482421875</ele>
        <time>2022-06-04T07:04:54.000Z</time>
      </trkpt>
      <trkpt lat="43.4907053969800472259521484375" lon="-5.67580313421785831451416015625">
        <ele>68.1999969482421875</ele>
        <time>2022-06-04T07:04:55.000Z</time>
      </trkpt>
      <trkpt lat="43.49065787158906459808349609375" lon="-5.67590204067528247833251953125">
        <ele>68.40000152587890625</ele>
        <time>2022-06-04T07:04:57.000Z</time>
      </trkpt>
      <trkpt lat="43.4906380064785480499267578125" lon="-5.67595534957945346832275390625">
        <ele>68.40000152587890625</ele>
        <time>2022-06-04T07:04:58.000Z</time>
      </trkpt>
      <trkpt lat="43.490622080862522125244140625" lon="-5.676011256873607635498046875">
        <ele>68.59999847412109375</ele>
        <time>2022-06-04T07:04:59.000Z</time>
      </trkpt>
      <trkpt lat="43.4905987791717052459716796875" lon="-5.67612449638545513153076171875">
        <ele>68.59999847412109375</ele>
        <time>2022-06-04T07:05:01.000Z</time>
      </trkpt>
      <trkpt lat="43.490576483309268951416015625" lon="-5.67622759379446506500244140625">
        <ele>68.59999847412109375</ele>
        <time>2022-06-04T07:05:03.000Z</time>
      </trkpt>
      <trkpt lat="43.490562736988067626953125" lon="-5.67627847194671630859375">
        <ele>68.59999847412109375</ele>
        <time>2022-06-04T07:05:04.000Z</time>
      </trkpt>
      <trkpt lat="43.4905491583049297332763671875" lon="-5.67632884718477725982666015625">
        <ele>68.59999847412109375</ele>
        <time>2022-06-04T07:05:05.000Z</time>
      </trkpt>
      <trkpt lat="43.490522839128971099853515625" lon="-5.67643311806023120880126953125">
        <ele>68.8000030517578125</ele>
        <time>2022-06-04T07:05:07.000Z</time>
      </trkpt>
      <trkpt lat="43.49049677141010761260986328125" lon="-5.67654409445822238922119140625">
        <ele>69.1999969482421875</ele>
        <time>2022-06-04T07:05:09.000Z</time>
      </trkpt>
      <trkpt lat="43.4904680214822292327880859375" lon="-5.676658339798450469970703125">
        <ele>69.40000152587890625</ele>
        <time>2022-06-04T07:05:11.000Z</time>
      </trkpt>
      <trkpt lat="43.4904368408024311065673828125" lon="-5.67677862010896205902099609375">
        <ele>69.8000030517578125</ele>
        <time>2022-06-04T07:05:13.000Z</time>
      </trkpt>
      <trkpt lat="43.490399457514286041259765625" lon="-5.67689898423850536346435546875">
        <ele>70</ele>
        <time>2022-06-04T07:05:15.000Z</time>
      </trkpt>
      <trkpt lat="43.4903583861887454986572265625" lon="-5.67701817490160465240478515625">
        <ele>70</ele>
        <time>2022-06-04T07:05:17.000Z</time>
      </trkpt>
      <trkpt lat="43.49032200872898101806640625" lon="-5.677142478525638580322265625">
        <ele>70.1999969482421875</ele>
        <time>2022-06-04T07:05:19.000Z</time>
      </trkpt>
      <trkpt lat="43.49030792713165283203125" lon="-5.67720458842813968658447265625">
        <ele>70.1999969482421875</ele>
        <time>2022-06-04T07:05:20.000Z</time>
      </trkpt>
      <trkpt lat="43.4902953542768955230712890625" lon="-5.6772683747112751007080078125">
        <ele>70.1999969482421875</ele>
        <time>2022-06-04T07:05:21.000Z</time>
      </trkpt>
      <trkpt lat="43.4902762435376644134521484375" lon="-5.6774021498858928680419921875">
        <ele>70.1999969482421875</ele>
        <time>2022-06-04T07:05:23.000Z</time>
      </trkpt>
      <trkpt lat="43.4902708791196346282958984375" lon="-5.67754053510725498199462890625">
        <ele>70.1999969482421875</ele>
        <time>2022-06-04T07:05:25.000Z</time>
      </trkpt>
      <trkpt lat="43.4902692027390003204345703125" lon="-5.677609182894229888916015625">
        <ele>70.1999969482421875</ele>
        <time>2022-06-04T07:05:26.000Z</time>
      </trkpt>
      <trkpt lat="43.49026710726320743560791015625" lon="-5.67767665721476078033447265625">
        <ele>70.1999969482421875</ele>
        <time>2022-06-04T07:05:27.000Z</time>
      </trkpt>
      <trkpt lat="43.49026610143482685089111328125" lon="-5.67780875600874423980712890625">
        <ele>70.40000152587890625</ele>
        <time>2022-06-04T07:05:29.000Z</time>
      </trkpt>
      <trkpt lat="43.49026744253933429718017578125" lon="-5.67793917842209339141845703125">
        <ele>70.40000152587890625</ele>
        <time>2022-06-04T07:05:31.000Z</time>
      </trkpt>
      <trkpt lat="43.49026509560644626617431640625" lon="-5.67806591279804706573486328125">
        <ele>70.40000152587890625</ele>
        <time>2022-06-04T07:05:33.000Z</time>
      </trkpt>
      <trkpt lat="43.49026442505419254302978515625" lon="-5.67812777124345302581787109375">
        <ele>70.59999847412109375</ele>
        <time>2022-06-04T07:05:34.000Z</time>
      </trkpt>
      <trkpt lat="43.49026341922581195831298828125" lon="-5.678189210593700408935546875">
        <ele>70.59999847412109375</ele>
        <time>2022-06-04T07:05:35.000Z</time>
      </trkpt>
      <trkpt lat="43.4902658499777317047119140625" lon="-5.67830915562808513641357421875">
        <ele>70.8000030517578125</ele>
        <time>2022-06-04T07:05:37.000Z</time>
      </trkpt>
      <trkpt lat="43.49026978947222232818603515625" lon="-5.67842801101505756378173828125">
        <ele>71.1999969482421875</ele>
        <time>2022-06-04T07:05:39.000Z</time>
      </trkpt>
      <trkpt lat="43.49026777781546115875244140625" lon="-5.67854401655495166778564453125">
        <ele>71.59999847412109375</ele>
        <time>2022-06-04T07:05:41.000Z</time>
      </trkpt>
      <trkpt lat="43.49026702344417572021484375" lon="-5.678658597171306610107421875">
        <ele>71.8000030517578125</ele>
        <time>2022-06-04T07:05:43.000Z</time>
      </trkpt>
      <trkpt lat="43.49026543088257312774658203125" lon="-5.67877166904509067535400390625">
        <ele>72</ele>
        <time>2022-06-04T07:05:45.000Z</time>
      </trkpt>
      <trkpt lat="43.49026509560644626617431640625" lon="-5.67887543700635433197021484375">
        <ele>72.1999969482421875</ele>
        <time>2022-06-04T07:05:47.000Z</time>
      </trkpt>
      <trkpt lat="43.49026693962514400482177734375" lon="-5.67892254330217838287353515625">
        <ele>72.40000152587890625</ele>
        <time>2022-06-04T07:05:48.000Z</time>
      </trkpt>
      <trkpt lat="43.49027196876704692840576171875" lon="-5.67896445281803607940673828125">
        <ele>72.59999847412109375</ele>
        <time>2022-06-04T07:05:49.000Z</time>
      </trkpt>
      <trkpt lat="43.49028303287923336029052734375" lon="-5.6790356151759624481201171875">
        <ele>72.8000030517578125</ele>
        <time>2022-06-04T07:05:51.000Z</time>
      </trkpt>
      <trkpt lat="43.49027113057672977447509765625" lon="-5.6791006587445735931396484375">
        <ele>73</ele>
        <time>2022-06-04T07:05:53.000Z</time>
      </trkpt>
      <trkpt lat="43.49026073701679706573486328125" lon="-5.679136030375957489013671875">
        <ele>73</ele>
        <time>2022-06-04T07:05:54.000Z</time>
      </trkpt>
      <trkpt lat="43.49024313502013683319091796875" lon="-5.679172575473785400390625">
        <ele>73</ele>
        <time>2022-06-04T07:05:55.000Z</time>
      </trkpt>
      <trkpt lat="43.49018379114568233489990234375" lon="-5.67926603369414806365966796875">
        <ele>73</ele>
        <time>2022-06-04T07:05:57.000Z</time>
      </trkpt>
      <trkpt lat="43.49014699459075927734375" lon="-5.67932034842669963836669921875">
        <ele>73</ele>
        <time>2022-06-04T07:05:58.000Z</time>
      </trkpt>
      <trkpt lat="43.490109778940677642822265625" lon="-5.67937466315925121307373046875">
        <ele>73</ele>
        <time>2022-06-04T07:05:59.000Z</time>
      </trkpt>
      <trkpt lat="43.49007113836705684661865234375" lon="-5.6794221885502338409423828125">
        <ele>73</ele>
        <time>2022-06-04T07:06:00.000Z</time>
      </trkpt>
      <trkpt lat="43.4900276362895965576171875" lon="-5.67945814691483974456787109375">
        <ele>73</ele>
        <time>2022-06-04T07:06:01.000Z</time>
      </trkpt>
      <trkpt lat="43.48997876979410648345947265625" lon="-5.67948178388178348541259765625">
        <ele>73</ele>
        <time>2022-06-04T07:06:02.000Z</time>
      </trkpt>
      <trkpt lat="43.489922694861888885498046875" lon="-5.67949854768812656402587890625">
        <ele>73</ele>
        <time>2022-06-04T07:06:03.000Z</time>
      </trkpt>
      <trkpt lat="43.48979495465755462646484375" lon="-5.67952863872051239013671875">
        <ele>71.40000152587890625</ele>
        <time>2022-06-04T07:06:05.000Z</time>
      </trkpt>
      <trkpt lat="43.48972144536674022674560546875" lon="-5.67954682745039463043212890625">
        <ele>70.59999847412109375</ele>
        <time>2022-06-04T07:06:06.000Z</time>
      </trkpt>
      <trkpt lat="43.48964265547692775726318359375" lon="-5.67956811748445034027099609375">
        <ele>69.8000030517578125</ele>
        <time>2022-06-04T07:06:07.000Z</time>
      </trkpt>
      <trkpt lat="43.489484824240207672119140625" lon="-5.67960315383970737457275390625">
        <ele>68.59999847412109375</ele>
        <time>2022-06-04T07:06:09.000Z</time>
      </trkpt>
      <trkpt lat="43.489327244460582733154296875" lon="-5.6795777566730976104736328125">
        <ele>67.1999969482421875</ele>
        <time>2022-06-04T07:06:11.000Z</time>
      </trkpt>
      <trkpt lat="43.48917796276509761810302734375" lon="-5.67950894124805927276611328125">
        <ele>65.59999847412109375</ele>
        <time>2022-06-04T07:06:13.000Z</time>
      </trkpt>
      <trkpt lat="43.48910789005458354949951171875" lon="-5.6794617511332035064697265625">
        <ele>64.8000030517578125</ele>
        <time>2022-06-04T07:06:14.000Z</time>
      </trkpt>
      <trkpt lat="43.48904251120984554290771484375" lon="-5.679410286247730255126953125">
        <ele>64</ele>
        <time>2022-06-04T07:06:15.000Z</time>
      </trkpt>
      <trkpt lat="43.4889291040599346160888671875" lon="-5.67931481637060642242431640625">
        <ele>62.59999847412109375</ele>
        <time>2022-06-04T07:06:17.000Z</time>
      </trkpt>
      <trkpt lat="43.488834388554096221923828125" lon="-5.679252706468105316162109375">
        <ele>62.200000762939453125</ele>
        <time>2022-06-04T07:06:19.000Z</time>
      </trkpt>
      <trkpt lat="43.48873573355376720428466796875" lon="-5.67920744419097900390625">
        <ele>62</ele>
        <time>2022-06-04T07:06:21.000Z</time>
      </trkpt>
      <trkpt lat="43.4886156208813190460205078125" lon="-5.679157488048076629638671875">
        <ele>61.799999237060546875</ele>
        <time>2022-06-04T07:06:23.000Z</time>
      </trkpt>
      <trkpt lat="43.48855317570269107818603515625" lon="-5.6791422329843044281005859375">
        <ele>61.59999847412109375</ele>
        <time>2022-06-04T07:06:24.000Z</time>
      </trkpt>
      <trkpt lat="43.48849542438983917236328125" lon="-5.679130665957927703857421875">
        <ele>61.40000152587890625</ele>
        <time>2022-06-04T07:06:25.000Z</time>
      </trkpt>
      <trkpt lat="43.4883732162415981292724609375" lon="-5.67911633290350437164306640625">
        <ele>61.200000762939453125</ele>
        <time>2022-06-04T07:06:27.000Z</time>
      </trkpt>
      <trkpt lat="43.48831026814877986907958984375" lon="-5.67910845391452312469482421875">
        <ele>61.200000762939453125</ele>
        <time>2022-06-04T07:06:28.000Z</time>
      </trkpt>
      <trkpt lat="43.48824773915112018585205078125" lon="-5.6790949590504169464111328125">
        <ele>61.200000762939453125</ele>
        <time>2022-06-04T07:06:29.000Z</time>
      </trkpt>
      <trkpt lat="43.48812871612608432769775390625" lon="-5.6790644489228725433349609375">
        <ele>61.200000762939453125</ele>
        <time>2022-06-04T07:06:31.000Z</time>
      </trkpt>
      <trkpt lat="43.488071970641613006591796875" lon="-5.67904047667980194091796875">
        <ele>61.200000762939453125</ele>
        <time>2022-06-04T07:06:32.000Z</time>
      </trkpt>
      <trkpt lat="43.48801472224295139312744140625" lon="-5.67901189438998699188232421875">
        <ele>61.200000762939453125</ele>
        <time>2022-06-04T07:06:33.000Z</time>
      </trkpt>
      <trkpt lat="43.48790944553911685943603515625" lon="-5.67894550971686840057373046875">
        <ele>61.200000762939453125</ele>
        <time>2022-06-04T07:06:35.000Z</time>
      </trkpt>
      <trkpt lat="43.48780877888202667236328125" lon="-5.6788627803325653076171875">
        <ele>61.200000762939453125</ele>
        <time>2022-06-04T07:06:37.000Z</time>
      </trkpt>
      <trkpt lat="43.4877616725862026214599609375" lon="-5.67882548086345195770263671875">
        <ele>61.200000762939453125</ele>
        <time>2022-06-04T07:06:38.000Z</time>
      </trkpt>
      <trkpt lat="43.48771699704229831695556640625" lon="-5.67879061214625835418701171875">
        <ele>61.200000762939453125</ele>
        <time>2022-06-04T07:06:39.000Z</time>
      </trkpt>
      <trkpt lat="43.48762462846934795379638671875" lon="-5.6787385605275630950927734375">
        <ele>61.200000762939453125</ele>
        <time>2022-06-04T07:06:41.000Z</time>
      </trkpt>
      <trkpt lat="43.48753259517252445220947265625" lon="-5.67870561964809894561767578125">
        <ele>61.40000152587890625</ele>
        <time>2022-06-04T07:06:43.000Z</time>
      </trkpt>
      <trkpt lat="43.48744173534214496612548828125" lon="-5.67868131212890148162841796875">
        <ele>61.59999847412109375</ele>
        <time>2022-06-04T07:06:45.000Z</time>
      </trkpt>
      <trkpt lat="43.48736126907169818878173828125" lon="-5.67866186611354351043701171875">
        <ele>61.799999237060546875</ele>
        <time>2022-06-04T07:06:47.000Z</time>
      </trkpt>
      <trkpt lat="43.487274684011936187744140625" lon="-5.678645856678485870361328125">
        <ele>62.200000762939453125</ele>
        <time>2022-06-04T07:06:49.000Z</time>
      </trkpt>
      <trkpt lat="43.48718977533280849456787109375" lon="-5.67862817086279392242431640625">
        <ele>62.40000152587890625</ele>
        <time>2022-06-04T07:06:51.000Z</time>
      </trkpt>
      <trkpt lat="43.48715004511177539825439453125" lon="-5.6786215491592884063720703125">
        <ele>62.59999847412109375</ele>
        <time>2022-06-04T07:06:52.000Z</time>
      </trkpt>
      <trkpt lat="43.487108051776885986328125" lon="-5.678607635200023651123046875">
        <ele>63</ele>
        <time>2022-06-04T07:06:53.000Z</time>
      </trkpt>
      <trkpt lat="43.48702850751578807830810546875" lon="-5.67856295965611934661865234375">
        <ele>63.200000762939453125</ele>
        <time>2022-06-04T07:06:55.000Z</time>
      </trkpt>
      <trkpt lat="43.4869563393294811248779296875" lon="-5.67850805819034576416015625">
        <ele>63.59999847412109375</ele>
        <time>2022-06-04T07:06:57.000Z</time>
      </trkpt>
      <trkpt lat="43.4868907928466796875" lon="-5.67844795994460582733154296875">
        <ele>63.799999237060546875</ele>
        <time>2022-06-04T07:06:59.000Z</time>
      </trkpt>
      <trkpt lat="43.48683538846671581268310546875" lon="-5.67840202711522579193115234375">
        <ele>64.1999969482421875</ele>
        <time>2022-06-04T07:07:01.000Z</time>
      </trkpt>
      <trkpt lat="43.48678878508508205413818359375" lon="-5.67836011759936809539794921875">
        <ele>64.40000152587890625</ele>
        <time>2022-06-04T07:07:03.000Z</time>
      </trkpt>
      <trkpt lat="43.48673664964735507965087890625" lon="-5.67831887863576412200927734375">
        <ele>64.8000030517578125</ele>
        <time>2022-06-04T07:07:05.000Z</time>
      </trkpt>
      <trkpt lat="43.4866861067712306976318359375" lon="-5.6782899610698223114013671875">
        <ele>65.1999969482421875</ele>
        <time>2022-06-04T07:07:07.000Z</time>
      </trkpt>
      <trkpt lat="43.4866234101355075836181640625" lon="-5.678291805088520050048828125">
        <ele>65.8000030517578125</ele>
        <time>2022-06-04T07:07:09.000Z</time>
      </trkpt>
      <trkpt lat="43.48656482063233852386474609375" lon="-5.67832700908184051513671875">
        <ele>66.40000152587890625</ele>
        <time>2022-06-04T07:07:11.000Z</time>
      </trkpt>
      <trkpt lat="43.48651821725070476531982421875" lon="-5.6783907115459442138671875">
        <ele>67.1999969482421875</ele>
        <time>2022-06-04T07:07:13.000Z</time>
      </trkpt>
      <trkpt lat="43.48647077567875385284423828125" lon="-5.67846053279936313629150390625">
        <ele>67.59999847412109375</ele>
        <time>2022-06-04T07:07:15.000Z</time>
      </trkpt>
      <trkpt lat="43.48645216785371303558349609375" lon="-5.67849657498300075531005859375">
        <ele>67.8000030517578125</ele>
        <time>2022-06-04T07:07:16.000Z</time>
      </trkpt>
      <trkpt lat="43.486434482038021087646484375" lon="-5.678528845310211181640625">
        <ele>67.8000030517578125</ele>
        <time>2022-06-04T07:07:17.000Z</time>
      </trkpt>
      <trkpt lat="43.48640589974820613861083984375" lon="-5.6785786338150501251220703125">
        <ele>68.1999969482421875</ele>
        <time>2022-06-04T07:07:19.000Z</time>
      </trkpt>
      <trkpt lat="43.48639248870313167572021484375" lon="-5.67860126495361328125">
        <ele>68.1999969482421875</ele>
        <time>2022-06-04T07:07:20.000Z</time>
      </trkpt>
      <trkpt lat="43.4863798320293426513671875" lon="-5.67862565629184246063232421875">
        <ele>68.1999969482421875</ele>
        <time>2022-06-04T07:07:21.000Z</time>
      </trkpt>
      <trkpt lat="43.48635359667241573333740234375" lon="-5.67867561243474483489990234375">
        <ele>68.40000152587890625</ele>
        <time>2022-06-04T07:07:23.000Z</time>
      </trkpt>
      <trkpt lat="43.48632660694420337677001953125" lon="-5.678727328777313232421875">
        <ele>69</ele>
        <time>2022-06-04T07:07:25.000Z</time>
      </trkpt>
      <trkpt lat="43.4863136149942874908447265625" lon="-5.67875490523874759674072265625">
        <ele>69.1999969482421875</ele>
        <time>2022-06-04T07:07:26.000Z</time>
      </trkpt>
      <trkpt lat="43.4863025508821010589599609375" lon="-5.6787821464240550994873046875">
        <ele>69.40000152587890625</ele>
        <time>2022-06-04T07:07:27.000Z</time>
      </trkpt>
      <trkpt lat="43.48628117702901363372802734375" lon="-5.6788334436714649200439453125">
        <ele>70.40000152587890625</ele>
        <time>2022-06-04T07:07:29.000Z</time>
      </trkpt>
      <trkpt lat="43.48625787533819675445556640625" lon="-5.67888088524341583251953125">
        <ele>70.8000030517578125</ele>
        <time>2022-06-04T07:07:31.000Z</time>
      </trkpt>
      <trkpt lat="43.486234657466411590576171875" lon="-5.6789271533489227294921875">
        <ele>71.40000152587890625</ele>
        <time>2022-06-04T07:07:33.000Z</time>
      </trkpt>
      <trkpt lat="43.4862227551639080047607421875" lon="-5.67894970066845417022705078125">
        <ele>71.59999847412109375</ele>
        <time>2022-06-04T07:07:34.000Z</time>
      </trkpt>
      <trkpt lat="43.48621261306107044219970703125" lon="-5.67897434346377849578857421875">
        <ele>71.8000030517578125</ele>
        <time>2022-06-04T07:07:35.000Z</time>
      </trkpt>
      <trkpt lat="43.48619149066507816314697265625" lon="-5.679021365940570831298828125">
        <ele>72.1999969482421875</ele>
        <time>2022-06-04T07:07:37.000Z</time>
      </trkpt>
      <trkpt lat="43.4861667640507221221923828125" lon="-5.67906620912253856658935546875">
        <ele>72.8000030517578125</ele>
        <time>2022-06-04T07:07:39.000Z</time>
      </trkpt>
      <trkpt lat="43.48614723421633243560791015625" lon="-5.6791175901889801025390625">
        <ele>73.1999969482421875</ele>
        <time>2022-06-04T07:07:41.000Z</time>
      </trkpt>
      <trkpt lat="43.4861248545348644256591796875" lon="-5.6791636906564235687255859375">
        <ele>73.8000030517578125</ele>
        <time>2022-06-04T07:07:43.000Z</time>
      </trkpt>
      <trkpt lat="43.486115634441375732421875" lon="-5.67918875254690647125244140625">
        <ele>74</ele>
        <time>2022-06-04T07:07:44.000Z</time>
      </trkpt>
      <trkpt lat="43.48610666580498218536376953125" lon="-5.679212473332881927490234375">
        <ele>74.1999969482421875</ele>
        <time>2022-06-04T07:07:45.000Z</time>
      </trkpt>
      <trkpt lat="43.4860847890377044677734375" lon="-5.67925882525742053985595703125">
        <ele>74.59999847412109375</ele>
        <time>2022-06-04T07:07:47.000Z</time>
      </trkpt>
      <trkpt lat="43.48606056533753871917724609375" lon="-5.67930626682937145233154296875">
        <ele>75.1999969482421875</ele>
        <time>2022-06-04T07:07:49.000Z</time>
      </trkpt>
      <trkpt lat="43.48603759892284870147705078125" lon="-5.6793558038771152496337890625">
        <ele>75.59999847412109375</ele>
        <time>2022-06-04T07:07:51.000Z</time>
      </trkpt>
      <trkpt lat="43.48601379431784152984619140625" lon="-5.6794072687625885009765625">
        <ele>76.1999969482421875</ele>
        <time>2022-06-04T07:07:53.000Z</time>
      </trkpt>
      <trkpt lat="43.486001975834369659423828125" lon="-5.67943383939564228057861328125">
        <ele>76.40000152587890625</ele>
        <time>2022-06-04T07:07:54.000Z</time>
      </trkpt>
      <trkpt lat="43.48598948679864406585693359375" lon="-5.6794620864093303680419921875">
        <ele>76.59999847412109375</ele>
        <time>2022-06-04T07:07:55.000Z</time>
      </trkpt>
      <trkpt lat="43.485965766012668609619140625" lon="-5.67951916716992855072021484375">
        <ele>77.40000152587890625</ele>
        <time>2022-06-04T07:07:57.000Z</time>
      </trkpt>
      <trkpt lat="43.48594103939831256866455078125" lon="-5.67957465536892414093017578125">
        <ele>77.8000030517578125</ele>
        <time>2022-06-04T07:07:59.000Z</time>
      </trkpt>
      <trkpt lat="43.48591656424105167388916015625" lon="-5.67962293513119220733642578125">
        <ele>78</ele>
        <time>2022-06-04T07:08:01.000Z</time>
      </trkpt>
      <trkpt lat="43.4859072603285312652587890625" lon="-5.67964590154588222503662109375">
        <ele>78.1999969482421875</ele>
        <time>2022-06-04T07:08:02.000Z</time>
      </trkpt>
      <trkpt lat="43.48589661531150341033935546875" lon="-5.6796655990183353424072265625">
        <ele>78.40000152587890625</ele>
        <time>2022-06-04T07:08:03.000Z</time>
      </trkpt>
      <trkpt lat="43.48588588647544384002685546875" lon="-5.679683871567249298095703125">
        <ele>78.40000152587890625</ele>
        <time>2022-06-04T07:08:04.000Z</time>
      </trkpt>
      <trkpt lat="43.48587364889681339263916015625" lon="-5.67970189265906810760498046875">
        <ele>78.40000152587890625</ele>
        <time>2022-06-04T07:08:05.000Z</time>
      </trkpt>
      <trkpt lat="43.48584883846342563629150390625" lon="-5.6797376833856105804443359375">
        <ele>78.8000030517578125</ele>
        <time>2022-06-04T07:08:07.000Z</time>
      </trkpt>
      <trkpt lat="43.4858271293342113494873046875" lon="-5.67976869642734527587890625">
        <ele>79</ele>
        <time>2022-06-04T07:08:09.000Z</time>
      </trkpt>
      <trkpt lat="43.48581497557461261749267578125" lon="-5.67978487350046634674072265625">
        <ele>79.40000152587890625</ele>
        <time>2022-06-04T07:08:10.000Z</time>
      </trkpt>
      <trkpt lat="43.4858004748821258544921875" lon="-5.67979979328811168670654296875">
        <ele>79.59999847412109375</ele>
        <time>2022-06-04T07:08:11.000Z</time>
      </trkpt>
      <trkpt lat="43.48576962947845458984375" lon="-5.67982234060764312744140625">
        <ele>80</ele>
        <time>2022-06-04T07:08:13.000Z</time>
      </trkpt>
      <trkpt lat="43.4857516922056674957275390625" lon="-5.679828710854053497314453125">
        <ele>80.40000152587890625</ele>
        <time>2022-06-04T07:08:14.000Z</time>
      </trkpt>
      <trkpt lat="43.48573300056159496307373046875" lon="-5.67983231507241725921630859375">
        <ele>81</ele>
        <time>2022-06-04T07:08:15.000Z</time>
      </trkpt>
      <trkpt lat="43.48571372218430042266845703125" lon="-5.6798350811004638671875">
        <ele>81.40000152587890625</ele>
        <time>2022-06-04T07:08:16.000Z</time>
      </trkpt>
      <trkpt lat="43.48569377325475215911865234375" lon="-5.67983583547174930572509765625">
        <ele>81.59999847412109375</ele>
        <time>2022-06-04T07:08:17.000Z</time>
      </trkpt>
      <trkpt lat="43.485653288662433624267578125" lon="-5.679824016988277435302734375">
        <ele>82.40000152587890625</ele>
        <time>2022-06-04T07:08:19.000Z</time>
      </trkpt>
      <trkpt lat="43.485633172094821929931640625" lon="-5.67981521598994731903076171875">
        <ele>82.8000030517578125</ele>
        <time>2022-06-04T07:08:20.000Z</time>
      </trkpt>
      <trkpt lat="43.48561347462236881256103515625" lon="-5.6798044033348560333251953125">
        <ele>83.1999969482421875</ele>
        <time>2022-06-04T07:08:21.000Z</time>
      </trkpt>
      <trkpt lat="43.485570810735225677490234375" lon="-5.679774396121501922607421875">
        <ele>83.59999847412109375</ele>
        <time>2022-06-04T07:08:23.000Z</time>
      </trkpt>
      <trkpt lat="43.48552378825843334197998046875" lon="-5.6797371804714202880859375">
        <ele>84.59999847412109375</ele>
        <time>2022-06-04T07:08:25.000Z</time>
      </trkpt>
      <trkpt lat="43.4854995645582675933837890625" lon="-5.67971999756991863250732421875">
        <ele>85</ele>
        <time>2022-06-04T07:08:26.000Z</time>
      </trkpt>
      <trkpt lat="43.485476262867450714111328125" lon="-5.679704658687114715576171875">
        <ele>85.1999969482421875</ele>
        <time>2022-06-04T07:08:27.000Z</time>
      </trkpt>
      <trkpt lat="43.48543259315192699432373046875" lon="-5.67967691458761692047119140625">
        <ele>85.40000152587890625</ele>
        <time>2022-06-04T07:08:29.000Z</time>
      </trkpt>
      <trkpt lat="43.48539135418832302093505859375" lon="-5.67965528927743434906005859375">
        <ele>85.59999847412109375</ele>
        <time>2022-06-04T07:08:31.000Z</time>
      </trkpt>
      <trkpt lat="43.48535514436662197113037109375" lon="-5.6796354241669178009033203125">
        <ele>85.8000030517578125</ele>
        <time>2022-06-04T07:08:33.000Z</time>
      </trkpt>
      <trkpt lat="43.48532077856361865997314453125" lon="-5.67961757071316242218017578125">
        <ele>85.8000030517578125</ele>
        <time>2022-06-04T07:08:35.000Z</time>
      </trkpt>
      <trkpt lat="43.48530292510986328125" lon="-5.679609440267086029052734375">
        <ele>86</ele>
        <time>2022-06-04T07:08:36.000Z</time>
      </trkpt>
      <trkpt lat="43.48528406582772731781005859375" lon="-5.67960281856358051300048828125">
        <ele>86</ele>
        <time>2022-06-04T07:08:37.000Z</time>
      </trkpt>
      <trkpt lat="43.48524685017764568328857421875" lon="-5.67959292791783809661865234375">
        <ele>86.40000152587890625</ele>
        <time>2022-06-04T07:08:39.000Z</time>
      </trkpt>
      <trkpt lat="43.48520971834659576416015625" lon="-5.67958630621433258056640625">
        <ele>86.8000030517578125</ele>
        <time>2022-06-04T07:08:41.000Z</time>
      </trkpt>
      <trkpt lat="43.48517350852489471435546875" lon="-5.67957691848278045654296875">
        <ele>87</ele>
        <time>2022-06-04T07:08:43.000Z</time>
      </trkpt>
      <trkpt lat="43.48513788543641567230224609375" lon="-5.6795646809041500091552734375">
        <ele>87.40000152587890625</ele>
        <time>2022-06-04T07:08:45.000Z</time>
      </trkpt>
      <trkpt lat="43.48510284908115863800048828125" lon="-5.67955135367810726165771484375">
        <ele>88</ele>
        <time>2022-06-04T07:08:47.000Z</time>
      </trkpt>
      <trkpt lat="43.48508608527481555938720703125" lon="-5.67954917438328266143798828125">
        <ele>88.1999969482421875</ele>
        <time>2022-06-04T07:08:48.000Z</time>
      </trkpt>
      <trkpt lat="43.485069237649440765380859375" lon="-5.6795479170978069305419921875">
        <ele>88.40000152587890625</ele>
        <time>2022-06-04T07:08:49.000Z</time>
      </trkpt>
      <trkpt lat="43.48503327928483486175537109375" lon="-5.67954515106976032257080078125">
        <ele>88.8000030517578125</ele>
        <time>2022-06-04T07:08:51.000Z</time>
      </trkpt>
      <trkpt lat="43.48501525819301605224609375" lon="-5.67954028956592082977294921875">
        <ele>89.40000152587890625</ele>
        <time>2022-06-04T07:08:52.000Z</time>
      </trkpt>
      <trkpt lat="43.4849983267486095428466796875" lon="-5.679535679519176483154296875">
        <ele>89.59999847412109375</ele>
        <time>2022-06-04T07:08:53.000Z</time>
      </trkpt>
      <trkpt lat="43.48498114384710788726806640625" lon="-5.67953291349112987518310546875">
        <ele>89.8000030517578125</ele>
        <time>2022-06-04T07:08:54.000Z</time>
      </trkpt>
      <trkpt lat="43.48496387712657451629638671875" lon="-5.6795308180153369903564453125">
        <ele>90.1999969482421875</ele>
        <time>2022-06-04T07:08:55.000Z</time>
      </trkpt>
      <trkpt lat="43.48492917604744434356689453125" lon="-5.679522268474102020263671875">
        <ele>90.59999847412109375</ele>
        <time>2022-06-04T07:08:57.000Z</time>
      </trkpt>
      <trkpt lat="43.484895564615726470947265625" lon="-5.67950894124805927276611328125">
        <ele>91</ele>
        <time>2022-06-04T07:08:59.000Z</time>
      </trkpt>
      <trkpt lat="43.4848605282604694366455078125" lon="-5.6794862262904644012451171875">
        <ele>91.8000030517578125</ele>
        <time>2022-06-04T07:09:01.000Z</time>
      </trkpt>
      <trkpt lat="43.48484166897833347320556640625" lon="-5.67947424016892910003662109375">
        <ele>92</ele>
        <time>2022-06-04T07:09:02.000Z</time>
      </trkpt>
      <trkpt lat="43.48482306115329265594482421875" lon="-5.67946585826575756072998046875">
        <ele>92.40000152587890625</ele>
        <time>2022-06-04T07:09:03.000Z</time>
      </trkpt>
      <trkpt lat="43.48479129374027252197265625" lon="-5.67943668924272060394287109375">
        <ele>93</ele>
        <time>2022-06-04T07:09:05.000Z</time>
      </trkpt>
      <trkpt lat="43.4847649745643138885498046875" lon="-5.67940148524940013885498046875">
        <ele>93.40000152587890625</ele>
        <time>2022-06-04T07:09:07.000Z</time>
      </trkpt>
      <trkpt lat="43.48475265316665172576904296875" lon="-5.67938170395791530609130859375">
        <ele>93.8000030517578125</ele>
        <time>2022-06-04T07:09:08.000Z</time>
      </trkpt>
      <trkpt lat="43.48474033176898956298828125" lon="-5.67936259321868419647216796875">
        <ele>94</ele>
        <time>2022-06-04T07:09:09.000Z</time>
      </trkpt>
      <trkpt lat="43.48471292294561862945556640625" lon="-5.67932604812085628509521484375">
        <ele>94.59999847412109375</ele>
        <time>2022-06-04T07:09:11.000Z</time>
      </trkpt>
      <trkpt lat="43.48468207754194736480712890625" lon="-5.6792897544801235198974609375">
        <ele>95.1999969482421875</ele>
        <time>2022-06-04T07:09:13.000Z</time>
      </trkpt>
      <trkpt lat="43.48465475253760814666748046875" lon="-5.6792475096881389617919921875">
        <ele>95.59999847412109375</ele>
        <time>2022-06-04T07:09:15.000Z</time>
      </trkpt>
      <trkpt lat="43.48464050330221652984619140625" lon="-5.67922865040600299835205078125">
        <ele>95.8000030517578125</ele>
        <time>2022-06-04T07:09:16.000Z</time>
      </trkpt>
      <trkpt lat="43.48462491296231746673583984375" lon="-5.6792112998664379119873046875">
        <ele>96</ele>
        <time>2022-06-04T07:09:17.000Z</time>
      </trkpt>
      <trkpt lat="43.48460915498435497283935546875" lon="-5.6791918538510799407958984375">
        <ele>96.40000152587890625</ele>
        <time>2022-06-04T07:09:18.000Z</time>
      </trkpt>
      <trkpt lat="43.48459423519670963287353515625" lon="-5.6791707314550876617431640625">
        <ele>96.40000152587890625</ele>
        <time>2022-06-04T07:09:19.000Z</time>
      </trkpt>
      <trkpt lat="43.4845624677836894989013671875" lon="-5.6791258044540882110595703125">
        <ele>96.8000030517578125</ele>
        <time>2022-06-04T07:09:21.000Z</time>
      </trkpt>
      <trkpt lat="43.48452818579971790313720703125" lon="-5.67907727323472499847412109375">
        <ele>97</ele>
        <time>2022-06-04T07:09:23.000Z</time>
      </trkpt>
      <trkpt lat="43.48450907506048679351806640625" lon="-5.67905145697295665740966796875">
        <ele>97.1999969482421875</ele>
        <time>2022-06-04T07:09:24.000Z</time>
      </trkpt>
      <trkpt lat="43.48449088633060455322265625" lon="-5.67902463488280773162841796875">
        <ele>97.40000152587890625</ele>
        <time>2022-06-04T07:09:25.000Z</time>
      </trkpt>
      <trkpt lat="43.48445677198469638824462890625" lon="-5.67896445281803607940673828125">
        <ele>97.8000030517578125</ele>
        <time>2022-06-04T07:09:27.000Z</time>
      </trkpt>
      <trkpt lat="43.484419472515583038330078125" lon="-5.67890904843807220458984375">
        <ele>98</ele>
        <time>2022-06-04T07:09:29.000Z</time>
      </trkpt>
      <trkpt lat="43.48437932319939136505126953125" lon="-5.678851716220378875732421875">
        <ele>98.1999969482421875</ele>
        <time>2022-06-04T07:09:31.000Z</time>
      </trkpt>
      <trkpt lat="43.4843401797115802764892578125" lon="-5.67879279144108295440673828125">
        <ele>98.1999969482421875</ele>
        <time>2022-06-04T07:09:33.000Z</time>
      </trkpt>
      <trkpt lat="43.48429952748119831085205078125" lon="-5.6787375546991825103759765625">
        <ele>98.1999969482421875</ele>
        <time>2022-06-04T07:09:35.000Z</time>
      </trkpt>
      <trkpt lat="43.4842580370604991912841796875" lon="-5.67868617363274097442626953125">
        <ele>98.40000152587890625</ele>
        <time>2022-06-04T07:09:37.000Z</time>
      </trkpt>
      <trkpt lat="43.48423381336033344268798828125" lon="-5.67866387777030467987060546875">
        <ele>98.40000152587890625</ele>
        <time>2022-06-04T07:09:38.000Z</time>
      </trkpt>
      <trkpt lat="43.48420782946050167083740234375" lon="-5.6786440126597881317138671875">
        <ele>98.40000152587890625</ele>
        <time>2022-06-04T07:09:39.000Z</time>
      </trkpt>
      <trkpt lat="43.48415753804147243499755859375" lon="-5.6786074675619602203369140625">
        <ele>98.59999847412109375</ele>
        <time>2022-06-04T07:09:41.000Z</time>
      </trkpt>
      <trkpt lat="43.48411026410758495330810546875" lon="-5.6785739399492740631103515625">
        <ele>98.8000030517578125</ele>
        <time>2022-06-04T07:09:43.000Z</time>
      </trkpt>
      <trkpt lat="43.4840649180114269256591796875" lon="-5.6785435974597930908203125">
        <ele>98.8000030517578125</ele>
        <time>2022-06-04T07:09:45.000Z</time>
      </trkpt>
      <trkpt lat="43.48402275703847408294677734375" lon="-5.67851954139769077301025390625">
        <ele>98.8000030517578125</ele>
        <time>2022-06-04T07:09:47.000Z</time>
      </trkpt>
      <trkpt lat="43.48398126661777496337890625" lon="-5.6784901209175586700439453125">
        <ele>99.1999969482421875</ele>
        <time>2022-06-04T07:09:49.000Z</time>
      </trkpt>
      <trkpt lat="43.48394547589123249053955078125" lon="-5.6784619577229022979736328125">
        <ele>99.40000152587890625</ele>
        <time>2022-06-04T07:09:51.000Z</time>
      </trkpt>
      <trkpt lat="43.4839073382318019866943359375" lon="-5.6784374825656414031982421875">
        <ele>99.8000030517578125</ele>
        <time>2022-06-04T07:09:53.000Z</time>
      </trkpt>
      <trkpt lat="43.48388663493096828460693359375" lon="-5.67842499352991580963134765625">
        <ele>100</ele>
        <time>2022-06-04T07:09:54.000Z</time>
      </trkpt>
      <trkpt lat="43.483866937458515167236328125" lon="-5.67841283977031707763671875">
        <ele>100.40000152587890625</ele>
        <time>2022-06-04T07:09:55.000Z</time>
      </trkpt>
      <trkpt lat="43.48384690470993518829345703125" lon="-5.67840085364878177642822265625">
        <ele>100.59999847412109375</ele>
        <time>2022-06-04T07:09:56.000Z</time>
      </trkpt>
      <trkpt lat="43.48382678814232349395751953125" lon="-5.6783888675272464752197265625">
        <ele>100.8000030517578125</ele>
        <time>2022-06-04T07:09:57.000Z</time>
      </trkpt>
      <trkpt lat="43.48378789611160755157470703125" lon="-5.678371600806713104248046875">
        <ele>101.1999969482421875</ele>
        <time>2022-06-04T07:09:59.000Z</time>
      </trkpt>
      <trkpt lat="43.48374682478606700897216796875" lon="-5.67835475318133831024169921875">
        <ele>101.8000030517578125</ele>
        <time>2022-06-04T07:10:01.000Z</time>
      </trkpt>
      <trkpt lat="43.48372670821845531463623046875" lon="-5.6783459521830081939697265625">
        <ele>101.8000030517578125</ele>
        <time>2022-06-04T07:10:02.000Z</time>
      </trkpt>
      <trkpt lat="43.48370692692697048187255859375" lon="-5.67833715118467807769775390625">
        <ele>102</ele>
        <time>2022-06-04T07:10:03.000Z</time>
      </trkpt>
      <trkpt lat="43.483668453991413116455078125" lon="-5.67831225693225860595703125">
        <ele>102.59999847412109375</ele>
        <time>2022-06-04T07:10:05.000Z</time>
      </trkpt>
      <trkpt lat="43.4836501814424991607666015625" lon="-5.67829809151589870452880859375">
        <ele>102.8000030517578125</ele>
        <time>2022-06-04T07:10:06.000Z</time>
      </trkpt>
      <trkpt lat="43.483631908893585205078125" lon="-5.6782845966517925262451171875">
        <ele>103</ele>
        <time>2022-06-04T07:10:07.000Z</time>
      </trkpt>
      <trkpt lat="43.48359444178640842437744140625" lon="-5.678258948028087615966796875">
        <ele>103.40000152587890625</ele>
        <time>2022-06-04T07:10:09.000Z</time>
      </trkpt>
      <trkpt lat="43.48357583396136760711669921875" lon="-5.678241513669490814208984375">
        <ele>103.8000030517578125</ele>
        <time>2022-06-04T07:10:10.000Z</time>
      </trkpt>
      <trkpt lat="43.48355772905051708221435546875" lon="-5.67822198383510112762451171875">
        <ele>104</ele>
        <time>2022-06-04T07:10:11.000Z</time>
      </trkpt>
      <trkpt lat="43.48351581953465938568115234375" lon="-5.67818225361406803131103515625">
        <ele>104.8000030517578125</ele>
        <time>2022-06-04T07:10:13.000Z</time>
      </trkpt>
      <trkpt lat="43.48349285311996936798095703125" lon="-5.67815694026648998260498046875">
        <ele>105.1999969482421875</ele>
        <time>2022-06-04T07:10:14.000Z</time>
      </trkpt>
      <trkpt lat="43.48347139544785022735595703125" lon="-5.67812944762408733367919921875">
        <ele>105.59999847412109375</ele>
        <time>2022-06-04T07:10:15.000Z</time>
      </trkpt>
      <trkpt lat="43.483451865613460540771484375" lon="-5.67810011096298694610595703125">
        <ele>106.40000152587890625</ele>
        <time>2022-06-04T07:10:16.000Z</time>
      </trkpt>
      <trkpt lat="43.48343300633132457733154296875" lon="-5.6780693493783473968505859375">
        <ele>106.8000030517578125</ele>
        <time>2022-06-04T07:10:17.000Z</time>
      </trkpt>
      <trkpt lat="43.48339612595736980438232421875" lon="-5.678004808723926544189453125">
        <ele>107.40000152587890625</ele>
        <time>2022-06-04T07:10:19.000Z</time>
      </trkpt>
      <trkpt lat="43.48336360417306423187255859375" lon="-5.67794119007885456085205078125">
        <ele>107.40000152587890625</ele>
        <time>2022-06-04T07:10:21.000Z</time>
      </trkpt>
      <trkpt lat="43.483329154551029205322265625" lon="-5.67787631414830684661865234375">
        <ele>107.59999847412109375</ele>
        <time>2022-06-04T07:10:23.000Z</time>
      </trkpt>
      <trkpt lat="43.48329638130962848663330078125" lon="-5.6778115220367908477783203125">
        <ele>107.8000030517578125</ele>
        <time>2022-06-04T07:10:25.000Z</time>
      </trkpt>
      <trkpt lat="43.48326335661113262176513671875" lon="-5.67774924449622631072998046875">
        <ele>108</ele>
        <time>2022-06-04T07:10:27.000Z</time>
      </trkpt>
      <trkpt lat="43.48322932608425617218017578125" lon="-5.6776864640414714813232421875">
        <ele>108.40000152587890625</ele>
        <time>2022-06-04T07:10:29.000Z</time>
      </trkpt>
      <trkpt lat="43.4831935353577136993408203125" lon="-5.67761915735900402069091796875">
        <ele>108.59999847412109375</ele>
        <time>2022-06-04T07:10:31.000Z</time>
      </trkpt>
      <trkpt lat="43.48315925337374210357666015625" lon="-5.67755126394331455230712890625">
        <ele>108.8000030517578125</ele>
        <time>2022-06-04T07:10:33.000Z</time>
      </trkpt>
      <trkpt lat="43.483125977218151092529296875" lon="-5.6774806044995784759521484375">
        <ele>109.1999969482421875</ele>
        <time>2022-06-04T07:10:35.000Z</time>
      </trkpt>
      <trkpt lat="43.48309236578643321990966796875" lon="-5.67741011269390583038330078125">
        <ele>109.59999847412109375</ele>
        <time>2022-06-04T07:10:37.000Z</time>
      </trkpt>
      <trkpt lat="43.48305900581181049346923828125" lon="-5.67734205164015293121337890625">
        <ele>109.8000030517578125</ele>
        <time>2022-06-04T07:10:39.000Z</time>
      </trkpt>
      <trkpt lat="43.483028076589107513427734375" lon="-5.6772700510919094085693359375">
        <ele>110</ele>
        <time>2022-06-04T07:10:41.000Z</time>
      </trkpt>
      <trkpt lat="43.482999242842197418212890625" lon="-5.67719914019107818603515625">
        <ele>110.1999969482421875</ele>
        <time>2022-06-04T07:10:43.000Z</time>
      </trkpt>
      <trkpt lat="43.4829729236662387847900390625" lon="-5.6771285645663738250732421875">
        <ele>110.59999847412109375</ele>
        <time>2022-06-04T07:10:45.000Z</time>
      </trkpt>
      <trkpt lat="43.48294903524219989776611328125" lon="-5.67705673165619373321533203125">
        <ele>110.8000030517578125</ele>
        <time>2022-06-04T07:10:47.000Z</time>
      </trkpt>
      <trkpt lat="43.48292321898043155670166015625" lon="-5.6769837252795696258544921875">
        <ele>111.1999969482421875</ele>
        <time>2022-06-04T07:10:49.000Z</time>
      </trkpt>
      <trkpt lat="43.48289606161415576934814453125" lon="-5.67691256292164325714111328125">
        <ele>111.59999847412109375</ele>
        <time>2022-06-04T07:10:51.000Z</time>
      </trkpt>
      <trkpt lat="43.4828834049403667449951171875" lon="-5.67687727510929107666015625">
        <ele>111.8000030517578125</ele>
        <time>2022-06-04T07:10:52.000Z</time>
      </trkpt>
      <trkpt lat="43.48287225700914859771728515625" lon="-5.67684240639209747314453125">
        <ele>112</ele>
        <time>2022-06-04T07:10:53.000Z</time>
      </trkpt>
      <trkpt lat="43.48284878768026828765869140625" lon="-5.6767755188047885894775390625">
        <ele>112.40000152587890625</ele>
        <time>2022-06-04T07:10:55.000Z</time>
      </trkpt>
      <trkpt lat="43.4828163497149944305419921875" lon="-5.67670938558876514434814453125">
        <ele>112.8000030517578125</ele>
        <time>2022-06-04T07:10:57.000Z</time>
      </trkpt>
      <trkpt lat="43.4827844984829425811767578125" lon="-5.67664199508726596832275390625">
        <ele>113.1999969482421875</ele>
        <time>2022-06-04T07:10:59.000Z</time>
      </trkpt>
      <trkpt lat="43.48276899196207523345947265625" lon="-5.67660863511264324188232421875">
        <ele>113.40000152587890625</ele>
        <time>2022-06-04T07:11:00.000Z</time>
      </trkpt>
      <trkpt lat="43.48275407217442989349365234375" lon="-5.67657343111932277679443359375">
        <ele>113.59999847412109375</ele>
        <time>2022-06-04T07:11:01.000Z</time>
      </trkpt>
      <trkpt lat="43.48271836526691913604736328125" lon="-5.67650042474269866943359375">
        <ele>114</ele>
        <time>2022-06-04T07:11:03.000Z</time>
      </trkpt>
      <trkpt lat="43.4826792217791080474853515625" lon="-5.67642792128026485443115234375">
        <ele>114.59999847412109375</ele>
        <time>2022-06-04T07:11:05.000Z</time>
      </trkpt>
      <trkpt lat="43.48264074884355068206787109375" lon="-5.67635885439813137054443359375">
        <ele>114.8000030517578125</ele>
        <time>2022-06-04T07:11:07.000Z</time>
      </trkpt>
      <trkpt lat="43.4826011024415493011474609375" lon="-5.67629246972501277923583984375">
        <ele>115</ele>
        <time>2022-06-04T07:11:09.000Z</time>
      </trkpt>
      <trkpt lat="43.48256170749664306640625" lon="-5.67622013390064239501953125">
        <ele>115.1999969482421875</ele>
        <time>2022-06-04T07:11:11.000Z</time>
      </trkpt>
      <trkpt lat="43.482520468533039093017578125" lon="-5.6761438585817813873291015625">
        <ele>115.40000152587890625</ele>
        <time>2022-06-04T07:11:13.000Z</time>
      </trkpt>
      <trkpt lat="43.4824817441403865814208984375" lon="-5.67605911754071712493896484375">
        <ele>115.40000152587890625</ele>
        <time>2022-06-04T07:11:15.000Z</time>
      </trkpt>
      <trkpt lat="43.48243690095841884613037109375" lon="-5.67597596906125545501708984375">
        <ele>115.59999847412109375</ele>
        <time>2022-06-04T07:11:17.000Z</time>
      </trkpt>
      <trkpt lat="43.48239515908062458038330078125" lon="-5.6758964248001575469970703125">
        <ele>115.59999847412109375</ele>
        <time>2022-06-04T07:11:19.000Z</time>
      </trkpt>
      <trkpt lat="43.48235853016376495361328125" lon="-5.6758136115968227386474609375">
        <ele>115.59999847412109375</ele>
        <time>2022-06-04T07:11:21.000Z</time>
      </trkpt>
      <trkpt lat="43.48231921903789043426513671875" lon="-5.67573322914540767669677734375">
        <ele>115.59999847412109375</ele>
        <time>2022-06-04T07:11:23.000Z</time>
      </trkpt>
      <trkpt lat="43.48228250630199909210205078125" lon="-5.67565712146461009979248046875">
        <ele>115.59999847412109375</ele>
        <time>2022-06-04T07:11:25.000Z</time>
      </trkpt>
      <trkpt lat="43.4822460450232028961181640625" lon="-5.67558017559349536895751953125">
        <ele>115.8000030517578125</ele>
        <time>2022-06-04T07:11:27.000Z</time>
      </trkpt>
      <trkpt lat="43.48220966756343841552734375" lon="-5.67550557665526866912841796875">
        <ele>115.8000030517578125</ele>
        <time>2022-06-04T07:11:29.000Z</time>
      </trkpt>
      <trkpt lat="43.4821929037570953369140625" lon="-5.67546919919550418853759765625">
        <ele>116</ele>
        <time>2022-06-04T07:11:30.000Z</time>
      </trkpt>
      <trkpt lat="43.48217538557946681976318359375" lon="-5.67543516866862773895263671875">
        <ele>116</ele>
        <time>2022-06-04T07:11:31.000Z</time>
      </trkpt>
      <trkpt lat="43.48214127123355865478515625" lon="-5.675367526710033416748046875">
        <ele>116.40000152587890625</ele>
        <time>2022-06-04T07:11:33.000Z</time>
      </trkpt>
      <trkpt lat="43.48210774362087249755859375" lon="-5.675296783447265625">
        <ele>116.59999847412109375</ele>
        <time>2022-06-04T07:11:35.000Z</time>
      </trkpt>
      <trkpt lat="43.4820722043514251708984375" lon="-5.6752322427928447723388671875">
        <ele>117</ele>
        <time>2022-06-04T07:11:37.000Z</time>
      </trkpt>
      <trkpt lat="43.48203993402421474456787109375" lon="-5.6751715578138828277587890625">
        <ele>117.59999847412109375</ele>
        <time>2022-06-04T07:11:39.000Z</time>
      </trkpt>
      <trkpt lat="43.482011519372463226318359375" lon="-5.6751135550439357757568359375">
        <ele>117.8000030517578125</ele>
        <time>2022-06-04T07:11:41.000Z</time>
      </trkpt>
      <trkpt lat="43.48199567757546901702880859375" lon="-5.67508547566831111907958984375">
        <ele>118</ele>
        <time>2022-06-04T07:11:42.000Z</time>
      </trkpt>
      <trkpt lat="43.48198092542588710784912109375" lon="-5.675056390464305877685546875">
        <ele>118.1999969482421875</ele>
        <time>2022-06-04T07:11:43.000Z</time>
      </trkpt>
      <trkpt lat="43.48195485770702362060546875" lon="-5.6749995611608028411865234375">
        <ele>118.59999847412109375</ele>
        <time>2022-06-04T07:11:45.000Z</time>
      </trkpt>
      <trkpt lat="43.4819265268743038177490234375" lon="-5.67494340240955352783203125">
        <ele>119.1999969482421875</ele>
        <time>2022-06-04T07:11:47.000Z</time>
      </trkpt>
      <trkpt lat="43.4818978607654571533203125" lon="-5.6748838908970355987548828125">
        <ele>119.59999847412109375</ele>
        <time>2022-06-04T07:11:49.000Z</time>
      </trkpt>
      <trkpt lat="43.48187279887497425079345703125" lon="-5.67482798360288143157958984375">
        <ele>120.1999969482421875</ele>
        <time>2022-06-04T07:11:51.000Z</time>
      </trkpt>
      <trkpt lat="43.48184564150869846343994140625" lon="-5.67477450706064701080322265625">
        <ele>120.8000030517578125</ele>
        <time>2022-06-04T07:11:53.000Z</time>
      </trkpt>
      <trkpt lat="43.4818199090659618377685546875" lon="-5.6747236289083957672119140625">
        <ele>121.40000152587890625</ele>
        <time>2022-06-04T07:11:55.000Z</time>
      </trkpt>
      <trkpt lat="43.4817883931100368499755859375" lon="-5.67467509768903255462646484375">
        <ele>121.8000030517578125</ele>
        <time>2022-06-04T07:11:57.000Z</time>
      </trkpt>
      <trkpt lat="43.4817619062960147857666015625" lon="-5.6746297515928745269775390625">
        <ele>122.59999847412109375</ele>
        <time>2022-06-04T07:11:59.000Z</time>
      </trkpt>
      <trkpt lat="43.4817441366612911224365234375" lon="-5.6746082939207553863525390625">
        <ele>122.8000030517578125</ele>
        <time>2022-06-04T07:12:00.000Z</time>
      </trkpt>
      <trkpt lat="43.48172578029334545135498046875" lon="-5.67458524368703365325927734375">
        <ele>123</ele>
        <time>2022-06-04T07:12:01.000Z</time>
      </trkpt>
      <trkpt lat="43.481694348156452178955078125" lon="-5.67454769276082515716552734375">
        <ele>123.59999847412109375</ele>
        <time>2022-06-04T07:12:03.000Z</time>
      </trkpt>
      <trkpt lat="43.48166073672473430633544921875" lon="-5.67451466806232929229736328125">
        <ele>124</ele>
        <time>2022-06-04T07:12:05.000Z</time>
      </trkpt>
      <trkpt lat="43.48162620328366756439208984375" lon="-5.674477703869342803955078125">
        <ele>124.8000030517578125</ele>
        <time>2022-06-04T07:12:07.000Z</time>
      </trkpt>
      <trkpt lat="43.481596447527408599853515625" lon="-5.67443772219121456146240234375">
        <ele>125.1999969482421875</ele>
        <time>2022-06-04T07:12:09.000Z</time>
      </trkpt>
      <trkpt lat="43.4815557114779949188232421875" lon="-5.67439757287502288818359375">
        <ele>125.8000030517578125</ele>
        <time>2022-06-04T07:12:11.000Z</time>
      </trkpt>
      <trkpt lat="43.48153400234878063201904296875" lon="-5.6743769533932209014892578125">
        <ele>126</ele>
        <time>2022-06-04T07:12:12.000Z</time>
      </trkpt>
      <trkpt lat="43.481513299047946929931640625" lon="-5.6743558309972286224365234375">
        <ele>126.1999969482421875</ele>
        <time>2022-06-04T07:12:13.000Z</time>
      </trkpt>
      <trkpt lat="43.48147206008434295654296875" lon="-5.6743065454065799713134765625">
        <ele>126.59999847412109375</ele>
        <time>2022-06-04T07:12:15.000Z</time>
      </trkpt>
      <trkpt lat="43.48145219497382640838623046875" lon="-5.674283243715763092041015625">
        <ele>126.8000030517578125</ele>
        <time>2022-06-04T07:12:16.000Z</time>
      </trkpt>
      <trkpt lat="43.48142872564494609832763671875" lon="-5.67425382323563098907470703125">
        <ele>127</ele>
        <time>2022-06-04T07:12:17.000Z</time>
      </trkpt>
      <trkpt lat="43.4814088605344295501708984375" lon="-5.6742284260690212249755859375">
        <ele>127.1999969482421875</ele>
        <time>2022-06-04T07:12:18.000Z</time>
      </trkpt>
      <trkpt lat="43.48138882778584957122802734375" lon="-5.6742037832736968994140625">
        <ele>127.40000152587890625</ele>
        <time>2022-06-04T07:12:19.000Z</time>
      </trkpt>
      <trkpt lat="43.48134465515613555908203125" lon="-5.67414946854114532470703125">
        <ele>127.8000030517578125</ele>
        <time>2022-06-04T07:12:21.000Z</time>
      </trkpt>
      <trkpt lat="43.48132453858852386474609375" lon="-5.67412172444164752960205078125">
        <ele>127.8000030517578125</ele>
        <time>2022-06-04T07:12:22.000Z</time>
      </trkpt>
      <trkpt lat="43.48130417056381702423095703125" lon="-5.6740946508944034576416015625">
        <ele>128</ele>
        <time>2022-06-04T07:12:23.000Z</time>
      </trkpt>
      <trkpt lat="43.481261841952800750732421875" lon="-5.67403606139123439788818359375">
        <ele>128.399993896484375</ele>
        <time>2022-06-04T07:12:25.000Z</time>
      </trkpt>
      <trkpt lat="43.4812190942466259002685546875" lon="-5.67397990263998508453369140625">
        <ele>128.8000030517578125</ele>
        <time>2022-06-04T07:12:27.000Z</time>
      </trkpt>
      <trkpt lat="43.48118648864328861236572265625" lon="-5.67391636781394481658935546875">
        <ele>129</ele>
        <time>2022-06-04T07:12:29.000Z</time>
      </trkpt>
      <trkpt lat="43.48115480504930019378662109375" lon="-5.67384964786469936370849609375">
        <ele>129.1999969482421875</ele>
        <time>2022-06-04T07:12:31.000Z</time>
      </trkpt>
      <trkpt lat="43.48112312145531177520751953125" lon="-5.67378678359091281890869140625">
        <ele>129.399993896484375</ele>
        <time>2022-06-04T07:12:33.000Z</time>
      </trkpt>
      <trkpt lat="43.4810923598706722259521484375" lon="-5.6737318821251392364501953125">
        <ele>129.8000030517578125</ele>
        <time>2022-06-04T07:12:35.000Z</time>
      </trkpt>
      <trkpt lat="43.48106159828603267669677734375" lon="-5.6736846081912517547607421875">
        <ele>130.1999969482421875</ele>
        <time>2022-06-04T07:12:37.000Z</time>
      </trkpt>
      <trkpt lat="43.48102438263595104217529296875" lon="-5.6736504100263118743896484375">
        <ele>131</ele>
        <time>2022-06-04T07:12:39.000Z</time>
      </trkpt>
      <trkpt lat="43.4809854067862033843994140625" lon="-5.67360942251980304718017578125">
        <ele>131.399993896484375</ele>
        <time>2022-06-04T07:12:41.000Z</time>
      </trkpt>
      <trkpt lat="43.480940647423267364501953125" lon="-5.67357488907873630523681640625">
        <ele>132</ele>
        <time>2022-06-04T07:12:43.000Z</time>
      </trkpt>
      <trkpt lat="43.4808888472616672515869140625" lon="-5.67355577833950519561767578125">
        <ele>132.399993896484375</ele>
        <time>2022-06-04T07:12:45.000Z</time>
      </trkpt>
      <trkpt lat="43.480859510600566864013671875" lon="-5.673550330102443695068359375">
        <ele>132.8000030517578125</ele>
        <time>2022-06-04T07:12:46.000Z</time>
      </trkpt>
      <trkpt lat="43.48082908429205417633056640625" lon="-5.67354463040828704833984375">
        <ele>133</ele>
        <time>2022-06-04T07:12:47.000Z</time>
      </trkpt>
      <trkpt lat="43.4807989932596683502197265625" lon="-5.6735377572476863861083984375">
        <ele>133.1999969482421875</ele>
        <time>2022-06-04T07:12:48.000Z</time>
      </trkpt>
      <trkpt lat="43.48076873458921909332275390625" lon="-5.6735290400683879852294921875">
        <ele>133.399993896484375</ele>
        <time>2022-06-04T07:12:49.000Z</time>
      </trkpt>
      <trkpt lat="43.48070922307670116424560546875" lon="-5.6734965182840824127197265625">
        <ele>134</ele>
        <time>2022-06-04T07:12:51.000Z</time>
      </trkpt>
      <trkpt lat="43.48068223334848880767822265625" lon="-5.673466511070728302001953125">
        <ele>134.1999969482421875</ele>
        <time>2022-06-04T07:12:52.000Z</time>
      </trkpt>
      <trkpt lat="43.480659686028957366943359375" lon="-5.67343105562031269073486328125">
        <ele>134.399993896484375</ele>
        <time>2022-06-04T07:12:53.000Z</time>
      </trkpt>
      <trkpt lat="43.4806048683822154998779296875" lon="-5.6733562052249908447265625">
        <ele>134.399993896484375</ele>
        <time>2022-06-04T07:12:55.000Z</time>
      </trkpt>
      <trkpt lat="43.48052482120692729949951171875" lon="-5.67327146418392658233642578125">
        <ele>134.600006103515625</ele>
        <time>2022-06-04T07:12:57.000Z</time>
      </trkpt>
      <trkpt lat="43.48047536797821521759033203125" lon="-5.67322284914553165435791015625">
        <ele>134.600006103515625</ele>
        <time>2022-06-04T07:12:58.000Z</time>
      </trkpt>
      <trkpt lat="43.4804238192737102508544921875" lon="-5.6731702946126461029052734375">
        <ele>134.600006103515625</ele>
        <time>2022-06-04T07:12:59.000Z</time>
      </trkpt>
      <trkpt lat="43.480319716036319732666015625" lon="-5.67305110394954681396484375">
        <ele>134.600006103515625</ele>
        <time>2022-06-04T07:13:01.000Z</time>
      </trkpt>
      <trkpt lat="43.4802206419408321380615234375" lon="-5.672920010983943939208984375">
        <ele>133.8000030517578125</ele>
        <time>2022-06-04T07:13:03.000Z</time>
      </trkpt>
      <trkpt lat="43.48017429001629352569580078125" lon="-5.6728527881205081939697265625">
        <ele>133.399993896484375</ele>
        <time>2022-06-04T07:13:04.000Z</time>
      </trkpt>
      <trkpt lat="43.480129949748516082763671875" lon="-5.67278497852385044097900390625">
        <ele>133.1999969482421875</ele>
        <time>2022-06-04T07:13:05.000Z</time>
      </trkpt>
      <trkpt lat="43.48008242435753345489501953125" lon="-5.67270618863403797149658203125">
        <ele>132.600006103515625</ele>
        <time>2022-06-04T07:13:06.000Z</time>
      </trkpt>
      <trkpt lat="43.48003179766237735748291015625" lon="-5.67263066768646240234375">
        <ele>132.1999969482421875</ele>
        <time>2022-06-04T07:13:07.000Z</time>
      </trkpt>
      <trkpt lat="43.47992987371981143951416015625" lon="-5.67248289473354816436767578125">
        <ele>131.600006103515625</ele>
        <time>2022-06-04T07:13:09.000Z</time>
      </trkpt>
      <trkpt lat="43.4798183105885982513427734375" lon="-5.6723476946353912353515625">
        <ele>130.8000030517578125</ele>
        <time>2022-06-04T07:13:11.000Z</time>
      </trkpt>
      <trkpt lat="43.4796925820410251617431640625" lon="-5.67222875542938709259033203125">
        <ele>130.399993896484375</ele>
        <time>2022-06-04T07:13:13.000Z</time>
      </trkpt>
      <trkpt lat="43.479567356407642364501953125" lon="-5.67213018424808979034423828125">
        <ele>130</ele>
        <time>2022-06-04T07:13:15.000Z</time>
      </trkpt>
      <trkpt lat="43.47944288514554500579833984375" lon="-5.67205525003373622894287109375">
        <ele>129.1999969482421875</ele>
        <time>2022-06-04T07:13:17.000Z</time>
      </trkpt>
      <trkpt lat="43.4793851338326930999755859375" lon="-5.67202976904809474945068359375">
        <ele>129</ele>
        <time>2022-06-04T07:13:18.000Z</time>
      </trkpt>
      <trkpt lat="43.47933299839496612548828125" lon="-5.67201032303273677825927734375">
        <ele>128.600006103515625</ele>
        <time>2022-06-04T07:13:19.000Z</time>
      </trkpt>
      <trkpt lat="43.47923316992819309234619140625" lon="-5.67198299802839756011962890625">
        <ele>128.399993896484375</ele>
        <time>2022-06-04T07:13:21.000Z</time>
      </trkpt>
      <trkpt lat="43.479182459414005279541015625" lon="-5.67195751704275608062744140625">
        <ele>128</ele>
        <time>2022-06-04T07:13:22.000Z</time>
      </trkpt>
      <trkpt lat="43.47913376055657863616943359375" lon="-5.67191577516496181488037109375">
        <ele>127.8000030517578125</ele>
        <time>2022-06-04T07:13:23.000Z</time>
      </trkpt>
      <trkpt lat="43.47907072864472866058349609375" lon="-5.6717892922461032867431640625">
        <ele>127</ele>
        <time>2022-06-04T07:13:25.000Z</time>
      </trkpt>
      <trkpt lat="43.47907039336860179901123046875" lon="-5.67170865833759307861328125">
        <ele>126.1999969482421875</ele>
        <time>2022-06-04T07:13:26.000Z</time>
      </trkpt>
      <trkpt lat="43.4790880791842937469482421875" lon="-5.6716236658394336700439453125">
        <ele>125.40000152587890625</ele>
        <time>2022-06-04T07:13:27.000Z</time>
      </trkpt>
      <trkpt lat="43.4791484288871288299560546875" lon="-5.67145912908017635345458984375">
        <ele>124.1999969482421875</ele>
        <time>2022-06-04T07:13:29.000Z</time>
      </trkpt>
      <trkpt lat="43.4791772626340389251708984375" lon="-5.67139215767383575439453125">
        <ele>123</ele>
        <time>2022-06-04T07:13:30.000Z</time>
      </trkpt>
      <trkpt lat="43.47920517437160015106201171875" lon="-5.671333484351634979248046875">
        <ele>122.40000152587890625</ele>
        <time>2022-06-04T07:13:31.000Z</time>
      </trkpt>
      <trkpt lat="43.47922361455857753753662109375" lon="-5.6712806783616542816162109375">
        <ele>121.8000030517578125</ele>
        <time>2022-06-04T07:13:32.000Z</time>
      </trkpt>
      <trkpt lat="43.47922579385340213775634765625" lon="-5.67123197950422763824462890625">
        <ele>121.1999969482421875</ele>
        <time>2022-06-04T07:13:33.000Z</time>
      </trkpt>
      <trkpt lat="43.4792064316570758819580078125" lon="-5.67118294537067413330078125">
        <ele>120.8000030517578125</ele>
        <time>2022-06-04T07:13:34.000Z</time>
      </trkpt>
      <trkpt lat="43.4791692160069942474365234375" lon="-5.6711475737392902374267578125">
        <ele>120.40000152587890625</ele>
        <time>2022-06-04T07:13:35.000Z</time>
      </trkpt>
      <trkpt lat="43.47911833785474300384521484375" lon="-5.6711351685225963592529296875">
        <ele>119.59999847412109375</ele>
        <time>2022-06-04T07:13:36.000Z</time>
      </trkpt>
      <trkpt lat="43.47906167618930339813232421875" lon="-5.6711422093212604522705078125">
        <ele>119</ele>
        <time>2022-06-04T07:13:37.000Z</time>
      </trkpt>
      <trkpt lat="43.47900333814322948455810546875" lon="-5.6711594760417938232421875">
        <ele>118.40000152587890625</ele>
        <time>2022-06-04T07:13:38.000Z</time>
      </trkpt>
      <trkpt lat="43.47894801758229732513427734375" lon="-5.67118118517100811004638671875">
        <ele>118</ele>
        <time>2022-06-04T07:13:39.000Z</time>
      </trkpt>
      <trkpt lat="43.47889353521168231964111328125" lon="-5.6712032295763492584228515625">
        <ele>117.40000152587890625</ele>
        <time>2022-06-04T07:13:40.000Z</time>
      </trkpt>
      <trkpt lat="43.478839807212352752685546875" lon="-5.671224184334278106689453125">
        <ele>117</ele>
        <time>2022-06-04T07:13:41.000Z</time>
      </trkpt>
      <trkpt lat="43.478727824985980987548828125" lon="-5.6712538562715053558349609375">
        <ele>116.1999969482421875</ele>
        <time>2022-06-04T07:13:43.000Z</time>
      </trkpt>
      <trkpt lat="43.47867049276828765869140625" lon="-5.67126282490789890289306640625">
        <ele>115.8000030517578125</ele>
        <time>2022-06-04T07:13:44.000Z</time>
      </trkpt>
      <trkpt lat="43.47861123271286487579345703125" lon="-5.6712719611823558807373046875">
        <ele>115.59999847412109375</ele>
        <time>2022-06-04T07:13:45.000Z</time>
      </trkpt>
      <trkpt lat="43.47849539481103420257568359375" lon="-5.67128193564713001251220703125">
        <ele>115</ele>
        <time>2022-06-04T07:13:47.000Z</time>
      </trkpt>
      <trkpt lat="43.4784389846026897430419921875" lon="-5.67127950489521026611328125">
        <ele>114.8000030517578125</ele>
        <time>2022-06-04T07:13:48.000Z</time>
      </trkpt>
      <trkpt lat="43.47838617861270904541015625" lon="-5.67126517184078693389892578125">
        <ele>114.8000030517578125</ele>
        <time>2022-06-04T07:13:49.000Z</time>
      </trkpt>
      <trkpt lat="43.47829355858266353607177734375" lon="-5.6712223403155803680419921875">
        <ele>114.59999847412109375</ele>
        <time>2022-06-04T07:13:51.000Z</time>
      </trkpt>
      <trkpt lat="43.478206805884838104248046875" lon="-5.6711728870868682861328125">
        <ele>114.40000152587890625</ele>
        <time>2022-06-04T07:13:53.000Z</time>
      </trkpt>
      <trkpt lat="43.4781127609312534332275390625" lon="-5.67110775969922542572021484375">
        <ele>114.40000152587890625</ele>
        <time>2022-06-04T07:13:55.000Z</time>
      </trkpt>
      <trkpt lat="43.4780560992658138275146484375" lon="-5.67107574082911014556884765625">
        <ele>114.40000152587890625</ele>
        <time>2022-06-04T07:13:56.000Z</time>
      </trkpt>
      <trkpt lat="43.4779957495629787445068359375" lon="-5.6710490025579929351806640625">
        <ele>114.1999969482421875</ele>
        <time>2022-06-04T07:13:57.000Z</time>
      </trkpt>
      <trkpt lat="43.47793028689920902252197265625" lon="-5.671027712523937225341796875">
        <ele>114.1999969482421875</ele>
        <time>2022-06-04T07:13:58.000Z</time>
      </trkpt>
      <trkpt lat="43.4778653271496295928955078125" lon="-5.6710208393633365631103515625">
        <ele>114.1999969482421875</ele>
        <time>2022-06-04T07:13:59.000Z</time>
      </trkpt>
      <trkpt lat="43.477801792323589324951171875" lon="-5.671027041971683502197265625">
        <ele>114.1999969482421875</ele>
        <time>2022-06-04T07:14:00.000Z</time>
      </trkpt>
      <trkpt lat="43.47774135880172252655029296875" lon="-5.67104020155966281890869140625">
        <ele>114.1999969482421875</ele>
        <time>2022-06-04T07:14:01.000Z</time>
      </trkpt>
      <trkpt lat="43.47763172350823879241943359375" lon="-5.6710707955062389373779296875">
        <ele>114</ele>
        <time>2022-06-04T07:14:03.000Z</time>
      </trkpt>
      <trkpt lat="43.47752611152827739715576171875" lon="-5.67109669558703899383544921875">
        <ele>113.8000030517578125</ele>
        <time>2022-06-04T07:14:05.000Z</time>
      </trkpt>
      <trkpt lat="43.4774690307676792144775390625" lon="-5.6711066700518131256103515625">
        <ele>113.8000030517578125</ele>
        <time>2022-06-04T07:14:06.000Z</time>
      </trkpt>
      <trkpt lat="43.47741027362644672393798828125" lon="-5.67111857235431671142578125">
        <ele>113.8000030517578125</ele>
        <time>2022-06-04T07:14:07.000Z</time>
      </trkpt>
      <trkpt lat="43.47728404216468334197998046875" lon="-5.6711593084037303924560546875">
        <ele>113.59999847412109375</ele>
        <time>2022-06-04T07:14:09.000Z</time>
      </trkpt>
      <trkpt lat="43.47716636024415493011474609375" lon="-5.67124086432158946990966796875">
        <ele>113.40000152587890625</ele>
        <time>2022-06-04T07:14:11.000Z</time>
      </trkpt>
      <trkpt lat="43.47708128392696380615234375" lon="-5.6713561154901981353759765625">
        <ele>113.40000152587890625</ele>
        <time>2022-06-04T07:14:13.000Z</time>
      </trkpt>
      <trkpt lat="43.477042056620121002197265625" lon="-5.67142258398234844207763671875">
        <ele>113.40000152587890625</ele>
        <time>2022-06-04T07:14:14.000Z</time>
      </trkpt>
      <trkpt lat="43.47700484097003936767578125" lon="-5.67149165086448192596435546875">
        <ele>113.40000152587890625</ele>
        <time>2022-06-04T07:14:15.000Z</time>
      </trkpt>
      <trkpt lat="43.47696729004383087158203125" lon="-5.6715586222708225250244140625">
        <ele>113.1999969482421875</ele>
        <time>2022-06-04T07:14:16.000Z</time>
      </trkpt>
      <trkpt lat="43.4769309125840663909912109375" lon="-5.67162056453526020050048828125">
        <ele>112.8000030517578125</ele>
        <time>2022-06-04T07:14:17.000Z</time>
      </trkpt>
      <trkpt lat="43.47689579240977764129638671875" lon="-5.67167580127716064453125">
        <ele>112.59999847412109375</ele>
        <time>2022-06-04T07:14:18.000Z</time>
      </trkpt>
      <trkpt lat="43.47685840912163257598876953125" lon="-5.671724416315555572509765625">
        <ele>112.59999847412109375</ele>
        <time>2022-06-04T07:14:19.000Z</time>
      </trkpt>
      <trkpt lat="43.47677408717572689056396484375" lon="-5.67181192338466644287109375">
        <ele>112.40000152587890625</ele>
        <time>2022-06-04T07:14:21.000Z</time>
      </trkpt>
      <trkpt lat="43.47668624483048915863037109375" lon="-5.6718890368938446044921875">
        <ele>112.40000152587890625</ele>
        <time>2022-06-04T07:14:23.000Z</time>
      </trkpt>
      <trkpt lat="43.4765956364572048187255859375" lon="-5.67195399664342403411865234375">
        <ele>112.40000152587890625</ele>
        <time>2022-06-04T07:14:24.000Z</time>
      </trkpt>
      <trkpt lat="43.4765956364572048187255859375" lon="-5.67195399664342403411865234375">
        <ele>112.40000152587890625</ele>
        <time>2022-06-04T07:14:25.000Z</time>
      </trkpt>
      <trkpt lat="43.47650670446455478668212890625" lon="-5.67200914956629276275634765625">
        <ele>112.59999847412109375</ele>
        <time>2022-06-04T07:14:27.000Z</time>
      </trkpt>
      <trkpt lat="43.47641634754836559295654296875" lon="-5.67206027917563915252685546875">
        <ele>113</ele>
        <time>2022-06-04T07:14:29.000Z</time>
      </trkpt>
      <trkpt lat="43.47632800228893756866455078125" lon="-5.67210436798632144927978515625">
        <ele>113.40000152587890625</ele>
        <time>2022-06-04T07:14:31.000Z</time>
      </trkpt>
      <trkpt lat="43.476285003125667572021484375" lon="-5.6721272505819797515869140625">
        <ele>113.59999847412109375</ele>
        <time>2022-06-04T07:14:32.000Z</time>
      </trkpt>
      <trkpt lat="43.4762437641620635986328125" lon="-5.672150216996669769287109375">
        <ele>113.8000030517578125</ele>
        <time>2022-06-04T07:14:33.000Z</time>
      </trkpt>
      <trkpt lat="43.47616958431899547576904296875" lon="-5.67219489254057407379150390625">
        <ele>114.1999969482421875</ele>
        <time>2022-06-04T07:14:35.000Z</time>
      </trkpt>
      <trkpt lat="43.47610621713101863861083984375" lon="-5.67222892306745052337646484375">
        <ele>114.40000152587890625</ele>
        <time>2022-06-04T07:14:37.000Z</time>
      </trkpt>
      <trkpt lat="43.476077131927013397216796875" lon="-5.67224015481770038604736328125">
        <ele>114.40000152587890625</ele>
        <time>2022-06-04T07:14:38.000Z</time>
      </trkpt>
      <trkpt lat="43.476048968732357025146484375" lon="-5.6722496263682842254638671875">
        <ele>114.40000152587890625</ele>
        <time>2022-06-04T07:14:39.000Z</time>
      </trkpt>
      <trkpt lat="43.47599959932267665863037109375" lon="-5.672264210879802703857421875">
        <ele>114.8000030517578125</ele>
        <time>2022-06-04T07:14:41.000Z</time>
      </trkpt>
      <trkpt lat="43.47595266066491603851318359375" lon="-5.672279298305511474609375">
        <ele>115.1999969482421875</ele>
        <time>2022-06-04T07:14:43.000Z</time>
      </trkpt>
      <trkpt lat="43.4759274311363697052001953125" lon="-5.67227904684841632843017578125">
        <ele>115.40000152587890625</ele>
        <time>2022-06-04T07:14:44.000Z</time>
      </trkpt>
      <trkpt lat="43.47590454854071140289306640625" lon="-5.67227653227746486663818359375">
        <ele>115.59999847412109375</ele>
        <time>2022-06-04T07:14:45.000Z</time>
      </trkpt>
      <trkpt lat="43.47588275559246540069580078125" lon="-5.67227586172521114349365234375">
        <ele>115.8000030517578125</ele>
        <time>2022-06-04T07:14:46.000Z</time>
      </trkpt>
      <trkpt lat="43.47586247138679027557373046875" lon="-5.6722752749919891357421875">
        <ele>116.1999969482421875</ele>
        <time>2022-06-04T07:14:47.000Z</time>
      </trkpt>
      <trkpt lat="43.47581586800515651702880859375" lon="-5.67227485589683055877685546875">
        <ele>117</ele>
        <time>2022-06-04T07:14:49.000Z</time>
      </trkpt>
      <trkpt lat="43.4757742099463939666748046875" lon="-5.6722779572010040283203125">
        <ele>117.59999847412109375</ele>
        <time>2022-06-04T07:14:51.000Z</time>
      </trkpt>
      <trkpt lat="43.47573288716375827789306640625" lon="-5.6722848303616046905517578125">
        <ele>118.1999969482421875</ele>
        <time>2022-06-04T07:14:53.000Z</time>
      </trkpt>
      <trkpt lat="43.47569215111434459686279296875" lon="-5.67229413427412509918212890625">
        <ele>118.8000030517578125</ele>
        <time>2022-06-04T07:14:55.000Z</time>
      </trkpt>
      <trkpt lat="43.47564722411334514617919921875" lon="-5.67230151034891605377197265625">
        <ele>119.1999969482421875</ele>
        <time>2022-06-04T07:14:57.000Z</time>
      </trkpt>
      <trkpt lat="43.4756022132933139801025390625" lon="-5.6723082996904850006103515625">
        <ele>119.59999847412109375</ele>
        <time>2022-06-04T07:14:59.000Z</time>
      </trkpt>
      <trkpt lat="43.47555787302553653717041015625" lon="-5.67232011817395687103271484375">
        <ele>120</ele>
        <time>2022-06-04T07:15:01.000Z</time>
      </trkpt>
      <trkpt lat="43.4755368344485759735107421875" lon="-5.67232984118163585662841796875">
        <ele>120.1999969482421875</ele>
        <time>2022-06-04T07:15:02.000Z</time>
      </trkpt>
      <trkpt lat="43.47551613114774227142333984375" lon="-5.67233889363706111907958984375">
        <ele>120.40000152587890625</ele>
        <time>2022-06-04T07:15:03.000Z</time>
      </trkpt>
      <trkpt lat="43.47547371871769428253173828125" lon="-5.67236253060400485992431640625">
        <ele>120.8000030517578125</ele>
        <time>2022-06-04T07:15:05.000Z</time>
      </trkpt>
      <trkpt lat="43.47542904317378997802734375" lon="-5.6723797135055065155029296875">
        <ele>121.40000152587890625</ele>
        <time>2022-06-04T07:15:07.000Z</time>
      </trkpt>
      <trkpt lat="43.47537933848798274993896484375" lon="-5.67239622585475444793701171875">
        <ele>121.8000030517578125</ele>
        <time>2022-06-04T07:15:09.000Z</time>
      </trkpt>
      <trkpt lat="43.475297950208187103271484375" lon="-5.67240058444440364837646484375">
        <ele>122.1999969482421875</ele>
        <time>2022-06-04T07:15:10.000Z</time>
      </trkpt>
      <trkpt lat="43.475297950208187103271484375" lon="-5.67240058444440364837646484375">
        <ele>122.1999969482421875</ele>
        <time>2022-06-04T07:15:11.000Z</time>
      </trkpt>
      <trkpt lat="43.47519795410335063934326171875" lon="-5.67237795330584049224853515625">
        <ele>122.1999969482421875</ele>
        <time>2022-06-04T07:15:12.000Z</time>
      </trkpt>
      <trkpt lat="43.47519795410335063934326171875" lon="-5.67237795330584049224853515625">
        <ele>122.40000152587890625</ele>
        <time>2022-06-04T07:15:13.000Z</time>
      </trkpt>
      <trkpt lat="43.475092761218547821044921875" lon="-5.672331936657428741455078125">
        <ele>122.40000152587890625</ele>
        <time>2022-06-04T07:15:15.000Z</time>
      </trkpt>
      <trkpt lat="43.47497767768800258636474609375" lon="-5.6722781248390674591064453125">
        <ele>122.40000152587890625</ele>
        <time>2022-06-04T07:15:17.000Z</time>
      </trkpt>
      <trkpt lat="43.4748543798923492431640625" lon="-5.6722288392484188079833984375">
        <ele>122.40000152587890625</ele>
        <time>2022-06-04T07:15:19.000Z</time>
      </trkpt>
      <trkpt lat="43.4747341834008693695068359375" lon="-5.6721916235983371734619140625">
        <ele>122</ele>
        <time>2022-06-04T07:15:21.000Z</time>
      </trkpt>
      <trkpt lat="43.4746131487190723419189453125" lon="-5.6721778772771358489990234375">
        <ele>121.8000030517578125</ele>
        <time>2022-06-04T07:15:22.000Z</time>
      </trkpt>
      <trkpt lat="43.4746131487190723419189453125" lon="-5.6721778772771358489990234375">
        <ele>121.59999847412109375</ele>
        <time>2022-06-04T07:15:23.000Z</time>
      </trkpt>
      <trkpt lat="43.4744847379624843597412109375" lon="-5.67215482704341411590576171875">
        <ele>121.40000152587890625</ele>
        <time>2022-06-04T07:15:24.000Z</time>
      </trkpt>
      <trkpt lat="43.4744847379624843597412109375" lon="-5.67215482704341411590576171875">
        <ele>121.1999969482421875</ele>
        <time>2022-06-04T07:15:25.000Z</time>
      </trkpt>
      <trkpt lat="43.4744263999164104461669921875" lon="-5.67213001661002635955810546875">
        <ele>121</ele>
        <time>2022-06-04T07:15:26.000Z</time>
      </trkpt>
      <trkpt lat="43.474373258650302886962890625" lon="-5.6720551662147045135498046875">
        <ele>120.59999847412109375</ele>
        <time>2022-06-04T07:15:27.000Z</time>
      </trkpt>
      <trkpt lat="43.47427225671708583831787109375" lon="-5.67188392393290996551513671875">
        <ele>120.1999969482421875</ele>
        <time>2022-06-04T07:15:28.000Z</time>
      </trkpt>
      <trkpt lat="43.47427225671708583831787109375" lon="-5.67188392393290996551513671875">
        <ele>119.8000030517578125</ele>
        <time>2022-06-04T07:15:29.000Z</time>
      </trkpt>
      <trkpt lat="43.4741591848433017730712890625" lon="-5.67174159921705722808837890625">
        <ele>118.8000030517578125</ele>
        <time>2022-06-04T07:15:31.000Z</time>
      </trkpt>
      <trkpt lat="43.47410738468170166015625" lon="-5.671670436859130859375">
        <ele>118.1999969482421875</ele>
        <time>2022-06-04T07:15:32.000Z</time>
      </trkpt>
      <trkpt lat="43.47405918873846530914306640625" lon="-5.67160765640437602996826171875">
        <ele>117.59999847412109375</ele>
        <time>2022-06-04T07:15:33.000Z</time>
      </trkpt>
      <trkpt lat="43.47399632446467876434326171875" lon="-5.67147505469620227813720703125">
        <ele>117</ele>
        <time>2022-06-04T07:15:34.000Z</time>
      </trkpt>
      <trkpt lat="43.47399632446467876434326171875" lon="-5.67147505469620227813720703125">
        <ele>116.8000030517578125</ele>
        <time>2022-06-04T07:15:35.000Z</time>
      </trkpt>
      <trkpt lat="43.47398643381893634796142578125" lon="-5.6714094243943691253662109375">
        <ele>116.1999969482421875</ele>
        <time>2022-06-04T07:15:36.000Z</time>
      </trkpt>
      <trkpt lat="43.4739928878843784332275390625" lon="-5.6713460572063922882080078125">
        <ele>115.59999847412109375</ele>
        <time>2022-06-04T07:15:37.000Z</time>
      </trkpt>
      <trkpt lat="43.47400881350040435791015625" lon="-5.67129048518836498260498046875">
        <ele>115</ele>
        <time>2022-06-04T07:15:38.000Z</time>
      </trkpt>
      <trkpt lat="43.47402633167803287506103515625" lon="-5.67124505527317523956298828125">
        <ele>114.40000152587890625</ele>
        <time>2022-06-04T07:15:39.000Z</time>
      </trkpt>
      <trkpt lat="43.4740483760833740234375" lon="-5.67118026316165924072265625">
        <ele>112.59999847412109375</ele>
        <time>2022-06-04T07:15:41.000Z</time>
      </trkpt>
      <trkpt lat="43.474052734673023223876953125" lon="-5.6711673550307750701904296875">
        <ele>111.1999969482421875</ele>
        <time>2022-06-04T07:15:43.000Z</time>
      </trkpt>
      <trkpt lat="43.4740622900426387786865234375" lon="-5.67114681936800479888916015625">
        <ele>110.1999969482421875</ele>
        <time>2022-06-04T07:15:45.000Z</time>
      </trkpt>
      <trkpt lat="43.474067151546478271484375" lon="-5.67112251184880733489990234375">
        <ele>108.8000030517578125</ele>
        <time>2022-06-04T07:15:47.000Z</time>
      </trkpt>
      <trkpt lat="43.47407377324998378753662109375" lon="-5.6710996292531490325927734375">
        <ele>108</ele>
        <time>2022-06-04T07:15:49.000Z</time>
      </trkpt>
      <trkpt lat="43.474077880382537841796875" lon="-5.67109133116900920867919921875">
        <ele>107.8000030517578125</ele>
        <time>2022-06-04T07:15:50.000Z</time>
      </trkpt>
      <trkpt lat="43.474080227315425872802734375" lon="-5.6710872240364551544189453125">
        <ele>107.8000030517578125</ele>
        <time>2022-06-04T07:15:51.000Z</time>
      </trkpt>
      <trkpt lat="43.4740830771625041961669921875" lon="-5.671088397502899169921875">
        <ele>107.40000152587890625</ele>
        <time>2022-06-04T07:15:53.000Z</time>
      </trkpt>
      <trkpt lat="43.47416999749839305877685546875" lon="-5.6709799356758594512939453125">
        <ele>106.8000030517578125</ele>
        <time>2022-06-04T07:16:18.000Z</time>
      </trkpt>
      <trkpt lat="43.47416999749839305877685546875" lon="-5.6709799356758594512939453125">
        <ele>106.8000030517578125</ele>
        <time>2022-06-04T07:16:19.000Z</time>
      </trkpt>
      <trkpt lat="43.4741974063217639923095703125" lon="-5.670950599014759063720703125">
        <ele>106.59999847412109375</ele>
        <time>2022-06-04T07:16:21.000Z</time>
      </trkpt>
      <trkpt lat="43.47422749735414981842041015625" lon="-5.6709153950214385986328125">
        <ele>106.59999847412109375</ele>
        <time>2022-06-04T07:16:22.000Z</time>
      </trkpt>
      <trkpt lat="43.47422749735414981842041015625" lon="-5.6709153950214385986328125">
        <ele>106.59999847412109375</ele>
        <time>2022-06-04T07:16:23.000Z</time>
      </trkpt>
      <trkpt lat="43.4742570854723453521728515625" lon="-5.67088664509356021881103515625">
        <ele>106.59999847412109375</ele>
        <time>2022-06-04T07:16:25.000Z</time>
      </trkpt>
      <trkpt lat="43.4742830693721771240234375" lon="-5.67085747607052326202392578125">
        <ele>106.59999847412109375</ele>
        <time>2022-06-04T07:16:27.000Z</time>
      </trkpt>
      <trkpt lat="43.47434400580823421478271484375" lon="-5.67079092375934123992919921875">
        <ele>106.59999847412109375</ele>
        <time>2022-06-04T07:16:29.000Z</time>
      </trkpt>
      <trkpt lat="43.47435775212943553924560546875" lon="-5.67076410166919231414794921875">
        <ele>106.59999847412109375</ele>
        <time>2022-06-04T07:16:30.000Z</time>
      </trkpt>
      <trkpt lat="43.47435775212943553924560546875" lon="-5.67076410166919231414794921875">
        <ele>106.59999847412109375</ele>
        <time>2022-06-04T07:16:31.000Z</time>
      </trkpt>
      <trkpt lat="43.47437635995447635650634765625" lon="-5.6707303225994110107421875">
        <ele>106.59999847412109375</ele>
        <time>2022-06-04T07:16:33.000Z</time>
      </trkpt>
      <trkpt lat="43.4743898548185825347900390625" lon="-5.6707080267369747161865234375">
        <ele>106.8000030517578125</ele>
        <time>2022-06-04T07:16:35.000Z</time>
      </trkpt>
      <trkpt lat="43.47442128695547580718994140625" lon="-5.6706654466688632965087890625">
        <ele>107</ele>
        <time>2022-06-04T07:16:37.000Z</time>
      </trkpt>
      <trkpt lat="43.474436290562152862548828125" lon="-5.6706386245787143707275390625">
        <ele>107.40000152587890625</ele>
        <time>2022-06-04T07:16:39.000Z</time>
      </trkpt>
      <trkpt lat="43.4744404815137386322021484375" lon="-5.67063502036035060882568359375">
        <ele>107.40000152587890625</ele>
        <time>2022-06-04T07:16:41.000Z</time>
      </trkpt>
      <trkpt lat="43.474455736577510833740234375" lon="-5.670615993440151214599609375">
        <ele>107.59999847412109375</ele>
        <time>2022-06-04T07:16:42.000Z</time>
      </trkpt>
      <trkpt lat="43.47445816732943058013916015625" lon="-5.67060618661344051361083984375">
        <ele>107.59999847412109375</ele>
        <time>2022-06-04T07:16:43.000Z</time>
      </trkpt>
      <trkpt lat="43.4744654595851898193359375" lon="-5.670594871044158935546875">
        <ele>107.8000030517578125</ele>
        <time>2022-06-04T07:16:45.000Z</time>
      </trkpt>
      <trkpt lat="43.47447359003126621246337890625" lon="-5.67058791406452655792236328125">
        <ele>108</ele>
        <time>2022-06-04T07:16:47.000Z</time>
      </trkpt>
      <trkpt lat="43.474484570324420928955078125" lon="-5.6705786101520061492919921875">
        <ele>108.40000152587890625</ele>
        <time>2022-06-04T07:16:49.000Z</time>
      </trkpt>
      <trkpt lat="43.4744978137314319610595703125" lon="-5.6705708988010883331298828125">
        <ele>108.8000030517578125</ele>
        <time>2022-06-04T07:16:51.000Z</time>
      </trkpt>
      <trkpt lat="43.4745038487017154693603515625" lon="-5.670570395886898040771484375">
        <ele>108.8000030517578125</ele>
        <time>2022-06-04T07:16:52.000Z</time>
      </trkpt>
      <trkpt lat="43.47450929693877696990966796875" lon="-5.6705667078495025634765625">
        <ele>109</ele>
        <time>2022-06-04T07:16:53.000Z</time>
      </trkpt>
      <trkpt lat="43.47451508045196533203125" lon="-5.67056561820209026336669921875">
        <ele>109</ele>
        <time>2022-06-04T07:16:54.000Z</time>
      </trkpt>
      <trkpt lat="43.47451767884194850921630859375" lon="-5.670566372573375701904296875">
        <ele>109.1999969482421875</ele>
        <time>2022-06-04T07:16:55.000Z</time>
      </trkpt>
      <trkpt lat="43.47452136687934398651123046875" lon="-5.67056545056402683258056640625">
        <ele>109.40000152587890625</ele>
        <time>2022-06-04T07:16:57.000Z</time>
      </trkpt>
      <trkpt lat="43.47452647984027862548828125" lon="-5.67055706866085529327392578125">
        <ele>109.59999847412109375</ele>
        <time>2022-06-04T07:16:59.000Z</time>
      </trkpt>
      <trkpt lat="43.47615659236907958984375" lon="-5.66942836157977581024169921875">
        <ele>135.600006103515625</ele>
        <time>2022-06-04T07:20:23.000Z</time>
      </trkpt>
      <trkpt lat="43.47618668340146541595458984375" lon="-5.6693595461547374725341796875">
        <ele>135.600006103515625</ele>
        <time>2022-06-04T07:20:25.000Z</time>
      </trkpt>
      <trkpt lat="43.4762036986649036407470703125" lon="-5.669319815933704376220703125">
        <ele>135.600006103515625</ele>
        <time>2022-06-04T07:20:26.000Z</time>
      </trkpt>
      <trkpt lat="43.47622607834637165069580078125" lon="-5.66928368993103504180908203125">
        <ele>135.600006103515625</ele>
        <time>2022-06-04T07:20:27.000Z</time>
      </trkpt>
      <trkpt lat="43.47625273279845714569091796875" lon="-5.6692308001220226287841796875">
        <ele>135</ele>
        <time>2022-06-04T07:20:29.000Z</time>
      </trkpt>
      <trkpt lat="43.47625650465488433837890625" lon="-5.6692207418382167816162109375">
        <ele>134.8000030517578125</ele>
        <time>2022-06-04T07:20:30.000Z</time>
      </trkpt>
      <trkpt lat="43.47625759430229663848876953125" lon="-5.669211857020854949951171875">
        <ele>134.1999969482421875</ele>
        <time>2022-06-04T07:20:31.000Z</time>
      </trkpt>
      <trkpt lat="43.4762489609420299530029296875" lon="-5.66902686841785907745361328125">
        <ele>131</ele>
        <time>2022-06-04T07:20:46.000Z</time>
      </trkpt>
      <trkpt lat="43.47624535672366619110107421875" lon="-5.66899853758513927459716796875">
        <ele>131</ele>
        <time>2022-06-04T07:20:47.000Z</time>
      </trkpt>
      <trkpt lat="43.4762563370168209075927734375" lon="-5.6689498387277126312255859375">
        <ele>131</ele>
        <time>2022-06-04T07:20:49.000Z</time>
      </trkpt>
      <trkpt lat="43.4762640483677387237548828125" lon="-5.66890977323055267333984375">
        <ele>131</ele>
        <time>2022-06-04T07:20:51.000Z</time>
      </trkpt>
      <trkpt lat="43.4762737713754177093505859375" lon="-5.66886157728731632232666015625">
        <ele>130.8000030517578125</ele>
        <time>2022-06-04T07:20:53.000Z</time>
      </trkpt>
      <trkpt lat="43.4762893617153167724609375" lon="-5.6688076816499233245849609375">
        <ele>130.8000030517578125</ele>
        <time>2022-06-04T07:20:55.000Z</time>
      </trkpt>
      <trkpt lat="43.47629296593368053436279296875" lon="-5.6687751598656177520751953125">
        <ele>130.8000030517578125</ele>
        <time>2022-06-04T07:20:56.000Z</time>
      </trkpt>
      <trkpt lat="43.47629564814269542694091796875" lon="-5.6687446497380733489990234375">
        <ele>130.8000030517578125</ele>
        <time>2022-06-04T07:20:57.000Z</time>
      </trkpt>
      <trkpt lat="43.4762918762862682342529296875" lon="-5.66868304274976253509521484375">
        <ele>130.600006103515625</ele>
        <time>2022-06-04T07:20:59.000Z</time>
      </trkpt>
      <trkpt lat="43.47628776915371417999267578125" lon="-5.66862503997981548309326171875">
        <ele>130.8000030517578125</ele>
        <time>2022-06-04T07:21:01.000Z</time>
      </trkpt>
      <trkpt lat="43.4762861765921115875244140625" lon="-5.668596960604190826416015625">
        <ele>130.8000030517578125</ele>
        <time>2022-06-04T07:21:02.000Z</time>
      </trkpt>
      <trkpt lat="43.47628558985888957977294921875" lon="-5.66856301389634609222412109375">
        <ele>130.600006103515625</ele>
        <time>2022-06-04T07:21:03.000Z</time>
      </trkpt>
      <trkpt lat="43.4762948937714099884033203125" lon="-5.6684901751577854156494140625">
        <ele>130.8000030517578125</ele>
        <time>2022-06-04T07:21:05.000Z</time>
      </trkpt>
      <trkpt lat="43.47631157375872135162353515625" lon="-5.66840417683124542236328125">
        <ele>130.8000030517578125</ele>
        <time>2022-06-04T07:21:07.000Z</time>
      </trkpt>
      <trkpt lat="43.47634258680045604705810546875" lon="-5.6683228723704814910888671875">
        <ele>131</ele>
        <time>2022-06-04T07:21:09.000Z</time>
      </trkpt>
      <trkpt lat="43.476373851299285888671875" lon="-5.66824768669903278350830078125">
        <ele>131</ele>
        <time>2022-06-04T07:21:11.000Z</time>
      </trkpt>
      <trkpt lat="43.47640402615070343017578125" lon="-5.668177194893360137939453125">
        <ele>131.1999969482421875</ele>
        <time>2022-06-04T07:21:13.000Z</time>
      </trkpt>
      <trkpt lat="43.4764363802969455718994140625" lon="-5.66811047494411468505859375">
        <ele>131.399993896484375</ele>
        <time>2022-06-04T07:21:15.000Z</time>
      </trkpt>
      <trkpt lat="43.47647233866155147552490234375" lon="-5.668046437203884124755859375">
        <ele>131.399993896484375</ele>
        <time>2022-06-04T07:21:17.000Z</time>
      </trkpt>
      <trkpt lat="43.47650620155036449432373046875" lon="-5.66798801533877849578857421875">
        <ele>131.600006103515625</ele>
        <time>2022-06-04T07:21:19.000Z</time>
      </trkpt>
      <trkpt lat="43.47652430646121501922607421875" lon="-5.66795893013477325439453125">
        <ele>132</ele>
        <time>2022-06-04T07:21:20.000Z</time>
      </trkpt>
      <trkpt lat="43.47654274664819240570068359375" lon="-5.66792816855013370513916015625">
        <ele>132.399993896484375</ele>
        <time>2022-06-04T07:21:21.000Z</time>
      </trkpt>
      <trkpt lat="43.47657627426087856292724609375" lon="-5.66786639392375946044921875">
        <ele>132.600006103515625</ele>
        <time>2022-06-04T07:21:23.000Z</time>
      </trkpt>
      <trkpt lat="43.476604521274566650390625" lon="-5.6678011827170848846435546875">
        <ele>132.8000030517578125</ele>
        <time>2022-06-04T07:21:25.000Z</time>
      </trkpt>
      <trkpt lat="43.476618938148021697998046875" lon="-5.66776053048670291900634765625">
        <ele>133</ele>
        <time>2022-06-04T07:21:26.000Z</time>
      </trkpt>
      <trkpt lat="43.47663477994501590728759765625" lon="-5.66771711222827434539794921875">
        <ele>133</ele>
        <time>2022-06-04T07:21:27.000Z</time>
      </trkpt>
      <trkpt lat="43.476658165454864501953125" lon="-5.6676328741014003753662109375">
        <ele>133.1999969482421875</ele>
        <time>2022-06-04T07:21:29.000Z</time>
      </trkpt>
      <trkpt lat="43.476678617298603057861328125" lon="-5.66754863597452640533447265625">
        <ele>133.600006103515625</ele>
        <time>2022-06-04T07:21:31.000Z</time>
      </trkpt>
      <trkpt lat="43.476695381104946136474609375" lon="-5.66746481694281101226806640625">
        <ele>133.8000030517578125</ele>
        <time>2022-06-04T07:21:33.000Z</time>
      </trkpt>
      <trkpt lat="43.47671206109225749969482421875" lon="-5.6673908047378063201904296875">
        <ele>134.1999969482421875</ele>
        <time>2022-06-04T07:21:35.000Z</time>
      </trkpt>
      <trkpt lat="43.47673485986888408660888671875" lon="-5.66732198931276798248291015625">
        <ele>134.399993896484375</ele>
        <time>2022-06-04T07:21:37.000Z</time>
      </trkpt>
      <trkpt lat="43.47677090205252170562744140625" lon="-5.6672566942870616912841796875">
        <ele>134.600006103515625</ele>
        <time>2022-06-04T07:21:39.000Z</time>
      </trkpt>
      <trkpt lat="43.476827479898929595947265625" lon="-5.66718737594783306121826171875">
        <ele>134.8000030517578125</ele>
        <time>2022-06-04T07:21:41.000Z</time>
      </trkpt>
      <trkpt lat="43.4768930263817310333251953125" lon="-5.667106993496417999267578125">
        <ele>134.8000030517578125</ele>
        <time>2022-06-04T07:21:43.000Z</time>
      </trkpt>
      <trkpt lat="43.476928062736988067626953125" lon="-5.66706181503832340240478515625">
        <ele>135</ele>
        <time>2022-06-04T07:21:44.000Z</time>
      </trkpt>
      <trkpt lat="43.476959578692913055419921875" lon="-5.6670116074383258819580078125">
        <ele>135</ele>
        <time>2022-06-04T07:21:45.000Z</time>
      </trkpt>
      <trkpt lat="43.4770231135189533233642578125" lon="-5.66691781394183635711669921875">
        <ele>135</ele>
        <time>2022-06-04T07:21:47.000Z</time>
      </trkpt>
      <trkpt lat="43.4770737402141094207763671875" lon="-5.666838102042675018310546875">
        <ele>134.8000030517578125</ele>
        <time>2022-06-04T07:21:49.000Z</time>
      </trkpt>
      <trkpt lat="43.47710500471293926239013671875" lon="-5.66677339375019073486328125">
        <ele>134.8000030517578125</ele>
        <time>2022-06-04T07:21:51.000Z</time>
      </trkpt>
      <trkpt lat="43.4771300666034221649169921875" lon="-5.666714720427989959716796875">
        <ele>134.600006103515625</ele>
        <time>2022-06-04T07:21:53.000Z</time>
      </trkpt>
      <trkpt lat="43.4771411307156085968017578125" lon="-5.66668529994785785675048828125">
        <ele>134.600006103515625</ele>
        <time>2022-06-04T07:21:54.000Z</time>
      </trkpt>
      <trkpt lat="43.47714724950492382049560546875" lon="-5.666655041277408599853515625">
        <ele>134.600006103515625</ele>
        <time>2022-06-04T07:21:55.000Z</time>
      </trkpt>
      <trkpt lat="43.4771578945219516754150390625" lon="-5.6666032411158084869384765625">
        <ele>134.600006103515625</ele>
        <time>2022-06-04T07:21:57.000Z</time>
      </trkpt>
      <trkpt lat="43.47715764306485652923583984375" lon="-5.666582286357879638671875">
        <ele>134.600006103515625</ele>
        <time>2022-06-04T07:21:58.000Z</time>
      </trkpt>
      <trkpt lat="43.47715177573263645172119140625" lon="-5.66655990667641162872314453125">
        <ele>134.600006103515625</ele>
        <time>2022-06-04T07:21:59.000Z</time>
      </trkpt>
      <trkpt lat="43.477137275040149688720703125" lon="-5.6665090285241603851318359375">
        <ele>134.600006103515625</ele>
        <time>2022-06-04T07:22:01.000Z</time>
      </trkpt>
      <trkpt lat="43.4771330840885639190673828125" lon="-5.66648229025304317474365234375">
        <ele>134.600006103515625</ele>
        <time>2022-06-04T07:22:02.000Z</time>
      </trkpt>
      <trkpt lat="43.47713065333664417266845703125" lon="-5.66645764745771884918212890625">
        <ele>134.600006103515625</ele>
        <time>2022-06-04T07:22:03.000Z</time>
      </trkpt>
      <trkpt lat="43.477135598659515380859375" lon="-5.66640718840062618255615234375">
        <ele>135.1999969482421875</ele>
        <time>2022-06-04T07:22:05.000Z</time>
      </trkpt>
      <trkpt lat="43.47713568247854709625244140625" lon="-5.66635220311582088470458984375">
        <ele>135.8000030517578125</ele>
        <time>2022-06-04T07:22:07.000Z</time>
      </trkpt>
      <trkpt lat="43.4771270491182804107666015625" lon="-5.6662820465862751007080078125">
        <ele>136.600006103515625</ele>
        <time>2022-06-04T07:22:09.000Z</time>
      </trkpt>
      <trkpt lat="43.47712880931794643402099609375" lon="-5.66624692641198635101318359375">
        <ele>136.8000030517578125</ele>
        <time>2022-06-04T07:22:10.000Z</time>
      </trkpt>
      <trkpt lat="43.47712545655667781829833984375" lon="-5.66621105186641216278076171875">
        <ele>137.399993896484375</ele>
        <time>2022-06-04T07:22:11.000Z</time>
      </trkpt>
      <trkpt lat="43.477121181786060333251953125" lon="-5.6661767698824405670166015625">
        <ele>137.8000030517578125</ele>
        <time>2022-06-04T07:22:12.000Z</time>
      </trkpt>
      <trkpt lat="43.477117158472537994384765625" lon="-5.6661408953368663787841796875">
        <ele>138</ele>
        <time>2022-06-04T07:22:13.000Z</time>
      </trkpt>
      <trkpt lat="43.4771052561700344085693359375" lon="-5.6660654582083225250244140625">
        <ele>138.8000030517578125</ele>
        <time>2022-06-04T07:22:15.000Z</time>
      </trkpt>
      <trkpt lat="43.47708706744015216827392578125" lon="-5.6659973971545696258544921875">
        <ele>139.600006103515625</ele>
        <time>2022-06-04T07:22:17.000Z</time>
      </trkpt>
      <trkpt lat="43.477074913680553436279296875" lon="-5.6659665517508983612060546875">
        <ele>139.8000030517578125</ele>
        <time>2022-06-04T07:22:18.000Z</time>
      </trkpt>
      <trkpt lat="43.4770633466541767120361328125" lon="-5.66594115458428859710693359375">
        <ele>140.1999969482421875</ele>
        <time>2022-06-04T07:22:19.000Z</time>
      </trkpt>
      <trkpt lat="43.4770331718027591705322265625" lon="-5.66589354537427425384521484375">
        <ele>140.399993896484375</ele>
        <time>2022-06-04T07:22:21.000Z</time>
      </trkpt>
      <trkpt lat="43.47699721343815326690673828125" lon="-5.66584979183971881866455078125">
        <ele>140.399993896484375</ele>
        <time>2022-06-04T07:22:23.000Z</time>
      </trkpt>
      <trkpt lat="43.47695949487388134002685546875" lon="-5.6658136658370494842529296875">
        <ele>140.8000030517578125</ele>
        <time>2022-06-04T07:22:25.000Z</time>
      </trkpt>
      <trkpt lat="43.47694172523915767669677734375" lon="-5.66579681821167469024658203125">
        <ele>141</ele>
        <time>2022-06-04T07:22:26.000Z</time>
      </trkpt>
      <trkpt lat="43.4769252128899097442626953125" lon="-5.66577871330082416534423828125">
        <ele>141.1999969482421875</ele>
        <time>2022-06-04T07:22:27.000Z</time>
      </trkpt>
      <trkpt lat="43.47688623704016208648681640625" lon="-5.66573780961334705352783203125">
        <ele>141.600006103515625</ele>
        <time>2022-06-04T07:22:29.000Z</time>
      </trkpt>
      <trkpt lat="43.47687031142413616180419921875" lon="-5.66572129726409912109375">
        <ele>141.8000030517578125</ele>
        <time>2022-06-04T07:22:30.000Z</time>
      </trkpt>
      <trkpt lat="43.476855643093585968017578125" lon="-5.665706209838390350341796875">
        <ele>142.1999969482421875</ele>
        <time>2022-06-04T07:22:31.000Z</time>
      </trkpt>
      <trkpt lat="43.47681733779609203338623046875" lon="-5.6656691618263721466064453125">
        <ele>142.399993896484375</ele>
        <time>2022-06-04T07:22:33.000Z</time>
      </trkpt>
      <trkpt lat="43.4767723269760608673095703125" lon="-5.66560872830450534820556640625">
        <ele>142.399993896484375</ele>
        <time>2022-06-04T07:22:35.000Z</time>
      </trkpt>
      <trkpt lat="43.47673687152564525604248046875" lon="-5.665547288954257965087890625">
        <ele>142.600006103515625</ele>
        <time>2022-06-04T07:22:37.000Z</time>
      </trkpt>
      <trkpt lat="43.4767035953700542449951171875" lon="-5.6654807366430759429931640625">
        <ele>142.600006103515625</ele>
        <time>2022-06-04T07:22:39.000Z</time>
      </trkpt>
      <trkpt lat="43.47668138332664966583251953125" lon="-5.66541074775159358978271484375">
        <ele>142.600006103515625</ele>
        <time>2022-06-04T07:22:41.000Z</time>
      </trkpt>
      <trkpt lat="43.47665674053132534027099609375" lon="-5.66532441414892673492431640625">
        <ele>142.8000030517578125</ele>
        <time>2022-06-04T07:22:43.000Z</time>
      </trkpt>
      <trkpt lat="43.4766291640698909759521484375" lon="-5.66523221321403980255126953125">
        <ele>142.8000030517578125</ele>
        <time>2022-06-04T07:22:45.000Z</time>
      </trkpt>
      <trkpt lat="43.4766112267971038818359375" lon="-5.6651528365910053253173828125">
        <ele>142.8000030517578125</ele>
        <time>2022-06-04T07:22:47.000Z</time>
      </trkpt>
      <trkpt lat="43.47660410217940807342529296875" lon="-5.665120147168636322021484375">
        <ele>142.8000030517578125</ele>
        <time>2022-06-04T07:22:48.000Z</time>
      </trkpt>
      <trkpt lat="43.47659848630428314208984375" lon="-5.66508569754660129547119140625">
        <ele>142.8000030517578125</ele>
        <time>2022-06-04T07:22:49.000Z</time>
      </trkpt>
      <trkpt lat="43.476586081087589263916015625" lon="-5.66501897759735584259033203125">
        <ele>143.1999969482421875</ele>
        <time>2022-06-04T07:22:51.000Z</time>
      </trkpt>
      <trkpt lat="43.47658130340278148651123046875" lon="-5.66498025320470333099365234375">
        <ele>143.399993896484375</ele>
        <time>2022-06-04T07:22:52.000Z</time>
      </trkpt>
      <trkpt lat="43.4765755198895931243896484375" lon="-5.664942450821399688720703125">
        <ele>143.600006103515625</ele>
        <time>2022-06-04T07:22:53.000Z</time>
      </trkpt>
      <trkpt lat="43.47656386904418468475341796875" lon="-5.66487045027315616607666015625">
        <ele>144.1999969482421875</ele>
        <time>2022-06-04T07:22:55.000Z</time>
      </trkpt>
      <trkpt lat="43.47655959427356719970703125" lon="-5.66483256407082080841064453125">
        <ele>144.399993896484375</ele>
        <time>2022-06-04T07:22:56.000Z</time>
      </trkpt>
      <trkpt lat="43.47655515186488628387451171875" lon="-5.66479668952524662017822265625">
        <ele>144.399993896484375</ele>
        <time>2022-06-04T07:22:57.000Z</time>
      </trkpt>
      <trkpt lat="43.47654777579009532928466796875" lon="-5.66472862847149372100830078125">
        <ele>145.1999969482421875</ele>
        <time>2022-06-04T07:22:59.000Z</time>
      </trkpt>
      <trkpt lat="43.47654609940946102142333984375" lon="-5.664697699248790740966796875">
        <ele>145.399993896484375</ele>
        <time>2022-06-04T07:23:00.000Z</time>
      </trkpt>
      <trkpt lat="43.476543836295604705810546875" lon="-5.6646645069122314453125">
        <ele>145.600006103515625</ele>
        <time>2022-06-04T07:23:01.000Z</time>
      </trkpt>
      <trkpt lat="43.47653972916305065155029296875" lon="-5.66460239700973033905029296875">
        <ele>146.399993896484375</ele>
        <time>2022-06-04T07:23:03.000Z</time>
      </trkpt>
      <trkpt lat="43.47654626704752445220947265625" lon="-5.66453835926949977874755859375">
        <ele>147</ele>
        <time>2022-06-04T07:23:05.000Z</time>
      </trkpt>
      <trkpt lat="43.476553224027156829833984375" lon="-5.6644775904715061187744140625">
        <ele>147.8000030517578125</ele>
        <time>2022-06-04T07:23:07.000Z</time>
      </trkpt>
      <trkpt lat="43.47656269557774066925048828125" lon="-5.66442017443478107452392578125">
        <ele>148.1999969482421875</ele>
        <time>2022-06-04T07:23:09.000Z</time>
      </trkpt>
      <trkpt lat="43.47656722180545330047607421875" lon="-5.664394609630107879638671875">
        <ele>148.399993896484375</ele>
        <time>2022-06-04T07:23:10.000Z</time>
      </trkpt>
      <trkpt lat="43.47657107748091220855712890625" lon="-5.66436686553061008453369140625">
        <ele>148.600006103515625</ele>
        <time>2022-06-04T07:23:11.000Z</time>
      </trkpt>
      <trkpt lat="43.476574011147022247314453125" lon="-5.664336942136287689208984375">
        <ele>148.8000030517578125</ele>
        <time>2022-06-04T07:23:12.000Z</time>
      </trkpt>
      <trkpt lat="43.47657702863216400146484375" lon="-5.6643045879900455474853515625">
        <ele>149.1999969482421875</ele>
        <time>2022-06-04T07:23:13.000Z</time>
      </trkpt>
      <trkpt lat="43.476586081087589263916015625" lon="-5.664237029850482940673828125">
        <ele>149.600006103515625</ele>
        <time>2022-06-04T07:23:15.000Z</time>
      </trkpt>
      <trkpt lat="43.47658641636371612548828125" lon="-5.66416603513062000274658203125">
        <ele>149.8000030517578125</ele>
        <time>2022-06-04T07:23:17.000Z</time>
      </trkpt>
      <trkpt lat="43.4765862487256526947021484375" lon="-5.664131753146648406982421875">
        <ele>150</ele>
        <time>2022-06-04T07:23:18.000Z</time>
      </trkpt>
      <trkpt lat="43.47658415324985980987548828125" lon="-5.66410216502845287322998046875">
        <ele>150.1999969482421875</ele>
        <time>2022-06-04T07:23:19.000Z</time>
      </trkpt>
      <trkpt lat="43.476580046117305755615234375" lon="-5.66405070014297962188720703125">
        <ele>150.8000030517578125</ele>
        <time>2022-06-04T07:23:21.000Z</time>
      </trkpt>
      <trkpt lat="43.47657694481313228607177734375" lon="-5.66400594078004360198974609375">
        <ele>151.1999969482421875</ele>
        <time>2022-06-04T07:23:23.000Z</time>
      </trkpt>
      <trkpt lat="43.47657627426087856292724609375" lon="-5.6639837287366390228271484375">
        <ele>151.1999969482421875</ele>
        <time>2022-06-04T07:23:24.000Z</time>
      </trkpt>
      <trkpt lat="43.4765775315463542938232421875" lon="-5.6639626063406467437744140625">
        <ele>151.399993896484375</ele>
        <time>2022-06-04T07:23:25.000Z</time>
      </trkpt>
      <trkpt lat="43.47658465616405010223388671875" lon="-5.66392094828188419342041015625">
        <ele>151.8000030517578125</ele>
        <time>2022-06-04T07:23:27.000Z</time>
      </trkpt>
      <trkpt lat="43.4765909425914287567138671875" lon="-5.6638670526444911956787109375">
        <ele>152</ele>
        <time>2022-06-04T07:23:29.000Z</time>
      </trkpt>
      <trkpt lat="43.476592786610126495361328125" lon="-5.66383997909724712371826171875">
        <ele>152.399993896484375</ele>
        <time>2022-06-04T07:23:30.000Z</time>
      </trkpt>
      <trkpt lat="43.47659169696271419525146484375" lon="-5.66381223499774932861328125">
        <ele>152.600006103515625</ele>
        <time>2022-06-04T07:23:31.000Z</time>
      </trkpt>
      <trkpt lat="43.47659002058207988739013671875" lon="-5.66376261413097381591796875">
        <ele>153</ele>
        <time>2022-06-04T07:23:33.000Z</time>
      </trkpt>
      <trkpt lat="43.476588092744350433349609375" lon="-5.6637082993984222412109375">
        <ele>153.600006103515625</ele>
        <time>2022-06-04T07:23:35.000Z</time>
      </trkpt>
      <trkpt lat="43.47658532671630382537841796875" lon="-5.66365490667521953582763671875">
        <ele>154</ele>
        <time>2022-06-04T07:23:37.000Z</time>
      </trkpt>
      <trkpt lat="43.47657929174602031707763671875" lon="-5.66360545344650745391845703125">
        <ele>154.600006103515625</ele>
        <time>2022-06-04T07:23:39.000Z</time>
      </trkpt>
      <trkpt lat="43.47657593898475170135498046875" lon="-5.66358466632664203643798828125">
        <ele>155.1999969482421875</ele>
        <time>2022-06-04T07:23:40.000Z</time>
      </trkpt>
      <trkpt lat="43.47657434642314910888671875" lon="-5.6635636277496814727783203125">
        <ele>155.399993896484375</ele>
        <time>2022-06-04T07:23:41.000Z</time>
      </trkpt>
      <trkpt lat="43.476574011147022247314453125" lon="-5.66351643763482570648193359375">
        <ele>155.8000030517578125</ele>
        <time>2022-06-04T07:23:43.000Z</time>
      </trkpt>
      <trkpt lat="43.47657292149960994720458984375" lon="-5.66349313594400882720947265625">
        <ele>156.399993896484375</ele>
        <time>2022-06-04T07:23:44.000Z</time>
      </trkpt>
      <trkpt lat="43.47657040692865848541259765625" lon="-5.66347151063382625579833984375">
        <ele>156.8000030517578125</ele>
        <time>2022-06-04T07:23:45.000Z</time>
      </trkpt>
      <trkpt lat="43.47656093537807464599609375" lon="-5.66341334022581577301025390625">
        <ele>157.399993896484375</ele>
        <time>2022-06-04T07:23:47.000Z</time>
      </trkpt>
      <trkpt lat="43.476556241512298583984375" lon="-5.66338283009827136993408203125">
        <ele>157.8000030517578125</ele>
        <time>2022-06-04T07:23:48.000Z</time>
      </trkpt>
      <trkpt lat="43.4765517152845859527587890625" lon="-5.66335357725620269775390625">
        <ele>158</ele>
        <time>2022-06-04T07:23:49.000Z</time>
      </trkpt>
      <trkpt lat="43.47654618322849273681640625" lon="-5.66331870853900909423828125">
        <ele>158</ele>
        <time>2022-06-04T07:23:50.000Z</time>
      </trkpt>
      <trkpt lat="43.47654140554368495941162109375" lon="-5.66327872686088085174560546875">
        <ele>158.1999969482421875</ele>
        <time>2022-06-04T07:23:51.000Z</time>
      </trkpt>
      <trkpt lat="43.476533778011798858642578125" lon="-5.66317713819444179534912109375">
        <ele>159</ele>
        <time>2022-06-04T07:23:53.000Z</time>
      </trkpt>
      <trkpt lat="43.4765383042395114898681640625" lon="-5.663070268929004669189453125">
        <ele>159.1999969482421875</ele>
        <time>2022-06-04T07:23:55.000Z</time>
      </trkpt>
      <trkpt lat="43.47655062563717365264892578125" lon="-5.6630161218345165252685546875">
        <ele>159.1999969482421875</ele>
        <time>2022-06-04T07:23:56.000Z</time>
      </trkpt>
      <trkpt lat="43.476566970348358154296875" lon="-5.662967003881931304931640625">
        <ele>159.1999969482421875</ele>
        <time>2022-06-04T07:23:57.000Z</time>
      </trkpt>
      <trkpt lat="43.47659739665687084197998046875" lon="-5.66288276575505733489990234375">
        <ele>159.399993896484375</ele>
        <time>2022-06-04T07:23:59.000Z</time>
      </trkpt>
      <trkpt lat="43.4766127355396747589111328125" lon="-5.66281135194003582000732421875">
        <ele>159.399993896484375</ele>
        <time>2022-06-04T07:24:01.000Z</time>
      </trkpt>
      <trkpt lat="43.4766103886067867279052734375" lon="-5.66274563781917095184326171875">
        <ele>159.399993896484375</ele>
        <time>2022-06-04T07:24:03.000Z</time>
      </trkpt>
      <trkpt lat="43.47660024650394916534423828125" lon="-5.6627224199473857879638671875">
        <ele>159.399993896484375</ele>
        <time>2022-06-04T07:24:04.000Z</time>
      </trkpt>
      <trkpt lat="43.47658465616405010223388671875" lon="-5.6627113558351993560791015625">
        <ele>159.399993896484375</ele>
        <time>2022-06-04T07:24:05.000Z</time>
      </trkpt>
      <trkpt lat="43.476545177400112152099609375" lon="-5.66271110437810420989990234375">
        <ele>159.399993896484375</ele>
        <time>2022-06-04T07:24:07.000Z</time>
      </trkpt>
      <trkpt lat="43.4765077941119670867919921875" lon="-5.662712194025516510009765625">
        <ele>159.399993896484375</ele>
        <time>2022-06-04T07:24:09.000Z</time>
      </trkpt>
      <trkpt lat="43.47649010829627513885498046875" lon="-5.6627185642719268798828125">
        <ele>159.600006103515625</ele>
        <time>2022-06-04T07:24:10.000Z</time>
      </trkpt>
      <trkpt lat="43.47647317685186862945556640625" lon="-5.662725605070590972900390625">
        <ele>159.8000030517578125</ele>
        <time>2022-06-04T07:24:11.000Z</time>
      </trkpt>
      <trkpt lat="43.47644115798175334930419921875" lon="-5.662739686667919158935546875">
        <ele>160.1999969482421875</ele>
        <time>2022-06-04T07:24:13.000Z</time>
      </trkpt>
      <trkpt lat="43.476412408053874969482421875" lon="-5.66275536082684993743896484375">
        <ele>160.600006103515625</ele>
        <time>2022-06-04T07:24:15.000Z</time>
      </trkpt>
      <trkpt lat="43.476397991180419921875" lon="-5.66276223398745059967041015625">
        <ele>160.8000030517578125</ele>
        <time>2022-06-04T07:24:16.000Z</time>
      </trkpt>
      <trkpt lat="43.47638533450663089752197265625" lon="-5.662769861519336700439453125">
        <ele>161</ele>
        <time>2022-06-04T07:24:17.000Z</time>
      </trkpt>
      <trkpt lat="43.476372174918651580810546875" lon="-5.662779249250888824462890625">
        <ele>161.1999969482421875</ele>
        <time>2022-06-04T07:24:18.000Z</time>
      </trkpt>
      <trkpt lat="43.47635666839778423309326171875" lon="-5.66278939135372638702392578125">
        <ele>161.399993896484375</ele>
        <time>2022-06-04T07:24:19.000Z</time>
      </trkpt>
      <trkpt lat="43.47632825374603271484375" lon="-5.66281135194003582000732421875">
        <ele>162</ele>
        <time>2022-06-04T07:24:21.000Z</time>
      </trkpt>
      <trkpt lat="43.4763046167790889739990234375" lon="-5.6628367491066455841064453125">
        <ele>162.399993896484375</ele>
        <time>2022-06-04T07:24:23.000Z</time>
      </trkpt>
      <trkpt lat="43.47628558985888957977294921875" lon="-5.66284127533435821533203125">
        <ele>162.600006103515625</ele>
        <time>2022-06-04T07:24:24.000Z</time>
      </trkpt>
      <trkpt lat="43.47626379691064357757568359375" lon="-5.66284119151532649993896484375">
        <ele>163</ele>
        <time>2022-06-04T07:24:25.000Z</time>
      </trkpt>
      <trkpt lat="43.4762204624712467193603515625" lon="-5.6628213264048099517822265625">
        <ele>163.8000030517578125</ele>
        <time>2022-06-04T07:24:27.000Z</time>
      </trkpt>
      <trkpt lat="43.47620679996907711029052734375" lon="-5.662806741893291473388671875">
        <ele>164</ele>
        <time>2022-06-04T07:24:28.000Z</time>
      </trkpt>
      <trkpt lat="43.47620193846523761749267578125" lon="-5.66278721205890178680419921875">
        <ele>164.399993896484375</ele>
        <time>2022-06-04T07:24:29.000Z</time>
      </trkpt>
      <trkpt lat="43.476202525198459625244140625" lon="-5.66274278797209262847900390625">
        <ele>164.8000030517578125</ele>
        <time>2022-06-04T07:24:31.000Z</time>
      </trkpt>
      <trkpt lat="43.4762063808739185333251953125" lon="-5.66272300668060779571533203125">
        <ele>165.1999969482421875</ele>
        <time>2022-06-04T07:24:32.000Z</time>
      </trkpt>
      <trkpt lat="43.47621493041515350341796875" lon="-5.66270322538912296295166015625">
        <ele>165.399993896484375</ele>
        <time>2022-06-04T07:24:33.000Z</time>
      </trkpt>
      <trkpt lat="43.4762355498969554901123046875" lon="-5.66266517154872417449951171875">
        <ele>166.1999969482421875</ele>
        <time>2022-06-04T07:24:35.000Z</time>
      </trkpt>
      <trkpt lat="43.47624787129461765289306640625" lon="-5.66264555789530277252197265625">
        <ele>166.399993896484375</ele>
        <time>2022-06-04T07:24:36.000Z</time>
      </trkpt>
      <trkpt lat="43.47626186907291412353515625" lon="-5.66262695007026195526123046875">
        <ele>166.600006103515625</ele>
        <time>2022-06-04T07:24:37.000Z</time>
      </trkpt>
      <trkpt lat="43.47628994844853878021240234375" lon="-5.6625930033624172210693359375">
        <ele>167</ele>
        <time>2022-06-04T07:24:39.000Z</time>
      </trkpt>
      <trkpt lat="43.476315177977085113525390625" lon="-5.662560649216175079345703125">
        <ele>167.399993896484375</ele>
        <time>2022-06-04T07:24:41.000Z</time>
      </trkpt>
      <trkpt lat="43.47633705474436283111572265625" lon="-5.66252879798412322998046875">
        <ele>167.8000030517578125</ele>
        <time>2022-06-04T07:24:43.000Z</time>
      </trkpt>
      <trkpt lat="43.4763565845787525177001953125" lon="-5.66249351017177104949951171875">
        <ele>168.1999969482421875</ele>
        <time>2022-06-04T07:24:45.000Z</time>
      </trkpt>
      <trkpt lat="43.47636488266289234161376953125" lon="-5.66247557289898395538330078125">
        <ele>168.399993896484375</ele>
        <time>2022-06-04T07:24:46.000Z</time>
      </trkpt>
      <trkpt lat="43.47637326456606388092041015625" lon="-5.6624572165310382843017578125">
        <ele>168.600006103515625</ele>
        <time>2022-06-04T07:24:47.000Z</time>
      </trkpt>
      <trkpt lat="43.47639002837240695953369140625" lon="-5.6624203361570835113525390625">
        <ele>169</ele>
        <time>2022-06-04T07:24:49.000Z</time>
      </trkpt>
      <trkpt lat="43.47640226595103740692138671875" lon="-5.66238270141184329986572265625">
        <ele>169.399993896484375</ele>
        <time>2022-06-04T07:24:51.000Z</time>
      </trkpt>
      <trkpt lat="43.47640830092132091522216796875" lon="-5.66236392594873905181884765625">
        <ele>169.1999969482421875</ele>
        <time>2022-06-04T07:24:52.000Z</time>
      </trkpt>
      <trkpt lat="43.4764132462441921234130859375" lon="-5.6623445637524127960205078125">
        <ele>169.600006103515625</ele>
        <time>2022-06-04T07:24:53.000Z</time>
      </trkpt>
      <trkpt lat="43.4764233045279979705810546875" lon="-5.66230542026460170745849609375">
        <ele>169.8000030517578125</ele>
        <time>2022-06-04T07:24:55.000Z</time>
      </trkpt>
      <trkpt lat="43.476427495479583740234375" lon="-5.6622848846018314361572265625">
        <ele>170.1999969482421875</ele>
        <time>2022-06-04T07:24:56.000Z</time>
      </trkpt>
      <trkpt lat="43.4764313511550426483154296875" lon="-5.6622652709484100341796875">
        <ele>170.1999969482421875</ele>
        <time>2022-06-04T07:24:57.000Z</time>
      </trkpt>
      <trkpt lat="43.47643311135470867156982421875" lon="-5.6622463278472423553466796875">
        <ele>170.399993896484375</ele>
        <time>2022-06-04T07:24:58.000Z</time>
      </trkpt>
      <trkpt lat="43.4764336980879306793212890625" lon="-5.66222663037478923797607421875">
        <ele>170.600006103515625</ele>
        <time>2022-06-04T07:24:59.000Z</time>
      </trkpt>
      <trkpt lat="43.47642757929861545562744140625" lon="-5.66218656487762928009033203125">
        <ele>171</ele>
        <time>2022-06-04T07:25:01.000Z</time>
      </trkpt>
      <trkpt lat="43.47641131840646266937255859375" lon="-5.66215521655976772308349609375">
        <ele>171.600006103515625</ele>
        <time>2022-06-04T07:25:03.000Z</time>
      </trkpt>
      <trkpt lat="43.47640109248459339141845703125" lon="-5.66214214079082012176513671875">
        <ele>171.8000030517578125</ele>
        <time>2022-06-04T07:25:04.000Z</time>
      </trkpt>
      <trkpt lat="43.47638969309628009796142578125" lon="-5.6621303223073482513427734375">
        <ele>172.1999969482421875</ele>
        <time>2022-06-04T07:25:05.000Z</time>
      </trkpt>
      <trkpt lat="43.47637728787958621978759765625" lon="-5.6621226109564304351806640625">
        <ele>172.399993896484375</ele>
        <time>2022-06-04T07:25:06.000Z</time>
      </trkpt>
      <trkpt lat="43.4763632901012897491455078125" lon="-5.6621192581951618194580078125">
        <ele>172.600006103515625</ele>
        <time>2022-06-04T07:25:07.000Z</time>
      </trkpt>
      <trkpt lat="43.47633353434503078460693359375" lon="-5.662115402519702911376953125">
        <ele>172.8000030517578125</ele>
        <time>2022-06-04T07:25:09.000Z</time>
      </trkpt>
      <trkpt lat="43.4763207100331783294677734375" lon="-5.66211749799549579620361328125">
        <ele>173</ele>
        <time>2022-06-04T07:25:10.000Z</time>
      </trkpt>
      <trkpt lat="43.47630838863551616668701171875" lon="-5.66212353296577930450439453125">
        <ele>173.1999969482421875</ele>
        <time>2022-06-04T07:25:11.000Z</time>
      </trkpt>
      <trkpt lat="43.47628760151565074920654296875" lon="-5.66214348189532756805419921875">
        <ele>173.8000030517578125</ele>
        <time>2022-06-04T07:25:13.000Z</time>
      </trkpt>
      <trkpt lat="43.476266562938690185546875" lon="-5.66216426901519298553466796875">
        <ele>174.1999969482421875</ele>
        <time>2022-06-04T07:25:15.000Z</time>
      </trkpt>
      <trkpt lat="43.4762462787330150604248046875" lon="-5.6621913425624370574951171875">
        <ele>174.600006103515625</ele>
        <time>2022-06-04T07:25:17.000Z</time>
      </trkpt>
      <trkpt lat="43.476226665079593658447265625" lon="-5.66222026012837886810302734375">
        <ele>175</ele>
        <time>2022-06-04T07:25:19.000Z</time>
      </trkpt>
      <trkpt lat="43.47621786408126354217529296875" lon="-5.6622362695634365081787109375">
        <ele>175.399993896484375</ele>
        <time>2022-06-04T07:25:20.000Z</time>
      </trkpt>
      <trkpt lat="43.4762090630829334259033203125" lon="-5.6622520275413990020751953125">
        <ele>175.600006103515625</ele>
        <time>2022-06-04T07:25:21.000Z</time>
      </trkpt>
      <trkpt lat="43.4761902876198291778564453125" lon="-5.66228262148797512054443359375">
        <ele>176</ele>
        <time>2022-06-04T07:25:23.000Z</time>
      </trkpt>
      <trkpt lat="43.4761695004999637603759765625" lon="-5.6623117066919803619384765625">
        <ele>176.399993896484375</ele>
        <time>2022-06-04T07:25:25.000Z</time>
      </trkpt>
      <trkpt lat="43.476146869361400604248046875" lon="-5.66234196536242961883544921875">
        <ele>176.8000030517578125</ele>
        <time>2022-06-04T07:25:27.000Z</time>
      </trkpt>
      <trkpt lat="43.47612365148961544036865234375" lon="-5.6623700447380542755126953125">
        <ele>177.399993896484375</ele>
        <time>2022-06-04T07:25:29.000Z</time>
      </trkpt>
      <trkpt lat="43.47611191682517528533935546875" lon="-5.6623841263353824615478515625">
        <ele>177.600006103515625</ele>
        <time>2022-06-04T07:25:30.000Z</time>
      </trkpt>
      <trkpt lat="43.476098589599132537841796875" lon="-5.66239678300917148590087890625">
        <ele>178</ele>
        <time>2022-06-04T07:25:31.000Z</time>
      </trkpt>
      <trkpt lat="43.47607067786157131195068359375" lon="-5.66241740249097347259521484375">
        <ele>178.600006103515625</ele>
        <time>2022-06-04T07:25:33.000Z</time>
      </trkpt>
      <trkpt lat="43.47605668008327484130859375" lon="-5.6624253652989864349365234375">
        <ele>178.8000030517578125</ele>
        <time>2022-06-04T07:25:34.000Z</time>
      </trkpt>
      <trkpt lat="43.47604184411466121673583984375" lon="-5.66243089735507965087890625">
        <ele>179</ele>
        <time>2022-06-04T07:25:35.000Z</time>
      </trkpt>
      <trkpt lat="43.47601518966257572174072265625" lon="-5.662443973124027252197265625">
        <ele>179.8000030517578125</ele>
        <time>2022-06-04T07:25:37.000Z</time>
      </trkpt>
      <trkpt lat="43.47598493099212646484375" lon="-5.6624602340161800384521484375">
        <ele>180.399993896484375</ele>
        <time>2022-06-04T07:25:39.000Z</time>
      </trkpt>
      <trkpt lat="43.47595752216875553131103515625" lon="-5.6624736450612545013427734375">
        <ele>181</ele>
        <time>2022-06-04T07:25:41.000Z</time>
      </trkpt>
      <trkpt lat="43.47593070007860660552978515625" lon="-5.66248261369764804840087890625">
        <ele>181.399993896484375</ele>
        <time>2022-06-04T07:25:43.000Z</time>
      </trkpt>
      <trkpt lat="43.475918211042881011962890625" lon="-5.66249015741050243377685546875">
        <ele>181.399993896484375</ele>
        <time>2022-06-04T07:25:44.000Z</time>
      </trkpt>
      <trkpt lat="43.4759056381881237030029296875" lon="-5.6625001318752765655517578125">
        <ele>181.600006103515625</ele>
        <time>2022-06-04T07:25:45.000Z</time>
      </trkpt>
      <trkpt lat="43.47587965428829193115234375" lon="-5.6625219248235225677490234375">
        <ele>182</ele>
        <time>2022-06-04T07:25:47.000Z</time>
      </trkpt>
      <trkpt lat="43.475851826369762420654296875" lon="-5.662535838782787322998046875">
        <ele>182.399993896484375</ele>
        <time>2022-06-04T07:25:49.000Z</time>
      </trkpt>
      <trkpt lat="43.47582123242318630218505859375" lon="-5.6625407002866268157958984375">
        <ele>182.600006103515625</ele>
        <time>2022-06-04T07:25:51.000Z</time>
      </trkpt>
      <trkpt lat="43.47579114139080047607421875" lon="-5.66254748962819576263427734375">
        <ele>183</ele>
        <time>2022-06-04T07:25:53.000Z</time>
      </trkpt>
      <trkpt lat="43.4757758863270282745361328125" lon="-5.66255385987460613250732421875">
        <ele>183</ele>
        <time>2022-06-04T07:25:54.000Z</time>
      </trkpt>
      <trkpt lat="43.475761301815509796142578125" lon="-5.66256056539714336395263671875">
        <ele>183.399993896484375</ele>
        <time>2022-06-04T07:25:55.000Z</time>
      </trkpt>
      <trkpt lat="43.4757336415350437164306640625" lon="-5.66257975995540618896484375">
        <ele>183.8000030517578125</ele>
        <time>2022-06-04T07:25:57.000Z</time>
      </trkpt>
      <trkpt lat="43.47571981139481067657470703125" lon="-5.6625896506011486053466796875">
        <ele>184</ele>
        <time>2022-06-04T07:25:58.000Z</time>
      </trkpt>
      <trkpt lat="43.47570656798779964447021484375" lon="-5.66259895451366901397705078125">
        <ele>184.399993896484375</ele>
        <time>2022-06-04T07:25:59.000Z</time>
      </trkpt>
      <trkpt lat="43.475681841373443603515625" lon="-5.66261404193937778472900390625">
        <ele>185.399993896484375</ele>
        <time>2022-06-04T07:26:01.000Z</time>
      </trkpt>
      <trkpt lat="43.4756568633019924163818359375" lon="-5.66263114102184772491455078125">
        <ele>186</ele>
        <time>2022-06-04T07:26:03.000Z</time>
      </trkpt>
      <trkpt lat="43.47564487718045711517333984375" lon="-5.66263918764889240264892578125">
        <ele>186.399993896484375</ele>
        <time>2022-06-04T07:26:04.000Z</time>
      </trkpt>
      <trkpt lat="43.47563314251601696014404296875" lon="-5.66264622844755649566650390625">
        <ele>186.600006103515625</ele>
        <time>2022-06-04T07:26:05.000Z</time>
      </trkpt>
      <trkpt lat="43.47560875117778778076171875" lon="-5.66265980713069438934326171875">
        <ele>187.1999969482421875</ele>
        <time>2022-06-04T07:26:07.000Z</time>
      </trkpt>
      <trkpt lat="43.47559844143688678741455078125" lon="-5.66266936250030994415283203125">
        <ele>187.600006103515625</ele>
        <time>2022-06-04T07:26:08.000Z</time>
      </trkpt>
      <trkpt lat="43.475590646266937255859375" lon="-5.66268210299313068389892578125">
        <ele>188</ele>
        <time>2022-06-04T07:26:09.000Z</time>
      </trkpt>
      <trkpt lat="43.47557916305959224700927734375" lon="-5.6627106852829456329345703125">
        <ele>188.600006103515625</ele>
        <time>2022-06-04T07:26:11.000Z</time>
      </trkpt>
      <trkpt lat="43.475572876632213592529296875" lon="-5.6627240963280200958251953125">
        <ele>189</ele>
        <time>2022-06-04T07:26:12.000Z</time>
      </trkpt>
      <trkpt lat="43.4755663387477397918701171875" lon="-5.662739686667919158935546875">
        <ele>189.1999969482421875</ele>
        <time>2022-06-04T07:26:13.000Z</time>
      </trkpt>
      <trkpt lat="43.4755592979490756988525390625" lon="-5.66277556121349334716796875">
        <ele>189.8000030517578125</ele>
        <time>2022-06-04T07:26:15.000Z</time>
      </trkpt>
      <trkpt lat="43.47555602900683879852294921875" lon="-5.66279274411499500274658203125">
        <ele>190</ele>
        <time>2022-06-04T07:26:16.000Z</time>
      </trkpt>
      <trkpt lat="43.47555200569331645965576171875" lon="-5.66281034611165523529052734375">
        <ele>190.399993896484375</ele>
        <time>2022-06-04T07:26:17.000Z</time>
      </trkpt>
      <trkpt lat="43.475548066198825836181640625" lon="-5.66282811574637889862060546875">
        <ele>190.600006103515625</ele>
        <time>2022-06-04T07:26:18.000Z</time>
      </trkpt>
      <trkpt lat="43.47554362379014492034912109375" lon="-5.6628444604575634002685546875">
        <ele>190.8000030517578125</ele>
        <time>2022-06-04T07:26:19.000Z</time>
      </trkpt>
      <trkpt lat="43.4755348227918148040771484375" lon="-5.66287455148994922637939453125">
        <ele>191.1999969482421875</ele>
        <time>2022-06-04T07:26:21.000Z</time>
      </trkpt>
      <trkpt lat="43.47552769817411899566650390625" lon="-5.662905983626842498779296875">
        <ele>191.600006103515625</ele>
        <time>2022-06-04T07:26:23.000Z</time>
      </trkpt>
      <trkpt lat="43.47552317194640636444091796875" lon="-5.6629212386906147003173828125">
        <ele>192</ele>
        <time>2022-06-04T07:26:24.000Z</time>
      </trkpt>
      <trkpt lat="43.47551621496677398681640625" lon="-5.6629358232021331787109375">
        <ele>192.1999969482421875</ele>
        <time>2022-06-04T07:26:25.000Z</time>
      </trkpt>
      <trkpt lat="43.47550607286393642425537109375" lon="-5.66296524368226528167724609375">
        <ele>192.8000030517578125</ele>
        <time>2022-06-04T07:26:27.000Z</time>
      </trkpt>
      <trkpt lat="43.47549601458013057708740234375" lon="-5.66299826838076114654541015625">
        <ele>193.399993896484375</ele>
        <time>2022-06-04T07:26:29.000Z</time>
      </trkpt>
      <trkpt lat="43.47548226825892925262451171875" lon="-5.663026012480258941650390625">
        <ele>193.8000030517578125</ele>
        <time>2022-06-04T07:26:31.000Z</time>
      </trkpt>
      <trkpt lat="43.47546952776610851287841796875" lon="-5.66305493004620075225830078125">
        <ele>194.399993896484375</ele>
        <time>2022-06-04T07:26:33.000Z</time>
      </trkpt>
      <trkpt lat="43.47546181641519069671630859375" lon="-5.66306783817708492279052734375">
        <ele>194.600006103515625</ele>
        <time>2022-06-04T07:26:34.000Z</time>
      </trkpt>
      <trkpt lat="43.47545477561652660369873046875" lon="-5.6630811654031276702880859375">
        <ele>194.8000030517578125</ele>
        <time>2022-06-04T07:26:35.000Z</time>
      </trkpt>
      <trkpt lat="43.4754396043717861175537109375" lon="-5.66310723312199115753173828125">
        <ele>195.1999969482421875</ele>
        <time>2022-06-04T07:26:37.000Z</time>
      </trkpt>
      <trkpt lat="43.47543172538280487060546875" lon="-5.6631210632622241973876953125">
        <ele>195.600006103515625</ele>
        <time>2022-06-04T07:26:38.000Z</time>
      </trkpt>
      <trkpt lat="43.4754235111176967620849609375" lon="-5.663133971393108367919921875">
        <ele>195.8000030517578125</ele>
        <time>2022-06-04T07:26:39.000Z</time>
      </trkpt>
      <trkpt lat="43.47540892660617828369140625" lon="-5.663159452378749847412109375">
        <ele>196.399993896484375</ele>
        <time>2022-06-04T07:26:41.000Z</time>
      </trkpt>
      <trkpt lat="43.47540096379816532135009765625" lon="-5.66317143850028514862060546875">
        <ele>196.600006103515625</ele>
        <time>2022-06-04T07:26:42.000Z</time>
      </trkpt>
      <trkpt lat="43.475392498075962066650390625" lon="-5.663182921707630157470703125">
        <ele>196.8000030517578125</ele>
        <time>2022-06-04T07:26:43.000Z</time>
      </trkpt>
      <trkpt lat="43.47537514753639698028564453125" lon="-5.66320613957941532135009765625">
        <ele>197.399993896484375</ele>
        <time>2022-06-04T07:26:45.000Z</time>
      </trkpt>
      <trkpt lat="43.4753661789000034332275390625" lon="-5.6632176227867603302001953125">
        <ele>197.600006103515625</ele>
        <time>2022-06-04T07:26:46.000Z</time>
      </trkpt>
      <trkpt lat="43.4753581322729587554931640625" lon="-5.663229860365390777587890625">
        <ele>198</ele>
        <time>2022-06-04T07:26:47.000Z</time>
      </trkpt>
      <trkpt lat="43.47535033710300922393798828125" lon="-5.66324226558208465576171875">
        <ele>198.1999969482421875</ele>
        <time>2022-06-04T07:26:48.000Z</time>
      </trkpt>
      <trkpt lat="43.4753430448472499847412109375" lon="-5.6632548384368419647216796875">
        <ele>198.399993896484375</ele>
        <time>2022-06-04T07:26:49.000Z</time>
      </trkpt>
      <trkpt lat="43.4753353334963321685791015625" lon="-5.66326816566288471221923828125">
        <ele>198.600006103515625</ele>
        <time>2022-06-04T07:26:50.000Z</time>
      </trkpt>
      <trkpt lat="43.47532720305025577545166015625" lon="-5.66328057087957859039306640625">
        <ele>199</ele>
        <time>2022-06-04T07:26:51.000Z</time>
      </trkpt>
      <trkpt lat="43.47530725412070751190185546875" lon="-5.66329917870461940765380859375">
        <ele>199.399993896484375</ele>
        <time>2022-06-04T07:26:53.000Z</time>
      </trkpt>
      <trkpt lat="43.4752850420773029327392578125" lon="-5.663315020501613616943359375">
        <ele>200.1999969482421875</ele>
        <time>2022-06-04T07:26:55.000Z</time>
      </trkpt>
      <trkpt lat="43.4752612374722957611083984375" lon="-5.66332675516605377197265625">
        <ele>200.8000030517578125</ele>
        <time>2022-06-04T07:26:57.000Z</time>
      </trkpt>
      <trkpt lat="43.47523860633373260498046875" lon="-5.66333957947790622711181640625">
        <ele>201.399993896484375</ele>
        <time>2022-06-04T07:26:59.000Z</time>
      </trkpt>
      <trkpt lat="43.4752169810235500335693359375" lon="-5.663352571427822113037109375">
        <ele>202</ele>
        <time>2022-06-04T07:27:01.000Z</time>
      </trkpt>
      <trkpt lat="43.47519644536077976226806640625" lon="-5.66336472518742084503173828125">
        <ele>202.399993896484375</ele>
        <time>2022-06-04T07:27:03.000Z</time>
      </trkpt>
      <trkpt lat="43.475172221660614013671875" lon="-5.66337763331830501556396484375">
        <ele>203</ele>
        <time>2022-06-04T07:27:05.000Z</time>
      </trkpt>
      <trkpt lat="43.47516157664358615875244140625" lon="-5.66338618285953998565673828125">
        <ele>203.399993896484375</ele>
        <time>2022-06-04T07:27:06.000Z</time>
      </trkpt>
      <trkpt lat="43.47515235655009746551513671875" lon="-5.6633969955146312713623046875">
        <ele>203.600006103515625</ele>
        <time>2022-06-04T07:27:07.000Z</time>
      </trkpt>
      <trkpt lat="43.47513592801988124847412109375" lon="-5.66342121921479701995849609375">
        <ele>204.1999969482421875</ele>
        <time>2022-06-04T07:27:09.000Z</time>
      </trkpt>
      <trkpt lat="43.47511832602322101593017578125" lon="-5.6634462811052799224853515625">
        <ele>204.600006103515625</ele>
        <time>2022-06-04T07:27:11.000Z</time>
      </trkpt>
      <trkpt lat="43.475103490054607391357421875" lon="-5.663475953042507171630859375">
        <ele>205.1999969482421875</ele>
        <time>2022-06-04T07:27:13.000Z</time>
      </trkpt>
      <trkpt lat="43.47509603016078472137451171875" lon="-5.663492046296596527099609375">
        <ele>205.399993896484375</ele>
        <time>2022-06-04T07:27:14.000Z</time>
      </trkpt>
      <trkpt lat="43.475087396800518035888671875" lon="-5.66350788809359073638916015625">
        <ele>205.8000030517578125</ele>
        <time>2022-06-04T07:27:15.000Z</time>
      </trkpt>
      <trkpt lat="43.475070297718048095703125" lon="-5.66353890113532543182373046875">
        <ele>206.1999969482421875</ele>
        <time>2022-06-04T07:27:17.000Z</time>
      </trkpt>
      <trkpt lat="43.4750540368258953094482421875" lon="-5.66356815397739410400390625">
        <ele>206.600006103515625</ele>
        <time>2022-06-04T07:27:19.000Z</time>
      </trkpt>
      <trkpt lat="43.47504540346562862396240234375" lon="-5.6635807268321514129638671875">
        <ele>207</ele>
        <time>2022-06-04T07:27:20.000Z</time>
      </trkpt>
      <trkpt lat="43.4750369377434253692626953125" lon="-5.66359539516270160675048828125">
        <ele>207.1999969482421875</ele>
        <time>2022-06-04T07:27:21.000Z</time>
      </trkpt>
      <trkpt lat="43.47502159886062145233154296875" lon="-5.66362355835735797882080078125">
        <ele>207.8000030517578125</ele>
        <time>2022-06-04T07:27:23.000Z</time>
      </trkpt>
      <trkpt lat="43.4750161506235599517822265625" lon="-5.66363990306854248046875">
        <ele>207.8000030517578125</ele>
        <time>2022-06-04T07:27:24.000Z</time>
      </trkpt>
      <trkpt lat="43.4750124625861644744873046875" lon="-5.6636581756174564361572265625">
        <ele>208</ele>
        <time>2022-06-04T07:27:25.000Z</time>
      </trkpt>
      <trkpt lat="43.4750030748546123504638671875" lon="-5.6636948883533477783203125">
        <ele>208.399993896484375</ele>
        <time>2022-06-04T07:27:27.000Z</time>
      </trkpt>
      <trkpt lat="43.4749933518469333648681640625" lon="-5.663734786212444305419921875">
        <ele>209.1999969482421875</ele>
        <time>2022-06-04T07:27:29.000Z</time>
      </trkpt>
      <trkpt lat="43.47499293275177478790283203125" lon="-5.66377912648022174835205078125">
        <ele>209.600006103515625</ele>
        <time>2022-06-04T07:27:31.000Z</time>
      </trkpt>
      <trkpt lat="43.47498773597180843353271484375" lon="-5.66382707096636295318603515625">
        <ele>210</ele>
        <time>2022-06-04T07:27:33.000Z</time>
      </trkpt>
      <trkpt lat="43.47498186863958835601806640625" lon="-5.66387384198606014251708984375">
        <ele>210.1999969482421875</ele>
        <time>2022-06-04T07:27:35.000Z</time>
      </trkpt>
      <trkpt lat="43.4749792702496051788330078125" lon="-5.66392145119607448577880859375">
        <ele>210.600006103515625</ele>
        <time>2022-06-04T07:27:37.000Z</time>
      </trkpt>
      <trkpt lat="43.47497843205928802490234375" lon="-5.6639438308775424957275390625">
        <ele>210.8000030517578125</ele>
        <time>2022-06-04T07:27:38.000Z</time>
      </trkpt>
      <trkpt lat="43.474977426230907440185546875" lon="-5.6639666296541690826416015625">
        <ele>210.8000030517578125</ele>
        <time>2022-06-04T07:27:39.000Z</time>
      </trkpt>
      <trkpt lat="43.47497734241187572479248046875" lon="-5.66401298157870769500732421875">
        <ele>211.1999969482421875</ele>
        <time>2022-06-04T07:27:41.000Z</time>
      </trkpt>
      <trkpt lat="43.47497583366930484771728515625" lon="-5.6640569865703582763671875">
        <ele>211.399993896484375</ele>
        <time>2022-06-04T07:27:43.000Z</time>
      </trkpt>
      <trkpt lat="43.47497466020286083221435546875" lon="-5.66410132683813571929931640625">
        <ele>211.600006103515625</ele>
        <time>2022-06-04T07:27:45.000Z</time>
      </trkpt>
      <trkpt lat="43.47497566603124141693115234375" lon="-5.66412270069122314453125">
        <ele>211.8000030517578125</ele>
        <time>2022-06-04T07:27:46.000Z</time>
      </trkpt>
      <trkpt lat="43.47497616894543170928955078125" lon="-5.664143823087215423583984375">
        <ele>212</ele>
        <time>2022-06-04T07:27:47.000Z</time>
      </trkpt>
      <trkpt lat="43.47497583366930484771728515625" lon="-5.66418380476534366607666015625">
        <ele>212.1999969482421875</ele>
        <time>2022-06-04T07:27:49.000Z</time>
      </trkpt>
      <trkpt lat="43.4749759174883365631103515625" lon="-5.664222948253154754638671875">
        <ele>212.600006103515625</ele>
        <time>2022-06-04T07:27:51.000Z</time>
      </trkpt>
      <trkpt lat="43.47497935406863689422607421875" lon="-5.6642599962651729583740234375">
        <ele>213</ele>
        <time>2022-06-04T07:27:53.000Z</time>
      </trkpt>
      <trkpt lat="43.474990166723728179931640625" lon="-5.66429578699171543121337890625">
        <ele>213.1999969482421875</ele>
        <time>2022-06-04T07:27:55.000Z</time>
      </trkpt>
      <trkpt lat="43.47499142400920391082763671875" lon="-5.66431380808353424072265625">
        <ele>213.399993896484375</ele>
        <time>2022-06-04T07:27:56.000Z</time>
      </trkpt>
      <trkpt lat="43.47499108873307704925537109375" lon="-5.664332918822765350341796875">
        <ele>213.600006103515625</ele>
        <time>2022-06-04T07:27:57.000Z</time>
      </trkpt>
      <trkpt lat="43.47499058581888675689697265625" lon="-5.6643686257302761077880859375">
        <ele>213.8000030517578125</ele>
        <time>2022-06-04T07:27:59.000Z</time>
      </trkpt>
      <trkpt lat="43.47499242983758449554443359375" lon="-5.6644065119326114654541015625">
        <ele>214.399993896484375</ele>
        <time>2022-06-04T07:28:01.000Z</time>
      </trkpt>
      <trkpt lat="43.474994190037250518798828125" lon="-5.66442620940506458282470703125">
        <ele>214.600006103515625</ele>
        <time>2022-06-04T07:28:02.000Z</time>
      </trkpt>
      <trkpt lat="43.474996201694011688232421875" lon="-5.66444498486816883087158203125">
        <ele>214.8000030517578125</ele>
        <time>2022-06-04T07:28:03.000Z</time>
      </trkpt>
      <trkpt lat="43.47499829716980457305908203125" lon="-5.6644806079566478729248046875">
        <ele>215.1999969482421875</ele>
        <time>2022-06-04T07:28:05.000Z</time>
      </trkpt>
      <trkpt lat="43.47499460913240909576416015625" lon="-5.66450935788452625274658203125">
        <ele>215.600006103515625</ele>
        <time>2022-06-04T07:28:07.000Z</time>
      </trkpt>
      <trkpt lat="43.47498253919184207916259765625" lon="-5.6645402871072292327880859375">
        <ele>216.1999969482421875</ele>
        <time>2022-06-04T07:28:09.000Z</time>
      </trkpt>
      <trkpt lat="43.47497415728867053985595703125" lon="-5.66455847583711147308349609375">
        <ele>216.399993896484375</ele>
        <time>2022-06-04T07:28:10.000Z</time>
      </trkpt>
      <trkpt lat="43.47496745176613330841064453125" lon="-5.66457792185246944427490234375">
        <ele>216.8000030517578125</ele>
        <time>2022-06-04T07:28:11.000Z</time>
      </trkpt>
      <trkpt lat="43.4749544598162174224853515625" lon="-5.66461614333093166351318359375">
        <ele>217.1999969482421875</ele>
        <time>2022-06-04T07:28:13.000Z</time>
      </trkpt>
      <trkpt lat="43.474943228065967559814453125" lon="-5.664655454456806182861328125">
        <ele>217.600006103515625</ele>
        <time>2022-06-04T07:28:15.000Z</time>
      </trkpt>
      <trkpt lat="43.4749400429427623748779296875" lon="-5.66467850469052791595458984375">
        <ele>218</ele>
        <time>2022-06-04T07:28:16.000Z</time>
      </trkpt>
      <trkpt lat="43.4749356843531131744384765625" lon="-5.66469996236264705657958984375">
        <ele>218.1999969482421875</ele>
        <time>2022-06-04T07:28:17.000Z</time>
      </trkpt>
      <trkpt lat="43.47493526525795459747314453125" lon="-5.664741285145282745361328125">
        <ele>218.600006103515625</ele>
        <time>2022-06-04T07:28:19.000Z</time>
      </trkpt>
      <trkpt lat="43.4749393723905086517333984375" lon="-5.6647622399032115936279296875">
        <ele>219.1999969482421875</ele>
        <time>2022-06-04T07:28:20.000Z</time>
      </trkpt>
      <trkpt lat="43.474944569170475006103515625" lon="-5.664784871041774749755859375">
        <ele>219.399993896484375</ele>
        <time>2022-06-04T07:28:21.000Z</time>
      </trkpt>
      <trkpt lat="43.47495487891137599945068359375" lon="-5.66482703201472759246826171875">
        <ele>220</ele>
        <time>2022-06-04T07:28:23.000Z</time>
      </trkpt>
      <trkpt lat="43.47495856694877147674560546875" lon="-5.664849579334259033203125">
        <ele>220.399993896484375</ele>
        <time>2022-06-04T07:28:24.000Z</time>
      </trkpt>
      <trkpt lat="43.47495923750102519989013671875" lon="-5.6648735515773296356201171875">
        <ele>220.600006103515625</ele>
        <time>2022-06-04T07:28:25.000Z</time>
      </trkpt>
      <trkpt lat="43.47495202906429767608642578125" lon="-5.66492308862507343292236328125">
        <ele>221.1999969482421875</ele>
        <time>2022-06-04T07:28:27.000Z</time>
      </trkpt>
      <trkpt lat="43.47494062967598438262939453125" lon="-5.66497053019702434539794921875">
        <ele>221.600006103515625</ele>
        <time>2022-06-04T07:28:29.000Z</time>
      </trkpt>
      <trkpt lat="43.47493208013474941253662109375" lon="-5.6649929098784923553466796875">
        <ele>221.8000030517578125</ele>
        <time>2022-06-04T07:28:30.000Z</time>
      </trkpt>
      <trkpt lat="43.47492218948900699615478515625" lon="-5.6650173850357532501220703125">
        <ele>222</ele>
        <time>2022-06-04T07:28:31.000Z</time>
      </trkpt>
      <trkpt lat="43.47490198910236358642578125" lon="-5.66506759263575077056884765625">
        <ele>222.399993896484375</ele>
        <time>2022-06-04T07:28:33.000Z</time>
      </trkpt>
      <trkpt lat="43.474877513945102691650390625" lon="-5.66511000506579875946044921875">
        <ele>222.8000030517578125</ele>
        <time>2022-06-04T07:28:35.000Z</time>
      </trkpt>
      <trkpt lat="43.47484457306563854217529296875" lon="-5.6651486456394195556640625">
        <ele>223.1999969482421875</ele>
        <time>2022-06-04T07:28:37.000Z</time>
      </trkpt>
      <trkpt lat="43.4748253785073757171630859375" lon="-5.665167085826396942138671875">
        <ele>223.600006103515625</ele>
        <time>2022-06-04T07:28:39.000Z</time>
      </trkpt>
      <trkpt lat="43.4748183377087116241455078125" lon="-5.6651669181883335113525390625">
        <ele>224</ele>
        <time>2022-06-04T07:28:41.000Z</time>
      </trkpt>
      <trkpt lat="43.4748190082609653472900390625" lon="-5.6651662476360797882080078125">
        <ele>224.1999969482421875</ele>
        <time>2022-06-04T07:28:42.000Z</time>
      </trkpt>
      <trkpt lat="43.4747935272753238677978515625" lon="-5.66527244634926319122314453125">
        <ele>224.8000030517578125</ele>
        <time>2022-06-04T07:29:24.000Z</time>
      </trkpt>
      <trkpt lat="43.47478330135345458984375" lon="-5.66531167365610599517822265625">
        <ele>224.8000030517578125</ele>
        <time>2022-06-04T07:29:25.000Z</time>
      </trkpt>
      <trkpt lat="43.474762849509716033935546875" lon="-5.66540102474391460418701171875">
        <ele>224.8000030517578125</ele>
        <time>2022-06-04T07:29:27.000Z</time>
      </trkpt>
      <trkpt lat="43.4747563116252422332763671875" lon="-5.6654463708400726318359375">
        <ele>224.8000030517578125</ele>
        <time>2022-06-04T07:29:28.000Z</time>
      </trkpt>
      <trkpt lat="43.47475119866430759429931640625" lon="-5.66549439914524555206298828125">
        <ele>225</ele>
        <time>2022-06-04T07:29:29.000Z</time>
      </trkpt>
      <trkpt lat="43.47474331967532634735107421875" lon="-5.66559582017362117767333984375">
        <ele>225.1999969482421875</ele>
        <time>2022-06-04T07:29:31.000Z</time>
      </trkpt>
      <trkpt lat="43.47474046982824802398681640625" lon="-5.6656944751739501953125">
        <ele>225.600006103515625</ele>
        <time>2022-06-04T07:29:33.000Z</time>
      </trkpt>
      <trkpt lat="43.47474080510437488555908203125" lon="-5.66574267111718654632568359375">
        <ele>225.600006103515625</ele>
        <time>2022-06-04T07:29:34.000Z</time>
      </trkpt>
      <trkpt lat="43.47474214620888233184814453125" lon="-5.66578826867043972015380859375">
        <ele>225.8000030517578125</ele>
        <time>2022-06-04T07:29:35.000Z</time>
      </trkpt>
      <trkpt lat="43.47474214620888233184814453125" lon="-5.66586638800799846649169921875">
        <ele>225.8000030517578125</ele>
        <time>2022-06-04T07:29:37.000Z</time>
      </trkpt>
      <trkpt lat="43.47474331967532634735107421875" lon="-5.665935538709163665771484375">
        <ele>225.600006103515625</ele>
        <time>2022-06-04T07:29:39.000Z</time>
      </trkpt>
      <trkpt lat="43.4747445769608020782470703125" lon="-5.6659685634076595306396484375">
        <ele>225.8000030517578125</ele>
        <time>2022-06-04T07:29:40.000Z</time>
      </trkpt>
      <trkpt lat="43.4747442416846752166748046875" lon="-5.66600267775356769561767578125">
        <ele>225.8000030517578125</ele>
        <time>2022-06-04T07:29:41.000Z</time>
      </trkpt>
      <trkpt lat="43.47474063746631145477294921875" lon="-5.66607224754989147186279296875">
        <ele>225.8000030517578125</ele>
        <time>2022-06-04T07:29:43.000Z</time>
      </trkpt>
      <trkpt lat="43.47473611123859882354736328125" lon="-5.66614299081265926361083984375">
        <ele>226</ele>
        <time>2022-06-04T07:29:45.000Z</time>
      </trkpt>
      <trkpt lat="43.4747315011918544769287109375" lon="-5.66621289588510990142822265625">
        <ele>226.1999969482421875</ele>
        <time>2022-06-04T07:29:47.000Z</time>
      </trkpt>
      <trkpt lat="43.47473032772541046142578125" lon="-5.6662805378437042236328125">
        <ele>226.600006103515625</ele>
        <time>2022-06-04T07:29:49.000Z</time>
      </trkpt>
      <trkpt lat="43.4747274778783321380615234375" lon="-5.66634616814553737640380859375">
        <ele>226.8000030517578125</ele>
        <time>2022-06-04T07:29:51.000Z</time>
      </trkpt>
      <trkpt lat="43.47473141737282276153564453125" lon="-5.66641330718994140625">
        <ele>227</ele>
        <time>2022-06-04T07:29:53.000Z</time>
      </trkpt>
      <trkpt lat="43.47473342902958393096923828125" lon="-5.66648011095821857452392578125">
        <ele>227.399993896484375</ele>
        <time>2022-06-04T07:29:55.000Z</time>
      </trkpt>
      <trkpt lat="43.47473627887666225433349609375" lon="-5.6665127165615558624267578125">
        <ele>227.600006103515625</ele>
        <time>2022-06-04T07:29:56.000Z</time>
      </trkpt>
      <trkpt lat="43.4747422300279140472412109375" lon="-5.66654548980295658111572265625">
        <ele>227.8000030517578125</ele>
        <time>2022-06-04T07:29:57.000Z</time>
      </trkpt>
      <trkpt lat="43.4747536294162273406982421875" lon="-5.6666099466383457183837890625">
        <ele>228.1999969482421875</ele>
        <time>2022-06-04T07:29:59.000Z</time>
      </trkpt>
      <trkpt lat="43.47475714981555938720703125" lon="-5.66667339764535427093505859375">
        <ele>228.600006103515625</ele>
        <time>2022-06-04T07:30:01.000Z</time>
      </trkpt>
      <trkpt lat="43.47476108931005001068115234375" lon="-5.66670524887740612030029296875">
        <ele>228.8000030517578125</ele>
        <time>2022-06-04T07:30:02.000Z</time>
      </trkpt>
      <trkpt lat="43.47477056086063385009765625" lon="-5.66673642955720424652099609375">
        <ele>229</ele>
        <time>2022-06-04T07:30:03.000Z</time>
      </trkpt>
      <trkpt lat="43.474790342152118682861328125" lon="-5.6668007187545299530029296875">
        <ele>229.399993896484375</ele>
        <time>2022-06-04T07:30:05.000Z</time>
      </trkpt>
      <trkpt lat="43.4748089499771595001220703125" lon="-5.6668664328753948211669921875">
        <ele>229.600006103515625</ele>
        <time>2022-06-04T07:30:07.000Z</time>
      </trkpt>
      <trkpt lat="43.4748267196118831634521484375" lon="-5.666928626596927642822265625">
        <ele>229.8000030517578125</ele>
        <time>2022-06-04T07:30:09.000Z</time>
      </trkpt>
      <trkpt lat="43.4748436510562896728515625" lon="-5.66698931157588958740234375">
        <ele>230</ele>
        <time>2022-06-04T07:30:10.000Z</time>
      </trkpt>
      <trkpt lat="43.4748436510562896728515625" lon="-5.66698931157588958740234375">
        <ele>230.1999969482421875</ele>
        <time>2022-06-04T07:30:11.000Z</time>
      </trkpt>
      <trkpt lat="43.47486116923391819000244140625" lon="-5.6670474819839000701904296875">
        <ele>230.399993896484375</ele>
        <time>2022-06-04T07:30:13.000Z</time>
      </trkpt>
      <trkpt lat="43.47487340681254863739013671875" lon="-5.66709986887872219085693359375">
        <ele>230.399993896484375</ele>
        <time>2022-06-04T07:30:15.000Z</time>
      </trkpt>
      <trkpt lat="43.47488698549568653106689453125" lon="-5.66714731045067310333251953125">
        <ele>230.600006103515625</ele>
        <time>2022-06-04T07:30:17.000Z</time>
      </trkpt>
      <trkpt lat="43.4749018214643001556396484375" lon="-5.6671936623752117156982421875">
        <ele>230.8000030517578125</ele>
        <time>2022-06-04T07:30:19.000Z</time>
      </trkpt>
      <trkpt lat="43.47491682507097721099853515625" lon="-5.66723314113914966583251953125">
        <ele>231.1999969482421875</ele>
        <time>2022-06-04T07:30:21.000Z</time>
      </trkpt>
      <trkpt lat="43.47493425942957401275634765625" lon="-5.6672711111605167388916015625">
        <ele>231.399993896484375</ele>
        <time>2022-06-04T07:30:23.000Z</time>
      </trkpt>
      <trkpt lat="43.47494767047464847564697265625" lon="-5.6673079915344715118408203125">
        <ele>231.8000030517578125</ele>
        <time>2022-06-04T07:30:25.000Z</time>
      </trkpt>
      <trkpt lat="43.4749591536819934844970703125" lon="-5.6673455424606800079345703125">
        <ele>232.1999969482421875</ele>
        <time>2022-06-04T07:30:27.000Z</time>
      </trkpt>
      <trkpt lat="43.47497013397514820098876953125" lon="-5.6673851050436496734619140625">
        <ele>232.399993896484375</ele>
        <time>2022-06-04T07:30:29.000Z</time>
      </trkpt>
      <trkpt lat="43.47498103044927120208740234375" lon="-5.66742491908371448516845703125">
        <ele>232.8000030517578125</ele>
        <time>2022-06-04T07:30:31.000Z</time>
      </trkpt>
      <trkpt lat="43.47498371265828609466552734375" lon="-5.66746716387569904327392578125">
        <ele>233.1999969482421875</ele>
        <time>2022-06-04T07:30:33.000Z</time>
      </trkpt>
      <trkpt lat="43.47497901879251003265380859375" lon="-5.66751301288604736328125">
        <ele>233.600006103515625</ele>
        <time>2022-06-04T07:30:35.000Z</time>
      </trkpt>
      <trkpt lat="43.47496460191905498504638671875" lon="-5.66755550913512706756591796875">
        <ele>234.1999969482421875</ele>
        <time>2022-06-04T07:30:37.000Z</time>
      </trkpt>
      <trkpt lat="43.4749527834355831146240234375" lon="-5.667570345103740692138671875">
        <ele>234.399993896484375</ele>
        <time>2022-06-04T07:30:38.000Z</time>
      </trkpt>
      <trkpt lat="43.47493794746696949005126953125" lon="-5.6675762124359607696533203125">
        <ele>234.600006103515625</ele>
        <time>2022-06-04T07:30:39.000Z</time>
      </trkpt>
      <trkpt lat="43.4749026596546173095703125" lon="-5.66757663153111934661865234375">
        <ele>235.600006103515625</ele>
        <time>2022-06-04T07:30:41.000Z</time>
      </trkpt>
      <trkpt lat="43.4748696349561214447021484375" lon="-5.66757746972143650054931640625">
        <ele>236.1999969482421875</ele>
        <time>2022-06-04T07:30:43.000Z</time>
      </trkpt>
      <trkpt lat="43.4748545475304126739501953125" lon="-5.66757696680724620819091796875">
        <ele>236.600006103515625</ele>
        <time>2022-06-04T07:30:44.000Z</time>
      </trkpt>
      <trkpt lat="43.47483853809535503387451171875" lon="-5.6675758771598339080810546875">
        <ele>237</ele>
        <time>2022-06-04T07:30:45.000Z</time>
      </trkpt>
      <trkpt lat="43.47480853088200092315673828125" lon="-5.66757780499756336212158203125">
        <ele>237.399993896484375</ele>
        <time>2022-06-04T07:30:47.000Z</time>
      </trkpt>
      <trkpt lat="43.4747846424579620361328125" lon="-5.66758283413946628570556640625">
        <ele>237.8000030517578125</ele>
        <time>2022-06-04T07:30:49.000Z</time>
      </trkpt>
      <trkpt lat="43.474761508405208587646484375" lon="-5.6675862707197666168212890625">
        <ele>238.399993896484375</ele>
        <time>2022-06-04T07:30:51.000Z</time>
      </trkpt>
      <trkpt lat="43.47473594360053539276123046875" lon="-5.6675872765481472015380859375">
        <ele>239</ele>
        <time>2022-06-04T07:30:53.000Z</time>
      </trkpt>
      <trkpt lat="43.4747261367738246917724609375" lon="-5.66758836619555950164794921875">
        <ele>239.1999969482421875</ele>
        <time>2022-06-04T07:30:54.000Z</time>
      </trkpt>
      <trkpt lat="43.4747144021093845367431640625" lon="-5.6675896234810352325439453125">
        <ele>239.399993896484375</ele>
        <time>2022-06-04T07:30:55.000Z</time>
      </trkpt>
      <trkpt lat="43.47469269298017024993896484375" lon="-5.66758685745298862457275390625">
        <ele>239.8000030517578125</ele>
        <time>2022-06-04T07:30:57.000Z</time>
      </trkpt>
      <trkpt lat="43.47467039711773395538330078125" lon="-5.66758769564330577850341796875">
        <ele>240.1999969482421875</ele>
        <time>2022-06-04T07:30:59.000Z</time>
      </trkpt>
      <trkpt lat="43.4746476821601390838623046875" lon="-5.66758970730006694793701171875">
        <ele>240.600006103515625</ele>
        <time>2022-06-04T07:31:01.000Z</time>
      </trkpt>
      <trkpt lat="43.4746235422790050506591796875" lon="-5.667585767805576324462890625">
        <ele>241</ele>
        <time>2022-06-04T07:31:03.000Z</time>
      </trkpt>
      <trkpt lat="43.4746102988719940185546875" lon="-5.66758518107235431671142578125">
        <ele>241.1999969482421875</ele>
        <time>2022-06-04T07:31:04.000Z</time>
      </trkpt>
      <trkpt lat="43.4745967201888561248779296875" lon="-5.66758484579622745513916015625">
        <ele>241.399993896484375</ele>
        <time>2022-06-04T07:31:05.000Z</time>
      </trkpt>
      <trkpt lat="43.47457031719386577606201171875" lon="-5.66757881082594394683837890625">
        <ele>242</ele>
        <time>2022-06-04T07:31:07.000Z</time>
      </trkpt>
      <trkpt lat="43.47455824725329875946044921875" lon="-5.66757361404597759246826171875">
        <ele>242.1999969482421875</ele>
        <time>2022-06-04T07:31:08.000Z</time>
      </trkpt>
      <trkpt lat="43.47454668022692203521728515625" lon="-5.66756674088537693023681640625">
        <ele>242.8000030517578125</ele>
        <time>2022-06-04T07:31:09.000Z</time>
      </trkpt>
      <trkpt lat="43.47452270798385143280029296875" lon="-5.66755835898220539093017578125">
        <ele>243.399993896484375</ele>
        <time>2022-06-04T07:31:11.000Z</time>
      </trkpt>
      <trkpt lat="43.474508710205554962158203125" lon="-5.667554922401905059814453125">
        <ele>243.600006103515625</ele>
        <time>2022-06-04T07:31:12.000Z</time>
      </trkpt>
      <trkpt lat="43.474494628608226776123046875" lon="-5.667548887431621551513671875">
        <ele>243.8000030517578125</ele>
        <time>2022-06-04T07:31:13.000Z</time>
      </trkpt>
      <trkpt lat="43.47446747124195098876953125" lon="-5.6675346381962299346923828125">
        <ele>244.399993896484375</ele>
        <time>2022-06-04T07:31:15.000Z</time>
      </trkpt>
      <trkpt lat="43.47444240935146808624267578125" lon="-5.66752466373145580291748046875">
        <ele>245</ele>
        <time>2022-06-04T07:31:17.000Z</time>
      </trkpt>
      <trkpt lat="43.47441676072776317596435546875" lon="-5.66751359961926937103271484375">
        <ele>245.399993896484375</ele>
        <time>2022-06-04T07:31:19.000Z</time>
      </trkpt>
      <trkpt lat="43.47440418787300586700439453125" lon="-5.66750831902027130126953125">
        <ele>245.8000030517578125</ele>
        <time>2022-06-04T07:31:20.000Z</time>
      </trkpt>
      <trkpt lat="43.4743916988372802734375" lon="-5.6675037927925586700439453125">
        <ele>246</ele>
        <time>2022-06-04T07:31:21.000Z</time>
      </trkpt>
      <trkpt lat="43.474367894232273101806640625" lon="-5.6674987636506557464599609375">
        <ele>246.600006103515625</ele>
        <time>2022-06-04T07:31:23.000Z</time>
      </trkpt>
      <trkpt lat="43.4743459336459636688232421875" lon="-5.6674890406429767608642578125">
        <ele>247.399993896484375</ele>
        <time>2022-06-04T07:31:25.000Z</time>
      </trkpt>
      <trkpt lat="43.4743224643170833587646484375" lon="-5.6674773059785366058349609375">
        <ele>247.8000030517578125</ele>
        <time>2022-06-04T07:31:27.000Z</time>
      </trkpt>
      <trkpt lat="43.47430176101624965667724609375" lon="-5.6674642302095890045166015625">
        <ele>248.1999969482421875</ele>
        <time>2022-06-04T07:31:29.000Z</time>
      </trkpt>
      <trkpt lat="43.47428265027701854705810546875" lon="-5.66744419746100902557373046875">
        <ele>248.600006103515625</ele>
        <time>2022-06-04T07:31:31.000Z</time>
      </trkpt>
      <trkpt lat="43.47426521591842174530029296875" lon="-5.667426846921443939208984375">
        <ele>249</ele>
        <time>2022-06-04T07:31:33.000Z</time>
      </trkpt>
      <trkpt lat="43.47424350678920745849609375" lon="-5.66740916110575199127197265625">
        <ele>249.399993896484375</ele>
        <time>2022-06-04T07:31:35.000Z</time>
      </trkpt>
      <trkpt lat="43.47422112710773944854736328125" lon="-5.6673941574990749359130859375">
        <ele>250.1999969482421875</ele>
        <time>2022-06-04T07:31:37.000Z</time>
      </trkpt>
      <trkpt lat="43.47419883124530315399169921875" lon="-5.66737412475049495697021484375">
        <ele>250.399993896484375</ele>
        <time>2022-06-04T07:31:39.000Z</time>
      </trkpt>
      <trkpt lat="43.474176116287708282470703125" lon="-5.66735367290675640106201171875">
        <ele>251</ele>
        <time>2022-06-04T07:31:41.000Z</time>
      </trkpt>
      <trkpt lat="43.47416547127068042755126953125" lon="-5.66734361462295055389404296875">
        <ele>251.1999969482421875</ele>
        <time>2022-06-04T07:31:42.000Z</time>
      </trkpt>
      <trkpt lat="43.47415507771074771881103515625" lon="-5.66733238287270069122314453125">
        <ele>251.399993896484375</ele>
        <time>2022-06-04T07:31:43.000Z</time>
      </trkpt>
      <trkpt lat="43.47414485178887844085693359375" lon="-5.66731964237987995147705078125">
        <ele>251.600006103515625</ele>
        <time>2022-06-04T07:31:44.000Z</time>
      </trkpt>
      <trkpt lat="43.47413479350507259368896484375" lon="-5.66730740480124950408935546875">
        <ele>251.8000030517578125</ele>
        <time>2022-06-04T07:31:45.000Z</time>
      </trkpt>
      <trkpt lat="43.474115766584873199462890625" lon="-5.66728410311043262481689453125">
        <ele>252.1999969482421875</ele>
        <time>2022-06-04T07:31:47.000Z</time>
      </trkpt>
      <trkpt lat="43.474099002778530120849609375" lon="-5.667259879410266876220703125">
        <ele>252.8000030517578125</ele>
        <time>2022-06-04T07:31:49.000Z</time>
      </trkpt>
      <trkpt lat="43.4740820713341236114501953125" lon="-5.66723800264298915863037109375">
        <ele>253.1999969482421875</ele>
        <time>2022-06-04T07:31:51.000Z</time>
      </trkpt>
      <trkpt lat="43.47407184541225433349609375" lon="-5.66722710616886615753173828125">
        <ele>253.399993896484375</ele>
        <time>2022-06-04T07:31:52.000Z</time>
      </trkpt>
      <trkpt lat="43.47406111657619476318359375" lon="-5.6672191433608531951904296875">
        <ele>254</ele>
        <time>2022-06-04T07:31:53.000Z</time>
      </trkpt>
      <trkpt lat="43.474037982523441314697265625" lon="-5.667202211916446685791015625">
        <ele>254.399993896484375</ele>
        <time>2022-06-04T07:31:55.000Z</time>
      </trkpt>
      <trkpt lat="43.4740150161087512969970703125" lon="-5.66718150861561298370361328125">
        <ele>254.8000030517578125</ele>
        <time>2022-06-04T07:31:57.000Z</time>
      </trkpt>
      <trkpt lat="43.47399263642728328704833984375" lon="-5.66716172732412815093994140625">
        <ele>255.1999969482421875</ele>
        <time>2022-06-04T07:31:59.000Z</time>
      </trkpt>
      <trkpt lat="43.47398291341960430145263671875" lon="-5.66715217195451259613037109375">
        <ele>255.399993896484375</ele>
        <time>2022-06-04T07:32:00.000Z</time>
      </trkpt>
      <trkpt lat="43.47397268749773502349853515625" lon="-5.6671457178890705108642578125">
        <ele>255.600006103515625</ele>
        <time>2022-06-04T07:32:01.000Z</time>
      </trkpt>
      <trkpt lat="43.4739610366523265838623046875" lon="-5.66713859327137470245361328125">
        <ele>256</ele>
        <time>2022-06-04T07:32:02.000Z</time>
      </trkpt>
      <trkpt lat="43.47394871525466442108154296875" lon="-5.6671302951872348785400390625">
        <ele>256.20001220703125</ele>
        <time>2022-06-04T07:32:03.000Z</time>
      </trkpt>
      <trkpt lat="43.47392826341092586517333984375" lon="-5.66711269319057464599609375">
        <ele>256.600006103515625</ele>
        <time>2022-06-04T07:32:05.000Z</time>
      </trkpt>
      <trkpt lat="43.4739196300506591796875" lon="-5.66710305400192737579345703125">
        <ele>257.20001220703125</ele>
        <time>2022-06-04T07:32:06.000Z</time>
      </trkpt>
      <trkpt lat="43.473910577595233917236328125" lon="-5.66709400154650211334228515625">
        <ele>257.399993896484375</ele>
        <time>2022-06-04T07:32:07.000Z</time>
      </trkpt>
      <trkpt lat="43.47389305941760540008544921875" lon="-5.66707824356853961944580078125">
        <ele>258</ele>
        <time>2022-06-04T07:32:09.000Z</time>
      </trkpt>
      <trkpt lat="43.4738718532025814056396484375" lon="-5.6670691072940826416015625">
        <ele>258.399993896484375</ele>
        <time>2022-06-04T07:32:11.000Z</time>
      </trkpt>
      <trkpt lat="43.47385056316852569580078125" lon="-5.66704857163131237030029296875">
        <ele>259</ele>
        <time>2022-06-04T07:32:13.000Z</time>
      </trkpt>
      <trkpt lat="43.4738400019705295562744140625" lon="-5.6670391000807285308837890625">
        <ele>259.20001220703125</ele>
        <time>2022-06-04T07:32:14.000Z</time>
      </trkpt>
      <trkpt lat="43.47382801584899425506591796875" lon="-5.6670297123491764068603515625">
        <ele>259.600006103515625</ele>
        <time>2022-06-04T07:32:15.000Z</time>
      </trkpt>
      <trkpt lat="43.4738031215965747833251953125" lon="-5.66700917668640613555908203125">
        <ele>260</ele>
        <time>2022-06-04T07:32:17.000Z</time>
      </trkpt>
      <trkpt lat="43.47378124482929706573486328125" lon="-5.6669854559004306793212890625">
        <ele>260.399993896484375</ele>
        <time>2022-06-04T07:32:19.000Z</time>
      </trkpt>
      <trkpt lat="43.47377068363130092620849609375" lon="-5.66697179339826107025146484375">
        <ele>260.79998779296875</ele>
        <time>2022-06-04T07:32:20.000Z</time>
      </trkpt>
      <trkpt lat="43.47375945188105106353759765625" lon="-5.66695989109575748443603515625">
        <ele>261.20001220703125</ele>
        <time>2022-06-04T07:32:21.000Z</time>
      </trkpt>
      <trkpt lat="43.4737387485802173614501953125" lon="-5.66693742759525775909423828125">
        <ele>261.600006103515625</ele>
        <time>2022-06-04T07:32:23.000Z</time>
      </trkpt>
      <trkpt lat="43.47371821291744709014892578125" lon="-5.66692016087472438812255859375">
        <ele>262</ele>
        <time>2022-06-04T07:32:25.000Z</time>
      </trkpt>
      <trkpt lat="43.47369457595050334930419921875" lon="-5.6668996252119541168212890625">
        <ele>262.20001220703125</ele>
        <time>2022-06-04T07:32:27.000Z</time>
      </trkpt>
      <trkpt lat="43.4736688435077667236328125" lon="-5.66688512451946735382080078125">
        <ele>262.79998779296875</ele>
        <time>2022-06-04T07:32:29.000Z</time>
      </trkpt>
      <trkpt lat="43.473654426634311676025390625" lon="-5.6668759882450103759765625">
        <ele>262.79998779296875</ele>
        <time>2022-06-04T07:32:30.000Z</time>
      </trkpt>
      <trkpt lat="43.47364160232245922088623046875" lon="-5.6668671034276485443115234375">
        <ele>263</ele>
        <time>2022-06-04T07:32:31.000Z</time>
      </trkpt>
      <trkpt lat="43.4736294485628604888916015625" lon="-5.66685914061963558197021484375">
        <ele>263</ele>
        <time>2022-06-04T07:32:32.000Z</time>
      </trkpt>
      <trkpt lat="43.47361662425100803375244140625" lon="-5.66685193218290805816650390625">
        <ele>263.20001220703125</ele>
        <time>2022-06-04T07:32:33.000Z</time>
      </trkpt>
      <trkpt lat="43.4735882095992565155029296875" lon="-5.6668386049568653106689453125">
        <ele>263.399993896484375</ele>
        <time>2022-06-04T07:32:35.000Z</time>
      </trkpt>
      <trkpt lat="43.473554514348506927490234375" lon="-5.66681857220828533172607421875">
        <ele>263.600006103515625</ele>
        <time>2022-06-04T07:32:37.000Z</time>
      </trkpt>
      <trkpt lat="43.473536074161529541015625" lon="-5.66680901683866977691650390625">
        <ele>263.600006103515625</ele>
        <time>2022-06-04T07:32:38.000Z</time>
      </trkpt>
      <trkpt lat="43.47351755015552043914794921875" lon="-5.66680231131613254547119140625">
        <ele>263.79998779296875</ele>
        <time>2022-06-04T07:32:39.000Z</time>
      </trkpt>
      <trkpt lat="43.47347580827772617340087890625" lon="-5.666787810623645782470703125">
        <ele>263.79998779296875</ele>
        <time>2022-06-04T07:32:41.000Z</time>
      </trkpt>
      <trkpt lat="43.47343004308640956878662109375" lon="-5.66677741706371307373046875">
        <ele>264.20001220703125</ele>
        <time>2022-06-04T07:32:43.000Z</time>
      </trkpt>
      <trkpt lat="43.47338343970477581024169921875" lon="-5.66676023416221141815185546875">
        <ele>264.20001220703125</ele>
        <time>2022-06-04T07:32:45.000Z</time>
      </trkpt>
      <trkpt lat="43.47335728816688060760498046875" lon="-5.6667531095445156097412109375">
        <ele>264.20001220703125</ele>
        <time>2022-06-04T07:32:46.000Z</time>
      </trkpt>
      <trkpt lat="43.4733307175338268280029296875" lon="-5.66674414090812206268310546875">
        <ele>264.20001220703125</ele>
        <time>2022-06-04T07:32:47.000Z</time>
      </trkpt>
      <trkpt lat="43.4732784144580364227294921875" lon="-5.6667219288647174835205078125">
        <ele>264.20001220703125</ele>
        <time>2022-06-04T07:32:49.000Z</time>
      </trkpt>
      <trkpt lat="43.47322560846805572509765625" lon="-5.666697286069393157958984375">
        <ele>264</ele>
        <time>2022-06-04T07:32:51.000Z</time>
      </trkpt>
      <trkpt lat="43.473197780549526214599609375" lon="-5.666684545576572418212890625">
        <ele>264</ele>
        <time>2022-06-04T07:32:52.000Z</time>
      </trkpt>
      <trkpt lat="43.4731741435825824737548828125" lon="-5.66667624749243259429931640625">
        <ele>264</ele>
        <time>2022-06-04T07:32:53.000Z</time>
      </trkpt>
      <trkpt lat="43.473125360906124114990234375" lon="-5.66665529273450374603271484375">
        <ele>263.79998779296875</ele>
        <time>2022-06-04T07:32:55.000Z</time>
      </trkpt>
      <trkpt lat="43.473094515502452850341796875" lon="-5.66664657555520534515380859375">
        <ele>263.79998779296875</ele>
        <time>2022-06-04T07:32:56.000Z</time>
      </trkpt>
      <trkpt lat="43.47305939532816410064697265625" lon="-5.6666387803852558135986328125">
        <ele>263.79998779296875</ele>
        <time>2022-06-04T07:32:57.000Z</time>
      </trkpt>
      <trkpt lat="43.4729763306677341461181640625" lon="-5.6666189990937709808349609375">
        <ele>263.600006103515625</ele>
        <time>2022-06-04T07:32:59.000Z</time>
      </trkpt>
      <trkpt lat="43.47289041616022586822509765625" lon="-5.666594021022319793701171875">
        <ele>263.399993896484375</ele>
        <time>2022-06-04T07:33:01.000Z</time>
      </trkpt>
      <trkpt lat="43.47284515388309955596923828125" lon="-5.6665834598243236541748046875">
        <ele>263.399993896484375</ele>
        <time>2022-06-04T07:33:02.000Z</time>
      </trkpt>
      <trkpt lat="43.472801148891448974609375" lon="-5.66657583229243755340576171875">
        <ele>263.20001220703125</ele>
        <time>2022-06-04T07:33:03.000Z</time>
      </trkpt>
      <trkpt lat="43.47270903177559375762939453125" lon="-5.66656024195253849029541015625">
        <ele>263</ele>
        <time>2022-06-04T07:33:05.000Z</time>
      </trkpt>
      <trkpt lat="43.47261272370815277099609375" lon="-5.66652487032115459442138671875">
        <ele>262.79998779296875</ele>
        <time>2022-06-04T07:33:07.000Z</time>
      </trkpt>
      <trkpt lat="43.472564108669757843017578125" lon="-5.66648916341364383697509765625">
        <ele>262.79998779296875</ele>
        <time>2022-06-04T07:33:08.000Z</time>
      </trkpt>
      <trkpt lat="43.47251758910715579986572265625" lon="-5.6664548814296722412109375">
        <ele>262.79998779296875</ele>
        <time>2022-06-04T07:33:09.000Z</time>
      </trkpt>
      <trkpt lat="43.47245053388178348541259765625" lon="-5.66638774238526821136474609375">
        <ele>262.399993896484375</ele>
        <time>2022-06-04T07:33:11.000Z</time>
      </trkpt>
      <trkpt lat="43.4724278189241886138916015625" lon="-5.66634868271648883819580078125">
        <ele>262.20001220703125</ele>
        <time>2022-06-04T07:33:12.000Z</time>
      </trkpt>
      <trkpt lat="43.472409546375274658203125" lon="-5.66631280817091464996337890625">
        <ele>262.20001220703125</ele>
        <time>2022-06-04T07:33:13.000Z</time>
      </trkpt>
      <trkpt lat="43.47238180227577686309814453125" lon="-5.666247345507144927978515625">
        <ele>262.20001220703125</ele>
        <time>2022-06-04T07:33:15.000Z</time>
      </trkpt>
      <trkpt lat="43.47235858440399169921875" lon="-5.6661947071552276611328125">
        <ele>262</ele>
        <time>2022-06-04T07:33:17.000Z</time>
      </trkpt>
      <trkpt lat="43.4723496995866298675537109375" lon="-5.6661683879792690277099609375">
        <ele>262</ele>
        <time>2022-06-04T07:33:18.000Z</time>
      </trkpt>
      <trkpt lat="43.472338803112506866455078125" lon="-5.66614299081265926361083984375">
        <ele>262</ele>
        <time>2022-06-04T07:33:19.000Z</time>
      </trkpt>
      <trkpt lat="43.4723165072500705718994140625" lon="-5.666098482906818389892578125">
        <ele>262</ele>
        <time>2022-06-04T07:33:21.000Z</time>
      </trkpt>
      <trkpt lat="43.47229060716927051544189453125" lon="-5.6660597585141658782958984375">
        <ele>262.20001220703125</ele>
        <time>2022-06-04T07:33:23.000Z</time>
      </trkpt>
      <trkpt lat="43.4722794592380523681640625" lon="-5.6660379655659198760986328125">
        <ele>262.600006103515625</ele>
        <time>2022-06-04T07:33:24.000Z</time>
      </trkpt>
      <trkpt lat="43.472265712916851043701171875" lon="-5.6660168431699275970458984375">
        <ele>262.79998779296875</ele>
        <time>2022-06-04T07:33:25.000Z</time>
      </trkpt>
      <trkpt lat="43.47223545424640178680419921875" lon="-5.66597484983503818511962890625">
        <ele>263.20001220703125</ele>
        <time>2022-06-04T07:33:27.000Z</time>
      </trkpt>
      <trkpt lat="43.47221885807812213897705078125" lon="-5.66595255397260189056396484375">
        <ele>263.399993896484375</ele>
        <time>2022-06-04T07:33:28.000Z</time>
      </trkpt>
      <trkpt lat="43.47220192663371562957763671875" lon="-5.6659316830337047576904296875">
        <ele>263.79998779296875</ele>
        <time>2022-06-04T07:33:29.000Z</time>
      </trkpt>
      <trkpt lat="43.47217041067779064178466796875" lon="-5.665892623364925384521484375">
        <ele>264.600006103515625</ele>
        <time>2022-06-04T07:33:31.000Z</time>
      </trkpt>
      <trkpt lat="43.47213302738964557647705078125" lon="-5.66585985012352466583251953125">
        <ele>265.20001220703125</ele>
        <time>2022-06-04T07:33:33.000Z</time>
      </trkpt>
      <trkpt lat="43.47209664992988109588623046875" lon="-5.66581609658896923065185546875">
        <ele>265.399993896484375</ele>
        <time>2022-06-04T07:33:35.000Z</time>
      </trkpt>
      <trkpt lat="43.4720771200954914093017578125" lon="-5.665797404944896697998046875">
        <ele>265.600006103515625</ele>
        <time>2022-06-04T07:33:36.000Z</time>
      </trkpt>
      <trkpt lat="43.472056500613689422607421875" lon="-5.665782988071441650390625">
        <ele>265.79998779296875</ele>
        <time>2022-06-04T07:33:37.000Z</time>
      </trkpt>
      <trkpt lat="43.4720352105796337127685546875" lon="-5.665769912302494049072265625">
        <ele>265.79998779296875</ele>
        <time>2022-06-04T07:33:38.000Z</time>
      </trkpt>
      <trkpt lat="43.4720157645642757415771484375" lon="-5.66575624980032444000244140625">
        <ele>265.79998779296875</ele>
        <time>2022-06-04T07:33:39.000Z</time>
      </trkpt>
      <trkpt lat="43.471980728209018707275390625" lon="-5.665729679167270660400390625">
        <ele>266.20001220703125</ele>
        <time>2022-06-04T07:33:41.000Z</time>
      </trkpt>
      <trkpt lat="43.47194527275860309600830078125" lon="-5.665713250637054443359375">
        <ele>266.20001220703125</ele>
        <time>2022-06-04T07:33:43.000Z</time>
      </trkpt>
      <trkpt lat="43.4719121642410755157470703125" lon="-5.66569405607879161834716796875">
        <ele>266.399993896484375</ele>
        <time>2022-06-04T07:33:45.000Z</time>
      </trkpt>
      <trkpt lat="43.47188274376094341278076171875" lon="-5.6656604446470737457275390625">
        <ele>266.399993896484375</ele>
        <time>2022-06-04T07:33:47.000Z</time>
      </trkpt>
      <trkpt lat="43.4718541614711284637451171875" lon="-5.66563152708113193511962890625">
        <ele>266.79998779296875</ele>
        <time>2022-06-04T07:33:49.000Z</time>
      </trkpt>
      <trkpt lat="43.47184351645410060882568359375" lon="-5.66561476327478885650634765625">
        <ele>267</ele>
        <time>2022-06-04T07:33:50.000Z</time>
      </trkpt>
      <trkpt lat="43.47183479927480220794677734375" lon="-5.66559649072587490081787109375">
        <ele>267.399993896484375</ele>
        <time>2022-06-04T07:33:51.000Z</time>
      </trkpt>
      <trkpt lat="43.47182281315326690673828125" lon="-5.66556237637996673583984375">
        <ele>267.79998779296875</ele>
        <time>2022-06-04T07:33:53.000Z</time>
      </trkpt>
      <trkpt lat="43.47181853838264942169189453125" lon="-5.66554519347846508026123046875">
        <ele>268.20001220703125</ele>
        <time>2022-06-04T07:33:54.000Z</time>
      </trkpt>
      <trkpt lat="43.47181384451687335968017578125" lon="-5.66552641801536083221435546875">
        <ele>268.399993896484375</ele>
        <time>2022-06-04T07:33:55.000Z</time>
      </trkpt>
      <trkpt lat="43.47181074321269989013671875" lon="-5.66550546325743198394775390625">
        <ele>268.600006103515625</ele>
        <time>2022-06-04T07:33:56.000Z</time>
      </trkpt>
      <trkpt lat="43.47181250341236591339111328125" lon="-5.665486939251422882080078125">
        <ele>268.79998779296875</ele>
        <time>2022-06-04T07:33:57.000Z</time>
      </trkpt>
      <trkpt lat="43.471815101802349090576171875" lon="-5.66546581685543060302734375">
        <ele>269.20001220703125</ele>
        <time>2022-06-04T07:33:58.000Z</time>
      </trkpt>
      <trkpt lat="43.4718181192874908447265625" lon="-5.66544125787913799285888671875">
        <ele>269.399993896484375</ele>
        <time>2022-06-04T07:33:59.000Z</time>
      </trkpt>
      <trkpt lat="43.47182222642004489898681640625" lon="-5.66538962535560131072998046875">
        <ele>269.600006103515625</ele>
        <time>2022-06-04T07:34:01.000Z</time>
      </trkpt>
      <trkpt lat="43.47182423807680606842041015625" lon="-5.6653607077896595001220703125">
        <ele>269.600006103515625</ele>
        <time>2022-06-04T07:34:02.000Z</time>
      </trkpt>
      <trkpt lat="43.47181870602071285247802734375" lon="-5.665332376956939697265625">
        <ele>269.600006103515625</ele>
        <time>2022-06-04T07:34:03.000Z</time>
      </trkpt>
      <trkpt lat="43.471801690757274627685546875" lon="-5.66525819711387157440185546875">
        <ele>269.79998779296875</ele>
        <time>2022-06-04T07:34:05.000Z</time>
      </trkpt>
      <trkpt lat="43.47179154865443706512451171875" lon="-5.6652222387492656707763671875">
        <ele>269.79998779296875</ele>
        <time>2022-06-04T07:34:06.000Z</time>
      </trkpt>
      <trkpt lat="43.47178199328482151031494140625" lon="-5.66518829204142093658447265625">
        <ele>269.79998779296875</ele>
        <time>2022-06-04T07:34:07.000Z</time>
      </trkpt>
      <trkpt lat="43.47175248898565769195556640625" lon="-5.66512928344309329986572265625">
        <ele>269.79998779296875</ele>
        <time>2022-06-04T07:34:09.000Z</time>
      </trkpt>
      <trkpt lat="43.47171996720135211944580078125" lon="-5.665079243481159210205078125">
        <ele>269.79998779296875</ele>
        <time>2022-06-04T07:34:11.000Z</time>
      </trkpt>
      <trkpt lat="43.471685349941253662109375" lon="-5.66503440029919147491455078125">
        <ele>269.79998779296875</ele>
        <time>2022-06-04T07:34:12.000Z</time>
      </trkpt>
      <trkpt lat="43.471685349941253662109375" lon="-5.66503440029919147491455078125">
        <ele>270</ele>
        <time>2022-06-04T07:34:13.000Z</time>
      </trkpt>
      <trkpt lat="43.4716526605188846588134765625" lon="-5.66500221379101276397705078125">
        <ele>270</ele>
        <time>2022-06-04T07:34:15.000Z</time>
      </trkpt>
      <trkpt lat="43.47162608988583087921142578125" lon="-5.6649751402437686920166015625">
        <ele>270</ele>
        <time>2022-06-04T07:34:17.000Z</time>
      </trkpt>
      <trkpt lat="43.47159926779568195343017578125" lon="-5.66495141945779323577880859375">
        <ele>270</ele>
        <time>2022-06-04T07:34:19.000Z</time>
      </trkpt>
      <trkpt lat="43.4715721942484378814697265625" lon="-5.6649318896234035491943359375">
        <ele>270.399993896484375</ele>
        <time>2022-06-04T07:34:21.000Z</time>
      </trkpt>
      <trkpt lat="43.47155149094760417938232421875" lon="-5.664912275969982147216796875">
        <ele>270.600006103515625</ele>
        <time>2022-06-04T07:34:23.000Z</time>
      </trkpt>
      <trkpt lat="43.471526093780994415283203125" lon="-5.664884112775325775146484375">
        <ele>271</ele>
        <time>2022-06-04T07:34:25.000Z</time>
      </trkpt>
      <trkpt lat="43.47151226364076137542724609375" lon="-5.664871037006378173828125">
        <ele>271.399993896484375</ele>
        <time>2022-06-04T07:34:26.000Z</time>
      </trkpt>
      <trkpt lat="43.47149617038667201995849609375" lon="-5.66485703922808170318603515625">
        <ele>271.600006103515625</ele>
        <time>2022-06-04T07:34:27.000Z</time>
      </trkpt>
      <trkpt lat="43.47146809101104736328125" lon="-5.66483549773693084716796875">
        <ele>272.20001220703125</ele>
        <time>2022-06-04T07:34:29.000Z</time>
      </trkpt>
      <trkpt lat="43.47144101746380329132080078125" lon="-5.6648108549416065216064453125">
        <ele>272.79998779296875</ele>
        <time>2022-06-04T07:34:31.000Z</time>
      </trkpt>
      <trkpt lat="43.4714166261255741119384765625" lon="-5.66478545777499675750732421875">
        <ele>273.20001220703125</ele>
        <time>2022-06-04T07:34:33.000Z</time>
      </trkpt>
      <trkpt lat="43.47139558754861354827880859375" lon="-5.6647541932761669158935546875">
        <ele>273.600006103515625</ele>
        <time>2022-06-04T07:34:35.000Z</time>
      </trkpt>
      <trkpt lat="43.47138754092156887054443359375" lon="-5.6647391058504581451416015625">
        <ele>274</ele>
        <time>2022-06-04T07:34:36.000Z</time>
      </trkpt>
      <trkpt lat="43.47137832082808017730712890625" lon="-5.66473089158535003662109375">
        <ele>274.20001220703125</ele>
        <time>2022-06-04T07:34:37.000Z</time>
      </trkpt>
      <trkpt lat="43.47136340104043483734130859375" lon="-5.664707757532596588134765625">
        <ele>274.79998779296875</ele>
        <time>2022-06-04T07:34:39.000Z</time>
      </trkpt>
      <trkpt lat="43.47135686315596103668212890625" lon="-5.66469476558268070220947265625">
        <ele>275</ele>
        <time>2022-06-04T07:34:40.000Z</time>
      </trkpt>
      <trkpt lat="43.47135208547115325927734375" lon="-5.66467992961406707763671875">
        <ele>275.399993896484375</ele>
        <time>2022-06-04T07:34:41.000Z</time>
      </trkpt>
      <trkpt lat="43.47134311683475971221923828125" lon="-5.66464371979236602783203125">
        <ele>276</ele>
        <time>2022-06-04T07:34:43.000Z</time>
      </trkpt>
      <trkpt lat="43.47133926115930080413818359375" lon="-5.66462569870054721832275390625">
        <ele>276.20001220703125</ele>
        <time>2022-06-04T07:34:44.000Z</time>
      </trkpt>
      <trkpt lat="43.4713334776461124420166015625" lon="-5.664606504142284393310546875">
        <ele>276.600006103515625</ele>
        <time>2022-06-04T07:34:45.000Z</time>
      </trkpt>
      <trkpt lat="43.47131679765880107879638671875" lon="-5.6645630858838558197021484375">
        <ele>277.20001220703125</ele>
        <time>2022-06-04T07:34:47.000Z</time>
      </trkpt>
      <trkpt lat="43.4713110141456127166748046875" lon="-5.6645396165549755096435546875">
        <ele>277.399993896484375</ele>
        <time>2022-06-04T07:34:48.000Z</time>
      </trkpt>
      <trkpt lat="43.47130338661372661590576171875" lon="-5.66451740451157093048095703125">
        <ele>277.600006103515625</ele>
        <time>2022-06-04T07:34:49.000Z</time>
      </trkpt>
      <trkpt lat="43.47129567526280879974365234375" lon="-5.6644915044307708740234375">
        <ele>277.79998779296875</ele>
        <time>2022-06-04T07:34:50.000Z</time>
      </trkpt>
      <trkpt lat="43.4712882153689861297607421875" lon="-5.6644700467586517333984375">
        <ele>278</ele>
        <time>2022-06-04T07:34:51.000Z</time>
      </trkpt>
      <trkpt lat="43.4712781570851802825927734375" lon="-5.664428807795047760009765625">
        <ele>278.20001220703125</ele>
        <time>2022-06-04T07:34:53.000Z</time>
      </trkpt>
      <trkpt lat="43.47126449458301067352294921875" lon="-5.66438966430723667144775390625">
        <ele>278.399993896484375</ele>
        <time>2022-06-04T07:34:55.000Z</time>
      </trkpt>
      <trkpt lat="43.471247814595699310302734375" lon="-5.66435378976166248321533203125">
        <ele>278.399993896484375</ele>
        <time>2022-06-04T07:34:57.000Z</time>
      </trkpt>
      <trkpt lat="43.4712275303900241851806640625" lon="-5.6643198430538177490234375">
        <ele>278.600006103515625</ele>
        <time>2022-06-04T07:34:59.000Z</time>
      </trkpt>
      <trkpt lat="43.47120230086147785186767578125" lon="-5.664286315441131591796875">
        <ele>278.79998779296875</ele>
        <time>2022-06-04T07:35:01.000Z</time>
      </trkpt>
      <trkpt lat="43.47118302248418331146240234375" lon="-5.66425069235265254974365234375">
        <ele>279</ele>
        <time>2022-06-04T07:35:03.000Z</time>
      </trkpt>
      <trkpt lat="43.47116324119269847869873046875" lon="-5.66422001458704471588134765625">
        <ele>279.399993896484375</ele>
        <time>2022-06-04T07:35:05.000Z</time>
      </trkpt>
      <trkpt lat="43.47115267999470233917236328125" lon="-5.6642086990177631378173828125">
        <ele>279.600006103515625</ele>
        <time>2022-06-04T07:35:06.000Z</time>
      </trkpt>
      <trkpt lat="43.47114345990121364593505859375" lon="-5.6641969643533229827880859375">
        <ele>279.79998779296875</ele>
        <time>2022-06-04T07:35:07.000Z</time>
      </trkpt>
      <trkpt lat="43.47112418152391910552978515625" lon="-5.66416134126484394073486328125">
        <ele>280</ele>
        <time>2022-06-04T07:35:09.000Z</time>
      </trkpt>
      <trkpt lat="43.47111512906849384307861328125" lon="-5.66414323635399341583251953125">
        <ele>280.399993896484375</ele>
        <time>2022-06-04T07:35:10.000Z</time>
      </trkpt>
      <trkpt lat="43.47110473550856113433837890625" lon="-5.66412764601409435272216796875">
        <ele>280.600006103515625</ele>
        <time>2022-06-04T07:35:11.000Z</time>
      </trkpt>
      <trkpt lat="43.47109735943377017974853515625" lon="-5.664109624922275543212890625">
        <ele>280.79998779296875</ele>
        <time>2022-06-04T07:35:12.000Z</time>
      </trkpt>
      <trkpt lat="43.4710924141108989715576171875" lon="-5.66409495659172534942626953125">
        <ele>281</ele>
        <time>2022-06-04T07:35:13.000Z</time>
      </trkpt>
      <trkpt lat="43.47108478657901287078857421875" lon="-5.66405539400875568389892578125">
        <ele>281.399993896484375</ele>
        <time>2022-06-04T07:35:15.000Z</time>
      </trkpt>
      <trkpt lat="43.4710806794464588165283203125" lon="-5.66403795965015888214111328125">
        <ele>281.600006103515625</ele>
        <time>2022-06-04T07:35:16.000Z</time>
      </trkpt>
      <trkpt lat="43.4710783325135707855224609375" lon="-5.66402144730091094970703125">
        <ele>281.79998779296875</ele>
        <time>2022-06-04T07:35:17.000Z</time>
      </trkpt>
      <trkpt lat="43.47107590176165103912353515625" lon="-5.6639810465276241302490234375">
        <ele>282.20001220703125</ele>
        <time>2022-06-04T07:35:19.000Z</time>
      </trkpt>
      <trkpt lat="43.47106517292559146881103515625" lon="-5.663940645754337310791015625">
        <ele>282.600006103515625</ele>
        <time>2022-06-04T07:35:21.000Z</time>
      </trkpt>
      <trkpt lat="43.47105930559337139129638671875" lon="-5.66391692496836185455322265625">
        <ele>282.79998779296875</ele>
        <time>2022-06-04T07:35:22.000Z</time>
      </trkpt>
      <trkpt lat="43.47105444408953189849853515625" lon="-5.66389244981110095977783203125">
        <ele>282.79998779296875</ele>
        <time>2022-06-04T07:35:23.000Z</time>
      </trkpt>
      <trkpt lat="43.4710471518337726593017578125" lon="-5.6638442538678646087646484375">
        <ele>283.20001220703125</ele>
        <time>2022-06-04T07:35:25.000Z</time>
      </trkpt>
      <trkpt lat="43.4710380993783473968505859375" lon="-5.66379371099174022674560546875">
        <ele>283.600006103515625</ele>
        <time>2022-06-04T07:35:27.000Z</time>
      </trkpt>
      <trkpt lat="43.47103147767484188079833984375" lon="-5.66376739181578159332275390625">
        <ele>283.79998779296875</ele>
        <time>2022-06-04T07:35:28.000Z</time>
      </trkpt>
      <trkpt lat="43.471025191247463226318359375" lon="-5.6637450121343135833740234375">
        <ele>284</ele>
        <time>2022-06-04T07:35:29.000Z</time>
      </trkpt>
      <trkpt lat="43.4710176475346088409423828125" lon="-5.66372372210025787353515625">
        <ele>284</ele>
        <time>2022-06-04T07:35:30.000Z</time>
      </trkpt>
      <trkpt lat="43.47100876271724700927734375" lon="-5.66370016895234584808349609375">
        <ele>284.20001220703125</ele>
        <time>2022-06-04T07:35:31.000Z</time>
      </trkpt>
      <trkpt lat="43.47099459730088710784912109375" lon="-5.66365339793264865875244140625">
        <ele>284.399993896484375</ele>
        <time>2022-06-04T07:35:33.000Z</time>
      </trkpt>
      <trkpt lat="43.47098588012158870697021484375" lon="-5.66363227553665637969970703125">
        <ele>284.600006103515625</ele>
        <time>2022-06-04T07:35:34.000Z</time>
      </trkpt>
      <trkpt lat="43.4709770791232585906982421875" lon="-5.6636115722358226776123046875">
        <ele>284.79998779296875</ele>
        <time>2022-06-04T07:35:35.000Z</time>
      </trkpt>
      <trkpt lat="43.47096710465848445892333984375" lon="-5.6635931320488452911376953125">
        <ele>285</ele>
        <time>2022-06-04T07:35:36.000Z</time>
      </trkpt>
      <trkpt lat="43.47095721401274204254150390625" lon="-5.66357997246086597442626953125">
        <ele>285.20001220703125</ele>
        <time>2022-06-04T07:35:37.000Z</time>
      </trkpt>
      <trkpt lat="43.4709328226745128631591796875" lon="-5.6635518930852413177490234375">
        <ele>285.399993896484375</ele>
        <time>2022-06-04T07:35:39.000Z</time>
      </trkpt>
      <trkpt lat="43.47092117182910442352294921875" lon="-5.66353789530694484710693359375">
        <ele>285.399993896484375</ele>
        <time>2022-06-04T07:35:40.000Z</time>
      </trkpt>
      <trkpt lat="43.4709110297262668609619140625" lon="-5.6635264120995998382568359375">
        <ele>285.600006103515625</ele>
        <time>2022-06-04T07:35:41.000Z</time>
      </trkpt>
      <trkpt lat="43.47089267335832118988037109375" lon="-5.66349665634334087371826171875">
        <ele>286</ele>
        <time>2022-06-04T07:35:43.000Z</time>
      </trkpt>
      <trkpt lat="43.4708739817142486572265625" lon="-5.66346631385385990142822265625">
        <ele>286.600006103515625</ele>
        <time>2022-06-04T07:35:45.000Z</time>
      </trkpt>
      <trkpt lat="43.47085830755531787872314453125" lon="-5.6634127534925937652587890625">
        <ele>287</ele>
        <time>2022-06-04T07:35:47.000Z</time>
      </trkpt>
      <trkpt lat="43.4708486683666706085205078125" lon="-5.6633889488875865936279296875">
        <ele>287.20001220703125</ele>
        <time>2022-06-04T07:35:48.000Z</time>
      </trkpt>
      <trkpt lat="43.47083668224513530731201171875" lon="-5.66336564719676971435546875">
        <ele>287.399993896484375</ele>
        <time>2022-06-04T07:35:49.000Z</time>
      </trkpt>
      <trkpt lat="43.47081807442009449005126953125" lon="-5.66331736743450164794921875">
        <ele>288.20001220703125</ele>
        <time>2022-06-04T07:35:51.000Z</time>
      </trkpt>
      <trkpt lat="43.470803238451480865478515625" lon="-5.663274116814136505126953125">
        <ele>288.600006103515625</ele>
        <time>2022-06-04T07:35:53.000Z</time>
      </trkpt>
      <trkpt lat="43.47078706137835979461669921875" lon="-5.6632335484027862548828125">
        <ele>289</ele>
        <time>2022-06-04T07:35:55.000Z</time>
      </trkpt>
      <trkpt lat="43.4707735665142536163330078125" lon="-5.66321334801614284515380859375">
        <ele>289.20001220703125</ele>
        <time>2022-06-04T07:35:56.000Z</time>
      </trkpt>
      <trkpt lat="43.47075889818370342254638671875" lon="-5.6631931476294994354248046875">
        <ele>289.399993896484375</ele>
        <time>2022-06-04T07:35:57.000Z</time>
      </trkpt>
      <trkpt lat="43.4707353450357913970947265625" lon="-5.663159787654876708984375">
        <ele>289.79998779296875</ele>
        <time>2022-06-04T07:35:59.000Z</time>
      </trkpt>
      <trkpt lat="43.470714390277862548828125" lon="-5.66313087008893489837646484375">
        <ele>290.20001220703125</ele>
        <time>2022-06-04T07:36:01.000Z</time>
      </trkpt>
      <trkpt lat="43.47070257179439067840576171875" lon="-5.66311695612967014312744140625">
        <ele>290.20001220703125</ele>
        <time>2022-06-04T07:36:02.000Z</time>
      </trkpt>
      <trkpt lat="43.47069351933896541595458984375" lon="-5.66310304217040538787841796875">
        <ele>290.399993896484375</ele>
        <time>2022-06-04T07:36:03.000Z</time>
      </trkpt>
      <trkpt lat="43.47067407332360744476318359375" lon="-5.66307957284152507781982421875">
        <ele>290.600006103515625</ele>
        <time>2022-06-04T07:36:05.000Z</time>
      </trkpt>
      <trkpt lat="43.47064993344247341156005859375" lon="-5.66305643878877162933349609375">
        <ele>291</ele>
        <time>2022-06-04T07:36:07.000Z</time>
      </trkpt>
      <trkpt lat="43.470628894865512847900390625" lon="-5.66302861087024211883544921875">
        <ele>291.399993896484375</ele>
        <time>2022-06-04T07:36:09.000Z</time>
      </trkpt>
      <trkpt lat="43.47060400061309337615966796875" lon="-5.6630060635507106781005859375">
        <ele>291.600006103515625</ele>
        <time>2022-06-04T07:36:10.000Z</time>
      </trkpt>
      <trkpt lat="43.47060400061309337615966796875" lon="-5.6630060635507106781005859375">
        <ele>291.79998779296875</ele>
        <time>2022-06-04T07:36:11.000Z</time>
      </trkpt>
      <trkpt lat="43.47058773972094058990478515625" lon="-5.662990473210811614990234375">
        <ele>292.20001220703125</ele>
        <time>2022-06-04T07:36:13.000Z</time>
      </trkpt>
      <trkpt lat="43.47056997008621692657470703125" lon="-5.6629732064902782440185546875">
        <ele>292.600006103515625</ele>
        <time>2022-06-04T07:36:15.000Z</time>
      </trkpt>
      <trkpt lat="43.470551110804080963134765625" lon="-5.6629514135420322418212890625">
        <ele>292.600006103515625</ele>
        <time>2022-06-04T07:36:16.000Z</time>
      </trkpt>
      <trkpt lat="43.470551110804080963134765625" lon="-5.6629514135420322418212890625">
        <ele>293</ele>
        <time>2022-06-04T07:36:17.000Z</time>
      </trkpt>
      <trkpt lat="43.47053208388388156890869140625" lon="-5.66291998140513896942138671875">
        <ele>293.79998779296875</ele>
        <time>2022-06-04T07:36:19.000Z</time>
      </trkpt>
      <trkpt lat="43.470505513250827789306640625" lon="-5.6628934107720851898193359375">
        <ele>294.20001220703125</ele>
        <time>2022-06-04T07:36:21.000Z</time>
      </trkpt>
      <trkpt lat="43.47048430703580379486083984375" lon="-5.66287941299378871917724609375">
        <ele>294.79998779296875</ele>
        <time>2022-06-04T07:36:23.000Z</time>
      </trkpt>
      <trkpt lat="43.4704610891640186309814453125" lon="-5.66285812295973300933837890625">
        <ele>295</ele>
        <time>2022-06-04T07:36:24.000Z</time>
      </trkpt>
      <trkpt lat="43.4704610891640186309814453125" lon="-5.66285812295973300933837890625">
        <ele>295.20001220703125</ele>
        <time>2022-06-04T07:36:25.000Z</time>
      </trkpt>
      <trkpt lat="43.4704369492828845977783203125" lon="-5.662848986685276031494140625">
        <ele>295.600006103515625</ele>
        <time>2022-06-04T07:36:27.000Z</time>
      </trkpt>
      <trkpt lat="43.4704113006591796875" lon="-5.662825517356395721435546875">
        <ele>295.79998779296875</ele>
        <time>2022-06-04T07:36:28.000Z</time>
      </trkpt>
      <trkpt lat="43.4704113006591796875" lon="-5.662825517356395721435546875">
        <ele>296.20001220703125</ele>
        <time>2022-06-04T07:36:29.000Z</time>
      </trkpt>
      <trkpt lat="43.47038489766418933868408203125" lon="-5.66280062310397624969482421875">
        <ele>296.600006103515625</ele>
        <time>2022-06-04T07:36:31.000Z</time>
      </trkpt>
      <trkpt lat="43.4703745879232883453369140625" lon="-5.66278972662985324859619140625">
        <ele>296.79998779296875</ele>
        <time>2022-06-04T07:36:32.000Z</time>
      </trkpt>
      <trkpt lat="43.47035924904048442840576171875" lon="-5.66277556121349334716796875">
        <ele>297</ele>
        <time>2022-06-04T07:36:33.000Z</time>
      </trkpt>
      <trkpt lat="43.4703370369970798492431640625" lon="-5.6627546064555644989013671875">
        <ele>297.600006103515625</ele>
        <time>2022-06-04T07:36:35.000Z</time>
      </trkpt>
      <trkpt lat="43.47032479941844940185546875" lon="-5.66274513490498065948486328125">
        <ele>297.79998779296875</ele>
        <time>2022-06-04T07:36:36.000Z</time>
      </trkpt>
      <trkpt lat="43.4703142382204532623291015625" lon="-5.66274044103920459747314453125">
        <ele>298.20001220703125</ele>
        <time>2022-06-04T07:36:37.000Z</time>
      </trkpt>
      <trkpt lat="43.4703001566231250762939453125" lon="-5.6627351604402065277099609375">
        <ele>298.399993896484375</ele>
        <time>2022-06-04T07:36:38.000Z</time>
      </trkpt>
      <trkpt lat="43.47028498537838459014892578125" lon="-5.66272937692701816558837890625">
        <ele>298.600006103515625</ele>
        <time>2022-06-04T07:36:39.000Z</time>
      </trkpt>
      <trkpt lat="43.4702589176595211029052734375" lon="-5.6627187319099903106689453125">
        <ele>299.20001220703125</ele>
        <time>2022-06-04T07:36:41.000Z</time>
      </trkpt>
      <trkpt lat="43.47022413276135921478271484375" lon="-5.6627096794545650482177734375">
        <ele>299.600006103515625</ele>
        <time>2022-06-04T07:36:43.000Z</time>
      </trkpt>
      <trkpt lat="43.4701942093670368194580078125" lon="-5.6627118587493896484375">
        <ele>300</ele>
        <time>2022-06-04T07:36:45.000Z</time>
      </trkpt>
      <trkpt lat="43.47017568536102771759033203125" lon="-5.662712194025516510009765625">
        <ele>300.399993896484375</ele>
        <time>2022-06-04T07:36:46.000Z</time>
      </trkpt>
      <trkpt lat="43.47015556879341602325439453125" lon="-5.66270791925489902496337890625">
        <ele>300.600006103515625</ele>
        <time>2022-06-04T07:36:47.000Z</time>
      </trkpt>
      <trkpt lat="43.47012271173298358917236328125" lon="-5.66270993091166019439697265625">
        <ele>301.20001220703125</ele>
        <time>2022-06-04T07:36:49.000Z</time>
      </trkpt>
      <trkpt lat="43.470108546316623687744140625" lon="-5.66271076910197734832763671875">
        <ele>301.399993896484375</ele>
        <time>2022-06-04T07:36:50.000Z</time>
      </trkpt>
      <trkpt lat="43.4700934588909149169921875" lon="-5.6627137027680873870849609375">
        <ele>301.600006103515625</ele>
        <time>2022-06-04T07:36:51.000Z</time>
      </trkpt>
      <trkpt lat="43.47006194293498992919921875" lon="-5.66272535361349582672119140625">
        <ele>302.20001220703125</ele>
        <time>2022-06-04T07:36:53.000Z</time>
      </trkpt>
      <trkpt lat="43.47003067843616008758544921875" lon="-5.66274748183786869049072265625">
        <ele>302.600006103515625</ele>
        <time>2022-06-04T07:36:54.000Z</time>
      </trkpt>
      <trkpt lat="43.47003067843616008758544921875" lon="-5.66274748183786869049072265625">
        <ele>303</ele>
        <time>2022-06-04T07:36:55.000Z</time>
      </trkpt>
      <trkpt lat="43.47000083886086940765380859375" lon="-5.66276927478611469268798828125">
        <ele>303.399993896484375</ele>
        <time>2022-06-04T07:36:57.000Z</time>
      </trkpt>
      <trkpt lat="43.4699890203773975372314453125" lon="-5.662781931459903717041015625">
        <ele>303.600006103515625</ele>
        <time>2022-06-04T07:36:58.000Z</time>
      </trkpt>
      <trkpt lat="43.469975106418132781982421875" lon="-5.6627961806952953338623046875">
        <ele>304</ele>
        <time>2022-06-04T07:36:59.000Z</time>
      </trkpt>
      <trkpt lat="43.46995071507990360260009765625" lon="-5.66282828338444232940673828125">
        <ele>304.600006103515625</ele>
        <time>2022-06-04T07:37:01.000Z</time>
      </trkpt>
      <trkpt lat="43.46994015388190746307373046875" lon="-5.662843622267246246337890625">
        <ele>304.79998779296875</ele>
        <time>2022-06-04T07:37:02.000Z</time>
      </trkpt>
      <trkpt lat="43.46992925740778446197509765625" lon="-5.66285669803619384765625">
        <ele>305.20001220703125</ele>
        <time>2022-06-04T07:37:03.000Z</time>
      </trkpt>
      <trkpt lat="43.46990729682147502899169921875" lon="-5.66288377158343791961669921875">
        <ele>305.600006103515625</ele>
        <time>2022-06-04T07:37:05.000Z</time>
      </trkpt>
      <trkpt lat="43.4698988310992717742919921875" lon="-5.66289902664721012115478515625">
        <ele>306</ele>
        <time>2022-06-04T07:37:06.000Z</time>
      </trkpt>
      <trkpt lat="43.4698927961289882659912109375" lon="-5.6629121862351894378662109375">
        <ele>306.20001220703125</ele>
        <time>2022-06-04T07:37:07.000Z</time>
      </trkpt>
      <trkpt lat="43.46987041644752025604248046875" lon="-5.662931464612483978271484375">
        <ele>307.20001220703125</ele>
        <time>2022-06-04T07:37:09.000Z</time>
      </trkpt>
      <trkpt lat="43.4698539040982723236083984375" lon="-5.662937499582767486572265625">
        <ele>307.399993896484375</ele>
        <time>2022-06-04T07:37:10.000Z</time>
      </trkpt>
      <trkpt lat="43.4698354639112949371337890625" lon="-5.66294252872467041015625">
        <ele>307.79998779296875</ele>
        <time>2022-06-04T07:37:11.000Z</time>
      </trkpt>
      <trkpt lat="43.46979682333767414093017578125" lon="-5.66295166499912738800048828125">
        <ele>308.399993896484375</ele>
        <time>2022-06-04T07:37:13.000Z</time>
      </trkpt>
      <trkpt lat="43.46976555883884429931640625" lon="-5.662956275045871734619140625">
        <ele>309.399993896484375</ele>
        <time>2022-06-04T07:37:15.000Z</time>
      </trkpt>
      <trkpt lat="43.4697482921183109283447265625" lon="-5.66295669414103031158447265625">
        <ele>309.79998779296875</ele>
        <time>2022-06-04T07:37:16.000Z</time>
      </trkpt>
      <trkpt lat="43.46973010338842868804931640625" lon="-5.66295485012233257293701171875">
        <ele>310.20001220703125</ele>
        <time>2022-06-04T07:37:17.000Z</time>
      </trkpt>
      <trkpt lat="43.4697117470204830169677734375" lon="-5.662954933941364288330078125">
        <ele>310.399993896484375</ele>
        <time>2022-06-04T07:37:18.000Z</time>
      </trkpt>
      <trkpt lat="43.4696933068335056304931640625" lon="-5.6629581190645694732666015625">
        <ele>310.600006103515625</ele>
        <time>2022-06-04T07:37:19.000Z</time>
      </trkpt>
      <trkpt lat="43.4696591086685657501220703125" lon="-5.6629631482064723968505859375">
        <ele>311</ele>
        <time>2022-06-04T07:37:21.000Z</time>
      </trkpt>
      <trkpt lat="43.46962398849427700042724609375" lon="-5.662975721061229705810546875">
        <ele>311.399993896484375</ele>
        <time>2022-06-04T07:37:23.000Z</time>
      </trkpt>
      <trkpt lat="43.4696061350405216217041015625" lon="-5.66298234276473522186279296875">
        <ele>311.399993896484375</ele>
        <time>2022-06-04T07:37:24.000Z</time>
      </trkpt>
      <trkpt lat="43.46958895213901996612548828125" lon="-5.662989132106304168701171875">
        <ele>311.600006103515625</ele>
        <time>2022-06-04T07:37:25.000Z</time>
      </trkpt>
      <trkpt lat="43.4695585258305072784423828125" lon="-5.66299139522016048431396484375">
        <ele>312</ele>
        <time>2022-06-04T07:37:27.000Z</time>
      </trkpt>
      <trkpt lat="43.46952524967491626739501953125" lon="-5.66299944184720516204833984375">
        <ele>312.20001220703125</ele>
        <time>2022-06-04T07:37:29.000Z</time>
      </trkpt>
      <trkpt lat="43.4694954939186573028564453125" lon="-5.6630037166178226470947265625">
        <ele>312.600006103515625</ele>
        <time>2022-06-04T07:37:31.000Z</time>
      </trkpt>
      <trkpt lat="43.46948300488293170928955078125" lon="-5.6630000285804271697998046875">
        <ele>312.79998779296875</ele>
        <time>2022-06-04T07:37:32.000Z</time>
      </trkpt>
      <trkpt lat="43.469468168914318084716796875" lon="-5.66300346516072750091552734375">
        <ele>313</ele>
        <time>2022-06-04T07:37:33.000Z</time>
      </trkpt>
      <trkpt lat="43.46944025717675685882568359375" lon="-5.66301268525421619415283203125">
        <ele>313.399993896484375</ele>
        <time>2022-06-04T07:37:35.000Z</time>
      </trkpt>
      <trkpt lat="43.4694113396108150482177734375" lon="-5.66301402635872364044189453125">
        <ele>313.600006103515625</ele>
        <time>2022-06-04T07:37:37.000Z</time>
      </trkpt>
      <trkpt lat="43.46939650364220142364501953125" lon="-5.6630181334912776947021484375">
        <ele>313.79998779296875</ele>
        <time>2022-06-04T07:37:38.000Z</time>
      </trkpt>
      <trkpt lat="43.4693821705877780914306640625" lon="-5.663021989166736602783203125">
        <ele>314</ele>
        <time>2022-06-04T07:37:39.000Z</time>
      </trkpt>
      <trkpt lat="43.469351492822170257568359375" lon="-5.663028694689273834228515625">
        <ele>314.20001220703125</ele>
        <time>2022-06-04T07:37:41.000Z</time>
      </trkpt>
      <trkpt lat="43.46933531574904918670654296875" lon="-5.66303045488893985748291015625">
        <ele>314.600006103515625</ele>
        <time>2022-06-04T07:37:42.000Z</time>
      </trkpt>
      <trkpt lat="43.46932031214237213134765625" lon="-5.66303062252700328826904296875">
        <ele>314.79998779296875</ele>
        <time>2022-06-04T07:37:43.000Z</time>
      </trkpt>
      <trkpt lat="43.469289131462574005126953125" lon="-5.66302609629929065704345703125">
        <ele>315</ele>
        <time>2022-06-04T07:37:45.000Z</time>
      </trkpt>
      <trkpt lat="43.4692566096782684326171875" lon="-5.66302140243351459503173828125">
        <ele>315.399993896484375</ele>
        <time>2022-06-04T07:37:47.000Z</time>
      </trkpt>
      <trkpt lat="43.4692259319126605987548828125" lon="-5.66301553510129451751708984375">
        <ele>315.79998779296875</ele>
        <time>2022-06-04T07:37:49.000Z</time>
      </trkpt>
      <trkpt lat="43.46919718198478221893310546875" lon="-5.66300530917942523956298828125">
        <ele>316</ele>
        <time>2022-06-04T07:37:51.000Z</time>
      </trkpt>
      <trkpt lat="43.46916851587593555450439453125" lon="-5.66299022175371646881103515625">
        <ele>316.600006103515625</ele>
        <time>2022-06-04T07:37:53.000Z</time>
      </trkpt>
      <trkpt lat="43.46915611065924167633056640625" lon="-5.6629836000502109527587890625">
        <ele>316.79998779296875</ele>
        <time>2022-06-04T07:37:54.000Z</time>
      </trkpt>
      <trkpt lat="43.469143621623516082763671875" lon="-5.662977732717990875244140625">
        <ele>316.79998779296875</ele>
        <time>2022-06-04T07:37:55.000Z</time>
      </trkpt>
      <trkpt lat="43.46911788918077945709228515625" lon="-5.662967674434185028076171875">
        <ele>317.20001220703125</ele>
        <time>2022-06-04T07:37:57.000Z</time>
      </trkpt>
      <trkpt lat="43.4690904803574085235595703125" lon="-5.66295417957007884979248046875">
        <ele>317.79998779296875</ele>
        <time>2022-06-04T07:37:59.000Z</time>
      </trkpt>
      <trkpt lat="43.46907530911266803741455078125" lon="-5.6629457138478755950927734375">
        <ele>317.79998779296875</ele>
        <time>2022-06-04T07:38:00.000Z</time>
      </trkpt>
      <trkpt lat="43.46905904822051525115966796875" lon="-5.662938840687274932861328125">
        <ele>318</ele>
        <time>2022-06-04T07:38:01.000Z</time>
      </trkpt>
      <trkpt lat="43.46903021447360515594482421875" lon="-5.66292618401348590850830078125">
        <ele>318.600006103515625</ele>
        <time>2022-06-04T07:38:03.000Z</time>
      </trkpt>
      <trkpt lat="43.4690016321837902069091796875" lon="-5.6629168801009654998779296875">
        <ele>318.79998779296875</ele>
        <time>2022-06-04T07:38:05.000Z</time>
      </trkpt>
      <trkpt lat="43.46898864023387432098388671875" lon="-5.6629074923694133758544921875">
        <ele>319</ele>
        <time>2022-06-04T07:38:06.000Z</time>
      </trkpt>
      <trkpt lat="43.46897489391267299652099609375" lon="-5.66289760172367095947265625">
        <ele>319.399993896484375</ele>
        <time>2022-06-04T07:38:07.000Z</time>
      </trkpt>
      <trkpt lat="43.46894614398479461669921875" lon="-5.662877149879932403564453125">
        <ele>319.79998779296875</ele>
        <time>2022-06-04T07:38:09.000Z</time>
      </trkpt>
      <trkpt lat="43.4689342416822910308837890625" lon="-5.66286566667258739471435546875">
        <ele>320.399993896484375</ele>
        <time>2022-06-04T07:38:10.000Z</time>
      </trkpt>
      <trkpt lat="43.468923009932041168212890625" lon="-5.66285694949328899383544921875">
        <ele>320.600006103515625</ele>
        <time>2022-06-04T07:38:11.000Z</time>
      </trkpt>
      <trkpt lat="43.4689023904502391815185546875" lon="-5.66284806467592716217041015625">
        <ele>321</ele>
        <time>2022-06-04T07:38:13.000Z</time>
      </trkpt>
      <trkpt lat="43.4688903205096721649169921875" lon="-5.662848316133022308349609375">
        <ele>321.20001220703125</ele>
        <time>2022-06-04T07:38:14.000Z</time>
      </trkpt>
      <trkpt lat="43.468878082931041717529296875" lon="-5.66284907050430774688720703125">
        <ele>321.600006103515625</ele>
        <time>2022-06-04T07:38:15.000Z</time>
      </trkpt>
      <trkpt lat="43.46885268576443195343017578125" lon="-5.66284236498177051544189453125">
        <ele>322</ele>
        <time>2022-06-04T07:38:17.000Z</time>
      </trkpt>
      <trkpt lat="43.46882686950266361236572265625" lon="-5.66282811574637889862060546875">
        <ele>322.600006103515625</ele>
        <time>2022-06-04T07:38:19.000Z</time>
      </trkpt>
      <trkpt lat="43.46881530247628688812255859375" lon="-5.66282141022384166717529296875">
        <ele>323</ele>
        <time>2022-06-04T07:38:20.000Z</time>
      </trkpt>
      <trkpt lat="43.46880122087895870208740234375" lon="-5.662814117968082427978515625">
        <ele>323.20001220703125</ele>
        <time>2022-06-04T07:38:21.000Z</time>
      </trkpt>
      <trkpt lat="43.4687733091413974761962890625" lon="-5.66279995255172252655029296875">
        <ele>323.79998779296875</ele>
        <time>2022-06-04T07:38:23.000Z</time>
      </trkpt>
      <trkpt lat="43.46874707378447055816650390625" lon="-5.662792660295963287353515625">
        <ele>324.20001220703125</ele>
        <time>2022-06-04T07:38:25.000Z</time>
      </trkpt>
      <trkpt lat="43.46871756948530673980712890625" lon="-5.66278637386858463287353515625">
        <ele>324.79998779296875</ele>
        <time>2022-06-04T07:38:27.000Z</time>
      </trkpt>
      <trkpt lat="43.46868840046226978302001953125" lon="-5.66277866251766681671142578125">
        <ele>325.399993896484375</ele>
        <time>2022-06-04T07:38:29.000Z</time>
      </trkpt>
      <trkpt lat="43.46865780651569366455078125" lon="-5.66276483237743377685546875">
        <ele>325.79998779296875</ele>
        <time>2022-06-04T07:38:31.000Z</time>
      </trkpt>
      <trkpt lat="43.468642048537731170654296875" lon="-5.66276189871132373809814453125">
        <ele>326</ele>
        <time>2022-06-04T07:38:32.000Z</time>
      </trkpt>
      <trkpt lat="43.468627631664276123046875" lon="-5.66275670193135738372802734375">
        <ele>326.20001220703125</ele>
        <time>2022-06-04T07:38:33.000Z</time>
      </trkpt>
      <trkpt lat="43.46859955228865146636962890625" lon="-5.66274882294237613677978515625">
        <ele>326.600006103515625</ele>
        <time>2022-06-04T07:38:35.000Z</time>
      </trkpt>
      <trkpt lat="43.46857373602688312530517578125" lon="-5.662734322249889373779296875">
        <ele>327.20001220703125</ele>
        <time>2022-06-04T07:38:37.000Z</time>
      </trkpt>
      <trkpt lat="43.4685476683080196380615234375" lon="-5.6627207435667514801025390625">
        <ele>327.600006103515625</ele>
        <time>2022-06-04T07:38:39.000Z</time>
      </trkpt>
      <trkpt lat="43.46852327696979045867919921875" lon="-5.6627066619694232940673828125">
        <ele>327.79998779296875</ele>
        <time>2022-06-04T07:38:41.000Z</time>
      </trkpt>
      <trkpt lat="43.4684980474412441253662109375" lon="-5.66269635222852230072021484375">
        <ele>328.20001220703125</ele>
        <time>2022-06-04T07:38:43.000Z</time>
      </trkpt>
      <trkpt lat="43.4684760868549346923828125" lon="-5.66267623566091060638427734375">
        <ele>328.399993896484375</ele>
        <time>2022-06-04T07:38:45.000Z</time>
      </trkpt>
      <trkpt lat="43.4684564732015132904052734375" lon="-5.662651844322681427001953125">
        <ele>328.79998779296875</ele>
        <time>2022-06-04T07:38:47.000Z</time>
      </trkpt>
      <trkpt lat="43.4684331715106964111328125" lon="-5.6626312248408794403076171875">
        <ele>329</ele>
        <time>2022-06-04T07:38:49.000Z</time>
      </trkpt>
      <trkpt lat="43.4684172458946704864501953125" lon="-5.6626054085791110992431640625">
        <ele>329.20001220703125</ele>
        <time>2022-06-04T07:38:51.000Z</time>
      </trkpt>
      <trkpt lat="43.4683984704315662384033203125" lon="-5.66257749684154987335205078125">
        <ele>329.79998779296875</ele>
        <time>2022-06-04T07:38:53.000Z</time>
      </trkpt>
      <trkpt lat="43.46838153898715972900390625" lon="-5.6625571288168430328369140625">
        <ele>330.399993896484375</ele>
        <time>2022-06-04T07:38:55.000Z</time>
      </trkpt>
      <trkpt lat="43.4683726541697978973388671875" lon="-5.66254564560949802398681640625">
        <ele>330.600006103515625</ele>
        <time>2022-06-04T07:38:56.000Z</time>
      </trkpt>
      <trkpt lat="43.468363098800182342529296875" lon="-5.66253483295440673828125">
        <ele>330.79998779296875</ele>
        <time>2022-06-04T07:38:57.000Z</time>
      </trkpt>
      <trkpt lat="43.46834105439484119415283203125" lon="-5.66251312382519245147705078125">
        <ele>331.20001220703125</ele>
        <time>2022-06-04T07:38:59.000Z</time>
      </trkpt>
      <trkpt lat="43.4683176688849925994873046875" lon="-5.66249451600015163421630859375">
        <ele>331.399993896484375</ele>
        <time>2022-06-04T07:39:01.000Z</time>
      </trkpt>
      <trkpt lat="43.46829528920352458953857421875" lon="-5.66247674636542797088623046875">
        <ele>331.79998779296875</ele>
        <time>2022-06-04T07:39:03.000Z</time>
      </trkpt>
      <trkpt lat="43.46828573383390903472900390625" lon="-5.6624664366245269775390625">
        <ele>332</ele>
        <time>2022-06-04T07:39:04.000Z</time>
      </trkpt>
      <trkpt lat="43.46827919594943523406982421875" lon="-5.662446320056915283203125">
        <ele>332.79998779296875</ele>
        <time>2022-06-04T07:39:05.000Z</time>
      </trkpt>
      <trkpt lat="43.46826360560953617095947265625" lon="-5.66241170279681682586669921875">
        <ele>333.399993896484375</ele>
        <time>2022-06-04T07:39:07.000Z</time>
      </trkpt>
      <trkpt lat="43.4682496078312397003173828125" lon="-5.66238320432603359222412109375">
        <ele>333.79998779296875</ele>
        <time>2022-06-04T07:39:09.000Z</time>
      </trkpt>
      <trkpt lat="43.46823133528232574462890625" lon="-5.66235571168363094329833984375">
        <ele>334.20001220703125</ele>
        <time>2022-06-04T07:39:11.000Z</time>
      </trkpt>
      <trkpt lat="43.46820979379117488861083984375" lon="-5.662332661449909210205078125">
        <ele>334.600006103515625</ele>
        <time>2022-06-04T07:39:13.000Z</time>
      </trkpt>
      <trkpt lat="43.46820040605962276458740234375" lon="-5.6623200885951519012451171875">
        <ele>335</ele>
        <time>2022-06-04T07:39:14.000Z</time>
      </trkpt>
      <trkpt lat="43.4681909345090389251708984375" lon="-5.6623063422739505767822265625">
        <ele>335.20001220703125</ele>
        <time>2022-06-04T07:39:15.000Z</time>
      </trkpt>
      <trkpt lat="43.4681758470833301544189453125" lon="-5.6622815318405628204345703125">
        <ele>335.600006103515625</ele>
        <time>2022-06-04T07:39:17.000Z</time>
      </trkpt>
      <trkpt lat="43.46815916709601879119873046875" lon="-5.66225613467395305633544921875">
        <ele>336</ele>
        <time>2022-06-04T07:39:19.000Z</time>
      </trkpt>
      <trkpt lat="43.46815078519284725189208984375" lon="-5.6622423045337200164794921875">
        <ele>336.20001220703125</ele>
        <time>2022-06-04T07:39:20.000Z</time>
      </trkpt>
      <trkpt lat="43.4681416489183902740478515625" lon="-5.6622295640408992767333984375">
        <ele>336.399993896484375</ele>
        <time>2022-06-04T07:39:21.000Z</time>
      </trkpt>
      <trkpt lat="43.4681205265223979949951171875" lon="-5.66220399923622608184814453125">
        <ele>336.79998779296875</ele>
        <time>2022-06-04T07:39:23.000Z</time>
      </trkpt>
      <trkpt lat="43.4681032598018646240234375" lon="-5.66217566840350627899169921875">
        <ele>337.20001220703125</ele>
        <time>2022-06-04T07:39:25.000Z</time>
      </trkpt>
      <trkpt lat="43.46808808855712413787841796875" lon="-5.66214398480951786041259765625">
        <ele>337.399993896484375</ele>
        <time>2022-06-04T07:39:27.000Z</time>
      </trkpt>
      <trkpt lat="43.4680719114840030670166015625" lon="-5.6621105410158634185791015625">
        <ele>337.600006103515625</ele>
        <time>2022-06-04T07:39:29.000Z</time>
      </trkpt>
      <trkpt lat="43.468056656420230865478515625" lon="-5.662076510488986968994140625">
        <ele>337.79998779296875</ele>
        <time>2022-06-04T07:39:31.000Z</time>
      </trkpt>
      <trkpt lat="43.4680388867855072021484375" lon="-5.662043988704681396484375">
        <ele>338.20001220703125</ele>
        <time>2022-06-04T07:39:33.000Z</time>
      </trkpt>
      <trkpt lat="43.46801541745662689208984375" lon="-5.662008784711360931396484375">
        <ele>338.600006103515625</ele>
        <time>2022-06-04T07:39:35.000Z</time>
      </trkpt>
      <trkpt lat="43.46799538470804691314697265625" lon="-5.66197467036545276641845703125">
        <ele>339</ele>
        <time>2022-06-04T07:39:37.000Z</time>
      </trkpt>
      <trkpt lat="43.46797325648367404937744140625" lon="-5.661939717829227447509765625">
        <ele>339.399993896484375</ele>
        <time>2022-06-04T07:39:39.000Z</time>
      </trkpt>
      <trkpt lat="43.4679562412202358245849609375" lon="-5.661899484694004058837890625">
        <ele>339.79998779296875</ele>
        <time>2022-06-04T07:39:41.000Z</time>
      </trkpt>
      <trkpt lat="43.46793637610971927642822265625" lon="-5.6618641130626201629638671875">
        <ele>340.20001220703125</ele>
        <time>2022-06-04T07:39:43.000Z</time>
      </trkpt>
      <trkpt lat="43.4679274074733257293701171875" lon="-5.66184843890368938446044921875">
        <ele>340.20001220703125</ele>
        <time>2022-06-04T07:39:44.000Z</time>
      </trkpt>
      <trkpt lat="43.46791793592274188995361328125" lon="-5.66183276474475860595703125">
        <ele>340.399993896484375</ele>
        <time>2022-06-04T07:39:45.000Z</time>
      </trkpt>
      <trkpt lat="43.46789949573576450347900390625" lon="-5.661799572408199310302734375">
        <ele>340.600006103515625</ele>
        <time>2022-06-04T07:39:47.000Z</time>
      </trkpt>
      <trkpt lat="43.46788323484361171722412109375" lon="-5.6617668829858303070068359375">
        <ele>340.79998779296875</ele>
        <time>2022-06-04T07:39:49.000Z</time>
      </trkpt>
      <trkpt lat="43.46786613576114177703857421875" lon="-5.66172790713608264923095703125">
        <ele>341.20001220703125</ele>
        <time>2022-06-04T07:39:51.000Z</time>
      </trkpt>
      <trkpt lat="43.46784618683159351348876953125" lon="-5.66169756464660167694091796875">
        <ele>341.399993896484375</ele>
        <time>2022-06-04T07:39:53.000Z</time>
      </trkpt>
      <trkpt lat="43.46782498061656951904296875" lon="-5.66167392767965793609619140625">
        <ele>341.79998779296875</ele>
        <time>2022-06-04T07:39:55.000Z</time>
      </trkpt>
      <trkpt lat="43.4678040258586406707763671875" lon="-5.6616545654833316802978515625">
        <ele>342.399993896484375</ele>
        <time>2022-06-04T07:39:57.000Z</time>
      </trkpt>
      <trkpt lat="43.46779053099453449249267578125" lon="-5.66164375282824039459228515625">
        <ele>342.600006103515625</ele>
        <time>2022-06-04T07:39:58.000Z</time>
      </trkpt>
      <trkpt lat="43.46777711994946002960205078125" lon="-5.66163537092506885528564453125">
        <ele>342.79998779296875</ele>
        <time>2022-06-04T07:39:59.000Z</time>
      </trkpt>
      <trkpt lat="43.46775046549737453460693359375" lon="-5.6616186909377574920654296875">
        <ele>343.20001220703125</ele>
        <time>2022-06-04T07:40:01.000Z</time>
      </trkpt>
      <trkpt lat="43.467722721397876739501953125" lon="-5.661607794463634490966796875">
        <ele>343.399993896484375</ele>
        <time>2022-06-04T07:40:03.000Z</time>
      </trkpt>
      <trkpt lat="43.46769480966031551361083984375" lon="-5.6615968979895114898681640625">
        <ele>343.79998779296875</ele>
        <time>2022-06-04T07:40:05.000Z</time>
      </trkpt>
      <trkpt lat="43.467666395008563995361328125" lon="-5.661580972373485565185546875">
        <ele>344</ele>
        <time>2022-06-04T07:40:07.000Z</time>
      </trkpt>
      <trkpt lat="43.46764200367033481597900390625" lon="-5.66156798042356967926025390625">
        <ele>344.20001220703125</ele>
        <time>2022-06-04T07:40:09.000Z</time>
      </trkpt>
      <trkpt lat="43.4676179476082324981689453125" lon="-5.661554820835590362548828125">
        <ele>344.600006103515625</ele>
        <time>2022-06-04T07:40:11.000Z</time>
      </trkpt>
      <trkpt lat="43.46759623847901821136474609375" lon="-5.661540739238262176513671875">
        <ele>345</ele>
        <time>2022-06-04T07:40:13.000Z</time>
      </trkpt>
      <trkpt lat="43.4675793908536434173583984375" lon="-5.6615298427641391754150390625">
        <ele>345.20001220703125</ele>
        <time>2022-06-04T07:40:15.000Z</time>
      </trkpt>
      <trkpt lat="43.46757327206432819366455078125" lon="-5.661522634327411651611328125">
        <ele>345.399993896484375</ele>
        <time>2022-06-04T07:40:16.000Z</time>
      </trkpt>
      <trkpt lat="43.4675636328756809234619140625" lon="-5.66151986829936504364013671875">
        <ele>345.600006103515625</ele>
        <time>2022-06-04T07:40:17.000Z</time>
      </trkpt>
      <trkpt lat="43.46755282022058963775634765625" lon="-5.6615130789577960968017578125">
        <ele>345.79998779296875</ele>
        <time>2022-06-04T07:40:18.000Z</time>
      </trkpt>
      <trkpt lat="43.46754360012710094451904296875" lon="-5.661507546901702880859375">
        <ele>345.79998779296875</ele>
        <time>2022-06-04T07:40:19.000Z</time>
      </trkpt>
      <trkpt lat="43.46752448938786983489990234375" lon="-5.66149606369435787200927734375">
        <ele>346.399993896484375</ele>
        <time>2022-06-04T07:40:21.000Z</time>
      </trkpt>
      <trkpt lat="43.46751292236149311065673828125" lon="-5.66149170510470867156982421875">
        <ele>346.600006103515625</ele>
        <time>2022-06-04T07:40:22.000Z</time>
      </trkpt>
      <trkpt lat="43.467499427497386932373046875" lon="-5.6614847481250762939453125">
        <ele>346.79998779296875</ele>
        <time>2022-06-04T07:40:23.000Z</time>
      </trkpt>
      <trkpt lat="43.4674767963588237762451171875" lon="-5.6614671461284160614013671875">
        <ele>347.399993896484375</ele>
        <time>2022-06-04T07:40:25.000Z</time>
      </trkpt>
      <trkpt lat="43.46746162511408329010009765625" lon="-5.66144560463726520538330078125">
        <ele>347.600006103515625</ele>
        <time>2022-06-04T07:40:27.000Z</time>
      </trkpt>
      <trkpt lat="43.46743815578520298004150390625" lon="-5.66142012365162372589111328125">
        <ele>348.20001220703125</ele>
        <time>2022-06-04T07:40:29.000Z</time>
      </trkpt>
      <trkpt lat="43.46741518937051296234130859375" lon="-5.66139279864728450775146484375">
        <ele>348.600006103515625</ele>
        <time>2022-06-04T07:40:31.000Z</time>
      </trkpt>
      <trkpt lat="43.4673966653645038604736328125" lon="-5.66136245615780353546142578125">
        <ele>349</ele>
        <time>2022-06-04T07:40:33.000Z</time>
      </trkpt>
      <trkpt lat="43.467373363673686981201171875" lon="-5.66133119165897369384765625">
        <ele>349.20001220703125</ele>
        <time>2022-06-04T07:40:35.000Z</time>
      </trkpt>
      <trkpt lat="43.4673497267067432403564453125" lon="-5.66130545921623706817626953125">
        <ele>349.600006103515625</ele>
        <time>2022-06-04T07:40:37.000Z</time>
      </trkpt>
      <trkpt lat="43.467329442501068115234375" lon="-5.6612797267735004425048828125">
        <ele>350</ele>
        <time>2022-06-04T07:40:39.000Z</time>
      </trkpt>
      <trkpt lat="43.46731192432343959808349609375" lon="-5.66125432960689067840576171875">
        <ele>350.399993896484375</ele>
        <time>2022-06-04T07:40:41.000Z</time>
      </trkpt>
      <trkpt lat="43.46729331649839878082275390625" lon="-5.66123538650572299957275390625">
        <ele>350.79998779296875</ele>
        <time>2022-06-04T07:40:43.000Z</time>
      </trkpt>
      <trkpt lat="43.467274121940135955810546875" lon="-5.661214850842952728271484375">
        <ele>351.20001220703125</ele>
        <time>2022-06-04T07:40:45.000Z</time>
      </trkpt>
      <trkpt lat="43.46726263873279094696044921875" lon="-5.66120169125497341156005859375">
        <ele>351.600006103515625</ele>
        <time>2022-06-04T07:40:46.000Z</time>
      </trkpt>
      <trkpt lat="43.467251323163509368896484375" lon="-5.66118710674345493316650390625">
        <ele>351.79998779296875</ele>
        <time>2022-06-04T07:40:47.000Z</time>
      </trkpt>
      <trkpt lat="43.46722827292978763580322265625" lon="-5.6611610390245914459228515625">
        <ele>352</ele>
        <time>2022-06-04T07:40:49.000Z</time>
      </trkpt>
      <trkpt lat="43.4672032110393047332763671875" lon="-5.66113010980188846588134765625">
        <ele>352.600006103515625</ele>
        <time>2022-06-04T07:40:51.000Z</time>
      </trkpt>
      <trkpt lat="43.467189632356166839599609375" lon="-5.66111032851040363311767578125">
        <ele>352.79998779296875</ele>
        <time>2022-06-04T07:40:52.000Z</time>
      </trkpt>
      <trkpt lat="43.46717655658721923828125" lon="-5.66109054721891880035400390625">
        <ele>353</ele>
        <time>2022-06-04T07:40:53.000Z</time>
      </trkpt>
      <trkpt lat="43.4671483933925628662109375" lon="-5.6610591150820255279541015625">
        <ele>353.399993896484375</ele>
        <time>2022-06-04T07:40:55.000Z</time>
      </trkpt>
      <trkpt lat="43.4671146981418132781982421875" lon="-5.66102248616516590118408203125">
        <ele>353.79998779296875</ele>
        <time>2022-06-04T07:40:57.000Z</time>
      </trkpt>
      <trkpt lat="43.467095755040645599365234375" lon="-5.66100387834012508392333984375">
        <ele>353.79998779296875</ele>
        <time>2022-06-04T07:40:58.000Z</time>
      </trkpt>
      <trkpt lat="43.4670781530439853668212890625" lon="-5.66098652780055999755859375">
        <ele>354</ele>
        <time>2022-06-04T07:40:59.000Z</time>
      </trkpt>
      <trkpt lat="43.46704219467937946319580078125" lon="-5.6609474681317806243896484375">
        <ele>354.20001220703125</ele>
        <time>2022-06-04T07:41:01.000Z</time>
      </trkpt>
      <trkpt lat="43.4670037217438220977783203125" lon="-5.660898685455322265625">
        <ele>354.399993896484375</ele>
        <time>2022-06-04T07:41:03.000Z</time>
      </trkpt>
      <trkpt lat="43.4669665060937404632568359375" lon="-5.66084378398954868316650390625">
        <ele>354.600006103515625</ele>
        <time>2022-06-04T07:41:05.000Z</time>
      </trkpt>
      <trkpt lat="43.4669484011828899383544921875" lon="-5.66081310622394084930419921875">
        <ele>354.79998779296875</ele>
        <time>2022-06-04T07:41:06.000Z</time>
      </trkpt>
      <trkpt lat="43.46693155355751514434814453125" lon="-5.6607821770012378692626953125">
        <ele>355</ele>
        <time>2022-06-04T07:41:07.000Z</time>
      </trkpt>
      <trkpt lat="43.46690271981060504913330078125" lon="-5.66072258166968822479248046875">
        <ele>355</ele>
        <time>2022-06-04T07:41:09.000Z</time>
      </trkpt>
      <trkpt lat="43.466871790587902069091796875" lon="-5.66066139377653598785400390625">
        <ele>355.20001220703125</ele>
        <time>2022-06-04T07:41:11.000Z</time>
      </trkpt>
      <trkpt lat="43.4668397717177867889404296875" lon="-5.660601295530796051025390625">
        <ele>355.20001220703125</ele>
        <time>2022-06-04T07:41:13.000Z</time>
      </trkpt>
      <trkpt lat="43.46681169234216213226318359375" lon="-5.66053532995283603668212890625">
        <ele>355.399993896484375</ele>
        <time>2022-06-04T07:41:15.000Z</time>
      </trkpt>
      <trkpt lat="43.46678704954683780670166015625" lon="-5.6604770757257938385009765625">
        <ele>355.600006103515625</ele>
        <time>2022-06-04T07:41:17.000Z</time>
      </trkpt>
      <trkpt lat="43.46675838343799114227294921875" lon="-5.66042301245033740997314453125">
        <ele>356</ele>
        <time>2022-06-04T07:41:19.000Z</time>
      </trkpt>
      <trkpt lat="43.4667311422526836395263671875" lon="-5.6603563763201236724853515625">
        <ele>356.20001220703125</ele>
        <time>2022-06-04T07:41:21.000Z</time>
      </trkpt>
      <trkpt lat="43.4666935913264751434326171875" lon="-5.6602842919528484344482421875">
        <ele>356.399993896484375</ele>
        <time>2022-06-04T07:41:23.000Z</time>
      </trkpt>
      <trkpt lat="43.466653861105442047119140625" lon="-5.660207681357860565185546875">
        <ele>356.79998779296875</ele>
        <time>2022-06-04T07:41:25.000Z</time>
      </trkpt>
      <trkpt lat="43.46663449890911579132080078125" lon="-5.66017306409776210784912109375">
        <ele>356.79998779296875</ele>
        <time>2022-06-04T07:41:26.000Z</time>
      </trkpt>
      <trkpt lat="43.46661186777055263519287109375" lon="-5.66014188341796398162841796875">
        <ele>357.20001220703125</ele>
        <time>2022-06-04T07:41:27.000Z</time>
      </trkpt>
      <trkpt lat="43.4665645100176334381103515625" lon="-5.66008270718157291412353515625">
        <ele>357.600006103515625</ele>
        <time>2022-06-04T07:41:29.000Z</time>
      </trkpt>
      <trkpt lat="43.46651480533182621002197265625" lon="-5.6600321643054485321044921875">
        <ele>358</ele>
        <time>2022-06-04T07:41:31.000Z</time>
      </trkpt>
      <trkpt lat="43.466489575803279876708984375" lon="-5.6600070185959339141845703125">
        <ele>358.20001220703125</ele>
        <time>2022-06-04T07:41:32.000Z</time>
      </trkpt>
      <trkpt lat="43.466464765369892120361328125" lon="-5.65998128615319728851318359375">
        <ele>358.399993896484375</ele>
        <time>2022-06-04T07:41:33.000Z</time>
      </trkpt>
      <trkpt lat="43.466438949108123779296875" lon="-5.65995597280561923980712890625">
        <ele>358.79998779296875</ele>
        <time>2022-06-04T07:41:34.000Z</time>
      </trkpt>
      <trkpt lat="43.46641145646572113037109375" lon="-5.65992898307740688323974609375">
        <ele>359</ele>
        <time>2022-06-04T07:41:35.000Z</time>
      </trkpt>
      <trkpt lat="43.4663851372897624969482421875" lon="-5.65990048460662364959716796875">
        <ele>359.20001220703125</ele>
        <time>2022-06-04T07:41:36.000Z</time>
      </trkpt>
      <trkpt lat="43.46635990776121616363525390625" lon="-5.659868381917476654052734375">
        <ele>359.399993896484375</ele>
        <time>2022-06-04T07:41:37.000Z</time>
      </trkpt>
      <trkpt lat="43.46631514839828014373779296875" lon="-5.65979856066405773162841796875">
        <ele>359.600006103515625</ele>
        <time>2022-06-04T07:41:39.000Z</time>
      </trkpt>
      <trkpt lat="43.4662969596683979034423828125" lon="-5.6597622670233249664306640625">
        <ele>359.600006103515625</ele>
        <time>2022-06-04T07:41:40.000Z</time>
      </trkpt>
      <trkpt lat="43.46628597937524318695068359375" lon="-5.65972178243100643157958984375">
        <ele>359.79998779296875</ele>
        <time>2022-06-04T07:41:41.000Z</time>
      </trkpt>
      <trkpt lat="43.4662858955562114715576171875" lon="-5.659679286181926727294921875">
        <ele>360</ele>
        <time>2022-06-04T07:41:42.000Z</time>
      </trkpt>
      <trkpt lat="43.4662952832877635955810546875" lon="-5.6596385501325130462646484375">
        <ele>360</ele>
        <time>2022-06-04T07:41:43.000Z</time>
      </trkpt>
      <trkpt lat="43.46631129272282123565673828125" lon="-5.6595966406166553497314453125">
        <ele>360</ele>
        <time>2022-06-04T07:41:44.000Z</time>
      </trkpt>
      <trkpt lat="43.4663355164229869842529296875" lon="-5.65955959260463714599609375">
        <ele>360</ele>
        <time>2022-06-04T07:41:45.000Z</time>
      </trkpt>
      <trkpt lat="43.46639879979193210601806640625" lon="-5.6594930402934551239013671875">
        <ele>360</ele>
        <time>2022-06-04T07:41:47.000Z</time>
      </trkpt>
      <trkpt lat="43.46643450669944286346435546875" lon="-5.65946328453719615936279296875">
        <ele>360</ele>
        <time>2022-06-04T07:41:48.000Z</time>
      </trkpt>
      <trkpt lat="43.46647188998758792877197265625" lon="-5.6594326905906200408935546875">
        <ele>360</ele>
        <time>2022-06-04T07:41:49.000Z</time>
      </trkpt>
      <trkpt lat="43.46654481254518032073974609375" lon="-5.65936689265072345733642578125">
        <ele>360</ele>
        <time>2022-06-04T07:41:51.000Z</time>
      </trkpt>
      <trkpt lat="43.46661270596086978912353515625" lon="-5.659297741949558258056640625">
        <ele>360</ele>
        <time>2022-06-04T07:41:53.000Z</time>
      </trkpt>
      <trkpt lat="43.4666785039007663726806640625" lon="-5.6592397391796112060546875">
        <ele>359.79998779296875</ele>
        <time>2022-06-04T07:41:55.000Z</time>
      </trkpt>
      <trkpt lat="43.4667083434760570526123046875" lon="-5.65921668894588947296142578125">
        <ele>359.79998779296875</ele>
        <time>2022-06-04T07:41:56.000Z</time>
      </trkpt>
      <trkpt lat="43.4667355008423328399658203125" lon="-5.659196488559246063232421875">
        <ele>359.600006103515625</ele>
        <time>2022-06-04T07:41:57.000Z</time>
      </trkpt>
      <trkpt lat="43.466785289347171783447265625" lon="-5.65916622988879680633544921875">
        <ele>359.600006103515625</ele>
        <time>2022-06-04T07:41:59.000Z</time>
      </trkpt>
      <trkpt lat="43.46683147363364696502685546875" lon="-5.6591617874801158905029296875">
        <ele>359.600006103515625</ele>
        <time>2022-06-04T07:42:01.000Z</time>
      </trkpt>
      <trkpt lat="43.46685360185801982879638671875" lon="-5.659169666469097137451171875">
        <ele>359.600006103515625</ele>
        <time>2022-06-04T07:42:02.000Z</time>
      </trkpt>
      <trkpt lat="43.46687413752079010009765625" lon="-5.6591802276670932769775390625">
        <ele>359.600006103515625</ele>
        <time>2022-06-04T07:42:03.000Z</time>
      </trkpt>
      <trkpt lat="43.46691143698990345001220703125" lon="-5.659206546843051910400390625">
        <ele>359.600006103515625</ele>
        <time>2022-06-04T07:42:05.000Z</time>
      </trkpt>
      <trkpt lat="43.4669463895261287689208984375" lon="-5.65923462621867656707763671875">
        <ele>359.79998779296875</ele>
        <time>2022-06-04T07:42:07.000Z</time>
      </trkpt>
      <trkpt lat="43.466985784471035003662109375" lon="-5.6592529825866222381591796875">
        <ele>360</ele>
        <time>2022-06-04T07:42:09.000Z</time>
      </trkpt>
      <trkpt lat="43.467005901038646697998046875" lon="-5.65925826318562030792236328125">
        <ele>360.20001220703125</ele>
        <time>2022-06-04T07:42:10.000Z</time>
      </trkpt>
      <trkpt lat="43.4670261852443218231201171875" lon="-5.65926413051784038543701171875">
        <ele>360.399993896484375</ele>
        <time>2022-06-04T07:42:11.000Z</time>
      </trkpt>
      <trkpt lat="43.46706532873213291168212890625" lon="-5.659270584583282470703125">
        <ele>360.600006103515625</ele>
        <time>2022-06-04T07:42:13.000Z</time>
      </trkpt>
      <trkpt lat="43.46710220910608768463134765625" lon="-5.65927854739129543304443359375">
        <ele>360.79998779296875</ele>
        <time>2022-06-04T07:42:15.000Z</time>
      </trkpt>
      <trkpt lat="43.4671348147094249725341796875" lon="-5.6592871807515621185302734375">
        <ele>361</ele>
        <time>2022-06-04T07:42:17.000Z</time>
      </trkpt>
      <trkpt lat="43.46716725267469882965087890625" lon="-5.6592871807515621185302734375">
        <ele>361.399993896484375</ele>
        <time>2022-06-04T07:42:19.000Z</time>
      </trkpt>
      <trkpt lat="43.467201031744480133056640625" lon="-5.659278295934200286865234375">
        <ele>361.79998779296875</ele>
        <time>2022-06-04T07:42:21.000Z</time>
      </trkpt>
      <trkpt lat="43.467235565185546875" lon="-5.6592653878033161163330078125">
        <ele>362</ele>
        <time>2022-06-04T07:42:23.000Z</time>
      </trkpt>
      <trkpt lat="43.467250652611255645751953125" lon="-5.6592523120343685150146484375">
        <ele>362.399993896484375</ele>
        <time>2022-06-04T07:42:24.000Z</time>
      </trkpt>
      <trkpt lat="43.4672664105892181396484375" lon="-5.6592355482280254364013671875">
        <ele>362.600006103515625</ele>
        <time>2022-06-04T07:42:25.000Z</time>
      </trkpt>
      <trkpt lat="43.4672964178025722503662109375" lon="-5.65920193679630756378173828125">
        <ele>363.20001220703125</ele>
        <time>2022-06-04T07:42:27.000Z</time>
      </trkpt>
      <trkpt lat="43.46731192432343959808349609375" lon="-5.659184418618679046630859375">
        <ele>363.600006103515625</ele>
        <time>2022-06-04T07:42:28.000Z</time>
      </trkpt>
      <trkpt lat="43.467327095568180084228515625" lon="-5.6591678224503993988037109375">
        <ele>363.79998779296875</ele>
        <time>2022-06-04T07:42:29.000Z</time>
      </trkpt>
      <trkpt lat="43.46735701896250247955322265625" lon="-5.6591217219829559326171875">
        <ele>364.20001220703125</ele>
        <time>2022-06-04T07:42:31.000Z</time>
      </trkpt>
      <trkpt lat="43.46737034618854522705078125" lon="-5.65909682773053646087646484375">
        <ele>364.600006103515625</ele>
        <time>2022-06-04T07:42:32.000Z</time>
      </trkpt>
      <trkpt lat="43.46738350577652454376220703125" lon="-5.659072436392307281494140625">
        <ele>364.600006103515625</ele>
        <time>2022-06-04T07:42:33.000Z</time>
      </trkpt>
      <trkpt lat="43.46740831620991230010986328125" lon="-5.6590233184397220611572265625">
        <ele>364.600006103515625</ele>
        <time>2022-06-04T07:42:35.000Z</time>
      </trkpt>
      <trkpt lat="43.46742725931107997894287109375" lon="-5.6589733622968196868896484375">
        <ele>364.79998779296875</ele>
        <time>2022-06-04T07:42:37.000Z</time>
      </trkpt>
      <trkpt lat="43.4674580208957195281982421875" lon="-5.65893488936126232147216796875">
        <ele>364.79998779296875</ele>
        <time>2022-06-04T07:42:39.000Z</time>
      </trkpt>
      <trkpt lat="43.46749230287969112396240234375" lon="-5.65890253521502017974853515625">
        <ele>364.79998779296875</ele>
        <time>2022-06-04T07:42:41.000Z</time>
      </trkpt>
      <trkpt lat="43.46752331592142581939697265625" lon="-5.65886967815458774566650390625">
        <ele>365</ele>
        <time>2022-06-04T07:42:43.000Z</time>
      </trkpt>
      <trkpt lat="43.4675560891628265380859375" lon="-5.658835060894489288330078125">
        <ele>365.399993896484375</ele>
        <time>2022-06-04T07:42:45.000Z</time>
      </trkpt>
      <trkpt lat="43.46759221516549587249755859375" lon="-5.6588010303676128387451171875">
        <ele>365.600006103515625</ele>
        <time>2022-06-04T07:42:47.000Z</time>
      </trkpt>
      <trkpt lat="43.46760830841958522796630859375" lon="-5.65878451801836490631103515625">
        <ele>365.600006103515625</ele>
        <time>2022-06-04T07:42:48.000Z</time>
      </trkpt>
      <trkpt lat="43.4676216356456279754638671875" lon="-5.6587664969265460968017578125">
        <ele>366</ele>
        <time>2022-06-04T07:42:49.000Z</time>
      </trkpt>
      <trkpt lat="43.4676558338105678558349609375" lon="-5.65872609615325927734375">
        <ele>366.20001220703125</ele>
        <time>2022-06-04T07:42:51.000Z</time>
      </trkpt>
      <trkpt lat="43.4677000902593135833740234375" lon="-5.6586826778948307037353515625">
        <ele>366.600006103515625</ele>
        <time>2022-06-04T07:42:53.000Z</time>
      </trkpt>
      <trkpt lat="43.467723391950130462646484375" lon="-5.658662058413028717041015625">
        <ele>366.600006103515625</ele>
        <time>2022-06-04T07:42:54.000Z</time>
      </trkpt>
      <trkpt lat="43.4677476994693279266357421875" lon="-5.65864227712154388427734375">
        <ele>366.79998779296875</ele>
        <time>2022-06-04T07:42:55.000Z</time>
      </trkpt>
      <trkpt lat="43.4677979908883571624755859375" lon="-5.6586094200611114501953125">
        <ele>367.20001220703125</ele>
        <time>2022-06-04T07:42:57.000Z</time>
      </trkpt>
      <trkpt lat="43.46785021014511585235595703125" lon="-5.6585827656090259552001953125">
        <ele>367.600006103515625</ele>
        <time>2022-06-04T07:42:59.000Z</time>
      </trkpt>
      <trkpt lat="43.46787585876882076263427734375" lon="-5.6585723720490932464599609375">
        <ele>367.79998779296875</ele>
        <time>2022-06-04T07:43:00.000Z</time>
      </trkpt>
      <trkpt lat="43.4679012559354305267333984375" lon="-5.65856373868882656097412109375">
        <ele>368</ele>
        <time>2022-06-04T07:43:01.000Z</time>
      </trkpt>
      <trkpt lat="43.46795506775379180908203125" lon="-5.6585468910634517669677734375">
        <ele>368.20001220703125</ele>
        <time>2022-06-04T07:43:03.000Z</time>
      </trkpt>
      <trkpt lat="43.46801265142858028411865234375" lon="-5.65853490494191646575927734375">
        <ele>368.399993896484375</ele>
        <time>2022-06-04T07:43:05.000Z</time>
      </trkpt>
      <trkpt lat="43.46805565059185028076171875" lon="-5.658514201641082763671875">
        <ele>368.399993896484375</ele>
        <time>2022-06-04T07:43:07.000Z</time>
      </trkpt>
      <trkpt lat="43.468088172376155853271484375" lon="-5.6585022993385791778564453125">
        <ele>368.399993896484375</ele>
        <time>2022-06-04T07:43:09.000Z</time>
      </trkpt>
      <trkpt lat="43.46811206080019474029541015625" lon="-5.65850171260535717010498046875">
        <ele>368.399993896484375</ele>
        <time>2022-06-04T07:43:11.000Z</time>
      </trkpt>
      <trkpt lat="43.46812396310269832611083984375" lon="-5.6585033051669597625732421875">
        <ele>368.600006103515625</ele>
        <time>2022-06-04T07:43:12.000Z</time>
      </trkpt>
      <trkpt lat="43.46813745796680450439453125" lon="-5.6585061550140380859375">
        <ele>368.600006103515625</ele>
        <time>2022-06-04T07:43:13.000Z</time>
      </trkpt>
      <trkpt lat="43.46816604025661945343017578125" lon="-5.65851361490786075592041015625">
        <ele>368.79998779296875</ele>
        <time>2022-06-04T07:43:15.000Z</time>
      </trkpt>
      <trkpt lat="43.468179367482662200927734375" lon="-5.658519566059112548828125">
        <ele>369</ele>
        <time>2022-06-04T07:43:16.000Z</time>
      </trkpt>
      <trkpt lat="43.468193113803863525390625" lon="-5.65852618776261806488037109375">
        <ele>369.20001220703125</ele>
        <time>2022-06-04T07:43:17.000Z</time>
      </trkpt>
      <trkpt lat="43.468219935894012451171875" lon="-5.65853959880769252777099609375">
        <ele>370</ele>
        <time>2022-06-04T07:43:19.000Z</time>
      </trkpt>
      <trkpt lat="43.46824784763157367706298828125" lon="-5.65855368040502071380615234375">
        <ele>370.600006103515625</ele>
        <time>2022-06-04T07:43:21.000Z</time>
      </trkpt>
      <trkpt lat="43.46827148459851741790771484375" lon="-5.6585670076310634613037109375">
        <ele>371.20001220703125</ele>
        <time>2022-06-04T07:43:23.000Z</time>
      </trkpt>
      <trkpt lat="43.46829093061387538909912109375" lon="-5.658569522202014923095703125">
        <ele>371.600006103515625</ele>
        <time>2022-06-04T07:43:25.000Z</time>
      </trkpt>
      <trkpt lat="43.46831372939050197601318359375" lon="-5.65857077948749065399169921875">
        <ele>372</ele>
        <time>2022-06-04T07:43:27.000Z</time>
      </trkpt>
      <trkpt lat="43.4683263860642910003662109375" lon="-5.65857413224875926971435546875">
        <ele>372.399993896484375</ele>
        <time>2022-06-04T07:43:28.000Z</time>
      </trkpt>
      <trkpt lat="43.4683394618332386016845703125" lon="-5.6585799157619476318359375">
        <ele>372.600006103515625</ele>
        <time>2022-06-04T07:43:29.000Z</time>
      </trkpt>
      <trkpt lat="43.46836251206696033477783203125" lon="-5.65858955495059490203857421875">
        <ele>373.20001220703125</ele>
        <time>2022-06-04T07:43:31.000Z</time>
      </trkpt>
      <trkpt lat="43.46837483346462249755859375" lon="-5.65859458409249782562255859375">
        <ele>373.600006103515625</ele>
        <time>2022-06-04T07:43:32.000Z</time>
      </trkpt>
      <trkpt lat="43.46838824450969696044921875" lon="-5.6586013734340667724609375">
        <ele>373.79998779296875</ele>
        <time>2022-06-04T07:43:33.000Z</time>
      </trkpt>
      <trkpt lat="43.468414060771465301513671875" lon="-5.6586121022701263427734375">
        <ele>374.399993896484375</ele>
        <time>2022-06-04T07:43:35.000Z</time>
      </trkpt>
      <trkpt lat="43.46842403523623943328857421875" lon="-5.658611766993999481201171875">
        <ele>374.79998779296875</ele>
        <time>2022-06-04T07:43:36.000Z</time>
      </trkpt>
      <trkpt lat="43.46843426115810871124267578125" lon="-5.65861268900334835052490234375">
        <ele>375</ele>
        <time>2022-06-04T07:43:37.000Z</time>
      </trkpt>
      <trkpt lat="43.46845756284892559051513671875" lon="-5.65862056799232959747314453125">
        <ele>375.600006103515625</ele>
        <time>2022-06-04T07:43:39.000Z</time>
      </trkpt>
      <trkpt lat="43.4684806130826473236083984375" lon="-5.65862475894391536712646484375">
        <ele>376</ele>
        <time>2022-06-04T07:43:41.000Z</time>
      </trkpt>
      <trkpt lat="43.4685020707547664642333984375" lon="-5.658621825277805328369140625">
        <ele>376.20001220703125</ele>
        <time>2022-06-04T07:43:43.000Z</time>
      </trkpt>
      <trkpt lat="43.46852629445493221282958984375" lon="-5.6586236692965030670166015625">
        <ele>377.20001220703125</ele>
        <time>2022-06-04T07:43:45.000Z</time>
      </trkpt>
      <trkpt lat="43.4685486741364002227783203125" lon="-5.6586233340203762054443359375">
        <ele>377.399993896484375</ele>
        <time>2022-06-04T07:43:47.000Z</time>
      </trkpt>
      <trkpt lat="43.46857055090367794036865234375" lon="-5.658626519143581390380859375">
        <ele>378</ele>
        <time>2022-06-04T07:43:49.000Z</time>
      </trkpt>
      <trkpt lat="43.46858379431068897247314453125" lon="-5.65863096155226230621337890625">
        <ele>378.20001220703125</ele>
        <time>2022-06-04T07:43:50.000Z</time>
      </trkpt>
      <trkpt lat="43.46859519369900226593017578125" lon="-5.658631883561611175537109375">
        <ele>378.600006103515625</ele>
        <time>2022-06-04T07:43:51.000Z</time>
      </trkpt>
      <trkpt lat="43.46861748956143856048583984375" lon="-5.65863247029483318328857421875">
        <ele>379</ele>
        <time>2022-06-04T07:43:53.000Z</time>
      </trkpt>
      <trkpt lat="43.468641377985477447509765625" lon="-5.65864169038832187652587890625">
        <ele>379.20001220703125</ele>
        <time>2022-06-04T07:43:55.000Z</time>
      </trkpt>
      <trkpt lat="43.46865302883088588714599609375" lon="-5.65864705480635166168212890625">
        <ele>379.399993896484375</ele>
        <time>2022-06-04T07:43:56.000Z</time>
      </trkpt>
      <trkpt lat="43.46866593696177005767822265625" lon="-5.6586518324911594390869140625">
        <ele>379.600006103515625</ele>
        <time>2022-06-04T07:43:57.000Z</time>
      </trkpt>
      <trkpt lat="43.4686906635761260986328125" lon="-5.6586628966033458709716796875">
        <ele>380.399993896484375</ele>
        <time>2022-06-04T07:43:59.000Z</time>
      </trkpt>
      <trkpt lat="43.46871354617178440093994140625" lon="-5.65867622382938861846923828125">
        <ele>381.20001220703125</ele>
        <time>2022-06-04T07:44:01.000Z</time>
      </trkpt>
      <trkpt lat="43.46872444264590740203857421875" lon="-5.65868527628481388092041015625">
        <ele>381.399993896484375</ele>
        <time>2022-06-04T07:44:02.000Z</time>
      </trkpt>
      <trkpt lat="43.4687360934913158416748046875" lon="-5.6586944125592708587646484375">
        <ele>381.600006103515625</ele>
        <time>2022-06-04T07:44:03.000Z</time>
      </trkpt>
      <trkpt lat="43.468758054077625274658203125" lon="-5.65871511586010456085205078125">
        <ele>382.20001220703125</ele>
        <time>2022-06-04T07:44:05.000Z</time>
      </trkpt>
      <trkpt lat="43.468778841197490692138671875" lon="-5.6587316282093524932861328125">
        <ele>382.600006103515625</ele>
        <time>2022-06-04T07:44:07.000Z</time>
      </trkpt>
      <trkpt lat="43.46879853866994380950927734375" lon="-5.65874294377863407135009765625">
        <ele>382.79998779296875</ele>
        <time>2022-06-04T07:44:09.000Z</time>
      </trkpt>
      <trkpt lat="43.46880666911602020263671875" lon="-5.65875518135726451873779296875">
        <ele>383</ele>
        <time>2022-06-04T07:44:10.000Z</time>
      </trkpt>
      <trkpt lat="43.46881429664790630340576171875" lon="-5.65876792185008525848388671875">
        <ele>383.20001220703125</ele>
        <time>2022-06-04T07:44:11.000Z</time>
      </trkpt>
      <trkpt lat="43.46883072517812252044677734375" lon="-5.6587889604270458221435546875">
        <ele>383.79998779296875</ele>
        <time>2022-06-04T07:44:13.000Z</time>
      </trkpt>
      <trkpt lat="43.46883860416710376739501953125" lon="-5.6587970070540904998779296875">
        <ele>384</ele>
        <time>2022-06-04T07:44:14.000Z</time>
      </trkpt>
      <trkpt lat="43.46884631551802158355712890625" lon="-5.6588079035282135009765625">
        <ele>384</ele>
        <time>2022-06-04T07:44:15.000Z</time>
      </trkpt>
      <trkpt lat="43.46886165440082550048828125" lon="-5.65883078612387180328369140625">
        <ele>384.399993896484375</ele>
        <time>2022-06-04T07:44:17.000Z</time>
      </trkpt>
      <trkpt lat="43.4688762389123439788818359375" lon="-5.65885341726243495941162109375">
        <ele>384.79998779296875</ele>
        <time>2022-06-04T07:44:19.000Z</time>
      </trkpt>
      <trkpt lat="43.46888403408229351043701171875" lon="-5.65886666066944599151611328125">
        <ele>384.79998779296875</ele>
        <time>2022-06-04T07:44:20.000Z</time>
      </trkpt>
      <trkpt lat="43.46889241598546504974365234375" lon="-5.6588791497051715850830078125">
        <ele>384.79998779296875</ele>
        <time>2022-06-04T07:44:21.000Z</time>
      </trkpt>
      <trkpt lat="43.46890901215374469757080078125" lon="-5.6589031219482421875">
        <ele>385.20001220703125</ele>
        <time>2022-06-04T07:44:23.000Z</time>
      </trkpt>
      <trkpt lat="43.4689258597791194915771484375" lon="-5.65892633982002735137939453125">
        <ele>385.600006103515625</ele>
        <time>2022-06-04T07:44:25.000Z</time>
      </trkpt>
      <trkpt lat="43.468934409320354461669921875" lon="-5.65893706865608692169189453125">
        <ele>385.79998779296875</ele>
        <time>2022-06-04T07:44:26.000Z</time>
      </trkpt>
      <trkpt lat="43.468942455947399139404296875" lon="-5.6589492224156856536865234375">
        <ele>385.79998779296875</ele>
        <time>2022-06-04T07:44:27.000Z</time>
      </trkpt>
      <trkpt lat="43.4689617343246936798095703125" lon="-5.6589747034013271331787109375">
        <ele>386.20001220703125</ele>
        <time>2022-06-04T07:44:29.000Z</time>
      </trkpt>
      <trkpt lat="43.46897791139781475067138671875" lon="-5.658997334539890289306640625">
        <ele>386.600006103515625</ele>
        <time>2022-06-04T07:44:31.000Z</time>
      </trkpt>
      <trkpt lat="43.4689862094819545745849609375" lon="-5.6590092368423938751220703125">
        <ele>386.79998779296875</ele>
        <time>2022-06-04T07:44:32.000Z</time>
      </trkpt>
      <trkpt lat="43.4689937531948089599609375" lon="-5.6590206362307071685791015625">
        <ele>387</ele>
        <time>2022-06-04T07:44:33.000Z</time>
      </trkpt>
      <trkpt lat="43.46901051700115203857421875" lon="-5.65904335118830204010009765625">
        <ele>387.399993896484375</ele>
        <time>2022-06-04T07:44:35.000Z</time>
      </trkpt>
      <trkpt lat="43.46902736462652683258056640625" lon="-5.6590640544891357421875">
        <ele>387.79998779296875</ele>
        <time>2022-06-04T07:44:37.000Z</time>
      </trkpt>
      <trkpt lat="43.4690354950726032257080078125" lon="-5.65907486714422702789306640625">
        <ele>388</ele>
        <time>2022-06-04T07:44:38.000Z</time>
      </trkpt>
      <trkpt lat="43.46904329024255275726318359375" lon="-5.6590841710567474365234375">
        <ele>388.399993896484375</ele>
        <time>2022-06-04T07:44:39.000Z</time>
      </trkpt>
      <trkpt lat="43.4690603055059909820556640625" lon="-5.65910495817661285400390625">
        <ele>389</ele>
        <time>2022-06-04T07:44:41.000Z</time>
      </trkpt>
      <trkpt lat="43.4690693579614162445068359375" lon="-5.65911660902202129364013671875">
        <ele>389.399993896484375</ele>
        <time>2022-06-04T07:44:42.000Z</time>
      </trkpt>
      <trkpt lat="43.46907882951200008392333984375" lon="-5.65912717022001743316650390625">
        <ele>389.600006103515625</ele>
        <time>2022-06-04T07:44:43.000Z</time>
      </trkpt>
      <trkpt lat="43.4690968506038188934326171875" lon="-5.659147202968597412109375">
        <ele>390.20001220703125</ele>
        <time>2022-06-04T07:44:45.000Z</time>
      </trkpt>
      <trkpt lat="43.46910498104989528656005859375" lon="-5.65915684215724468231201171875">
        <ele>390.399993896484375</ele>
        <time>2022-06-04T07:44:46.000Z</time>
      </trkpt>
      <trkpt lat="43.469112776219844818115234375" lon="-5.659168995916843414306640625">
        <ele>390.600006103515625</ele>
        <time>2022-06-04T07:44:47.000Z</time>
      </trkpt>
      <trkpt lat="43.4691297076642513275146484375" lon="-5.65919422544538974761962890625">
        <ele>391.399993896484375</ele>
        <time>2022-06-04T07:44:49.000Z</time>
      </trkpt>
      <trkpt lat="43.469138927757740020751953125" lon="-5.65920562483370304107666015625">
        <ele>391.79998779296875</ele>
        <time>2022-06-04T07:44:50.000Z</time>
      </trkpt>
      <trkpt lat="43.4691498242318630218505859375" lon="-5.659215264022350311279296875">
        <ele>392</ele>
        <time>2022-06-04T07:44:51.000Z</time>
      </trkpt>
      <trkpt lat="43.4691696055233478546142578125" lon="-5.65923177637159824371337890625">
        <ele>392.399993896484375</ele>
        <time>2022-06-04T07:44:53.000Z</time>
      </trkpt>
      <trkpt lat="43.469187207520008087158203125" lon="-5.659248791635036468505859375">
        <ele>392.79998779296875</ele>
        <time>2022-06-04T07:44:55.000Z</time>
      </trkpt>
      <trkpt lat="43.469206988811492919921875" lon="-5.659267567098140716552734375">
        <ele>393.399993896484375</ele>
        <time>2022-06-04T07:44:57.000Z</time>
      </trkpt>
      <trkpt lat="43.46921595744788646697998046875" lon="-5.65927737392485141754150390625">
        <ele>393.600006103515625</ele>
        <time>2022-06-04T07:44:58.000Z</time>
      </trkpt>
      <trkpt lat="43.46922509372234344482421875" lon="-5.65928676165640354156494140625">
        <ele>393.79998779296875</ele>
        <time>2022-06-04T07:44:59.000Z</time>
      </trkpt>
      <trkpt lat="43.46923573873937129974365234375" lon="-5.65929765813052654266357421875">
        <ele>394</ele>
        <time>2022-06-04T07:45:00.000Z</time>
      </trkpt>
      <trkpt lat="43.46924730576574802398681640625" lon="-5.65930754877626895904541015625">
        <ele>394.399993896484375</ele>
        <time>2022-06-04T07:45:01.000Z</time>
      </trkpt>
      <trkpt lat="43.4692698530852794647216796875" lon="-5.6593255698680877685546875">
        <ele>395</ele>
        <time>2022-06-04T07:45:03.000Z</time>
      </trkpt>
      <trkpt lat="43.46927949227392673492431640625" lon="-5.659335292875766754150390625">
        <ele>395.20001220703125</ele>
        <time>2022-06-04T07:45:04.000Z</time>
      </trkpt>
      <trkpt lat="43.46928946673870086669921875" lon="-5.65934342332184314727783203125">
        <ele>395.399993896484375</ele>
        <time>2022-06-04T07:45:05.000Z</time>
      </trkpt>
      <trkpt lat="43.46929977647960186004638671875" lon="-5.6593515537679195404052734375">
        <ele>395.600006103515625</ele>
        <time>2022-06-04T07:45:06.000Z</time>
      </trkpt>
      <trkpt lat="43.469309918582439422607421875" lon="-5.65935842692852020263671875">
        <ele>395.79998779296875</ele>
        <time>2022-06-04T07:45:07.000Z</time>
      </trkpt>
      <trkpt lat="43.4693328849971294403076171875" lon="-5.65937183797359466552734375">
        <ele>396.20001220703125</ele>
        <time>2022-06-04T07:45:09.000Z</time>
      </trkpt>
      <trkpt lat="43.4693446196615695953369140625" lon="-5.6593800522387027740478515625">
        <ele>396.20001220703125</ele>
        <time>2022-06-04T07:45:10.000Z</time>
      </trkpt>
      <trkpt lat="43.46935526467859745025634765625" lon="-5.659388937056064605712890625">
        <ele>396.600006103515625</ele>
        <time>2022-06-04T07:45:11.000Z</time>
      </trkpt>
      <trkpt lat="43.46937521360814571380615234375" lon="-5.65940511412918567657470703125">
        <ele>397</ele>
        <time>2022-06-04T07:45:13.000Z</time>
      </trkpt>
      <trkpt lat="43.469384349882602691650390625" lon="-5.6594132445752620697021484375">
        <ele>397.20001220703125</ele>
        <time>2022-06-04T07:45:14.000Z</time>
      </trkpt>
      <trkpt lat="43.46939407289028167724609375" lon="-5.65942271612584590911865234375">
        <ele>397.399993896484375</ele>
        <time>2022-06-04T07:45:15.000Z</time>
      </trkpt>
      <trkpt lat="43.46941494382917881011962890625" lon="-5.6594397313892841339111328125">
        <ele>397.600006103515625</ele>
        <time>2022-06-04T07:45:17.000Z</time>
      </trkpt>
      <trkpt lat="43.469436652958393096923828125" lon="-5.6594531424343585968017578125">
        <ele>398</ele>
        <time>2022-06-04T07:45:19.000Z</time>
      </trkpt>
      <trkpt lat="43.46945618279278278350830078125" lon="-5.65946663729846477508544921875">
        <ele>398.399993896484375</ele>
        <time>2022-06-04T07:45:21.000Z</time>
      </trkpt>
      <trkpt lat="43.46946557052433490753173828125" lon="-5.65947418101131916046142578125">
        <ele>398.399993896484375</ele>
        <time>2022-06-04T07:45:22.000Z</time>
      </trkpt>
      <trkpt lat="43.46947747282683849334716796875" lon="-5.659478791058063507080078125">
        <ele>398.600006103515625</ele>
        <time>2022-06-04T07:45:23.000Z</time>
      </trkpt>
      <trkpt lat="43.46950077451765537261962890625" lon="-5.65948423929512500762939453125">
        <ele>399</ele>
        <time>2022-06-04T07:45:25.000Z</time>
      </trkpt>
      <trkpt lat="43.469523824751377105712890625" lon="-5.6594866700470447540283203125">
        <ele>399.399993896484375</ele>
        <time>2022-06-04T07:45:27.000Z</time>
      </trkpt>
      <trkpt lat="43.46953488886356353759765625" lon="-5.659485161304473876953125">
        <ele>399.600006103515625</ele>
        <time>2022-06-04T07:45:28.000Z</time>
      </trkpt>
      <trkpt lat="43.46954570151865482330322265625" lon="-5.65948256291449069976806640625">
        <ele>399.600006103515625</ele>
        <time>2022-06-04T07:45:29.000Z</time>
      </trkpt>
      <trkpt lat="43.46956850029528141021728515625" lon="-5.65947636030614376068115234375">
        <ele>399.79998779296875</ele>
        <time>2022-06-04T07:45:31.000Z</time>
      </trkpt>
      <trkpt lat="43.46958987414836883544921875" lon="-5.65946571528911590576171875">
        <ele>400.20001220703125</ele>
        <time>2022-06-04T07:45:33.000Z</time>
      </trkpt>
      <trkpt lat="43.469598591327667236328125" lon="-5.6594569981098175048828125">
        <ele>400.600006103515625</ele>
        <time>2022-06-04T07:45:34.000Z</time>
      </trkpt>
      <trkpt lat="43.46960705704987049102783203125" lon="-5.65944752655923366546630859375">
        <ele>400.600006103515625</ele>
        <time>2022-06-04T07:45:35.000Z</time>
      </trkpt>
      <trkpt lat="43.4696228988468647003173828125" lon="-5.6594300083816051483154296875">
        <ele>401</ele>
        <time>2022-06-04T07:45:37.000Z</time>
      </trkpt>
      <trkpt lat="43.46963237039744853973388671875" lon="-5.659420453011989593505859375">
        <ele>401.600006103515625</ele>
        <time>2022-06-04T07:45:38.000Z</time>
      </trkpt>
      <trkpt lat="43.46964175812900066375732421875" lon="-5.659410394728183746337890625">
        <ele>401.79998779296875</ele>
        <time>2022-06-04T07:45:39.000Z</time>
      </trkpt>
      <trkpt lat="43.46965885721147060394287109375" lon="-5.6593911163508892059326171875">
        <ele>402.20001220703125</ele>
        <time>2022-06-04T07:45:41.000Z</time>
      </trkpt>
      <trkpt lat="43.46967729739844799041748046875" lon="-5.6593669764697551727294921875">
        <ele>402.600006103515625</ele>
        <time>2022-06-04T07:45:43.000Z</time>
      </trkpt>
      <trkpt lat="43.46969657577574253082275390625" lon="-5.659342668950557708740234375">
        <ele>402.79998779296875</ele>
        <time>2022-06-04T07:45:45.000Z</time>
      </trkpt>
      <trkpt lat="43.4697023592889308929443359375" lon="-5.65932883881032466888427734375">
        <ele>403</ele>
        <time>2022-06-04T07:45:46.000Z</time>
      </trkpt>
      <trkpt lat="43.46970831044018268585205078125" lon="-5.659313499927520751953125">
        <ele>403.20001220703125</ele>
        <time>2022-06-04T07:45:47.000Z</time>
      </trkpt>
      <trkpt lat="43.4697207994759082794189453125" lon="-5.65928776748478412628173828125">
        <ele>403.600006103515625</ele>
        <time>2022-06-04T07:45:49.000Z</time>
      </trkpt>
      <trkpt lat="43.46973412670195102691650390625" lon="-5.659264214336872100830078125">
        <ele>404</ele>
        <time>2022-06-04T07:45:51.000Z</time>
      </trkpt>
      <trkpt lat="43.469748459756374359130859375" lon="-5.6592385657131671905517578125">
        <ele>404.600006103515625</ele>
        <time>2022-06-04T07:45:53.000Z</time>
      </trkpt>
      <trkpt lat="43.46975591965019702911376953125" lon="-5.6592251546680927276611328125">
        <ele>404.79998779296875</ele>
        <time>2022-06-04T07:45:54.000Z</time>
      </trkpt>
      <trkpt lat="43.46976262517273426055908203125" lon="-5.6592120788991451263427734375">
        <ele>405</ele>
        <time>2022-06-04T07:45:55.000Z</time>
      </trkpt>
      <trkpt lat="43.46978005953133106231689453125" lon="-5.65919212996959686279296875">
        <ele>405.20001220703125</ele>
        <time>2022-06-04T07:45:57.000Z</time>
      </trkpt>
      <trkpt lat="43.46979313530027866363525390625" lon="-5.65916270948946475982666015625">
        <ele>405.600006103515625</ele>
        <time>2022-06-04T07:45:59.000Z</time>
      </trkpt>
      <trkpt lat="43.46979866735637187957763671875" lon="-5.65914762206375598907470703125">
        <ele>405.79998779296875</ele>
        <time>2022-06-04T07:46:00.000Z</time>
      </trkpt>
      <trkpt lat="43.4698046185076236724853515625" lon="-5.65913178026676177978515625">
        <ele>406.20001220703125</ele>
        <time>2022-06-04T07:46:01.000Z</time>
      </trkpt>
      <trkpt lat="43.46981090493500232696533203125" lon="-5.65911811776459217071533203125">
        <ele>406.399993896484375</ele>
        <time>2022-06-04T07:46:02.000Z</time>
      </trkpt>
      <trkpt lat="43.46981861628592014312744140625" lon="-5.65910386852920055389404296875">
        <ele>406.600006103515625</ele>
        <time>2022-06-04T07:46:03.000Z</time>
      </trkpt>
      <trkpt lat="43.46983420662581920623779296875" lon="-5.6590729393064975738525390625">
        <ele>407.399993896484375</ele>
        <time>2022-06-04T07:46:05.000Z</time>
      </trkpt>
      <trkpt lat="43.4698547422885894775390625" lon="-5.65904402174055576324462890625">
        <ele>407.79998779296875</ele>
        <time>2022-06-04T07:46:07.000Z</time>
      </trkpt>
      <trkpt lat="43.46987695433199405670166015625" lon="-5.65902038477361202239990234375">
        <ele>408.20001220703125</ele>
        <time>2022-06-04T07:46:09.000Z</time>
      </trkpt>
      <trkpt lat="43.46988684497773647308349609375" lon="-5.65900797955691814422607421875">
        <ele>408.399993896484375</ele>
        <time>2022-06-04T07:46:10.000Z</time>
      </trkpt>
      <trkpt lat="43.46989790908992290496826171875" lon="-5.65899456851184368133544921875">
        <ele>408.600006103515625</ele>
        <time>2022-06-04T07:46:11.000Z</time>
      </trkpt>
      <trkpt lat="43.46992171369493007659912109375" lon="-5.65896682441234588623046875">
        <ele>408.79998779296875</ele>
        <time>2022-06-04T07:46:13.000Z</time>
      </trkpt>
      <trkpt lat="43.46995071507990360260009765625" lon="-5.65894343890249729156494140625">
        <ele>409.20001220703125</ele>
        <time>2022-06-04T07:46:15.000Z</time>
      </trkpt>
      <trkpt lat="43.46996580250561237335205078125" lon="-5.65893606282770633697509765625">
        <ele>409.600006103515625</ele>
        <time>2022-06-04T07:46:16.000Z</time>
      </trkpt>
      <trkpt lat="43.4699816443026065826416015625" lon="-5.65893036313354969024658203125">
        <ele>409.79998779296875</ele>
        <time>2022-06-04T07:46:17.000Z</time>
      </trkpt>
      <trkpt lat="43.470011651515960693359375" lon="-5.65891996957361698150634765625">
        <ele>410.20001220703125</ele>
        <time>2022-06-04T07:46:19.000Z</time>
      </trkpt>
      <trkpt lat="43.470039479434490203857421875" lon="-5.6589086540043354034423828125">
        <ele>410.600006103515625</ele>
        <time>2022-06-04T07:46:21.000Z</time>
      </trkpt>
      <trkpt lat="43.4700691513717174530029296875" lon="-5.6588969193398952484130859375">
        <ele>411.20001220703125</ele>
        <time>2022-06-04T07:46:23.000Z</time>
      </trkpt>
      <trkpt lat="43.47009873948991298675537109375" lon="-5.65889080055058002471923828125">
        <ele>411.600006103515625</ele>
        <time>2022-06-04T07:46:25.000Z</time>
      </trkpt>
      <trkpt lat="43.47011290490627288818359375" lon="-5.6588908843696117401123046875">
        <ele>411.79998779296875</ele>
        <time>2022-06-04T07:46:26.000Z</time>
      </trkpt>
      <trkpt lat="43.47012774087488651275634765625" lon="-5.65889096818864345550537109375">
        <ele>412</ele>
        <time>2022-06-04T07:46:27.000Z</time>
      </trkpt>
      <trkpt lat="43.47015623934566974639892578125" lon="-5.6588821671903133392333984375">
        <ele>412.399993896484375</ele>
        <time>2022-06-04T07:46:29.000Z</time>
      </trkpt>
      <trkpt lat="43.4701875038444995880126953125" lon="-5.65887437202036380767822265625">
        <ele>412.79998779296875</ele>
        <time>2022-06-04T07:46:31.000Z</time>
      </trkpt>
      <trkpt lat="43.4702180139720439910888671875" lon="-5.6588754616677761077880859375">
        <ele>413.20001220703125</ele>
        <time>2022-06-04T07:46:33.000Z</time>
      </trkpt>
      <trkpt lat="43.4702491946518421173095703125" lon="-5.6588704325258731842041015625">
        <ele>413.600006103515625</ele>
        <time>2022-06-04T07:46:35.000Z</time>
      </trkpt>
      <trkpt lat="43.47027878277003765106201171875" lon="-5.65886599011719226837158203125">
        <ele>413.79998779296875</ele>
        <time>2022-06-04T07:46:37.000Z</time>
      </trkpt>
      <trkpt lat="43.47030862234532833099365234375" lon="-5.65886012278497219085693359375">
        <ele>414.399993896484375</ele>
        <time>2022-06-04T07:46:39.000Z</time>
      </trkpt>
      <trkpt lat="43.47032354213297367095947265625" lon="-5.6588615477085113525390625">
        <ele>414.399993896484375</ele>
        <time>2022-06-04T07:46:40.000Z</time>
      </trkpt>
      <trkpt lat="43.47033846192061901092529296875" lon="-5.65886196680366992950439453125">
        <ele>415</ele>
        <time>2022-06-04T07:46:41.000Z</time>
      </trkpt>
      <trkpt lat="43.470369391143321990966796875" lon="-5.6588637270033359527587890625">
        <ele>415.600006103515625</ele>
        <time>2022-06-04T07:46:43.000Z</time>
      </trkpt>
      <trkpt lat="43.470398224890232086181640625" lon="-5.65888526849448680877685546875">
        <ele>416</ele>
        <time>2022-06-04T07:46:45.000Z</time>
      </trkpt>
      <trkpt lat="43.4704121388494968414306640625" lon="-5.6588945724070072174072265625">
        <ele>416.399993896484375</ele>
        <time>2022-06-04T07:46:46.000Z</time>
      </trkpt>
      <trkpt lat="43.47042647190392017364501953125" lon="-5.6589012779295444488525390625">
        <ele>416.600006103515625</ele>
        <time>2022-06-04T07:46:47.000Z</time>
      </trkpt>
      <trkpt lat="43.4704557247459888458251953125" lon="-5.65890991128981113433837890625">
        <ele>417</ele>
        <time>2022-06-04T07:46:49.000Z</time>
      </trkpt>
      <trkpt lat="43.47047072835266590118408203125" lon="-5.6589130125939846038818359375">
        <ele>417.20001220703125</ele>
        <time>2022-06-04T07:46:50.000Z</time>
      </trkpt>
      <trkpt lat="43.47048631869256496429443359375" lon="-5.65891443751752376556396484375">
        <ele>417.399993896484375</ele>
        <time>2022-06-04T07:46:51.000Z</time>
      </trkpt>
      <trkpt lat="43.47051682882010936737060546875" lon="-5.65892122685909271240234375">
        <ele>417.79998779296875</ele>
        <time>2022-06-04T07:46:53.000Z</time>
      </trkpt>
      <trkpt lat="43.470543734729290008544921875" lon="-5.65893187187612056732177734375">
        <ele>418.20001220703125</ele>
        <time>2022-06-04T07:46:55.000Z</time>
      </trkpt>
      <trkpt lat="43.47057181410491466522216796875" lon="-5.65894603729248046875">
        <ele>418.600006103515625</ele>
        <time>2022-06-04T07:46:57.000Z</time>
      </trkpt>
      <trkpt lat="43.47059712745249271392822265625" lon="-5.65895869396626949310302734375">
        <ele>419.20001220703125</ele>
        <time>2022-06-04T07:46:59.000Z</time>
      </trkpt>
      <trkpt lat="43.47060936503112316131591796875" lon="-5.6589653156697750091552734375">
        <ele>419.79998779296875</ele>
        <time>2022-06-04T07:47:00.000Z</time>
      </trkpt>
      <trkpt lat="43.47062193788588047027587890625" lon="-5.65897227264940738677978515625">
        <ele>420</ele>
        <time>2022-06-04T07:47:01.000Z</time>
      </trkpt>
      <trkpt lat="43.4706461615860462188720703125" lon="-5.65898451022803783416748046875">
        <ele>420.399993896484375</ele>
        <time>2022-06-04T07:47:03.000Z</time>
      </trkpt>
      <trkpt lat="43.47065848298370838165283203125" lon="-5.6589907966554164886474609375">
        <ele>420.399993896484375</ele>
        <time>2022-06-04T07:47:04.000Z</time>
      </trkpt>
      <trkpt lat="43.470671139657497406005859375" lon="-5.65899557434022426605224609375">
        <ele>420.79998779296875</ele>
        <time>2022-06-04T07:47:05.000Z</time>
      </trkpt>
      <trkpt lat="43.47068429924547672271728515625" lon="-5.6589996814727783203125">
        <ele>420.79998779296875</ele>
        <time>2022-06-04T07:47:06.000Z</time>
      </trkpt>
      <trkpt lat="43.47069628536701202392578125" lon="-5.659004040062427520751953125">
        <ele>421</ele>
        <time>2022-06-04T07:47:07.000Z</time>
      </trkpt>
      <trkpt lat="43.4707182459533214569091796875" lon="-5.65901149995625019073486328125">
        <ele>421.399993896484375</ele>
        <time>2022-06-04T07:47:09.000Z</time>
      </trkpt>
      <trkpt lat="43.47074322402477264404296875" lon="-5.659028179943561553955078125">
        <ele>421.79998779296875</ele>
        <time>2022-06-04T07:47:11.000Z</time>
      </trkpt>
      <trkpt lat="43.47075529396533966064453125" lon="-5.65903664566576480865478515625">
        <ele>422</ele>
        <time>2022-06-04T07:47:12.000Z</time>
      </trkpt>
      <trkpt lat="43.47076627425849437713623046875" lon="-5.6590441055595874786376953125">
        <ele>422.20001220703125</ele>
        <time>2022-06-04T07:47:13.000Z</time>
      </trkpt>
      <trkpt lat="43.4707893244922161102294921875" lon="-5.65905910916626453399658203125">
        <ele>422.600006103515625</ele>
        <time>2022-06-04T07:47:15.000Z</time>
      </trkpt>
      <trkpt lat="43.4708121232688426971435546875" lon="-5.65907008945941925048828125">
        <ele>422.79998779296875</ele>
        <time>2022-06-04T07:47:17.000Z</time>
      </trkpt>
      <trkpt lat="43.47082494758069515228271484375" lon="-5.65907503478229045867919921875">
        <ele>423</ele>
        <time>2022-06-04T07:47:18.000Z</time>
      </trkpt>
      <trkpt lat="43.4708391129970550537109375" lon="-5.65908106975257396697998046875">
        <ele>423.20001220703125</ele>
        <time>2022-06-04T07:47:19.000Z</time>
      </trkpt>
      <trkpt lat="43.470852188766002655029296875" lon="-5.65908526070415973663330078125">
        <ele>423.399993896484375</ele>
        <time>2022-06-04T07:47:20.000Z</time>
      </trkpt>
      <trkpt lat="43.47086568363010883331298828125" lon="-5.65908878110349178314208984375">
        <ele>423.600006103515625</ele>
        <time>2022-06-04T07:47:21.000Z</time>
      </trkpt>
      <trkpt lat="43.47089367918670177459716796875" lon="-5.6590975821018218994140625">
        <ele>424</ele>
        <time>2022-06-04T07:47:23.000Z</time>
      </trkpt>
      <trkpt lat="43.47090742550790309906005859375" lon="-5.6591021083295345306396484375">
        <ele>424.399993896484375</ele>
        <time>2022-06-04T07:47:24.000Z</time>
      </trkpt>
      <trkpt lat="43.47092251293361186981201171875" lon="-5.6591069698333740234375">
        <ele>424.600006103515625</ele>
        <time>2022-06-04T07:47:25.000Z</time>
      </trkpt>
      <trkpt lat="43.47095369361340999603271484375" lon="-5.659120716154575347900390625">
        <ele>425.20001220703125</ele>
        <time>2022-06-04T07:47:27.000Z</time>
      </trkpt>
      <trkpt lat="43.47098059952259063720703125" lon="-5.65913605503737926483154296875">
        <ele>425.600006103515625</ele>
        <time>2022-06-04T07:47:29.000Z</time>
      </trkpt>
      <trkpt lat="43.471005074679851531982421875" lon="-5.659147202968597412109375">
        <ele>426</ele>
        <time>2022-06-04T07:47:31.000Z</time>
      </trkpt>
      <trkpt lat="43.4710344113409519195556640625" lon="-5.659156925976276397705078125">
        <ele>426.600006103515625</ele>
        <time>2022-06-04T07:47:33.000Z</time>
      </trkpt>
      <trkpt lat="43.47106282599270343780517578125" lon="-5.659166313707828521728515625">
        <ele>427.399993896484375</ele>
        <time>2022-06-04T07:47:35.000Z</time>
      </trkpt>
      <trkpt lat="43.4710763208568096160888671875" lon="-5.65916824154555797576904296875">
        <ele>427.79998779296875</ele>
        <time>2022-06-04T07:47:36.000Z</time>
      </trkpt>
      <trkpt lat="43.471090905368328094482421875" lon="-5.6591708399355411529541015625">
        <ele>428.20001220703125</ele>
        <time>2022-06-04T07:47:37.000Z</time>
      </trkpt>
      <trkpt lat="43.4711215831339359283447265625" lon="-5.6591782160103321075439453125">
        <ele>428.79998779296875</ele>
        <time>2022-06-04T07:47:39.000Z</time>
      </trkpt>
      <trkpt lat="43.47115418873727321624755859375" lon="-5.65919204615056514739990234375">
        <ele>429</ele>
        <time>2022-06-04T07:47:41.000Z</time>
      </trkpt>
      <trkpt lat="43.47118319012224674224853515625" lon="-5.6592182815074920654296875">
        <ele>429.20001220703125</ele>
        <time>2022-06-04T07:47:43.000Z</time>
      </trkpt>
      <trkpt lat="43.471194840967655181884765625" lon="-5.659232698380947113037109375">
        <ele>429.399993896484375</ele>
        <time>2022-06-04T07:47:44.000Z</time>
      </trkpt>
      <trkpt lat="43.471207581460475921630859375" lon="-5.65924711525440216064453125">
        <ele>429.600006103515625</ele>
        <time>2022-06-04T07:47:45.000Z</time>
      </trkpt>
      <trkpt lat="43.47123499028384685516357421875" lon="-5.65927661955356597900390625">
        <ele>429.600006103515625</ele>
        <time>2022-06-04T07:47:47.000Z</time>
      </trkpt>
      <trkpt lat="43.47126424312591552734375" lon="-5.659303776919841766357421875">
        <ele>429.79998779296875</ele>
        <time>2022-06-04T07:47:49.000Z</time>
      </trkpt>
      <trkpt lat="43.471291400492191314697265625" lon="-5.65933219157159328460693359375">
        <ele>430</ele>
        <time>2022-06-04T07:47:51.000Z</time>
      </trkpt>
      <trkpt lat="43.47131830640137195587158203125" lon="-5.65935683436691761016845703125">
        <ele>430</ele>
        <time>2022-06-04T07:47:53.000Z</time>
      </trkpt>
      <trkpt lat="43.47134395502507686614990234375" lon="-5.6593823991715908050537109375">
        <ele>430.20001220703125</ele>
        <time>2022-06-04T07:47:55.000Z</time>
      </trkpt>
      <trkpt lat="43.471367172896862030029296875" lon="-5.6594075448811054229736328125">
        <ele>430.600006103515625</ele>
        <time>2022-06-04T07:47:57.000Z</time>
      </trkpt>
      <trkpt lat="43.4713891334831714630126953125" lon="-5.659432522952556610107421875">
        <ele>431.20001220703125</ele>
        <time>2022-06-04T07:47:59.000Z</time>
      </trkpt>
      <trkpt lat="43.47140715457499027252197265625" lon="-5.659463368356227874755859375">
        <ele>431.600006103515625</ele>
        <time>2022-06-04T07:48:01.000Z</time>
      </trkpt>
      <trkpt lat="43.471422158181667327880859375" lon="-5.6594920344650745391845703125">
        <ele>432.20001220703125</ele>
        <time>2022-06-04T07:48:03.000Z</time>
      </trkpt>
      <trkpt lat="43.4714374132454395294189453125" lon="-5.65951910801231861114501953125">
        <ele>432.79998779296875</ele>
        <time>2022-06-04T07:48:05.000Z</time>
      </trkpt>
      <trkpt lat="43.47145124338567256927490234375" lon="-5.65953704528510570526123046875">
        <ele>433.600006103515625</ele>
        <time>2022-06-04T07:48:07.000Z</time>
      </trkpt>
      <trkpt lat="43.4714582003653049468994140625" lon="-5.65953721292316913604736328125">
        <ele>434</ele>
        <time>2022-06-04T07:48:09.000Z</time>
      </trkpt>
      <trkpt lat="43.47144152037799358367919921875" lon="-5.6595017574727535247802734375">
        <ele>434.399993896484375</ele>
        <time>2022-06-04T07:52:02.000Z</time>
      </trkpt>
      <trkpt lat="43.47142760641872882843017578125" lon="-5.659490190446376800537109375">
        <ele>434.399993896484375</ele>
        <time>2022-06-04T07:52:03.000Z</time>
      </trkpt>
      <trkpt lat="43.47140841186046600341796875" lon="-5.65946177579462528228759765625">
        <ele>434.399993896484375</ele>
        <time>2022-06-04T07:52:05.000Z</time>
      </trkpt>
      <trkpt lat="43.47139709629118442535400390625" lon="-5.65944517962634563446044921875">
        <ele>434.399993896484375</ele>
        <time>2022-06-04T07:52:06.000Z</time>
      </trkpt>
      <trkpt lat="43.4713820926845073699951171875" lon="-5.659423805773258209228515625">
        <ele>434.399993896484375</ele>
        <time>2022-06-04T07:52:07.000Z</time>
      </trkpt>
      <trkpt lat="43.471336662769317626953125" lon="-5.65937091596424579620361328125">
        <ele>434.399993896484375</ele>
        <time>2022-06-04T07:52:09.000Z</time>
      </trkpt>
      <trkpt lat="43.47127430140972137451171875" lon="-5.65931123681366443634033203125">
        <ele>434.20001220703125</ele>
        <time>2022-06-04T07:52:11.000Z</time>
      </trkpt>
      <trkpt lat="43.47124035470187664031982421875" lon="-5.65927687101066112518310546875">
        <ele>434.20001220703125</ele>
        <time>2022-06-04T07:52:12.000Z</time>
      </trkpt>
      <trkpt lat="43.47120917402207851409912109375" lon="-5.6592365540564060211181640625">
        <ele>434</ele>
        <time>2022-06-04T07:52:13.000Z</time>
      </trkpt>
      <trkpt lat="43.4711494110524654388427734375" lon="-5.6591698341071605682373046875">
        <ele>433.600006103515625</ele>
        <time>2022-06-04T07:52:15.000Z</time>
      </trkpt>
      <trkpt lat="43.4711229242384433746337890625" lon="-5.6591547466814517974853515625">
        <ele>433.20001220703125</ele>
        <time>2022-06-04T07:52:16.000Z</time>
      </trkpt>
      <trkpt lat="43.4710971079766750335693359375" lon="-5.6591473706066608428955078125">
        <ele>432.600006103515625</ele>
        <time>2022-06-04T07:52:17.000Z</time>
      </trkpt>
      <trkpt lat="43.471068106591701507568359375" lon="-5.65914192236959934234619140625">
        <ele>432</ele>
        <time>2022-06-04T07:52:18.000Z</time>
      </trkpt>
      <trkpt lat="43.47103382460772991180419921875" lon="-5.659136809408664703369140625">
        <ele>431.600006103515625</ele>
        <time>2022-06-04T07:52:19.000Z</time>
      </trkpt>
      <trkpt lat="43.47096710465848445892333984375" lon="-5.65911895595490932464599609375">
        <ele>430.79998779296875</ele>
        <time>2022-06-04T07:52:21.000Z</time>
      </trkpt>
      <trkpt lat="43.4709329903125762939453125" lon="-5.65910990349948406219482421875">
        <ele>430.600006103515625</ele>
        <time>2022-06-04T07:52:22.000Z</time>
      </trkpt>
      <trkpt lat="43.47089401446282863616943359375" lon="-5.6590980850160121917724609375">
        <ele>430.399993896484375</ele>
        <time>2022-06-04T07:52:23.000Z</time>
      </trkpt>
      <trkpt lat="43.47079494036734104156494140625" lon="-5.659061037003993988037109375">
        <ele>429.79998779296875</ele>
        <time>2022-06-04T07:52:25.000Z</time>
      </trkpt>
      <trkpt lat="43.47074112854897975921630859375" lon="-5.6590353883802890777587890625">
        <ele>429.600006103515625</ele>
        <time>2022-06-04T07:52:26.000Z</time>
      </trkpt>
      <trkpt lat="43.47068823873996734619140625" lon="-5.65900848247110843658447265625">
        <ele>429.399993896484375</ele>
        <time>2022-06-04T07:52:27.000Z</time>
      </trkpt>
      <trkpt lat="43.470573239028453826904296875" lon="-5.6589545868337154388427734375">
        <ele>428.79998779296875</ele>
        <time>2022-06-04T07:52:29.000Z</time>
      </trkpt>
      <trkpt lat="43.47044155932962894439697265625" lon="-5.65890169702470302581787109375">
        <ele>427.399993896484375</ele>
        <time>2022-06-04T07:52:31.000Z</time>
      </trkpt>
      <trkpt lat="43.47037333063781261444091796875" lon="-5.6588825024664402008056640625">
        <ele>426.79998779296875</ele>
        <time>2022-06-04T07:52:32.000Z</time>
      </trkpt>
      <trkpt lat="43.47030200064182281494140625" lon="-5.6588731147348880767822265625">
        <ele>425.600006103515625</ele>
        <time>2022-06-04T07:52:33.000Z</time>
      </trkpt>
      <trkpt lat="43.4701685607433319091796875" lon="-5.65887831151485443115234375">
        <ele>423.79998779296875</ele>
        <time>2022-06-04T07:52:35.000Z</time>
      </trkpt>
      <trkpt lat="43.47011215053498744964599609375" lon="-5.65889012999832630157470703125">
        <ele>423.399993896484375</ele>
        <time>2022-06-04T07:52:36.000Z</time>
      </trkpt>
      <trkpt lat="43.47006060183048248291015625" lon="-5.6589071452617645263671875">
        <ele>423</ele>
        <time>2022-06-04T07:52:37.000Z</time>
      </trkpt>
      <trkpt lat="43.47001022659242153167724609375" lon="-5.65892818383872509002685546875">
        <ele>422.600006103515625</ele>
        <time>2022-06-04T07:52:38.000Z</time>
      </trkpt>
      <trkpt lat="43.4699645452201366424560546875" lon="-5.6589519046247005462646484375">
        <ele>421.79998779296875</ele>
        <time>2022-06-04T07:52:39.000Z</time>
      </trkpt>
      <trkpt lat="43.46992070786654949188232421875" lon="-5.65898132510483264923095703125">
        <ele>420.600006103515625</ele>
        <time>2022-06-04T07:52:40.000Z</time>
      </trkpt>
      <trkpt lat="43.4698773734271526336669921875" lon="-5.6590209715068340301513671875">
        <ele>419.600006103515625</ele>
        <time>2022-06-04T07:52:41.000Z</time>
      </trkpt>
      <trkpt lat="43.46983370371162891387939453125" lon="-5.65907905809581279754638671875">
        <ele>418.20001220703125</ele>
        <time>2022-06-04T07:52:42.000Z</time>
      </trkpt>
      <trkpt lat="43.4697908721864223480224609375" lon="-5.65915055572986602783203125">
        <ele>417.399993896484375</ele>
        <time>2022-06-04T07:52:43.000Z</time>
      </trkpt>
      <trkpt lat="43.4697529859840869903564453125" lon="-5.65922205336391925811767578125">
        <ele>416.20001220703125</ele>
        <time>2022-06-04T07:52:44.000Z</time>
      </trkpt>
      <trkpt lat="43.46971568651497364044189453125" lon="-5.65928894095122814178466796875">
        <ele>415.20001220703125</ele>
        <time>2022-06-04T07:52:45.000Z</time>
      </trkpt>
      <trkpt lat="43.46967838704586029052734375" lon="-5.6593478657305240631103515625">
        <ele>414.79998779296875</ele>
        <time>2022-06-04T07:52:46.000Z</time>
      </trkpt>
      <trkpt lat="43.4696410037577152252197265625" lon="-5.6593953073024749755859375">
        <ele>414</ele>
        <time>2022-06-04T07:52:47.000Z</time>
      </trkpt>
      <trkpt lat="43.46960127353668212890625" lon="-5.65943025983870029449462890625">
        <ele>413.600006103515625</ele>
        <time>2022-06-04T07:52:48.000Z</time>
      </trkpt>
      <trkpt lat="43.46955894492566585540771484375" lon="-5.6594564951956272125244140625">
        <ele>413.20001220703125</ele>
        <time>2022-06-04T07:52:49.000Z</time>
      </trkpt>
      <trkpt lat="43.46946054138243198394775390625" lon="-5.659468732774257659912109375">
        <ele>411.399993896484375</ele>
        <time>2022-06-04T07:52:51.000Z</time>
      </trkpt>
      <trkpt lat="43.46940572373569011688232421875" lon="-5.65944836474955081939697265625">
        <ele>410</ele>
        <time>2022-06-04T07:52:52.000Z</time>
      </trkpt>
      <trkpt lat="43.4693469665944576263427734375" lon="-5.6594132445752620697021484375">
        <ele>409.20001220703125</ele>
        <time>2022-06-04T07:52:53.000Z</time>
      </trkpt>
      <trkpt lat="43.46928904764354228973388671875" lon="-5.65937376581132411956787109375">
        <ele>407.79998779296875</ele>
        <time>2022-06-04T07:52:54.000Z</time>
      </trkpt>
      <trkpt lat="43.46923691220581531524658203125" lon="-5.6593336164951324462890625">
        <ele>406.600006103515625</ele>
        <time>2022-06-04T07:52:55.000Z</time>
      </trkpt>
      <trkpt lat="43.469189889729022979736328125" lon="-5.65929229371249675750732421875">
        <ele>405.20001220703125</ele>
        <time>2022-06-04T07:52:56.000Z</time>
      </trkpt>
      <trkpt lat="43.4691461361944675445556640625" lon="-5.65925055183470249176025390625">
        <ele>404.20001220703125</ele>
        <time>2022-06-04T07:52:57.000Z</time>
      </trkpt>
      <trkpt lat="43.46910799853503704071044921875" lon="-5.65921048633754253387451171875">
        <ele>403</ele>
        <time>2022-06-04T07:52:58.000Z</time>
      </trkpt>
      <trkpt lat="43.4690750576555728912353515625" lon="-5.65917410887777805328369140625">
        <ele>402.399993896484375</ele>
        <time>2022-06-04T07:52:59.000Z</time>
      </trkpt>
      <trkpt lat="43.46904127858579158782958984375" lon="-5.659135468304157257080078125">
        <ele>401.79998779296875</ele>
        <time>2022-06-04T07:53:00.000Z</time>
      </trkpt>
      <trkpt lat="43.4690033085644245147705078125" lon="-5.65909330733120441436767578125">
        <ele>400.20001220703125</ele>
        <time>2022-06-04T07:53:01.000Z</time>
      </trkpt>
      <trkpt lat="43.46896215341985225677490234375" lon="-5.65904418937861919403076171875">
        <ele>399.20001220703125</ele>
        <time>2022-06-04T07:53:02.000Z</time>
      </trkpt>
      <trkpt lat="43.46892124973237514495849609375" lon="-5.6589924730360507965087890625">
        <ele>398.399993896484375</ele>
        <time>2022-06-04T07:53:03.000Z</time>
      </trkpt>
      <trkpt lat="43.46888051368296146392822265625" lon="-5.65893866121768951416015625">
        <ele>397.20001220703125</ele>
        <time>2022-06-04T07:53:04.000Z</time>
      </trkpt>
      <trkpt lat="43.46884061582386493682861328125" lon="-5.65888099372386932373046875">
        <ele>396</ele>
        <time>2022-06-04T07:53:05.000Z</time>
      </trkpt>
      <trkpt lat="43.46876216121017932891845703125" lon="-5.6587671674787998199462890625">
        <ele>394</ele>
        <time>2022-06-04T07:53:07.000Z</time>
      </trkpt>
      <trkpt lat="43.4686744026839733123779296875" lon="-5.65868712030351161956787109375">
        <ele>392.399993896484375</ele>
        <time>2022-06-04T07:53:09.000Z</time>
      </trkpt>
      <trkpt lat="43.46857239492237567901611328125" lon="-5.65863565541803836822509765625">
        <ele>390.600006103515625</ele>
        <time>2022-06-04T07:53:11.000Z</time>
      </trkpt>
      <trkpt lat="43.4684621728956699371337890625" lon="-5.6586079113185405731201171875">
        <ele>388.399993896484375</ele>
        <time>2022-06-04T07:53:13.000Z</time>
      </trkpt>
      <trkpt lat="43.468408025801181793212890625" lon="-5.6585958413779735565185546875">
        <ele>387.399993896484375</ele>
        <time>2022-06-04T07:53:14.000Z</time>
      </trkpt>
      <trkpt lat="43.46835563890635967254638671875" lon="-5.65858217887580394744873046875">
        <ele>386.20001220703125</ele>
        <time>2022-06-04T07:53:15.000Z</time>
      </trkpt>
      <trkpt lat="43.4683109633624553680419921875" lon="-5.65856985747814178466796875">
        <ele>385.399993896484375</ele>
        <time>2022-06-04T07:53:16.000Z</time>
      </trkpt>
      <trkpt lat="43.4682687185704708099365234375" lon="-5.65855870954692363739013671875">
        <ele>384.79998779296875</ele>
        <time>2022-06-04T07:53:17.000Z</time>
      </trkpt>
      <trkpt lat="43.46822538413107395172119140625" lon="-5.6585515849292278289794921875">
        <ele>383.600006103515625</ele>
        <time>2022-06-04T07:53:18.000Z</time>
      </trkpt>
      <trkpt lat="43.46818171441555023193359375" lon="-5.65854479558765888214111328125">
        <ele>382.600006103515625</ele>
        <time>2022-06-04T07:53:19.000Z</time>
      </trkpt>
      <trkpt lat="43.46808649599552154541015625" lon="-5.6585334800183773040771484375">
        <ele>381.20001220703125</ele>
        <time>2022-06-04T07:53:21.000Z</time>
      </trkpt>
      <trkpt lat="43.4680362045764923095703125" lon="-5.65853901207447052001953125">
        <ele>380</ele>
        <time>2022-06-04T07:53:22.000Z</time>
      </trkpt>
      <trkpt lat="43.46798264421522617340087890625" lon="-5.65854999236762523651123046875">
        <ele>378.600006103515625</ele>
        <time>2022-06-04T07:53:23.000Z</time>
      </trkpt>
      <trkpt lat="43.4679304249584674835205078125" lon="-5.65857145003974437713623046875">
        <ele>377.20001220703125</ele>
        <time>2022-06-04T07:53:24.000Z</time>
      </trkpt>
      <trkpt lat="43.46788524650037288665771484375" lon="-5.65858754329383373260498046875">
        <ele>376</ele>
        <time>2022-06-04T07:53:25.000Z</time>
      </trkpt>
      <trkpt lat="43.46785021014511585235595703125" lon="-5.65859743393957614898681640625">
        <ele>374.79998779296875</ele>
        <time>2022-06-04T07:53:26.000Z</time>
      </trkpt>
      <trkpt lat="43.46781869418919086456298828125" lon="-5.65860983915627002716064453125">
        <ele>374</ele>
        <time>2022-06-04T07:53:27.000Z</time>
      </trkpt>
      <trkpt lat="43.46778835169970989227294921875" lon="-5.6586246751248836517333984375">
        <ele>373.399993896484375</ele>
        <time>2022-06-04T07:53:28.000Z</time>
      </trkpt>
      <trkpt lat="43.46776060760021209716796875" lon="-5.65864219330251216888427734375">
        <ele>371.79998779296875</ele>
        <time>2022-06-04T07:53:29.000Z</time>
      </trkpt>
      <trkpt lat="43.46770352683961391448974609375" lon="-5.6586843542754650115966796875">
        <ele>370.399993896484375</ele>
        <time>2022-06-04T07:53:31.000Z</time>
      </trkpt>
      <trkpt lat="43.46764418296515941619873046875" lon="-5.65874529071152210235595703125">
        <ele>369.600006103515625</ele>
        <time>2022-06-04T07:53:33.000Z</time>
      </trkpt>
      <trkpt lat="43.467614091932773590087890625" lon="-5.6587799079716205596923828125">
        <ele>369.399993896484375</ele>
        <time>2022-06-04T07:53:34.000Z</time>
      </trkpt>
      <trkpt lat="43.467584587633609771728515625" lon="-5.65881519578397274017333984375">
        <ele>369.20001220703125</ele>
        <time>2022-06-04T07:53:35.000Z</time>
      </trkpt>
      <trkpt lat="43.46752767451107501983642578125" lon="-5.6588803231716156005859375">
        <ele>369</ele>
        <time>2022-06-04T07:53:37.000Z</time>
      </trkpt>
      <trkpt lat="43.46747688017785549163818359375" lon="-5.65894402563571929931640625">
        <ele>368.600006103515625</ele>
        <time>2022-06-04T07:53:39.000Z</time>
      </trkpt>
      <trkpt lat="43.46744921989738941192626953125" lon="-5.65898451022803783416748046875">
        <ele>368.600006103515625</ele>
        <time>2022-06-04T07:53:40.000Z</time>
      </trkpt>
      <trkpt lat="43.46741904504597187042236328125" lon="-5.6590300239622592926025390625">
        <ele>368.399993896484375</ele>
        <time>2022-06-04T07:53:41.000Z</time>
      </trkpt>
      <trkpt lat="43.467388786375522613525390625" lon="-5.6590796448290348052978515625">
        <ele>368.20001220703125</ele>
        <time>2022-06-04T07:53:42.000Z</time>
      </trkpt>
      <trkpt lat="43.46735827624797821044921875" lon="-5.65912951715290546417236328125">
        <ele>368</ele>
        <time>2022-06-04T07:53:43.000Z</time>
      </trkpt>
      <trkpt lat="43.46732550300657749176025390625" lon="-5.65917880274355411529541015625">
        <ele>367.600006103515625</ele>
        <time>2022-06-04T07:53:44.000Z</time>
      </trkpt>
      <trkpt lat="43.46728853881359100341796875" lon="-5.65922004170715808868408203125">
        <ele>367.399993896484375</ele>
        <time>2022-06-04T07:53:45.000Z</time>
      </trkpt>
      <trkpt lat="43.467248640954494476318359375" lon="-5.6592516414821147918701171875">
        <ele>367</ele>
        <time>2022-06-04T07:53:46.000Z</time>
      </trkpt>
      <trkpt lat="43.467206396162509918212890625" lon="-5.65927393734455108642578125">
        <ele>366.600006103515625</ele>
        <time>2022-06-04T07:53:47.000Z</time>
      </trkpt>
      <trkpt lat="43.4671146981418132781982421875" lon="-5.65929028205573558807373046875">
        <ele>366</ele>
        <time>2022-06-04T07:53:49.000Z</time>
      </trkpt>
      <trkpt lat="43.46706700511276721954345703125" lon="-5.659287013113498687744140625">
        <ele>365.79998779296875</ele>
        <time>2022-06-04T07:53:50.000Z</time>
      </trkpt>
      <trkpt lat="43.46701822243630886077880859375" lon="-5.6592777930200099945068359375">
        <ele>365.600006103515625</ele>
        <time>2022-06-04T07:53:51.000Z</time>
      </trkpt>
      <trkpt lat="43.4669740498065948486328125" lon="-5.6592647172510623931884765625">
        <ele>365.20001220703125</ele>
        <time>2022-06-04T07:53:52.000Z</time>
      </trkpt>
      <trkpt lat="43.4669346548616886138916015625" lon="-5.65924703143537044525146484375">
        <ele>365</ele>
        <time>2022-06-04T07:53:53.000Z</time>
      </trkpt>
      <trkpt lat="43.46689718775451183319091796875" lon="-5.65921492874622344970703125">
        <ele>364.79998779296875</ele>
        <time>2022-06-04T07:53:54.000Z</time>
      </trkpt>
      <trkpt lat="43.4668582119047641754150390625" lon="-5.6591798923909664154052734375">
        <ele>364.399993896484375</ele>
        <time>2022-06-04T07:53:55.000Z</time>
      </trkpt>
      <trkpt lat="43.466814123094081878662109375" lon="-5.6591601110994815826416015625">
        <ele>363.79998779296875</ele>
        <time>2022-06-04T07:53:56.000Z</time>
      </trkpt>
      <trkpt lat="43.46677347086369991302490234375" lon="-5.65916262567043304443359375">
        <ele>363.399993896484375</ele>
        <time>2022-06-04T07:53:57.000Z</time>
      </trkpt>
      <trkpt lat="43.4666996262967586517333984375" lon="-5.65920419991016387939453125">
        <ele>362.20001220703125</ele>
        <time>2022-06-04T07:53:59.000Z</time>
      </trkpt>
      <trkpt lat="43.46662427298724651336669921875" lon="-5.65927418880164623260498046875">
        <ele>361.399993896484375</ele>
        <time>2022-06-04T07:54:01.000Z</time>
      </trkpt>
      <trkpt lat="43.46658286638557910919189453125" lon="-5.6593113206326961517333984375">
        <ele>361</ele>
        <time>2022-06-04T07:54:02.000Z</time>
      </trkpt>
      <trkpt lat="43.4665423817932605743408203125" lon="-5.6593482010066509246826171875">
        <ele>360.79998779296875</ele>
        <time>2022-06-04T07:54:03.000Z</time>
      </trkpt>
      <trkpt lat="43.4664692915976047515869140625" lon="-5.65941751934587955474853515625">
        <ele>360.399993896484375</ele>
        <time>2022-06-04T07:54:05.000Z</time>
      </trkpt>
      <trkpt lat="43.46640768460929393768310546875" lon="-5.6594699062407016754150390625">
        <ele>360</ele>
        <time>2022-06-04T07:54:07.000Z</time>
      </trkpt>
      <trkpt lat="43.46637130714952945709228515625" lon="-5.65950871445238590240478515625">
        <ele>359.600006103515625</ele>
        <time>2022-06-04T07:54:09.000Z</time>
      </trkpt>
      <trkpt lat="43.46634364686906337738037109375" lon="-5.659541822969913482666015625">
        <ele>359.600006103515625</ele>
        <time>2022-06-04T07:54:11.000Z</time>
      </trkpt>
      <trkpt lat="43.4663303196430206298828125" lon="-5.65955883823335170745849609375">
        <ele>359.399993896484375</ele>
        <time>2022-06-04T07:54:12.000Z</time>
      </trkpt>
      <trkpt lat="43.4663169085979461669921875" lon="-5.659576691687107086181640625">
        <ele>359.399993896484375</ele>
        <time>2022-06-04T07:54:13.000Z</time>
      </trkpt>
      <trkpt lat="43.46629285253584384918212890625" lon="-5.659606866538524627685546875">
        <ele>359.399993896484375</ele>
        <time>2022-06-04T07:54:15.000Z</time>
      </trkpt>
      <trkpt lat="43.4662701375782489776611328125" lon="-5.6596144102513790130615234375">
        <ele>359.399993896484375</ele>
        <time>2022-06-04T07:54:17.000Z</time>
      </trkpt>
      <trkpt lat="43.46625731326639652252197265625" lon="-5.65961164422333240509033203125">
        <ele>359.600006103515625</ele>
        <time>2022-06-04T07:54:18.000Z</time>
      </trkpt>
      <trkpt lat="43.4662463329732418060302734375" lon="-5.6595999933779239654541015625">
        <ele>359.399993896484375</ele>
        <time>2022-06-04T07:54:19.000Z</time>
      </trkpt>
      <trkpt lat="43.46622328273952007293701171875" lon="-5.65956822596490383148193359375">
        <ele>359.399993896484375</ele>
        <time>2022-06-04T07:54:21.000Z</time>
      </trkpt>
      <trkpt lat="43.466197215020656585693359375" lon="-5.6595292501151561737060546875">
        <ele>359.399993896484375</ele>
        <time>2022-06-04T07:54:23.000Z</time>
      </trkpt>
      <trkpt lat="43.46616427414119243621826171875" lon="-5.65947133116424083709716796875">
        <ele>359.399993896484375</ele>
        <time>2022-06-04T07:54:25.000Z</time>
      </trkpt>
      <trkpt lat="43.46612337045371532440185546875" lon="-5.659402348101139068603515625">
        <ele>359.399993896484375</ele>
        <time>2022-06-04T07:54:27.000Z</time>
      </trkpt>
      <trkpt lat="43.4660713188350200653076171875" lon="-5.65931911580264568328857421875">
        <ele>359</ele>
        <time>2022-06-04T07:54:29.000Z</time>
      </trkpt>
      <trkpt lat="43.46599437296390533447265625" lon="-5.65926195122301578521728515625">
        <ele>358.79998779296875</ele>
        <time>2022-06-04T07:54:31.000Z</time>
      </trkpt>
      <trkpt lat="43.46594919450581073760986328125" lon="-5.65924703143537044525146484375">
        <ele>358.79998779296875</ele>
        <time>2022-06-04T07:54:32.000Z</time>
      </trkpt>
      <trkpt lat="43.46590275876224040985107421875" lon="-5.65923906862735748291015625">
        <ele>358.600006103515625</ele>
        <time>2022-06-04T07:54:33.000Z</time>
      </trkpt>
      <trkpt lat="43.46585699357092380523681640625" lon="-5.6592348776757717132568359375">
        <ele>358.399993896484375</ele>
        <time>2022-06-04T07:54:34.000Z</time>
      </trkpt>
      <trkpt lat="43.4658118151128292083740234375" lon="-5.6592321954667568206787109375">
        <ele>358.399993896484375</ele>
        <time>2022-06-04T07:54:35.000Z</time>
      </trkpt>
      <trkpt lat="43.46572338603436946868896484375" lon="-5.6592308543622493743896484375">
        <ele>358</ele>
        <time>2022-06-04T07:54:37.000Z</time>
      </trkpt>
      <trkpt lat="43.465631939470767974853515625" lon="-5.6592318601906299591064453125">
        <ele>357.399993896484375</ele>
        <time>2022-06-04T07:54:39.000Z</time>
      </trkpt>
      <trkpt lat="43.46554116345942020416259765625" lon="-5.65922909416258335113525390625">
        <ele>357.20001220703125</ele>
        <time>2022-06-04T07:54:41.000Z</time>
      </trkpt>
      <trkpt lat="43.4654993377625942230224609375" lon="-5.65922842361032962799072265625">
        <ele>357.20001220703125</ele>
        <time>2022-06-04T07:54:42.000Z</time>
      </trkpt>
      <trkpt lat="43.46545885317027568817138671875" lon="-5.65923395566642284393310546875">
        <ele>357.20001220703125</ele>
        <time>2022-06-04T07:54:43.000Z</time>
      </trkpt>
      <trkpt lat="43.4653829969465732574462890625" lon="-5.65924820490181446075439453125">
        <ele>357</ele>
        <time>2022-06-04T07:54:45.000Z</time>
      </trkpt>
      <trkpt lat="43.46535072661936283111572265625" lon="-5.65925423987209796905517578125">
        <ele>357</ele>
        <time>2022-06-04T07:54:46.000Z</time>
      </trkpt>
      <trkpt lat="43.4653226472437381744384765625" lon="-5.65926345996558666229248046875">
        <ele>356.79998779296875</ele>
        <time>2022-06-04T07:54:47.000Z</time>
      </trkpt>
      <trkpt lat="43.465267159044742584228515625" lon="-5.65928240306675434112548828125">
        <ele>356.79998779296875</ele>
        <time>2022-06-04T07:54:49.000Z</time>
      </trkpt>
      <trkpt lat="43.46520907245576381683349609375" lon="-5.65930637530982494354248046875">
        <ele>356.79998779296875</ele>
        <time>2022-06-04T07:54:51.000Z</time>
      </trkpt>
      <trkpt lat="43.46518057398498058319091796875" lon="-5.65931861288845539093017578125">
        <ele>356.79998779296875</ele>
        <time>2022-06-04T07:54:52.000Z</time>
      </trkpt>
      <trkpt lat="43.46515308134257793426513671875" lon="-5.65933034755289554595947265625">
        <ele>356.79998779296875</ele>
        <time>2022-06-04T07:54:53.000Z</time>
      </trkpt>
      <trkpt lat="43.46510178409516811370849609375" lon="-5.65935230813920497894287109375">
        <ele>356.79998779296875</ele>
        <time>2022-06-04T07:54:55.000Z</time>
      </trkpt>
      <trkpt lat="43.46505752764642238616943359375" lon="-5.6593669764697551727294921875">
        <ele>356.79998779296875</ele>
        <time>2022-06-04T07:54:57.000Z</time>
      </trkpt>
      <trkpt lat="43.46501410938799381256103515625" lon="-5.6593820638954639434814453125">
        <ele>357</ele>
        <time>2022-06-04T07:54:59.000Z</time>
      </trkpt>
      <trkpt lat="43.4649910591542720794677734375" lon="-5.65938717685639858245849609375">
        <ele>357.20001220703125</ele>
        <time>2022-06-04T07:55:00.000Z</time>
      </trkpt>
      <trkpt lat="43.46496817655861377716064453125" lon="-5.65938818268477916717529296875">
        <ele>357.399993896484375</ele>
        <time>2022-06-04T07:55:01.000Z</time>
      </trkpt>
      <trkpt lat="43.46492174081504344940185546875" lon="-5.6593709997832775115966796875">
        <ele>357.79998779296875</ele>
        <time>2022-06-04T07:55:03.000Z</time>
      </trkpt>
      <trkpt lat="43.4648706950247287750244140625" lon="-5.65933956764638423919677734375">
        <ele>358.20001220703125</ele>
        <time>2022-06-04T07:55:05.000Z</time>
      </trkpt>
      <trkpt lat="43.46480070613324642181396484375" lon="-5.6592848338186740875244140625">
        <ele>358.399993896484375</ele>
        <time>2022-06-04T07:55:07.000Z</time>
      </trkpt>
      <trkpt lat="43.46476198174059391021728515625" lon="-5.65925356931984424591064453125">
        <ele>358.600006103515625</ele>
        <time>2022-06-04T07:55:08.000Z</time>
      </trkpt>
      <trkpt lat="43.46472325734794139862060546875" lon="-5.65922255627810955047607421875">
        <ele>358.600006103515625</ele>
        <time>2022-06-04T07:55:09.000Z</time>
      </trkpt>
      <trkpt lat="43.46468436531722545623779296875" lon="-5.65919338725507259368896484375">
        <ele>358.600006103515625</ele>
        <time>2022-06-04T07:55:10.000Z</time>
      </trkpt>
      <trkpt lat="43.46464212052524089813232421875" lon="-5.65916991792619228363037109375">
        <ele>358.600006103515625</ele>
        <time>2022-06-04T07:55:11.000Z</time>
      </trkpt>
      <trkpt lat="43.46455000340938568115234375" lon="-5.65915348939597606658935546875">
        <ele>358.600006103515625</ele>
        <time>2022-06-04T07:55:13.000Z</time>
      </trkpt>
      <trkpt lat="43.4644985385239124298095703125" lon="-5.65916639752686023712158203125">
        <ele>358.600006103515625</ele>
        <time>2022-06-04T07:55:14.000Z</time>
      </trkpt>
      <trkpt lat="43.46444548107683658599853515625" lon="-5.65918810665607452392578125">
        <ele>358.399993896484375</ele>
        <time>2022-06-04T07:55:15.000Z</time>
      </trkpt>
      <trkpt lat="43.46439217217266559600830078125" lon="-5.6592129170894622802734375">
        <ele>358</ele>
        <time>2022-06-04T07:55:16.000Z</time>
      </trkpt>
      <trkpt lat="43.46433852799236774444580078125" lon="-5.65923915244638919830322265625">
        <ele>357.600006103515625</ele>
        <time>2022-06-04T07:55:17.000Z</time>
      </trkpt>
      <trkpt lat="43.464284129440784454345703125" lon="-5.65926195122301578521728515625">
        <ele>357.20001220703125</ele>
        <time>2022-06-04T07:55:18.000Z</time>
      </trkpt>
      <trkpt lat="43.46422889269888401031494140625" lon="-5.6592838279902935028076171875">
        <ele>356.79998779296875</ele>
        <time>2022-06-04T07:55:19.000Z</time>
      </trkpt>
      <trkpt lat="43.46417717635631561279296875" lon="-5.65930612385272979736328125">
        <ele>356</ele>
        <time>2022-06-04T07:55:20.000Z</time>
      </trkpt>
      <trkpt lat="43.4641290642321109771728515625" lon="-5.65932632423937320709228515625">
        <ele>355.20001220703125</ele>
        <time>2022-06-04T07:55:21.000Z</time>
      </trkpt>
      <trkpt lat="43.46404951997101306915283203125" lon="-5.6593562476336956024169921875">
        <ele>355</ele>
        <time>2022-06-04T07:55:23.000Z</time>
      </trkpt>
      <trkpt lat="43.46402068622410297393798828125" lon="-5.65936622209846973419189453125">
        <ele>354.79998779296875</ele>
        <time>2022-06-04T07:55:24.000Z</time>
      </trkpt>
      <trkpt lat="43.46399587579071521759033203125" lon="-5.6593766994774341583251953125">
        <ele>354.79998779296875</ele>
        <time>2022-06-04T07:55:25.000Z</time>
      </trkpt>
      <trkpt lat="43.46394893713295459747314453125" lon="-5.65939321182668209075927734375">
        <ele>354.79998779296875</ele>
        <time>2022-06-04T07:55:27.000Z</time>
      </trkpt>
      <trkpt lat="43.46390887163579463958740234375" lon="-5.6594087183475494384765625">
        <ele>354.79998779296875</ele>
        <time>2022-06-04T07:55:29.000Z</time>
      </trkpt>
      <trkpt lat="43.4638735838234424591064453125" lon="-5.6594256497919559478759765625">
        <ele>354.79998779296875</ele>
        <time>2022-06-04T07:55:31.000Z</time>
      </trkpt>
      <trkpt lat="43.46383762545883655548095703125" lon="-5.6594400666654109954833984375">
        <ele>355.20001220703125</ele>
        <time>2022-06-04T07:55:33.000Z</time>
      </trkpt>
      <trkpt lat="43.46380175091326236724853515625" lon="-5.65945624373853206634521484375">
        <ele>355.600006103515625</ele>
        <time>2022-06-04T07:55:35.000Z</time>
      </trkpt>
      <trkpt lat="43.46376721747219562530517578125" lon="-5.65947552211582660675048828125">
        <ele>356</ele>
        <time>2022-06-04T07:55:37.000Z</time>
      </trkpt>
      <trkpt lat="43.46375112421810626983642578125" lon="-5.6594833172857761383056640625">
        <ele>356.399993896484375</ele>
        <time>2022-06-04T07:55:38.000Z</time>
      </trkpt>
      <trkpt lat="43.4637351147830486297607421875" lon="-5.6594916991889476776123046875">
        <ele>356.600006103515625</ele>
        <time>2022-06-04T07:55:39.000Z</time>
      </trkpt>
      <trkpt lat="43.4637017548084259033203125" lon="-5.65950837917625904083251953125">
        <ele>357</ele>
        <time>2022-06-04T07:55:41.000Z</time>
      </trkpt>
      <trkpt lat="43.46368423663079738616943359375" lon="-5.65951374359428882598876953125">
        <ele>357.20001220703125</ele>
        <time>2022-06-04T07:55:42.000Z</time>
      </trkpt>
      <trkpt lat="43.46366814337670803070068359375" lon="-5.6595198623836040496826171875">
        <ele>357.600006103515625</ele>
        <time>2022-06-04T07:55:43.000Z</time>
      </trkpt>
      <trkpt lat="43.46363612450659275054931640625" lon="-5.659535787999629974365234375">
        <ele>358.20001220703125</ele>
        <time>2022-06-04T07:55:45.000Z</time>
      </trkpt>
      <trkpt lat="43.463620282709598541259765625" lon="-5.659544169902801513671875">
        <ele>358.399993896484375</ele>
        <time>2022-06-04T07:55:46.000Z</time>
      </trkpt>
      <trkpt lat="43.4636040218174457550048828125" lon="-5.65955288708209991455078125">
        <ele>358.79998779296875</ele>
        <time>2022-06-04T07:55:47.000Z</time>
      </trkpt>
      <trkpt lat="43.463571332395076751708984375" lon="-5.65957275219261646270751953125">
        <ele>359.600006103515625</ele>
        <time>2022-06-04T07:55:49.000Z</time>
      </trkpt>
      <trkpt lat="43.463539145886898040771484375" lon="-5.65958834253251552581787109375">
        <ele>360</ele>
        <time>2022-06-04T07:55:51.000Z</time>
      </trkpt>
      <trkpt lat="43.4635051153600215911865234375" lon="-5.65960175357758998870849609375">
        <ele>360.399993896484375</ele>
        <time>2022-06-04T07:55:53.000Z</time>
      </trkpt>
      <trkpt lat="43.4634903632104396820068359375" lon="-5.65961055457592010498046875">
        <ele>360.600006103515625</ele>
        <time>2022-06-04T07:55:54.000Z</time>
      </trkpt>
      <trkpt lat="43.4634739346802234649658203125" lon="-5.65962103195488452911376953125">
        <ele>361</ele>
        <time>2022-06-04T07:55:55.000Z</time>
      </trkpt>
      <trkpt lat="43.46344032324850559234619140625" lon="-5.6596402265131473541259765625">
        <ele>361.399993896484375</ele>
        <time>2022-06-04T07:55:57.000Z</time>
      </trkpt>
      <trkpt lat="43.4634085558354854583740234375" lon="-5.65965891815721988677978515625">
        <ele>361.79998779296875</ele>
        <time>2022-06-04T07:55:59.000Z</time>
      </trkpt>
      <trkpt lat="43.46337662078440189361572265625" lon="-5.65967819653451442718505859375">
        <ele>362.399993896484375</ele>
        <time>2022-06-04T07:56:01.000Z</time>
      </trkpt>
      <trkpt lat="43.463345356285572052001953125" lon="-5.6597009114921092987060546875">
        <ele>362.79998779296875</ele>
        <time>2022-06-04T07:56:03.000Z</time>
      </trkpt>
      <trkpt lat="43.46331492997705936431884765625" lon="-5.65972798503935337066650390625">
        <ele>363.20001220703125</ele>
        <time>2022-06-04T07:56:05.000Z</time>
      </trkpt>
      <trkpt lat="43.4632860124111175537109375" lon="-5.6597545556724071502685546875">
        <ele>363.600006103515625</ele>
        <time>2022-06-04T07:56:07.000Z</time>
      </trkpt>
      <trkpt lat="43.46327201463282108306884765625" lon="-5.65976838581264019012451171875">
        <ele>363.79998779296875</ele>
        <time>2022-06-04T07:56:08.000Z</time>
      </trkpt>
      <trkpt lat="43.46325877122581005096435546875" lon="-5.659781880676746368408203125">
        <ele>364</ele>
        <time>2022-06-04T07:56:09.000Z</time>
      </trkpt>
      <trkpt lat="43.46323379315435886383056640625" lon="-5.65980778075754642486572265625">
        <ele>364.79998779296875</ele>
        <time>2022-06-04T07:56:11.000Z</time>
      </trkpt>
      <trkpt lat="43.4632211364805698394775390625" lon="-5.65982186235487461090087890625">
        <ele>365.20001220703125</ele>
        <time>2022-06-04T07:56:12.000Z</time>
      </trkpt>
      <trkpt lat="43.4632090665400028228759765625" lon="-5.6598370335996150970458984375">
        <ele>365.399993896484375</ele>
        <time>2022-06-04T07:56:13.000Z</time>
      </trkpt>
      <trkpt lat="43.463181741535663604736328125" lon="-5.65986662171781063079833984375">
        <ele>366</ele>
        <time>2022-06-04T07:56:15.000Z</time>
      </trkpt>
      <trkpt lat="43.46316724084317684173583984375" lon="-5.6598796136677265167236328125">
        <ele>366.399993896484375</ele>
        <time>2022-06-04T07:56:16.000Z</time>
      </trkpt>
      <trkpt lat="43.46315332688391208648681640625" lon="-5.659892521798610687255859375">
        <ele>366.600006103515625</ele>
        <time>2022-06-04T07:56:17.000Z</time>
      </trkpt>
      <trkpt lat="43.46312533132731914520263671875" lon="-5.6599208526313304901123046875">
        <ele>366.79998779296875</ele>
        <time>2022-06-04T07:56:19.000Z</time>
      </trkpt>
      <trkpt lat="43.4630977548658847808837890625" lon="-5.65995178185403347015380859375">
        <ele>367.20001220703125</ele>
        <time>2022-06-04T07:56:21.000Z</time>
      </trkpt>
      <trkpt lat="43.4630848467350006103515625" lon="-5.6599681265652179718017578125">
        <ele>367.399993896484375</ele>
        <time>2022-06-04T07:56:22.000Z</time>
      </trkpt>
      <trkpt lat="43.463071770966053009033203125" lon="-5.6599835492670536041259765625">
        <ele>367.600006103515625</ele>
        <time>2022-06-04T07:56:23.000Z</time>
      </trkpt>
      <trkpt lat="43.4630451165139675140380859375" lon="-5.66001364029943943023681640625">
        <ele>368.20001220703125</ele>
        <time>2022-06-04T07:56:25.000Z</time>
      </trkpt>
      <trkpt lat="43.463031537830829620361328125" lon="-5.6600291468203067779541015625">
        <ele>368.399993896484375</ele>
        <time>2022-06-04T07:56:26.000Z</time>
      </trkpt>
      <trkpt lat="43.46301712095737457275390625" lon="-5.66004415042698383331298828125">
        <ele>368.79998779296875</ele>
        <time>2022-06-04T07:56:27.000Z</time>
      </trkpt>
      <trkpt lat="43.4629881195724010467529296875" lon="-5.66007197834551334381103515625">
        <ele>369.20001220703125</ele>
        <time>2022-06-04T07:56:29.000Z</time>
      </trkpt>
      <trkpt lat="43.46297127194702625274658203125" lon="-5.660085976123809814453125">
        <ele>369.600006103515625</ele>
        <time>2022-06-04T07:56:30.000Z</time>
      </trkpt>
      <trkpt lat="43.462954424321651458740234375" lon="-5.6600992195308208465576171875">
        <ele>369.79998779296875</ele>
        <time>2022-06-04T07:56:31.000Z</time>
      </trkpt>
      <trkpt lat="43.46292047761380672454833984375" lon="-5.660125203430652618408203125">
        <ele>370.20001220703125</ele>
        <time>2022-06-04T07:56:33.000Z</time>
      </trkpt>
      <trkpt lat="43.46288979984819889068603515625" lon="-5.66015236079692840576171875">
        <ele>370.600006103515625</ele>
        <time>2022-06-04T07:56:35.000Z</time>
      </trkpt>
      <trkpt lat="43.4628568589687347412109375" lon="-5.660178847610950469970703125">
        <ele>371</ele>
        <time>2022-06-04T07:56:37.000Z</time>
      </trkpt>
      <trkpt lat="43.46284118480980396270751953125" lon="-5.6601934321224689483642578125">
        <ele>371.20001220703125</ele>
        <time>2022-06-04T07:56:38.000Z</time>
      </trkpt>
      <trkpt lat="43.46282576210796833038330078125" lon="-5.6602105312049388885498046875">
        <ele>371.399993896484375</ele>
        <time>2022-06-04T07:56:39.000Z</time>
      </trkpt>
      <trkpt lat="43.46279583871364593505859375" lon="-5.66025118343532085418701171875">
        <ele>371.79998779296875</ele>
        <time>2022-06-04T07:56:41.000Z</time>
      </trkpt>
      <trkpt lat="43.4627597965300083160400390625" lon="-5.660291500389575958251953125">
        <ele>372.20001220703125</ele>
        <time>2022-06-04T07:56:43.000Z</time>
      </trkpt>
      <trkpt lat="43.462737500667572021484375" lon="-5.66031538881361484527587890625">
        <ele>372.399993896484375</ele>
        <time>2022-06-04T07:56:44.000Z</time>
      </trkpt>
      <trkpt lat="43.46271176822483539581298828125" lon="-5.66034103743731975555419921875">
        <ele>372.399993896484375</ele>
        <time>2022-06-04T07:56:45.000Z</time>
      </trkpt>
      <trkpt lat="43.46264890395104885101318359375" lon="-5.6603925861418247222900390625">
        <ele>372.399993896484375</ele>
        <time>2022-06-04T07:56:47.000Z</time>
      </trkpt>
      <trkpt lat="43.46257480792701244354248046875" lon="-5.660433657467365264892578125">
        <ele>372.399993896484375</ele>
        <time>2022-06-04T07:56:49.000Z</time>
      </trkpt>
      <trkpt lat="43.4624989517033100128173828125" lon="-5.6604703702032566070556640625">
        <ele>372.399993896484375</ele>
        <time>2022-06-04T07:56:51.000Z</time>
      </trkpt>
      <trkpt lat="43.46241789869964122772216796875" lon="-5.66049912013113498687744140625">
        <ele>372.399993896484375</ele>
        <time>2022-06-04T07:56:53.000Z</time>
      </trkpt>
      <trkpt lat="43.46233776770532131195068359375" lon="-5.6605206616222858428955078125">
        <ele>372.399993896484375</ele>
        <time>2022-06-04T07:56:55.000Z</time>
      </trkpt>
      <trkpt lat="43.46226652152836322784423828125" lon="-5.66054387949407100677490234375">
        <ele>372.399993896484375</ele>
        <time>2022-06-04T07:56:57.000Z</time>
      </trkpt>
      <trkpt lat="43.46219996921718120574951171875" lon="-5.66055293194949626922607421875">
        <ele>372.399993896484375</ele>
        <time>2022-06-04T07:56:59.000Z</time>
      </trkpt>
      <trkpt lat="43.4621388651430606842041015625" lon="-5.66055200994014739990234375">
        <ele>372.399993896484375</ele>
        <time>2022-06-04T07:57:01.000Z</time>
      </trkpt>
      <trkpt lat="43.4620771743357181549072265625" lon="-5.6605313904583454132080078125">
        <ele>372.399993896484375</ele>
        <time>2022-06-04T07:57:03.000Z</time>
      </trkpt>
      <trkpt lat="43.4620087780058383941650390625" lon="-5.6604857929050922393798828125">
        <ele>372.399993896484375</ele>
        <time>2022-06-04T07:57:05.000Z</time>
      </trkpt>
      <trkpt lat="43.46193158067762851715087890625" lon="-5.6604318134486675262451171875">
        <ele>372.399993896484375</ele>
        <time>2022-06-04T07:57:07.000Z</time>
      </trkpt>
      <trkpt lat="43.46189050935208797454833984375" lon="-5.66040658392012119293212890625">
        <ele>372.399993896484375</ele>
        <time>2022-06-04T07:57:08.000Z</time>
      </trkpt>
      <trkpt lat="43.46184859983623027801513671875" lon="-5.6603795103728771209716796875">
        <ele>372.399993896484375</ele>
        <time>2022-06-04T07:57:09.000Z</time>
      </trkpt>
      <trkpt lat="43.46176209859549999237060546875" lon="-5.66032025031745433807373046875">
        <ele>372.399993896484375</ele>
        <time>2022-06-04T07:57:11.000Z</time>
      </trkpt>
      <trkpt lat="43.4616728313267230987548828125" lon="-5.66026979126036167144775390625">
        <ele>372.399993896484375</ele>
        <time>2022-06-04T07:57:13.000Z</time>
      </trkpt>
      <trkpt lat="43.461585827171802520751953125" lon="-5.66023324616253376007080078125">
        <ele>372.399993896484375</ele>
        <time>2022-06-04T07:57:15.000Z</time>
      </trkpt>
      <trkpt lat="43.46154366619884967803955078125" lon="-5.6602232716977596282958984375">
        <ele>372.399993896484375</ele>
        <time>2022-06-04T07:57:16.000Z</time>
      </trkpt>
      <trkpt lat="43.46150242723524570465087890625" lon="-5.6602202542126178741455078125">
        <ele>372.399993896484375</ele>
        <time>2022-06-04T07:57:17.000Z</time>
      </trkpt>
      <trkpt lat="43.461421541869640350341796875" lon="-5.66022821702063083648681640625">
        <ele>372.399993896484375</ele>
        <time>2022-06-04T07:57:19.000Z</time>
      </trkpt>
      <trkpt lat="43.461380638182163238525390625" lon="-5.66023349761962890625">
        <ele>372.399993896484375</ele>
        <time>2022-06-04T07:57:20.000Z</time>
      </trkpt>
      <trkpt lat="43.46133948303759098052978515625" lon="-5.660239197313785552978515625">
        <ele>372.399993896484375</ele>
        <time>2022-06-04T07:57:21.000Z</time>
      </trkpt>
      <trkpt lat="43.46125222742557525634765625" lon="-5.66025420092046260833740234375">
        <ele>372.399993896484375</ele>
        <time>2022-06-04T07:57:23.000Z</time>
      </trkpt>
      <trkpt lat="43.461153320968151092529296875" lon="-5.66026526503264904022216796875">
        <ele>372.20001220703125</ele>
        <time>2022-06-04T07:57:25.000Z</time>
      </trkpt>
      <trkpt lat="43.46105013974010944366455078125" lon="-5.66027347929775714874267578125">
        <ele>372.20001220703125</ele>
        <time>2022-06-04T07:57:27.000Z</time>
      </trkpt>
      <trkpt lat="43.46095316112041473388671875" lon="-5.6602819450199604034423828125">
        <ele>371.79998779296875</ele>
        <time>2022-06-04T07:57:29.000Z</time>
      </trkpt>
      <trkpt lat="43.460862636566162109375" lon="-5.66029828973114490509033203125">
        <ele>371.600006103515625</ele>
        <time>2022-06-04T07:57:31.000Z</time>
      </trkpt>
      <trkpt lat="43.46077051945030689239501953125" lon="-5.66031320951879024505615234375">
        <ele>371.20001220703125</ele>
        <time>2022-06-04T07:57:33.000Z</time>
      </trkpt>
      <trkpt lat="43.4606703557074069976806640625" lon="-5.660331062972545623779296875">
        <ele>370.79998779296875</ele>
        <time>2022-06-04T07:57:35.000Z</time>
      </trkpt>
      <trkpt lat="43.4606153704226016998291015625" lon="-5.6603402830660343170166015625">
        <ele>370.79998779296875</ele>
        <time>2022-06-04T07:57:36.000Z</time>
      </trkpt>
      <trkpt lat="43.4605587087571620941162109375" lon="-5.66034774295985698699951171875">
        <ele>370.600006103515625</ele>
        <time>2022-06-04T07:57:37.000Z</time>
      </trkpt>
      <trkpt lat="43.46044664271175861358642578125" lon="-5.66035998053848743438720703125">
        <ele>370.399993896484375</ele>
        <time>2022-06-04T07:57:39.000Z</time>
      </trkpt>
      <trkpt lat="43.460343964397907257080078125" lon="-5.66038194112479686737060546875">
        <ele>370.20001220703125</ele>
        <time>2022-06-04T07:57:41.000Z</time>
      </trkpt>
      <trkpt lat="43.4602510929107666015625" lon="-5.66042318008840084075927734375">
        <ele>369.79998779296875</ele>
        <time>2022-06-04T07:57:43.000Z</time>
      </trkpt>
      <trkpt lat="43.46020624972879886627197265625" lon="-5.6604494154453277587890625">
        <ele>369.600006103515625</ele>
        <time>2022-06-04T07:57:44.000Z</time>
      </trkpt>
      <trkpt lat="43.4601612389087677001953125" lon="-5.6604780815541744232177734375">
        <ele>369.600006103515625</ele>
        <time>2022-06-04T07:57:45.000Z</time>
      </trkpt>
      <trkpt lat="43.4600700438022613525390625" lon="-5.66054999828338623046875">
        <ele>369.399993896484375</ele>
        <time>2022-06-04T07:57:47.000Z</time>
      </trkpt>
      <trkpt lat="43.4599788486957550048828125" lon="-5.66061713732779026031494140625">
        <ele>369.20001220703125</ele>
        <time>2022-06-04T07:57:49.000Z</time>
      </trkpt>
      <trkpt lat="43.4599300660192966461181640625" lon="-5.66064186394214630126953125">
        <ele>369.20001220703125</ele>
        <time>2022-06-04T07:57:50.000Z</time>
      </trkpt>
      <trkpt lat="43.459884636104106903076171875" lon="-5.66066089086234569549560546875">
        <ele>369</ele>
        <time>2022-06-04T07:57:51.000Z</time>
      </trkpt>
      <trkpt lat="43.4598402120172977447509765625" lon="-5.66067128442227840423583984375">
        <ele>368.79998779296875</ele>
        <time>2022-06-04T07:57:52.000Z</time>
      </trkpt>
      <trkpt lat="43.459794111549854278564453125" lon="-5.66067212261259555816650390625">
        <ele>368.79998779296875</ele>
        <time>2022-06-04T07:57:53.000Z</time>
      </trkpt>
      <trkpt lat="43.45974692143499851226806640625" lon="-5.6606661714613437652587890625">
        <ele>368.79998779296875</ele>
        <time>2022-06-04T07:57:54.000Z</time>
      </trkpt>
      <trkpt lat="43.45969897694885730743408203125" lon="-5.66065804101526737213134765625">
        <ele>368.600006103515625</ele>
        <time>2022-06-04T07:57:55.000Z</time>
      </trkpt>
      <trkpt lat="43.4596004895865917205810546875" lon="-5.6606359966099262237548828125">
        <ele>368.399993896484375</ele>
        <time>2022-06-04T07:57:57.000Z</time>
      </trkpt>
      <trkpt lat="43.4595522098243236541748046875" lon="-5.6606157124042510986328125">
        <ele>368.399993896484375</ele>
        <time>2022-06-04T07:57:58.000Z</time>
      </trkpt>
      <trkpt lat="43.459501750767230987548828125" lon="-5.66058830358088016510009765625">
        <ele>368.399993896484375</ele>
        <time>2022-06-04T07:57:59.000Z</time>
      </trkpt>
      <trkpt lat="43.45945246517658233642578125" lon="-5.66055242903530597686767578125">
        <ele>368.20001220703125</ele>
        <time>2022-06-04T07:58:00.000Z</time>
      </trkpt>
      <trkpt lat="43.459408544003963470458984375" lon="-5.66051001660525798797607421875">
        <ele>368.20001220703125</ele>
        <time>2022-06-04T07:58:01.000Z</time>
      </trkpt>
      <trkpt lat="43.45933444797992706298828125" lon="-5.6603962741792201995849609375">
        <ele>368.20001220703125</ele>
        <time>2022-06-04T07:58:03.000Z</time>
      </trkpt>
      <trkpt lat="43.45930603332817554473876953125" lon="-5.66032913513481616973876953125">
        <ele>367.79998779296875</ele>
        <time>2022-06-04T07:58:04.000Z</time>
      </trkpt>
      <trkpt lat="43.4592789597809314727783203125" lon="-5.66025336273014545440673828125">
        <ele>367.20001220703125</ele>
        <time>2022-06-04T07:58:05.000Z</time>
      </trkpt>
      <trkpt lat="43.4592585079371929168701171875" lon="-5.660176165401935577392578125">
        <ele>365.600006103515625</ele>
        <time>2022-06-04T07:58:06.000Z</time>
      </trkpt>
      <trkpt lat="43.45924970693886280059814453125" lon="-5.66010667942464351654052734375">
        <ele>364.79998779296875</ele>
        <time>2022-06-04T07:58:07.000Z</time>
      </trkpt>
      <trkpt lat="43.459246270358562469482421875" lon="-5.66003509797155857086181640625">
        <ele>364</ele>
        <time>2022-06-04T07:58:08.000Z</time>
      </trkpt>
      <trkpt lat="43.45924886874854564666748046875" lon="-5.65996133722364902496337890625">
        <ele>363</ele>
        <time>2022-06-04T07:58:09.000Z</time>
      </trkpt>
      <trkpt lat="43.4592437557876110076904296875" lon="-5.65987366251647472381591796875">
        <ele>362.20001220703125</ele>
        <time>2022-06-04T07:58:10.000Z</time>
      </trkpt>
      <trkpt lat="43.45924082212150096893310546875" lon="-5.65978623926639556884765625">
        <ele>361.20001220703125</ele>
        <time>2022-06-04T07:58:11.000Z</time>
      </trkpt>
      <trkpt lat="43.45923864282667636871337890625" lon="-5.65969102084636688232421875">
        <ele>360.399993896484375</ele>
        <time>2022-06-04T07:58:12.000Z</time>
      </trkpt>
      <trkpt lat="43.45924367196857929229736328125" lon="-5.65958918072283267974853515625">
        <ele>360</ele>
        <time>2022-06-04T07:58:13.000Z</time>
      </trkpt>
      <trkpt lat="43.45924953930079936981201171875" lon="-5.65937058068811893463134765625">
        <ele>359.399993896484375</ele>
        <time>2022-06-04T07:58:15.000Z</time>
      </trkpt>
      <trkpt lat="43.45927141606807708740234375" lon="-5.65923529677093029022216796875">
        <ele>359</ele>
        <time>2022-06-04T07:58:16.000Z</time>
      </trkpt>
      <trkpt lat="43.45929362811148166656494140625" lon="-5.65910051576793193817138671875">
        <ele>359</ele>
        <time>2022-06-04T07:58:17.000Z</time>
      </trkpt>
      <trkpt lat="43.45930871553719043731689453125" lon="-5.6588885374367237091064453125">
        <ele>357.79998779296875</ele>
        <time>2022-06-04T07:58:19.000Z</time>
      </trkpt>
      <trkpt lat="43.4593081288039684295654296875" lon="-5.6586716137826442718505859375">
        <ele>357</ele>
        <time>2022-06-04T07:58:21.000Z</time>
      </trkpt>
      <trkpt lat="43.45929848961532115936279296875" lon="-5.65857027657330036163330078125">
        <ele>356.600006103515625</ele>
        <time>2022-06-04T07:58:22.000Z</time>
      </trkpt>
      <trkpt lat="43.45928859896957874298095703125" lon="-5.6584697775542736053466796875">
        <ele>356.20001220703125</ele>
        <time>2022-06-04T07:58:23.000Z</time>
      </trkpt>
      <trkpt lat="43.4592705778777599334716796875" lon="-5.6583645008504390716552734375">
        <ele>356</ele>
        <time>2022-06-04T07:58:24.000Z</time>
      </trkpt>
      <trkpt lat="43.459254316985607147216796875" lon="-5.65825025551021099090576171875">
        <ele>355.79998779296875</ele>
        <time>2022-06-04T07:58:25.000Z</time>
      </trkpt>
      <trkpt lat="43.45923428423702716827392578125" lon="-5.658144392073154449462890625">
        <ele>355.600006103515625</ele>
        <time>2022-06-04T07:58:26.000Z</time>
      </trkpt>
      <trkpt lat="43.459207713603973388671875" lon="-5.65804339013993740081787109375">
        <ele>355.600006103515625</ele>
        <time>2022-06-04T07:58:27.000Z</time>
      </trkpt>
      <trkpt lat="43.4591726772487163543701171875" lon="-5.65795454196631908416748046875">
        <ele>355.20001220703125</ele>
        <time>2022-06-04T07:58:28.000Z</time>
      </trkpt>
      <trkpt lat="43.45913571305572986602783203125" lon="-5.65787650644779205322265625">
        <ele>355</ele>
        <time>2022-06-04T07:58:29.000Z</time>
      </trkpt>
      <trkpt lat="43.45910017378628253936767578125" lon="-5.65781238488852977752685546875">
        <ele>354.600006103515625</ele>
        <time>2022-06-04T07:58:30.000Z</time>
      </trkpt>
      <trkpt lat="43.45906061120331287384033203125" lon="-5.6577482633292675018310546875">
        <ele>354.20001220703125</ele>
        <time>2022-06-04T07:58:31.000Z</time>
      </trkpt>
      <trkpt lat="43.45900428481400012969970703125" lon="-5.657634101808071136474609375">
        <ele>353.399993896484375</ele>
        <time>2022-06-04T07:58:33.000Z</time>
      </trkpt>
      <trkpt lat="43.45898333005607128143310546875" lon="-5.6575740873813629150390625">
        <ele>351.600006103515625</ele>
        <time>2022-06-04T07:58:34.000Z</time>
      </trkpt>
      <trkpt lat="43.4589651413261890411376953125" lon="-5.65751013346016407012939453125">
        <ele>351</ele>
        <time>2022-06-04T07:58:35.000Z</time>
      </trkpt>
      <trkpt lat="43.45896438695490360260009765625" lon="-5.6574344448745250701904296875">
        <ele>350.20001220703125</ele>
        <time>2022-06-04T07:58:36.000Z</time>
      </trkpt>
      <trkpt lat="43.4589728526771068572998046875" lon="-5.65734819509088993072509765625">
        <ele>349.399993896484375</ele>
        <time>2022-06-04T07:58:37.000Z</time>
      </trkpt>
      <trkpt lat="43.45899422653019428253173828125" lon="-5.65724777989089488983154296875">
        <ele>348.399993896484375</ele>
        <time>2022-06-04T07:58:38.000Z</time>
      </trkpt>
      <trkpt lat="43.45902373082935810089111328125" lon="-5.6571514718234539031982421875">
        <ele>347.600006103515625</ele>
        <time>2022-06-04T07:58:39.000Z</time>
      </trkpt>
      <trkpt lat="43.459046781063079833984375" lon="-5.65705776214599609375">
        <ele>347.20001220703125</ele>
        <time>2022-06-04T07:58:40.000Z</time>
      </trkpt>
      <trkpt lat="43.459049127995967864990234375" lon="-5.65696078352630138397216796875">
        <ele>346.399993896484375</ele>
        <time>2022-06-04T07:58:41.000Z</time>
      </trkpt>
      <trkpt lat="43.459063880145549774169921875" lon="-5.65685953013598918914794921875">
        <ele>345.399993896484375</ele>
        <time>2022-06-04T07:58:42.000Z</time>
      </trkpt>
      <trkpt lat="43.45908659510314464569091796875" lon="-5.65676816739141941070556640625">
        <ele>344.600006103515625</ele>
        <time>2022-06-04T07:58:43.000Z</time>
      </trkpt>
      <trkpt lat="43.459122888743877410888671875" lon="-5.65667814575135707855224609375">
        <ele>344</ele>
        <time>2022-06-04T07:58:44.000Z</time>
      </trkpt>
      <trkpt lat="43.45916907303035259246826171875" lon="-5.656606145203113555908203125">
        <ele>343.600006103515625</ele>
        <time>2022-06-04T07:58:45.000Z</time>
      </trkpt>
      <trkpt lat="43.45927367918193340301513671875" lon="-5.65652056597173213958740234375">
        <ele>342.399993896484375</ele>
        <time>2022-06-04T07:58:47.000Z</time>
      </trkpt>
      <trkpt lat="43.459325730800628662109375" lon="-5.6565007008612155914306640625">
        <ele>341.79998779296875</ele>
        <time>2022-06-04T07:58:48.000Z</time>
      </trkpt>
      <trkpt lat="43.4593738429248332977294921875" lon="-5.6564866192638874053955078125">
        <ele>341.20001220703125</ele>
        <time>2022-06-04T07:58:49.000Z</time>
      </trkpt>
      <trkpt lat="43.45941768027842044830322265625" lon="-5.6564668379724025726318359375">
        <ele>340.399993896484375</ele>
        <time>2022-06-04T07:58:50.000Z</time>
      </trkpt>
      <trkpt lat="43.4594613499939441680908203125" lon="-5.65644026733934879302978515625">
        <ele>340</ele>
        <time>2022-06-04T07:58:51.000Z</time>
      </trkpt>
      <trkpt lat="43.45955304801464080810546875" lon="-5.6563843600451946258544921875">
        <ele>339.600006103515625</ele>
        <time>2022-06-04T07:58:53.000Z</time>
      </trkpt>
      <trkpt lat="43.459653295576572418212890625" lon="-5.65632560290396213531494140625">
        <ele>339.399993896484375</ele>
        <time>2022-06-04T07:58:55.000Z</time>
      </trkpt>
      <trkpt lat="43.45975195057690143585205078125" lon="-5.656271874904632568359375">
        <ele>339.20001220703125</ele>
        <time>2022-06-04T07:58:57.000Z</time>
      </trkpt>
      <trkpt lat="43.4598045051097869873046875" lon="-5.656245052814483642578125">
        <ele>339</ele>
        <time>2022-06-04T07:58:58.000Z</time>
      </trkpt>
      <trkpt lat="43.45985705964267253875732421875" lon="-5.6562143750488758087158203125">
        <ele>339</ele>
        <time>2022-06-04T07:58:59.000Z</time>
      </trkpt>
      <trkpt lat="43.45990701578557491302490234375" lon="-5.6561754830181598663330078125">
        <ele>339</ele>
        <time>2022-06-04T07:59:00.000Z</time>
      </trkpt>
      <trkpt lat="43.45995160751044750213623046875" lon="-5.6561288796365261077880859375">
        <ele>338.79998779296875</ele>
        <time>2022-06-04T07:59:01.000Z</time>
      </trkpt>
      <trkpt lat="43.46003492362797260284423828125" lon="-5.65601714886724948883056640625">
        <ele>338.600006103515625</ele>
        <time>2022-06-04T07:59:03.000Z</time>
      </trkpt>
      <trkpt lat="43.46010047011077404022216796875" lon="-5.6558757461607456207275390625">
        <ele>338.399993896484375</ele>
        <time>2022-06-04T07:59:05.000Z</time>
      </trkpt>
      <trkpt lat="43.460124023258686065673828125" lon="-5.655789077281951904296875">
        <ele>338.399993896484375</ele>
        <time>2022-06-04T07:59:06.000Z</time>
      </trkpt>
      <trkpt lat="43.4601449780166149139404296875" lon="-5.65569763071835041046142578125">
        <ele>338.399993896484375</ele>
        <time>2022-06-04T07:59:07.000Z</time>
      </trkpt>
      <trkpt lat="43.46016534604132175445556640625" lon="-5.6555978022515773773193359375">
        <ele>338.20001220703125</ele>
        <time>2022-06-04T07:59:08.000Z</time>
      </trkpt>
      <trkpt lat="43.46017926000058650970458984375" lon="-5.655492357909679412841796875">
        <ele>338.20001220703125</ele>
        <time>2022-06-04T07:59:09.000Z</time>
      </trkpt>
      <trkpt lat="43.46018965356051921844482421875" lon="-5.6553859077394008636474609375">
        <ele>338</ele>
        <time>2022-06-04T07:59:10.000Z</time>
      </trkpt>
      <trkpt lat="43.46019753254950046539306640625" lon="-5.65527618862688541412353515625">
        <ele>337.79998779296875</ele>
        <time>2022-06-04T07:59:11.000Z</time>
      </trkpt>
      <trkpt lat="43.46021714620292186737060546875" lon="-5.65503596328198909759521484375">
        <ele>337.399993896484375</ele>
        <time>2022-06-04T07:59:13.000Z</time>
      </trkpt>
      <trkpt lat="43.46025503240525722503662109375" lon="-5.65479976125061511993408203125">
        <ele>336.79998779296875</ele>
        <time>2022-06-04T07:59:15.000Z</time>
      </trkpt>
      <trkpt lat="43.46027883701026439666748046875" lon="-5.654694736003875732421875">
        <ele>336.399993896484375</ele>
        <time>2022-06-04T07:59:16.000Z</time>
      </trkpt>
      <trkpt lat="43.46031638793647289276123046875" lon="-5.6546010263264179229736328125">
        <ele>336</ele>
        <time>2022-06-04T07:59:17.000Z</time>
      </trkpt>
      <trkpt lat="43.4603570401668548583984375" lon="-5.6545185483992099761962890625">
        <ele>335.399993896484375</ele>
        <time>2022-06-04T07:59:18.000Z</time>
      </trkpt>
      <trkpt lat="43.46039769239723682403564453125" lon="-5.65444503910839557647705078125">
        <ele>334.79998779296875</ele>
        <time>2022-06-04T07:59:19.000Z</time>
      </trkpt>
      <trkpt lat="43.46047748811542987823486328125" lon="-5.6542989425361156463623046875">
        <ele>333.600006103515625</ele>
        <time>2022-06-04T07:59:21.000Z</time>
      </trkpt>
      <trkpt lat="43.46055108122527599334716796875" lon="-5.6541383452713489532470703125">
        <ele>332.79998779296875</ele>
        <time>2022-06-04T07:59:23.000Z</time>
      </trkpt>
      <trkpt lat="43.46057555638253688812255859375" lon="-5.65406047739088535308837890625">
        <ele>332.600006103515625</ele>
        <time>2022-06-04T07:59:24.000Z</time>
      </trkpt>
      <trkpt lat="43.4605925716459751129150390625" lon="-5.65398059785366058349609375">
        <ele>332.399993896484375</ele>
        <time>2022-06-04T07:59:25.000Z</time>
      </trkpt>
      <trkpt lat="43.46062056720256805419921875" lon="-5.6538131274282932281494140625">
        <ele>332.20001220703125</ele>
        <time>2022-06-04T07:59:27.000Z</time>
      </trkpt>
      <trkpt lat="43.46062651835381984710693359375" lon="-5.65373190678656101226806640625">
        <ele>332.20001220703125</ele>
        <time>2022-06-04T07:59:28.000Z</time>
      </trkpt>
      <trkpt lat="43.46063456498086452484130859375" lon="-5.65365211106836795806884765625">
        <ele>332</ele>
        <time>2022-06-04T07:59:29.000Z</time>
      </trkpt>
      <trkpt lat="43.4606730379164218902587890625" lon="-5.65349905751645565032958984375">
        <ele>331.79998779296875</ele>
        <time>2022-06-04T07:59:31.000Z</time>
      </trkpt>
      <trkpt lat="43.4607273526489734649658203125" lon="-5.65336209721863269805908203125">
        <ele>331.600006103515625</ele>
        <time>2022-06-04T07:59:33.000Z</time>
      </trkpt>
      <trkpt lat="43.46078996546566486358642578125" lon="-5.65322144888341426849365234375">
        <ele>331.600006103515625</ele>
        <time>2022-06-04T07:59:35.000Z</time>
      </trkpt>
      <trkpt lat="43.460854589939117431640625" lon="-5.6530594266951084136962890625">
        <ele>331.600006103515625</ele>
        <time>2022-06-04T07:59:37.000Z</time>
      </trkpt>
      <trkpt lat="43.46092164516448974609375" lon="-5.65286957658827304840087890625">
        <ele>331.399993896484375</ele>
        <time>2022-06-04T07:59:39.000Z</time>
      </trkpt>
      <trkpt lat="43.46095793880522251129150390625" lon="-5.6527702510356903076171875">
        <ele>331.399993896484375</ele>
        <time>2022-06-04T07:59:40.000Z</time>
      </trkpt>
      <trkpt lat="43.4609980881214141845703125" lon="-5.6526629626750946044921875">
        <ele>331.399993896484375</ele>
        <time>2022-06-04T07:59:41.000Z</time>
      </trkpt>
      <trkpt lat="43.4610867686569690704345703125" lon="-5.65246406011283397674560546875">
        <ele>331.20001220703125</ele>
        <time>2022-06-04T07:59:43.000Z</time>
      </trkpt>
      <trkpt lat="43.4611984156072139739990234375" lon="-5.65227731131017208099365234375">
        <ele>330.399993896484375</ele>
        <time>2022-06-04T07:59:45.000Z</time>
      </trkpt>
      <trkpt lat="43.4612936340272426605224609375" lon="-5.65209458582103252410888671875">
        <ele>329.399993896484375</ele>
        <time>2022-06-04T07:59:47.000Z</time>
      </trkpt>
      <trkpt lat="43.461386673152446746826171875" lon="-5.6519228406250476837158203125">
        <ele>328</ele>
        <time>2022-06-04T07:59:49.000Z</time>
      </trkpt>
      <trkpt lat="43.46143855713307857513427734375" lon="-5.6518474034965038299560546875">
        <ele>326.79998779296875</ele>
        <time>2022-06-04T07:59:50.000Z</time>
      </trkpt>
      <trkpt lat="43.46149756573140621185302734375" lon="-5.651777498424053192138671875">
        <ele>326</ele>
        <time>2022-06-04T07:59:51.000Z</time>
      </trkpt>
      <trkpt lat="43.46155020408332347869873046875" lon="-5.6516928412020206451416015625">
        <ele>324.79998779296875</ele>
        <time>2022-06-04T07:59:52.000Z</time>
      </trkpt>
      <trkpt lat="43.461609296500682830810546875" lon="-5.65162905491888523101806640625">
        <ele>323.399993896484375</ele>
        <time>2022-06-04T07:59:53.000Z</time>
      </trkpt>
      <trkpt lat="43.4616647846996784210205078125" lon="-5.6515811942517757415771484375">
        <ele>322.20001220703125</ele>
        <time>2022-06-04T07:59:54.000Z</time>
      </trkpt>
      <trkpt lat="43.461724631488323211669921875" lon="-5.65154917538166046142578125">
        <ele>321.399993896484375</ele>
        <time>2022-06-04T07:59:55.000Z</time>
      </trkpt>
      <trkpt lat="43.4617858193814754486083984375" lon="-5.6515144743025302886962890625">
        <ele>320.399993896484375</ele>
        <time>2022-06-04T07:59:56.000Z</time>
      </trkpt>
      <trkpt lat="43.46184097230434417724609375" lon="-5.65146426670253276824951171875">
        <ele>318.600006103515625</ele>
        <time>2022-06-04T07:59:57.000Z</time>
      </trkpt>
      <trkpt lat="43.46189729869365692138671875" lon="-5.6514028273522853851318359375">
        <ele>317.20001220703125</ele>
        <time>2022-06-04T07:59:58.000Z</time>
      </trkpt>
      <trkpt lat="43.46195354126393795013427734375" lon="-5.65133602358400821685791015625">
        <ele>316</ele>
        <time>2022-06-04T07:59:59.000Z</time>
      </trkpt>
      <trkpt lat="43.46204389818012714385986328125" lon="-5.65120409242808818817138671875">
        <ele>314.600006103515625</ele>
        <time>2022-06-04T08:00:01.000Z</time>
      </trkpt>
      <trkpt lat="43.46211564727127552032470703125" lon="-5.65110334195196628570556640625">
        <ele>314</ele>
        <time>2022-06-04T08:00:03.000Z</time>
      </trkpt>
      <trkpt lat="43.46214766614139080047607421875" lon="-5.6509944610297679901123046875">
        <ele>313.20001220703125</ele>
        <time>2022-06-04T08:00:05.000Z</time>
      </trkpt>
      <trkpt lat="43.4621435590088367462158203125" lon="-5.65092866308987140655517578125">
        <ele>312</ele>
        <time>2022-06-04T08:00:06.000Z</time>
      </trkpt>
      <trkpt lat="43.46213308162987232208251953125" lon="-5.65086445771157741546630859375">
        <ele>311</ele>
        <time>2022-06-04T08:00:07.000Z</time>
      </trkpt>
      <trkpt lat="43.46212671138346195220947265625" lon="-5.6508147530257701873779296875">
        <ele>310.399993896484375</ele>
        <time>2022-06-04T08:00:08.000Z</time>
      </trkpt>
      <trkpt lat="43.4621200896799564361572265625" lon="-5.65077795647084712982177734375">
        <ele>309.600006103515625</ele>
        <time>2022-06-04T08:00:09.000Z</time>
      </trkpt>
      <trkpt lat="43.4621137194335460662841796875" lon="-5.65075180493295192718505859375">
        <ele>309</ele>
        <time>2022-06-04T08:00:10.000Z</time>
      </trkpt>
      <trkpt lat="43.4621113725006580352783203125" lon="-5.65073034726083278656005859375">
        <ele>308.600006103515625</ele>
        <time>2022-06-04T08:00:11.000Z</time>
      </trkpt>
      <trkpt lat="43.46209821291267871856689453125" lon="-5.65068684518337249755859375">
        <ele>308.20001220703125</ele>
        <time>2022-06-04T08:00:13.000Z</time>
      </trkpt>
      <trkpt lat="43.4620817005634307861328125" lon="-5.65064535476267337799072265625">
        <ele>308.20001220703125</ele>
        <time>2022-06-04T08:00:15.000Z</time>
      </trkpt>
      <trkpt lat="43.4620587341487407684326171875" lon="-5.6506045348942279815673828125">
        <ele>308.20001220703125</ele>
        <time>2022-06-04T08:00:17.000Z</time>
      </trkpt>
      <trkpt lat="43.4620414674282073974609375" lon="-5.65056539140641689300537109375">
        <ele>308.20001220703125</ele>
        <time>2022-06-04T08:00:19.000Z</time>
      </trkpt>
      <trkpt lat="43.46202495507895946502685546875" lon="-5.65052465535700321197509765625">
        <ele>308.399993896484375</ele>
        <time>2022-06-04T08:00:21.000Z</time>
      </trkpt>
      <trkpt lat="43.46200852654874324798583984375" lon="-5.650483332574367523193359375">
        <ele>308.79998779296875</ele>
        <time>2022-06-04T08:00:23.000Z</time>
      </trkpt>
      <trkpt lat="43.4619967080652713775634765625" lon="-5.65046112053096294403076171875">
        <ele>309.20001220703125</ele>
        <time>2022-06-04T08:00:24.000Z</time>
      </trkpt>
      <trkpt lat="43.4619873203337192535400390625" lon="-5.6504402495920658111572265625">
        <ele>309.600006103515625</ele>
        <time>2022-06-04T08:00:25.000Z</time>
      </trkpt>
      <trkpt lat="43.46197667531669139862060546875" lon="-5.6503996811807155609130859375">
        <ele>310.20001220703125</ele>
        <time>2022-06-04T08:00:27.000Z</time>
      </trkpt>
      <trkpt lat="43.4619610011577606201171875" lon="-5.65035483799874782562255859375">
        <ele>310.79998779296875</ele>
        <time>2022-06-04T08:00:29.000Z</time>
      </trkpt>
      <trkpt lat="43.4619527868926525115966796875" lon="-5.6503359787166118621826171875">
        <ele>311</ele>
        <time>2022-06-04T08:00:30.000Z</time>
      </trkpt>
      <trkpt lat="43.46194415353238582611083984375" lon="-5.65031527541577816009521484375">
        <ele>311.20001220703125</ele>
        <time>2022-06-04T08:00:31.000Z</time>
      </trkpt>
      <trkpt lat="43.46193543635308742523193359375" lon="-5.65029121935367584228515625">
        <ele>311.600006103515625</ele>
        <time>2022-06-04T08:00:32.000Z</time>
      </trkpt>
      <trkpt lat="43.46192822791635990142822265625" lon="-5.65026850439608097076416015625">
        <ele>311.79998779296875</ele>
        <time>2022-06-04T08:00:33.000Z</time>
      </trkpt>
      <trkpt lat="43.4619108773767948150634765625" lon="-5.65022877417504787445068359375">
        <ele>312.399993896484375</ele>
        <time>2022-06-04T08:00:35.000Z</time>
      </trkpt>
      <trkpt lat="43.4619014896452426910400390625" lon="-5.650211088359355926513671875">
        <ele>312.600006103515625</ele>
        <time>2022-06-04T08:00:36.000Z</time>
      </trkpt>
      <trkpt lat="43.46189268864691257476806640625" lon="-5.650197006762027740478515625">
        <ele>312.79998779296875</ele>
        <time>2022-06-04T08:00:37.000Z</time>
      </trkpt>
      <trkpt lat="43.46187106333673000335693359375" lon="-5.65017026849091053009033203125">
        <ele>313.399993896484375</ele>
        <time>2022-06-04T08:00:39.000Z</time>
      </trkpt>
      <trkpt lat="43.46186201088130474090576171875" lon="-5.650154761970043182373046875">
        <ele>313.600006103515625</ele>
        <time>2022-06-04T08:00:40.000Z</time>
      </trkpt>
      <trkpt lat="43.46185170114040374755859375" lon="-5.6501385010778903961181640625">
        <ele>314</ele>
        <time>2022-06-04T08:00:41.000Z</time>
      </trkpt>
      <trkpt lat="43.4618330933153629302978515625" lon="-5.650106482207775115966796875">
        <ele>314.399993896484375</ele>
        <time>2022-06-04T08:00:43.000Z</time>
      </trkpt>
      <trkpt lat="43.46182026900351047515869140625" lon="-5.6500764749944210052490234375">
        <ele>314.79998779296875</ele>
        <time>2022-06-04T08:00:45.000Z</time>
      </trkpt>
      <trkpt lat="43.461809121072292327880859375" lon="-5.6500452943146228790283203125">
        <ele>315.20001220703125</ele>
        <time>2022-06-04T08:00:47.000Z</time>
      </trkpt>
      <trkpt lat="43.46179964952170848846435546875" lon="-5.6500134430825710296630859375">
        <ele>315.79998779296875</ele>
        <time>2022-06-04T08:00:49.000Z</time>
      </trkpt>
      <trkpt lat="43.461786322295665740966796875" lon="-5.64998142421245574951171875">
        <ele>316.399993896484375</ele>
        <time>2022-06-04T08:00:51.000Z</time>
      </trkpt>
      <trkpt lat="43.4617786109447479248046875" lon="-5.64996591769158840179443359375">
        <ele>316.79998779296875</ele>
        <time>2022-06-04T08:00:52.000Z</time>
      </trkpt>
      <trkpt lat="43.4617714025080204010009765625" lon="-5.64995150081813335418701171875">
        <ele>317.20001220703125</ele>
        <time>2022-06-04T08:00:53.000Z</time>
      </trkpt>
      <trkpt lat="43.46175572834908962249755859375" lon="-5.64992249943315982818603515625">
        <ele>317.600006103515625</ele>
        <time>2022-06-04T08:00:55.000Z</time>
      </trkpt>
      <trkpt lat="43.46174969337880611419677734375" lon="-5.6499098427593708038330078125">
        <ele>318</ele>
        <time>2022-06-04T08:00:56.000Z</time>
      </trkpt>
      <trkpt lat="43.46174399368464946746826171875" lon="-5.6498974375426769256591796875">
        <ele>318.399993896484375</ele>
        <time>2022-06-04T08:00:57.000Z</time>
      </trkpt>
      <trkpt lat="43.46172689460217952728271484375" lon="-5.64986902289092540740966796875">
        <ele>318.79998779296875</ele>
        <time>2022-06-04T08:00:59.000Z</time>
      </trkpt>
      <trkpt lat="43.4617197699844837188720703125" lon="-5.64985494129359722137451171875">
        <ele>319</ele>
        <time>2022-06-04T08:01:00.000Z</time>
      </trkpt>
      <trkpt lat="43.4617137350142002105712890625" lon="-5.6498417817056179046630859375">
        <ele>319.20001220703125</ele>
        <time>2022-06-04T08:01:01.000Z</time>
      </trkpt>
      <trkpt lat="43.46170107834041118621826171875" lon="-5.64981571398675441741943359375">
        <ele>319.600006103515625</ele>
        <time>2022-06-04T08:01:03.000Z</time>
      </trkpt>
      <trkpt lat="43.4616852365434169769287109375" lon="-5.64978738315403461456298828125">
        <ele>320</ele>
        <time>2022-06-04T08:01:05.000Z</time>
      </trkpt>
      <trkpt lat="43.46166989766061305999755859375" lon="-5.64976223744451999664306640625">
        <ele>320.600006103515625</ele>
        <time>2022-06-04T08:01:07.000Z</time>
      </trkpt>
      <trkpt lat="43.46165380440652370452880859375" lon="-5.6497366726398468017578125">
        <ele>321</ele>
        <time>2022-06-04T08:01:09.000Z</time>
      </trkpt>
      <trkpt lat="43.46163486130535602569580078125" lon="-5.6497093476355075836181640625">
        <ele>321.399993896484375</ele>
        <time>2022-06-04T08:01:11.000Z</time>
      </trkpt>
      <trkpt lat="43.461614660918712615966796875" lon="-5.6496885605156421661376953125">
        <ele>321.79998779296875</ele>
        <time>2022-06-04T08:01:13.000Z</time>
      </trkpt>
      <trkpt lat="43.46159680746495723724365234375" lon="-5.6496684439480304718017578125">
        <ele>322.20001220703125</ele>
        <time>2022-06-04T08:01:15.000Z</time>
      </trkpt>
      <trkpt lat="43.4615814685821533203125" lon="-5.64964723773300647735595703125">
        <ele>322.399993896484375</ele>
        <time>2022-06-04T08:01:17.000Z</time>
      </trkpt>
      <trkpt lat="43.4615745954215526580810546875" lon="-5.6496355868875980377197265625">
        <ele>322.600006103515625</ele>
        <time>2022-06-04T08:01:18.000Z</time>
      </trkpt>
      <trkpt lat="43.46156738698482513427734375" lon="-5.64962293021380901336669921875">
        <ele>322.79998779296875</ele>
        <time>2022-06-04T08:01:19.000Z</time>
      </trkpt>
      <trkpt lat="43.46154953353106975555419921875" lon="-5.64959116280078887939453125">
        <ele>323.20001220703125</ele>
        <time>2022-06-04T08:01:21.000Z</time>
      </trkpt>
      <trkpt lat="43.4615264832973480224609375" lon="-5.64956174232065677642822265625">
        <ele>323.600006103515625</ele>
        <time>2022-06-04T08:01:23.000Z</time>
      </trkpt>
      <trkpt lat="43.4615031816065311431884765625" lon="-5.6495316512882709503173828125">
        <ele>323.600006103515625</ele>
        <time>2022-06-04T08:01:25.000Z</time>
      </trkpt>
      <trkpt lat="43.46148448996245861053466796875" lon="-5.64950256608426570892333984375">
        <ele>324.20001220703125</ele>
        <time>2022-06-04T08:01:27.000Z</time>
      </trkpt>
      <trkpt lat="43.46147342585027217864990234375" lon="-5.64949016086757183074951171875">
        <ele>324.399993896484375</ele>
        <time>2022-06-04T08:01:28.000Z</time>
      </trkpt>
      <trkpt lat="43.4614639542996883392333984375" lon="-5.64947691746056079864501953125">
        <ele>324.79998779296875</ele>
        <time>2022-06-04T08:01:29.000Z</time>
      </trkpt>
      <trkpt lat="43.461444675922393798828125" lon="-5.64945629797875881195068359375">
        <ele>325.20001220703125</ele>
        <time>2022-06-04T08:01:31.000Z</time>
      </trkpt>
      <trkpt lat="43.4614253975450992584228515625" lon="-5.6494362652301788330078125">
        <ele>325.399993896484375</ele>
        <time>2022-06-04T08:01:33.000Z</time>
      </trkpt>
      <trkpt lat="43.46139932982623577117919921875" lon="-5.6494176574051380157470703125">
        <ele>325.79998779296875</ele>
        <time>2022-06-04T08:01:35.000Z</time>
      </trkpt>
      <trkpt lat="43.46136488020420074462890625" lon="-5.64939645119011402130126953125">
        <ele>326.20001220703125</ele>
        <time>2022-06-04T08:01:37.000Z</time>
      </trkpt>
      <trkpt lat="43.46132691018283367156982421875" lon="-5.6493851356208324432373046875">
        <ele>326.399993896484375</ele>
        <time>2022-06-04T08:01:39.000Z</time>
      </trkpt>
      <trkpt lat="43.46130788326263427734375" lon="-5.64938329160213470458984375">
        <ele>326.399993896484375</ele>
        <time>2022-06-04T08:01:40.000Z</time>
      </trkpt>
      <trkpt lat="43.46129086799919605255126953125" lon="-5.64938505180180072784423828125">
        <ele>326.600006103515625</ele>
        <time>2022-06-04T08:01:41.000Z</time>
      </trkpt>
      <trkpt lat="43.4612601064145565032958984375" lon="-5.64940215088427066802978515625">
        <ele>326.600006103515625</ele>
        <time>2022-06-04T08:01:43.000Z</time>
      </trkpt>
      <trkpt lat="43.4612287580966949462890625" lon="-5.649419836699962615966796875">
        <ele>326.79998779296875</ele>
        <time>2022-06-04T08:01:45.000Z</time>
      </trkpt>
      <trkpt lat="43.461215011775493621826171875" lon="-5.649431236088275909423828125">
        <ele>326.79998779296875</ele>
        <time>2022-06-04T08:01:46.000Z</time>
      </trkpt>
      <trkpt lat="43.461201600730419158935546875" lon="-5.6494451500475406646728515625">
        <ele>326.79998779296875</ele>
        <time>2022-06-04T08:01:47.000Z</time>
      </trkpt>
      <trkpt lat="43.46117117442190647125244140625" lon="-5.64947180449962615966796875">
        <ele>327</ele>
        <time>2022-06-04T08:01:49.000Z</time>
      </trkpt>
      <trkpt lat="43.46113982610404491424560546875" lon="-5.64949267543852329254150390625">
        <ele>327.20001220703125</ele>
        <time>2022-06-04T08:01:51.000Z</time>
      </trkpt>
      <trkpt lat="43.46111233346164226531982421875" lon="-5.649513043463230133056640625">
        <ele>327.600006103515625</ele>
        <time>2022-06-04T08:01:53.000Z</time>
      </trkpt>
      <trkpt lat="43.4610978327691555023193359375" lon="-5.64952544867992401123046875">
        <ele>327.79998779296875</ele>
        <time>2022-06-04T08:01:54.000Z</time>
      </trkpt>
      <trkpt lat="43.461081571877002716064453125" lon="-5.6495366804301738739013671875">
        <ele>328</ele>
        <time>2022-06-04T08:01:55.000Z</time>
      </trkpt>
      <trkpt lat="43.46105097793042659759521484375" lon="-5.64955872483551502227783203125">
        <ele>328.20001220703125</ele>
        <time>2022-06-04T08:01:57.000Z</time>
      </trkpt>
      <trkpt lat="43.46101711504161357879638671875" lon="-5.64957615919411182403564453125">
        <ele>328.399993896484375</ele>
        <time>2022-06-04T08:01:59.000Z</time>
      </trkpt>
      <trkpt lat="43.46100009977817535400390625" lon="-5.6495852954685688018798828125">
        <ele>328.600006103515625</ele>
        <time>2022-06-04T08:02:00.000Z</time>
      </trkpt>
      <trkpt lat="43.46098392270505428314208984375" lon="-5.64959594048559665679931640625">
        <ele>328.79998779296875</ele>
        <time>2022-06-04T08:02:01.000Z</time>
      </trkpt>
      <trkpt lat="43.46096866764128208160400390625" lon="-5.64960767515003681182861328125">
        <ele>328.79998779296875</ele>
        <time>2022-06-04T08:02:02.000Z</time>
      </trkpt>
      <trkpt lat="43.46095290966331958770751953125" lon="-5.6496181525290012359619140625">
        <ele>329</ele>
        <time>2022-06-04T08:02:03.000Z</time>
      </trkpt>
      <trkpt lat="43.4609251655638217926025390625" lon="-5.649633742868900299072265625">
        <ele>329.399993896484375</ele>
        <time>2022-06-04T08:02:05.000Z</time>
      </trkpt>
      <trkpt lat="43.4609010256826877593994140625" lon="-5.64964673481881618499755859375">
        <ele>329.79998779296875</ele>
        <time>2022-06-04T08:02:07.000Z</time>
      </trkpt>
      <trkpt lat="43.4608876146376132965087890625" lon="-5.6496546976268291473388671875">
        <ele>330.20001220703125</ele>
        <time>2022-06-04T08:02:08.000Z</time>
      </trkpt>
      <trkpt lat="43.46087495796382427215576171875" lon="-5.64966249279677867889404296875">
        <ele>330.399993896484375</ele>
        <time>2022-06-04T08:02:09.000Z</time>
      </trkpt>
      <trkpt lat="43.46084629185497760772705078125" lon="-5.64967959187924861907958984375">
        <ele>330.79998779296875</ele>
        <time>2022-06-04T08:02:11.000Z</time>
      </trkpt>
      <trkpt lat="43.4608317911624908447265625" lon="-5.64968797378242015838623046875">
        <ele>331</ele>
        <time>2022-06-04T08:02:12.000Z</time>
      </trkpt>
      <trkpt lat="43.46081879921257495880126953125" lon="-5.6496959365904331207275390625">
        <ele>331.20001220703125</ele>
        <time>2022-06-04T08:02:13.000Z</time>
      </trkpt>
      <trkpt lat="43.46079717390239238739013671875" lon="-5.6497210822999477386474609375">
        <ele>331.600006103515625</ele>
        <time>2022-06-04T08:02:15.000Z</time>
      </trkpt>
      <trkpt lat="43.4607846848666667938232421875" lon="-5.6497334875166416168212890625">
        <ele>332.20001220703125</ele>
        <time>2022-06-04T08:02:16.000Z</time>
      </trkpt>
      <trkpt lat="43.46077345311641693115234375" lon="-5.64974497072398662567138671875">
        <ele>332.399993896484375</ele>
        <time>2022-06-04T08:02:17.000Z</time>
      </trkpt>
      <trkpt lat="43.46075057052075862884521484375" lon="-5.64977296628057956695556640625">
        <ele>332.600006103515625</ele>
        <time>2022-06-04T08:02:19.000Z</time>
      </trkpt>
      <trkpt lat="43.4607256762683391571044921875" lon="-5.64980448223650455474853515625">
        <ele>333</ele>
        <time>2022-06-04T08:02:21.000Z</time>
      </trkpt>
      <trkpt lat="43.4607146121561527252197265625" lon="-5.64981940202414989471435546875">
        <ele>333.20001220703125</ele>
        <time>2022-06-04T08:02:22.000Z</time>
      </trkpt>
      <trkpt lat="43.4607042185962200164794921875" lon="-5.6498313881456851959228515625">
        <ele>333.399993896484375</ele>
        <time>2022-06-04T08:02:23.000Z</time>
      </trkpt>
      <trkpt lat="43.46068468876183032989501953125" lon="-5.64985795877873897552490234375">
        <ele>333.79998779296875</ele>
        <time>2022-06-04T08:02:25.000Z</time>
      </trkpt>
      <trkpt lat="43.46066406928002834320068359375" lon="-5.64988109283149242401123046875">
        <ele>334.20001220703125</ele>
        <time>2022-06-04T08:02:27.000Z</time>
      </trkpt>
      <trkpt lat="43.46064177341759204864501953125" lon="-5.6499078311026096343994140625">
        <ele>334.79998779296875</ele>
        <time>2022-06-04T08:02:29.000Z</time>
      </trkpt>
      <trkpt lat="43.4606225788593292236328125" lon="-5.6499339826405048370361328125">
        <ele>335.20001220703125</ele>
        <time>2022-06-04T08:02:31.000Z</time>
      </trkpt>
      <trkpt lat="43.46060237847268581390380859375" lon="-5.649962313473224639892578125">
        <ele>335.20001220703125</ele>
        <time>2022-06-04T08:02:33.000Z</time>
      </trkpt>
      <trkpt lat="43.46057924441993236541748046875" lon="-5.64999139867722988128662109375">
        <ele>335.79998779296875</ele>
        <time>2022-06-04T08:02:35.000Z</time>
      </trkpt>
      <trkpt lat="43.460557870566844940185546875" lon="-5.65001939423382282257080078125">
        <ele>336.20001220703125</ele>
        <time>2022-06-04T08:02:37.000Z</time>
      </trkpt>
      <trkpt lat="43.46054655499756336212158203125" lon="-5.650033056735992431640625">
        <ele>336.399993896484375</ele>
        <time>2022-06-04T08:02:38.000Z</time>
      </trkpt>
      <trkpt lat="43.46053565852344036102294921875" lon="-5.65004604868590831756591796875">
        <ele>336.399993896484375</ele>
        <time>2022-06-04T08:02:39.000Z</time>
      </trkpt>
      <trkpt lat="43.4605117700994014739990234375" lon="-5.650072284042835235595703125">
        <ele>336.79998779296875</ele>
        <time>2022-06-04T08:02:41.000Z</time>
      </trkpt>
      <trkpt lat="43.46049106679856777191162109375" lon="-5.6500969268381595611572265625">
        <ele>337.20001220703125</ele>
        <time>2022-06-04T08:02:43.000Z</time>
      </trkpt>
      <trkpt lat="43.46048084087669849395751953125" lon="-5.65011017024517059326171875">
        <ele>337.399993896484375</ele>
        <time>2022-06-04T08:02:44.000Z</time>
      </trkpt>
      <trkpt lat="43.46046902239322662353515625" lon="-5.6501230783760547637939453125">
        <ele>337.600006103515625</ele>
        <time>2022-06-04T08:02:45.000Z</time>
      </trkpt>
      <trkpt lat="43.460440523922443389892578125" lon="-5.65014109946787357330322265625">
        <ele>338</ele>
        <time>2022-06-04T08:02:47.000Z</time>
      </trkpt>
      <trkpt lat="43.46041915006935596466064453125" lon="-5.65016121603548526763916015625">
        <ele>338.399993896484375</ele>
        <time>2022-06-04T08:02:49.000Z</time>
      </trkpt>
      <trkpt lat="43.4604088403284549713134765625" lon="-5.65016976557672023773193359375">
        <ele>338.600006103515625</ele>
        <time>2022-06-04T08:02:50.000Z</time>
      </trkpt>
      <trkpt lat="43.4603972733020782470703125" lon="-5.65017722547054290771484375">
        <ele>338.79998779296875</ele>
        <time>2022-06-04T08:02:51.000Z</time>
      </trkpt>
      <trkpt lat="43.4603857062757015228271484375" lon="-5.65018435008823871612548828125">
        <ele>339</ele>
        <time>2022-06-04T08:02:52.000Z</time>
      </trkpt>
      <trkpt lat="43.46037405543029308319091796875" lon="-5.65019256435334682464599609375">
        <ele>339.20001220703125</ele>
        <time>2022-06-04T08:02:53.000Z</time>
      </trkpt>
      <trkpt lat="43.4603515081107616424560546875" lon="-5.65020279027521610260009765625">
        <ele>339.600006103515625</ele>
        <time>2022-06-04T08:02:55.000Z</time>
      </trkpt>
      <trkpt lat="43.46032879315316677093505859375" lon="-5.65021486021578311920166015625">
        <ele>340</ele>
        <time>2022-06-04T08:02:57.000Z</time>
      </trkpt>
      <trkpt lat="43.46031018532812595367431640625" lon="-5.6502296961843967437744140625">
        <ele>340.600006103515625</ele>
        <time>2022-06-04T08:02:59.000Z</time>
      </trkpt>
      <trkpt lat="43.46030398271977901458740234375" lon="-5.6502380780875682830810546875">
        <ele>340.79998779296875</ele>
        <time>2022-06-04T08:03:00.000Z</time>
      </trkpt>
      <trkpt lat="43.460297025740146636962890625" lon="-5.65024788491427898406982421875">
        <ele>340.79998779296875</ele>
        <time>2022-06-04T08:03:01.000Z</time>
      </trkpt>
      <trkpt lat="43.460282944142818450927734375" lon="-5.65026313997805118560791015625">
        <ele>341.399993896484375</ele>
        <time>2022-06-04T08:03:03.000Z</time>
      </trkpt>
      <trkpt lat="43.460268191993236541748046875" lon="-5.6502766348421573638916015625">
        <ele>341.79998779296875</ele>
        <time>2022-06-04T08:03:05.000Z</time>
      </trkpt>
      <trkpt lat="43.4602448903024196624755859375" lon="-5.6503031216561794281005859375">
        <ele>342</ele>
        <time>2022-06-04T08:03:07.000Z</time>
      </trkpt>
      <trkpt lat="43.4602309763431549072265625" lon="-5.65031535923480987548828125">
        <ele>342.20001220703125</ele>
        <time>2022-06-04T08:03:08.000Z</time>
      </trkpt>
      <trkpt lat="43.46022116951644420623779296875" lon="-5.6503269262611865997314453125">
        <ele>342.600006103515625</ele>
        <time>2022-06-04T08:03:09.000Z</time>
      </trkpt>
      <trkpt lat="43.46021094359457492828369140625" lon="-5.6503386609256267547607421875">
        <ele>342.79998779296875</ele>
        <time>2022-06-04T08:03:10.000Z</time>
      </trkpt>
      <trkpt lat="43.46020122058689594268798828125" lon="-5.65035081468522548675537109375">
        <ele>343</ele>
        <time>2022-06-04T08:03:11.000Z</time>
      </trkpt>
      <trkpt lat="43.4601848758757114410400390625" lon="-5.65037160180509090423583984375">
        <ele>343.600006103515625</ele>
        <time>2022-06-04T08:03:13.000Z</time>
      </trkpt>
      <trkpt lat="43.4601758234202861785888671875" lon="-5.6503792293369770050048828125">
        <ele>343.79998779296875</ele>
        <time>2022-06-04T08:03:14.000Z</time>
      </trkpt>
      <trkpt lat="43.46016601659357547760009765625" lon="-5.650390125811100006103515625">
        <ele>344</ele>
        <time>2022-06-04T08:03:15.000Z</time>
      </trkpt>
      <trkpt lat="43.46014506183564662933349609375" lon="-5.6504147686064243316650390625">
        <ele>344.600006103515625</ele>
        <time>2022-06-04T08:03:17.000Z</time>
      </trkpt>
      <trkpt lat="43.46012913621962070465087890625" lon="-5.650435388088226318359375">
        <ele>345</ele>
        <time>2022-06-04T08:03:19.000Z</time>
      </trkpt>
      <trkpt lat="43.46012226305902004241943359375" lon="-5.65044670365750789642333984375">
        <ele>345.20001220703125</ele>
        <time>2022-06-04T08:03:20.000Z</time>
      </trkpt>
      <trkpt lat="43.46011362969875335693359375" lon="-5.650457181036472320556640625">
        <ele>345.399993896484375</ele>
        <time>2022-06-04T08:03:21.000Z</time>
      </trkpt>
      <trkpt lat="43.46009896136820316314697265625" lon="-5.65047226846218109130859375">
        <ele>345.600006103515625</ele>
        <time>2022-06-04T08:03:23.000Z</time>
      </trkpt>
      <trkpt lat="43.4600832872092723846435546875" lon="-5.6504875235259532928466796875">
        <ele>345.79998779296875</ele>
        <time>2022-06-04T08:03:24.000Z</time>
      </trkpt>
      <trkpt lat="43.46006895415484905242919921875" lon="-5.65049716271460056304931640625">
        <ele>346</ele>
        <time>2022-06-04T08:03:25.000Z</time>
      </trkpt>
      <trkpt lat="43.46004121005535125732421875" lon="-5.65052364952862262725830078125">
        <ele>346.20001220703125</ele>
        <time>2022-06-04T08:03:27.000Z</time>
      </trkpt>
      <trkpt lat="43.4600215964019298553466796875" lon="-5.6505535729229450225830078125">
        <ele>346.600006103515625</ele>
        <time>2022-06-04T08:03:29.000Z</time>
      </trkpt>
      <trkpt lat="43.4600105322897434234619140625" lon="-5.6505626253783702850341796875">
        <ele>347</ele>
        <time>2022-06-04T08:03:30.000Z</time>
      </trkpt>
      <trkpt lat="43.46000156365334987640380859375" lon="-5.65057544969022274017333984375">
        <ele>347.20001220703125</ele>
        <time>2022-06-04T08:03:31.000Z</time>
      </trkpt>
      <trkpt lat="43.45998329110443592071533203125" lon="-5.65058986656367778778076171875">
        <ele>347.600006103515625</ele>
        <time>2022-06-04T08:03:33.000Z</time>
      </trkpt>
      <trkpt lat="43.45996552146971225738525390625" lon="-5.650601685047149658203125">
        <ele>348.20001220703125</ele>
        <time>2022-06-04T08:03:35.000Z</time>
      </trkpt>
      <trkpt lat="43.459946997463703155517578125" lon="-5.6506169401109218597412109375">
        <ele>348.79998779296875</ele>
        <time>2022-06-04T08:03:37.000Z</time>
      </trkpt>
      <trkpt lat="43.4599230252206325531005859375" lon="-5.6506311893463134765625">
        <ele>349</ele>
        <time>2022-06-04T08:03:39.000Z</time>
      </trkpt>
      <trkpt lat="43.459910117089748382568359375" lon="-5.65063990652561187744140625">
        <ele>349.399993896484375</ele>
        <time>2022-06-04T08:03:40.000Z</time>
      </trkpt>
      <trkpt lat="43.459898047149181365966796875" lon="-5.6506508029997348785400390625">
        <ele>349.600006103515625</ele>
        <time>2022-06-04T08:03:41.000Z</time>
      </trkpt>
      <trkpt lat="43.45986996777355670928955078125" lon="-5.65067318268120288848876953125">
        <ele>350</ele>
        <time>2022-06-04T08:03:43.000Z</time>
      </trkpt>
      <trkpt lat="43.45984213985502719879150390625" lon="-5.65069715492427349090576171875">
        <ele>350.399993896484375</ele>
        <time>2022-06-04T08:03:45.000Z</time>
      </trkpt>
      <trkpt lat="43.45982797443866729736328125" lon="-5.65070738084614276885986328125">
        <ele>350.79998779296875</ele>
        <time>2022-06-04T08:03:46.000Z</time>
      </trkpt>
      <trkpt lat="43.45981431193649768829345703125" lon="-5.650716684758663177490234375">
        <ele>350.79998779296875</ele>
        <time>2022-06-04T08:03:47.000Z</time>
      </trkpt>
      <trkpt lat="43.45978229306638240814208984375" lon="-5.6507376395165920257568359375">
        <ele>351</ele>
        <time>2022-06-04T08:03:49.000Z</time>
      </trkpt>
      <trkpt lat="43.4597483463585376739501953125" lon="-5.65075532533228397369384765625">
        <ele>351.399993896484375</ele>
        <time>2022-06-04T08:03:51.000Z</time>
      </trkpt>
      <trkpt lat="43.4597315825521945953369140625" lon="-5.65076421014964580535888671875">
        <ele>351.600006103515625</ele>
        <time>2022-06-04T08:03:52.000Z</time>
      </trkpt>
      <trkpt lat="43.45971356146037578582763671875" lon="-5.65077074803411960601806640625">
        <ele>352</ele>
        <time>2022-06-04T08:03:53.000Z</time>
      </trkpt>
      <trkpt lat="43.459680117666721343994140625" lon="-5.65077795647084712982177734375">
        <ele>352.399993896484375</ele>
        <time>2022-06-04T08:03:55.000Z</time>
      </trkpt>
      <trkpt lat="43.45963963307440280914306640625" lon="-5.65077845938503742218017578125">
        <ele>352.79998779296875</ele>
        <time>2022-06-04T08:03:57.000Z</time>
      </trkpt>
      <trkpt lat="43.4595954604446887969970703125" lon="-5.65077896229922771453857421875">
        <ele>353.20001220703125</ele>
        <time>2022-06-04T08:03:59.000Z</time>
      </trkpt>
      <trkpt lat="43.45955841243267059326171875" lon="-5.6507872603833675384521484375">
        <ele>353.600006103515625</ele>
        <time>2022-06-04T08:04:01.000Z</time>
      </trkpt>
      <trkpt lat="43.45954055897891521453857421875" lon="-5.65079119987785816192626953125">
        <ele>353.79998779296875</ele>
        <time>2022-06-04T08:04:02.000Z</time>
      </trkpt>
      <trkpt lat="43.45952379517257213592529296875" lon="-5.6507961452007293701171875">
        <ele>354</ele>
        <time>2022-06-04T08:04:03.000Z</time>
      </trkpt>
      <trkpt lat="43.4594908542931079864501953125" lon="-5.650813579559326171875">
        <ele>354.399993896484375</ele>
        <time>2022-06-04T08:04:05.000Z</time>
      </trkpt>
      <trkpt lat="43.45947484485805034637451171875" lon="-5.65082221291959285736083984375">
        <ele>354.600006103515625</ele>
        <time>2022-06-04T08:04:06.000Z</time>
      </trkpt>
      <trkpt lat="43.45945724286139011383056640625" lon="-5.6508301757276058197021484375">
        <ele>355</ele>
        <time>2022-06-04T08:04:07.000Z</time>
      </trkpt>
      <trkpt lat="43.45942136831581592559814453125" lon="-5.6508479453623294830322265625">
        <ele>355.600006103515625</ele>
        <time>2022-06-04T08:04:09.000Z</time>
      </trkpt>
      <trkpt lat="43.45938809216022491455078125" lon="-5.65086898393929004669189453125">
        <ele>356</ele>
        <time>2022-06-04T08:04:11.000Z</time>
      </trkpt>
      <trkpt lat="43.45934894867241382598876953125" lon="-5.65089295618236064910888671875">
        <ele>356.399993896484375</ele>
        <time>2022-06-04T08:04:13.000Z</time>
      </trkpt>
      <trkpt lat="43.45930770970880985260009765625" lon="-5.65092279575765132904052734375">
        <ele>356.79998779296875</ele>
        <time>2022-06-04T08:04:15.000Z</time>
      </trkpt>
      <trkpt lat="43.45928826369345188140869140625" lon="-5.65094307996332645416259765625">
        <ele>357</ele>
        <time>2022-06-04T08:04:16.000Z</time>
      </trkpt>
      <trkpt lat="43.45926814712584018707275390625" lon="-5.6509666331112384796142578125">
        <ele>357</ele>
        <time>2022-06-04T08:04:17.000Z</time>
      </trkpt>
      <trkpt lat="43.4592293389141559600830078125" lon="-5.65101206302642822265625">
        <ele>357.399993896484375</ele>
        <time>2022-06-04T08:04:19.000Z</time>
      </trkpt>
      <trkpt lat="43.45918432809412479400634765625" lon="-5.6510591693222522735595703125">
        <ele>357.600006103515625</ele>
        <time>2022-06-04T08:04:21.000Z</time>
      </trkpt>
      <trkpt lat="43.45915800891816616058349609375" lon="-5.65108339302241802215576171875">
        <ele>357.600006103515625</ele>
        <time>2022-06-04T08:04:22.000Z</time>
      </trkpt>
      <trkpt lat="43.45912951044738292694091796875" lon="-5.65110920928418636322021484375">
        <ele>357.79998779296875</ele>
        <time>2022-06-04T08:04:23.000Z</time>
      </trkpt>
      <trkpt lat="43.4590717591345310211181640625" lon="-5.65115028060972690582275390625">
        <ele>357.79998779296875</ele>
        <time>2022-06-04T08:04:25.000Z</time>
      </trkpt>
      <trkpt lat="43.45901333726942539215087890625" lon="-5.6511758454144001007080078125">
        <ele>357.79998779296875</ele>
        <time>2022-06-04T08:04:27.000Z</time>
      </trkpt>
      <trkpt lat="43.45898249186575412750244140625" lon="-5.65118297003209590911865234375">
        <ele>357.79998779296875</ele>
        <time>2022-06-04T08:04:28.000Z</time>
      </trkpt>
      <trkpt lat="43.45895466394722461700439453125" lon="-5.6511919386684894561767578125">
        <ele>357.79998779296875</ele>
        <time>2022-06-04T08:04:29.000Z</time>
      </trkpt>
      <trkpt lat="43.4589031152427196502685546875" lon="-5.6512056849896907806396484375">
        <ele>357.79998779296875</ele>
        <time>2022-06-04T08:04:31.000Z</time>
      </trkpt>
      <trkpt lat="43.45885433256626129150390625" lon="-5.65121649764478206634521484375">
        <ele>357.79998779296875</ele>
        <time>2022-06-04T08:04:33.000Z</time>
      </trkpt>
      <trkpt lat="43.45883228816092014312744140625" lon="-5.6512237899005413055419921875">
        <ele>357.79998779296875</ele>
        <time>2022-06-04T08:04:34.000Z</time>
      </trkpt>
      <trkpt lat="43.458809070289134979248046875" lon="-5.6512268073856830596923828125">
        <ele>358</ele>
        <time>2022-06-04T08:04:35.000Z</time>
      </trkpt>
      <trkpt lat="43.458783924579620361328125" lon="-5.65122856758534908294677734375">
        <ele>358.399993896484375</ele>
        <time>2022-06-04T08:04:36.000Z</time>
      </trkpt>
      <trkpt lat="43.45875953324139118194580078125" lon="-5.6512284837663173675537109375">
        <ele>358.600006103515625</ele>
        <time>2022-06-04T08:04:37.000Z</time>
      </trkpt>
      <trkpt lat="43.4587099961936473846435546875" lon="-5.651228986680507659912109375">
        <ele>359</ele>
        <time>2022-06-04T08:04:39.000Z</time>
      </trkpt>
      <trkpt lat="43.4586851857602596282958984375" lon="-5.65122957341372966766357421875">
        <ele>359.399993896484375</ele>
        <time>2022-06-04T08:04:40.000Z</time>
      </trkpt>
      <trkpt lat="43.45866012386977672576904296875" lon="-5.6512264721095561981201171875">
        <ele>360</ele>
        <time>2022-06-04T08:04:41.000Z</time>
      </trkpt>
      <trkpt lat="43.45860932953655719757080078125" lon="-5.65122152678668498992919921875">
        <ele>360.600006103515625</ele>
        <time>2022-06-04T08:04:43.000Z</time>
      </trkpt>
      <trkpt lat="43.45855250023305416107177734375" lon="-5.65123535692691802978515625">
        <ele>361</ele>
        <time>2022-06-04T08:04:45.000Z</time>
      </trkpt>
      <trkpt lat="43.458492569625377655029296875" lon="-5.65124130807816982269287109375">
        <ele>361.20001220703125</ele>
        <time>2022-06-04T08:04:47.000Z</time>
      </trkpt>
      <trkpt lat="43.4584186412394046783447265625" lon="-5.65123401582241058349609375">
        <ele>361.20001220703125</ele>
        <time>2022-06-04T08:04:49.000Z</time>
      </trkpt>
      <trkpt lat="43.45833322964608669281005859375" lon="-5.65120811574161052703857421875">
        <ele>361.20001220703125</ele>
        <time>2022-06-04T08:04:51.000Z</time>
      </trkpt>
      <trkpt lat="43.45828545279800891876220703125" lon="-5.6511919386684894561767578125">
        <ele>361.20001220703125</ele>
        <time>2022-06-04T08:04:52.000Z</time>
      </trkpt>
      <trkpt lat="43.45823599956929683685302734375" lon="-5.651159584522247314453125">
        <ele>361.20001220703125</ele>
        <time>2022-06-04T08:04:53.000Z</time>
      </trkpt>
      <trkpt lat="43.45813424326479434967041015625" lon="-5.65107174217700958251953125">
        <ele>361.20001220703125</ele>
        <time>2022-06-04T08:04:55.000Z</time>
      </trkpt>
      <trkpt lat="43.458083532750606536865234375" lon="-5.65102689899504184722900390625">
        <ele>361.20001220703125</ele>
        <time>2022-06-04T08:04:56.000Z</time>
      </trkpt>
      <trkpt lat="43.4580394439399242401123046875" lon="-5.6509844027459621429443359375">
        <ele>361.20001220703125</ele>
        <time>2022-06-04T08:04:57.000Z</time>
      </trkpt>
      <trkpt lat="43.4579680301249027252197265625" lon="-5.650919862091541290283203125">
        <ele>360.79998779296875</ele>
        <time>2022-06-04T08:04:59.000Z</time>
      </trkpt>
      <trkpt lat="43.457942716777324676513671875" lon="-5.65089027397334575653076171875">
        <ele>360.600006103515625</ele>
        <time>2022-06-04T08:05:00.000Z</time>
      </trkpt>
      <trkpt lat="43.4579210914671421051025390625" lon="-5.6508700735867023468017578125">
        <ele>360.600006103515625</ele>
        <time>2022-06-04T08:05:01.000Z</time>
      </trkpt>
      <trkpt lat="43.45789611339569091796875" lon="-5.650843083858489990234375">
        <ele>360.600006103515625</ele>
        <time>2022-06-04T08:05:03.000Z</time>
      </trkpt>
      <trkpt lat="43.457877673208713531494140625" lon="-5.65083797089755535125732421875">
        <ele>360.600006103515625</ele>
        <time>2022-06-04T08:05:04.000Z</time>
      </trkpt>
      <trkpt lat="43.4578620828688144683837890625" lon="-5.65083034336566925048828125">
        <ele>360.600006103515625</ele>
        <time>2022-06-04T08:05:05.000Z</time>
      </trkpt>
      <trkpt lat="43.4578265435993671417236328125" lon="-5.6508144177496433258056640625">
        <ele>360.600006103515625</ele>
        <time>2022-06-04T08:05:07.000Z</time>
      </trkpt>
      <trkpt lat="43.45779527910053730010986328125" lon="-5.65079052932560443878173828125">
        <ele>360.600006103515625</ele>
        <time>2022-06-04T08:05:09.000Z</time>
      </trkpt>
      <trkpt lat="43.457760997116565704345703125" lon="-5.65076035447418689727783203125">
        <ele>361.20001220703125</ele>
        <time>2022-06-04T08:05:11.000Z</time>
      </trkpt>
      <trkpt lat="43.457738198339939117431640625" lon="-5.65074409358203411102294921875">
        <ele>361.600006103515625</ele>
        <time>2022-06-04T08:05:12.000Z</time>
      </trkpt>
      <trkpt lat="43.45772168599069118499755859375" lon="-5.65073252655565738677978515625">
        <ele>361.79998779296875</ele>
        <time>2022-06-04T08:05:13.000Z</time>
      </trkpt>
      <trkpt lat="43.45768681727349758148193359375" lon="-5.6507155112922191619873046875">
        <ele>362.399993896484375</ele>
        <time>2022-06-04T08:05:15.000Z</time>
      </trkpt>
      <trkpt lat="43.45766737125813961029052734375" lon="-5.650707967579364776611328125">
        <ele>362.79998779296875</ele>
        <time>2022-06-04T08:05:16.000Z</time>
      </trkpt>
      <trkpt lat="43.45765463076531887054443359375" lon="-5.6507007591426372528076171875">
        <ele>363</ele>
        <time>2022-06-04T08:05:17.000Z</time>
      </trkpt>
      <trkpt lat="43.457628898322582244873046875" lon="-5.6506863422691822052001953125">
        <ele>363.79998779296875</ele>
        <time>2022-06-04T08:05:19.000Z</time>
      </trkpt>
      <trkpt lat="43.45761707983911037445068359375" lon="-5.65068122930824756622314453125">
        <ele>364</ele>
        <time>2022-06-04T08:05:20.000Z</time>
      </trkpt>
      <trkpt lat="43.4575982205569744110107421875" lon="-5.650674439966678619384765625">
        <ele>364.399993896484375</ele>
        <time>2022-06-04T08:05:21.000Z</time>
      </trkpt>
      <trkpt lat="43.457554467022418975830078125" lon="-5.6506682373583316802978515625">
        <ele>365</ele>
        <time>2022-06-04T08:05:23.000Z</time>
      </trkpt>
      <trkpt lat="43.4575308300554752349853515625" lon="-5.6506682373583316802978515625">
        <ele>365.399993896484375</ele>
        <time>2022-06-04T08:05:24.000Z</time>
      </trkpt>
      <trkpt lat="43.45751029439270496368408203125" lon="-5.65066781826317310333251953125">
        <ele>365.600006103515625</ele>
        <time>2022-06-04T08:05:25.000Z</time>
      </trkpt>
      <trkpt lat="43.457465283572673797607421875" lon="-5.6506618671119213104248046875">
        <ele>366</ele>
        <time>2022-06-04T08:05:27.000Z</time>
      </trkpt>
      <trkpt lat="43.4574188478291034698486328125" lon="-5.6506481207907199859619140625">
        <ele>366.600006103515625</ele>
        <time>2022-06-04T08:05:29.000Z</time>
      </trkpt>
      <trkpt lat="43.4573755972087383270263671875" lon="-5.6506350450217723846435546875">
        <ele>367.20001220703125</ele>
        <time>2022-06-04T08:05:31.000Z</time>
      </trkpt>
      <trkpt lat="43.4573212824761867523193359375" lon="-5.65063043497502803802490234375">
        <ele>368</ele>
        <time>2022-06-04T08:05:33.000Z</time>
      </trkpt>
      <trkpt lat="43.45725707709789276123046875" lon="-5.6506347097456455230712890625">
        <ele>368.399993896484375</ele>
        <time>2022-06-04T08:05:35.000Z</time>
      </trkpt>
      <trkpt lat="43.4572242200374603271484375" lon="-5.650637559592723846435546875">
        <ele>368.600006103515625</ele>
        <time>2022-06-04T08:05:36.000Z</time>
      </trkpt>
      <trkpt lat="43.45718926750123500823974609375" lon="-5.650644935667514801025390625">
        <ele>368.79998779296875</ele>
        <time>2022-06-04T08:05:37.000Z</time>
      </trkpt>
      <trkpt lat="43.45711894333362579345703125" lon="-5.65066714771091938018798828125">
        <ele>369</ele>
        <time>2022-06-04T08:05:39.000Z</time>
      </trkpt>
      <trkpt lat="43.457046858966350555419921875" lon="-5.650683827698230743408203125">
        <ele>369</ele>
        <time>2022-06-04T08:05:41.000Z</time>
      </trkpt>
      <trkpt lat="43.45701165497303009033203125" lon="-5.6506876833736896514892578125">
        <ele>369</ele>
        <time>2022-06-04T08:05:42.000Z</time>
      </trkpt>
      <trkpt lat="43.45697787590324878692626953125" lon="-5.650693885982036590576171875">
        <ele>369</ele>
        <time>2022-06-04T08:05:43.000Z</time>
      </trkpt>
      <trkpt lat="43.456912077963352203369140625" lon="-5.6507118232548236846923828125">
        <ele>369.20001220703125</ele>
        <time>2022-06-04T08:05:45.000Z</time>
      </trkpt>
      <trkpt lat="43.4568379819393157958984375" lon="-5.6507279165089130401611328125">
        <ele>369.20001220703125</ele>
        <time>2022-06-04T08:05:47.000Z</time>
      </trkpt>
      <trkpt lat="43.4567717649042606353759765625" lon="-5.65073470585048198699951171875">
        <ele>369.20001220703125</ele>
        <time>2022-06-04T08:05:49.000Z</time>
      </trkpt>
      <trkpt lat="43.4567040391266345977783203125" lon="-5.65074987709522247314453125">
        <ele>369.20001220703125</ele>
        <time>2022-06-04T08:05:51.000Z</time>
      </trkpt>
      <trkpt lat="43.45667076297104358673095703125" lon="-5.65075951628386974334716796875">
        <ele>369.20001220703125</ele>
        <time>2022-06-04T08:05:52.000Z</time>
      </trkpt>
      <trkpt lat="43.4566446952521800994873046875" lon="-5.65077192150056362152099609375">
        <ele>369.20001220703125</ele>
        <time>2022-06-04T08:05:53.000Z</time>
      </trkpt>
      <trkpt lat="43.45660035498440265655517578125" lon="-5.650808550417423248291015625">
        <ele>369.20001220703125</ele>
        <time>2022-06-04T08:05:55.000Z</time>
      </trkpt>
      <trkpt lat="43.45656967721879482269287109375" lon="-5.65082606859505176544189453125">
        <ele>369.20001220703125</ele>
        <time>2022-06-04T08:05:57.000Z</time>
      </trkpt>
      <trkpt lat="43.456541933119297027587890625" lon="-5.6508569978177547454833984375">
        <ele>369.20001220703125</ele>
        <time>2022-06-04T08:05:59.000Z</time>
      </trkpt>
      <trkpt lat="43.45651301555335521697998046875" lon="-5.65087803639471530914306640625">
        <ele>369.600006103515625</ele>
        <time>2022-06-04T08:06:01.000Z</time>
      </trkpt>
      <trkpt lat="43.45649608410894870758056640625" lon="-5.65088105387985706329345703125">
        <ele>369.79998779296875</ele>
        <time>2022-06-04T08:06:02.000Z</time>
      </trkpt>
      <trkpt lat="43.456471860408782958984375" lon="-5.6508761085569858551025390625">
        <ele>370</ele>
        <time>2022-06-04T08:06:03.000Z</time>
      </trkpt>
      <trkpt lat="43.45642626285552978515625" lon="-5.65086043439805507659912109375">
        <ele>370.399993896484375</ele>
        <time>2022-06-04T08:06:05.000Z</time>
      </trkpt>
      <trkpt lat="43.4564066492021083831787109375" lon="-5.65085045993328094482421875">
        <ele>370.600006103515625</ele>
        <time>2022-06-04T08:06:06.000Z</time>
      </trkpt>
      <trkpt lat="43.4563872031867504119873046875" lon="-5.65083864144980907440185546875">
        <ele>371</ele>
        <time>2022-06-04T08:06:07.000Z</time>
      </trkpt>
      <trkpt lat="43.4563498198986053466796875" lon="-5.6508231349289417266845703125">
        <ele>371.399993896484375</ele>
        <time>2022-06-04T08:06:09.000Z</time>
      </trkpt>
      <trkpt lat="43.45633079297840595245361328125" lon="-5.65081651322543621063232421875">
        <ele>371.600006103515625</ele>
        <time>2022-06-04T08:06:10.000Z</time>
      </trkpt>
      <trkpt lat="43.456311933696269989013671875" lon="-5.65081156790256500244140625">
        <ele>372</ele>
        <time>2022-06-04T08:06:11.000Z</time>
      </trkpt>
      <trkpt lat="43.4562758915126323699951171875" lon="-5.650807879865169525146484375">
        <ele>372.399993896484375</ele>
        <time>2022-06-04T08:06:13.000Z</time>
      </trkpt>
      <trkpt lat="43.4562467224895954132080078125" lon="-5.65080125816166400909423828125">
        <ele>372.600006103515625</ele>
        <time>2022-06-04T08:06:15.000Z</time>
      </trkpt>
      <trkpt lat="43.45621772110462188720703125" lon="-5.65077292732894420623779296875">
        <ele>372.79998779296875</ele>
        <time>2022-06-04T08:06:17.000Z</time>
      </trkpt>
      <trkpt lat="43.45619098283350467681884765625" lon="-5.65074853599071502685546875">
        <ele>373</ele>
        <time>2022-06-04T08:06:19.000Z</time>
      </trkpt>
      <trkpt lat="43.45617455430328845977783203125" lon="-5.65071106888353824615478515625">
        <ele>373.20001220703125</ele>
        <time>2022-06-04T08:06:21.000Z</time>
      </trkpt>
      <trkpt lat="43.4561642445623874664306640625" lon="-5.65068860538303852081298828125">
        <ele>373.20001220703125</ele>
        <time>2022-06-04T08:06:22.000Z</time>
      </trkpt>
      <trkpt lat="43.456153012812137603759765625" lon="-5.65067569725215435028076171875">
        <ele>373.399993896484375</ele>
        <time>2022-06-04T08:06:23.000Z</time>
      </trkpt>
      <trkpt lat="43.456130214035511016845703125" lon="-5.65065373666584491729736328125">
        <ele>373.600006103515625</ele>
        <time>2022-06-04T08:06:25.000Z</time>
      </trkpt>
      <trkpt lat="43.45611755736172199249267578125" lon="-5.65062926150858402252197265625">
        <ele>373.79998779296875</ele>
        <time>2022-06-04T08:06:26.000Z</time>
      </trkpt>
      <trkpt lat="43.456107079982757568359375" lon="-5.65060847438871860504150390625">
        <ele>374</ele>
        <time>2022-06-04T08:06:27.000Z</time>
      </trkpt>
      <trkpt lat="43.4560901485383510589599609375" lon="-5.650575868785381317138671875">
        <ele>374.399993896484375</ele>
        <time>2022-06-04T08:06:29.000Z</time>
      </trkpt>
      <trkpt lat="43.4560760669410228729248046875" lon="-5.6505518965423107147216796875">
        <ele>375</ele>
        <time>2022-06-04T08:06:31.000Z</time>
      </trkpt>
      <trkpt lat="43.45606341026723384857177734375" lon="-5.65052465535700321197509765625">
        <ele>375.600006103515625</ele>
        <time>2022-06-04T08:06:33.000Z</time>
      </trkpt>
      <trkpt lat="43.4560472331941127777099609375" lon="-5.6504912115633487701416015625">
        <ele>376.20001220703125</ele>
        <time>2022-06-04T08:06:35.000Z</time>
      </trkpt>
      <trkpt lat="43.45602854155004024505615234375" lon="-5.65045257098972797393798828125">
        <ele>376.79998779296875</ele>
        <time>2022-06-04T08:06:37.000Z</time>
      </trkpt>
      <trkpt lat="43.45601445995271205902099609375" lon="-5.65042424015700817108154296875">
        <ele>377.399993896484375</ele>
        <time>2022-06-04T08:06:39.000Z</time>
      </trkpt>
      <trkpt lat="43.456003479659557342529296875" lon="-5.65039850771427154541015625">
        <ele>378</ele>
        <time>2022-06-04T08:06:41.000Z</time>
      </trkpt>
      <trkpt lat="43.45599618740379810333251953125" lon="-5.650382749736309051513671875">
        <ele>378.20001220703125</ele>
        <time>2022-06-04T08:06:42.000Z</time>
      </trkpt>
      <trkpt lat="43.45598948188126087188720703125" lon="-5.65036942251026630401611328125">
        <ele>378.399993896484375</ele>
        <time>2022-06-04T08:06:43.000Z</time>
      </trkpt>
      <trkpt lat="43.45595997758209705352783203125" lon="-5.6503406725823879241943359375">
        <ele>379.20001220703125</ele>
        <time>2022-06-04T08:06:45.000Z</time>
      </trkpt>
      <trkpt lat="43.45591731369495391845703125" lon="-5.65031158737838268280029296875">
        <ele>379.600006103515625</ele>
        <time>2022-06-04T08:06:47.000Z</time>
      </trkpt>
      <trkpt lat="43.4558863006532192230224609375" lon="-5.65028007142245769500732421875">
        <ele>380.20001220703125</ele>
        <time>2022-06-04T08:06:49.000Z</time>
      </trkpt>
      <trkpt lat="43.45586844719946384429931640625" lon="-5.65025903284549713134765625">
        <ele>380.600006103515625</ele>
        <time>2022-06-04T08:06:50.000Z</time>
      </trkpt>
      <trkpt lat="43.45585419796407222747802734375" lon="-5.65023086965084075927734375">
        <ele>381</ele>
        <time>2022-06-04T08:06:51.000Z</time>
      </trkpt>
      <trkpt lat="43.4558294713497161865234375" lon="-5.65018401481211185455322265625">
        <ele>381.600006103515625</ele>
        <time>2022-06-04T08:06:53.000Z</time>
      </trkpt>
      <trkpt lat="43.4558155573904514312744140625" lon="-5.650161802768707275390625">
        <ele>381.79998779296875</ele>
        <time>2022-06-04T08:06:54.000Z</time>
      </trkpt>
      <trkpt lat="43.45580440945923328399658203125" lon="-5.6501405127346515655517578125">
        <ele>382</ele>
        <time>2022-06-04T08:06:55.000Z</time>
      </trkpt>
      <trkpt lat="43.455794937908649444580078125" lon="-5.65011746250092983245849609375">
        <ele>382.399993896484375</ele>
        <time>2022-06-04T08:06:56.000Z</time>
      </trkpt>
      <trkpt lat="43.45578362233936786651611328125" lon="-5.65009868703782558441162109375">
        <ele>382.600006103515625</ele>
        <time>2022-06-04T08:06:57.000Z</time>
      </trkpt>
      <trkpt lat="43.45577021129429340362548828125" lon="-5.6500774808228015899658203125">
        <ele>383</ele>
        <time>2022-06-04T08:06:58.000Z</time>
      </trkpt>
      <trkpt lat="43.45576032064855098724365234375" lon="-5.6500573642551898956298828125">
        <ele>383.20001220703125</ele>
        <time>2022-06-04T08:06:59.000Z</time>
      </trkpt>
      <trkpt lat="43.45573936589062213897705078125" lon="-5.6500214897096157073974609375">
        <ele>383.600006103515625</ele>
        <time>2022-06-04T08:07:01.000Z</time>
      </trkpt>
      <trkpt lat="43.455717824399471282958984375" lon="-5.6499802507460117340087890625">
        <ele>384</ele>
        <time>2022-06-04T08:07:03.000Z</time>
      </trkpt>
      <trkpt lat="43.45570650883018970489501953125" lon="-5.64996206201612949371337890625">
        <ele>384.20001220703125</ele>
        <time>2022-06-04T08:07:04.000Z</time>
      </trkpt>
      <trkpt lat="43.45569628290832042694091796875" lon="-5.649941526353359222412109375">
        <ele>384.399993896484375</ele>
        <time>2022-06-04T08:07:05.000Z</time>
      </trkpt>
      <trkpt lat="43.4556792676448822021484375" lon="-5.6498997844755649566650390625">
        <ele>384.79998779296875</ele>
        <time>2022-06-04T08:07:07.000Z</time>
      </trkpt>
      <trkpt lat="43.4556633420288562774658203125" lon="-5.64985536038875579833984375">
        <ele>385</ele>
        <time>2022-06-04T08:07:09.000Z</time>
      </trkpt>
      <trkpt lat="43.45564372837543487548828125" lon="-5.64981336705386638641357421875">
        <ele>385.20001220703125</ele>
        <time>2022-06-04T08:07:11.000Z</time>
      </trkpt>
      <trkpt lat="43.45563174225389957427978515625" lon="-5.6497924961149692535400390625">
        <ele>385.399993896484375</ele>
        <time>2022-06-04T08:07:12.000Z</time>
      </trkpt>
      <trkpt lat="43.45562285743653774261474609375" lon="-5.6497715413570404052734375">
        <ele>385.399993896484375</ele>
        <time>2022-06-04T08:07:13.000Z</time>
      </trkpt>
      <trkpt lat="43.45560508780181407928466796875" lon="-5.6497311405837535858154296875">
        <ele>385.79998779296875</ele>
        <time>2022-06-04T08:07:15.000Z</time>
      </trkpt>
      <trkpt lat="43.45559410750865936279296875" lon="-5.64971814863383769989013671875">
        <ele>386</ele>
        <time>2022-06-04T08:07:16.000Z</time>
      </trkpt>
      <trkpt lat="43.45558203756809234619140625" lon="-5.64970708452165126800537109375">
        <ele>386.399993896484375</ele>
        <time>2022-06-04T08:07:17.000Z</time>
      </trkpt>
      <trkpt lat="43.45556887798011302947998046875" lon="-5.64969501458108425140380859375">
        <ele>386.399993896484375</ele>
        <time>2022-06-04T08:07:18.000Z</time>
      </trkpt>
      <trkpt lat="43.45555655658245086669921875" lon="-5.64968504011631011962890625">
        <ele>386.600006103515625</ele>
        <time>2022-06-04T08:07:19.000Z</time>
      </trkpt>
      <trkpt lat="43.4555275551974773406982421875" lon="-5.64966760575771331787109375">
        <ele>387</ele>
        <time>2022-06-04T08:07:21.000Z</time>
      </trkpt>
      <trkpt lat="43.45551489852368831634521484375" lon="-5.64966115169227123260498046875">
        <ele>387.20001220703125</ele>
        <time>2022-06-04T08:07:22.000Z</time>
      </trkpt>
      <trkpt lat="43.4555000625550746917724609375" lon="-5.64965662546455860137939453125">
        <ele>387.399993896484375</ele>
        <time>2022-06-04T08:07:23.000Z</time>
      </trkpt>
      <trkpt lat="43.45546527765691280364990234375" lon="-5.64964924938976764678955078125">
        <ele>387.600006103515625</ele>
        <time>2022-06-04T08:07:25.000Z</time>
      </trkpt>
      <trkpt lat="43.45542755909264087677001953125" lon="-5.6496426276862621307373046875">
        <ele>387.79998779296875</ele>
        <time>2022-06-04T08:07:27.000Z</time>
      </trkpt>
      <trkpt lat="43.4553967975080013275146484375" lon="-5.6496406160295009613037109375">
        <ele>388</ele>
        <time>2022-06-04T08:07:29.000Z</time>
      </trkpt>
      <trkpt lat="43.45538087189197540283203125" lon="-5.64964354969561100006103515625">
        <ele>388.20001220703125</ele>
        <time>2022-06-04T08:07:30.000Z</time>
      </trkpt>
      <trkpt lat="43.45536469481885433197021484375" lon="-5.64964589662849903106689453125">
        <ele>388.20001220703125</ele>
        <time>2022-06-04T08:07:31.000Z</time>
      </trkpt>
      <trkpt lat="43.45533485524356365203857421875" lon="-5.64964673481881618499755859375">
        <ele>388.600006103515625</ele>
        <time>2022-06-04T08:07:33.000Z</time>
      </trkpt>
      <trkpt lat="43.45530183054506778717041015625" lon="-5.64964556135237216949462890625">
        <ele>388.79998779296875</ele>
        <time>2022-06-04T08:07:35.000Z</time>
      </trkpt>
      <trkpt lat="43.45526780001819133758544921875" lon="-5.6496493332087993621826171875">
        <ele>389</ele>
        <time>2022-06-04T08:07:37.000Z</time>
      </trkpt>
      <trkpt lat="43.455239720642566680908203125" lon="-5.64965662546455860137939453125">
        <ele>389</ele>
        <time>2022-06-04T08:07:39.000Z</time>
      </trkpt>
      <trkpt lat="43.4552152454853057861328125" lon="-5.649655200541019439697265625">
        <ele>389.20001220703125</ele>
        <time>2022-06-04T08:07:41.000Z</time>
      </trkpt>
      <trkpt lat="43.45520518720149993896484375" lon="-5.649655871093273162841796875">
        <ele>389.20001220703125</ele>
        <time>2022-06-04T08:07:42.000Z</time>
      </trkpt>
      <trkpt lat="43.45519370399415493011474609375" lon="-5.64965830184519290924072265625">
        <ele>389.399993896484375</ele>
        <time>2022-06-04T08:07:43.000Z</time>
      </trkpt>
      <trkpt lat="43.455181382596492767333984375" lon="-5.6496597267687320709228515625">
        <ele>389.399993896484375</ele>
        <time>2022-06-04T08:07:44.000Z</time>
      </trkpt>
      <trkpt lat="43.45516973175108432769775390625" lon="-5.6496610678732395172119140625">
        <ele>389.600006103515625</ele>
        <time>2022-06-04T08:07:45.000Z</time>
      </trkpt>
      <trkpt lat="43.45514290966093540191650390625" lon="-5.649669952690601348876953125">
        <ele>389.600006103515625</ele>
        <time>2022-06-04T08:07:47.000Z</time>
      </trkpt>
      <trkpt lat="43.4551114775240421295166015625" lon="-5.6496624089777469635009765625">
        <ele>390</ele>
        <time>2022-06-04T08:07:49.000Z</time>
      </trkpt>
      <trkpt lat="43.4550849907100200653076171875" lon="-5.64965427853167057037353515625">
        <ele>390.20001220703125</ele>
        <time>2022-06-04T08:07:51.000Z</time>
      </trkpt>
      <trkpt lat="43.45507333986461162567138671875" lon="-5.64965017139911651611328125">
        <ele>390.399993896484375</ele>
        <time>2022-06-04T08:07:52.000Z</time>
      </trkpt>
      <trkpt lat="43.45506177283823490142822265625" lon="-5.64964505843818187713623046875">
        <ele>390.600006103515625</ele>
        <time>2022-06-04T08:07:53.000Z</time>
      </trkpt>
      <trkpt lat="43.45504165627062320709228515625" lon="-5.64964036457240581512451171875">
        <ele>391</ele>
        <time>2022-06-04T08:07:55.000Z</time>
      </trkpt>
      <trkpt lat="43.45502053387463092803955078125" lon="-5.6496342457830905914306640625">
        <ele>391.399993896484375</ele>
        <time>2022-06-04T08:07:57.000Z</time>
      </trkpt>
      <trkpt lat="43.45499471761286258697509765625" lon="-5.64963399432599544525146484375">
        <ele>391.79998779296875</ele>
        <time>2022-06-04T08:07:59.000Z</time>
      </trkpt>
      <trkpt lat="43.4549693204462528228759765625" lon="-5.64962678588926792144775390625">
        <ele>392.20001220703125</ele>
        <time>2022-06-04T08:08:01.000Z</time>
      </trkpt>
      <trkpt lat="43.4549577534198760986328125" lon="-5.6496191583573818206787109375">
        <ele>392.399993896484375</ele>
        <time>2022-06-04T08:08:02.000Z</time>
      </trkpt>
      <trkpt lat="43.454945348203182220458984375" lon="-5.64961555413901805877685546875">
        <ele>392.600006103515625</ele>
        <time>2022-06-04T08:08:03.000Z</time>
      </trkpt>
      <trkpt lat="43.4549213759601116180419921875" lon="-5.64960717223584651947021484375">
        <ele>393.20001220703125</ele>
        <time>2022-06-04T08:08:05.000Z</time>
      </trkpt>
      <trkpt lat="43.45490955747663974761962890625" lon="-5.649598538875579833984375">
        <ele>393.399993896484375</ele>
        <time>2022-06-04T08:08:06.000Z</time>
      </trkpt>
      <trkpt lat="43.4548979066312313079833984375" lon="-5.64959158189594745635986328125">
        <ele>393.600006103515625</ele>
        <time>2022-06-04T08:08:07.000Z</time>
      </trkpt>
      <trkpt lat="43.45487837679684162139892578125" lon="-5.64957230351865291595458984375">
        <ele>394.20001220703125</ele>
        <time>2022-06-04T08:08:09.000Z</time>
      </trkpt>
      <trkpt lat="43.45486764796078205108642578125" lon="-5.64956291578710079193115234375">
        <ele>394.600006103515625</ele>
        <time>2022-06-04T08:08:10.000Z</time>
      </trkpt>
      <trkpt lat="43.4548563323915004730224609375" lon="-5.64955570735037326812744140625">
        <ele>394.79998779296875</ele>
        <time>2022-06-04T08:08:11.000Z</time>
      </trkpt>
      <trkpt lat="43.45482967793941497802734375" lon="-5.6495427154004573822021484375">
        <ele>395.399993896484375</ele>
        <time>2022-06-04T08:08:13.000Z</time>
      </trkpt>
      <trkpt lat="43.45481635071337223052978515625" lon="-5.6495313160121440887451171875">
        <ele>395.600006103515625</ele>
        <time>2022-06-04T08:08:14.000Z</time>
      </trkpt>
      <trkpt lat="43.45480344258248805999755859375" lon="-5.64952000044286251068115234375">
        <ele>396</ele>
        <time>2022-06-04T08:08:15.000Z</time>
      </trkpt>
      <trkpt lat="43.4547825716435909271240234375" lon="-5.64949787221848964691162109375">
        <ele>396.399993896484375</ele>
        <time>2022-06-04T08:08:17.000Z</time>
      </trkpt>
      <trkpt lat="43.4547718428075313568115234375" lon="-5.64948647283017635345458984375">
        <ele>396.600006103515625</ele>
        <time>2022-06-04T08:08:18.000Z</time>
      </trkpt>
      <trkpt lat="43.45476304180920124053955078125" lon="-5.6494759954512119293212890625">
        <ele>397</ele>
        <time>2022-06-04T08:08:19.000Z</time>
      </trkpt>
      <trkpt lat="43.45474510453641414642333984375" lon="-5.64945437014102935791015625">
        <ele>397.600006103515625</ele>
        <time>2022-06-04T08:08:21.000Z</time>
      </trkpt>
      <trkpt lat="43.45472515560686588287353515625" lon="-5.64943098463118076324462890625">
        <ele>398.20001220703125</ele>
        <time>2022-06-04T08:08:23.000Z</time>
      </trkpt>
      <trkpt lat="43.4547109901905059814453125" lon="-5.64940684475004673004150390625">
        <ele>398.79998779296875</ele>
        <time>2022-06-04T08:08:25.000Z</time>
      </trkpt>
      <trkpt lat="43.45469556748867034912109375" lon="-5.649380274116992950439453125">
        <ele>399.20001220703125</ele>
        <time>2022-06-04T08:08:27.000Z</time>
      </trkpt>
      <trkpt lat="43.4546833299100399017333984375" lon="-5.6493557989597320556640625">
        <ele>399.79998779296875</ele>
        <time>2022-06-04T08:08:29.000Z</time>
      </trkpt>
      <trkpt lat="43.45467335544526576995849609375" lon="-5.6493459083139896392822265625">
        <ele>400</ele>
        <time>2022-06-04T08:08:30.000Z</time>
      </trkpt>
      <trkpt lat="43.454664051532745361328125" lon="-5.64933408983051776885986328125">
        <ele>400.20001220703125</ele>
        <time>2022-06-04T08:08:31.000Z</time>
      </trkpt>
      <trkpt lat="43.45464737154543399810791015625" lon="-5.6493130512535572052001953125">
        <ele>400.600006103515625</ele>
        <time>2022-06-04T08:08:33.000Z</time>
      </trkpt>
      <trkpt lat="43.45463295467197895050048828125" lon="-5.6492952816188335418701171875">
        <ele>401.20001220703125</ele>
        <time>2022-06-04T08:08:35.000Z</time>
      </trkpt>
      <trkpt lat="43.4546184539794921875" lon="-5.64927927218377590179443359375">
        <ele>401.600006103515625</ele>
        <time>2022-06-04T08:08:37.000Z</time>
      </trkpt>
      <trkpt lat="43.45460445620119571685791015625" lon="-5.64926133491098880767822265625">
        <ele>401.79998779296875</ele>
        <time>2022-06-04T08:08:39.000Z</time>
      </trkpt>
      <trkpt lat="43.4545904584228992462158203125" lon="-5.6492402963340282440185546875">
        <ele>402.20001220703125</ele>
        <time>2022-06-04T08:08:41.000Z</time>
      </trkpt>
      <trkpt lat="43.45458266325294971466064453125" lon="-5.64922772347927093505859375">
        <ele>402.399993896484375</ele>
        <time>2022-06-04T08:08:42.000Z</time>
      </trkpt>
      <trkpt lat="43.45457553863525390625" lon="-5.64921422861516475677490234375">
        <ele>402.600006103515625</ele>
        <time>2022-06-04T08:08:43.000Z</time>
      </trkpt>
      <trkpt lat="43.4545666538178920745849609375" lon="-5.64918656833469867706298828125">
        <ele>403</ele>
        <time>2022-06-04T08:08:45.000Z</time>
      </trkpt>
      <trkpt lat="43.45455466769635677337646484375" lon="-5.64915337599813938140869140625">
        <ele>403.20001220703125</ele>
        <time>2022-06-04T08:08:47.000Z</time>
      </trkpt>
      <trkpt lat="43.45454846508800983428955078125" lon="-5.6491169147193431854248046875">
        <ele>403.79998779296875</ele>
        <time>2022-06-04T08:08:49.000Z</time>
      </trkpt>
      <trkpt lat="43.45454527996480464935302734375" lon="-5.649098642170429229736328125">
        <ele>404</ele>
        <time>2022-06-04T08:08:50.000Z</time>
      </trkpt>
      <trkpt lat="43.45454041846096515655517578125" lon="-5.64907844178378582000732421875">
        <ele>404.20001220703125</ele>
        <time>2022-06-04T08:08:51.000Z</time>
      </trkpt>
      <trkpt lat="43.45453522168099880218505859375" lon="-5.6490404717624187469482421875">
        <ele>404.600006103515625</ele>
        <time>2022-06-04T08:08:53.000Z</time>
      </trkpt>
      <trkpt lat="43.454538322985172271728515625" lon="-5.64900333993136882781982421875">
        <ele>405</ele>
        <time>2022-06-04T08:08:55.000Z</time>
      </trkpt>
      <trkpt lat="43.45454008318483829498291015625" lon="-5.648988001048564910888671875">
        <ele>405</ele>
        <time>2022-06-04T08:08:56.000Z</time>
      </trkpt>
      <trkpt lat="43.45453991554677486419677734375" lon="-5.6489720754325389862060546875">
        <ele>405</ele>
        <time>2022-06-04T08:08:57.000Z</time>
      </trkpt>
      <trkpt lat="43.45454075373709201812744140625" lon="-5.64894148148596286773681640625">
        <ele>405.600006103515625</ele>
        <time>2022-06-04T08:08:59.000Z</time>
      </trkpt>
      <trkpt lat="43.454543016850948333740234375" lon="-5.64890988171100616455078125">
        <ele>405.79998779296875</ele>
        <time>2022-06-04T08:09:01.000Z</time>
      </trkpt>
      <trkpt lat="43.45454662106931209564208984375" lon="-5.64887476153671741485595703125">
        <ele>406</ele>
        <time>2022-06-04T08:09:03.000Z</time>
      </trkpt>
      <trkpt lat="43.45454226247966289520263671875" lon="-5.64884291030466556549072265625">
        <ele>406.20001220703125</ele>
        <time>2022-06-04T08:09:05.000Z</time>
      </trkpt>
      <trkpt lat="43.4545337967574596405029296875" lon="-5.64880971796810626983642578125">
        <ele>406.600006103515625</ele>
        <time>2022-06-04T08:09:07.000Z</time>
      </trkpt>
      <trkpt lat="43.45452927052974700927734375" lon="-5.6487786211073398590087890625">
        <ele>407</ele>
        <time>2022-06-04T08:09:09.000Z</time>
      </trkpt>
      <trkpt lat="43.454526253044605255126953125" lon="-5.6487635336816310882568359375">
        <ele>407.20001220703125</ele>
        <time>2022-06-04T08:09:10.000Z</time>
      </trkpt>
      <trkpt lat="43.454522900283336639404296875" lon="-5.64875171519815921783447265625">
        <ele>407.399993896484375</ele>
        <time>2022-06-04T08:09:11.000Z</time>
      </trkpt>
      <trkpt lat="43.454514183104038238525390625" lon="-5.6487286649644374847412109375">
        <ele>407.79998779296875</ele>
        <time>2022-06-04T08:09:13.000Z</time>
      </trkpt>
      <trkpt lat="43.4545106627047061920166015625" lon="-5.6487186066806316375732421875">
        <ele>408.20001220703125</ele>
        <time>2022-06-04T08:09:14.000Z</time>
      </trkpt>
      <trkpt lat="43.45450990833342075347900390625" lon="-5.64870930276811122894287109375">
        <ele>408.399993896484375</ele>
        <time>2022-06-04T08:09:15.000Z</time>
      </trkpt>
      <trkpt lat="43.45450974069535732269287109375" lon="-5.6486840732395648956298828125">
        <ele>408.79998779296875</ele>
        <time>2022-06-04T08:09:17.000Z</time>
      </trkpt>
      <trkpt lat="43.4545056335628032684326171875" lon="-5.64865817315876483917236328125">
        <ele>409.20001220703125</ele>
        <time>2022-06-04T08:09:19.000Z</time>
      </trkpt>
      <trkpt lat="43.45449700020253658294677734375" lon="-5.64863084815442562103271484375">
        <ele>409.399993896484375</ele>
        <time>2022-06-04T08:09:21.000Z</time>
      </trkpt>
      <trkpt lat="43.4544871933758258819580078125" lon="-5.6485999189317226409912109375">
        <ele>409.79998779296875</ele>
        <time>2022-06-04T08:09:23.000Z</time>
      </trkpt>
      <trkpt lat="43.45447788946330547332763671875" lon="-5.64858860336244106292724609375">
        <ele>410</ele>
        <time>2022-06-04T08:09:24.000Z</time>
      </trkpt>
      <trkpt lat="43.45447001047432422637939453125" lon="-5.648572258651256561279296875">
        <ele>410.20001220703125</ele>
        <time>2022-06-04T08:09:25.000Z</time>
      </trkpt>
      <trkpt lat="43.4544647298753261566162109375" lon="-5.64855893142521381378173828125">
        <ele>410.20001220703125</ele>
        <time>2022-06-04T08:09:26.000Z</time>
      </trkpt>
      <trkpt lat="43.45445743761956691741943359375" lon="-5.6485445983707904815673828125">
        <ele>410.399993896484375</ele>
        <time>2022-06-04T08:09:27.000Z</time>
      </trkpt>
      <trkpt lat="43.45444050617516040802001953125" lon="-5.6485171057283878326416015625">
        <ele>410.79998779296875</ele>
        <time>2022-06-04T08:09:29.000Z</time>
      </trkpt>
      <trkpt lat="43.45442642457783222198486328125" lon="-5.64848952926695346832275390625">
        <ele>411.399993896484375</ele>
        <time>2022-06-04T08:09:31.000Z</time>
      </trkpt>
      <trkpt lat="43.4544120915234088897705078125" lon="-5.648459605872631072998046875">
        <ele>411.79998779296875</ele>
        <time>2022-06-04T08:09:33.000Z</time>
      </trkpt>
      <trkpt lat="43.4543990157544612884521484375" lon="-5.6484317779541015625">
        <ele>412.399993896484375</ele>
        <time>2022-06-04T08:09:35.000Z</time>
      </trkpt>
      <trkpt lat="43.45438602380454540252685546875" lon="-5.64841040410101413726806640625">
        <ele>412.79998779296875</ele>
        <time>2022-06-04T08:09:37.000Z</time>
      </trkpt>
      <trkpt lat="43.4543676674365997314453125" lon="-5.64839062280952930450439453125">
        <ele>413.20001220703125</ele>
        <time>2022-06-04T08:09:39.000Z</time>
      </trkpt>
      <trkpt lat="43.45435358583927154541015625" lon="-5.6483705900609493255615234375">
        <ele>413.600006103515625</ele>
        <time>2022-06-04T08:09:41.000Z</time>
      </trkpt>
      <trkpt lat="43.45434109680354595184326171875" lon="-5.64834821037948131561279296875">
        <ele>414</ele>
        <time>2022-06-04T08:09:43.000Z</time>
      </trkpt>
      <trkpt lat="43.4543255902826786041259765625" lon="-5.6483243219554424285888671875">
        <ele>414.600006103515625</ele>
        <time>2022-06-04T08:09:45.000Z</time>
      </trkpt>
      <trkpt lat="43.4543051384389400482177734375" lon="-5.64829858951270580291748046875">
        <ele>415</ele>
        <time>2022-06-04T08:09:47.000Z</time>
      </trkpt>
      <trkpt lat="43.45428661443293094635009765625" lon="-5.64827377907931804656982421875">
        <ele>415.399993896484375</ele>
        <time>2022-06-04T08:09:49.000Z</time>
      </trkpt>
      <trkpt lat="43.454278148710727691650390625" lon="-5.64826321788132190704345703125">
        <ele>415.600006103515625</ele>
        <time>2022-06-04T08:09:50.000Z</time>
      </trkpt>
      <trkpt lat="43.45427043735980987548828125" lon="-5.6482555903494358062744140625">
        <ele>415.79998779296875</ele>
        <time>2022-06-04T08:09:51.000Z</time>
      </trkpt>
      <trkpt lat="43.45425124280154705047607421875" lon="-5.6482394970953464508056640625">
        <ele>416.20001220703125</ele>
        <time>2022-06-04T08:09:53.000Z</time>
      </trkpt>
      <trkpt lat="43.454239927232265472412109375" lon="-5.648228935897350311279296875">
        <ele>416.399993896484375</ele>
        <time>2022-06-04T08:09:54.000Z</time>
      </trkpt>
      <trkpt lat="43.45422961749136447906494140625" lon="-5.64821929670870304107666015625">
        <ele>416.600006103515625</ele>
        <time>2022-06-04T08:09:55.000Z</time>
      </trkpt>
      <trkpt lat="43.45421989448368549346923828125" lon="-5.64821074716746807098388671875">
        <ele>416.79998779296875</ele>
        <time>2022-06-04T08:09:56.000Z</time>
      </trkpt>
      <trkpt lat="43.4542099200189113616943359375" lon="-5.6482024490833282470703125">
        <ele>417</ele>
        <time>2022-06-04T08:09:57.000Z</time>
      </trkpt>
      <trkpt lat="43.45418703742325305938720703125" lon="-5.64819213934242725372314453125">
        <ele>417.399993896484375</ele>
        <time>2022-06-04T08:09:59.000Z</time>
      </trkpt>
      <trkpt lat="43.45416541211307048797607421875" lon="-5.648176968097686767578125">
        <ele>418</ele>
        <time>2022-06-04T08:10:01.000Z</time>
      </trkpt>
      <trkpt lat="43.45415451563894748687744140625" lon="-5.64816950820386409759521484375">
        <ele>418.20001220703125</ele>
        <time>2022-06-04T08:10:02.000Z</time>
      </trkpt>
      <trkpt lat="43.4541425295174121856689453125" lon="-5.64816380850970745086669921875">
        <ele>418.399993896484375</ele>
        <time>2022-06-04T08:10:03.000Z</time>
      </trkpt>
      <trkpt lat="43.4541155397891998291015625" lon="-5.6481543369591236114501953125">
        <ele>419</ele>
        <time>2022-06-04T08:10:05.000Z</time>
      </trkpt>
      <trkpt lat="43.45409332774579524993896484375" lon="-5.64814302138984203338623046875">
        <ele>419.600006103515625</ele>
        <time>2022-06-04T08:10:07.000Z</time>
      </trkpt>
      <trkpt lat="43.4540737979114055633544921875" lon="-5.64812759868800640106201171875">
        <ele>420</ele>
        <time>2022-06-04T08:10:09.000Z</time>
      </trkpt>
      <trkpt lat="43.45405259169638156890869140625" lon="-5.64811049960553646087646484375">
        <ele>420.600006103515625</ele>
        <time>2022-06-04T08:10:11.000Z</time>
      </trkpt>
      <trkpt lat="43.4540308825671672821044921875" lon="-5.648096166551113128662109375">
        <ele>421.399993896484375</ele>
        <time>2022-06-04T08:10:13.000Z</time>
      </trkpt>
      <trkpt lat="43.45400833524763584136962890625" lon="-5.6480832584202289581298828125">
        <ele>422</ele>
        <time>2022-06-04T08:10:15.000Z</time>
      </trkpt>
      <trkpt lat="43.4539869613945484161376953125" lon="-5.64807177521288394927978515625">
        <ele>422.399993896484375</ele>
        <time>2022-06-04T08:10:17.000Z</time>
      </trkpt>
      <trkpt lat="43.4539772383868694305419921875" lon="-5.6480656564235687255859375">
        <ele>422.79998779296875</ele>
        <time>2022-06-04T08:10:18.000Z</time>
      </trkpt>
      <trkpt lat="43.45396810211241245269775390625" lon="-5.648059956729412078857421875">
        <ele>423</ele>
        <time>2022-06-04T08:10:19.000Z</time>
      </trkpt>
      <trkpt lat="43.45394857227802276611328125" lon="-5.64804646186530590057373046875">
        <ele>423.399993896484375</ele>
        <time>2022-06-04T08:10:21.000Z</time>
      </trkpt>
      <trkpt lat="43.45393918454647064208984375" lon="-5.64803807996213436126708984375">
        <ele>423.79998779296875</ele>
        <time>2022-06-04T08:10:22.000Z</time>
      </trkpt>
      <trkpt lat="43.4539299644529819488525390625" lon="-5.64802852459251880645751953125">
        <ele>424</ele>
        <time>2022-06-04T08:10:23.000Z</time>
      </trkpt>
      <trkpt lat="43.45391378737986087799072265625" lon="-5.64801226370036602020263671875">
        <ele>424.600006103515625</ele>
        <time>2022-06-04T08:10:25.000Z</time>
      </trkpt>
      <trkpt lat="43.4539064951241016387939453125" lon="-5.6480064801871776580810546875">
        <ele>424.79998779296875</ele>
        <time>2022-06-04T08:10:26.000Z</time>
      </trkpt>
      <trkpt lat="43.45389853231608867645263671875" lon="-5.647998265922069549560546875">
        <ele>425.20001220703125</ele>
        <time>2022-06-04T08:10:27.000Z</time>
      </trkpt>
      <trkpt lat="43.45388554036617279052734375" lon="-5.64797504805028438568115234375">
        <ele>425.600006103515625</ele>
        <time>2022-06-04T08:10:29.000Z</time>
      </trkpt>
      <trkpt lat="43.45387338660657405853271484375" lon="-5.64795493148267269134521484375">
        <ele>426</ele>
        <time>2022-06-04T08:10:31.000Z</time>
      </trkpt>
      <trkpt lat="43.4538622386753559112548828125" lon="-5.6479364074766635894775390625">
        <ele>426.600006103515625</ele>
        <time>2022-06-04T08:10:33.000Z</time>
      </trkpt>
      <trkpt lat="43.45384530723094940185546875" lon="-5.64792056567966938018798828125">
        <ele>427</ele>
        <time>2022-06-04T08:10:35.000Z</time>
      </trkpt>
      <trkpt lat="43.45383550040423870086669921875" lon="-5.64791771583259105682373046875">
        <ele>427.20001220703125</ele>
        <time>2022-06-04T08:10:36.000Z</time>
      </trkpt>
      <trkpt lat="43.453824520111083984375" lon="-5.64791209995746612548828125">
        <ele>427.399993896484375</ele>
        <time>2022-06-04T08:10:37.000Z</time>
      </trkpt>
      <trkpt lat="43.45380130223929882049560546875" lon="-5.6478918157517910003662109375">
        <ele>427.79998779296875</ele>
        <time>2022-06-04T08:10:39.000Z</time>
      </trkpt>
      <trkpt lat="43.45378085039556026458740234375" lon="-5.64787589013576507568359375">
        <ele>428.399993896484375</ele>
        <time>2022-06-04T08:10:41.000Z</time>
      </trkpt>
      <trkpt lat="43.4537599794566631317138671875" lon="-5.64786759205162525177001953125">
        <ele>428.79998779296875</ele>
        <time>2022-06-04T08:10:43.000Z</time>
      </trkpt>
      <trkpt lat="43.453750424087047576904296875" lon="-5.64786189235746860504150390625">
        <ele>429.20001220703125</ele>
        <time>2022-06-04T08:10:44.000Z</time>
      </trkpt>
      <trkpt lat="43.4537458978593349456787109375" lon="-5.64785149879753589630126953125">
        <ele>429.399993896484375</ele>
        <time>2022-06-04T08:10:45.000Z</time>
      </trkpt>
      <trkpt lat="43.45374816097319126129150390625" lon="-5.64783842302858829498291015625">
        <ele>429.600006103515625</ele>
        <time>2022-06-04T08:10:46.000Z</time>
      </trkpt>
      <trkpt lat="43.45375218428671360015869140625" lon="-5.64782400615513324737548828125">
        <ele>429.79998779296875</ele>
        <time>2022-06-04T08:10:47.000Z</time>
      </trkpt>
      <trkpt lat="43.453755788505077362060546875" lon="-5.64779014326632022857666015625">
        <ele>430.399993896484375</ele>
        <time>2022-06-04T08:10:49.000Z</time>
      </trkpt>
      <trkpt lat="43.45375587232410907745361328125" lon="-5.64775611273944377899169921875">
        <ele>431</ele>
        <time>2022-06-04T08:10:51.000Z</time>
      </trkpt>
      <trkpt lat="43.4537505917251110076904296875" lon="-5.6477184779942035675048828125">
        <ele>431.20001220703125</ele>
        <time>2022-06-04T08:10:53.000Z</time>
      </trkpt>
      <trkpt lat="43.4537579677999019622802734375" lon="-5.6476765684783458709716796875">
        <ele>431.399993896484375</ele>
        <time>2022-06-04T08:10:55.000Z</time>
      </trkpt>
      <trkpt lat="43.45376626588404178619384765625" lon="-5.6476338207721710205078125">
        <ele>431.600006103515625</ele>
        <time>2022-06-04T08:10:57.000Z</time>
      </trkpt>
      <trkpt lat="43.45377833582460880279541015625" lon="-5.64758964814245700836181640625">
        <ele>431.79998779296875</ele>
        <time>2022-06-04T08:10:59.000Z</time>
      </trkpt>
      <trkpt lat="43.4537935070693492889404296875" lon="-5.64754723571240901947021484375">
        <ele>431.79998779296875</ele>
        <time>2022-06-04T08:11:01.000Z</time>
      </trkpt>
      <trkpt lat="43.4538070857524871826171875" lon="-5.64750515855848789215087890625">
        <ele>432</ele>
        <time>2022-06-04T08:11:03.000Z</time>
      </trkpt>
      <trkpt lat="43.45381915569305419921875" lon="-5.6474621593952178955078125">
        <ele>432.20001220703125</ele>
        <time>2022-06-04T08:11:05.000Z</time>
      </trkpt>
      <trkpt lat="43.4538293816149234771728515625" lon="-5.64741446636617183685302734375">
        <ele>432.399993896484375</ele>
        <time>2022-06-04T08:11:07.000Z</time>
      </trkpt>
      <trkpt lat="43.453834243118762969970703125" lon="-5.64739133231341838836669921875">
        <ele>432.600006103515625</ele>
        <time>2022-06-04T08:11:08.000Z</time>
      </trkpt>
      <trkpt lat="43.4538391046226024627685546875" lon="-5.647368617355823516845703125">
        <ele>432.600006103515625</ele>
        <time>2022-06-04T08:11:09.000Z</time>
      </trkpt>
      <trkpt lat="43.4538421221077442169189453125" lon="-5.647324360907077789306640625">
        <ele>432.79998779296875</ele>
        <time>2022-06-04T08:11:11.000Z</time>
      </trkpt>
      <trkpt lat="43.45383734442293643951416015625" lon="-5.6472819484770298004150390625">
        <ele>433</ele>
        <time>2022-06-04T08:11:13.000Z</time>
      </trkpt>
      <trkpt lat="43.45383147709071636199951171875" lon="-5.64725990407168865203857421875">
        <ele>433.20001220703125</ele>
        <time>2022-06-04T08:11:14.000Z</time>
      </trkpt>
      <trkpt lat="43.45382326282560825347900390625" lon="-5.64723945222795009613037109375">
        <ele>433.399993896484375</ele>
        <time>2022-06-04T08:11:15.000Z</time>
      </trkpt>
      <trkpt lat="43.45381312072277069091796875" lon="-5.64722235314548015594482421875">
        <ele>433.79998779296875</ele>
        <time>2022-06-04T08:11:16.000Z</time>
      </trkpt>
      <trkpt lat="43.45380415208637714385986328125" lon="-5.64720642752945423126220703125">
        <ele>433.79998779296875</ele>
        <time>2022-06-04T08:11:17.000Z</time>
      </trkpt>
      <trkpt lat="43.4537881426513195037841796875" lon="-5.647172816097736358642578125">
        <ele>434</ele>
        <time>2022-06-04T08:11:19.000Z</time>
      </trkpt>
      <trkpt lat="43.4537790901958942413330078125" lon="-5.6471575610339641571044921875">
        <ele>434.20001220703125</ele>
        <time>2022-06-04T08:11:20.000Z</time>
      </trkpt>
      <trkpt lat="43.45377012155950069427490234375" lon="-5.64714238978922367095947265625">
        <ele>434.399993896484375</ele>
        <time>2022-06-04T08:11:21.000Z</time>
      </trkpt>
      <trkpt lat="43.45375168137252330780029296875" lon="-5.64711355604231357574462890625">
        <ele>435</ele>
        <time>2022-06-04T08:11:23.000Z</time>
      </trkpt>
      <trkpt lat="43.45372863113880157470703125" lon="-5.64709528349339962005615234375">
        <ele>435.20001220703125</ele>
        <time>2022-06-04T08:11:25.000Z</time>
      </trkpt>
      <trkpt lat="43.45370340161025524139404296875" lon="-5.6470866501331329345703125">
        <ele>435.79998779296875</ele>
        <time>2022-06-04T08:11:27.000Z</time>
      </trkpt>
      <trkpt lat="43.45369066111743450164794921875" lon="-5.64707919023931026458740234375">
        <ele>435.79998779296875</ele>
        <time>2022-06-04T08:11:28.000Z</time>
      </trkpt>
      <trkpt lat="43.45367691479623317718505859375" lon="-5.64707064069807529449462890625">
        <ele>436</ele>
        <time>2022-06-04T08:11:29.000Z</time>
      </trkpt>
      <trkpt lat="43.45364724285900592803955078125" lon="-5.64705605618655681610107421875">
        <ele>436.399993896484375</ele>
        <time>2022-06-04T08:11:31.000Z</time>
      </trkpt>
      <trkpt lat="43.4536158107221126556396484375" lon="-5.64704247750341892242431640625">
        <ele>436.600006103515625</ele>
        <time>2022-06-04T08:11:33.000Z</time>
      </trkpt>
      <trkpt lat="43.4535846300423145294189453125" lon="-5.64703023992478847503662109375">
        <ele>437</ele>
        <time>2022-06-04T08:11:35.000Z</time>
      </trkpt>
      <trkpt lat="43.453553281724452972412109375" lon="-5.64702152274549007415771484375">
        <ele>437.600006103515625</ele>
        <time>2022-06-04T08:11:37.000Z</time>
      </trkpt>
      <trkpt lat="43.453537523746490478515625" lon="-5.64701347611844539642333984375">
        <ele>437.79998779296875</ele>
        <time>2022-06-04T08:11:38.000Z</time>
      </trkpt>
      <trkpt lat="43.4535222686827182769775390625" lon="-5.64700509421527385711669921875">
        <ele>437.79998779296875</ele>
        <time>2022-06-04T08:11:39.000Z</time>
      </trkpt>
      <trkpt lat="43.45350734889507293701171875" lon="-5.646997801959514617919921875">
        <ele>438.20001220703125</ele>
        <time>2022-06-04T08:11:40.000Z</time>
      </trkpt>
      <trkpt lat="43.45349368639290332794189453125" lon="-5.64698933623731136322021484375">
        <ele>438.399993896484375</ele>
        <time>2022-06-04T08:11:41.000Z</time>
      </trkpt>
      <trkpt lat="43.453465439379215240478515625" lon="-5.64697491936385631561279296875">
        <ele>439</ele>
        <time>2022-06-04T08:11:43.000Z</time>
      </trkpt>
      <trkpt lat="43.453452028334140777587890625" lon="-5.64696871675550937652587890625">
        <ele>439.20001220703125</ele>
        <time>2022-06-04T08:11:44.000Z</time>
      </trkpt>
      <trkpt lat="43.453439287841320037841796875" lon="-5.64696184359490871429443359375">
        <ele>439.600006103515625</ele>
        <time>2022-06-04T08:11:45.000Z</time>
      </trkpt>
      <trkpt lat="43.4534273855388164520263671875" lon="-5.646955557167530059814453125">
        <ele>439.600006103515625</ele>
        <time>2022-06-04T08:11:46.000Z</time>
      </trkpt>
      <trkpt lat="43.45341657288372516632080078125" lon="-5.64695010893046855926513671875">
        <ele>440</ele>
        <time>2022-06-04T08:11:47.000Z</time>
      </trkpt>
      <trkpt lat="43.4534055925905704498291015625" lon="-5.64694390632212162017822265625">
        <ele>440.20001220703125</ele>
        <time>2022-06-04T08:11:48.000Z</time>
      </trkpt>
      <trkpt lat="43.45339335501194000244140625" lon="-5.6469382904469966888427734375">
        <ele>440.600006103515625</ele>
        <time>2022-06-04T08:11:49.000Z</time>
      </trkpt>
      <trkpt lat="43.4533683769404888153076171875" lon="-5.64692513085901737213134765625">
        <ele>441</ele>
        <time>2022-06-04T08:11:51.000Z</time>
      </trkpt>
      <trkpt lat="43.453340716660022735595703125" lon="-5.6469124741852283477783203125">
        <ele>441.399993896484375</ele>
        <time>2022-06-04T08:11:53.000Z</time>
      </trkpt>
      <trkpt lat="43.45331213437020778656005859375" lon="-5.64690400846302509307861328125">
        <ele>441.79998779296875</ele>
        <time>2022-06-04T08:11:55.000Z</time>
      </trkpt>
      <trkpt lat="43.45328070223331451416015625" lon="-5.64689445309340953826904296875">
        <ele>442.20001220703125</ele>
        <time>2022-06-04T08:11:57.000Z</time>
      </trkpt>
      <trkpt lat="43.4532637707889080047607421875" lon="-5.64689017832279205322265625">
        <ele>442.399993896484375</ele>
        <time>2022-06-04T08:11:58.000Z</time>
      </trkpt>
      <trkpt lat="43.45324642024934291839599609375" lon="-5.64688640646636486053466796875">
        <ele>442.600006103515625</ele>
        <time>2022-06-04T08:11:59.000Z</time>
      </trkpt>
      <trkpt lat="43.453211970627307891845703125" lon="-5.64687802456319332122802734375">
        <ele>443.20001220703125</ele>
        <time>2022-06-04T08:12:01.000Z</time>
      </trkpt>
      <trkpt lat="43.45317483879625797271728515625" lon="-5.646868050098419189453125">
        <ele>443.399993896484375</ele>
        <time>2022-06-04T08:12:03.000Z</time>
      </trkpt>
      <trkpt lat="43.4531538002192974090576171875" lon="-5.6468628533184528350830078125">
        <ele>443.79998779296875</ele>
        <time>2022-06-04T08:12:04.000Z</time>
      </trkpt>
      <trkpt lat="43.45313343219459056854248046875" lon="-5.646857656538486480712890625">
        <ele>444</ele>
        <time>2022-06-04T08:12:05.000Z</time>
      </trkpt>
      <trkpt lat="43.45308532007038593292236328125" lon="-5.646844916045665740966796875">
        <ele>444.20001220703125</ele>
        <time>2022-06-04T08:12:07.000Z</time>
      </trkpt>
      <trkpt lat="43.453022539615631103515625" lon="-5.6468212790787220001220703125">
        <ele>444.600006103515625</ele>
        <time>2022-06-04T08:12:09.000Z</time>
      </trkpt>
      <trkpt lat="43.4529871679842472076416015625" lon="-5.6468061916530132293701171875">
        <ele>444.600006103515625</ele>
        <time>2022-06-04T08:12:10.000Z</time>
      </trkpt>
      <trkpt lat="43.4529496170580387115478515625" lon="-5.64678959548473358154296875">
        <ele>444.600006103515625</ele>
        <time>2022-06-04T08:12:11.000Z</time>
      </trkpt>
      <trkpt lat="43.45291013829410076141357421875" lon="-5.64676738344132900238037109375">
        <ele>444.600006103515625</ele>
        <time>2022-06-04T08:12:12.000Z</time>
      </trkpt>
      <trkpt lat="43.45286956988275051116943359375" lon="-5.64673905260860919952392578125">
        <ele>444.600006103515625</ele>
        <time>2022-06-04T08:12:13.000Z</time>
      </trkpt>
      <trkpt lat="43.45278139226138591766357421875" lon="-5.64667233265936374664306640625">
        <ele>444.600006103515625</ele>
        <time>2022-06-04T08:12:15.000Z</time>
      </trkpt>
      <trkpt lat="43.45269656740128993988037109375" lon="-5.64658180810511112213134765625">
        <ele>444.600006103515625</ele>
        <time>2022-06-04T08:12:17.000Z</time>
      </trkpt>
      <trkpt lat="43.45262297429144382476806640625" lon="-5.64647384919226169586181640625">
        <ele>444.600006103515625</ele>
        <time>2022-06-04T08:12:19.000Z</time>
      </trkpt>
      <trkpt lat="43.45258642919361591339111328125" lon="-5.64641752280294895172119140625">
        <ele>444.399993896484375</ele>
        <time>2022-06-04T08:12:20.000Z</time>
      </trkpt>
      <trkpt lat="43.45255005173385143280029296875" lon="-5.64635851420462131500244140625">
        <ele>444.399993896484375</ele>
        <time>2022-06-04T08:12:21.000Z</time>
      </trkpt>
      <trkpt lat="43.45247344113886356353759765625" lon="-5.6462157703936100006103515625">
        <ele>444.20001220703125</ele>
        <time>2022-06-04T08:12:23.000Z</time>
      </trkpt>
      <trkpt lat="43.45239222049713134765625" lon="-5.64605123363435268402099609375">
        <ele>444</ele>
        <time>2022-06-04T08:12:25.000Z</time>
      </trkpt>
      <trkpt lat="43.4522562660276889801025390625" lon="-5.6459294445812702178955078125">
        <ele>443.600006103515625</ele>
        <time>2022-06-04T08:12:27.000Z</time>
      </trkpt>
      <trkpt lat="43.4521902166306972503662109375" lon="-5.6458885408937931060791015625">
        <ele>443.20001220703125</ele>
        <time>2022-06-04T08:12:28.000Z</time>
      </trkpt>
      <trkpt lat="43.45212911255657672882080078125" lon="-5.64585828222334384918212890625">
        <ele>443</ele>
        <time>2022-06-04T08:12:29.000Z</time>
      </trkpt>
      <trkpt lat="43.45206725411117076873779296875" lon="-5.6458422727882862091064453125">
        <ele>442.79998779296875</ele>
        <time>2022-06-04T08:12:30.000Z</time>
      </trkpt>
      <trkpt lat="43.45200438983738422393798828125" lon="-5.6458305381238460540771484375">
        <ele>442.399993896484375</ele>
        <time>2022-06-04T08:12:31.000Z</time>
      </trkpt>
      <trkpt lat="43.451944291591644287109375" lon="-5.6458074040710926055908203125">
        <ele>441.600006103515625</ele>
        <time>2022-06-04T08:12:32.000Z</time>
      </trkpt>
      <trkpt lat="43.45188905484974384307861328125" lon="-5.64576373435556888580322265625">
        <ele>441.399993896484375</ele>
        <time>2022-06-04T08:12:33.000Z</time>
      </trkpt>
      <trkpt lat="43.45180707983672618865966796875" lon="-5.64562660641968250274658203125">
        <ele>441</ele>
        <time>2022-06-04T08:12:35.000Z</time>
      </trkpt>
      <trkpt lat="43.45176919363439083099365234375" lon="-5.6455551087856292724609375">
        <ele>441</ele>
        <time>2022-06-04T08:12:36.000Z</time>
      </trkpt>
      <trkpt lat="43.4517302177846431732177734375" lon="-5.64548872411251068115234375">
        <ele>440.79998779296875</ele>
        <time>2022-06-04T08:12:37.000Z</time>
      </trkpt>
      <trkpt lat="43.4516423754394054412841796875" lon="-5.64538168720901012420654296875">
        <ele>440.600006103515625</ele>
        <time>2022-06-04T08:12:39.000Z</time>
      </trkpt>
      <trkpt lat="43.4515964426100254058837890625" lon="-5.6453450582921504974365234375">
        <ele>440.600006103515625</ele>
        <time>2022-06-04T08:12:40.000Z</time>
      </trkpt>
      <trkpt lat="43.45154690556228160858154296875" lon="-5.6453091837465763092041015625">
        <ele>440.600006103515625</ele>
        <time>2022-06-04T08:12:41.000Z</time>
      </trkpt>
      <trkpt lat="43.45150114037096500396728515625" lon="-5.6452679447829723358154296875">
        <ele>440.399993896484375</ele>
        <time>2022-06-04T08:12:42.000Z</time>
      </trkpt>
      <trkpt lat="43.45146006904542446136474609375" lon="-5.64522276632487773895263671875">
        <ele>440.20001220703125</ele>
        <time>2022-06-04T08:12:43.000Z</time>
      </trkpt>
      <trkpt lat="43.4513662755489349365234375" lon="-5.6451241113245487213134765625">
        <ele>439.79998779296875</ele>
        <time>2022-06-04T08:12:45.000Z</time>
      </trkpt>
      <trkpt lat="43.45131657086312770843505859375" lon="-5.64506501890718936920166015625">
        <ele>439.79998779296875</ele>
        <time>2022-06-04T08:12:46.000Z</time>
      </trkpt>
      <trkpt lat="43.4512675367295742034912109375" lon="-5.64500014297664165496826171875">
        <ele>439.79998779296875</ele>
        <time>2022-06-04T08:12:47.000Z</time>
      </trkpt>
      <trkpt lat="43.451178185641765594482421875" lon="-5.6448723189532756805419921875">
        <ele>439.600006103515625</ele>
        <time>2022-06-04T08:12:49.000Z</time>
      </trkpt>
      <trkpt lat="43.45113635994493961334228515625" lon="-5.6448136456310749053955078125">
        <ele>439.600006103515625</ele>
        <time>2022-06-04T08:12:50.000Z</time>
      </trkpt>
      <trkpt lat="43.45109813846647739410400390625" lon="-5.64475916326045989990234375">
        <ele>439.399993896484375</ele>
        <time>2022-06-04T08:12:51.000Z</time>
      </trkpt>
      <trkpt lat="43.451063521206378936767578125" lon="-5.64470686018466949462890625">
        <ele>439.20001220703125</ele>
        <time>2022-06-04T08:12:52.000Z</time>
      </trkpt>
      <trkpt lat="43.4510304965078830718994140625" lon="-5.64466117881238460540771484375">
        <ele>439</ele>
        <time>2022-06-04T08:12:53.000Z</time>
      </trkpt>
      <trkpt lat="43.45097358338534832000732421875" lon="-5.64458373002707958221435546875">
        <ele>438.79998779296875</ele>
        <time>2022-06-04T08:12:55.000Z</time>
      </trkpt>
      <trkpt lat="43.45092312432825565338134765625" lon="-5.64451432786881923675537109375">
        <ele>438.600006103515625</ele>
        <time>2022-06-04T08:12:57.000Z</time>
      </trkpt>
      <trkpt lat="43.45088439993560314178466796875" lon="-5.644444338977336883544921875">
        <ele>438.399993896484375</ele>
        <time>2022-06-04T08:12:59.000Z</time>
      </trkpt>
      <trkpt lat="43.4508464299142360687255859375" lon="-5.64437887631356716156005859375">
        <ele>438.399993896484375</ele>
        <time>2022-06-04T08:13:01.000Z</time>
      </trkpt>
      <trkpt lat="43.45081432722508907318115234375" lon="-5.64431517384946346282958984375">
        <ele>438.399993896484375</ele>
        <time>2022-06-04T08:13:03.000Z</time>
      </trkpt>
      <trkpt lat="43.45079923979938030242919921875" lon="-5.64428466372191905975341796875">
        <ele>438.600006103515625</ele>
        <time>2022-06-04T08:13:04.000Z</time>
      </trkpt>
      <trkpt lat="43.45078381709754467010498046875" lon="-5.64425515942275524139404296875">
        <ele>438.600006103515625</ele>
        <time>2022-06-04T08:13:05.000Z</time>
      </trkpt>
      <trkpt lat="43.45075448043644428253173828125" lon="-5.64419765956699848175048828125">
        <ele>438.79998779296875</ele>
        <time>2022-06-04T08:13:07.000Z</time>
      </trkpt>
      <trkpt lat="43.45072682015597820281982421875" lon="-5.6441400758922100067138671875">
        <ele>439.399993896484375</ele>
        <time>2022-06-04T08:13:09.000Z</time>
      </trkpt>
      <trkpt lat="43.45071407966315746307373046875" lon="-5.6441119126975536346435546875">
        <ele>439.600006103515625</ele>
        <time>2022-06-04T08:13:10.000Z</time>
      </trkpt>
      <trkpt lat="43.45070435665547847747802734375" lon="-5.64408550970256328582763671875">
        <ele>439.79998779296875</ele>
        <time>2022-06-04T08:13:11.000Z</time>
      </trkpt>
      <trkpt lat="43.450691699981689453125" lon="-5.644035637378692626953125">
        <ele>440.399993896484375</ele>
        <time>2022-06-04T08:13:13.000Z</time>
      </trkpt>
      <trkpt lat="43.4506849944591522216796875" lon="-5.64401158131659030914306640625">
        <ele>440.600006103515625</ele>
        <time>2022-06-04T08:13:14.000Z</time>
      </trkpt>
      <trkpt lat="43.45067686401307582855224609375" lon="-5.643989704549312591552734375">
        <ele>441</ele>
        <time>2022-06-04T08:13:15.000Z</time>
      </trkpt>
      <trkpt lat="43.4506600163877010345458984375" lon="-5.64394771121442317962646484375">
        <ele>441.399993896484375</ele>
        <time>2022-06-04T08:13:17.000Z</time>
      </trkpt>
      <trkpt lat="43.4506442584097385406494140625" lon="-5.6439043767750263214111328125">
        <ele>441.79998779296875</ele>
        <time>2022-06-04T08:13:19.000Z</time>
      </trkpt>
      <trkpt lat="43.4506340324878692626953125" lon="-5.6438621319830417633056640625">
        <ele>442.399993896484375</ele>
        <time>2022-06-04T08:13:21.000Z</time>
      </trkpt>
      <trkpt lat="43.45062070526182651519775390625" lon="-5.64382349140942096710205078125">
        <ele>442.79998779296875</ele>
        <time>2022-06-04T08:13:23.000Z</time>
      </trkpt>
      <trkpt lat="43.45061324536800384521484375" lon="-5.64378283917903900146484375">
        <ele>443.20001220703125</ele>
        <time>2022-06-04T08:13:25.000Z</time>
      </trkpt>
      <trkpt lat="43.45061056315898895263671875" lon="-5.6437394209206104278564453125">
        <ele>444</ele>
        <time>2022-06-04T08:13:27.000Z</time>
      </trkpt>
      <trkpt lat="43.45060679130256175994873046875" lon="-5.64369357191026210784912109375">
        <ele>444.399993896484375</ele>
        <time>2022-06-04T08:13:29.000Z</time>
      </trkpt>
      <trkpt lat="43.45060025341808795928955078125" lon="-5.643644034862518310546875">
        <ele>444.79998779296875</ele>
        <time>2022-06-04T08:13:31.000Z</time>
      </trkpt>
      <trkpt lat="43.45059773884713649749755859375" lon="-5.6436234153807163238525390625">
        <ele>445</ele>
        <time>2022-06-04T08:13:32.000Z</time>
      </trkpt>
      <trkpt lat="43.450596146285533905029296875" lon="-5.64360237680375576019287109375">
        <ele>445.20001220703125</ele>
        <time>2022-06-04T08:13:33.000Z</time>
      </trkpt>
      <trkpt lat="43.4505959786474704742431640625" lon="-5.6435563601553440093994140625">
        <ele>445.600006103515625</ele>
        <time>2022-06-04T08:13:35.000Z</time>
      </trkpt>
      <trkpt lat="43.45059371553361415863037109375" lon="-5.643509589135646820068359375">
        <ele>446</ele>
        <time>2022-06-04T08:13:37.000Z</time>
      </trkpt>
      <trkpt lat="43.4505936317145824432373046875" lon="-5.64348586834967136383056640625">
        <ele>446.20001220703125</ele>
        <time>2022-06-04T08:13:38.000Z</time>
      </trkpt>
      <trkpt lat="43.45059623010456562042236328125" lon="-5.643463991582393646240234375">
        <ele>446.600006103515625</ele>
        <time>2022-06-04T08:13:39.000Z</time>
      </trkpt>
      <trkpt lat="43.45059472136199474334716796875" lon="-5.6434168852865695953369140625">
        <ele>446.79998779296875</ele>
        <time>2022-06-04T08:13:41.000Z</time>
      </trkpt>
      <trkpt lat="43.4505956433713436126708984375" lon="-5.64337254501879215240478515625">
        <ele>447.20001220703125</ele>
        <time>2022-06-04T08:13:43.000Z</time>
      </trkpt>
      <trkpt lat="43.45059790648519992828369140625" lon="-5.6433355808258056640625">
        <ele>447.79998779296875</ele>
        <time>2022-06-04T08:13:45.000Z</time>
      </trkpt>
      <trkpt lat="43.45059606246650218963623046875" lon="-5.64329409040510654449462890625">
        <ele>448.20001220703125</ele>
        <time>2022-06-04T08:13:47.000Z</time>
      </trkpt>
      <trkpt lat="43.450588770210742950439453125" lon="-5.6432725489139556884765625">
        <ele>448.600006103515625</ele>
        <time>2022-06-04T08:13:48.000Z</time>
      </trkpt>
      <trkpt lat="43.450584076344966888427734375" lon="-5.6432509236037731170654296875">
        <ele>448.79998779296875</ele>
        <time>2022-06-04T08:13:49.000Z</time>
      </trkpt>
      <trkpt lat="43.45058784820139408111572265625" lon="-5.643225945532321929931640625">
        <ele>449.20001220703125</ele>
        <time>2022-06-04T08:13:50.000Z</time>
      </trkpt>
      <trkpt lat="43.450591452419757843017578125" lon="-5.6432053260505199432373046875">
        <ele>449.399993896484375</ele>
        <time>2022-06-04T08:13:51.000Z</time>
      </trkpt>
      <trkpt lat="43.45059388317167758941650390625" lon="-5.64318126998841762542724609375">
        <ele>449.600006103515625</ele>
        <time>2022-06-04T08:13:52.000Z</time>
      </trkpt>
      <trkpt lat="43.45059371553361415863037109375" lon="-5.64315713010728359222412109375">
        <ele>450</ele>
        <time>2022-06-04T08:13:53.000Z</time>
      </trkpt>
      <trkpt lat="43.4505869261920452117919921875" lon="-5.643096864223480224609375">
        <ele>450.399993896484375</ele>
        <time>2022-06-04T08:13:55.000Z</time>
      </trkpt>
      <trkpt lat="43.450582735240459442138671875" lon="-5.6430668570101261138916015625">
        <ele>451.20001220703125</ele>
        <time>2022-06-04T08:13:56.000Z</time>
      </trkpt>
      <trkpt lat="43.4505795501172542572021484375" lon="-5.64303584396839141845703125">
        <ele>451.399993896484375</ele>
        <time>2022-06-04T08:13:57.000Z</time>
      </trkpt>
      <trkpt lat="43.45057242549955844879150390625" lon="-5.64297222532331943511962890625">
        <ele>452</ele>
        <time>2022-06-04T08:13:59.000Z</time>
      </trkpt>
      <trkpt lat="43.45056907273828983306884765625" lon="-5.6429404579102993011474609375">
        <ele>452.399993896484375</ele>
        <time>2022-06-04T08:14:00.000Z</time>
      </trkpt>
      <trkpt lat="43.45056722871959209442138671875" lon="-5.6429077684879302978515625">
        <ele>452.600006103515625</ele>
        <time>2022-06-04T08:14:01.000Z</time>
      </trkpt>
      <trkpt lat="43.45056622289121150970458984375" lon="-5.64284599386155605316162109375">
        <ele>453</ele>
        <time>2022-06-04T08:14:03.000Z</time>
      </trkpt>
      <trkpt lat="43.4505631215870380401611328125" lon="-5.64278095029294490814208984375">
        <ele>453.600006103515625</ele>
        <time>2022-06-04T08:14:05.000Z</time>
      </trkpt>
      <trkpt lat="43.4505517221987247467041015625" lon="-5.642714984714984893798828125">
        <ele>453.79998779296875</ele>
        <time>2022-06-04T08:14:07.000Z</time>
      </trkpt>
      <trkpt lat="43.45054007135331630706787109375" lon="-5.6426420621573925018310546875">
        <ele>454.20001220703125</ele>
        <time>2022-06-04T08:14:09.000Z</time>
      </trkpt>
      <trkpt lat="43.45052473247051239013671875" lon="-5.64255975186824798583984375">
        <ele>454.399993896484375</ele>
        <time>2022-06-04T08:14:11.000Z</time>
      </trkpt>
      <trkpt lat="43.45051710493862628936767578125" lon="-5.64251155592501163482666015625">
        <ele>454.399993896484375</ele>
        <time>2022-06-04T08:14:12.000Z</time>
      </trkpt>
      <trkpt lat="43.45050595700740814208984375" lon="-5.6424600072205066680908203125">
        <ele>454.399993896484375</ele>
        <time>2022-06-04T08:14:13.000Z</time>
      </trkpt>
      <trkpt lat="43.45048525370657444000244140625" lon="-5.6423533894121646881103515625">
        <ele>454.399993896484375</ele>
        <time>2022-06-04T08:14:15.000Z</time>
      </trkpt>
      <trkpt lat="43.45046077854931354522705078125" lon="-5.6422487832605838775634765625">
        <ele>454.399993896484375</ele>
        <time>2022-06-04T08:14:17.000Z</time>
      </trkpt>
      <trkpt lat="43.450448624789714813232421875" lon="-5.6422011740505695343017578125">
        <ele>454.399993896484375</ele>
        <time>2022-06-04T08:14:18.000Z</time>
      </trkpt>
      <trkpt lat="43.4504380635917186737060546875" lon="-5.6421575881540775299072265625">
        <ele>454.399993896484375</ele>
        <time>2022-06-04T08:14:19.000Z</time>
      </trkpt>
      <trkpt lat="43.45041970722377300262451171875" lon="-5.642074607312679290771484375">
        <ele>454.399993896484375</ele>
        <time>2022-06-04T08:14:21.000Z</time>
      </trkpt>
      <trkpt lat="43.45041048713028430938720703125" lon="-5.64200051128864288330078125">
        <ele>454.399993896484375</ele>
        <time>2022-06-04T08:14:23.000Z</time>
      </trkpt>
      <trkpt lat="43.45040797255933284759521484375" lon="-5.64196187071502208709716796875">
        <ele>454.399993896484375</ele>
        <time>2022-06-04T08:14:24.000Z</time>
      </trkpt>
      <trkpt lat="43.4504068829119205474853515625" lon="-5.64192264340817928314208984375">
        <ele>454.399993896484375</ele>
        <time>2022-06-04T08:14:25.000Z</time>
      </trkpt>
      <trkpt lat="43.45041283406317234039306640625" lon="-5.6418434344232082366943359375">
        <ele>454.399993896484375</ele>
        <time>2022-06-04T08:14:27.000Z</time>
      </trkpt>
      <trkpt lat="43.45041803084313869476318359375" lon="-5.641761459410190582275390625">
        <ele>454.399993896484375</ele>
        <time>2022-06-04T08:14:29.000Z</time>
      </trkpt>
      <trkpt lat="43.45042012631893157958984375" lon="-5.64166917465627193450927734375">
        <ele>454.399993896484375</ele>
        <time>2022-06-04T08:14:31.000Z</time>
      </trkpt>
      <trkpt lat="43.450423143804073333740234375" lon="-5.641564317047595977783203125">
        <ele>454.399993896484375</ele>
        <time>2022-06-04T08:14:33.000Z</time>
      </trkpt>
      <trkpt lat="43.4504273347556591033935546875" lon="-5.6414504908025264739990234375">
        <ele>454.600006103515625</ele>
        <time>2022-06-04T08:14:35.000Z</time>
      </trkpt>
      <trkpt lat="43.45043429173529148101806640625" lon="-5.64133289270102977752685546875">
        <ele>454.600006103515625</ele>
        <time>2022-06-04T08:14:37.000Z</time>
      </trkpt>
      <trkpt lat="43.4504286758601665496826171875" lon="-5.64120867289602756500244140625">
        <ele>454.600006103515625</ele>
        <time>2022-06-04T08:14:39.000Z</time>
      </trkpt>
      <trkpt lat="43.45042339526116847991943359375" lon="-5.641148574650287628173828125">
        <ele>454.600006103515625</ele>
        <time>2022-06-04T08:14:40.000Z</time>
      </trkpt>
      <trkpt lat="43.45041400752961635589599609375" lon="-5.64109283499419689178466796875">
        <ele>454.600006103515625</ele>
        <time>2022-06-04T08:14:41.000Z</time>
      </trkpt>
      <trkpt lat="43.45039003528654575347900390625" lon="-5.640990994870662689208984375">
        <ele>454.600006103515625</ele>
        <time>2022-06-04T08:14:43.000Z</time>
      </trkpt>
      <trkpt lat="43.4503773786127567291259765625" lon="-5.64094279892742633819580078125">
        <ele>454.600006103515625</ele>
        <time>2022-06-04T08:14:44.000Z</time>
      </trkpt>
      <trkpt lat="43.4503666497766971588134765625" lon="-5.64089837484061717987060546875">
        <ele>454.399993896484375</ele>
        <time>2022-06-04T08:14:45.000Z</time>
      </trkpt>
      <trkpt lat="43.45034142024815082550048828125" lon="-5.64081455580890178680419921875">
        <ele>454.399993896484375</ele>
        <time>2022-06-04T08:14:47.000Z</time>
      </trkpt>
      <trkpt lat="43.45030370168387889862060546875" lon="-5.64074548892676830291748046875">
        <ele>454.20001220703125</ele>
        <time>2022-06-04T08:14:49.000Z</time>
      </trkpt>
      <trkpt lat="43.45028199255466461181640625" lon="-5.64071564935147762298583984375">
        <ele>454.20001220703125</ele>
        <time>2022-06-04T08:14:50.000Z</time>
      </trkpt>
      <trkpt lat="43.45025961287319660186767578125" lon="-5.6406877376139163970947265625">
        <ele>454.20001220703125</ele>
        <time>2022-06-04T08:14:51.000Z</time>
      </trkpt>
      <trkpt lat="43.450222313404083251953125" lon="-5.64064088277518749237060546875">
        <ele>454.20001220703125</ele>
        <time>2022-06-04T08:14:53.000Z</time>
      </trkpt>
      <trkpt lat="43.45019280910491943359375" lon="-5.640596710145473480224609375">
        <ele>454.20001220703125</ele>
        <time>2022-06-04T08:14:55.000Z</time>
      </trkpt>
      <trkpt lat="43.45018233172595500946044921875" lon="-5.640573911368846893310546875">
        <ele>454.20001220703125</ele>
        <time>2022-06-04T08:14:56.000Z</time>
      </trkpt>
      <trkpt lat="43.4501762129366397857666015625" lon="-5.64055102877318859100341796875">
        <ele>454.399993896484375</ele>
        <time>2022-06-04T08:14:57.000Z</time>
      </trkpt>
      <trkpt lat="43.4501664899289608001708984375" lon="-5.64050543121993541717529296875">
        <ele>454.600006103515625</ele>
        <time>2022-06-04T08:14:59.000Z</time>
      </trkpt>
      <trkpt lat="43.45015852712094783782958984375" lon="-5.640461258590221405029296875">
        <ele>455</ele>
        <time>2022-06-04T08:15:01.000Z</time>
      </trkpt>
      <trkpt lat="43.4501520730555057525634765625" lon="-5.640417002141475677490234375">
        <ele>455.600006103515625</ele>
        <time>2022-06-04T08:15:03.000Z</time>
      </trkpt>
      <trkpt lat="43.45015048049390316009521484375" lon="-5.6403947062790393829345703125">
        <ele>455.79998779296875</ele>
        <time>2022-06-04T08:15:04.000Z</time>
      </trkpt>
      <trkpt lat="43.45014947466552257537841796875" lon="-5.64037199132144451141357421875">
        <ele>456</ele>
        <time>2022-06-04T08:15:05.000Z</time>
      </trkpt>
      <trkpt lat="43.450147211551666259765625" lon="-5.6403274834156036376953125">
        <ele>456.79998779296875</ele>
        <time>2022-06-04T08:15:07.000Z</time>
      </trkpt>
      <trkpt lat="43.45014528371393680572509765625" lon="-5.64030610956251621246337890625">
        <ele>457.20001220703125</ele>
        <time>2022-06-04T08:15:08.000Z</time>
      </trkpt>
      <trkpt lat="43.4501436911523342132568359375" lon="-5.640284232795238494873046875">
        <ele>457.399993896484375</ele>
        <time>2022-06-04T08:15:09.000Z</time>
      </trkpt>
      <trkpt lat="43.45013723708689212799072265625" lon="-5.64023871906101703643798828125">
        <ele>458.20001220703125</ele>
        <time>2022-06-04T08:15:11.000Z</time>
      </trkpt>
      <trkpt lat="43.450134806334972381591796875" lon="-5.64019680954515933990478515625">
        <ele>458.79998779296875</ele>
        <time>2022-06-04T08:15:13.000Z</time>
      </trkpt>
      <trkpt lat="43.450132794678211212158203125" lon="-5.64015272073447704315185546875">
        <ele>459.399993896484375</ele>
        <time>2022-06-04T08:15:15.000Z</time>
      </trkpt>
      <trkpt lat="43.450130112469196319580078125" lon="-5.64010963775217533111572265625">
        <ele>460</ele>
        <time>2022-06-04T08:15:17.000Z</time>
      </trkpt>
      <trkpt lat="43.45012851990759372711181640625" lon="-5.64009010791778564453125">
        <ele>460.399993896484375</ele>
        <time>2022-06-04T08:15:18.000Z</time>
      </trkpt>
      <trkpt lat="43.4501269273459911346435546875" lon="-5.64007124863564968109130859375">
        <ele>461</ele>
        <time>2022-06-04T08:15:19.000Z</time>
      </trkpt>
      <trkpt lat="43.450128771364688873291015625" lon="-5.64003084786236286163330078125">
        <ele>461.79998779296875</ele>
        <time>2022-06-04T08:15:21.000Z</time>
      </trkpt>
      <trkpt lat="43.4501299448311328887939453125" lon="-5.6400109827518463134765625">
        <ele>462</ele>
        <time>2022-06-04T08:15:22.000Z</time>
      </trkpt>
      <trkpt lat="43.450130783021450042724609375" lon="-5.63999111764132976531982421875">
        <ele>462.399993896484375</ele>
        <time>2022-06-04T08:15:23.000Z</time>
      </trkpt>
      <trkpt lat="43.45012885518372058868408203125" lon="-5.63994996249675750732421875">
        <ele>462.79998779296875</ele>
        <time>2022-06-04T08:15:25.000Z</time>
      </trkpt>
      <trkpt lat="43.4501289390027523040771484375" lon="-5.63990847207605838775634765625">
        <ele>463.20001220703125</ele>
        <time>2022-06-04T08:15:27.000Z</time>
      </trkpt>
      <trkpt lat="43.4501326270401477813720703125" lon="-5.63986555673182010650634765625">
        <ele>463.600006103515625</ele>
        <time>2022-06-04T08:15:29.000Z</time>
      </trkpt>
      <trkpt lat="43.45013304613530635833740234375" lon="-5.63984133303165435791015625">
        <ele>464.20001220703125</ele>
        <time>2022-06-04T08:15:30.000Z</time>
      </trkpt>
      <trkpt lat="43.45013204030692577362060546875" lon="-5.6398151814937591552734375">
        <ele>464.399993896484375</ele>
        <time>2022-06-04T08:15:31.000Z</time>
      </trkpt>
      <trkpt lat="43.4501279331743717193603515625" lon="-5.63975994475185871124267578125">
        <ele>464.79998779296875</ele>
        <time>2022-06-04T08:15:33.000Z</time>
      </trkpt>
      <trkpt lat="43.45011963509023189544677734375" lon="-5.63968978822231292724609375">
        <ele>465.20001220703125</ele>
        <time>2022-06-04T08:15:35.000Z</time>
      </trkpt>
      <trkpt lat="43.45009951852262020111083984375" lon="-5.6396168656647205352783203125">
        <ele>465.399993896484375</ele>
        <time>2022-06-04T08:15:37.000Z</time>
      </trkpt>
      <trkpt lat="43.45007252879440784454345703125" lon="-5.63954369165003299713134765625">
        <ele>465.600006103515625</ele>
        <time>2022-06-04T08:15:39.000Z</time>
      </trkpt>
      <trkpt lat="43.4500447846949100494384765625" lon="-5.63946892507374286651611328125">
        <ele>465.79998779296875</ele>
        <time>2022-06-04T08:15:41.000Z</time>
      </trkpt>
      <trkpt lat="43.45001553185284137725830078125" lon="-5.63939130865037441253662109375">
        <ele>465.79998779296875</ele>
        <time>2022-06-04T08:15:43.000Z</time>
      </trkpt>
      <trkpt lat="43.44998619519174098968505859375" lon="-5.63931453041732311248779296875">
        <ele>465.79998779296875</ele>
        <time>2022-06-04T08:15:45.000Z</time>
      </trkpt>
      <trkpt lat="43.44996205531060695648193359375" lon="-5.63923624344170093536376953125">
        <ele>466</ele>
        <time>2022-06-04T08:15:47.000Z</time>
      </trkpt>
      <trkpt lat="43.44994495622813701629638671875" lon="-5.639155693352222442626953125">
        <ele>466.20001220703125</ele>
        <time>2022-06-04T08:15:49.000Z</time>
      </trkpt>
      <trkpt lat="43.44992928206920623779296875" lon="-5.639071874320507049560546875">
        <ele>466.20001220703125</ele>
        <time>2022-06-04T08:15:51.000Z</time>
      </trkpt>
      <trkpt lat="43.44991997815668582916259765625" lon="-5.63898981548845767974853515625">
        <ele>466.20001220703125</ele>
        <time>2022-06-04T08:15:53.000Z</time>
      </trkpt>
      <trkpt lat="43.44991511665284633636474609375" lon="-5.6389050744473934173583984375">
        <ele>466.399993896484375</ele>
        <time>2022-06-04T08:15:55.000Z</time>
      </trkpt>
      <trkpt lat="43.44991578720510005950927734375" lon="-5.63886358402669429779052734375">
        <ele>466.600006103515625</ele>
        <time>2022-06-04T08:15:56.000Z</time>
      </trkpt>
      <trkpt lat="43.44991721212863922119140625" lon="-5.6388239376246929168701171875">
        <ele>466.600006103515625</ele>
        <time>2022-06-04T08:15:57.000Z</time>
      </trkpt>
      <trkpt lat="43.44991561956703662872314453125" lon="-5.63874674029648303985595703125">
        <ele>466.79998779296875</ele>
        <time>2022-06-04T08:15:59.000Z</time>
      </trkpt>
      <trkpt lat="43.4499125182628631591796875" lon="-5.63867063261568546295166015625">
        <ele>466.79998779296875</ele>
        <time>2022-06-04T08:16:01.000Z</time>
      </trkpt>
      <trkpt lat="43.4499002806842327117919921875" lon="-5.63860307447612285614013671875">
        <ele>466.79998779296875</ele>
        <time>2022-06-04T08:16:03.000Z</time>
      </trkpt>
      <trkpt lat="43.44989181496202945709228515625" lon="-5.638572312891483306884765625">
        <ele>467</ele>
        <time>2022-06-04T08:16:04.000Z</time>
      </trkpt>
      <trkpt lat="43.44988209195435047149658203125" lon="-5.63854272477328777313232421875">
        <ele>467</ele>
        <time>2022-06-04T08:16:05.000Z</time>
      </trkpt>
      <trkpt lat="43.4498543478548526763916015625" lon="-5.63849209807813167572021484375">
        <ele>467.20001220703125</ele>
        <time>2022-06-04T08:16:07.000Z</time>
      </trkpt>
      <trkpt lat="43.44982710666954517364501953125" lon="-5.63844147138297557830810546875">
        <ele>467.600006103515625</ele>
        <time>2022-06-04T08:16:09.000Z</time>
      </trkpt>
      <trkpt lat="43.44981419853866100311279296875" lon="-5.6384182535111904144287109375">
        <ele>467.79998779296875</ele>
        <time>2022-06-04T08:16:10.000Z</time>
      </trkpt>
      <trkpt lat="43.4498007036745548248291015625" lon="-5.63839654438197612762451171875">
        <ele>468</ele>
        <time>2022-06-04T08:16:11.000Z</time>
      </trkpt>
      <trkpt lat="43.44977111555635929107666015625" lon="-5.638353712856769561767578125">
        <ele>468.399993896484375</ele>
        <time>2022-06-04T08:16:13.000Z</time>
      </trkpt>
      <trkpt lat="43.449757285416126251220703125" lon="-5.6383347697556018829345703125">
        <ele>468.600006103515625</ele>
        <time>2022-06-04T08:16:14.000Z</time>
      </trkpt>
      <trkpt lat="43.4497430361807346343994140625" lon="-5.6383190117776393890380859375">
        <ele>469</ele>
        <time>2022-06-04T08:16:15.000Z</time>
      </trkpt>
      <trkpt lat="43.4497128613293170928955078125" lon="-5.63829193823039531707763671875">
        <ele>469.399993896484375</ele>
        <time>2022-06-04T08:16:17.000Z</time>
      </trkpt>
      <trkpt lat="43.44969685189425945281982421875" lon="-5.63828171230852603912353515625">
        <ele>469.600006103515625</ele>
        <time>2022-06-04T08:16:18.000Z</time>
      </trkpt>
      <trkpt lat="43.44968117773532867431640625" lon="-5.6382727436721324920654296875">
        <ele>469.79998779296875</ele>
        <time>2022-06-04T08:16:19.000Z</time>
      </trkpt>
      <trkpt lat="43.4496511705219745635986328125" lon="-5.63825388438999652862548828125">
        <ele>470.20001220703125</ele>
        <time>2022-06-04T08:16:21.000Z</time>
      </trkpt>
      <trkpt lat="43.44962024129927158355712890625" lon="-5.63823737204074859619140625">
        <ele>470.600006103515625</ele>
        <time>2022-06-04T08:16:23.000Z</time>
      </trkpt>
      <trkpt lat="43.44960515387356281280517578125" lon="-5.63822932541370391845703125">
        <ele>470.79998779296875</ele>
        <time>2022-06-04T08:16:24.000Z</time>
      </trkpt>
      <trkpt lat="43.44959006644785404205322265625" lon="-5.63822018913924694061279296875">
        <ele>471</ele>
        <time>2022-06-04T08:16:25.000Z</time>
      </trkpt>
      <trkpt lat="43.4495609812438488006591796875" lon="-5.638202838599681854248046875">
        <ele>471.600006103515625</ele>
        <time>2022-06-04T08:16:27.000Z</time>
      </trkpt>
      <trkpt lat="43.44954631291329860687255859375" lon="-5.63819688744843006134033203125">
        <ele>471.79998779296875</ele>
        <time>2022-06-04T08:16:28.000Z</time>
      </trkpt>
      <trkpt lat="43.44953097403049468994140625" lon="-5.638190098106861114501953125">
        <ele>472.20001220703125</ele>
        <time>2022-06-04T08:16:29.000Z</time>
      </trkpt>
      <trkpt lat="43.44950021244585514068603515625" lon="-5.63817123882472515106201171875">
        <ele>472.600006103515625</ele>
        <time>2022-06-04T08:16:31.000Z</time>
      </trkpt>
      <trkpt lat="43.44946660101413726806640625" lon="-5.6381403096020221710205078125">
        <ele>473</ele>
        <time>2022-06-04T08:16:33.000Z</time>
      </trkpt>
      <trkpt lat="43.44942762516438961029052734375" lon="-5.63810099847614765167236328125">
        <ele>473.600006103515625</ele>
        <time>2022-06-04T08:16:35.000Z</time>
      </trkpt>
      <trkpt lat="43.4494070895016193389892578125" lon="-5.63807669095695018768310546875">
        <ele>473.79998779296875</ele>
        <time>2022-06-04T08:16:36.000Z</time>
      </trkpt>
      <trkpt lat="43.4493869729340076446533203125" lon="-5.63805154524743556976318359375">
        <ele>474</ele>
        <time>2022-06-04T08:16:37.000Z</time>
      </trkpt>
      <trkpt lat="43.44936668872833251953125" lon="-5.63802589662373065948486328125">
        <ele>474.20001220703125</ele>
        <time>2022-06-04T08:16:38.000Z</time>
      </trkpt>
      <trkpt lat="43.449347577989101409912109375" lon="-5.63799999654293060302734375">
        <ele>474.20001220703125</ele>
        <time>2022-06-04T08:16:39.000Z</time>
      </trkpt>
      <trkpt lat="43.44931396655738353729248046875" lon="-5.637944675981998443603515625">
        <ele>474.399993896484375</ele>
        <time>2022-06-04T08:16:41.000Z</time>
      </trkpt>
      <trkpt lat="43.4492786787450313568115234375" lon="-5.6378848291933536529541015625">
        <ele>474.399993896484375</ele>
        <time>2022-06-04T08:16:43.000Z</time>
      </trkpt>
      <trkpt lat="43.44923886470496654510498046875" lon="-5.63781383447349071502685546875">
        <ele>474.399993896484375</ele>
        <time>2022-06-04T08:16:45.000Z</time>
      </trkpt>
      <trkpt lat="43.44919594936072826385498046875" lon="-5.6377393193542957305908203125">
        <ele>474.399993896484375</ele>
        <time>2022-06-04T08:16:47.000Z</time>
      </trkpt>
      <trkpt lat="43.44915655441582202911376953125" lon="-5.6376655586063861846923828125">
        <ele>474.399993896484375</ele>
        <time>2022-06-04T08:16:49.000Z</time>
      </trkpt>
      <trkpt lat="43.4491385333240032196044921875" lon="-5.63763077370822429656982421875">
        <ele>474.399993896484375</ele>
        <time>2022-06-04T08:16:50.000Z</time>
      </trkpt>
      <trkpt lat="43.44912185333669185638427734375" lon="-5.6375981681048870086669921875">
        <ele>474.399993896484375</ele>
        <time>2022-06-04T08:16:51.000Z</time>
      </trkpt>
      <trkpt lat="43.4490942768752574920654296875" lon="-5.63753739930689334869384765625">
        <ele>474.399993896484375</ele>
        <time>2022-06-04T08:16:53.000Z</time>
      </trkpt>
      <trkpt lat="43.44907390885055065155029296875" lon="-5.63747352920472621917724609375">
        <ele>474.399993896484375</ele>
        <time>2022-06-04T08:16:55.000Z</time>
      </trkpt>
      <trkpt lat="43.44905848614871501922607421875" lon="-5.63741334713995456695556640625">
        <ele>474.399993896484375</ele>
        <time>2022-06-04T08:16:57.000Z</time>
      </trkpt>
      <trkpt lat="43.4490423090755939483642578125" lon="-5.63735601492226123809814453125">
        <ele>474.399993896484375</ele>
        <time>2022-06-04T08:16:59.000Z</time>
      </trkpt>
      <trkpt lat="43.449023030698299407958984375" lon="-5.63729817979037761688232421875">
        <ele>474.399993896484375</ele>
        <time>2022-06-04T08:17:01.000Z</time>
      </trkpt>
      <trkpt lat="43.44901490025222301483154296875" lon="-5.63726951368153095245361328125">
        <ele>474.600006103515625</ele>
        <time>2022-06-04T08:17:02.000Z</time>
      </trkpt>
      <trkpt lat="43.44900534488260746002197265625" lon="-5.6372416019439697265625">
        <ele>474.600006103515625</ele>
        <time>2022-06-04T08:17:03.000Z</time>
      </trkpt>
      <trkpt lat="43.44898791052401065826416015625" lon="-5.6371851079165935516357421875">
        <ele>475</ele>
        <time>2022-06-04T08:17:05.000Z</time>
      </trkpt>
      <trkpt lat="43.44897978007793426513671875" lon="-5.6371569447219371795654296875">
        <ele>475.20001220703125</ele>
        <time>2022-06-04T08:17:06.000Z</time>
      </trkpt>
      <trkpt lat="43.44897315837442874908447265625" lon="-5.637128613889217376708984375">
        <ele>475.399993896484375</ele>
        <time>2022-06-04T08:17:07.000Z</time>
      </trkpt>
      <trkpt lat="43.44895823858678340911865234375" lon="-5.637078993022441864013671875">
        <ele>475.600006103515625</ele>
        <time>2022-06-04T08:17:09.000Z</time>
      </trkpt>
      <trkpt lat="43.44895027577877044677734375" lon="-5.63705661334097385406494140625">
        <ele>475.79998779296875</ele>
        <time>2022-06-04T08:17:10.000Z</time>
      </trkpt>
      <trkpt lat="43.44894197769463062286376953125" lon="-5.63703347928822040557861328125">
        <ele>476</ele>
        <time>2022-06-04T08:17:11.000Z</time>
      </trkpt>
      <trkpt lat="43.44892471097409725189208984375" lon="-5.63698754645884037017822265625">
        <ele>476</ele>
        <time>2022-06-04T08:17:13.000Z</time>
      </trkpt>
      <trkpt lat="43.44890861772000789642333984375" lon="-5.6369437091052532196044921875">
        <ele>476.20001220703125</ele>
        <time>2022-06-04T08:17:15.000Z</time>
      </trkpt>
      <trkpt lat="43.4489011578261852264404296875" lon="-5.63692308962345123291015625">
        <ele>476.399993896484375</ele>
        <time>2022-06-04T08:17:16.000Z</time>
      </trkpt>
      <trkpt lat="43.44889461994171142578125" lon="-5.63690272159874439239501953125">
        <ele>476.399993896484375</ele>
        <time>2022-06-04T08:17:17.000Z</time>
      </trkpt>
      <trkpt lat="43.4488870762288570404052734375" lon="-5.636882521212100982666015625">
        <ele>476.399993896484375</ele>
        <time>2022-06-04T08:17:18.000Z</time>
      </trkpt>
      <trkpt lat="43.44888028688728809356689453125" lon="-5.63686433248221874237060546875">
        <ele>476.600006103515625</ele>
        <time>2022-06-04T08:17:19.000Z</time>
      </trkpt>
      <trkpt lat="43.44886302016675472259521484375" lon="-5.6368310563266277313232421875">
        <ele>477</ele>
        <time>2022-06-04T08:17:21.000Z</time>
      </trkpt>
      <trkpt lat="43.44884223304688930511474609375" lon="-5.6367988698184490203857421875">
        <ele>477.399993896484375</ele>
        <time>2022-06-04T08:17:23.000Z</time>
      </trkpt>
      <trkpt lat="43.4488216973841190338134765625" lon="-5.63677129335701465606689453125">
        <ele>477.79998779296875</ele>
        <time>2022-06-04T08:17:25.000Z</time>
      </trkpt>
      <trkpt lat="43.44880032353103160858154296875" lon="-5.6367445550858974456787109375">
        <ele>478</ele>
        <time>2022-06-04T08:17:27.000Z</time>
      </trkpt>
      <trkpt lat="43.44877802766859531402587890625" lon="-5.63672133721411228179931640625">
        <ele>478.399993896484375</ele>
        <time>2022-06-04T08:17:29.000Z</time>
      </trkpt>
      <trkpt lat="43.4487539716064929962158203125" lon="-5.63670541159808635711669921875">
        <ele>479</ele>
        <time>2022-06-04T08:17:31.000Z</time>
      </trkpt>
      <trkpt lat="43.44873209483921527862548828125" lon="-5.63668563030660152435302734375">
        <ele>479.399993896484375</ele>
        <time>2022-06-04T08:17:33.000Z</time>
      </trkpt>
      <trkpt lat="43.44870510511100292205810546875" lon="-5.63666936941444873809814453125">
        <ele>479.600006103515625</ele>
        <time>2022-06-04T08:17:35.000Z</time>
      </trkpt>
      <trkpt lat="43.44868130050599575042724609375" lon="-5.636653192341327667236328125">
        <ele>480.20001220703125</ele>
        <time>2022-06-04T08:17:37.000Z</time>
      </trkpt>
      <trkpt lat="43.44865263439714908599853515625" lon="-5.6366339139640331268310546875">
        <ele>480.79998779296875</ele>
        <time>2022-06-04T08:17:39.000Z</time>
      </trkpt>
      <trkpt lat="43.4486248902976512908935546875" lon="-5.63661706633865833282470703125">
        <ele>481.399993896484375</ele>
        <time>2022-06-04T08:17:41.000Z</time>
      </trkpt>
      <trkpt lat="43.44859563745558261871337890625" lon="-5.6366023980081081390380859375">
        <ele>482</ele>
        <time>2022-06-04T08:17:43.000Z</time>
      </trkpt>
      <trkpt lat="43.44858105294406414031982421875" lon="-5.6365963630378246307373046875">
        <ele>482.20001220703125</ele>
        <time>2022-06-04T08:17:44.000Z</time>
      </trkpt>
      <trkpt lat="43.44856806099414825439453125" lon="-5.6365886516869068145751953125">
        <ele>482.399993896484375</ele>
        <time>2022-06-04T08:17:45.000Z</time>
      </trkpt>
      <trkpt lat="43.4485447593033313751220703125" lon="-5.636573396623134613037109375">
        <ele>483</ele>
        <time>2022-06-04T08:17:47.000Z</time>
      </trkpt>
      <trkpt lat="43.44852254725992679595947265625" lon="-5.63655638135969638824462890625">
        <ele>483.399993896484375</ele>
        <time>2022-06-04T08:17:49.000Z</time>
      </trkpt>
      <trkpt lat="43.44849689863622188568115234375" lon="-5.636544562876224517822265625">
        <ele>484</ele>
        <time>2022-06-04T08:17:51.000Z</time>
      </trkpt>
      <trkpt lat="43.44847326166927814483642578125" lon="-5.63652603887021541595458984375">
        <ele>484.600006103515625</ele>
        <time>2022-06-04T08:17:53.000Z</time>
      </trkpt>
      <trkpt lat="43.4484508819878101348876953125" lon="-5.63650709576904773712158203125">
        <ele>485.20001220703125</ele>
        <time>2022-06-04T08:17:55.000Z</time>
      </trkpt>
      <trkpt lat="43.44842514954507350921630859375" lon="-5.6364927627146244049072265625">
        <ele>485.79998779296875</ele>
        <time>2022-06-04T08:17:57.000Z</time>
      </trkpt>
      <trkpt lat="43.4483989141881465911865234375" lon="-5.63647893257439136505126953125">
        <ele>486.20001220703125</ele>
        <time>2022-06-04T08:17:59.000Z</time>
      </trkpt>
      <trkpt lat="43.44837360084056854248046875" lon="-5.6364624202251434326171875">
        <ele>486.79998779296875</ele>
        <time>2022-06-04T08:18:01.000Z</time>
      </trkpt>
      <trkpt lat="43.4483482874929904937744140625" lon="-5.6364438124001026153564453125">
        <ele>487.20001220703125</ele>
        <time>2022-06-04T08:18:03.000Z</time>
      </trkpt>
      <trkpt lat="43.4483355470001697540283203125" lon="-5.636435262858867645263671875">
        <ele>487.399993896484375</ele>
        <time>2022-06-04T08:18:04.000Z</time>
      </trkpt>
      <trkpt lat="43.44832221977412700653076171875" lon="-5.63642688095569610595703125">
        <ele>488</ele>
        <time>2022-06-04T08:18:05.000Z</time>
      </trkpt>
      <trkpt lat="43.44830922782421112060546875" lon="-5.6364183314144611358642578125">
        <ele>488.20001220703125</ele>
        <time>2022-06-04T08:18:06.000Z</time>
      </trkpt>
      <trkpt lat="43.44829539768397808074951171875" lon="-5.63641036860644817352294921875">
        <ele>488.20001220703125</ele>
        <time>2022-06-04T08:18:07.000Z</time>
      </trkpt>
      <trkpt lat="43.44826656393706798553466796875" lon="-5.6363972090184688568115234375">
        <ele>488.79998779296875</ele>
        <time>2022-06-04T08:18:09.000Z</time>
      </trkpt>
      <trkpt lat="43.4482403285801410675048828125" lon="-5.636384300887584686279296875">
        <ele>489.20001220703125</ele>
        <time>2022-06-04T08:18:11.000Z</time>
      </trkpt>
      <trkpt lat="43.448215685784816741943359375" lon="-5.636366195976734161376953125">
        <ele>489.600006103515625</ele>
        <time>2022-06-04T08:18:13.000Z</time>
      </trkpt>
      <trkpt lat="43.44820336438715457916259765625" lon="-5.63635605387389659881591796875">
        <ele>490</ele>
        <time>2022-06-04T08:18:14.000Z</time>
      </trkpt>
      <trkpt lat="43.448190204799175262451171875" lon="-5.63634616322815418243408203125">
        <ele>490.20001220703125</ele>
        <time>2022-06-04T08:18:15.000Z</time>
      </trkpt>
      <trkpt lat="43.448177464306354522705078125" lon="-5.63633526675403118133544921875">
        <ele>490.399993896484375</ele>
        <time>2022-06-04T08:18:16.000Z</time>
      </trkpt>
      <trkpt lat="43.44816547818481922149658203125" lon="-5.63632386736571788787841796875">
        <ele>490.600006103515625</ele>
        <time>2022-06-04T08:18:17.000Z</time>
      </trkpt>
      <trkpt lat="43.44814150594174861907958984375" lon="-5.63629947602748870849609375">
        <ele>491</ele>
        <time>2022-06-04T08:18:19.000Z</time>
      </trkpt>
      <trkpt lat="43.448115773499011993408203125" lon="-5.63627860508859157562255859375">
        <ele>491.399993896484375</ele>
        <time>2022-06-04T08:18:21.000Z</time>
      </trkpt>
      <trkpt lat="43.44808920286595821380615234375" lon="-5.63625681214034557342529296875">
        <ele>491.600006103515625</ele>
        <time>2022-06-04T08:18:23.000Z</time>
      </trkpt>
      <trkpt lat="43.44806288368999958038330078125" lon="-5.63623418100178241729736328125">
        <ele>492</ele>
        <time>2022-06-04T08:18:25.000Z</time>
      </trkpt>
      <trkpt lat="43.4480498917400836944580078125" lon="-5.6362225301563739776611328125">
        <ele>492</ele>
        <time>2022-06-04T08:18:26.000Z</time>
      </trkpt>
      <trkpt lat="43.44803824089467525482177734375" lon="-5.63621071167290210723876953125">
        <ele>492.20001220703125</ele>
        <time>2022-06-04T08:18:27.000Z</time>
      </trkpt>
      <trkpt lat="43.4480146877467632293701171875" lon="-5.63618673942983150482177734375">
        <ele>492.600006103515625</ele>
        <time>2022-06-04T08:18:29.000Z</time>
      </trkpt>
      <trkpt lat="43.44798895530402660369873046875" lon="-5.636163018643856048583984375">
        <ele>493</ele>
        <time>2022-06-04T08:18:31.000Z</time>
      </trkpt>
      <trkpt lat="43.44797587953507900238037109375" lon="-5.63615019433200359344482421875">
        <ele>493.20001220703125</ele>
        <time>2022-06-04T08:18:32.000Z</time>
      </trkpt>
      <trkpt lat="43.4479630552232265472412109375" lon="-5.63613309524953365325927734375">
        <ele>493.399993896484375</ele>
        <time>2022-06-04T08:18:33.000Z</time>
      </trkpt>
      <trkpt lat="43.44795006327331066131591796875" lon="-5.6361199356615543365478515625">
        <ele>493.600006103515625</ele>
        <time>2022-06-04T08:18:34.000Z</time>
      </trkpt>
      <trkpt lat="43.44793698750436305999755859375" lon="-5.63610778190195560455322265625">
        <ele>493.79998779296875</ele>
        <time>2022-06-04T08:18:35.000Z</time>
      </trkpt>
      <trkpt lat="43.44792257063090801239013671875" lon="-5.636095963418483734130859375">
        <ele>494.20001220703125</ele>
        <time>2022-06-04T08:18:36.000Z</time>
      </trkpt>
      <trkpt lat="43.4479080699384212493896484375" lon="-5.6360827200114727020263671875">
        <ele>494.399993896484375</ele>
        <time>2022-06-04T08:18:37.000Z</time>
      </trkpt>
      <trkpt lat="43.44788015820086002349853515625" lon="-5.636061094701290130615234375">
        <ele>494.79998779296875</ele>
        <time>2022-06-04T08:18:39.000Z</time>
      </trkpt>
      <trkpt lat="43.4478514082729816436767578125" lon="-5.6360387988388538360595703125">
        <ele>495</ele>
        <time>2022-06-04T08:18:41.000Z</time>
      </trkpt>
      <trkpt lat="43.44783757813274860382080078125" lon="-5.63602664507925510406494140625">
        <ele>495</ele>
        <time>2022-06-04T08:18:42.000Z</time>
      </trkpt>
      <trkpt lat="43.447822742164134979248046875" lon="-5.63601423986256122589111328125">
        <ele>495</ele>
        <time>2022-06-04T08:18:43.000Z</time>
      </trkpt>
      <trkpt lat="43.447793237864971160888671875" lon="-5.6359948776662349700927734375">
        <ele>495.20001220703125</ele>
        <time>2022-06-04T08:18:45.000Z</time>
      </trkpt>
      <trkpt lat="43.44777924008667469024658203125" lon="-5.63598758541047573089599609375">
        <ele>495.20001220703125</ele>
        <time>2022-06-04T08:18:46.000Z</time>
      </trkpt>
      <trkpt lat="43.44776499085128307342529296875" lon="-5.63598087988793849945068359375">
        <ele>495.399993896484375</ele>
        <time>2022-06-04T08:18:47.000Z</time>
      </trkpt>
      <trkpt lat="43.4477367438375949859619140625" lon="-5.63596176914870738983154296875">
        <ele>495.399993896484375</ele>
        <time>2022-06-04T08:18:49.000Z</time>
      </trkpt>
      <trkpt lat="43.4477079100906848907470703125" lon="-5.63594433479011058807373046875">
        <ele>495.79998779296875</ele>
        <time>2022-06-04T08:18:51.000Z</time>
      </trkpt>
      <trkpt lat="43.4476800821721553802490234375" lon="-5.63592388294637203216552734375">
        <ele>495.79998779296875</ele>
        <time>2022-06-04T08:18:53.000Z</time>
      </trkpt>
      <trkpt lat="43.44765552319586277008056640625" lon="-5.6359003297984600067138671875">
        <ele>496.399993896484375</ele>
        <time>2022-06-04T08:18:55.000Z</time>
      </trkpt>
      <trkpt lat="43.44763272441923618316650390625" lon="-5.635882727801799774169921875">
        <ele>496.79998779296875</ele>
        <time>2022-06-04T08:18:57.000Z</time>
      </trkpt>
      <trkpt lat="43.4476073272526264190673828125" lon="-5.63586202450096607208251953125">
        <ele>497</ele>
        <time>2022-06-04T08:18:59.000Z</time>
      </trkpt>
      <trkpt lat="43.44758125953376293182373046875" lon="-5.6358376331627368927001953125">
        <ele>497.399993896484375</ele>
        <time>2022-06-04T08:19:01.000Z</time>
      </trkpt>
      <trkpt lat="43.4475520066916942596435546875" lon="-5.63581424765288829803466796875">
        <ele>497.399993896484375</ele>
        <time>2022-06-04T08:19:03.000Z</time>
      </trkpt>
      <trkpt lat="43.44752107746899127960205078125" lon="-5.63579681329429149627685546875">
        <ele>497.79998779296875</ele>
        <time>2022-06-04T08:19:05.000Z</time>
      </trkpt>
      <trkpt lat="43.44749425537884235382080078125" lon="-5.6357772834599018096923828125">
        <ele>498.20001220703125</ele>
        <time>2022-06-04T08:19:07.000Z</time>
      </trkpt>
      <trkpt lat="43.4474708698689937591552734375" lon="-5.6357541494071483612060546875">
        <ele>498.399993896484375</ele>
        <time>2022-06-04T08:19:09.000Z</time>
      </trkpt>
      <trkpt lat="43.4474463947117328643798828125" lon="-5.63573176972568035125732421875">
        <ele>498.79998779296875</ele>
        <time>2022-06-04T08:19:11.000Z</time>
      </trkpt>
      <trkpt lat="43.4474207460880279541015625" lon="-5.63570796512067317962646484375">
        <ele>499</ele>
        <time>2022-06-04T08:19:13.000Z</time>
      </trkpt>
      <trkpt lat="43.4473964385688304901123046875" lon="-5.6356827355921268463134765625">
        <ele>499.20001220703125</ele>
        <time>2022-06-04T08:19:15.000Z</time>
      </trkpt>
      <trkpt lat="43.44737154431641101837158203125" lon="-5.6356559135019779205322265625">
        <ele>499.399993896484375</ele>
        <time>2022-06-04T08:19:17.000Z</time>
      </trkpt>
      <trkpt lat="43.44734421931207180023193359375" lon="-5.63563470728695392608642578125">
        <ele>499.79998779296875</ele>
        <time>2022-06-04T08:19:19.000Z</time>
      </trkpt>
      <trkpt lat="43.44731756485998630523681640625" lon="-5.63561341725289821624755859375">
        <ele>499.79998779296875</ele>
        <time>2022-06-04T08:19:21.000Z</time>
      </trkpt>
      <trkpt lat="43.44729258678853511810302734375" lon="-5.63558676280081272125244140625">
        <ele>500.20001220703125</ele>
        <time>2022-06-04T08:19:23.000Z</time>
      </trkpt>
      <trkpt lat="43.447269536554813385009765625" lon="-5.6355573423206806182861328125">
        <ele>500.20001220703125</ele>
        <time>2022-06-04T08:19:25.000Z</time>
      </trkpt>
      <trkpt lat="43.44725755043327808380126953125" lon="-5.63554384745657444000244140625">
        <ele>500.399993896484375</ele>
        <time>2022-06-04T08:19:26.000Z</time>
      </trkpt>
      <trkpt lat="43.4472445584833621978759765625" lon="-5.63553295098245143890380859375">
        <ele>500.399993896484375</ele>
        <time>2022-06-04T08:19:27.000Z</time>
      </trkpt>
      <trkpt lat="43.447218574583530426025390625" lon="-5.635513924062252044677734375">
        <ele>500.399993896484375</ele>
        <time>2022-06-04T08:19:29.000Z</time>
      </trkpt>
      <trkpt lat="43.4472053311765193939208984375" lon="-5.63550378195941448211669921875">
        <ele>500.600006103515625</ele>
        <time>2022-06-04T08:19:30.000Z</time>
      </trkpt>
      <trkpt lat="43.4471922554075717926025390625" lon="-5.63549213111400604248046875">
        <ele>500.399993896484375</ele>
        <time>2022-06-04T08:19:31.000Z</time>
      </trkpt>
      <trkpt lat="43.44716769643127918243408203125" lon="-5.63546924851834774017333984375">
        <ele>500.79998779296875</ele>
        <time>2022-06-04T08:19:33.000Z</time>
      </trkpt>
      <trkpt lat="43.44715453684329986572265625" lon="-5.63545851968228816986083984375">
        <ele>500.79998779296875</ele>
        <time>2022-06-04T08:19:34.000Z</time>
      </trkpt>
      <trkpt lat="43.44714120961725711822509765625" lon="-5.6354470364749431610107421875">
        <ele>501</ele>
        <time>2022-06-04T08:19:35.000Z</time>
      </trkpt>
      <trkpt lat="43.4471168182790279388427734375" lon="-5.63542197458446025848388671875">
        <ele>501.399993896484375</ele>
        <time>2022-06-04T08:19:37.000Z</time>
      </trkpt>
      <trkpt lat="43.44710550270974636077880859375" lon="-5.63540764153003692626953125">
        <ele>501.600006103515625</ele>
        <time>2022-06-04T08:19:38.000Z</time>
      </trkpt>
      <trkpt lat="43.44709360040724277496337890625" lon="-5.6353920511901378631591796875">
        <ele>501.600006103515625</ele>
        <time>2022-06-04T08:19:39.000Z</time>
      </trkpt>
      <trkpt lat="43.44706761650741100311279296875" lon="-5.6353627145290374755859375">
        <ele>502</ele>
        <time>2022-06-04T08:19:41.000Z</time>
      </trkpt>
      <trkpt lat="43.4470437280833721160888671875" lon="-5.63533832319080829620361328125">
        <ele>502.20001220703125</ele>
        <time>2022-06-04T08:19:43.000Z</time>
      </trkpt>
      <trkpt lat="43.44703090377151966094970703125" lon="-5.63532717525959014892578125">
        <ele>502.399993896484375</ele>
        <time>2022-06-04T08:19:44.000Z</time>
      </trkpt>
      <trkpt lat="43.4470169059932231903076171875" lon="-5.6353166140615940093994140625">
        <ele>502.600006103515625</ele>
        <time>2022-06-04T08:19:45.000Z</time>
      </trkpt>
      <trkpt lat="43.4469900839030742645263671875" lon="-5.63529239036142826080322265625">
        <ele>502.79998779296875</ele>
        <time>2022-06-04T08:19:47.000Z</time>
      </trkpt>
      <trkpt lat="43.44696586020290851593017578125" lon="-5.635264478623867034912109375">
        <ele>503</ele>
        <time>2022-06-04T08:19:49.000Z</time>
      </trkpt>
      <trkpt lat="43.44694524072110652923583984375" lon="-5.63523137010633945465087890625">
        <ele>503.20001220703125</ele>
        <time>2022-06-04T08:19:51.000Z</time>
      </trkpt>
      <trkpt lat="43.4469377808272838592529296875" lon="-5.63521276228129863739013671875">
        <ele>503.399993896484375</ele>
        <time>2022-06-04T08:19:52.000Z</time>
      </trkpt>
      <trkpt lat="43.44692981801927089691162109375" lon="-5.635195411741733551025390625">
        <ele>503.399993896484375</ele>
        <time>2022-06-04T08:19:53.000Z</time>
      </trkpt>
      <trkpt lat="43.446913473308086395263671875" lon="-5.6351627223193645477294921875">
        <ele>503.600006103515625</ele>
        <time>2022-06-04T08:19:55.000Z</time>
      </trkpt>
      <trkpt lat="43.44690115191042423248291015625" lon="-5.63512609340250492095947265625">
        <ele>503.79998779296875</ele>
        <time>2022-06-04T08:19:57.000Z</time>
      </trkpt>
      <trkpt lat="43.4468868188560009002685546875" lon="-5.6350949965417385101318359375">
        <ele>504</ele>
        <time>2022-06-04T08:19:59.000Z</time>
      </trkpt>
      <trkpt lat="43.4468817897140979766845703125" lon="-5.6350782327353954315185546875">
        <ele>504</ele>
        <time>2022-06-04T08:20:00.000Z</time>
      </trkpt>
      <trkpt lat="43.446875922381877899169921875" lon="-5.635060630738735198974609375">
        <ele>504</ele>
        <time>2022-06-04T08:20:01.000Z</time>
      </trkpt>
      <trkpt lat="43.44685438089072704315185546875" lon="-5.6350329704582691192626953125">
        <ele>504.20001220703125</ele>
        <time>2022-06-04T08:20:03.000Z</time>
      </trkpt>
      <trkpt lat="43.44682755880057811737060546875" lon="-5.63501629047095775604248046875">
        <ele>504.399993896484375</ele>
        <time>2022-06-04T08:20:05.000Z</time>
      </trkpt>
      <trkpt lat="43.446799479424953460693359375" lon="-5.6350064836442470550537109375">
        <ele>504.399993896484375</ele>
        <time>2022-06-04T08:20:07.000Z</time>
      </trkpt>
      <trkpt lat="43.44677022658288478851318359375" lon="-5.63500153832137584686279296875">
        <ele>504.600006103515625</ele>
        <time>2022-06-04T08:20:09.000Z</time>
      </trkpt>
      <trkpt lat="43.44674290157854557037353515625" lon="-5.63500371761620044708251953125">
        <ele>504.79998779296875</ele>
        <time>2022-06-04T08:20:11.000Z</time>
      </trkpt>
      <trkpt lat="43.44672949053347110748291015625" lon="-5.6350111775100231170654296875">
        <ele>505</ele>
        <time>2022-06-04T08:20:12.000Z</time>
      </trkpt>
      <trkpt lat="43.44671339727938175201416015625" lon="-5.63501880504190921783447265625">
        <ele>505</ele>
        <time>2022-06-04T08:20:13.000Z</time>
      </trkpt>
      <trkpt lat="43.44668322242796421051025390625" lon="-5.63502785749733448028564453125">
        <ele>505.20001220703125</ele>
        <time>2022-06-04T08:20:15.000Z</time>
      </trkpt>
      <trkpt lat="43.4466521255671977996826171875" lon="-5.635027103126049041748046875">
        <ele>505.600006103515625</ele>
        <time>2022-06-04T08:20:17.000Z</time>
      </trkpt>
      <trkpt lat="43.4466373734176158905029296875" lon="-5.63502810895442962646484375">
        <ele>505.79998779296875</ele>
        <time>2022-06-04T08:20:18.000Z</time>
      </trkpt>
      <trkpt lat="43.4466226212680339813232421875" lon="-5.63502819277346134185791015625">
        <ele>506</ele>
        <time>2022-06-04T08:20:19.000Z</time>
      </trkpt>
      <trkpt lat="43.44659253023564815521240234375" lon="-5.6350302882492542266845703125">
        <ele>506.399993896484375</ele>
        <time>2022-06-04T08:20:21.000Z</time>
      </trkpt>
      <trkpt lat="43.4465605951845645904541015625" lon="-5.63503389246761798858642578125">
        <ele>506.600006103515625</ele>
        <time>2022-06-04T08:20:23.000Z</time>
      </trkpt>
      <trkpt lat="43.44654441811144351959228515625" lon="-5.63503473065793514251708984375">
        <ele>507</ele>
        <time>2022-06-04T08:20:24.000Z</time>
      </trkpt>
      <trkpt lat="43.4465280734002590179443359375" lon="-5.63503682613372802734375">
        <ele>507.20001220703125</ele>
        <time>2022-06-04T08:20:25.000Z</time>
      </trkpt>
      <trkpt lat="43.446496389806270599365234375" lon="-5.6350403465330600738525390625">
        <ele>507.399993896484375</ele>
        <time>2022-06-04T08:20:27.000Z</time>
      </trkpt>
      <trkpt lat="43.4464807994663715362548828125" lon="-5.63504227437078952789306640625">
        <ele>507.600006103515625</ele>
        <time>2022-06-04T08:20:28.000Z</time>
      </trkpt>
      <trkpt lat="43.446465544402599334716796875" lon="-5.635045208036899566650390625">
        <ele>507.79998779296875</ele>
        <time>2022-06-04T08:20:29.000Z</time>
      </trkpt>
      <trkpt lat="43.44645070843398571014404296875" lon="-5.63504478894174098968505859375">
        <ele>508</ele>
        <time>2022-06-04T08:20:30.000Z</time>
      </trkpt>
      <trkpt lat="43.44643578864634037017822265625" lon="-5.6350413523614406585693359375">
        <ele>508.20001220703125</ele>
        <time>2022-06-04T08:20:31.000Z</time>
      </trkpt>
      <trkpt lat="43.44640779308974742889404296875" lon="-5.63503255136311054229736328125">
        <ele>508.20001220703125</ele>
        <time>2022-06-04T08:20:33.000Z</time>
      </trkpt>
      <trkpt lat="43.4463798813521862030029296875" lon="-5.63502383418381214141845703125">
        <ele>508.600006103515625</ele>
        <time>2022-06-04T08:20:35.000Z</time>
      </trkpt>
      <trkpt lat="43.44636571593582630157470703125" lon="-5.6350185535848140716552734375">
        <ele>508.79998779296875</ele>
        <time>2022-06-04T08:20:36.000Z</time>
      </trkpt>
      <trkpt lat="43.4463520534336566925048828125" lon="-5.6350118480622768402099609375">
        <ele>509</ele>
        <time>2022-06-04T08:20:37.000Z</time>
      </trkpt>
      <trkpt lat="43.44633772037923336029052734375" lon="-5.63500589691102504730224609375">
        <ele>509</ele>
        <time>2022-06-04T08:20:38.000Z</time>
      </trkpt>
      <trkpt lat="43.4463237226009368896484375" lon="-5.63499952666461467742919921875">
        <ele>509.20001220703125</ele>
        <time>2022-06-04T08:20:39.000Z</time>
      </trkpt>
      <trkpt lat="43.44629463739693164825439453125" lon="-5.63498921692371368408203125">
        <ele>509.600006103515625</ele>
        <time>2022-06-04T08:20:41.000Z</time>
      </trkpt>
      <trkpt lat="43.44626882113516330718994140625" lon="-5.63497848808765411376953125">
        <ele>510</ele>
        <time>2022-06-04T08:20:43.000Z</time>
      </trkpt>
      <trkpt lat="43.44625574536621570587158203125" lon="-5.6349736265838146209716796875">
        <ele>510.20001220703125</ele>
        <time>2022-06-04T08:20:44.000Z</time>
      </trkpt>
      <trkpt lat="43.44624266959726810455322265625" lon="-5.634968765079975128173828125">
        <ele>510.399993896484375</ele>
        <time>2022-06-04T08:20:45.000Z</time>
      </trkpt>
      <trkpt lat="43.44621769152581691741943359375" lon="-5.6349585391581058502197265625">
        <ele>511</ele>
        <time>2022-06-04T08:20:47.000Z</time>
      </trkpt>
      <trkpt lat="43.44620562158524990081787109375" lon="-5.63495434820652008056640625">
        <ele>511.399993896484375</ele>
        <time>2022-06-04T08:20:48.000Z</time>
      </trkpt>
      <trkpt lat="43.44619304873049259185791015625" lon="-5.6349508278071880340576171875">
        <ele>511.600006103515625</ele>
        <time>2022-06-04T08:20:49.000Z</time>
      </trkpt>
      <trkpt lat="43.4461659751832485198974609375" lon="-5.63494764268398284912109375">
        <ele>512.20001220703125</ele>
        <time>2022-06-04T08:20:51.000Z</time>
      </trkpt>
      <trkpt lat="43.44615248031914234161376953125" lon="-5.63494454137980937957763671875">
        <ele>512.5999755859375</ele>
        <time>2022-06-04T08:20:52.000Z</time>
      </trkpt>
      <trkpt lat="43.446139991283416748046875" lon="-5.63494018279016017913818359375">
        <ele>512.79998779296875</ele>
        <time>2022-06-04T08:20:53.000Z</time>
      </trkpt>
      <trkpt lat="43.44612783752381801605224609375" lon="-5.63493548892438411712646484375">
        <ele>513</ele>
        <time>2022-06-04T08:20:54.000Z</time>
      </trkpt>
      <trkpt lat="43.44611543230712413787841796875" lon="-5.6349308788776397705078125">
        <ele>513</ele>
        <time>2022-06-04T08:20:55.000Z</time>
      </trkpt>
      <trkpt lat="43.44608844257891178131103515625" lon="-5.634924508631229400634765625">
        <ele>513.5999755859375</ele>
        <time>2022-06-04T08:20:57.000Z</time>
      </trkpt>
      <trkpt lat="43.44606346450746059417724609375" lon="-5.63491679728031158447265625">
        <ele>514</ele>
        <time>2022-06-04T08:20:59.000Z</time>
      </trkpt>
      <trkpt lat="43.44603630714118480682373046875" lon="-5.634913779795169830322265625">
        <ele>514.5999755859375</ele>
        <time>2022-06-04T08:21:01.000Z</time>
      </trkpt>
      <trkpt lat="43.44602239318192005157470703125" lon="-5.63491352833807468414306640625">
        <ele>514.79998779296875</ele>
        <time>2022-06-04T08:21:02.000Z</time>
      </trkpt>
      <trkpt lat="43.4460087306797504425048828125" lon="-5.63491302542388439178466796875">
        <ele>515</ele>
        <time>2022-06-04T08:21:03.000Z</time>
      </trkpt>
      <trkpt lat="43.44599590636789798736572265625" lon="-5.63491352833807468414306640625">
        <ele>515.4000244140625</ele>
        <time>2022-06-04T08:21:04.000Z</time>
      </trkpt>
      <trkpt lat="43.44598283059895038604736328125" lon="-5.634915791451930999755859375">
        <ele>515.5999755859375</ele>
        <time>2022-06-04T08:21:05.000Z</time>
      </trkpt>
      <trkpt lat="43.44597042538225650787353515625" lon="-5.63491771928966045379638671875">
        <ele>515.79998779296875</ele>
        <time>2022-06-04T08:21:06.000Z</time>
      </trkpt>
      <trkpt lat="43.44595869071781635284423828125" lon="-5.634919144213199615478515625">
        <ele>516.20001220703125</ele>
        <time>2022-06-04T08:21:07.000Z</time>
      </trkpt>
      <trkpt lat="43.44593438319861888885498046875" lon="-5.63492492772638797760009765625">
        <ele>516.5999755859375</ele>
        <time>2022-06-04T08:21:09.000Z</time>
      </trkpt>
      <trkpt lat="43.44591041095554828643798828125" lon="-5.6349354051053524017333984375">
        <ele>517.20001220703125</ele>
        <time>2022-06-04T08:21:11.000Z</time>
      </trkpt>
      <trkpt lat="43.44588677398860454559326171875" lon="-5.6349431164562702178955078125">
        <ele>517.5999755859375</ele>
        <time>2022-06-04T08:21:13.000Z</time>
      </trkpt>
      <trkpt lat="43.44586565159261226654052734375" lon="-5.634954683482646942138671875">
        <ele>517.79998779296875</ele>
        <time>2022-06-04T08:21:15.000Z</time>
      </trkpt>
      <trkpt lat="43.445843271911144256591796875" lon="-5.6349675916135311126708984375">
        <ele>518.20001220703125</ele>
        <time>2022-06-04T08:21:17.000Z</time>
      </trkpt>
      <trkpt lat="43.4458172880113124847412109375" lon="-5.63497454859316349029541015625">
        <ele>518.5999755859375</ele>
        <time>2022-06-04T08:21:19.000Z</time>
      </trkpt>
      <trkpt lat="43.44579222612082958221435546875" lon="-5.63498980365693569183349609375">
        <ele>519</ele>
        <time>2022-06-04T08:21:21.000Z</time>
      </trkpt>
      <trkpt lat="43.4457800723612308502197265625" lon="-5.63499868847429752349853515625">
        <ele>519.4000244140625</ele>
        <time>2022-06-04T08:21:22.000Z</time>
      </trkpt>
      <trkpt lat="43.445768170058727264404296875" lon="-5.635006316006183624267578125">
        <ele>519.5999755859375</ele>
        <time>2022-06-04T08:21:23.000Z</time>
      </trkpt>
      <trkpt lat="43.4457478858530521392822265625" lon="-5.6350282765924930572509765625">
        <ele>520</ele>
        <time>2022-06-04T08:21:25.000Z</time>
      </trkpt>
      <trkpt lat="43.44572760164737701416015625" lon="-5.63505216501653194427490234375">
        <ele>520.4000244140625</ele>
        <time>2022-06-04T08:21:27.000Z</time>
      </trkpt>
      <trkpt lat="43.4457041323184967041015625" lon="-5.635070018470287322998046875">
        <ele>520.79998779296875</ele>
        <time>2022-06-04T08:21:29.000Z</time>
      </trkpt>
      <trkpt lat="43.445681668817996978759765625" lon="-5.63509290106594562530517578125">
        <ele>521.20001220703125</ele>
        <time>2022-06-04T08:21:31.000Z</time>
      </trkpt>
      <trkpt lat="43.44567018561065196990966796875" lon="-5.63510480336844921112060546875">
        <ele>521.4000244140625</ele>
        <time>2022-06-04T08:21:32.000Z</time>
      </trkpt>
      <trkpt lat="43.4456593729555606842041015625" lon="-5.635116286575794219970703125">
        <ele>521.5999755859375</ele>
        <time>2022-06-04T08:21:33.000Z</time>
      </trkpt>
      <trkpt lat="43.44564101658761501312255859375" lon="-5.6351427733898162841796875">
        <ele>521.79998779296875</ele>
        <time>2022-06-04T08:21:35.000Z</time>
      </trkpt>
      <trkpt lat="43.44562240876257419586181640625" lon="-5.6351687572896480560302734375">
        <ele>522.20001220703125</ele>
        <time>2022-06-04T08:21:37.000Z</time>
      </trkpt>
      <trkpt lat="43.44560212455689907073974609375" lon="-5.63518946059048175811767578125">
        <ele>522.5999755859375</ele>
        <time>2022-06-04T08:21:39.000Z</time>
      </trkpt>
      <trkpt lat="43.4455819241702556610107421875" lon="-5.635212846100330352783203125">
        <ele>523</ele>
        <time>2022-06-04T08:21:41.000Z</time>
      </trkpt>
      <trkpt lat="43.44556055031716823577880859375" lon="-5.63523824326694011688232421875">
        <ele>523.4000244140625</ele>
        <time>2022-06-04T08:21:43.000Z</time>
      </trkpt>
      <trkpt lat="43.445550911128520965576171875" lon="-5.63525349833071231842041015625">
        <ele>523.5999755859375</ele>
        <time>2022-06-04T08:21:44.000Z</time>
      </trkpt>
      <trkpt lat="43.4455420263111591339111328125" lon="-5.63526816666126251220703125">
        <ele>523.79998779296875</ele>
        <time>2022-06-04T08:21:45.000Z</time>
      </trkpt>
      <trkpt lat="43.445522747933864593505859375" lon="-5.635295324027538299560546875">
        <ele>524.4000244140625</ele>
        <time>2022-06-04T08:21:47.000Z</time>
      </trkpt>
      <trkpt lat="43.44551302492618560791015625" lon="-5.63530798070132732391357421875">
        <ele>525</ele>
        <time>2022-06-04T08:21:48.000Z</time>
      </trkpt>
      <trkpt lat="43.44550271518528461456298828125" lon="-5.6353199668228626251220703125">
        <ele>525</ele>
        <time>2022-06-04T08:21:49.000Z</time>
      </trkpt>
      <trkpt lat="43.44548444263637065887451171875" lon="-5.6353451125323772430419921875">
        <ele>525.5999755859375</ele>
        <time>2022-06-04T08:21:51.000Z</time>
      </trkpt>
      <trkpt lat="43.44547471962869167327880859375" lon="-5.63535693101584911346435546875">
        <ele>525.79998779296875</ele>
        <time>2022-06-04T08:21:52.000Z</time>
      </trkpt>
      <trkpt lat="43.4454639069736003875732421875" lon="-5.63536782748997211456298828125">
        <ele>526</ele>
        <time>2022-06-04T08:21:53.000Z</time>
      </trkpt>
      <trkpt lat="43.445442281663417816162109375" lon="-5.635388195514678955078125">
        <ele>526.4000244140625</ele>
        <time>2022-06-04T08:21:55.000Z</time>
      </trkpt>
      <trkpt lat="43.445423506200313568115234375" lon="-5.635407976806163787841796875">
        <ele>526.79998779296875</ele>
        <time>2022-06-04T08:21:57.000Z</time>
      </trkpt>
      <trkpt lat="43.445415794849395751953125" lon="-5.63541996292769908905029296875">
        <ele>527</ele>
        <time>2022-06-04T08:21:58.000Z</time>
      </trkpt>
      <trkpt lat="43.445408083498477935791015625" lon="-5.63543505035340785980224609375">
        <ele>527</ele>
        <time>2022-06-04T08:21:59.000Z</time>
      </trkpt>
      <trkpt lat="43.44538771547377109527587890625" lon="-5.63546120189130306243896484375">
        <ele>527.5999755859375</ele>
        <time>2022-06-04T08:22:01.000Z</time>
      </trkpt>
      <trkpt lat="43.4453760646283626556396484375" lon="-5.63547193072736263275146484375">
        <ele>527.5999755859375</ele>
        <time>2022-06-04T08:22:02.000Z</time>
      </trkpt>
      <trkpt lat="43.4453660063445568084716796875" lon="-5.63548333011567592620849609375">
        <ele>527.5999755859375</ele>
        <time>2022-06-04T08:22:03.000Z</time>
      </trkpt>
      <trkpt lat="43.4453445486724376678466796875" lon="-5.6355060450732707977294921875">
        <ele>527.79998779296875</ele>
        <time>2022-06-04T08:22:05.000Z</time>
      </trkpt>
      <trkpt lat="43.44532468356192111968994140625" lon="-5.63553395681083202362060546875">
        <ele>528.20001220703125</ele>
        <time>2022-06-04T08:22:07.000Z</time>
      </trkpt>
      <trkpt lat="43.4453046508133411407470703125" lon="-5.6355593539774417877197265625">
        <ele>528.4000244140625</ele>
        <time>2022-06-04T08:22:09.000Z</time>
      </trkpt>
      <trkpt lat="43.44528394751250743865966796875" lon="-5.63558458350598812103271484375">
        <ele>529</ele>
        <time>2022-06-04T08:22:11.000Z</time>
      </trkpt>
      <trkpt lat="43.44526416622102260589599609375" lon="-5.63560880720615386962890625">
        <ele>529.20001220703125</ele>
        <time>2022-06-04T08:22:13.000Z</time>
      </trkpt>
      <trkpt lat="43.4452429600059986114501953125" lon="-5.63563168980181217193603515625">
        <ele>529.5999755859375</ele>
        <time>2022-06-04T08:22:15.000Z</time>
      </trkpt>
      <trkpt lat="43.4452238492667675018310546875" lon="-5.63565784133970737457275390625">
        <ele>530</ele>
        <time>2022-06-04T08:22:17.000Z</time>
      </trkpt>
      <trkpt lat="43.4452147968113422393798828125" lon="-5.63566907308995723724365234375">
        <ele>530.20001220703125</ele>
        <time>2022-06-04T08:22:18.000Z</time>
      </trkpt>
      <trkpt lat="43.44520582817494869232177734375" lon="-5.6356793828308582305908203125">
        <ele>530.20001220703125</ele>
        <time>2022-06-04T08:22:19.000Z</time>
      </trkpt>
      <trkpt lat="43.4451873041689395904541015625" lon="-5.6357021816074848175048828125">
        <ele>530.5999755859375</ele>
        <time>2022-06-04T08:22:21.000Z</time>
      </trkpt>
      <trkpt lat="43.445169366896152496337890625" lon="-5.63572607003152370452880859375">
        <ele>531</ele>
        <time>2022-06-04T08:22:23.000Z</time>
      </trkpt>
      <trkpt lat="43.44515788368880748748779296875" lon="-5.6357367150485515594482421875">
        <ele>531.20001220703125</ele>
        <time>2022-06-04T08:22:24.000Z</time>
      </trkpt>
      <trkpt lat="43.44514581374824047088623046875" lon="-5.63574518077075481414794921875">
        <ele>531.4000244140625</ele>
        <time>2022-06-04T08:22:25.000Z</time>
      </trkpt>
      <trkpt lat="43.44513483345508575439453125" lon="-5.63575305975973606109619140625">
        <ele>531.5999755859375</ele>
        <time>2022-06-04T08:22:26.000Z</time>
      </trkpt>
      <trkpt lat="43.4451246075332164764404296875" lon="-5.6357655487954616546630859375">
        <ele>531.79998779296875</ele>
        <time>2022-06-04T08:22:27.000Z</time>
      </trkpt>
      <trkpt lat="43.44510323368012905120849609375" lon="-5.63579195179045200347900390625">
        <ele>532.20001220703125</ele>
        <time>2022-06-04T08:22:29.000Z</time>
      </trkpt>
      <trkpt lat="43.44507909379899501800537109375" lon="-5.6358124874532222747802734375">
        <ele>532.5999755859375</ele>
        <time>2022-06-04T08:22:31.000Z</time>
      </trkpt>
      <trkpt lat="43.4450595639646053314208984375" lon="-5.63584090210497379302978515625">
        <ele>533</ele>
        <time>2022-06-04T08:22:33.000Z</time>
      </trkpt>
      <trkpt lat="43.4450394473969936370849609375" lon="-5.63586437143385410308837890625">
        <ele>533.4000244140625</ele>
        <time>2022-06-04T08:22:35.000Z</time>
      </trkpt>
      <trkpt lat="43.4450156427919864654541015625" lon="-5.6358812190592288970947265625">
        <ele>533.5999755859375</ele>
        <time>2022-06-04T08:22:37.000Z</time>
      </trkpt>
      <trkpt lat="43.444989658892154693603515625" lon="-5.63590058125555515289306640625">
        <ele>533.79998779296875</ele>
        <time>2022-06-04T08:22:39.000Z</time>
      </trkpt>
      <trkpt lat="43.4449633397161960601806640625" lon="-5.63592120073735713958740234375">
        <ele>534.20001220703125</ele>
        <time>2022-06-04T08:22:41.000Z</time>
      </trkpt>
      <trkpt lat="43.44494816847145557403564453125" lon="-5.635933689773082733154296875">
        <ele>534.4000244140625</ele>
        <time>2022-06-04T08:22:42.000Z</time>
      </trkpt>
      <trkpt lat="43.44493056647479534149169921875" lon="-5.6359482742846012115478515625">
        <ele>534.4000244140625</ele>
        <time>2022-06-04T08:22:43.000Z</time>
      </trkpt>
      <trkpt lat="43.44489787705242633819580078125" lon="-5.6359787844121456146240234375">
        <ele>534.79998779296875</ele>
        <time>2022-06-04T08:22:45.000Z</time>
      </trkpt>
      <trkpt lat="43.44485831446945667266845703125" lon="-5.63601423986256122589111328125">
        <ele>535.20001220703125</ele>
        <time>2022-06-04T08:22:47.000Z</time>
      </trkpt>
      <trkpt lat="43.44481162726879119873046875" lon="-5.63604776747524738311767578125">
        <ele>535.4000244140625</ele>
        <time>2022-06-04T08:22:49.000Z</time>
      </trkpt>
      <trkpt lat="43.444762341678142547607421875" lon="-5.63609453849494457244873046875">
        <ele>535.5999755859375</ele>
        <time>2022-06-04T08:22:51.000Z</time>
      </trkpt>
      <trkpt lat="43.44471682794392108917236328125" lon="-5.636165030300617218017578125">
        <ele>535.79998779296875</ele>
        <time>2022-06-04T08:22:53.000Z</time>
      </trkpt>
      <trkpt lat="43.44467139802873134613037109375" lon="-5.63625253736972808837890625">
        <ele>536</ele>
        <time>2022-06-04T08:22:55.000Z</time>
      </trkpt>
      <trkpt lat="43.444632589817047119140625" lon="-5.63633434474468231201171875">
        <ele>536</ele>
        <time>2022-06-04T08:22:57.000Z</time>
      </trkpt>
      <trkpt lat="43.4445851482450962066650390625" lon="-5.63640986569225788116455078125">
        <ele>536</ele>
        <time>2022-06-04T08:22:59.000Z</time>
      </trkpt>
      <trkpt lat="43.44453074969351291656494140625" lon="-5.63647071830928325653076171875">
        <ele>536.20001220703125</ele>
        <time>2022-06-04T08:23:01.000Z</time>
      </trkpt>
      <trkpt lat="43.444477021694183349609375" lon="-5.6365334987640380859375">
        <ele>536.20001220703125</ele>
        <time>2022-06-04T08:23:03.000Z</time>
      </trkpt>
      <trkpt lat="43.44441658817231655120849609375" lon="-5.63659359700977802276611328125">
        <ele>536.4000244140625</ele>
        <time>2022-06-04T08:23:05.000Z</time>
      </trkpt>
      <trkpt lat="43.44438758678734302520751953125" lon="-5.636623017489910125732421875">
        <ele>536.4000244140625</ele>
        <time>2022-06-04T08:23:06.000Z</time>
      </trkpt>
      <trkpt lat="43.44436101615428924560546875" lon="-5.63665210269391536712646484375">
        <ele>536.4000244140625</ele>
        <time>2022-06-04T08:23:07.000Z</time>
      </trkpt>
      <trkpt lat="43.4443189390003681182861328125" lon="-5.636703483760356903076171875">
        <ele>536.4000244140625</ele>
        <time>2022-06-04T08:23:09.000Z</time>
      </trkpt>
      <trkpt lat="43.44430091790854930877685546875" lon="-5.63673022203147411346435546875">
        <ele>536.4000244140625</ele>
        <time>2022-06-04T08:23:10.000Z</time>
      </trkpt>
      <trkpt lat="43.44428515993058681488037109375" lon="-5.63675721175968647003173828125">
        <ele>536.5999755859375</ele>
        <time>2022-06-04T08:23:11.000Z</time>
      </trkpt>
      <trkpt lat="43.44427116215229034423828125" lon="-5.63678286038339138031005859375">
        <ele>536.5999755859375</ele>
        <time>2022-06-04T08:23:12.000Z</time>
      </trkpt>
      <trkpt lat="43.44425649382174015045166015625" lon="-5.6368079222738742828369140625">
        <ele>536.5999755859375</ele>
        <time>2022-06-04T08:23:13.000Z</time>
      </trkpt>
      <trkpt lat="43.4442176856100559234619140625" lon="-5.6368553638458251953125">
        <ele>536.79998779296875</ele>
        <time>2022-06-04T08:23:15.000Z</time>
      </trkpt>
      <trkpt lat="43.4441673941910266876220703125" lon="-5.63690657727420330047607421875">
        <ele>537.20001220703125</ele>
        <time>2022-06-04T08:23:17.000Z</time>
      </trkpt>
      <trkpt lat="43.4441402368247509002685546875" lon="-5.63692979514598846435546875">
        <ele>537.20001220703125</ele>
        <time>2022-06-04T08:23:18.000Z</time>
      </trkpt>
      <trkpt lat="43.44411148689687252044677734375" lon="-5.636951923370361328125">
        <ele>537.4000244140625</ele>
        <time>2022-06-04T08:23:19.000Z</time>
      </trkpt>
      <trkpt lat="43.44408382661640644073486328125" lon="-5.63697338104248046875">
        <ele>537.5999755859375</ele>
        <time>2022-06-04T08:23:20.000Z</time>
      </trkpt>
      <trkpt lat="43.44405549578368663787841796875" lon="-5.63699425198137760162353515625">
        <ele>537.5999755859375</ele>
        <time>2022-06-04T08:23:21.000Z</time>
      </trkpt>
      <trkpt lat="43.44399799592792987823486328125" lon="-5.6370402686297893524169921875">
        <ele>537.5999755859375</ele>
        <time>2022-06-04T08:23:23.000Z</time>
      </trkpt>
      <trkpt lat="43.4439394064247608184814453125" lon="-5.63708377070724964141845703125">
        <ele>537.5999755859375</ele>
        <time>2022-06-04T08:23:25.000Z</time>
      </trkpt>
      <trkpt lat="43.44390948303043842315673828125" lon="-5.6371069885790348052978515625">
        <ele>537.5999755859375</ele>
        <time>2022-06-04T08:23:26.000Z</time>
      </trkpt>
      <trkpt lat="43.44387997873127460479736328125" lon="-5.63713205046951770782470703125">
        <ele>537.79998779296875</ele>
        <time>2022-06-04T08:23:27.000Z</time>
      </trkpt>
      <trkpt lat="43.4438185393810272216796875" lon="-5.63718116842210292816162109375">
        <ele>537.79998779296875</ele>
        <time>2022-06-04T08:23:29.000Z</time>
      </trkpt>
      <trkpt lat="43.44375617802143096923828125" lon="-5.63723623752593994140625">
        <ele>537.79998779296875</ele>
        <time>2022-06-04T08:23:31.000Z</time>
      </trkpt>
      <trkpt lat="43.44369021244347095489501953125" lon="-5.63729516230523586273193359375">
        <ele>537.79998779296875</ele>
        <time>2022-06-04T08:23:33.000Z</time>
      </trkpt>
      <trkpt lat="43.44365693628787994384765625" lon="-5.637320391833782196044921875">
        <ele>537.79998779296875</ele>
        <time>2022-06-04T08:23:34.000Z</time>
      </trkpt>
      <trkpt lat="43.44362382777035236358642578125" lon="-5.63733908347785472869873046875">
        <ele>537.79998779296875</ele>
        <time>2022-06-04T08:23:35.000Z</time>
      </trkpt>
      <trkpt lat="43.44355962239205837249755859375" lon="-5.6373708508908748626708984375">
        <ele>537.79998779296875</ele>
        <time>2022-06-04T08:23:37.000Z</time>
      </trkpt>
      <trkpt lat="43.44349189661443233489990234375" lon="-5.637408904731273651123046875">
        <ele>537.79998779296875</ele>
        <time>2022-06-04T08:23:39.000Z</time>
      </trkpt>
      <trkpt lat="43.44345451332628726959228515625" lon="-5.63742960803210735321044921875">
        <ele>537.79998779296875</ele>
        <time>2022-06-04T08:23:40.000Z</time>
      </trkpt>
      <trkpt lat="43.443416543304920196533203125" lon="-5.63745156861841678619384765625">
        <ele>537.79998779296875</ele>
        <time>2022-06-04T08:23:41.000Z</time>
      </trkpt>
      <trkpt lat="43.44333331100642681121826171875" lon="-5.63749213702976703643798828125">
        <ele>537.79998779296875</ele>
        <time>2022-06-04T08:23:43.000Z</time>
      </trkpt>
      <trkpt lat="43.44323909841477870941162109375" lon="-5.63753002323210239410400390625">
        <ele>537.5999755859375</ele>
        <time>2022-06-04T08:23:45.000Z</time>
      </trkpt>
      <trkpt lat="43.4431907348334789276123046875" lon="-5.63754829578101634979248046875">
        <ele>537.5999755859375</ele>
        <time>2022-06-04T08:23:46.000Z</time>
      </trkpt>
      <trkpt lat="43.4431411139667034149169921875" lon="-5.6375636346638202667236328125">
        <ele>537.5999755859375</ele>
        <time>2022-06-04T08:23:47.000Z</time>
      </trkpt>
      <trkpt lat="43.44304581172764301300048828125" lon="-5.6375911273062229156494140625">
        <ele>537.5999755859375</ele>
        <time>2022-06-04T08:23:49.000Z</time>
      </trkpt>
      <trkpt lat="43.44300239346921443939208984375" lon="-5.6376065500080585479736328125">
        <ele>537.5999755859375</ele>
        <time>2022-06-04T08:23:50.000Z</time>
      </trkpt>
      <trkpt lat="43.44296098686754703521728515625" lon="-5.63762876205146312713623046875">
        <ele>537.4000244140625</ele>
        <time>2022-06-04T08:23:51.000Z</time>
      </trkpt>
      <trkpt lat="43.4429194964468479156494140625" lon="-5.63765541650354862213134765625">
        <ele>537.4000244140625</ele>
        <time>2022-06-04T08:23:52.000Z</time>
      </trkpt>
      <trkpt lat="43.442878425121307373046875" lon="-5.63768307678401470184326171875">
        <ele>537.20001220703125</ele>
        <time>2022-06-04T08:23:53.000Z</time>
      </trkpt>
      <trkpt lat="43.44280022196471691131591796875" lon="-5.63773269765079021453857421875">
        <ele>536.79998779296875</ele>
        <time>2022-06-04T08:23:55.000Z</time>
      </trkpt>
      <trkpt lat="43.44273635186254978179931640625" lon="-5.63779220916330814361572265625">
        <ele>536.79998779296875</ele>
        <time>2022-06-04T08:23:57.000Z</time>
      </trkpt>
      <trkpt lat="43.44270550645887851715087890625" lon="-5.63781618140637874603271484375">
        <ele>536.5999755859375</ele>
        <time>2022-06-04T08:23:58.000Z</time>
      </trkpt>
      <trkpt lat="43.4426786005496978759765625" lon="-5.63784065656363964080810546875">
        <ele>536.5999755859375</ele>
        <time>2022-06-04T08:23:59.000Z</time>
      </trkpt>
      <trkpt lat="43.44266292639076709747314453125" lon="-5.63787259161472320556640625">
        <ele>536.5999755859375</ele>
        <time>2022-06-04T08:24:00.000Z</time>
      </trkpt>
      <trkpt lat="43.4426593221724033355712890625" lon="-5.63790184445679187774658203125">
        <ele>536.5999755859375</ele>
        <time>2022-06-04T08:24:01.000Z</time>
      </trkpt>
      <trkpt lat="43.44267164357006549835205078125" lon="-5.6379374675452709197998046875">
        <ele>536.5999755859375</ele>
        <time>2022-06-04T08:24:03.000Z</time>
      </trkpt>
      <trkpt lat="43.4427029080688953399658203125" lon="-5.637957416474819183349609375">
        <ele>536.5999755859375</ele>
        <time>2022-06-04T08:24:05.000Z</time>
      </trkpt>
      <trkpt lat="43.442720510065555572509765625" lon="-5.6379686482250690460205078125">
        <ele>536.5999755859375</ele>
        <time>2022-06-04T08:24:06.000Z</time>
      </trkpt>
      <trkpt lat="43.44273534603416919708251953125" lon="-5.63797795213758945465087890625">
        <ele>536.5999755859375</ele>
        <time>2022-06-04T08:24:07.000Z</time>
      </trkpt>
      <trkpt lat="43.44276619143784046173095703125" lon="-5.63799999654293060302734375">
        <ele>537</ele>
        <time>2022-06-04T08:24:09.000Z</time>
      </trkpt>
      <trkpt lat="43.44279368408024311065673828125" lon="-5.638036541640758514404296875">
        <ele>537.20001220703125</ele>
        <time>2022-06-04T08:24:11.000Z</time>
      </trkpt>
      <trkpt lat="43.44280508346855640411376953125" lon="-5.6380648724734783172607421875">
        <ele>537.4000244140625</ele>
        <time>2022-06-04T08:24:12.000Z</time>
      </trkpt>
      <trkpt lat="43.4428152255713939666748046875" lon="-5.63809345476329326629638671875">
        <ele>537.5999755859375</ele>
        <time>2022-06-04T08:24:13.000Z</time>
      </trkpt>
      <trkpt lat="43.4428293071687221527099609375" lon="-5.63814709894359111785888671875">
        <ele>538</ele>
        <time>2022-06-04T08:24:15.000Z</time>
      </trkpt>
      <trkpt lat="43.44284154474735260009765625" lon="-5.63819688744843006134033203125">
        <ele>538.4000244140625</ele>
        <time>2022-06-04T08:24:17.000Z</time>
      </trkpt>
      <trkpt lat="43.44284481368958950042724609375" lon="-5.63822303898632526397705078125">
        <ele>538.79998779296875</ele>
        <time>2022-06-04T08:24:18.000Z</time>
      </trkpt>
      <trkpt lat="43.44284732826054096221923828125" lon="-5.63824885524809360504150390625">
        <ele>539.20001220703125</ele>
        <time>2022-06-04T08:24:19.000Z</time>
      </trkpt>
      <trkpt lat="43.442853949964046478271484375" lon="-5.6382962130010128021240234375">
        <ele>539.5999755859375</ele>
        <time>2022-06-04T08:24:21.000Z</time>
      </trkpt>
      <trkpt lat="43.44285554252564907073974609375" lon="-5.6383196823298931121826171875">
        <ele>540</ele>
        <time>2022-06-04T08:24:22.000Z</time>
      </trkpt>
      <trkpt lat="43.44285571016371250152587890625" lon="-5.638344325125217437744140625">
        <ele>540.20001220703125</ele>
        <time>2022-06-04T08:24:23.000Z</time>
      </trkpt>
      <trkpt lat="43.44285554252564907073974609375" lon="-5.63839017413556575775146484375">
        <ele>540.5999755859375</ele>
        <time>2022-06-04T08:24:25.000Z</time>
      </trkpt>
      <trkpt lat="43.4428564645349979400634765625" lon="-5.6384142301976680755615234375">
        <ele>540.79998779296875</ele>
        <time>2022-06-04T08:24:26.000Z</time>
      </trkpt>
      <trkpt lat="43.44285755418241024017333984375" lon="-5.6384370289742946624755859375">
        <ele>541.20001220703125</ele>
        <time>2022-06-04T08:24:27.000Z</time>
      </trkpt>
      <trkpt lat="43.442857302725315093994140625" lon="-5.63848279416561126708984375">
        <ele>541.79998779296875</ele>
        <time>2022-06-04T08:24:29.000Z</time>
      </trkpt>
      <trkpt lat="43.4428531117737293243408203125" lon="-5.6385215185582637786865234375">
        <ele>542.20001220703125</ele>
        <time>2022-06-04T08:24:31.000Z</time>
      </trkpt>
      <trkpt lat="43.4428511001169681549072265625" lon="-5.638566277921199798583984375">
        <ele>542.79998779296875</ele>
        <time>2022-06-04T08:24:33.000Z</time>
      </trkpt>
      <trkpt lat="43.4428524412214756011962890625" lon="-5.6386113725602626800537109375">
        <ele>543.4000244140625</ele>
        <time>2022-06-04T08:24:35.000Z</time>
      </trkpt>
      <trkpt lat="43.44285671599209308624267578125" lon="-5.63865722157061100006103515625">
        <ele>543.79998779296875</ele>
        <time>2022-06-04T08:24:37.000Z</time>
      </trkpt>
      <trkpt lat="43.442861996591091156005859375" lon="-5.6387029029428958892822265625">
        <ele>544</ele>
        <time>2022-06-04T08:24:39.000Z</time>
      </trkpt>
      <trkpt lat="43.44286526553332805633544921875" lon="-5.6387498416006565093994140625">
        <ele>544.20001220703125</ele>
        <time>2022-06-04T08:24:41.000Z</time>
      </trkpt>
      <trkpt lat="43.4428678639233112335205078125" lon="-5.63877155072987079620361328125">
        <ele>544.20001220703125</ele>
        <time>2022-06-04T08:24:42.000Z</time>
      </trkpt>
      <trkpt lat="43.44287113286554813385009765625" lon="-5.63879267312586307525634765625">
        <ele>544.4000244140625</ele>
        <time>2022-06-04T08:24:43.000Z</time>
      </trkpt>
      <trkpt lat="43.442878425121307373046875" lon="-5.63880960457026958465576171875">
        <ele>544.5999755859375</ele>
        <time>2022-06-04T08:24:44.000Z</time>
      </trkpt>
      <trkpt lat="43.442890159785747528076171875" lon="-5.63882670365273952484130859375">
        <ele>544.79998779296875</ele>
        <time>2022-06-04T08:24:45.000Z</time>
      </trkpt>
      <trkpt lat="43.4429221786558628082275390625" lon="-5.63886341638863086700439453125">
        <ele>545</ele>
        <time>2022-06-04T08:24:47.000Z</time>
      </trkpt>
      <trkpt lat="43.44296358525753021240234375" lon="-5.63889610581099987030029296875">
        <ele>545.4000244140625</ele>
        <time>2022-06-04T08:24:49.000Z</time>
      </trkpt>
      <trkpt lat="43.44298303127288818359375" lon="-5.6389137916266918182373046875">
        <ele>545.5999755859375</ele>
        <time>2022-06-04T08:24:50.000Z</time>
      </trkpt>
      <trkpt lat="43.442997448146343231201171875" lon="-5.6389367580413818359375">
        <ele>545.5999755859375</ele>
        <time>2022-06-04T08:24:51.000Z</time>
      </trkpt>
      <trkpt lat="43.4430190734565258026123046875" lon="-5.63898679800331592559814453125">
        <ele>545.79998779296875</ele>
        <time>2022-06-04T08:24:53.000Z</time>
      </trkpt>
      <trkpt lat="43.4430308081209659576416015625" lon="-5.63903625123202800750732421875">
        <ele>545.79998779296875</ele>
        <time>2022-06-04T08:24:55.000Z</time>
      </trkpt>
      <trkpt lat="43.4430375136435031890869140625" lon="-5.63906206749379634857177734375">
        <ele>545.79998779296875</ele>
        <time>2022-06-04T08:24:56.000Z</time>
      </trkpt>
      <trkpt lat="43.44304346479475498199462890625" lon="-5.639088638126850128173828125">
        <ele>545.79998779296875</ele>
        <time>2022-06-04T08:24:57.000Z</time>
      </trkpt>
      <trkpt lat="43.44305318780243396759033203125" lon="-5.63914638943970203399658203125">
        <ele>545.79998779296875</ele>
        <time>2022-06-04T08:24:59.000Z</time>
      </trkpt>
      <trkpt lat="43.44305888749659061431884765625" lon="-5.6391779892146587371826171875">
        <ele>545.79998779296875</ele>
        <time>2022-06-04T08:25:00.000Z</time>
      </trkpt>
      <trkpt lat="43.4430633299052715301513671875" lon="-5.639212019741535186767578125">
        <ele>545.79998779296875</ele>
        <time>2022-06-04T08:25:01.000Z</time>
      </trkpt>
      <trkpt lat="43.443069197237491607666015625" lon="-5.63928469084203243255615234375">
        <ele>545.5999755859375</ele>
        <time>2022-06-04T08:25:03.000Z</time>
      </trkpt>
      <trkpt lat="43.44306777231395244598388671875" lon="-5.639357529580593109130859375">
        <ele>545.5999755859375</ele>
        <time>2022-06-04T08:25:05.000Z</time>
      </trkpt>
      <trkpt lat="43.44306492246687412261962890625" lon="-5.63938762061297893524169921875">
        <ele>545.4000244140625</ele>
        <time>2022-06-04T08:25:06.000Z</time>
      </trkpt>
      <trkpt lat="43.443061821162700653076171875" lon="-5.6394160352647304534912109375">
        <ele>545.4000244140625</ele>
        <time>2022-06-04T08:25:07.000Z</time>
      </trkpt>
      <trkpt lat="43.44305746257305145263671875" lon="-5.63947646878659725189208984375">
        <ele>545.20001220703125</ele>
        <time>2022-06-04T08:25:09.000Z</time>
      </trkpt>
      <trkpt lat="43.44305084086954593658447265625" lon="-5.63953380100429058074951171875">
        <ele>545</ele>
        <time>2022-06-04T08:25:11.000Z</time>
      </trkpt>
      <trkpt lat="43.4430432133376598358154296875" lon="-5.639588199555873870849609375">
        <ele>545</ele>
        <time>2022-06-04T08:25:13.000Z</time>
      </trkpt>
      <trkpt lat="43.4430385194718837738037109375" lon="-5.6396198831498622894287109375">
        <ele>545</ele>
        <time>2022-06-04T08:25:14.000Z</time>
      </trkpt>
      <trkpt lat="43.44303256832063198089599609375" lon="-5.639655590057373046875">
        <ele>545</ele>
        <time>2022-06-04T08:25:15.000Z</time>
      </trkpt>
      <trkpt lat="43.44301697798073291778564453125" lon="-5.6397342123091220855712890625">
        <ele>545</ele>
        <time>2022-06-04T08:25:17.000Z</time>
      </trkpt>
      <trkpt lat="43.44299837015569210052490234375" lon="-5.63981719315052032470703125">
        <ele>544.79998779296875</ele>
        <time>2022-06-04T08:25:19.000Z</time>
      </trkpt>
      <trkpt lat="43.44296970404684543609619140625" lon="-5.63990361057221889495849609375">
        <ele>544.79998779296875</ele>
        <time>2022-06-04T08:25:21.000Z</time>
      </trkpt>
      <trkpt lat="43.442935086786746978759765625" lon="-5.63999866135418415069580078125">
        <ele>544.79998779296875</ele>
        <time>2022-06-04T08:25:23.000Z</time>
      </trkpt>
      <trkpt lat="43.44289845786988735198974609375" lon="-5.64010025002062320709228515625">
        <ele>544.5999755859375</ele>
        <time>2022-06-04T08:25:25.000Z</time>
      </trkpt>
      <trkpt lat="43.44286828301846981048583984375" lon="-5.64019345678389072418212890625">
        <ele>544.5999755859375</ele>
        <time>2022-06-04T08:25:27.000Z</time>
      </trkpt>
      <trkpt lat="43.44285487197339534759521484375" lon="-5.64024140127003192901611328125">
        <ele>544.4000244140625</ele>
        <time>2022-06-04T08:25:28.000Z</time>
      </trkpt>
      <trkpt lat="43.4428433887660503387451171875" lon="-5.6402899324893951416015625">
        <ele>544.20001220703125</ele>
        <time>2022-06-04T08:25:29.000Z</time>
      </trkpt>
      <trkpt lat="43.4428266249597072601318359375" lon="-5.64038691110908985137939453125">
        <ele>543.5999755859375</ele>
        <time>2022-06-04T08:25:31.000Z</time>
      </trkpt>
      <trkpt lat="43.442813716828823089599609375" lon="-5.64050274901092052459716796875">
        <ele>543.4000244140625</ele>
        <time>2022-06-04T08:25:33.000Z</time>
      </trkpt>
      <trkpt lat="43.4428014792501926422119140625" lon="-5.64061355777084827423095703125">
        <ele>542.79998779296875</ele>
        <time>2022-06-04T08:25:35.000Z</time>
      </trkpt>
      <trkpt lat="43.44278387725353240966796875" lon="-5.640691928565502166748046875">
        <ele>542.20001220703125</ele>
        <time>2022-06-04T08:25:37.000Z</time>
      </trkpt>
      <trkpt lat="43.44277759082615375518798828125" lon="-5.6407229416072368621826171875">
        <ele>541.5999755859375</ele>
        <time>2022-06-04T08:25:38.000Z</time>
      </trkpt>
      <trkpt lat="43.44277490861713886260986328125" lon="-5.64075169153511524200439453125">
        <ele>541</ele>
        <time>2022-06-04T08:25:39.000Z</time>
      </trkpt>
      <trkpt lat="43.4427709691226482391357421875" lon="-5.64080826938152313232421875">
        <ele>540.4000244140625</ele>
        <time>2022-06-04T08:25:41.000Z</time>
      </trkpt>
      <trkpt lat="43.44276971183717250823974609375" lon="-5.64086752943694591522216796875">
        <ele>540.20001220703125</ele>
        <time>2022-06-04T08:25:43.000Z</time>
      </trkpt>
      <trkpt lat="43.44277390278875827789306640625" lon="-5.64092720858752727508544921875">
        <ele>540</ele>
        <time>2022-06-04T08:25:45.000Z</time>
      </trkpt>
      <trkpt lat="43.44277641735970973968505859375" lon="-5.64095721580088138580322265625">
        <ele>540</ele>
        <time>2022-06-04T08:25:46.000Z</time>
      </trkpt>
      <trkpt lat="43.4427803568542003631591796875" lon="-5.6409851275384426116943359375">
        <ele>540</ele>
        <time>2022-06-04T08:25:47.000Z</time>
      </trkpt>
      <trkpt lat="43.44278848730027675628662109375" lon="-5.641036927700042724609375">
        <ele>540</ele>
        <time>2022-06-04T08:25:49.000Z</time>
      </trkpt>
      <trkpt lat="43.44279938377439975738525390625" lon="-5.64109300263226032257080078125">
        <ele>540</ele>
        <time>2022-06-04T08:25:51.000Z</time>
      </trkpt>
      <trkpt lat="43.4428031556308269500732421875" lon="-5.641122758388519287109375">
        <ele>540</ele>
        <time>2022-06-04T08:25:52.000Z</time>
      </trkpt>
      <trkpt lat="43.4428088553249835968017578125" lon="-5.6411507539451122283935546875">
        <ele>540</ele>
        <time>2022-06-04T08:25:53.000Z</time>
      </trkpt>
      <trkpt lat="43.44282452948391437530517578125" lon="-5.6412077508866786956787109375">
        <ele>540</ele>
        <time>2022-06-04T08:25:55.000Z</time>
      </trkpt>
      <trkpt lat="43.44283442012965679168701171875" lon="-5.6412721239030361175537109375">
        <ele>540.20001220703125</ele>
        <time>2022-06-04T08:25:57.000Z</time>
      </trkpt>
      <trkpt lat="43.4428395330905914306640625" lon="-5.64130892045795917510986328125">
        <ele>540.20001220703125</ele>
        <time>2022-06-04T08:25:58.000Z</time>
      </trkpt>
      <trkpt lat="43.4428440593183040618896484375" lon="-5.64134798012673854827880859375">
        <ele>540.20001220703125</ele>
        <time>2022-06-04T08:25:59.000Z</time>
      </trkpt>
      <trkpt lat="43.44284699298441410064697265625" lon="-5.64142995513975620269775390625">
        <ele>540.20001220703125</ele>
        <time>2022-06-04T08:26:01.000Z</time>
      </trkpt>
      <trkpt lat="43.44285101629793643951416015625" lon="-5.641498267650604248046875">
        <ele>540.20001220703125</ele>
        <time>2022-06-04T08:26:03.000Z</time>
      </trkpt>
      <trkpt lat="43.44285705126821994781494140625" lon="-5.64153137616813182830810546875">
        <ele>540.20001220703125</ele>
        <time>2022-06-04T08:26:04.000Z</time>
      </trkpt>
      <trkpt lat="43.4428658522665500640869140625" lon="-5.64156473614275455474853515625">
        <ele>540.20001220703125</ele>
        <time>2022-06-04T08:26:05.000Z</time>
      </trkpt>
      <trkpt lat="43.44288286752998828887939453125" lon="-5.64163296483457088470458984375">
        <ele>540.20001220703125</ele>
        <time>2022-06-04T08:26:07.000Z</time>
      </trkpt>
      <trkpt lat="43.44289560802280902862548828125" lon="-5.6417012773454189300537109375">
        <ele>540</ele>
        <time>2022-06-04T08:26:09.000Z</time>
      </trkpt>
      <trkpt lat="43.44290734268724918365478515625" lon="-5.64177528955042362213134765625">
        <ele>540</ele>
        <time>2022-06-04T08:26:11.000Z</time>
      </trkpt>
      <trkpt lat="43.4429141320288181304931640625" lon="-5.641810409724712371826171875">
        <ele>540</ele>
        <time>2022-06-04T08:26:12.000Z</time>
      </trkpt>
      <trkpt lat="43.44292092137038707733154296875" lon="-5.64184435643255710601806640625">
        <ele>540</ele>
        <time>2022-06-04T08:26:13.000Z</time>
      </trkpt>
      <trkpt lat="43.44293332658708095550537109375" lon="-5.64192163757979869842529296875">
        <ele>540</ele>
        <time>2022-06-04T08:26:15.000Z</time>
      </trkpt>
      <trkpt lat="43.44294791109859943389892578125" lon="-5.64201082102954387664794921875">
        <ele>539.79998779296875</ele>
        <time>2022-06-04T08:26:17.000Z</time>
      </trkpt>
      <trkpt lat="43.4429520182311534881591796875" lon="-5.6420606933534145355224609375">
        <ele>539.79998779296875</ele>
        <time>2022-06-04T08:26:18.000Z</time>
      </trkpt>
      <trkpt lat="43.44295612536370754241943359375" lon="-5.64211224205791950225830078125">
        <ele>539.79998779296875</ele>
        <time>2022-06-04T08:26:19.000Z</time>
      </trkpt>
      <trkpt lat="43.4429607354104518890380859375" lon="-5.64221248961985111236572265625">
        <ele>539.79998779296875</ele>
        <time>2022-06-04T08:26:21.000Z</time>
      </trkpt>
      <trkpt lat="43.44295444898307323455810546875" lon="-5.6422984041273593902587890625">
        <ele>539.79998779296875</ele>
        <time>2022-06-04T08:26:23.000Z</time>
      </trkpt>
      <trkpt lat="43.4429516829550266265869140625" lon="-5.6423399783670902252197265625">
        <ele>539.5999755859375</ele>
        <time>2022-06-04T08:26:24.000Z</time>
      </trkpt>
      <trkpt lat="43.44294841401278972625732421875" lon="-5.6423802115023136138916015625">
        <ele>539.4000244140625</ele>
        <time>2022-06-04T08:26:25.000Z</time>
      </trkpt>
      <trkpt lat="43.44294003210961818695068359375" lon="-5.64245590008795261383056640625">
        <ele>538.5999755859375</ele>
        <time>2022-06-04T08:26:27.000Z</time>
      </trkpt>
      <trkpt lat="43.4429282136261463165283203125" lon="-5.64252463169395923614501953125">
        <ele>538.4000244140625</ele>
        <time>2022-06-04T08:26:29.000Z</time>
      </trkpt>
      <trkpt lat="43.442919664084911346435546875" lon="-5.64259939827024936676025390625">
        <ele>538.4000244140625</ele>
        <time>2022-06-04T08:26:31.000Z</time>
      </trkpt>
      <trkpt lat="43.44290901906788349151611328125" lon="-5.64269210211932659149169921875">
        <ele>538.20001220703125</ele>
        <time>2022-06-04T08:26:33.000Z</time>
      </trkpt>
      <trkpt lat="43.44288655556738376617431640625" lon="-5.64278681762516498565673828125">
        <ele>538</ele>
        <time>2022-06-04T08:26:35.000Z</time>
      </trkpt>
      <trkpt lat="43.44286895357072353363037109375" lon="-5.6428324989974498748779296875">
        <ele>538</ele>
        <time>2022-06-04T08:26:36.000Z</time>
      </trkpt>
      <trkpt lat="43.44284556806087493896484375" lon="-5.64287935383617877960205078125">
        <ele>537.79998779296875</ele>
        <time>2022-06-04T08:26:37.000Z</time>
      </trkpt>
      <trkpt lat="43.44281732104718685150146484375" lon="-5.64292478375136852264404296875">
        <ele>537.5999755859375</ele>
        <time>2022-06-04T08:26:38.000Z</time>
      </trkpt>
      <trkpt lat="43.44278513453900814056396484375" lon="-5.64296568743884563446044921875">
        <ele>537.4000244140625</ele>
        <time>2022-06-04T08:26:39.000Z</time>
      </trkpt>
      <trkpt lat="43.442719168961048126220703125" lon="-5.64303860999643802642822265625">
        <ele>537</ele>
        <time>2022-06-04T08:26:41.000Z</time>
      </trkpt>
      <trkpt lat="43.4426539577543735504150390625" lon="-5.64310398884117603302001953125">
        <ele>536.79998779296875</ele>
        <time>2022-06-04T08:26:43.000Z</time>
      </trkpt>
      <trkpt lat="43.44261850230395793914794921875" lon="-5.6431332416832447052001953125">
        <ele>536.4000244140625</ele>
        <time>2022-06-04T08:26:44.000Z</time>
      </trkpt>
      <trkpt lat="43.4425815381109714508056640625" lon="-5.64315997995436191558837890625">
        <ele>536.20001220703125</ele>
        <time>2022-06-04T08:26:45.000Z</time>
      </trkpt>
      <trkpt lat="43.4425138123333454132080078125" lon="-5.64321219921112060546875">
        <ele>535.5999755859375</ele>
        <time>2022-06-04T08:26:47.000Z</time>
      </trkpt>
      <trkpt lat="43.44244985841214656829833984375" lon="-5.6432698667049407958984375">
        <ele>535.4000244140625</ele>
        <time>2022-06-04T08:26:49.000Z</time>
      </trkpt>
      <trkpt lat="43.44239872880280017852783203125" lon="-5.64333650283515453338623046875">
        <ele>535.20001220703125</ele>
        <time>2022-06-04T08:26:51.000Z</time>
      </trkpt>
      <trkpt lat="43.4423513710498809814453125" lon="-5.643418394029140472412109375">
        <ele>534.79998779296875</ele>
        <time>2022-06-04T08:26:53.000Z</time>
      </trkpt>
      <trkpt lat="43.4423004090785980224609375" lon="-5.64350196160376071929931640625">
        <ele>534.5999755859375</ele>
        <time>2022-06-04T08:26:55.000Z</time>
      </trkpt>
      <trkpt lat="43.4422482736408710479736328125" lon="-5.6435863673686981201171875">
        <ele>534.4000244140625</ele>
        <time>2022-06-04T08:26:57.000Z</time>
      </trkpt>
      <trkpt lat="43.4422231279313564300537109375" lon="-5.64362995326519012451171875">
        <ele>534.20001220703125</ele>
        <time>2022-06-04T08:26:58.000Z</time>
      </trkpt>
      <trkpt lat="43.44219957478344440460205078125" lon="-5.643673874437808990478515625">
        <ele>534</ele>
        <time>2022-06-04T08:26:59.000Z</time>
      </trkpt>
      <trkpt lat="43.4421570785343647003173828125" lon="-5.6437652371823787689208984375">
        <ele>533.5999755859375</ele>
        <time>2022-06-04T08:27:01.000Z</time>
      </trkpt>
      <trkpt lat="43.44213453121483325958251953125" lon="-5.64384578727185726165771484375">
        <ele>533.20001220703125</ele>
        <time>2022-06-04T08:27:03.000Z</time>
      </trkpt>
      <trkpt lat="43.44213075935840606689453125" lon="-5.64390890300273895263671875">
        <ele>532.20001220703125</ele>
        <time>2022-06-04T08:27:05.000Z</time>
      </trkpt>
      <trkpt lat="43.44213335774838924407958984375" lon="-5.6439431011676788330078125">
        <ele>532</ele>
        <time>2022-06-04T08:27:06.000Z</time>
      </trkpt>
      <trkpt lat="43.4421379677951335906982421875" lon="-5.64398056827485561370849609375">
        <ele>531.4000244140625</ele>
        <time>2022-06-04T08:27:07.000Z</time>
      </trkpt>
      <trkpt lat="43.4421497024595737457275390625" lon="-5.6440616212785243988037109375">
        <ele>530.20001220703125</ele>
        <time>2022-06-04T08:27:09.000Z</time>
      </trkpt>
      <trkpt lat="43.442161940038204193115234375" lon="-5.64414217136800289154052734375">
        <ele>528.79998779296875</ele>
        <time>2022-06-04T08:27:11.000Z</time>
      </trkpt>
      <trkpt lat="43.442183397710323333740234375" lon="-5.64423453994095325469970703125">
        <ele>528</ele>
        <time>2022-06-04T08:27:13.000Z</time>
      </trkpt>
      <trkpt lat="43.442199490964412689208984375" lon="-5.64428977668285369873046875">
        <ele>527.5999755859375</ele>
        <time>2022-06-04T08:27:14.000Z</time>
      </trkpt>
      <trkpt lat="43.4422180987894535064697265625" lon="-5.64434283412992954254150390625">
        <ele>527</ele>
        <time>2022-06-04T08:27:15.000Z</time>
      </trkpt>
      <trkpt lat="43.4422351978719234466552734375" lon="-5.64439027570188045501708984375">
        <ele>526.4000244140625</ele>
        <time>2022-06-04T08:27:16.000Z</time>
      </trkpt>
      <trkpt lat="43.44224902801215648651123046875" lon="-5.64443788491189479827880859375">
        <ele>526</ele>
        <time>2022-06-04T08:27:17.000Z</time>
      </trkpt>
      <trkpt lat="43.44226646237075328826904296875" lon="-5.64453612081706523895263671875">
        <ele>525</ele>
        <time>2022-06-04T08:27:19.000Z</time>
      </trkpt>
      <trkpt lat="43.442279286682605743408203125" lon="-5.6446377933025360107421875">
        <ele>523.79998779296875</ele>
        <time>2022-06-04T08:27:21.000Z</time>
      </trkpt>
      <trkpt lat="43.44228456728160381317138671875" lon="-5.6446842290461063385009765625">
        <ele>523.20001220703125</ele>
        <time>2022-06-04T08:27:22.000Z</time>
      </trkpt>
      <trkpt lat="43.44228624366223812103271484375" lon="-5.6447271443903446197509765625">
        <ele>521.79998779296875</ele>
        <time>2022-06-04T08:27:23.000Z</time>
      </trkpt>
      <trkpt lat="43.44228775240480899810791015625" lon="-5.64481548964977264404296875">
        <ele>520.4000244140625</ele>
        <time>2022-06-04T08:27:25.000Z</time>
      </trkpt>
      <trkpt lat="43.44228909350931644439697265625" lon="-5.64490844495594501495361328125">
        <ele>519.5999755859375</ele>
        <time>2022-06-04T08:27:27.000Z</time>
      </trkpt>
      <trkpt lat="43.442289344966411590576171875" lon="-5.64495588652789592742919921875">
        <ele>519</ele>
        <time>2022-06-04T08:27:28.000Z</time>
      </trkpt>
      <trkpt lat="43.44228909350931644439697265625" lon="-5.64500592648983001708984375">
        <ele>518.5999755859375</ele>
        <time>2022-06-04T08:27:29.000Z</time>
      </trkpt>
      <trkpt lat="43.44228859059512615203857421875" lon="-5.64505797810852527618408203125">
        <ele>518</ele>
        <time>2022-06-04T08:27:30.000Z</time>
      </trkpt>
      <trkpt lat="43.44228540547192096710205078125" lon="-5.6451070122420787811279296875">
        <ele>517</ele>
        <time>2022-06-04T08:27:31.000Z</time>
      </trkpt>
      <trkpt lat="43.44228096306324005126953125" lon="-5.645156465470790863037109375">
        <ele>516.5999755859375</ele>
        <time>2022-06-04T08:27:32.000Z</time>
      </trkpt>
      <trkpt lat="43.44227668829262256622314453125" lon="-5.645206086337566375732421875">
        <ele>516.20001220703125</ele>
        <time>2022-06-04T08:27:33.000Z</time>
      </trkpt>
      <trkpt lat="43.44227115623652935028076171875" lon="-5.64525160007178783416748046875">
        <ele>515.79998779296875</ele>
        <time>2022-06-04T08:27:34.000Z</time>
      </trkpt>
      <trkpt lat="43.4422673843801021575927734375" lon="-5.6452914141118526458740234375">
        <ele>515.4000244140625</ele>
        <time>2022-06-04T08:27:35.000Z</time>
      </trkpt>
      <trkpt lat="43.4422682225704193115234375" lon="-5.6453698687255382537841796875">
        <ele>514.5999755859375</ele>
        <time>2022-06-04T08:27:37.000Z</time>
      </trkpt>
      <trkpt lat="43.44226847402751445770263671875" lon="-5.6454188190400600433349609375">
        <ele>513.79998779296875</ele>
        <time>2022-06-04T08:27:38.000Z</time>
      </trkpt>
      <trkpt lat="43.44226428307592868804931640625" lon="-5.6454714573919773101806640625">
        <ele>512.5999755859375</ele>
        <time>2022-06-04T08:27:39.000Z</time>
      </trkpt>
      <trkpt lat="43.44223461113870143890380859375" lon="-5.64558553509414196014404296875">
        <ele>511.600006103515625</ele>
        <time>2022-06-04T08:27:41.000Z</time>
      </trkpt>
      <trkpt lat="43.44219789840281009674072265625" lon="-5.64571277238428592681884765625">
        <ele>511</ele>
        <time>2022-06-04T08:27:43.000Z</time>
      </trkpt>
      <trkpt lat="43.4421849064528942108154296875" lon="-5.64577706158161163330078125">
        <ele>511</ele>
        <time>2022-06-04T08:27:44.000Z</time>
      </trkpt>
      <trkpt lat="43.44217945821583271026611328125" lon="-5.64583003520965576171875">
        <ele>510.600006103515625</ele>
        <time>2022-06-04T08:27:45.000Z</time>
      </trkpt>
      <trkpt lat="43.4421758539974689483642578125" lon="-5.64587286673486232757568359375">
        <ele>510.399993896484375</ele>
        <time>2022-06-04T08:27:46.000Z</time>
      </trkpt>
      <trkpt lat="43.44216965138912200927734375" lon="-5.64591309987008571624755859375">
        <ele>510.20001220703125</ele>
        <time>2022-06-04T08:27:47.000Z</time>
      </trkpt>
      <trkpt lat="43.44215900637209415435791015625" lon="-5.646000690758228302001953125">
        <ele>509.600006103515625</ele>
        <time>2022-06-04T08:27:49.000Z</time>
      </trkpt>
      <trkpt lat="43.44215221703052520751953125" lon="-5.646050311625003814697265625">
        <ele>509</ele>
        <time>2022-06-04T08:27:50.000Z</time>
      </trkpt>
      <trkpt lat="43.44214492477476596832275390625" lon="-5.646099932491779327392578125">
        <ele>508.20001220703125</ele>
        <time>2022-06-04T08:27:51.000Z</time>
      </trkpt>
      <trkpt lat="43.44214073382318019866943359375" lon="-5.64614259637892246246337890625">
        <ele>507.79998779296875</ele>
        <time>2022-06-04T08:27:52.000Z</time>
      </trkpt>
      <trkpt lat="43.4421376325190067291259765625" lon="-5.6461772136390209197998046875">
        <ele>507.399993896484375</ele>
        <time>2022-06-04T08:27:53.000Z</time>
      </trkpt>
      <trkpt lat="43.44213570468127727508544921875" lon="-5.646233372390270233154296875">
        <ele>507</ele>
        <time>2022-06-04T08:27:55.000Z</time>
      </trkpt>
      <trkpt lat="43.442127741873264312744140625" lon="-5.64628793857991695404052734375">
        <ele>506.600006103515625</ele>
        <time>2022-06-04T08:27:57.000Z</time>
      </trkpt>
      <trkpt lat="43.44212598167359828948974609375" lon="-5.6463156826794147491455078125">
        <ele>506.20001220703125</ele>
        <time>2022-06-04T08:27:58.000Z</time>
      </trkpt>
      <trkpt lat="43.44212614931166172027587890625" lon="-5.64633630216121673583984375">
        <ele>505.600006103515625</ele>
        <time>2022-06-04T08:27:59.000Z</time>
      </trkpt>
      <trkpt lat="43.442121706902980804443359375" lon="-5.6463611125946044921875">
        <ele>505.20001220703125</ele>
        <time>2022-06-04T08:28:00.000Z</time>
      </trkpt>
      <trkpt lat="43.44211307354271411895751953125" lon="-5.64638751558959484100341796875">
        <ele>504.79998779296875</ele>
        <time>2022-06-04T08:28:01.000Z</time>
      </trkpt>
      <trkpt lat="43.44210519455373287200927734375" lon="-5.64641383476555347442626953125">
        <ele>504.399993896484375</ele>
        <time>2022-06-04T08:28:02.000Z</time>
      </trkpt>
      <trkpt lat="43.44209932722151279449462890625" lon="-5.64643948338925838470458984375">
        <ele>504.20001220703125</ele>
        <time>2022-06-04T08:28:03.000Z</time>
      </trkpt>
      <trkpt lat="43.4420916996896266937255859375" lon="-5.64649279229342937469482421875">
        <ele>504</ele>
        <time>2022-06-04T08:28:05.000Z</time>
      </trkpt>
      <trkpt lat="43.44210318289697170257568359375" lon="-5.64654341898858547210693359375">
        <ele>503.399993896484375</ele>
        <time>2022-06-04T08:28:07.000Z</time>
      </trkpt>
      <trkpt lat="43.44211206771433353424072265625" lon="-5.64656521193683147430419921875">
        <ele>503.20001220703125</ele>
        <time>2022-06-04T08:28:08.000Z</time>
      </trkpt>
      <trkpt lat="43.44212665222585201263427734375" lon="-5.6465869210660457611083984375">
        <ele>502.79998779296875</ele>
        <time>2022-06-04T08:28:09.000Z</time>
      </trkpt>
      <trkpt lat="43.44215766526758670806884765625" lon="-5.64662405289709568023681640625">
        <ele>502.600006103515625</ele>
        <time>2022-06-04T08:28:11.000Z</time>
      </trkpt>
      <trkpt lat="43.44218113459646701812744140625" lon="-5.646674595773220062255859375">
        <ele>502.79998779296875</ele>
        <time>2022-06-04T08:28:13.000Z</time>
      </trkpt>
      <trkpt lat="43.44220317900180816650390625" lon="-5.64671717584133148193359375">
        <ele>502.600006103515625</ele>
        <time>2022-06-04T08:28:15.000Z</time>
      </trkpt>
      <trkpt lat="43.442231006920337677001953125" lon="-5.64675631932914257049560546875">
        <ele>502.399993896484375</ele>
        <time>2022-06-04T08:28:17.000Z</time>
      </trkpt>
      <trkpt lat="43.4422539733350276947021484375" lon="-5.64679563045501708984375">
        <ele>502.79998779296875</ele>
        <time>2022-06-04T08:28:19.000Z</time>
      </trkpt>
      <trkpt lat="43.4422789514064788818359375" lon="-5.6468383781611919403076171875">
        <ele>503</ele>
        <time>2022-06-04T08:28:21.000Z</time>
      </trkpt>
      <trkpt lat="43.4422975592315196990966796875" lon="-5.64687517471611499786376953125">
        <ele>503</ele>
        <time>2022-06-04T08:28:23.000Z</time>
      </trkpt>
      <trkpt lat="43.4423072822391986846923828125" lon="-5.64689478836953639984130859375">
        <ele>503</ele>
        <time>2022-06-04T08:28:24.000Z</time>
      </trkpt>
      <trkpt lat="43.4423176757991313934326171875" lon="-5.6469181738793849945068359375">
        <ele>503</ele>
        <time>2022-06-04T08:28:25.000Z</time>
      </trkpt>
      <trkpt lat="43.44234131276607513427734375" lon="-5.6469641067087650299072265625">
        <ele>503.20001220703125</ele>
        <time>2022-06-04T08:28:27.000Z</time>
      </trkpt>
      <trkpt lat="43.44236302189528942108154296875" lon="-5.6470056809484958648681640625">
        <ele>503.20001220703125</ele>
        <time>2022-06-04T08:28:29.000Z</time>
      </trkpt>
      <trkpt lat="43.44238020479679107666015625" lon="-5.64702722243964672088623046875">
        <ele>503.399993896484375</ele>
        <time>2022-06-04T08:28:31.000Z</time>
      </trkpt>
      <trkpt lat="43.442386575043201446533203125" lon="-5.6470509432256221771240234375">
        <ele>503.399993896484375</ele>
        <time>2022-06-04T08:28:33.000Z</time>
      </trkpt>
      <trkpt lat="43.4423947893083095550537109375" lon="-5.64707835204899311065673828125">
        <ele>503.399993896484375</ele>
        <time>2022-06-04T08:28:35.000Z</time>
      </trkpt>
      <trkpt lat="43.4423988126218318939208984375" lon="-5.6470893323421478271484375">
        <ele>503.399993896484375</ele>
        <time>2022-06-04T08:28:37.000Z</time>
      </trkpt>
      <trkpt lat="43.4424252994358539581298828125" lon="-5.64717113971710205078125">
        <ele>502.79998779296875</ele>
        <time>2022-06-04T08:28:53.000Z</time>
      </trkpt>
      <trkpt lat="43.442436195909976959228515625" lon="-5.64720039255917072296142578125">
        <ele>502.79998779296875</ele>
        <time>2022-06-04T08:28:54.000Z</time>
      </trkpt>
      <trkpt lat="43.44245254062116146087646484375" lon="-5.64723551273345947265625">
        <ele>502.79998779296875</ele>
        <time>2022-06-04T08:28:55.000Z</time>
      </trkpt>
      <trkpt lat="43.4424879960715770721435546875" lon="-5.647311620414257049560546875">
        <ele>502.79998779296875</ele>
        <time>2022-06-04T08:28:57.000Z</time>
      </trkpt>
      <trkpt lat="43.4425024129450321197509765625" lon="-5.6473496742546558380126953125">
        <ele>502.600006103515625</ele>
        <time>2022-06-04T08:28:58.000Z</time>
      </trkpt>
      <trkpt lat="43.4425215236842632293701171875" lon="-5.64738999120891094207763671875">
        <ele>502.600006103515625</ele>
        <time>2022-06-04T08:28:59.000Z</time>
      </trkpt>
      <trkpt lat="43.44254390336573123931884765625" lon="-5.6474299728870391845703125">
        <ele>502.399993896484375</ele>
        <time>2022-06-04T08:29:00.000Z</time>
      </trkpt>
      <trkpt lat="43.44257064163684844970703125" lon="-5.6474693678319454193115234375">
        <ele>502.20001220703125</ele>
        <time>2022-06-04T08:29:01.000Z</time>
      </trkpt>
      <trkpt lat="43.44263141043484210968017578125" lon="-5.64756684936583042144775390625">
        <ele>502</ele>
        <time>2022-06-04T08:29:03.000Z</time>
      </trkpt>
      <trkpt lat="43.44266451895236968994140625" lon="-5.64761965535581111907958984375">
        <ele>501.600006103515625</ele>
        <time>2022-06-04T08:29:04.000Z</time>
      </trkpt>
      <trkpt lat="43.4426962025463581085205078125" lon="-5.64767933450639247894287109375">
        <ele>501.20001220703125</ele>
        <time>2022-06-04T08:29:05.000Z</time>
      </trkpt>
      <trkpt lat="43.44272612594068050384521484375" lon="-5.6477392651140689849853515625">
        <ele>501</ele>
        <time>2022-06-04T08:29:06.000Z</time>
      </trkpt>
      <trkpt lat="43.44275747425854206085205078125" lon="-5.647788383066654205322265625">
        <ele>500.79998779296875</ele>
        <time>2022-06-04T08:29:07.000Z</time>
      </trkpt>
      <trkpt lat="43.4428128786385059356689453125" lon="-5.647892318665981292724609375">
        <ele>500</ele>
        <time>2022-06-04T08:29:09.000Z</time>
      </trkpt>
      <trkpt lat="43.442849926650524139404296875" lon="-5.6479501537978649139404296875">
        <ele>499.600006103515625</ele>
        <time>2022-06-04T08:29:10.000Z</time>
      </trkpt>
      <trkpt lat="43.4428851306438446044921875" lon="-5.64800740219652652740478515625">
        <ele>499.20001220703125</ele>
        <time>2022-06-04T08:29:11.000Z</time>
      </trkpt>
      <trkpt lat="43.44291589222848415374755859375" lon="-5.64806825481355190277099609375">
        <ele>498.399993896484375</ele>
        <time>2022-06-04T08:29:12.000Z</time>
      </trkpt>
      <trkpt lat="43.44294019974768161773681640625" lon="-5.6481308676302433013916015625">
        <ele>497.600006103515625</ele>
        <time>2022-06-04T08:29:13.000Z</time>
      </trkpt>
      <trkpt lat="43.4429644234478473663330078125" lon="-5.6481818296015262603759765625">
        <ele>497.20001220703125</ele>
        <time>2022-06-04T08:29:14.000Z</time>
      </trkpt>
      <trkpt lat="43.44298596493899822235107421875" lon="-5.648230947554111480712890625">
        <ele>496.399993896484375</ele>
        <time>2022-06-04T08:29:15.000Z</time>
      </trkpt>
      <trkpt lat="43.443010859191417694091796875" lon="-5.64828702248632907867431640625">
        <ele>495.79998779296875</ele>
        <time>2022-06-04T08:29:16.000Z</time>
      </trkpt>
      <trkpt lat="43.44303374178707599639892578125" lon="-5.64834033139050006866455078125">
        <ele>495.399993896484375</ele>
        <time>2022-06-04T08:29:17.000Z</time>
      </trkpt>
      <trkpt lat="43.44308470375835895538330078125" lon="-5.6484430097043514251708984375">
        <ele>494</ele>
        <time>2022-06-04T08:29:19.000Z</time>
      </trkpt>
      <trkpt lat="43.4431176446378231048583984375" lon="-5.64849682152271270751953125">
        <ele>493</ele>
        <time>2022-06-04T08:29:20.000Z</time>
      </trkpt>
      <trkpt lat="43.4431474842131137847900390625" lon="-5.64855440519750118255615234375">
        <ele>492.399993896484375</ele>
        <time>2022-06-04T08:29:21.000Z</time>
      </trkpt>
      <trkpt lat="43.44318394549190998077392578125" lon="-5.6486156769096851348876953125">
        <ele>492</ele>
        <time>2022-06-04T08:29:22.000Z</time>
      </trkpt>
      <trkpt lat="43.44321780838072299957275390625" lon="-5.64867292530834674835205078125">
        <ele>491.20001220703125</ele>
        <time>2022-06-04T08:29:23.000Z</time>
      </trkpt>
      <trkpt lat="43.44329324550926685333251953125" lon="-5.64879563637077808380126953125">
        <ele>490</ele>
        <time>2022-06-04T08:29:25.000Z</time>
      </trkpt>
      <trkpt lat="43.44335258938372135162353515625" lon="-5.6489053554832935333251953125">
        <ele>489.20001220703125</ele>
        <time>2022-06-04T08:29:27.000Z</time>
      </trkpt>
      <trkpt lat="43.44337237067520618438720703125" lon="-5.64895288087427616119384765625">
        <ele>488.600006103515625</ele>
        <time>2022-06-04T08:29:28.000Z</time>
      </trkpt>
      <trkpt lat="43.44339072704315185546875" lon="-5.64900451339781284332275390625">
        <ele>488</ele>
        <time>2022-06-04T08:29:29.000Z</time>
      </trkpt>
      <trkpt lat="43.443407826125621795654296875" lon="-5.64904524944722652435302734375">
        <ele>487.600006103515625</ele>
        <time>2022-06-04T08:29:30.000Z</time>
      </trkpt>
      <trkpt lat="43.443424589931964874267578125" lon="-5.64907743595540523529052734375">
        <ele>487</ele>
        <time>2022-06-04T08:29:31.000Z</time>
      </trkpt>
      <trkpt lat="43.44343909062445163726806640625" lon="-5.6491149030625820159912109375">
        <ele>486.399993896484375</ele>
        <time>2022-06-04T08:29:32.000Z</time>
      </trkpt>
      <trkpt lat="43.44345434568822383880615234375" lon="-5.64914801158010959625244140625">
        <ele>485.79998779296875</ele>
        <time>2022-06-04T08:29:33.000Z</time>
      </trkpt>
      <trkpt lat="43.44347412697970867156982421875" lon="-5.64918321557343006134033203125">
        <ele>485</ele>
        <time>2022-06-04T08:29:34.000Z</time>
      </trkpt>
      <trkpt lat="43.4434886276721954345703125" lon="-5.64921372570097446441650390625">
        <ele>484.399993896484375</ele>
        <time>2022-06-04T08:29:35.000Z</time>
      </trkpt>
      <trkpt lat="43.44350614584982395172119140625" lon="-5.64924607984721660614013671875">
        <ele>483.600006103515625</ele>
        <time>2022-06-04T08:29:36.000Z</time>
      </trkpt>
      <trkpt lat="43.44352240674197673797607421875" lon="-5.64927893690764904022216796875">
        <ele>483.20001220703125</ele>
        <time>2022-06-04T08:29:37.000Z</time>
      </trkpt>
      <trkpt lat="43.44355191104114055633544921875" lon="-5.64934180118143558502197265625">
        <ele>482.600006103515625</ele>
        <time>2022-06-04T08:29:39.000Z</time>
      </trkpt>
      <trkpt lat="43.44356548972427845001220703125" lon="-5.64937918446958065032958984375">
        <ele>482.399993896484375</ele>
        <time>2022-06-04T08:29:40.000Z</time>
      </trkpt>
      <trkpt lat="43.44358049333095550537109375" lon="-5.6494183279573917388916015625">
        <ele>481.600006103515625</ele>
        <time>2022-06-04T08:29:41.000Z</time>
      </trkpt>
      <trkpt lat="43.443594910204410552978515625" lon="-5.6494572199881076812744140625">
        <ele>481.20001220703125</ele>
        <time>2022-06-04T08:29:42.000Z</time>
      </trkpt>
      <trkpt lat="43.44361561350524425506591796875" lon="-5.64949703402817249298095703125">
        <ele>480.79998779296875</ele>
        <time>2022-06-04T08:29:43.000Z</time>
      </trkpt>
      <trkpt lat="43.44366037286818027496337890625" lon="-5.6495712138712406158447265625">
        <ele>480</ele>
        <time>2022-06-04T08:29:45.000Z</time>
      </trkpt>
      <trkpt lat="43.4436993487179279327392578125" lon="-5.64964748919010162353515625">
        <ele>478.79998779296875</ele>
        <time>2022-06-04T08:29:47.000Z</time>
      </trkpt>
      <trkpt lat="43.4437385760247707366943359375" lon="-5.64973063766956329345703125">
        <ele>478</ele>
        <time>2022-06-04T08:29:49.000Z</time>
      </trkpt>
      <trkpt lat="43.443755842745304107666015625" lon="-5.64977011643350124359130859375">
        <ele>477.79998779296875</ele>
        <time>2022-06-04T08:29:50.000Z</time>
      </trkpt>
      <trkpt lat="43.443778641521930694580078125" lon="-5.64981537871062755584716796875">
        <ele>477.20001220703125</ele>
        <time>2022-06-04T08:29:51.000Z</time>
      </trkpt>
      <trkpt lat="43.4438016079366207122802734375" lon="-5.64986768178641796112060546875">
        <ele>476.20001220703125</ele>
        <time>2022-06-04T08:29:52.000Z</time>
      </trkpt>
      <trkpt lat="43.44382398761808872222900390625" lon="-5.64992518164217472076416015625">
        <ele>475.600006103515625</ele>
        <time>2022-06-04T08:29:53.000Z</time>
      </trkpt>
      <trkpt lat="43.4438475407660007476806640625" lon="-5.6499765627086162567138671875">
        <ele>475</ele>
        <time>2022-06-04T08:29:54.000Z</time>
      </trkpt>
      <trkpt lat="43.44387059099972248077392578125" lon="-5.6500298716127872467041015625">
        <ele>474.399993896484375</ele>
        <time>2022-06-04T08:29:55.000Z</time>
      </trkpt>
      <trkpt lat="43.44389305450022220611572265625" lon="-5.65007538534700870513916015625">
        <ele>473.79998779296875</ele>
        <time>2022-06-04T08:29:56.000Z</time>
      </trkpt>
      <trkpt lat="43.443914093077182769775390625" lon="-5.65011821687221527099609375">
        <ele>473.20001220703125</ele>
        <time>2022-06-04T08:29:57.000Z</time>
      </trkpt>
      <trkpt lat="43.44393244944512844085693359375" lon="-5.65015316940844058990478515625">
        <ele>472.79998779296875</ele>
        <time>2022-06-04T08:29:58.000Z</time>
      </trkpt>
      <trkpt lat="43.44395223073661327362060546875" lon="-5.6501899659633636474609375">
        <ele>472.20001220703125</ele>
        <time>2022-06-04T08:29:59.000Z</time>
      </trkpt>
      <trkpt lat="43.4439668990671634674072265625" lon="-5.65022324211895465850830078125">
        <ele>471.600006103515625</ele>
        <time>2022-06-04T08:30:00.000Z</time>
      </trkpt>
      <trkpt lat="43.4439806453883647918701171875" lon="-5.65025635063648223876953125">
        <ele>471</ele>
        <time>2022-06-04T08:30:01.000Z</time>
      </trkpt>
      <trkpt lat="43.44401090405881404876708984375" lon="-5.65033279359340667724609375">
        <ele>470.20001220703125</ele>
        <time>2022-06-04T08:30:03.000Z</time>
      </trkpt>
      <trkpt lat="43.44404242001473903656005859375" lon="-5.65037914551794528961181640625">
        <ele>469.600006103515625</ele>
        <time>2022-06-04T08:30:04.000Z</time>
      </trkpt>
      <trkpt lat="43.4440761990845203399658203125" lon="-5.65043597482144832611083984375">
        <ele>469</ele>
        <time>2022-06-04T08:30:05.000Z</time>
      </trkpt>
      <trkpt lat="43.444138057529926300048828125" lon="-5.65057419240474700927734375">
        <ele>467.600006103515625</ele>
        <time>2022-06-04T08:30:07.000Z</time>
      </trkpt>
      <trkpt lat="43.44416731037199497222900390625" lon="-5.650636889040470123291015625">
        <ele>466.600006103515625</ele>
        <time>2022-06-04T08:30:08.000Z</time>
      </trkpt>
      <trkpt lat="43.44420142471790313720703125" lon="-5.65070629119873046875">
        <ele>466.20001220703125</ele>
        <time>2022-06-04T08:30:09.000Z</time>
      </trkpt>
      <trkpt lat="43.44425984658300876617431640625" lon="-5.650812573730945587158203125">
        <ele>465.20001220703125</ele>
        <time>2022-06-04T08:30:11.000Z</time>
      </trkpt>
      <trkpt lat="43.44428080134093761444091796875" lon="-5.65085406415164470672607421875">
        <ele>464.79998779296875</ele>
        <time>2022-06-04T08:30:12.000Z</time>
      </trkpt>
      <trkpt lat="43.44429404474794864654541015625" lon="-5.6508888490498065948486328125">
        <ele>464.600006103515625</ele>
        <time>2022-06-04T08:30:13.000Z</time>
      </trkpt>
      <trkpt lat="43.44431399367749691009521484375" lon="-5.65091894008219242095947265625">
        <ele>464</ele>
        <time>2022-06-04T08:30:14.000Z</time>
      </trkpt>
      <trkpt lat="43.4443335235118865966796875" lon="-5.6509528867900371551513671875">
        <ele>463.600006103515625</ele>
        <time>2022-06-04T08:30:15.000Z</time>
      </trkpt>
      <trkpt lat="43.44435808248817920684814453125" lon="-5.650986246764659881591796875">
        <ele>463</ele>
        <time>2022-06-04T08:30:16.000Z</time>
      </trkpt>
      <trkpt lat="43.44438138417899608612060546875" lon="-5.65101902000606060028076171875">
        <ele>462.399993896484375</ele>
        <time>2022-06-04T08:30:17.000Z</time>
      </trkpt>
      <trkpt lat="43.44442807137966156005859375" lon="-5.6511051021516323089599609375">
        <ele>461.79998779296875</ele>
        <time>2022-06-04T08:30:19.000Z</time>
      </trkpt>
      <trkpt lat="43.444472663104534149169921875" lon="-5.651207864284515380859375">
        <ele>461.20001220703125</ele>
        <time>2022-06-04T08:30:21.000Z</time>
      </trkpt>
      <trkpt lat="43.4444872476160526275634765625" lon="-5.6512620113790035247802734375">
        <ele>460.79998779296875</ele>
        <time>2022-06-04T08:30:22.000Z</time>
      </trkpt>
      <trkpt lat="43.44449286349117755889892578125" lon="-5.6513196788728237152099609375">
        <ele>460.600006103515625</ele>
        <time>2022-06-04T08:30:23.000Z</time>
      </trkpt>
      <trkpt lat="43.4444614313542842864990234375" lon="-5.651443898677825927734375">
        <ele>460.20001220703125</ele>
        <time>2022-06-04T08:30:25.000Z</time>
      </trkpt>
      <trkpt lat="43.44443469308316707611083984375" lon="-5.6514903344213962554931640625">
        <ele>460</ele>
        <time>2022-06-04T08:30:26.000Z</time>
      </trkpt>
      <trkpt lat="43.4444024227559566497802734375" lon="-5.6515278853476047515869140625">
        <ele>459.79998779296875</ele>
        <time>2022-06-04T08:30:27.000Z</time>
      </trkpt>
      <trkpt lat="43.44436747021973133087158203125" lon="-5.651567615568637847900390625">
        <ele>459.399993896484375</ele>
        <time>2022-06-04T08:30:28.000Z</time>
      </trkpt>
      <trkpt lat="43.44433176331222057342529296875" lon="-5.65159837715327739715576171875">
        <ele>459</ele>
        <time>2022-06-04T08:30:29.000Z</time>
      </trkpt>
      <trkpt lat="43.44424811191856861114501953125" lon="-5.65167658030986785888671875">
        <ele>458.399993896484375</ele>
        <time>2022-06-04T08:30:31.000Z</time>
      </trkpt>
      <trkpt lat="43.444209136068820953369140625" lon="-5.65171890892088413238525390625">
        <ele>458.20001220703125</ele>
        <time>2022-06-04T08:30:32.000Z</time>
      </trkpt>
      <trkpt lat="43.44417736865580081939697265625" lon="-5.6517719663679599761962890625">
        <ele>458</ele>
        <time>2022-06-04T08:30:33.000Z</time>
      </trkpt>
      <trkpt lat="43.4441264905035495758056640625" lon="-5.65189258195459842681884765625">
        <ele>457.600006103515625</ele>
        <time>2022-06-04T08:30:35.000Z</time>
      </trkpt>
      <trkpt lat="43.44410955905914306640625" lon="-5.651949159801006317138671875">
        <ele>457</ele>
        <time>2022-06-04T08:30:36.000Z</time>
      </trkpt>
      <trkpt lat="43.444094471633434295654296875" lon="-5.6519966013729572296142578125">
        <ele>456.79998779296875</ele>
        <time>2022-06-04T08:30:37.000Z</time>
      </trkpt>
      <trkpt lat="43.44405231066048145294189453125" lon="-5.652071535587310791015625">
        <ele>456.399993896484375</ele>
        <time>2022-06-04T08:30:39.000Z</time>
      </trkpt>
      <trkpt lat="43.44403051771223545074462890625" lon="-5.65211067907512187957763671875">
        <ele>456.399993896484375</ele>
        <time>2022-06-04T08:30:40.000Z</time>
      </trkpt>
      <trkpt lat="43.444007299840450286865234375" lon="-5.65217622555792331695556640625">
        <ele>456.20001220703125</ele>
        <time>2022-06-04T08:30:41.000Z</time>
      </trkpt>
      <trkpt lat="43.44397704117000102996826171875" lon="-5.6523379124701023101806640625">
        <ele>456</ele>
        <time>2022-06-04T08:30:43.000Z</time>
      </trkpt>
      <trkpt lat="43.443956673145294189453125" lon="-5.65249004401266574859619140625">
        <ele>456</ele>
        <time>2022-06-04T08:30:45.000Z</time>
      </trkpt>
      <trkpt lat="43.443919457495212554931640625" lon="-5.6526121683418750762939453125">
        <ele>455.79998779296875</ele>
        <time>2022-06-04T08:30:47.000Z</time>
      </trkpt>
      <trkpt lat="43.4439043700695037841796875" lon="-5.65272959880530834197998046875">
        <ele>454.600006103515625</ele>
        <time>2022-06-04T08:30:49.000Z</time>
      </trkpt>
      <trkpt lat="43.443920128047466278076171875" lon="-5.6527918763458728790283203125">
        <ele>454.20001220703125</ele>
        <time>2022-06-04T08:30:50.000Z</time>
      </trkpt>
      <trkpt lat="43.44395390711724758148193359375" lon="-5.6528539024293422698974609375">
        <ele>453.600006103515625</ele>
        <time>2022-06-04T08:30:51.000Z</time>
      </trkpt>
      <trkpt lat="43.4439928829669952392578125" lon="-5.65292187966406345367431640625">
        <ele>453</ele>
        <time>2022-06-04T08:30:52.000Z</time>
      </trkpt>
      <trkpt lat="43.444027416408061981201171875" lon="-5.65299983136355876922607421875">
        <ele>452.399993896484375</ele>
        <time>2022-06-04T08:30:53.000Z</time>
      </trkpt>
      <trkpt lat="43.44409237615764141082763671875" lon="-5.65313913859426975250244140625">
        <ele>451.399993896484375</ele>
        <time>2022-06-04T08:30:55.000Z</time>
      </trkpt>
      <trkpt lat="43.44414752908051013946533203125" lon="-5.65324592404067516326904296875">
        <ele>450.20001220703125</ele>
        <time>2022-06-04T08:30:57.000Z</time>
      </trkpt>
      <trkpt lat="43.4441697411239147186279296875" lon="-5.65329588018357753753662109375">
        <ele>449.79998779296875</ele>
        <time>2022-06-04T08:30:58.000Z</time>
      </trkpt>
      <trkpt lat="43.44419044442474842071533203125" lon="-5.653346590697765350341796875">
        <ele>449.600006103515625</ele>
        <time>2022-06-04T08:30:59.000Z</time>
      </trkpt>
      <trkpt lat="43.44421072863042354583740234375" lon="-5.65340350382030010223388671875">
        <ele>449</ele>
        <time>2022-06-04T08:31:00.000Z</time>
      </trkpt>
      <trkpt lat="43.444229252636432647705078125" lon="-5.6534620933234691619873046875">
        <ele>448.399993896484375</ele>
        <time>2022-06-04T08:31:01.000Z</time>
      </trkpt>
      <trkpt lat="43.44425146467983722686767578125" lon="-5.6535170786082744598388671875">
        <ele>447.20001220703125</ele>
        <time>2022-06-04T08:31:02.000Z</time>
      </trkpt>
      <trkpt lat="43.4442733414471149444580078125" lon="-5.65357147715985774993896484375">
        <ele>446.20001220703125</ele>
        <time>2022-06-04T08:31:03.000Z</time>
      </trkpt>
      <trkpt lat="43.444300331175327301025390625" lon="-5.65362277440726757049560546875">
        <ele>445</ele>
        <time>2022-06-04T08:31:04.000Z</time>
      </trkpt>
      <trkpt lat="43.444327153265476226806640625" lon="-5.65367289818823337554931640625">
        <ele>444.399993896484375</ele>
        <time>2022-06-04T08:31:05.000Z</time>
      </trkpt>
      <trkpt lat="43.444353975355625152587890625" lon="-5.65372000448405742645263671875">
        <ele>443.79998779296875</ele>
        <time>2022-06-04T08:31:06.000Z</time>
      </trkpt>
      <trkpt lat="43.4443802945315837860107421875" lon="-5.6537702120840549468994140625">
        <ele>443.399993896484375</ele>
        <time>2022-06-04T08:31:07.000Z</time>
      </trkpt>
      <trkpt lat="43.44443435780704021453857421875" lon="-5.6538780033588409423828125">
        <ele>443</ele>
        <time>2022-06-04T08:31:09.000Z</time>
      </trkpt>
      <trkpt lat="43.4444553963840007781982421875" lon="-5.65393541939556598663330078125">
        <ele>442.79998779296875</ele>
        <time>2022-06-04T08:31:10.000Z</time>
      </trkpt>
      <trkpt lat="43.4444748423993587493896484375" lon="-5.6539945118129253387451171875">
        <ele>442.79998779296875</ele>
        <time>2022-06-04T08:31:11.000Z</time>
      </trkpt>
      <trkpt lat="43.4444959647953510284423828125" lon="-5.6540508382022380828857421875">
        <ele>442.600006103515625</ele>
        <time>2022-06-04T08:31:12.000Z</time>
      </trkpt>
      <trkpt lat="43.44452002085745334625244140625" lon="-5.6541061587631702423095703125">
        <ele>442.399993896484375</ele>
        <time>2022-06-04T08:31:13.000Z</time>
      </trkpt>
      <trkpt lat="43.44456595368683338165283203125" lon="-5.65421395003795623779296875">
        <ele>442</ele>
        <time>2022-06-04T08:31:15.000Z</time>
      </trkpt>
      <trkpt lat="43.44461448490619659423828125" lon="-5.6543183885514736175537109375">
        <ele>441.79998779296875</ele>
        <time>2022-06-04T08:31:17.000Z</time>
      </trkpt>
      <trkpt lat="43.4446431510150432586669921875" lon="-5.6543666683137416839599609375">
        <ele>441.600006103515625</ele>
        <time>2022-06-04T08:31:18.000Z</time>
      </trkpt>
      <trkpt lat="43.4446746669709682464599609375" lon="-5.654410421848297119140625">
        <ele>441.600006103515625</ele>
        <time>2022-06-04T08:31:19.000Z</time>
      </trkpt>
      <trkpt lat="43.4447400458157062530517578125" lon="-5.6544987671077251434326171875">
        <ele>441.399993896484375</ele>
        <time>2022-06-04T08:31:21.000Z</time>
      </trkpt>
      <trkpt lat="43.4447672031819820404052734375" lon="-5.65453925170004367828369140625">
        <ele>441.20001220703125</ele>
        <time>2022-06-04T08:31:22.000Z</time>
      </trkpt>
      <trkpt lat="43.44479964114725589752197265625" lon="-5.65457479096949100494384765625">
        <ele>441.20001220703125</ele>
        <time>2022-06-04T08:31:23.000Z</time>
      </trkpt>
      <trkpt lat="43.444867618381977081298828125" lon="-5.6546436063945293426513671875">
        <ele>441</ele>
        <time>2022-06-04T08:31:25.000Z</time>
      </trkpt>
      <trkpt lat="43.4449303150177001953125" lon="-5.65472365356981754302978515625">
        <ele>440.79998779296875</ele>
        <time>2022-06-04T08:31:27.000Z</time>
      </trkpt>
      <trkpt lat="43.44495822675526142120361328125" lon="-5.65475684590637683868408203125">
        <ele>440.600006103515625</ele>
        <time>2022-06-04T08:31:28.000Z</time>
      </trkpt>
      <trkpt lat="43.44498555175960063934326171875" lon="-5.65479196608066558837890625">
        <ele>440.399993896484375</ele>
        <time>2022-06-04T08:31:29.000Z</time>
      </trkpt>
      <trkpt lat="43.4450350888073444366455078125" lon="-5.65485742874443531036376953125">
        <ele>439.79998779296875</ele>
        <time>2022-06-04T08:31:31.000Z</time>
      </trkpt>
      <trkpt lat="43.4450612403452396392822265625" lon="-5.6548910401761531829833984375">
        <ele>439.79998779296875</ele>
        <time>2022-06-04T08:31:32.000Z</time>
      </trkpt>
      <trkpt lat="43.4450880624353885650634765625" lon="-5.65492205321788787841796875">
        <ele>439.79998779296875</ele>
        <time>2022-06-04T08:31:33.000Z</time>
      </trkpt>
      <trkpt lat="43.4451373480260372161865234375" lon="-5.65498634241521358489990234375">
        <ele>439.600006103515625</ele>
        <time>2022-06-04T08:31:35.000Z</time>
      </trkpt>
      <trkpt lat="43.44518101774156093597412109375" lon="-5.65506261773407459259033203125">
        <ele>439.600006103515625</ele>
        <time>2022-06-04T08:31:37.000Z</time>
      </trkpt>
      <trkpt lat="43.44519409351050853729248046875" lon="-5.65510855056345462799072265625">
        <ele>439.600006103515625</ele>
        <time>2022-06-04T08:31:38.000Z</time>
      </trkpt>
      <trkpt lat="43.4452107734978199005126953125" lon="-5.65514559857547283172607421875">
        <ele>439.399993896484375</ele>
        <time>2022-06-04T08:31:39.000Z</time>
      </trkpt>
      <trkpt lat="43.44523273408412933349609375" lon="-5.65516747534275054931640625">
        <ele>439.399993896484375</ele>
        <time>2022-06-04T08:31:40.000Z</time>
      </trkpt>
      <trkpt lat="43.44525477848947048187255859375" lon="-5.65516454167664051055908203125">
        <ele>439.20001220703125</ele>
        <time>2022-06-04T08:31:41.000Z</time>
      </trkpt>
      <trkpt lat="43.445275984704494476318359375" lon="-5.6550925411283969879150390625">
        <ele>439.20001220703125</ele>
        <time>2022-06-04T08:31:43.000Z</time>
      </trkpt>
      <trkpt lat="43.4452587179839611053466796875" lon="-5.65505188889801502227783203125">
        <ele>439.20001220703125</ele>
        <time>2022-06-04T08:31:44.000Z</time>
      </trkpt>
      <trkpt lat="43.44523516483604907989501953125" lon="-5.6550098955631256103515625">
        <ele>439.20001220703125</ele>
        <time>2022-06-04T08:31:45.000Z</time>
      </trkpt>
      <trkpt lat="43.44517414458096027374267578125" lon="-5.6549165211617946624755859375">
        <ele>439</ele>
        <time>2022-06-04T08:31:47.000Z</time>
      </trkpt>
      <trkpt lat="43.44510021619498729705810546875" lon="-5.65480948425829410552978515625">
        <ele>438.399993896484375</ele>
        <time>2022-06-04T08:31:49.000Z</time>
      </trkpt>
      <trkpt lat="43.44506182707846164703369140625" lon="-5.654758103191852569580078125">
        <ele>438.20001220703125</ele>
        <time>2022-06-04T08:31:50.000Z</time>
      </trkpt>
      <trkpt lat="43.4450213424861431121826171875" lon="-5.6547006033360958099365234375">
        <ele>437.79998779296875</ele>
        <time>2022-06-04T08:31:51.000Z</time>
      </trkpt>
      <trkpt lat="43.44497951678931713104248046875" lon="-5.6546405889093875885009765625">
        <ele>437.20001220703125</ele>
        <time>2022-06-04T08:31:52.000Z</time>
      </trkpt>
      <trkpt lat="43.444932661950588226318359375" lon="-5.65458015538752079010009765625">
        <ele>436.79998779296875</ele>
        <time>2022-06-04T08:31:53.000Z</time>
      </trkpt>
      <trkpt lat="43.44488681294023990631103515625" lon="-5.6545202247798442840576171875">
        <ele>436.399993896484375</ele>
        <time>2022-06-04T08:31:54.000Z</time>
      </trkpt>
      <trkpt lat="43.44484389759600162506103515625" lon="-5.65445593558251857757568359375">
        <ele>435.600006103515625</ele>
        <time>2022-06-04T08:31:55.000Z</time>
      </trkpt>
      <trkpt lat="43.44477935694158077239990234375" lon="-5.6543341465294361114501953125">
        <ele>434.399993896484375</ele>
        <time>2022-06-04T08:31:57.000Z</time>
      </trkpt>
      <trkpt lat="43.44475471414625644683837890625" lon="-5.6542801670730113983154296875">
        <ele>433.399993896484375</ele>
        <time>2022-06-04T08:31:58.000Z</time>
      </trkpt>
      <trkpt lat="43.4447306580841541290283203125" lon="-5.6542288698256015777587890625">
        <ele>432.20001220703125</ele>
        <time>2022-06-04T08:31:59.000Z</time>
      </trkpt>
      <trkpt lat="43.44470978714525699615478515625" lon="-5.654174387454986572265625">
        <ele>431.600006103515625</ele>
        <time>2022-06-04T08:32:00.000Z</time>
      </trkpt>
      <trkpt lat="43.44468883238732814788818359375" lon="-5.65409786067903041839599609375">
        <ele>430.600006103515625</ele>
        <time>2022-06-04T08:32:01.000Z</time>
      </trkpt>
      <trkpt lat="43.44464038498699665069580078125" lon="-5.6539512611925601959228515625">
        <ele>429</ele>
        <time>2022-06-04T08:32:03.000Z</time>
      </trkpt>
      <trkpt lat="43.4445935301482677459716796875" lon="-5.653834082186222076416015625">
        <ele>427.79998779296875</ele>
        <time>2022-06-04T08:32:05.000Z</time>
      </trkpt>
      <trkpt lat="43.4445449151098728179931640625" lon="-5.6537117063999176025390625">
        <ele>426.79998779296875</ele>
        <time>2022-06-04T08:32:07.000Z</time>
      </trkpt>
      <trkpt lat="43.44452354125678539276123046875" lon="-5.6536444835364818572998046875">
        <ele>426.79998779296875</ele>
        <time>2022-06-04T08:32:08.000Z</time>
      </trkpt>
      <trkpt lat="43.44450677745044231414794921875" lon="-5.653571225702762603759765625">
        <ele>426.600006103515625</ele>
        <time>2022-06-04T08:32:09.000Z</time>
      </trkpt>
      <trkpt lat="43.4444676339626312255859375" lon="-5.65342496149241924285888671875">
        <ele>426.600006103515625</ele>
        <time>2022-06-04T08:32:11.000Z</time>
      </trkpt>
      <trkpt lat="43.44445430673658847808837890625" lon="-5.65334801562130451202392578125">
        <ele>426.399993896484375</ele>
        <time>2022-06-04T08:32:12.000Z</time>
      </trkpt>
      <trkpt lat="43.444443829357624053955078125" lon="-5.6532649509608745574951171875">
        <ele>426.399993896484375</ele>
        <time>2022-06-04T08:32:13.000Z</time>
      </trkpt>
      <trkpt lat="43.444434441626071929931640625" lon="-5.65318825654685497283935546875">
        <ele>426.399993896484375</ele>
        <time>2022-06-04T08:32:14.000Z</time>
      </trkpt>
      <trkpt lat="43.444435782730579376220703125" lon="-5.65313494764268398284912109375">
        <ele>426.20001220703125</ele>
        <time>2022-06-04T08:32:15.000Z</time>
      </trkpt>
      <trkpt lat="43.44445288181304931640625" lon="-5.6530912779271602630615234375">
        <ele>426</ele>
        <time>2022-06-04T08:32:16.000Z</time>
      </trkpt>
      <trkpt lat="43.44447107054293155670166015625" lon="-5.65306353382766246795654296875">
        <ele>425.79998779296875</ele>
        <time>2022-06-04T08:32:17.000Z</time>
      </trkpt>
      <trkpt lat="43.44451465643942356109619140625" lon="-5.65305448137223720550537109375">
        <ele>425.399993896484375</ele>
        <time>2022-06-04T08:32:18.000Z</time>
      </trkpt>
      <trkpt lat="43.44456377439200878143310546875" lon="-5.65305733121931552886962890625">
        <ele>425</ele>
        <time>2022-06-04T08:32:19.000Z</time>
      </trkpt>
      <trkpt lat="43.4446133114397525787353515625" lon="-5.65306168980896472930908203125">
        <ele>425</ele>
        <time>2022-06-04T08:32:20.000Z</time>
      </trkpt>
      <trkpt lat="43.44466972164809703826904296875" lon="-5.65306135453283786773681640625">
        <ele>424.399993896484375</ele>
        <time>2022-06-04T08:32:21.000Z</time>
      </trkpt>
      <trkpt lat="43.444787152111530303955078125" lon="-5.65306923352181911468505859375">
        <ele>423.79998779296875</ele>
        <time>2022-06-04T08:32:23.000Z</time>
      </trkpt>
      <trkpt lat="43.4448506869375705718994140625" lon="-5.653067640960216522216796875">
        <ele>423.399993896484375</ele>
        <time>2022-06-04T08:32:24.000Z</time>
      </trkpt>
      <trkpt lat="43.44491128809750080108642578125" lon="-5.65306127071380615234375">
        <ele>422.79998779296875</ele>
        <time>2022-06-04T08:32:25.000Z</time>
      </trkpt>
      <trkpt lat="43.4449638426303863525390625" lon="-5.653045512735843658447265625">
        <ele>422.79998779296875</ele>
        <time>2022-06-04T08:32:26.000Z</time>
      </trkpt>
      <trkpt lat="43.445014469325542449951171875" lon="-5.65302304923534393310546875">
        <ele>421.600006103515625</ele>
        <time>2022-06-04T08:32:27.000Z</time>
      </trkpt>
      <trkpt lat="43.4450682811439037322998046875" lon="-5.6529876776039600372314453125">
        <ele>421</ele>
        <time>2022-06-04T08:32:28.000Z</time>
      </trkpt>
      <trkpt lat="43.4451145492494106292724609375" lon="-5.65295859239995479583740234375">
        <ele>420.20001220703125</ele>
        <time>2022-06-04T08:32:29.000Z</time>
      </trkpt>
      <trkpt lat="43.44516760669648647308349609375" lon="-5.65293160267174243927001953125">
        <ele>419.20001220703125</ele>
        <time>2022-06-04T08:32:31.000Z</time>
      </trkpt>
      <trkpt lat="43.44519476406276226043701171875" lon="-5.65291467122733592987060546875">
        <ele>419</ele>
        <time>2022-06-04T08:32:32.000Z</time>
      </trkpt>
      <trkpt lat="43.4452171437442302703857421875" lon="-5.65289874561131000518798828125">
        <ele>418.79998779296875</ele>
        <time>2022-06-04T08:32:33.000Z</time>
      </trkpt>
      <trkpt lat="43.4452533535659313201904296875" lon="-5.6528619490563869476318359375">
        <ele>418.79998779296875</ele>
        <time>2022-06-04T08:32:35.000Z</time>
      </trkpt>
      <trkpt lat="43.44528394751250743865966796875" lon="-5.652820207178592681884765625">
        <ele>418.79998779296875</ele>
        <time>2022-06-04T08:32:37.000Z</time>
      </trkpt>
      <trkpt lat="43.44531395472586154937744140625" lon="-5.6527782976627349853515625">
        <ele>418.79998779296875</ele>
        <time>2022-06-04T08:32:39.000Z</time>
      </trkpt>
      <trkpt lat="43.4453398548066616058349609375" lon="-5.65273043699562549591064453125">
        <ele>418.79998779296875</ele>
        <time>2022-06-04T08:32:41.000Z</time>
      </trkpt>
      <trkpt lat="43.445367515087127685546875" lon="-5.65267897211015224456787109375">
        <ele>419</ele>
        <time>2022-06-04T08:32:43.000Z</time>
      </trkpt>
      <trkpt lat="43.4453784115612506866455078125" lon="-5.65265986137092113494873046875">
        <ele>419.20001220703125</ele>
        <time>2022-06-04T08:32:44.000Z</time>
      </trkpt>
      <trkpt lat="43.445394337177276611328125" lon="-5.65264594741165637969970703125">
        <ele>419.399993896484375</ele>
        <time>2022-06-04T08:32:45.000Z</time>
      </trkpt>
      <trkpt lat="43.44544186256825923919677734375" lon="-5.6526550836861133575439453125">
        <ele>419.79998779296875</ele>
        <time>2022-06-04T08:32:47.000Z</time>
      </trkpt>
      <trkpt lat="43.44546147622168064117431640625" lon="-5.65267461352050304412841796875">
        <ele>419.79998779296875</ele>
        <time>2022-06-04T08:32:48.000Z</time>
      </trkpt>
      <trkpt lat="43.44547371380031108856201171875" lon="-5.65269179642200469970703125">
        <ele>419.79998779296875</ele>
        <time>2022-06-04T08:32:49.000Z</time>
      </trkpt>
      <trkpt lat="43.44546181149780750274658203125" lon="-5.6527546606957912445068359375">
        <ele>420</ele>
        <time>2022-06-04T08:32:51.000Z</time>
      </trkpt>
      <trkpt lat="43.445424847304821014404296875" lon="-5.6528220511972904205322265625">
        <ele>420</ele>
        <time>2022-06-04T08:32:53.000Z</time>
      </trkpt>
      <trkpt lat="43.4453594684600830078125" lon="-5.6529048644006252288818359375">
        <ele>420</ele>
        <time>2022-06-04T08:32:55.000Z</time>
      </trkpt>
      <trkpt lat="43.44532200135290622711181640625" lon="-5.6529450975358486175537109375">
        <ele>420</ele>
        <time>2022-06-04T08:32:56.000Z</time>
      </trkpt>
      <trkpt lat="43.445279337465763092041015625" lon="-5.65297870896756649017333984375">
        <ele>419.79998779296875</ele>
        <time>2022-06-04T08:32:57.000Z</time>
      </trkpt>
      <trkpt lat="43.44519811682403087615966796875" lon="-5.6530429981648921966552734375">
        <ele>418.600006103515625</ele>
        <time>2022-06-04T08:32:59.000Z</time>
      </trkpt>
      <trkpt lat="43.44510801136493682861328125" lon="-5.65310896374285221099853515625">
        <ele>417.20001220703125</ele>
        <time>2022-06-04T08:33:01.000Z</time>
      </trkpt>
      <trkpt lat="43.44501052983105182647705078125" lon="-5.65315338782966136932373046875">
        <ele>415.399993896484375</ele>
        <time>2022-06-04T08:33:03.000Z</time>
      </trkpt>
      <trkpt lat="43.44497163780033588409423828125" lon="-5.65317501313984394073486328125">
        <ele>414.20001220703125</ele>
        <time>2022-06-04T08:33:04.000Z</time>
      </trkpt>
      <trkpt lat="43.4449370205402374267578125" lon="-5.65320032648742198944091796875">
        <ele>412.79998779296875</ele>
        <time>2022-06-04T08:33:05.000Z</time>
      </trkpt>
      <trkpt lat="43.44490625895559787750244140625" lon="-5.6532357819378376007080078125">
        <ele>412</ele>
        <time>2022-06-04T08:33:06.000Z</time>
      </trkpt>
      <trkpt lat="43.44489477574825286865234375" lon="-5.653285570442676544189453125">
        <ele>411.600006103515625</ele>
        <time>2022-06-04T08:33:07.000Z</time>
      </trkpt>
      <trkpt lat="43.44490173272788524627685546875" lon="-5.6533415615558624267578125">
        <ele>410.79998779296875</ele>
        <time>2022-06-04T08:33:08.000Z</time>
      </trkpt>
      <trkpt lat="43.44491480849683284759521484375" lon="-5.65340903587639331817626953125">
        <ele>410.399993896484375</ele>
        <time>2022-06-04T08:33:09.000Z</time>
      </trkpt>
      <trkpt lat="43.444959484040737152099609375" lon="-5.65354297868907451629638671875">
        <ele>409</ele>
        <time>2022-06-04T08:33:11.000Z</time>
      </trkpt>
      <trkpt lat="43.4449918381869792938232421875" lon="-5.653600394725799560546875">
        <ele>408.20001220703125</ele>
        <time>2022-06-04T08:33:12.000Z</time>
      </trkpt>
      <trkpt lat="43.44501874409615993499755859375" lon="-5.6536568887531757354736328125">
        <ele>407.79998779296875</ele>
        <time>2022-06-04T08:33:13.000Z</time>
      </trkpt>
      <trkpt lat="43.44507507048547267913818359375" lon="-5.653764344751834869384765625">
        <ele>407.20001220703125</ele>
        <time>2022-06-04T08:33:15.000Z</time>
      </trkpt>
      <trkpt lat="43.4450967796146869659423828125" lon="-5.65380466170608997344970703125">
        <ele>406.79998779296875</ele>
        <time>2022-06-04T08:33:16.000Z</time>
      </trkpt>
      <trkpt lat="43.445128463208675384521484375" lon="-5.6538476608693599700927734375">
        <ele>406</ele>
        <time>2022-06-04T08:33:17.000Z</time>
      </trkpt>
      <trkpt lat="43.4451822750270366668701171875" lon="-5.65391245298087596893310546875">
        <ele>404.79998779296875</ele>
        <time>2022-06-04T08:33:19.000Z</time>
      </trkpt>
      <trkpt lat="43.4452307224273681640625" lon="-5.6539680249989032745361328125">
        <ele>403.79998779296875</ele>
        <time>2022-06-04T08:33:21.000Z</time>
      </trkpt>
      <trkpt lat="43.44525461085140705108642578125" lon="-5.6540032289922237396240234375">
        <ele>402.79998779296875</ele>
        <time>2022-06-04T08:33:22.000Z</time>
      </trkpt>
      <trkpt lat="43.44528076238930225372314453125" lon="-5.654037930071353912353515625">
        <ele>402.399993896484375</ele>
        <time>2022-06-04T08:33:23.000Z</time>
      </trkpt>
      <trkpt lat="43.44534882344305515289306640625" lon="-5.65412417985498905181884765625">
        <ele>401.79998779296875</ele>
        <time>2022-06-04T08:33:25.000Z</time>
      </trkpt>
      <trkpt lat="43.44539391808211803436279296875" lon="-5.65416826866567134857177734375">
        <ele>401.600006103515625</ele>
        <time>2022-06-04T08:33:26.000Z</time>
      </trkpt>
      <trkpt lat="43.4454427845776081085205078125" lon="-5.65420900471508502960205078125">
        <ele>401.600006103515625</ele>
        <time>2022-06-04T08:33:27.000Z</time>
      </trkpt>
      <trkpt lat="43.4455561079084873199462890625" lon="-5.65427958033978939056396484375">
        <ele>401.399993896484375</ele>
        <time>2022-06-04T08:33:29.000Z</time>
      </trkpt>
      <trkpt lat="43.44561159610748291015625" lon="-5.654303133487701416015625">
        <ele>401.20001220703125</ele>
        <time>2022-06-04T08:33:30.000Z</time>
      </trkpt>
      <trkpt lat="43.4456630609929561614990234375" lon="-5.65431746654212474822998046875">
        <ele>401</ele>
        <time>2022-06-04T08:33:31.000Z</time>
      </trkpt>
      <trkpt lat="43.44571008346974849700927734375" lon="-5.65433330833911895751953125">
        <ele>400.399993896484375</ele>
        <time>2022-06-04T08:33:32.000Z</time>
      </trkpt>
      <trkpt lat="43.44575232826173305511474609375" lon="-5.6543482281267642974853515625">
        <ele>400.20001220703125</ele>
        <time>2022-06-04T08:33:33.000Z</time>
      </trkpt>
      <trkpt lat="43.4457904659211635589599609375" lon="-5.65436608158051967620849609375">
        <ele>399.20001220703125</ele>
        <time>2022-06-04T08:33:34.000Z</time>
      </trkpt>
      <trkpt lat="43.4458290226757526397705078125" lon="-5.654392652213573455810546875">
        <ele>398.600006103515625</ele>
        <time>2022-06-04T08:33:35.000Z</time>
      </trkpt>
      <trkpt lat="43.44586439430713653564453125" lon="-5.65442123450338840484619140625">
        <ele>398.20001220703125</ele>
        <time>2022-06-04T08:33:36.000Z</time>
      </trkpt>
      <trkpt lat="43.4459021128714084625244140625" lon="-5.65445526503026485443115234375">
        <ele>398</ele>
        <time>2022-06-04T08:33:37.000Z</time>
      </trkpt>
      <trkpt lat="43.44597394578158855438232421875" lon="-5.65451343543827533721923828125">
        <ele>397.20001220703125</ele>
        <time>2022-06-04T08:33:39.000Z</time>
      </trkpt>
      <trkpt lat="43.44600462354719638824462890625" lon="-5.6545296125113964080810546875">
        <ele>397</ele>
        <time>2022-06-04T08:33:40.000Z</time>
      </trkpt>
      <trkpt lat="43.44602775759994983673095703125" lon="-5.6545431911945343017578125">
        <ele>396.600006103515625</ele>
        <time>2022-06-04T08:33:41.000Z</time>
      </trkpt>
      <trkpt lat="43.4460767917335033416748046875" lon="-5.65457395277917385101318359375">
        <ele>396.20001220703125</ele>
        <time>2022-06-04T08:33:43.000Z</time>
      </trkpt>
      <trkpt lat="43.4461227245628833770751953125" lon="-5.65459926612675189971923828125">
        <ele>396.20001220703125</ele>
        <time>2022-06-04T08:33:45.000Z</time>
      </trkpt>
      <trkpt lat="43.44617309980094432830810546875" lon="-5.65463027916848659515380859375">
        <ele>396.20001220703125</ele>
        <time>2022-06-04T08:33:47.000Z</time>
      </trkpt>
      <trkpt lat="43.44621953554451465606689453125" lon="-5.65465911291539669036865234375">
        <ele>396.20001220703125</ele>
        <time>2022-06-04T08:33:49.000Z</time>
      </trkpt>
      <trkpt lat="43.44624132849276065826416015625" lon="-5.65467487089335918426513671875">
        <ele>396.20001220703125</ele>
        <time>2022-06-04T08:33:50.000Z</time>
      </trkpt>
      <trkpt lat="43.44626002013683319091796875" lon="-5.65469398163259029388427734375">
        <ele>396.399993896484375</ele>
        <time>2022-06-04T08:33:51.000Z</time>
      </trkpt>
      <trkpt lat="43.44629195518791675567626953125" lon="-5.654726587235927581787109375">
        <ele>397.20001220703125</ele>
        <time>2022-06-04T08:33:53.000Z</time>
      </trkpt>
      <trkpt lat="43.44631726853549480438232421875" lon="-5.654764473438262939453125">
        <ele>397.79998779296875</ele>
        <time>2022-06-04T08:33:55.000Z</time>
      </trkpt>
      <trkpt lat="43.44632632099092006683349609375" lon="-5.65478391945362091064453125">
        <ele>398.20001220703125</ele>
        <time>2022-06-04T08:33:56.000Z</time>
      </trkpt>
      <trkpt lat="43.44633989967405796051025390625" lon="-5.65480328164994716644287109375">
        <ele>398.399993896484375</ele>
        <time>2022-06-04T08:33:57.000Z</time>
      </trkpt>
      <trkpt lat="43.4463607706129550933837890625" lon="-5.654843933880329132080078125">
        <ele>398.79998779296875</ele>
        <time>2022-06-04T08:33:59.000Z</time>
      </trkpt>
      <trkpt lat="43.44638071954250335693359375" lon="-5.6548967398703098297119140625">
        <ele>399.20001220703125</ele>
        <time>2022-06-04T08:34:01.000Z</time>
      </trkpt>
      <trkpt lat="43.44638876616954803466796875" lon="-5.654925070703029632568359375">
        <ele>399.20001220703125</ele>
        <time>2022-06-04T08:34:02.000Z</time>
      </trkpt>
      <trkpt lat="43.4463966451585292816162109375" lon="-5.65495767630636692047119140625">
        <ele>399.20001220703125</ele>
        <time>2022-06-04T08:34:03.000Z</time>
      </trkpt>
      <trkpt lat="43.446418941020965576171875" lon="-5.6550184451043605804443359375">
        <ele>399.399993896484375</ele>
        <time>2022-06-04T08:34:05.000Z</time>
      </trkpt>
      <trkpt lat="43.446437381207942962646484375" lon="-5.6550808064639568328857421875">
        <ele>399.399993896484375</ele>
        <time>2022-06-04T08:34:07.000Z</time>
      </trkpt>
      <trkpt lat="43.4464479424059391021728515625" lon="-5.6551488675177097320556640625">
        <ele>399.600006103515625</ele>
        <time>2022-06-04T08:34:09.000Z</time>
      </trkpt>
      <trkpt lat="43.44645909033715724945068359375" lon="-5.65521751530468463897705078125">
        <ele>399.600006103515625</ele>
        <time>2022-06-04T08:34:11.000Z</time>
      </trkpt>
      <trkpt lat="43.4464720822870731353759765625" lon="-5.65529161132872104644775390625">
        <ele>399.600006103515625</ele>
        <time>2022-06-04T08:34:13.000Z</time>
      </trkpt>
      <trkpt lat="43.44648088328540325164794921875" lon="-5.65537610091269016265869140625">
        <ele>399.600006103515625</ele>
        <time>2022-06-04T08:34:15.000Z</time>
      </trkpt>
      <trkpt lat="43.44648406840860843658447265625" lon="-5.65542119555175304412841796875">
        <ele>399.600006103515625</ele>
        <time>2022-06-04T08:34:16.000Z</time>
      </trkpt>
      <trkpt lat="43.44648608006536960601806640625" lon="-5.655464194715023040771484375">
        <ele>399.600006103515625</ele>
        <time>2022-06-04T08:34:17.000Z</time>
      </trkpt>
      <trkpt lat="43.44648239202797412872314453125" lon="-5.65555111505091190338134765625">
        <ele>399.600006103515625</ele>
        <time>2022-06-04T08:34:19.000Z</time>
      </trkpt>
      <trkpt lat="43.4464761056005954742431640625" lon="-5.65565002150833606719970703125">
        <ele>399.600006103515625</ele>
        <time>2022-06-04T08:34:21.000Z</time>
      </trkpt>
      <trkpt lat="43.4464707411825656890869140625" lon="-5.655702240765094757080078125">
        <ele>399.600006103515625</ele>
        <time>2022-06-04T08:34:22.000Z</time>
      </trkpt>
      <trkpt lat="43.44646479003131389617919921875" lon="-5.65575446002185344696044921875">
        <ele>399.399993896484375</ele>
        <time>2022-06-04T08:34:23.000Z</time>
      </trkpt>
      <trkpt lat="43.44644433818757534027099609375" lon="-5.6558576412498950958251953125">
        <ele>399.399993896484375</ele>
        <time>2022-06-04T08:34:25.000Z</time>
      </trkpt>
      <trkpt lat="43.4464108943939208984375" lon="-5.6559458188712596893310546875">
        <ele>399.399993896484375</ele>
        <time>2022-06-04T08:34:27.000Z</time>
      </trkpt>
      <trkpt lat="43.4463942982256412506103515625" lon="-5.65598831512033939361572265625">
        <ele>399.20001220703125</ele>
        <time>2022-06-04T08:34:28.000Z</time>
      </trkpt>
      <trkpt lat="43.4463768638670444488525390625" lon="-5.656028799712657928466796875">
        <ele>399.20001220703125</ele>
        <time>2022-06-04T08:34:29.000Z</time>
      </trkpt>
      <trkpt lat="43.4463480301201343536376953125" lon="-5.65611018799245357513427734375">
        <ele>399</ele>
        <time>2022-06-04T08:34:31.000Z</time>
      </trkpt>
      <trkpt lat="43.4462990798056125640869140625" lon="-5.65617992542684078216552734375">
        <ele>399</ele>
        <time>2022-06-04T08:34:33.000Z</time>
      </trkpt>
      <trkpt lat="43.44626362435519695281982421875" lon="-5.65620414912700653076171875">
        <ele>399</ele>
        <time>2022-06-04T08:34:34.000Z</time>
      </trkpt>
      <trkpt lat="43.44622657634317874908447265625" lon="-5.65622049383819103240966796875">
        <ele>399</ele>
        <time>2022-06-04T08:34:35.000Z</time>
      </trkpt>
      <trkpt lat="43.44615952111780643463134765625" lon="-5.656247399747371673583984375">
        <ele>398.79998779296875</ele>
        <time>2022-06-04T08:34:37.000Z</time>
      </trkpt>
      <trkpt lat="43.44610311090946197509765625" lon="-5.65627715550363063812255859375">
        <ele>398.79998779296875</ele>
        <time>2022-06-04T08:34:39.000Z</time>
      </trkpt>
      <trkpt lat="43.44605273567140102386474609375" lon="-5.6563149578869342803955078125">
        <ele>398.399993896484375</ele>
        <time>2022-06-04T08:34:41.000Z</time>
      </trkpt>
      <trkpt lat="43.44602574594318866729736328125" lon="-5.656333230435848236083984375">
        <ele>398.20001220703125</ele>
        <time>2022-06-04T08:34:42.000Z</time>
      </trkpt>
      <trkpt lat="43.44599942676723003387451171875" lon="-5.6563531793653964996337890625">
        <ele>398.20001220703125</ele>
        <time>2022-06-04T08:34:43.000Z</time>
      </trkpt>
      <trkpt lat="43.44594980590045452117919921875" lon="-5.65639584325253963470458984375">
        <ele>398.20001220703125</ele>
        <time>2022-06-04T08:34:45.000Z</time>
      </trkpt>
      <trkpt lat="43.445898927748203277587890625" lon="-5.65642735920846462249755859375">
        <ele>398.20001220703125</ele>
        <time>2022-06-04T08:34:47.000Z</time>
      </trkpt>
      <trkpt lat="43.4458521567285060882568359375" lon="-5.65646172501146793365478515625">
        <ele>398.20001220703125</ele>
        <time>2022-06-04T08:34:49.000Z</time>
      </trkpt>
      <trkpt lat="43.445803709328174591064453125" lon="-5.65649508498609066009521484375">
        <ele>398.20001220703125</ele>
        <time>2022-06-04T08:34:51.000Z</time>
      </trkpt>
      <trkpt lat="43.4457550942897796630859375" lon="-5.6565238349139690399169921875">
        <ele>398.399993896484375</ele>
        <time>2022-06-04T08:34:53.000Z</time>
      </trkpt>
      <trkpt lat="43.44570656307041645050048828125" lon="-5.65654671750962734222412109375">
        <ele>398.79998779296875</ele>
        <time>2022-06-04T08:34:55.000Z</time>
      </trkpt>
      <trkpt lat="43.44565778039395809173583984375" lon="-5.65656616352498531341552734375">
        <ele>399.399993896484375</ele>
        <time>2022-06-04T08:34:57.000Z</time>
      </trkpt>
      <trkpt lat="43.44561134465038776397705078125" lon="-5.65658225677907466888427734375">
        <ele>399.600006103515625</ele>
        <time>2022-06-04T08:34:59.000Z</time>
      </trkpt>
      <trkpt lat="43.4455698542296886444091796875" lon="-5.6565912254154682159423828125">
        <ele>399.79998779296875</ele>
        <time>2022-06-04T08:35:01.000Z</time>
      </trkpt>
      <trkpt lat="43.4455473907291889190673828125" lon="-5.65659415908157825469970703125">
        <ele>399.79998779296875</ele>
        <time>2022-06-04T08:35:02.000Z</time>
      </trkpt>
      <trkpt lat="43.44552484340965747833251953125" lon="-5.6565989367663860321044921875">
        <ele>400</ele>
        <time>2022-06-04T08:35:03.000Z</time>
      </trkpt>
      <trkpt lat="43.44547455199062824249267578125" lon="-5.65660455264151096343994140625">
        <ele>400.399993896484375</ele>
        <time>2022-06-04T08:35:05.000Z</time>
      </trkpt>
      <trkpt lat="43.44544789753854274749755859375" lon="-5.65660220570862293243408203125">
        <ele>400.600006103515625</ele>
        <time>2022-06-04T08:35:06.000Z</time>
      </trkpt>
      <trkpt lat="43.44542174600064754486083984375" lon="-5.65659575164318084716796875">
        <ele>400.79998779296875</ele>
        <time>2022-06-04T08:35:07.000Z</time>
      </trkpt>
      <trkpt lat="43.44539660029113292694091796875" lon="-5.65659306943416595458984375">
        <ele>401</ele>
        <time>2022-06-04T08:35:08.000Z</time>
      </trkpt>
      <trkpt lat="43.44537078402936458587646484375" lon="-5.65658778883516788482666015625">
        <ele>401.20001220703125</ele>
        <time>2022-06-04T08:35:09.000Z</time>
      </trkpt>
      <trkpt lat="43.44531060196459293365478515625" lon="-5.656577982008457183837890625">
        <ele>401.20001220703125</ele>
        <time>2022-06-04T08:35:11.000Z</time>
      </trkpt>
      <trkpt lat="43.44524572603404521942138671875" lon="-5.65655359067022800445556640625">
        <ele>401.20001220703125</ele>
        <time>2022-06-04T08:35:13.000Z</time>
      </trkpt>
      <trkpt lat="43.4452092647552490234375" lon="-5.65654403530061244964599609375">
        <ele>401.20001220703125</ele>
        <time>2022-06-04T08:35:14.000Z</time>
      </trkpt>
      <trkpt lat="43.44517095945775508880615234375" lon="-5.65653079189360141754150390625">
        <ele>401.20001220703125</ele>
        <time>2022-06-04T08:35:15.000Z</time>
      </trkpt>
      <trkpt lat="43.44509401358664035797119140625" lon="-5.6565007008612155914306640625">
        <ele>401.399993896484375</ele>
        <time>2022-06-04T08:35:17.000Z</time>
      </trkpt>
      <trkpt lat="43.44502712599933147430419921875" lon="-5.656475387513637542724609375">
        <ele>401.399993896484375</ele>
        <time>2022-06-04T08:35:19.000Z</time>
      </trkpt>
      <trkpt lat="43.444995693862438201904296875" lon="-5.6564604677259922027587890625">
        <ele>401.399993896484375</ele>
        <time>2022-06-04T08:35:20.000Z</time>
      </trkpt>
      <trkpt lat="43.4449676983058452606201171875" lon="-5.65645091235637664794921875">
        <ele>401.399993896484375</ele>
        <time>2022-06-04T08:35:21.000Z</time>
      </trkpt>
      <trkpt lat="43.44490684568881988525390625" lon="-5.65642140805721282958984375">
        <ele>401.399993896484375</ele>
        <time>2022-06-04T08:35:23.000Z</time>
      </trkpt>
      <trkpt lat="43.44484557397663593292236328125" lon="-5.65640422515571117401123046875">
        <ele>401.399993896484375</ele>
        <time>2022-06-04T08:35:25.000Z</time>
      </trkpt>
      <trkpt lat="43.44481120817363262176513671875" lon="-5.65639919601380825042724609375">
        <ele>401.399993896484375</ele>
        <time>2022-06-04T08:35:26.000Z</time>
      </trkpt>
      <trkpt lat="43.4447739087045192718505859375" lon="-5.6563907302916049957275390625">
        <ele>401.600006103515625</ele>
        <time>2022-06-04T08:35:27.000Z</time>
      </trkpt>
      <trkpt lat="43.44468967057764530181884765625" lon="-5.65637891180813312530517578125">
        <ele>401.600006103515625</ele>
        <time>2022-06-04T08:35:29.000Z</time>
      </trkpt>
      <trkpt lat="43.4446116350591182708740234375" lon="-5.6563697755336761474609375">
        <ele>401.79998779296875</ele>
        <time>2022-06-04T08:35:31.000Z</time>
      </trkpt>
      <trkpt lat="43.44457517378032207489013671875" lon="-5.65636550076305866241455078125">
        <ele>402</ele>
        <time>2022-06-04T08:35:32.000Z</time>
      </trkpt>
      <trkpt lat="43.44454147852957248687744140625" lon="-5.6563672609627246856689453125">
        <ele>402</ele>
        <time>2022-06-04T08:35:33.000Z</time>
      </trkpt>
      <trkpt lat="43.4444845654070377349853515625" lon="-5.656364075839519500732421875">
        <ele>402</ele>
        <time>2022-06-04T08:35:35.000Z</time>
      </trkpt>
      <trkpt lat="43.44442983157932758331298828125" lon="-5.6563689373433589935302734375">
        <ele>402.20001220703125</ele>
        <time>2022-06-04T08:35:37.000Z</time>
      </trkpt>
      <trkpt lat="43.44437266699969768524169921875" lon="-5.65638679079711437225341796875">
        <ele>402.20001220703125</ele>
        <time>2022-06-04T08:35:39.000Z</time>
      </trkpt>
      <trkpt lat="43.444313742220401763916015625" lon="-5.65638695843517780303955078125">
        <ele>402.600006103515625</ele>
        <time>2022-06-04T08:35:41.000Z</time>
      </trkpt>
      <trkpt lat="43.4442569129168987274169921875" lon="-5.65639902837574481964111328125">
        <ele>402.79998779296875</ele>
        <time>2022-06-04T08:35:43.000Z</time>
      </trkpt>
      <trkpt lat="43.44422900117933750152587890625" lon="-5.65640841610729694366455078125">
        <ele>402.79998779296875</ele>
        <time>2022-06-04T08:35:44.000Z</time>
      </trkpt>
      <trkpt lat="43.444203436374664306640625" lon="-5.6564180552959442138671875">
        <ele>403</ele>
        <time>2022-06-04T08:35:45.000Z</time>
      </trkpt>
      <trkpt lat="43.444150798022747039794921875" lon="-5.65645367838442325592041015625">
        <ele>403.20001220703125</ele>
        <time>2022-06-04T08:35:47.000Z</time>
      </trkpt>
      <trkpt lat="43.44412238337099552154541015625" lon="-5.656543783843517303466796875">
        <ele>403.20001220703125</ele>
        <time>2022-06-04T08:35:49.000Z</time>
      </trkpt>
      <trkpt lat="43.44410084187984466552734375" lon="-5.656633637845516204833984375">
        <ele>403.399993896484375</ele>
        <time>2022-06-04T08:35:51.000Z</time>
      </trkpt>
      <trkpt lat="43.4440835751593112945556640625" lon="-5.65671368502080440521240234375">
        <ele>403.399993896484375</ele>
        <time>2022-06-04T08:35:53.000Z</time>
      </trkpt>
      <trkpt lat="43.4440627880394458770751953125" lon="-5.65679213963449001312255859375">
        <ele>403.399993896484375</ele>
        <time>2022-06-04T08:35:55.000Z</time>
      </trkpt>
      <trkpt lat="43.444037139415740966796875" lon="-5.6568654812872409820556640625">
        <ele>403.600006103515625</ele>
        <time>2022-06-04T08:35:57.000Z</time>
      </trkpt>
      <trkpt lat="43.44401559792459011077880859375" lon="-5.65693848766386508941650390625">
        <ele>403.600006103515625</ele>
        <time>2022-06-04T08:35:59.000Z</time>
      </trkpt>
      <trkpt lat="43.443996571004390716552734375" lon="-5.657009147107601165771484375">
        <ele>404</ele>
        <time>2022-06-04T08:36:01.000Z</time>
      </trkpt>
      <trkpt lat="43.4439679048955440521240234375" lon="-5.6570666469633579254150390625">
        <ele>404.600006103515625</ele>
        <time>2022-06-04T08:36:03.000Z</time>
      </trkpt>
      <trkpt lat="43.4439551644027233123779296875" lon="-5.6570948101580142974853515625">
        <ele>404.600006103515625</ele>
        <time>2022-06-04T08:36:04.000Z</time>
      </trkpt>
      <trkpt lat="43.4439420886337757110595703125" lon="-5.65712590701878070831298828125">
        <ele>404.79998779296875</ele>
        <time>2022-06-04T08:36:05.000Z</time>
      </trkpt>
      <trkpt lat="43.44392004422843456268310546875" lon="-5.65718625672161579132080078125">
        <ele>405.20001220703125</ele>
        <time>2022-06-04T08:36:07.000Z</time>
      </trkpt>
      <trkpt lat="43.443906046450138092041015625" lon="-5.6572282500565052032470703125">
        <ele>405.600006103515625</ele>
        <time>2022-06-04T08:36:09.000Z</time>
      </trkpt>
      <trkpt lat="43.44388836063444614410400390625" lon="-5.6572761945426464080810546875">
        <ele>405.79998779296875</ele>
        <time>2022-06-04T08:36:11.000Z</time>
      </trkpt>
      <trkpt lat="43.44387880526483058929443359375" lon="-5.65730108879506587982177734375">
        <ele>405.79998779296875</ele>
        <time>2022-06-04T08:36:12.000Z</time>
      </trkpt>
      <trkpt lat="43.44387545250356197357177734375" lon="-5.65733042545616626739501953125">
        <ele>406</ele>
        <time>2022-06-04T08:36:13.000Z</time>
      </trkpt>
      <trkpt lat="43.44385667704045772552490234375" lon="-5.65739513374865055084228515625">
        <ele>406.399993896484375</ele>
        <time>2022-06-04T08:36:15.000Z</time>
      </trkpt>
      <trkpt lat="43.4438421763479709625244140625" lon="-5.65742413513362407684326171875">
        <ele>406.600006103515625</ele>
        <time>2022-06-04T08:36:16.000Z</time>
      </trkpt>
      <trkpt lat="43.44382734037935733795166015625" lon="-5.65745271742343902587890625">
        <ele>407</ele>
        <time>2022-06-04T08:36:17.000Z</time>
      </trkpt>
      <trkpt lat="43.4437965787947177886962890625" lon="-5.65750963054597377777099609375">
        <ele>407.399993896484375</ele>
        <time>2022-06-04T08:36:19.000Z</time>
      </trkpt>
      <trkpt lat="43.44375978223979473114013671875" lon="-5.65756495110690593719482421875">
        <ele>407.399993896484375</ele>
        <time>2022-06-04T08:36:21.000Z</time>
      </trkpt>
      <trkpt lat="43.44372340478003025054931640625" lon="-5.6576061062514781951904296875">
        <ele>407.600006103515625</ele>
        <time>2022-06-04T08:36:23.000Z</time>
      </trkpt>
      <trkpt lat="43.44370680861175060272216796875" lon="-5.657624714076519012451171875">
        <ele>407.600006103515625</ele>
        <time>2022-06-04T08:36:24.000Z</time>
      </trkpt>
      <trkpt lat="43.44369239173829555511474609375" lon="-5.65764323808252811431884765625">
        <ele>407.600006103515625</ele>
        <time>2022-06-04T08:36:25.000Z</time>
      </trkpt>
      <trkpt lat="43.44366498291492462158203125" lon="-5.65768338739871978759765625">
        <ele>407.79998779296875</ele>
        <time>2022-06-04T08:36:27.000Z</time>
      </trkpt>
      <trkpt lat="43.44363656826317310333251953125" lon="-5.65771783702075481414794921875">
        <ele>407.79998779296875</ele>
        <time>2022-06-04T08:36:29.000Z</time>
      </trkpt>
      <trkpt lat="43.44361192546784877777099609375" lon="-5.6577506102621555328369140625">
        <ele>408.20001220703125</ele>
        <time>2022-06-04T08:36:31.000Z</time>
      </trkpt>
      <trkpt lat="43.44358258880674839019775390625" lon="-5.65777785144746303558349609375">
        <ele>408.79998779296875</ele>
        <time>2022-06-04T08:36:33.000Z</time>
      </trkpt>
      <trkpt lat="43.44356515444815158843994140625" lon="-5.657789669930934906005859375">
        <ele>409.20001220703125</ele>
        <time>2022-06-04T08:36:34.000Z</time>
      </trkpt>
      <trkpt lat="43.4435467980802059173583984375" lon="-5.65780182369053363800048828125">
        <ele>409.399993896484375</ele>
        <time>2022-06-04T08:36:35.000Z</time>
      </trkpt>
      <trkpt lat="43.44350564293563365936279296875" lon="-5.65782428719103336334228515625">
        <ele>410.20001220703125</ele>
        <time>2022-06-04T08:36:37.000Z</time>
      </trkpt>
      <trkpt lat="43.44348116777837276458740234375" lon="-5.65783518366515636444091796875">
        <ele>410.600006103515625</ele>
        <time>2022-06-04T08:36:38.000Z</time>
      </trkpt>
      <trkpt lat="43.443451412022113800048828125" lon="-5.6578449904918670654296875">
        <ele>410.79998779296875</ele>
        <time>2022-06-04T08:36:39.000Z</time>
      </trkpt>
      <trkpt lat="43.44337974674999713897705078125" lon="-5.65786183811724185943603515625">
        <ele>411.20001220703125</ele>
        <time>2022-06-04T08:36:41.000Z</time>
      </trkpt>
      <trkpt lat="43.4433369152247905731201171875" lon="-5.6578686274588108062744140625">
        <ele>411.20001220703125</ele>
        <time>2022-06-04T08:36:42.000Z</time>
      </trkpt>
      <trkpt lat="43.4432899765670299530029296875" lon="-5.6578766740858554840087890625">
        <ele>411.20001220703125</ele>
        <time>2022-06-04T08:36:43.000Z</time>
      </trkpt>
      <trkpt lat="43.4431855380535125732421875" lon="-5.65790827386081218719482421875">
        <ele>411.20001220703125</ele>
        <time>2022-06-04T08:36:45.000Z</time>
      </trkpt>
      <trkpt lat="43.44307665713131427764892578125" lon="-5.6579511053860187530517578125">
        <ele>411.20001220703125</ele>
        <time>2022-06-04T08:36:47.000Z</time>
      </trkpt>
      <trkpt lat="43.4429681114852428436279296875" lon="-5.65799946896731853485107421875">
        <ele>411</ele>
        <time>2022-06-04T08:36:49.000Z</time>
      </trkpt>
      <trkpt lat="43.4428658522665500640869140625" lon="-5.6580486707389354705810546875">
        <ele>410.79998779296875</ele>
        <time>2022-06-04T08:36:51.000Z</time>
      </trkpt>
      <trkpt lat="43.44277641735970973968505859375" lon="-5.65808999352157115936279296875">
        <ele>410.20001220703125</ele>
        <time>2022-06-04T08:36:53.000Z</time>
      </trkpt>
      <trkpt lat="43.44273618422448635101318359375" lon="-5.65811027772724628448486328125">
        <ele>410</ele>
        <time>2022-06-04T08:36:54.000Z</time>
      </trkpt>
      <trkpt lat="43.44270030967891216278076171875" lon="-5.65812989138066768646240234375">
        <ele>409.79998779296875</ele>
        <time>2022-06-04T08:36:55.000Z</time>
      </trkpt>
      <trkpt lat="43.442666195333003997802734375" lon="-5.65815621055662631988525390625">
        <ele>409.600006103515625</ele>
        <time>2022-06-04T08:36:56.000Z</time>
      </trkpt>
      <trkpt lat="43.44263291917741298675537109375" lon="-5.65818957053124904632568359375">
        <ele>409.399993896484375</ele>
        <time>2022-06-04T08:36:57.000Z</time>
      </trkpt>
      <trkpt lat="43.44257508404552936553955078125" lon="-5.65825897268950939178466796875">
        <ele>409.399993896484375</ele>
        <time>2022-06-04T08:36:59.000Z</time>
      </trkpt>
      <trkpt lat="43.442524038255214691162109375" lon="-5.65831513144075870513916015625">
        <ele>409.399993896484375</ele>
        <time>2022-06-04T08:37:01.000Z</time>
      </trkpt>
      <trkpt lat="43.44246963970363140106201171875" lon="-5.6583698652684688568115234375">
        <ele>409.20001220703125</ele>
        <time>2022-06-04T08:37:03.000Z</time>
      </trkpt>
      <trkpt lat="43.4424289874732494354248046875" lon="-5.65841889940202236175537109375">
        <ele>409.20001220703125</ele>
        <time>2022-06-04T08:37:05.000Z</time>
      </trkpt>
      <trkpt lat="43.442387916147708892822265625" lon="-5.65845494158565998077392578125">
        <ele>409.399993896484375</ele>
        <time>2022-06-04T08:37:07.000Z</time>
      </trkpt>
      <trkpt lat="43.442347012460231781005859375" lon="-5.6584801711142063140869140625">
        <ele>410</ele>
        <time>2022-06-04T08:37:09.000Z</time>
      </trkpt>
      <trkpt lat="43.4423233754932880401611328125" lon="-5.658494420349597930908203125">
        <ele>410.399993896484375</ele>
        <time>2022-06-04T08:37:10.000Z</time>
      </trkpt>
      <trkpt lat="43.44229797832667827606201171875" lon="-5.65851093269884586334228515625">
        <ele>410.600006103515625</ele>
        <time>2022-06-04T08:37:11.000Z</time>
      </trkpt>
      <trkpt lat="43.44224081374704837799072265625" lon="-5.6585472263395786285400390625">
        <ele>411</ele>
        <time>2022-06-04T08:37:13.000Z</time>
      </trkpt>
      <trkpt lat="43.44217761419713497161865234375" lon="-5.65857899375259876251220703125">
        <ele>411</ele>
        <time>2022-06-04T08:37:15.000Z</time>
      </trkpt>
      <trkpt lat="43.44210636802017688751220703125" lon="-5.6586079113185405731201171875">
        <ele>411</ele>
        <time>2022-06-04T08:37:17.000Z</time>
      </trkpt>
      <trkpt lat="43.44202724285423755645751953125" lon="-5.65862752497196197509765625">
        <ele>411</ele>
        <time>2022-06-04T08:37:19.000Z</time>
      </trkpt>
      <trkpt lat="43.441991619765758514404296875" lon="-5.65863154828548431396484375">
        <ele>411</ele>
        <time>2022-06-04T08:37:20.000Z</time>
      </trkpt>
      <trkpt lat="43.44195909798145294189453125" lon="-5.65863816998898983001708984375">
        <ele>411</ele>
        <time>2022-06-04T08:37:21.000Z</time>
      </trkpt>
      <trkpt lat="43.44191274605691432952880859375" lon="-5.65864085219800472259521484375">
        <ele>411</ele>
        <time>2022-06-04T08:37:22.000Z</time>
      </trkpt>
      <trkpt lat="43.4418653883039951324462890625" lon="-5.65863825380802154541015625">
        <ele>410.79998779296875</ele>
        <time>2022-06-04T08:37:23.000Z</time>
      </trkpt>
      <trkpt lat="43.44182020984590053558349609375" lon="-5.65862677060067653656005859375">
        <ele>410.79998779296875</ele>
        <time>2022-06-04T08:37:24.000Z</time>
      </trkpt>
      <trkpt lat="43.44178064726293087005615234375" lon="-5.658610761165618896484375">
        <ele>410.399993896484375</ele>
        <time>2022-06-04T08:37:25.000Z</time>
      </trkpt>
      <trkpt lat="43.4417376480996608734130859375" lon="-5.65858804620802402496337890625">
        <ele>410.20001220703125</ele>
        <time>2022-06-04T08:37:26.000Z</time>
      </trkpt>
      <trkpt lat="43.4416967444121837615966796875" lon="-5.65856055356562137603759765625">
        <ele>409.399993896484375</ele>
        <time>2022-06-04T08:37:27.000Z</time>
      </trkpt>
      <trkpt lat="43.44162759371101856231689453125" lon="-5.6585021317005157470703125">
        <ele>407.20001220703125</ele>
        <time>2022-06-04T08:37:29.000Z</time>
      </trkpt>
      <trkpt lat="43.44157411716878414154052734375" lon="-5.65845242701470851898193359375">
        <ele>406</ele>
        <time>2022-06-04T08:37:31.000Z</time>
      </trkpt>
      <trkpt lat="43.44153128564357757568359375" lon="-5.65839543007314205169677734375">
        <ele>404.600006103515625</ele>
        <time>2022-06-04T08:37:33.000Z</time>
      </trkpt>
      <trkpt lat="43.4415093250572681427001953125" lon="-5.65835905261337757110595703125">
        <ele>404</ele>
        <time>2022-06-04T08:37:34.000Z</time>
      </trkpt>
      <trkpt lat="43.4414823353290557861328125" lon="-5.658310689032077789306640625">
        <ele>403.399993896484375</ele>
        <time>2022-06-04T08:37:35.000Z</time>
      </trkpt>
      <trkpt lat="43.44142936170101165771484375" lon="-5.658216141164302825927734375">
        <ele>402</ele>
        <time>2022-06-04T08:37:37.000Z</time>
      </trkpt>
      <trkpt lat="43.44140161760151386260986328125" lon="-5.6581743992865085601806640625">
        <ele>401</ele>
        <time>2022-06-04T08:37:38.000Z</time>
      </trkpt>
      <trkpt lat="43.44137035310268402099609375" lon="-5.6581324897706508636474609375">
        <ele>400</ele>
        <time>2022-06-04T08:37:39.000Z</time>
      </trkpt>
      <trkpt lat="43.4413343109190464019775390625" lon="-5.6581029854714870452880859375">
        <ele>399.399993896484375</ele>
        <time>2022-06-04T08:37:40.000Z</time>
      </trkpt>
      <trkpt lat="43.44129332341253757476806640625" lon="-5.65806970931589603424072265625">
        <ele>398.600006103515625</ele>
        <time>2022-06-04T08:37:41.000Z</time>
      </trkpt>
      <trkpt lat="43.4412508271634578704833984375" lon="-5.6580392830073833465576171875">
        <ele>397.20001220703125</ele>
        <time>2022-06-04T08:37:42.000Z</time>
      </trkpt>
      <trkpt lat="43.44121218658983707427978515625" lon="-5.65800122916698455810546875">
        <ele>396.399993896484375</ele>
        <time>2022-06-04T08:37:43.000Z</time>
      </trkpt>
      <trkpt lat="43.44116692431271076202392578125" lon="-5.657954625785350799560546875">
        <ele>395.79998779296875</ele>
        <time>2022-06-04T08:37:44.000Z</time>
      </trkpt>
      <trkpt lat="43.44111009500920772552490234375" lon="-5.6578998081386089324951171875">
        <ele>395.20001220703125</ele>
        <time>2022-06-04T08:37:45.000Z</time>
      </trkpt>
      <trkpt lat="43.44105661846697330474853515625" lon="-5.65784792415797710418701171875">
        <ele>394.20001220703125</ele>
        <time>2022-06-04T08:37:46.000Z</time>
      </trkpt>
      <trkpt lat="43.44100532121956348419189453125" lon="-5.657796375453472137451171875">
        <ele>393.600006103515625</ele>
        <time>2022-06-04T08:37:47.000Z</time>
      </trkpt>
      <trkpt lat="43.44089853577315807342529296875" lon="-5.65767810679972171783447265625">
        <ele>392.79998779296875</ele>
        <time>2022-06-04T08:37:49.000Z</time>
      </trkpt>
      <trkpt lat="43.44080063514411449432373046875" lon="-5.65758272074162960052490234375">
        <ele>391.79998779296875</ele>
        <time>2022-06-04T08:37:51.000Z</time>
      </trkpt>
      <trkpt lat="43.4407526068389415740966796875" lon="-5.657552294433116912841796875">
        <ele>391.399993896484375</ele>
        <time>2022-06-04T08:37:52.000Z</time>
      </trkpt>
      <trkpt lat="43.44070390798151493072509765625" lon="-5.65752203576266765594482421875">
        <ele>390.79998779296875</ele>
        <time>2022-06-04T08:37:53.000Z</time>
      </trkpt>
      <trkpt lat="43.44059653580188751220703125" lon="-5.65746403299272060394287109375">
        <ele>390</ele>
        <time>2022-06-04T08:37:55.000Z</time>
      </trkpt>
      <trkpt lat="43.44054783694446086883544921875" lon="-5.6574418209493160247802734375">
        <ele>389.20001220703125</ele>
        <time>2022-06-04T08:37:56.000Z</time>
      </trkpt>
      <trkpt lat="43.440507687628269195556640625" lon="-5.65742765553295612335205078125">
        <ele>388.399993896484375</ele>
        <time>2022-06-04T08:37:57.000Z</time>
      </trkpt>
      <trkpt lat="43.4404692985117435455322265625" lon="-5.65741575323045253753662109375">
        <ele>388.20001220703125</ele>
        <time>2022-06-04T08:37:58.000Z</time>
      </trkpt>
      <trkpt lat="43.4404260478913784027099609375" lon="-5.65740133635699748992919921875">
        <ele>388</ele>
        <time>2022-06-04T08:37:59.000Z</time>
      </trkpt>
      <trkpt lat="43.44033979810774326324462890625" lon="-5.65737920813262462615966796875">
        <ele>387.600006103515625</ele>
        <time>2022-06-04T08:38:01.000Z</time>
      </trkpt>
      <trkpt lat="43.440303839743137359619140625" lon="-5.6573707424104213714599609375">
        <ele>387.399993896484375</ele>
        <time>2022-06-04T08:38:02.000Z</time>
      </trkpt>
      <trkpt lat="43.4402711503207683563232421875" lon="-5.657360851764678955078125">
        <ele>387</ele>
        <time>2022-06-04T08:38:03.000Z</time>
      </trkpt>
      <trkpt lat="43.44020585529506206512451171875" lon="-5.65733143128454685211181640625">
        <ele>386.20001220703125</ele>
        <time>2022-06-04T08:38:05.000Z</time>
      </trkpt>
      <trkpt lat="43.44017635099589824676513671875" lon="-5.657302848994731903076171875">
        <ele>385.79998779296875</ele>
        <time>2022-06-04T08:38:06.000Z</time>
      </trkpt>
      <trkpt lat="43.44015271402895450592041015625" lon="-5.65727124921977519989013671875">
        <ele>385.600006103515625</ele>
        <time>2022-06-04T08:38:07.000Z</time>
      </trkpt>
      <trkpt lat="43.44011633656919002532958984375" lon="-5.6572034396231174468994140625">
        <ele>384.79998779296875</ele>
        <time>2022-06-04T08:38:09.000Z</time>
      </trkpt>
      <trkpt lat="43.4401021711528301239013671875" lon="-5.65716999582946300506591796875">
        <ele>384.399993896484375</ele>
        <time>2022-06-04T08:38:10.000Z</time>
      </trkpt>
      <trkpt lat="43.4400902688503265380859375" lon="-5.6571288406848907470703125">
        <ele>384</ele>
        <time>2022-06-04T08:38:11.000Z</time>
      </trkpt>
      <trkpt lat="43.44008347950875759124755859375" lon="-5.6570874340832233428955078125">
        <ele>383.399993896484375</ele>
        <time>2022-06-04T08:38:12.000Z</time>
      </trkpt>
      <trkpt lat="43.4400808811187744140625" lon="-5.65704896114766597747802734375">
        <ele>383</ele>
        <time>2022-06-04T08:38:13.000Z</time>
      </trkpt>
      <trkpt lat="43.44008381478488445281982421875" lon="-5.6569643877446651458740234375">
        <ele>382</ele>
        <time>2022-06-04T08:38:15.000Z</time>
      </trkpt>
      <trkpt lat="43.44009689055383205413818359375" lon="-5.6568648107349872589111328125">
        <ele>381.20001220703125</ele>
        <time>2022-06-04T08:38:17.000Z</time>
      </trkpt>
      <trkpt lat="43.44010745175182819366455078125" lon="-5.65680219791829586029052734375">
        <ele>380.79998779296875</ele>
        <time>2022-06-04T08:38:18.000Z</time>
      </trkpt>
      <trkpt lat="43.440114744007587432861328125" lon="-5.6567370705306529998779296875">
        <ele>380.399993896484375</ele>
        <time>2022-06-04T08:38:19.000Z</time>
      </trkpt>
      <trkpt lat="43.44011239707469940185546875" lon="-5.65662466920912265777587890625">
        <ele>379</ele>
        <time>2022-06-04T08:38:21.000Z</time>
      </trkpt>
      <trkpt lat="43.44008289277553558349609375" lon="-5.6565416045486927032470703125">
        <ele>378.20001220703125</ele>
        <time>2022-06-04T08:38:23.000Z</time>
      </trkpt>
      <trkpt lat="43.4400636143982410430908203125" lon="-5.65650966949760913848876953125">
        <ele>377.79998779296875</ele>
        <time>2022-06-04T08:38:24.000Z</time>
      </trkpt>
      <trkpt lat="43.440041653811931610107421875" lon="-5.65648620016872882843017578125">
        <ele>377.20001220703125</ele>
        <time>2022-06-04T08:38:25.000Z</time>
      </trkpt>
      <trkpt lat="43.4400002472102642059326171875" lon="-5.65646356903016567230224609375">
        <ele>376.79998779296875</ele>
        <time>2022-06-04T08:38:27.000Z</time>
      </trkpt>
      <trkpt lat="43.4399610199034214019775390625" lon="-5.65644814632833003997802734375">
        <ele>376.600006103515625</ele>
        <time>2022-06-04T08:38:29.000Z</time>
      </trkpt>
      <trkpt lat="43.43991718254983425140380859375" lon="-5.6564413569867610931396484375">
        <ele>376.20001220703125</ele>
        <time>2022-06-04T08:38:31.000Z</time>
      </trkpt>
      <trkpt lat="43.43987443484365940093994140625" lon="-5.65643523819744586944580078125">
        <ele>376.20001220703125</ele>
        <time>2022-06-04T08:38:33.000Z</time>
      </trkpt>
      <trkpt lat="43.43983202241361141204833984375" lon="-5.6564212404191493988037109375">
        <ele>376.20001220703125</ele>
        <time>2022-06-04T08:38:35.000Z</time>
      </trkpt>
      <trkpt lat="43.439798243343830108642578125" lon="-5.6564081646502017974853515625">
        <ele>376.20001220703125</ele>
        <time>2022-06-04T08:38:37.000Z</time>
      </trkpt>
      <trkpt lat="43.43977988697588443756103515625" lon="-5.656402967870235443115234375">
        <ele>376.20001220703125</ele>
        <time>2022-06-04T08:38:38.000Z</time>
      </trkpt>
      <trkpt lat="43.4397632069885730743408203125" lon="-5.65639936365187168121337890625">
        <ele>376.20001220703125</ele>
        <time>2022-06-04T08:38:39.000Z</time>
      </trkpt>
      <trkpt lat="43.4397226385772228240966796875" lon="-5.6564004532992839813232421875">
        <ele>376.600006103515625</ele>
        <time>2022-06-04T08:38:41.000Z</time>
      </trkpt>
      <trkpt lat="43.43968751840293407440185546875" lon="-5.65639399923384189605712890625">
        <ele>376.79998779296875</ele>
        <time>2022-06-04T08:38:43.000Z</time>
      </trkpt>
      <trkpt lat="43.43964577652513980865478515625" lon="-5.656386874616146087646484375">
        <ele>377</ele>
        <time>2022-06-04T08:38:45.000Z</time>
      </trkpt>
      <trkpt lat="43.43960411846637725830078125" lon="-5.656378827989101409912109375">
        <ele>377.20001220703125</ele>
        <time>2022-06-04T08:38:47.000Z</time>
      </trkpt>
      <trkpt lat="43.43956522643566131591796875" lon="-5.65638042055070400238037109375">
        <ele>377.399993896484375</ele>
        <time>2022-06-04T08:38:49.000Z</time>
      </trkpt>
      <trkpt lat="43.4395258314907550811767578125" lon="-5.65635108388960361480712890625">
        <ele>377.79998779296875</ele>
        <time>2022-06-04T08:38:51.000Z</time>
      </trkpt>
      <trkpt lat="43.43949154950678348541259765625" lon="-5.65632208250463008880615234375">
        <ele>378.20001220703125</ele>
        <time>2022-06-04T08:38:53.000Z</time>
      </trkpt>
      <trkpt lat="43.43945450149476528167724609375" lon="-5.65630313940346240997314453125">
        <ele>378.399993896484375</ele>
        <time>2022-06-04T08:38:55.000Z</time>
      </trkpt>
      <trkpt lat="43.43943245708942413330078125" lon="-5.65629056654870510101318359375">
        <ele>378.600006103515625</ele>
        <time>2022-06-04T08:38:56.000Z</time>
      </trkpt>
      <trkpt lat="43.43940555118024349212646484375" lon="-5.6562774069607257843017578125">
        <ele>379</ele>
        <time>2022-06-04T08:38:57.000Z</time>
      </trkpt>
      <trkpt lat="43.4393595345318317413330078125" lon="-5.65625268034636974334716796875">
        <ele>379.600006103515625</ele>
        <time>2022-06-04T08:38:59.000Z</time>
      </trkpt>
      <trkpt lat="43.43931469134986400604248046875" lon="-5.6562234275043010711669921875">
        <ele>379.79998779296875</ele>
        <time>2022-06-04T08:39:01.000Z</time>
      </trkpt>
      <trkpt lat="43.43929164111614227294921875" lon="-5.6562007963657379150390625">
        <ele>379.79998779296875</ele>
        <time>2022-06-04T08:39:02.000Z</time>
      </trkpt>
      <trkpt lat="43.43926213681697845458984375" lon="-5.6561724655330181121826171875">
        <ele>379.79998779296875</ele>
        <time>2022-06-04T08:39:03.000Z</time>
      </trkpt>
      <trkpt lat="43.4391942434012889862060546875" lon="-5.6561044044792652130126953125">
        <ele>379.79998779296875</ele>
        <time>2022-06-04T08:39:05.000Z</time>
      </trkpt>
      <trkpt lat="43.43912073411047458648681640625" lon="-5.656032152473926544189453125">
        <ele>379.79998779296875</ele>
        <time>2022-06-04T08:39:07.000Z</time>
      </trkpt>
      <trkpt lat="43.4390540979802608489990234375" lon="-5.65595805644989013671875">
        <ele>379.600006103515625</ele>
        <time>2022-06-04T08:39:09.000Z</time>
      </trkpt>
      <trkpt lat="43.43901311047375202178955078125" lon="-5.655917488038539886474609375">
        <ele>379.20001220703125</ele>
        <time>2022-06-04T08:39:10.000Z</time>
      </trkpt>
      <trkpt lat="43.43896499834954738616943359375" lon="-5.65587717108428478240966796875">
        <ele>379</ele>
        <time>2022-06-04T08:39:11.000Z</time>
      </trkpt>
      <trkpt lat="43.4389062412083148956298828125" lon="-5.65583509393036365509033203125">
        <ele>378.399993896484375</ele>
        <time>2022-06-04T08:39:12.000Z</time>
      </trkpt>
      <trkpt lat="43.43884496949613094329833984375" lon="-5.65580374561250209808349609375">
        <ele>377.399993896484375</ele>
        <time>2022-06-04T08:39:13.000Z</time>
      </trkpt>
      <trkpt lat="43.4387909062206745147705078125" lon="-5.65578497014939785003662109375">
        <ele>376.600006103515625</ele>
        <time>2022-06-04T08:39:14.000Z</time>
      </trkpt>
      <trkpt lat="43.43874447047710418701171875" lon="-5.6557714752852916717529296875">
        <ele>376</ele>
        <time>2022-06-04T08:39:15.000Z</time>
      </trkpt>
      <trkpt lat="43.438660986721515655517578125" lon="-5.65575563348829746246337890625">
        <ele>374.600006103515625</ele>
        <time>2022-06-04T08:39:17.000Z</time>
      </trkpt>
      <trkpt lat="43.43862100504338741302490234375" lon="-5.65575513057410717010498046875">
        <ele>373.79998779296875</ele>
        <time>2022-06-04T08:39:18.000Z</time>
      </trkpt>
      <trkpt lat="43.43857842497527599334716796875" lon="-5.65575764514505863189697265625">
        <ele>373.399993896484375</ele>
        <time>2022-06-04T08:39:19.000Z</time>
      </trkpt>
      <trkpt lat="43.43853634782135486602783203125" lon="-5.65577373839914798736572265625">
        <ele>372.79998779296875</ele>
        <time>2022-06-04T08:39:20.000Z</time>
      </trkpt>
      <trkpt lat="43.4384901635348796844482421875" lon="-5.65579452551901340484619140625">
        <ele>372.600006103515625</ele>
        <time>2022-06-04T08:39:21.000Z</time>
      </trkpt>
      <trkpt lat="43.43845521099865436553955078125" lon="-5.65583358518779277801513671875">
        <ele>372.399993896484375</ele>
        <time>2022-06-04T08:39:22.000Z</time>
      </trkpt>
      <trkpt lat="43.4384286403656005859375" lon="-5.6558811105787754058837890625">
        <ele>372.20001220703125</ele>
        <time>2022-06-04T08:39:23.000Z</time>
      </trkpt>
      <trkpt lat="43.43840726651251316070556640625" lon="-5.65593265928328037261962890625">
        <ele>371.79998779296875</ele>
        <time>2022-06-04T08:39:24.000Z</time>
      </trkpt>
      <trkpt lat="43.43838430009782314300537109375" lon="-5.6559835374355316162109375">
        <ele>371.600006103515625</ele>
        <time>2022-06-04T08:39:25.000Z</time>
      </trkpt>
      <trkpt lat="43.43835714273154735565185546875" lon="-5.65602838061749935150146484375">
        <ele>371.399993896484375</ele>
        <time>2022-06-04T08:39:26.000Z</time>
      </trkpt>
      <trkpt lat="43.4383288957178592681884765625" lon="-5.65606475807726383209228515625">
        <ele>371</ele>
        <time>2022-06-04T08:39:27.000Z</time>
      </trkpt>
      <trkpt lat="43.43829511664807796478271484375" lon="-5.65609828568994998931884765625">
        <ele>370.79998779296875</ele>
        <time>2022-06-04T08:39:28.000Z</time>
      </trkpt>
      <trkpt lat="43.43825488351285457611083984375" lon="-5.65612393431365489959716796875">
        <ele>370.600006103515625</ele>
        <time>2022-06-04T08:39:29.000Z</time>
      </trkpt>
      <trkpt lat="43.43817181885242462158203125" lon="-5.6561717949807643890380859375">
        <ele>370.399993896484375</ele>
        <time>2022-06-04T08:39:31.000Z</time>
      </trkpt>
      <trkpt lat="43.4381260536611080169677734375" lon="-5.65618730150163173675537109375">
        <ele>370.20001220703125</ele>
        <time>2022-06-04T08:39:32.000Z</time>
      </trkpt>
      <trkpt lat="43.43807651661336421966552734375" lon="-5.656203813850879669189453125">
        <ele>370.20001220703125</ele>
        <time>2022-06-04T08:39:33.000Z</time>
      </trkpt>
      <trkpt lat="43.43798431567847728729248046875" lon="-5.65622963011264801025390625">
        <ele>369.79998779296875</ele>
        <time>2022-06-04T08:39:35.000Z</time>
      </trkpt>
      <trkpt lat="43.43789630569517612457275390625" lon="-5.656244046986103057861328125">
        <ele>369</ele>
        <time>2022-06-04T08:39:37.000Z</time>
      </trkpt>
      <trkpt lat="43.43781617470085620880126953125" lon="-5.65625645220279693603515625">
        <ele>368</ele>
        <time>2022-06-04T08:39:39.000Z</time>
      </trkpt>
      <trkpt lat="43.43775951303541660308837890625" lon="-5.6562582962214946746826171875">
        <ele>366.399993896484375</ele>
        <time>2022-06-04T08:39:41.000Z</time>
      </trkpt>
      <trkpt lat="43.4376861713826656341552734375" lon="-5.6562519259750843048095703125">
        <ele>364.600006103515625</ele>
        <time>2022-06-04T08:39:43.000Z</time>
      </trkpt>
      <trkpt lat="43.43759690411388874053955078125" lon="-5.6562284566462039947509765625">
        <ele>362.79998779296875</ele>
        <time>2022-06-04T08:39:45.000Z</time>
      </trkpt>
      <trkpt lat="43.4375460259616374969482421875" lon="-5.656210519373416900634765625">
        <ele>362</ele>
        <time>2022-06-04T08:39:46.000Z</time>
      </trkpt>
      <trkpt lat="43.43749229796230792999267578125" lon="-5.65618646331131458282470703125">
        <ele>361.20001220703125</ele>
        <time>2022-06-04T08:39:47.000Z</time>
      </trkpt>
      <trkpt lat="43.4374456107616424560546875" lon="-5.656154192984104156494140625">
        <ele>359.79998779296875</ele>
        <time>2022-06-04T08:39:48.000Z</time>
      </trkpt>
      <trkpt lat="43.43740847893059253692626953125" lon="-5.656107924878597259521484375">
        <ele>359</ele>
        <time>2022-06-04T08:39:49.000Z</time>
      </trkpt>
      <trkpt lat="43.43737880699336528778076171875" lon="-5.6560557894408702850341796875">
        <ele>358.20001220703125</ele>
        <time>2022-06-04T08:39:50.000Z</time>
      </trkpt>
      <trkpt lat="43.43735416419804096221923828125" lon="-5.65600357018411159515380859375">
        <ele>357.600006103515625</ele>
        <time>2022-06-04T08:39:51.000Z</time>
      </trkpt>
      <trkpt lat="43.43734092079102993011474609375" lon="-5.65595093183219432830810546875">
        <ele>357</ele>
        <time>2022-06-04T08:39:52.000Z</time>
      </trkpt>
      <trkpt lat="43.43733052723109722137451171875" lon="-5.6559069268405437469482421875">
        <ele>356.600006103515625</ele>
        <time>2022-06-04T08:39:53.000Z</time>
      </trkpt>
      <trkpt lat="43.43732382170855998992919921875" lon="-5.65587029792368412017822265625">
        <ele>356</ele>
        <time>2022-06-04T08:39:54.000Z</time>
      </trkpt>
      <trkpt lat="43.4373187087476253509521484375" lon="-5.6558371894061565399169921875">
        <ele>355.79998779296875</ele>
        <time>2022-06-04T08:39:55.000Z</time>
      </trkpt>
      <trkpt lat="43.43730990774929523468017578125" lon="-5.6557751633226871490478515625">
        <ele>355.600006103515625</ele>
        <time>2022-06-04T08:39:57.000Z</time>
      </trkpt>
      <trkpt lat="43.43731158412992954254150390625" lon="-5.6557138077914714813232421875">
        <ele>355.600006103515625</ele>
        <time>2022-06-04T08:39:59.000Z</time>
      </trkpt>
      <trkpt lat="43.43730948865413665771484375" lon="-5.655682124197483062744140625">
        <ele>355.399993896484375</ele>
        <time>2022-06-04T08:40:00.000Z</time>
      </trkpt>
      <trkpt lat="43.43730789609253406524658203125" lon="-5.65564951859414577484130859375">
        <ele>355.399993896484375</ele>
        <time>2022-06-04T08:40:01.000Z</time>
      </trkpt>
      <trkpt lat="43.437304794788360595703125" lon="-5.65557894296944141387939453125">
        <ele>355.399993896484375</ele>
        <time>2022-06-04T08:40:03.000Z</time>
      </trkpt>
      <trkpt lat="43.43730856664478778839111328125" lon="-5.6555020809173583984375">
        <ele>355.600006103515625</ele>
        <time>2022-06-04T08:40:05.000Z</time>
      </trkpt>
      <trkpt lat="43.4373250789940357208251953125" lon="-5.65543058328330516815185546875">
        <ele>355.79998779296875</ele>
        <time>2022-06-04T08:40:07.000Z</time>
      </trkpt>
      <trkpt lat="43.43735030852258205413818359375" lon="-5.65537978895008563995361328125">
        <ele>355.79998779296875</ele>
        <time>2022-06-04T08:40:09.000Z</time>
      </trkpt>
      <trkpt lat="43.43737813644111156463623046875" lon="-5.65534584224224090576171875">
        <ele>356.20001220703125</ele>
        <time>2022-06-04T08:40:11.000Z</time>
      </trkpt>
      <trkpt lat="43.43740143813192844390869140625" lon="-5.65532195381820201873779296875">
        <ele>356.399993896484375</ele>
        <time>2022-06-04T08:40:13.000Z</time>
      </trkpt>
      <trkpt lat="43.43742675147950649261474609375" lon="-5.6552927009761333465576171875">
        <ele>357.399993896484375</ele>
        <time>2022-06-04T08:40:15.000Z</time>
      </trkpt>
      <trkpt lat="43.43745642341673374176025390625" lon="-5.655261017382144927978515625">
        <ele>357.600006103515625</ele>
        <time>2022-06-04T08:40:17.000Z</time>
      </trkpt>
      <trkpt lat="43.4374853409826755523681640625" lon="-5.65522891469299793243408203125">
        <ele>358.20001220703125</ele>
        <time>2022-06-04T08:40:19.000Z</time>
      </trkpt>
      <trkpt lat="43.43751375563442707061767578125" lon="-5.65519773401319980621337890625">
        <ele>358.600006103515625</ele>
        <time>2022-06-04T08:40:21.000Z</time>
      </trkpt>
      <trkpt lat="43.43753906898200511932373046875" lon="-5.65517141483724117279052734375">
        <ele>359</ele>
        <time>2022-06-04T08:40:23.000Z</time>
      </trkpt>
      <trkpt lat="43.43756069429218769073486328125" lon="-5.65515263937413692474365234375">
        <ele>359.600006103515625</ele>
        <time>2022-06-04T08:40:25.000Z</time>
      </trkpt>
      <trkpt lat="43.437588103115558624267578125" lon="-5.65511827357113361358642578125">
        <ele>360.20001220703125</ele>
        <time>2022-06-04T08:40:27.000Z</time>
      </trkpt>
      <trkpt lat="43.437612242996692657470703125" lon="-5.65506764687597751617431640625">
        <ele>360.79998779296875</ele>
        <time>2022-06-04T08:40:29.000Z</time>
      </trkpt>
      <trkpt lat="43.4376365505158901214599609375" lon="-5.65500997938215732574462890625">
        <ele>361.399993896484375</ele>
        <time>2022-06-04T08:40:31.000Z</time>
      </trkpt>
      <trkpt lat="43.4376687370240688323974609375" lon="-5.65494225360453128814697265625">
        <ele>361.600006103515625</ele>
        <time>2022-06-04T08:40:33.000Z</time>
      </trkpt>
      <trkpt lat="43.43769078142940998077392578125" lon="-5.654898919165134429931640625">
        <ele>361.79998779296875</ele>
        <time>2022-06-04T08:40:34.000Z</time>
      </trkpt>
      <trkpt lat="43.437714837491512298583984375" lon="-5.654844939708709716796875">
        <ele>361.79998779296875</ele>
        <time>2022-06-04T08:40:35.000Z</time>
      </trkpt>
      <trkpt lat="43.43777610920369625091552734375" lon="-5.6547160260379314422607421875">
        <ele>361.79998779296875</ele>
        <time>2022-06-04T08:40:37.000Z</time>
      </trkpt>
      <trkpt lat="43.43781148083508014678955078125" lon="-5.6546439416706562042236328125">
        <ele>361.79998779296875</ele>
        <time>2022-06-04T08:40:38.000Z</time>
      </trkpt>
      <trkpt lat="43.43787870369851589202880859375" lon="-5.65448761917650699615478515625">
        <ele>361.79998779296875</ele>
        <time>2022-06-04T08:40:39.000Z</time>
      </trkpt>
      <trkpt lat="43.4379359520971775054931640625" lon="-5.65435384400188922882080078125">
        <ele>361.79998779296875</ele>
        <time>2022-06-04T08:40:41.000Z</time>
      </trkpt>
      <trkpt lat="43.43799202702939510345458984375" lon="-5.65423163585364818572998046875">
        <ele>361</ele>
        <time>2022-06-04T08:40:43.000Z</time>
      </trkpt>
      <trkpt lat="43.43802236951887607574462890625" lon="-5.65416960977017879486083984375">
        <ele>360.600006103515625</ele>
        <time>2022-06-04T08:40:45.000Z</time>
      </trkpt>
      <trkpt lat="43.43806587159633636474609375" lon="-5.6540334038436412811279296875">
        <ele>360.20001220703125</ele>
        <time>2022-06-04T08:40:46.000Z</time>
      </trkpt>
      <trkpt lat="43.43806989490985870361328125" lon="-5.653964839875698089599609375">
        <ele>359.79998779296875</ele>
        <time>2022-06-04T08:40:47.000Z</time>
      </trkpt>
      <trkpt lat="43.43806184828281402587890625" lon="-5.6538992933928966522216796875">
        <ele>359.399993896484375</ele>
        <time>2022-06-04T08:40:48.000Z</time>
      </trkpt>
      <trkpt lat="43.43806184828281402587890625" lon="-5.6538992933928966522216796875">
        <ele>359.20001220703125</ele>
        <time>2022-06-04T08:40:49.000Z</time>
      </trkpt>
      <trkpt lat="43.43804701231420040130615234375" lon="-5.65384137444198131561279296875">
        <ele>358.79998779296875</ele>
        <time>2022-06-04T08:40:50.000Z</time>
      </trkpt>
      <trkpt lat="43.4380291588604450225830078125" lon="-5.65378085710108280181884765625">
        <ele>358.600006103515625</ele>
        <time>2022-06-04T08:40:51.000Z</time>
      </trkpt>
      <trkpt lat="43.4379892610013484954833984375" lon="-5.653661079704761505126953125">
        <ele>358.399993896484375</ele>
        <time>2022-06-04T08:40:52.000Z</time>
      </trkpt>
      <trkpt lat="43.4379892610013484954833984375" lon="-5.653661079704761505126953125">
        <ele>358</ele>
        <time>2022-06-04T08:40:53.000Z</time>
      </trkpt>
      <trkpt lat="43.43795782886445522308349609375" lon="-5.653537698090076446533203125">
        <ele>357</ele>
        <time>2022-06-04T08:40:54.000Z</time>
      </trkpt>
      <trkpt lat="43.43795782886445522308349609375" lon="-5.653537698090076446533203125">
        <ele>356.600006103515625</ele>
        <time>2022-06-04T08:40:55.000Z</time>
      </trkpt>
      <trkpt lat="43.43794257380068302154541015625" lon="-5.6533879972994327545166015625">
        <ele>356</ele>
        <time>2022-06-04T08:40:57.000Z</time>
      </trkpt>
      <trkpt lat="43.43793310225009918212890625" lon="-5.65330828540027141571044921875">
        <ele>356</ele>
        <time>2022-06-04T08:40:58.000Z</time>
      </trkpt>
      <trkpt lat="43.43791323713958263397216796875" lon="-5.65323117189109325408935546875">
        <ele>355.79998779296875</ele>
        <time>2022-06-04T08:40:59.000Z</time>
      </trkpt>
      <trkpt lat="43.4378155879676342010498046875" lon="-5.653028748929500579833984375">
        <ele>354.79998779296875</ele>
        <time>2022-06-04T08:41:01.000Z</time>
      </trkpt>
      <trkpt lat="43.4378155879676342010498046875" lon="-5.653028748929500579833984375">
        <ele>354.20001220703125</ele>
        <time>2022-06-04T08:41:02.000Z</time>
      </trkpt>
      <trkpt lat="43.43774534761905670166015625" lon="-5.6529212929308414459228515625">
        <ele>353.600006103515625</ele>
        <time>2022-06-04T08:41:03.000Z</time>
      </trkpt>
      <trkpt lat="43.43768591992557048797607421875" lon="-5.6528233923017978668212890625">
        <ele>352.399993896484375</ele>
        <time>2022-06-04T08:41:05.000Z</time>
      </trkpt>
      <trkpt lat="43.437657169997692108154296875" lon="-5.6527781300246715545654296875">
        <ele>351.20001220703125</ele>
        <time>2022-06-04T08:41:07.000Z</time>
      </trkpt>
      <trkpt lat="43.4375715069472789764404296875" lon="-5.65264779143035411834716796875">
        <ele>350</ele>
        <time>2022-06-04T08:41:09.000Z</time>
      </trkpt>
      <trkpt lat="43.43750855885446071624755859375" lon="-5.65254603512585163116455078125">
        <ele>349.399993896484375</ele>
        <time>2022-06-04T08:41:11.000Z</time>
      </trkpt>
      <trkpt lat="43.4374777972698211669921875" lon="-5.65248920582234859466552734375">
        <ele>349.20001220703125</ele>
        <time>2022-06-04T08:41:13.000Z</time>
      </trkpt>
      <trkpt lat="43.4374213032424449920654296875" lon="-5.6523657403886318206787109375">
        <ele>349.20001220703125</ele>
        <time>2022-06-04T08:41:15.000Z</time>
      </trkpt>
      <trkpt lat="43.4373703412711620330810546875" lon="-5.6522259302437305450439453125">
        <ele>349</ele>
        <time>2022-06-04T08:41:17.000Z</time>
      </trkpt>
      <trkpt lat="43.4373314492404460906982421875" lon="-5.65211109817028045654296875">
        <ele>349</ele>
        <time>2022-06-04T08:41:18.000Z</time>
      </trkpt>
      <trkpt lat="43.4373314492404460906982421875" lon="-5.65211109817028045654296875">
        <ele>348.79998779296875</ele>
        <time>2022-06-04T08:41:19.000Z</time>
      </trkpt>
      <trkpt lat="43.43731753528118133544921875" lon="-5.652067847549915313720703125">
        <ele>348.79998779296875</ele>
        <time>2022-06-04T08:41:20.000Z</time>
      </trkpt>
      <trkpt lat="43.43730747699737548828125" lon="-5.6520364992320537567138671875">
        <ele>348.79998779296875</ele>
        <time>2022-06-04T08:41:21.000Z</time>
      </trkpt>
      <trkpt lat="43.437294065952301025390625" lon="-5.6519858725368976593017578125">
        <ele>348.399993896484375</ele>
        <time>2022-06-04T08:41:23.000Z</time>
      </trkpt>
      <trkpt lat="43.43726648949086666107177734375" lon="-5.65196617506444454193115234375">
        <ele>348</ele>
        <time>2022-06-04T08:41:24.000Z</time>
      </trkpt>
      <trkpt lat="43.43726648949086666107177734375" lon="-5.65196617506444454193115234375">
        <ele>347.600006103515625</ele>
        <time>2022-06-04T08:41:25.000Z</time>
      </trkpt>
      <trkpt lat="43.437258861958980560302734375" lon="-5.651980675756931304931640625">
        <ele>347</ele>
        <time>2022-06-04T08:41:26.000Z</time>
      </trkpt>
      <trkpt lat="43.4372590295970439910888671875" lon="-5.65200783312320709228515625">
        <ele>346.399993896484375</ele>
        <time>2022-06-04T08:41:27.000Z</time>
      </trkpt>
      <trkpt lat="43.43726120889186859130859375" lon="-5.65208771266043186187744140625">
        <ele>345.79998779296875</ele>
        <time>2022-06-04T08:41:28.000Z</time>
      </trkpt>
      <trkpt lat="43.43726380728185176849365234375" lon="-5.6521372497081756591796875">
        <ele>345.20001220703125</ele>
        <time>2022-06-04T08:41:29.000Z</time>
      </trkpt>
      <trkpt lat="43.43726565130054950714111328125" lon="-5.6522393412888050079345703125">
        <ele>344.600006103515625</ele>
        <time>2022-06-04T08:41:31.000Z</time>
      </trkpt>
      <trkpt lat="43.43725760467350482940673828125" lon="-5.65235040150582790374755859375">
        <ele>344.20001220703125</ele>
        <time>2022-06-04T08:41:33.000Z</time>
      </trkpt>
      <trkpt lat="43.43724788166582584381103515625" lon="-5.6523996032774448394775390625">
        <ele>343.79998779296875</ele>
        <time>2022-06-04T08:41:35.000Z</time>
      </trkpt>
      <trkpt lat="43.437228016555309295654296875" lon="-5.652488283812999725341796875">
        <ele>343.399993896484375</ele>
        <time>2022-06-04T08:41:37.000Z</time>
      </trkpt>
      <trkpt lat="43.4372241608798503875732421875" lon="-5.6525395810604095458984375">
        <ele>343.20001220703125</ele>
        <time>2022-06-04T08:41:38.000Z</time>
      </trkpt>
      <trkpt lat="43.437238745391368865966796875" lon="-5.652656257152557373046875">
        <ele>343</ele>
        <time>2022-06-04T08:41:39.000Z</time>
      </trkpt>
      <trkpt lat="43.437250815331935882568359375" lon="-5.652708895504474639892578125">
        <ele>342.600006103515625</ele>
        <time>2022-06-04T08:41:40.000Z</time>
      </trkpt>
      <trkpt lat="43.4372630529105663299560546875" lon="-5.65276027657091617584228515625">
        <ele>342.20001220703125</ele>
        <time>2022-06-04T08:41:41.000Z</time>
      </trkpt>
      <trkpt lat="43.43727327883243560791015625" lon="-5.65280537120997905731201171875">
        <ele>341.79998779296875</ele>
        <time>2022-06-04T08:41:42.000Z</time>
      </trkpt>
      <trkpt lat="43.4372808225452899932861328125" lon="-5.652842335402965545654296875">
        <ele>341.399993896484375</ele>
        <time>2022-06-04T08:41:43.000Z</time>
      </trkpt>
      <trkpt lat="43.437303788959980010986328125" lon="-5.65291567705571651458740234375">
        <ele>340.79998779296875</ele>
        <time>2022-06-04T08:41:45.000Z</time>
      </trkpt>
      <trkpt lat="43.4373222291469573974609375" lon="-5.65295993350446224212646484375">
        <ele>340.399993896484375</ele>
        <time>2022-06-04T08:41:46.000Z</time>
      </trkpt>
      <trkpt lat="43.43734293244779109954833984375" lon="-5.65300561487674713134765625">
        <ele>340.20001220703125</ele>
        <time>2022-06-04T08:41:47.000Z</time>
      </trkpt>
      <trkpt lat="43.43738618306815624237060546875" lon="-5.65309002064168453216552734375">
        <ele>339</ele>
        <time>2022-06-04T08:41:49.000Z</time>
      </trkpt>
      <trkpt lat="43.43743555247783660888671875" lon="-5.65319496206939220428466796875">
        <ele>338</ele>
        <time>2022-06-04T08:41:51.000Z</time>
      </trkpt>
      <trkpt lat="43.437450639903545379638671875" lon="-5.6532569043338298797607421875">
        <ele>337.600006103515625</ele>
        <time>2022-06-04T08:41:52.000Z</time>
      </trkpt>
      <trkpt lat="43.43745156191289424896240234375" lon="-5.653323121368885040283203125">
        <ele>337.399993896484375</ele>
        <time>2022-06-04T08:41:53.000Z</time>
      </trkpt>
      <trkpt lat="43.437425829470157623291015625" lon="-5.6533791124820709228515625">
        <ele>337.20001220703125</ele>
        <time>2022-06-04T08:41:54.000Z</time>
      </trkpt>
      <trkpt lat="43.43738920055329799652099609375" lon="-5.65342563204467296600341796875">
        <ele>336.600006103515625</ele>
        <time>2022-06-04T08:41:55.000Z</time>
      </trkpt>
      <trkpt lat="43.43738920055329799652099609375" lon="-5.65342563204467296600341796875">
        <ele>336</ele>
        <time>2022-06-04T08:41:56.000Z</time>
      </trkpt>
      <trkpt lat="43.4373522363603115081787109375" lon="-5.65345832146704196929931640625">
        <ele>335.20001220703125</ele>
        <time>2022-06-04T08:41:57.000Z</time>
      </trkpt>
      <trkpt lat="43.437278307974338531494140625" lon="-5.6534848921000957489013671875">
        <ele>334.600006103515625</ele>
        <time>2022-06-04T08:41:58.000Z</time>
      </trkpt>
      <trkpt lat="43.43723698519170284271240234375" lon="-5.653488077223300933837890625">
        <ele>334.20001220703125</ele>
        <time>2022-06-04T08:41:59.000Z</time>
      </trkpt>
      <trkpt lat="43.437146879732608795166015625" lon="-5.65349243581295013427734375">
        <ele>333.20001220703125</ele>
        <time>2022-06-04T08:42:01.000Z</time>
      </trkpt>
      <trkpt lat="43.437146879732608795166015625" lon="-5.65349243581295013427734375">
        <ele>332.600006103515625</ele>
        <time>2022-06-04T08:42:02.000Z</time>
      </trkpt>
      <trkpt lat="43.43705358915030956268310546875" lon="-5.65350274555385112762451171875">
        <ele>332.20001220703125</ele>
        <time>2022-06-04T08:42:03.000Z</time>
      </trkpt>
      <trkpt lat="43.437010757625102996826171875" lon="-5.6535217724740505218505859375">
        <ele>331.79998779296875</ele>
        <time>2022-06-04T08:42:04.000Z</time>
      </trkpt>
      <trkpt lat="43.43697362579405307769775390625" lon="-5.653543733060359954833984375">
        <ele>331.20001220703125</ele>
        <time>2022-06-04T08:42:05.000Z</time>
      </trkpt>
      <trkpt lat="43.43690271489322185516357421875" lon="-5.6535921804606914520263671875">
        <ele>330.79998779296875</ele>
        <time>2022-06-04T08:42:07.000Z</time>
      </trkpt>
      <trkpt lat="43.4368295408785343170166015625" lon="-5.65361984074115753173828125">
        <ele>330.399993896484375</ele>
        <time>2022-06-04T08:42:09.000Z</time>
      </trkpt>
      <trkpt lat="43.4367950074374675750732421875" lon="-5.6536258757114410400390625">
        <ele>330.20001220703125</ele>
        <time>2022-06-04T08:42:10.000Z</time>
      </trkpt>
      <trkpt lat="43.436759300529956817626953125" lon="-5.65362998284399509429931640625">
        <ele>330</ele>
        <time>2022-06-04T08:42:11.000Z</time>
      </trkpt>
      <trkpt lat="43.43668729998171329498291015625" lon="-5.653647668659687042236328125">
        <ele>329.79998779296875</ele>
        <time>2022-06-04T08:42:13.000Z</time>
      </trkpt>
      <trkpt lat="43.43660566024482250213623046875" lon="-5.65368295647203922271728515625">
        <ele>329</ele>
        <time>2022-06-04T08:42:15.000Z</time>
      </trkpt>
      <trkpt lat="43.43656760640442371368408203125" lon="-5.65370726399123668670654296875">
        <ele>328.79998779296875</ele>
        <time>2022-06-04T08:42:16.000Z</time>
      </trkpt>
      <trkpt lat="43.4365344978868961334228515625" lon="-5.65373458899557590484619140625">
        <ele>328.600006103515625</ele>
        <time>2022-06-04T08:42:17.000Z</time>
      </trkpt>
      <trkpt lat="43.43650289811193943023681640625" lon="-5.65376744605600833892822265625">
        <ele>328.20001220703125</ele>
        <time>2022-06-04T08:42:19.000Z</time>
      </trkpt>
      <trkpt lat="43.4364369325339794158935546875" lon="-5.6538379378616809844970703125">
        <ele>328</ele>
        <time>2022-06-04T08:42:21.000Z</time>
      </trkpt>
      <trkpt lat="43.43635872937738895416259765625" lon="-5.65388546325266361236572265625">
        <ele>328</ele>
        <time>2022-06-04T08:42:22.000Z</time>
      </trkpt>
      <trkpt lat="43.43631631694734096527099609375" lon="-5.653896443545818328857421875">
        <ele>327.79998779296875</ele>
        <time>2022-06-04T08:42:23.000Z</time>
      </trkpt>
      <trkpt lat="43.43621389009058475494384765625" lon="-5.65389920957386493682861328125">
        <ele>327.600006103515625</ele>
        <time>2022-06-04T08:42:25.000Z</time>
      </trkpt>
      <trkpt lat="43.43621389009058475494384765625" lon="-5.65389920957386493682861328125">
        <ele>327.399993896484375</ele>
        <time>2022-06-04T08:42:26.000Z</time>
      </trkpt>
      <trkpt lat="43.4360775165259838104248046875" lon="-5.65387624315917491912841796875">
        <ele>327.20001220703125</ele>
        <time>2022-06-04T08:42:27.000Z</time>
      </trkpt>
      <trkpt lat="43.4359410591423511505126953125" lon="-5.6538302265107631683349609375">
        <ele>327</ele>
        <time>2022-06-04T08:42:29.000Z</time>
      </trkpt>
      <trkpt lat="43.4358421526849269866943359375" lon="-5.6537873111665248870849609375">
        <ele>326.79998779296875</ele>
        <time>2022-06-04T08:42:31.000Z</time>
      </trkpt>
      <trkpt lat="43.4358421526849269866943359375" lon="-5.6537873111665248870849609375">
        <ele>326.600006103515625</ele>
        <time>2022-06-04T08:42:32.000Z</time>
      </trkpt>
      <trkpt lat="43.43579848296940326690673828125" lon="-5.653771720826625823974609375">
        <ele>326.399993896484375</ele>
        <time>2022-06-04T08:42:33.000Z</time>
      </trkpt>
      <trkpt lat="43.4357201121747493743896484375" lon="-5.65378990955650806427001953125">
        <ele>325.79998779296875</ele>
        <time>2022-06-04T08:42:34.000Z</time>
      </trkpt>
      <trkpt lat="43.4357201121747493743896484375" lon="-5.65378990955650806427001953125">
        <ele>325.20001220703125</ele>
        <time>2022-06-04T08:42:35.000Z</time>
      </trkpt>
      <trkpt lat="43.43570846132934093475341796875" lon="-5.65386953763663768768310546875">
        <ele>324.600006103515625</ele>
        <time>2022-06-04T08:42:36.000Z</time>
      </trkpt>
      <trkpt lat="43.435718603432178497314453125" lon="-5.65391178242862224578857421875">
        <ele>323.79998779296875</ele>
        <time>2022-06-04T08:42:37.000Z</time>
      </trkpt>
      <trkpt lat="43.4357355348765850067138671875" lon="-5.6539955176413059234619140625">
        <ele>322.20001220703125</ele>
        <time>2022-06-04T08:42:39.000Z</time>
      </trkpt>
      <trkpt lat="43.43574869446456432342529296875" lon="-5.65407388843595981597900390625">
        <ele>321</ele>
        <time>2022-06-04T08:42:41.000Z</time>
      </trkpt>
      <trkpt lat="43.43575925566256046295166015625" lon="-5.65414966084063053131103515625">
        <ele>320.399993896484375</ele>
        <time>2022-06-04T08:42:43.000Z</time>
      </trkpt>
      <trkpt lat="43.43575925566256046295166015625" lon="-5.65414966084063053131103515625">
        <ele>320.20001220703125</ele>
        <time>2022-06-04T08:42:44.000Z</time>
      </trkpt>
      <trkpt lat="43.43576378189027309417724609375" lon="-5.654216296970844268798828125">
        <ele>320</ele>
        <time>2022-06-04T08:42:45.000Z</time>
      </trkpt>
      <trkpt lat="43.4357600100338459014892578125" lon="-5.6542758084833621978759765625">
        <ele>320</ele>
        <time>2022-06-04T08:42:47.000Z</time>
      </trkpt>
      <trkpt lat="43.43575556762516498565673828125" lon="-5.65430573187768459320068359375">
        <ele>320</ele>
        <time>2022-06-04T08:42:49.000Z</time>
      </trkpt>
      <trkpt lat="43.43574819155037403106689453125" lon="-5.654340684413909912109375">
        <ele>319.79998779296875</ele>
        <time>2022-06-04T08:42:50.000Z</time>
      </trkpt>
      <trkpt lat="43.43573662452399730682373046875" lon="-5.65437630750238895416259765625">
        <ele>319.79998779296875</ele>
        <time>2022-06-04T08:42:51.000Z</time>
      </trkpt>
      <trkpt lat="43.435710556805133819580078125" lon="-5.6544541753828525543212890625">
        <ele>319.79998779296875</ele>
        <time>2022-06-04T08:42:53.000Z</time>
      </trkpt>
      <trkpt lat="43.43569505028426647186279296875" lon="-5.65454377792775630950927734375">
        <ele>319.79998779296875</ele>
        <time>2022-06-04T08:42:55.000Z</time>
      </trkpt>
      <trkpt lat="43.43567912466824054718017578125" lon="-5.6546362303197383880615234375">
        <ele>320</ele>
        <time>2022-06-04T08:42:57.000Z</time>
      </trkpt>
      <trkpt lat="43.435662947595119476318359375" lon="-5.6547228991985321044921875">
        <ele>320.20001220703125</ele>
        <time>2022-06-04T08:42:59.000Z</time>
      </trkpt>
      <trkpt lat="43.43562765978276729583740234375" lon="-5.654845945537090301513671875">
        <ele>320.20001220703125</ele>
        <time>2022-06-04T08:43:01.000Z</time>
      </trkpt>
      <trkpt lat="43.43562765978276729583740234375" lon="-5.654845945537090301513671875">
        <ele>320.600006103515625</ele>
        <time>2022-06-04T08:43:02.000Z</time>
      </trkpt>
      <trkpt lat="43.43561206944286823272705078125" lon="-5.65488517284393310546875">
        <ele>320.79998779296875</ele>
        <time>2022-06-04T08:43:03.000Z</time>
      </trkpt>
      <trkpt lat="43.4355742670595645904541015625" lon="-5.65497209317982196807861328125">
        <ele>321.20001220703125</ele>
        <time>2022-06-04T08:43:05.000Z</time>
      </trkpt>
      <trkpt lat="43.4355318546295166015625" lon="-5.65506194718182086944580078125">
        <ele>321.79998779296875</ele>
        <time>2022-06-04T08:43:07.000Z</time>
      </trkpt>
      <trkpt lat="43.43550628982484340667724609375" lon="-5.65510771237313747406005859375">
        <ele>322.20001220703125</ele>
        <time>2022-06-04T08:43:08.000Z</time>
      </trkpt>
      <trkpt lat="43.43547728843986988067626953125" lon="-5.6551508791744709014892578125">
        <ele>322.600006103515625</ele>
        <time>2022-06-04T08:43:09.000Z</time>
      </trkpt>
      <trkpt lat="43.435413837432861328125" lon="-5.65523629076778888702392578125">
        <ele>323.399993896484375</ele>
        <time>2022-06-04T08:43:11.000Z</time>
      </trkpt>
      <trkpt lat="43.4353496320545673370361328125" lon="-5.65532044507563114166259765625">
        <ele>323.79998779296875</ele>
        <time>2022-06-04T08:43:13.000Z</time>
      </trkpt>
      <trkpt lat="43.43531928956508636474609375" lon="-5.65535916946828365325927734375">
        <ele>324</ele>
        <time>2022-06-04T08:43:14.000Z</time>
      </trkpt>
      <trkpt lat="43.43528836034238338470458984375" lon="-5.655398480594158172607421875">
        <ele>324</ele>
        <time>2022-06-04T08:43:15.000Z</time>
      </trkpt>
      <trkpt lat="43.43522717244923114776611328125" lon="-5.65547534264624118804931640625">
        <ele>324.20001220703125</ele>
        <time>2022-06-04T08:43:17.000Z</time>
      </trkpt>
      <trkpt lat="43.4351705946028232574462890625" lon="-5.65554893575608730316162109375">
        <ele>324.20001220703125</ele>
        <time>2022-06-04T08:43:19.000Z</time>
      </trkpt>
      <trkpt lat="43.43511669896543025970458984375" lon="-5.65561833791434764862060546875">
        <ele>324.399993896484375</ele>
        <time>2022-06-04T08:43:21.000Z</time>
      </trkpt>
      <trkpt lat="43.43506305478513240814208984375" lon="-5.65567843616008758544921875">
        <ele>324.399993896484375</ele>
        <time>2022-06-04T08:43:23.000Z</time>
      </trkpt>
      <trkpt lat="43.43500488437712192535400390625" lon="-5.65572897903621196746826171875">
        <ele>324.79998779296875</ele>
        <time>2022-06-04T08:43:25.000Z</time>
      </trkpt>
      <trkpt lat="43.43495182693004608154296875" lon="-5.65579083748161792755126953125">
        <ele>325</ele>
        <time>2022-06-04T08:43:27.000Z</time>
      </trkpt>
      <trkpt lat="43.43490128405392169952392578125" lon="-5.65586191602051258087158203125">
        <ele>325.20001220703125</ele>
        <time>2022-06-04T08:43:28.000Z</time>
      </trkpt>
      <trkpt lat="43.43490128405392169952392578125" lon="-5.65586191602051258087158203125">
        <ele>325.600006103515625</ele>
        <time>2022-06-04T08:43:29.000Z</time>
      </trkpt>
      <trkpt lat="43.4348497353494167327880859375" lon="-5.65594120882451534271240234375">
        <ele>326</ele>
        <time>2022-06-04T08:43:31.000Z</time>
      </trkpt>
      <trkpt lat="43.43479986302554607391357421875" lon="-5.65601496957242488861083984375">
        <ele>326.399993896484375</ele>
        <time>2022-06-04T08:43:33.000Z</time>
      </trkpt>
      <trkpt lat="43.43475812114775180816650390625" lon="-5.65609174780547618865966796875">
        <ele>326.399993896484375</ele>
        <time>2022-06-04T08:43:35.000Z</time>
      </trkpt>
      <trkpt lat="43.43472626991569995880126953125" lon="-5.65616793930530548095703125">
        <ele>326.600006103515625</ele>
        <time>2022-06-04T08:43:36.000Z</time>
      </trkpt>
      <trkpt lat="43.43472626991569995880126953125" lon="-5.65616793930530548095703125">
        <ele>326.79998779296875</ele>
        <time>2022-06-04T08:43:37.000Z</time>
      </trkpt>
      <trkpt lat="43.434710763394832611083984375" lon="-5.65620356239378452301025390625">
        <ele>326.79998779296875</ele>
        <time>2022-06-04T08:43:38.000Z</time>
      </trkpt>
      <trkpt lat="43.43469542451202869415283203125" lon="-5.656236670911312103271484375">
        <ele>326.79998779296875</ele>
        <time>2022-06-04T08:43:39.000Z</time>
      </trkpt>
      <trkpt lat="43.4346629865467548370361328125" lon="-5.65629668533802032470703125">
        <ele>327</ele>
        <time>2022-06-04T08:43:41.000Z</time>
      </trkpt>
      <trkpt lat="43.4346318058669567108154296875" lon="-5.6563617289066314697265625">
        <ele>327.600006103515625</ele>
        <time>2022-06-04T08:43:43.000Z</time>
      </trkpt>
      <trkpt lat="43.43459484167397022247314453125" lon="-5.6564259342849254608154296875">
        <ele>327.79998779296875</ele>
        <time>2022-06-04T08:43:45.000Z</time>
      </trkpt>
      <trkpt lat="43.43457522802054882049560546875" lon="-5.65645803697407245635986328125">
        <ele>328</ele>
        <time>2022-06-04T08:43:46.000Z</time>
      </trkpt>
      <trkpt lat="43.43455444090068340301513671875" lon="-5.65648905001580715179443359375">
        <ele>328.399993896484375</ele>
        <time>2022-06-04T08:43:47.000Z</time>
      </trkpt>
      <trkpt lat="43.434519656002521514892578125" lon="-5.65655845217406749725341796875">
        <ele>328.600006103515625</ele>
        <time>2022-06-04T08:43:49.000Z</time>
      </trkpt>
      <trkpt lat="43.4344866313040256500244140625" lon="-5.65662567503750324249267578125">
        <ele>329</ele>
        <time>2022-06-04T08:43:51.000Z</time>
      </trkpt>
      <trkpt lat="43.43445721082389354705810546875" lon="-5.65668283961713314056396484375">
        <ele>329.20001220703125</ele>
        <time>2022-06-04T08:43:52.000Z</time>
      </trkpt>
      <trkpt lat="43.43445721082389354705810546875" lon="-5.65668283961713314056396484375">
        <ele>329.20001220703125</ele>
        <time>2022-06-04T08:43:53.000Z</time>
      </trkpt>
      <trkpt lat="43.43443684279918670654296875" lon="-5.65674419514834880828857421875">
        <ele>329.600006103515625</ele>
        <time>2022-06-04T08:43:55.000Z</time>
      </trkpt>
      <trkpt lat="43.4344189055263996124267578125" lon="-5.65679867751896381378173828125">
        <ele>329.79998779296875</ele>
        <time>2022-06-04T08:43:57.000Z</time>
      </trkpt>
      <trkpt lat="43.4344118647277355194091796875" lon="-5.6568624638020992279052734375">
        <ele>330</ele>
        <time>2022-06-04T08:43:59.000Z</time>
      </trkpt>
      <trkpt lat="43.43441328965127468109130859375" lon="-5.6569384038448333740234375">
        <ele>330.20001220703125</ele>
        <time>2022-06-04T08:44:00.000Z</time>
      </trkpt>
      <trkpt lat="43.43441328965127468109130859375" lon="-5.6569384038448333740234375">
        <ele>330.399993896484375</ele>
        <time>2022-06-04T08:44:01.000Z</time>
      </trkpt>
      <trkpt lat="43.4344145469367504119873046875" lon="-5.65700286068022251129150390625">
        <ele>330.600006103515625</ele>
        <time>2022-06-04T08:44:03.000Z</time>
      </trkpt>
      <trkpt lat="43.43440826050937175750732421875" lon="-5.65707050263881683349609375">
        <ele>331</ele>
        <time>2022-06-04T08:44:05.000Z</time>
      </trkpt>
      <trkpt lat="43.43441069126129150390625" lon="-5.657140910625457763671875">
        <ele>331.600006103515625</ele>
        <time>2022-06-04T08:44:07.000Z</time>
      </trkpt>
      <trkpt lat="43.434419073164463043212890625" lon="-5.65721525810658931732177734375">
        <ele>332</ele>
        <time>2022-06-04T08:44:09.000Z</time>
      </trkpt>
      <trkpt lat="43.43443910591304302215576171875" lon="-5.65731600858271121978759765625">
        <ele>332.20001220703125</ele>
        <time>2022-06-04T08:44:11.000Z</time>
      </trkpt>
      <trkpt lat="43.43445000238716602325439453125" lon="-5.65738608129322528839111328125">
        <ele>332.20001220703125</ele>
        <time>2022-06-04T08:44:12.000Z</time>
      </trkpt>
      <trkpt lat="43.4344656765460968017578125" lon="-5.65747283399105072021484375">
        <ele>332.20001220703125</ele>
        <time>2022-06-04T08:44:13.000Z</time>
      </trkpt>
      <trkpt lat="43.43450389802455902099609375" lon="-5.6576465070247650146484375">
        <ele>332.20001220703125</ele>
        <time>2022-06-04T08:44:15.000Z</time>
      </trkpt>
      <trkpt lat="43.4345215000212192535400390625" lon="-5.65772303380072116851806640625">
        <ele>332.20001220703125</ele>
        <time>2022-06-04T08:44:16.000Z</time>
      </trkpt>
      <trkpt lat="43.434536419808864593505859375" lon="-5.6577891670167446136474609375">
        <ele>332.20001220703125</ele>
        <time>2022-06-04T08:44:17.000Z</time>
      </trkpt>
      <trkpt lat="43.43455745838582515716552734375" lon="-5.657920427620410919189453125">
        <ele>332.20001220703125</ele>
        <time>2022-06-04T08:44:18.000Z</time>
      </trkpt>
      <trkpt lat="43.43455745838582515716552734375" lon="-5.657920427620410919189453125">
        <ele>332.20001220703125</ele>
        <time>2022-06-04T08:44:19.000Z</time>
      </trkpt>
      <trkpt lat="43.4345630742609500885009765625" lon="-5.6579853035509586334228515625">
        <ele>332</ele>
        <time>2022-06-04T08:44:20.000Z</time>
      </trkpt>
      <trkpt lat="43.43456198461353778839111328125" lon="-5.658053867518901824951171875">
        <ele>331.399993896484375</ele>
        <time>2022-06-04T08:44:21.000Z</time>
      </trkpt>
      <trkpt lat="43.4345568716526031494140625" lon="-5.6582062505185604095458984375">
        <ele>329.20001220703125</ele>
        <time>2022-06-04T08:44:23.000Z</time>
      </trkpt>
      <trkpt lat="43.434549830853939056396484375" lon="-5.65828579477965831756591796875">
        <ele>328.20001220703125</ele>
        <time>2022-06-04T08:44:24.000Z</time>
      </trkpt>
      <trkpt lat="43.43453943729400634765625" lon="-5.65836123190820217132568359375">
        <ele>327.600006103515625</ele>
        <time>2022-06-04T08:44:25.000Z</time>
      </trkpt>
      <trkpt lat="43.43452242203056812286376953125" lon="-5.65843130461871623992919921875">
        <ele>326.79998779296875</ele>
        <time>2022-06-04T08:44:26.000Z</time>
      </trkpt>
      <trkpt lat="43.4345047362148761749267578125" lon="-5.65849877893924713134765625">
        <ele>326.20001220703125</ele>
        <time>2022-06-04T08:44:27.000Z</time>
      </trkpt>
      <trkpt lat="43.43448378145694732666015625" lon="-5.65862492658197879791259765625">
        <ele>325</ele>
        <time>2022-06-04T08:44:29.000Z</time>
      </trkpt>
      <trkpt lat="43.43450448475778102874755859375" lon="-5.65873120911419391632080078125">
        <ele>324</ele>
        <time>2022-06-04T08:44:31.000Z</time>
      </trkpt>
      <trkpt lat="43.43453968875110149383544921875" lon="-5.658838748931884765625">
        <ele>322.79998779296875</ele>
        <time>2022-06-04T08:44:33.000Z</time>
      </trkpt>
      <trkpt lat="43.43456064350903034210205078125" lon="-5.658900104463100433349609375">
        <ele>322.20001220703125</ele>
        <time>2022-06-04T08:44:34.000Z</time>
      </trkpt>
      <trkpt lat="43.4345875494182109832763671875" lon="-5.6589619629085063934326171875">
        <ele>321.79998779296875</ele>
        <time>2022-06-04T08:44:35.000Z</time>
      </trkpt>
      <trkpt lat="43.43460892327129840850830078125" lon="-5.6590296886861324310302734375">
        <ele>321.399993896484375</ele>
        <time>2022-06-04T08:44:36.000Z</time>
      </trkpt>
      <trkpt lat="43.43462862074375152587890625" lon="-5.65909565426409244537353515625">
        <ele>321.20001220703125</ele>
        <time>2022-06-04T08:44:37.000Z</time>
      </trkpt>
      <trkpt lat="43.43464295379817485809326171875" lon="-5.6591607816517353057861328125">
        <ele>320.79998779296875</ele>
        <time>2022-06-04T08:44:38.000Z</time>
      </trkpt>
      <trkpt lat="43.434653766453266143798828125" lon="-5.65922909416258335113525390625">
        <ele>320.399993896484375</ele>
        <time>2022-06-04T08:44:39.000Z</time>
      </trkpt>
      <trkpt lat="43.434663154184818267822265625" lon="-5.659379549324512481689453125">
        <ele>319.600006103515625</ele>
        <time>2022-06-04T08:44:41.000Z</time>
      </trkpt>
      <trkpt lat="43.4346695244312286376953125" lon="-5.65946303308010101318359375">
        <ele>319</ele>
        <time>2022-06-04T08:44:42.000Z</time>
      </trkpt>
      <trkpt lat="43.4346753917634487152099609375" lon="-5.65955221652984619140625">
        <ele>318.399993896484375</ele>
        <time>2022-06-04T08:44:43.000Z</time>
      </trkpt>
      <trkpt lat="43.4346802532672882080078125" lon="-5.65964316017925739288330078125">
        <ele>317.79998779296875</ele>
        <time>2022-06-04T08:44:44.000Z</time>
      </trkpt>
      <trkpt lat="43.43468620441854000091552734375" lon="-5.65973200835287570953369140625">
        <ele>317.20001220703125</ele>
        <time>2022-06-04T08:44:45.000Z</time>
      </trkpt>
      <trkpt lat="43.434694670140743255615234375" lon="-5.65981708467006683349609375">
        <ele>316.399993896484375</ele>
        <time>2022-06-04T08:44:46.000Z</time>
      </trkpt>
      <trkpt lat="43.43471336178481578826904296875" lon="-5.6598968803882598876953125">
        <ele>315.79998779296875</ele>
        <time>2022-06-04T08:44:47.000Z</time>
      </trkpt>
      <trkpt lat="43.43475678004324436187744140625" lon="-5.66005772911012172698974609375">
        <ele>315.20001220703125</ele>
        <time>2022-06-04T08:44:48.000Z</time>
      </trkpt>
      <trkpt lat="43.43475678004324436187744140625" lon="-5.66005772911012172698974609375">
        <ele>314.399993896484375</ele>
        <time>2022-06-04T08:44:49.000Z</time>
      </trkpt>
      <trkpt lat="43.4347759746015071868896484375" lon="-5.66013601608574390411376953125">
        <ele>313.600006103515625</ele>
        <time>2022-06-04T08:44:50.000Z</time>
      </trkpt>
      <trkpt lat="43.434786535799503326416015625" lon="-5.6602128781378269195556640625">
        <ele>311.600006103515625</ele>
        <time>2022-06-04T08:44:51.000Z</time>
      </trkpt>
      <trkpt lat="43.4347900561988353729248046875" lon="-5.66028890199959278106689453125">
        <ele>310.600006103515625</ele>
        <time>2022-06-04T08:44:52.000Z</time>
      </trkpt>
      <trkpt lat="43.434790559113025665283203125" lon="-5.66036735661327838897705078125">
        <ele>309.399993896484375</ele>
        <time>2022-06-04T08:44:53.000Z</time>
      </trkpt>
      <trkpt lat="43.43479298986494541168212890625" lon="-5.660445392131805419921875">
        <ele>308.20001220703125</ele>
        <time>2022-06-04T08:44:54.000Z</time>
      </trkpt>
      <trkpt lat="43.43480573035776615142822265625" lon="-5.6605191528797149658203125">
        <ele>306.79998779296875</ele>
        <time>2022-06-04T08:44:55.000Z</time>
      </trkpt>
      <trkpt lat="43.4348343126475811004638671875" lon="-5.66058696247637271881103515625">
        <ele>305.79998779296875</ele>
        <time>2022-06-04T08:44:56.000Z</time>
      </trkpt>
      <trkpt lat="43.434868343174457550048828125" lon="-5.66065418533980846405029296875">
        <ele>304.399993896484375</ele>
        <time>2022-06-04T08:44:57.000Z</time>
      </trkpt>
      <trkpt lat="43.4349082410335540771484375" lon="-5.660725347697734832763671875">
        <ele>303</ele>
        <time>2022-06-04T08:44:58.000Z</time>
      </trkpt>
      <trkpt lat="43.4349499829113483428955078125" lon="-5.660799443721771240234375">
        <ele>301.600006103515625</ele>
        <time>2022-06-04T08:44:59.000Z</time>
      </trkpt>
      <trkpt lat="43.4349915571510791778564453125" lon="-5.66087597049772739410400390625">
        <ele>300.399993896484375</ele>
        <time>2022-06-04T08:45:00.000Z</time>
      </trkpt>
      <trkpt lat="43.4350327961146831512451171875" lon="-5.66095425747334957122802734375">
        <ele>299</ele>
        <time>2022-06-04T08:45:01.000Z</time>
      </trkpt>
      <trkpt lat="43.4350767172873020172119140625" lon="-5.66103824414312839508056640625">
        <ele>297.600006103515625</ele>
        <time>2022-06-04T08:45:02.000Z</time>
      </trkpt>
      <trkpt lat="43.43511770479381084442138671875" lon="-5.66113010980188846588134765625">
        <ele>296.399993896484375</ele>
        <time>2022-06-04T08:45:03.000Z</time>
      </trkpt>
      <trkpt lat="43.435179479420185089111328125" lon="-5.661317445337772369384765625">
        <ele>294.79998779296875</ele>
        <time>2022-06-04T08:45:04.000Z</time>
      </trkpt>
      <trkpt lat="43.4351876936852931976318359375" lon="-5.6614178605377674102783203125">
        <ele>293.399993896484375</ele>
        <time>2022-06-04T08:45:05.000Z</time>
      </trkpt>
      <trkpt lat="43.43517704866826534271240234375" lon="-5.6615241430699825286865234375">
        <ele>292</ele>
        <time>2022-06-04T08:45:06.000Z</time>
      </trkpt>
      <trkpt lat="43.43514720909297466278076171875" lon="-5.66162816248834133148193359375">
        <ele>290.600006103515625</ele>
        <time>2022-06-04T08:45:07.000Z</time>
      </trkpt>
      <trkpt lat="43.43514720909297466278076171875" lon="-5.66162816248834133148193359375">
        <ele>289</ele>
        <time>2022-06-04T08:45:08.000Z</time>
      </trkpt>
      <trkpt lat="43.4350810758769512176513671875" lon="-5.66183335147798061370849609375">
        <ele>287.600006103515625</ele>
        <time>2022-06-04T08:45:09.000Z</time>
      </trkpt>
      <trkpt lat="43.43505106866359710693359375" lon="-5.66192395985126495361328125">
        <ele>286</ele>
        <time>2022-06-04T08:45:10.000Z</time>
      </trkpt>
      <trkpt lat="43.43502558767795562744140625" lon="-5.6620062701404094696044921875">
        <ele>284.600006103515625</ele>
        <time>2022-06-04T08:45:11.000Z</time>
      </trkpt>
      <trkpt lat="43.43500186689198017120361328125" lon="-5.6620843894779682159423828125">
        <ele>283</ele>
        <time>2022-06-04T08:45:12.000Z</time>
      </trkpt>
      <trkpt lat="43.43498191796243190765380859375" lon="-5.66215236671268939971923828125">
        <ele>282</ele>
        <time>2022-06-04T08:45:13.000Z</time>
      </trkpt>
      <trkpt lat="43.43498191796243190765380859375" lon="-5.66215236671268939971923828125">
        <ele>281.20001220703125</ele>
        <time>2022-06-04T08:45:14.000Z</time>
      </trkpt>
      <trkpt lat="43.43496431596577167510986328125" lon="-5.66224582493305206298828125">
        <ele>280.79998779296875</ele>
        <time>2022-06-04T08:45:15.000Z</time>
      </trkpt>
      <trkpt lat="43.43495643697679042816162109375" lon="-5.6622966192662715911865234375">
        <ele>280.600006103515625</ele>
        <time>2022-06-04T08:45:17.000Z</time>
      </trkpt>
      <trkpt lat="43.43494537286460399627685546875" lon="-5.66233777441084384918212890625">
        <ele>280.600006103515625</ele>
        <time>2022-06-04T08:45:19.000Z</time>
      </trkpt>
      <trkpt lat="43.43493564985692501068115234375" lon="-5.66238286904990673065185546875">
        <ele>280.600006103515625</ele>
        <time>2022-06-04T08:45:21.000Z</time>
      </trkpt>
      <trkpt lat="43.43492592684924602508544921875" lon="-5.66242695786058902740478515625">
        <ele>280.600006103515625</ele>
        <time>2022-06-04T08:45:23.000Z</time>
      </trkpt>
      <trkpt lat="43.43492525629699230194091796875" lon="-5.66245009191334247589111328125">
        <ele>280.79998779296875</ele>
        <time>2022-06-04T08:45:24.000Z</time>
      </trkpt>
      <trkpt lat="43.43491888605058193206787109375" lon="-5.6624712981283664703369140625">
        <ele>280.79998779296875</ele>
        <time>2022-06-04T08:45:25.000Z</time>
      </trkpt>
      <trkpt lat="43.43490664847195148468017578125" lon="-5.66252351738512516021728515625">
        <ele>281.20001220703125</ele>
        <time>2022-06-04T08:45:27.000Z</time>
      </trkpt>
      <trkpt lat="43.4349003620445728302001953125" lon="-5.66257037222385406494140625">
        <ele>281.79998779296875</ele>
        <time>2022-06-04T08:45:29.000Z</time>
      </trkpt>
      <trkpt lat="43.43489642255008220672607421875" lon="-5.6625980325043201446533203125">
        <ele>282</ele>
        <time>2022-06-04T08:45:30.000Z</time>
      </trkpt>
      <trkpt lat="43.4348929859697818756103515625" lon="-5.66262259148061275482177734375">
        <ele>282.20001220703125</ele>
        <time>2022-06-04T08:45:31.000Z</time>
      </trkpt>
      <trkpt lat="43.43488183803856372833251953125" lon="-5.66266483627259731292724609375">
        <ele>282.79998779296875</ele>
        <time>2022-06-04T08:45:33.000Z</time>
      </trkpt>
      <trkpt lat="43.43487697653472423553466796875" lon="-5.662688054144382476806640625">
        <ele>283.20001220703125</ele>
        <time>2022-06-04T08:45:34.000Z</time>
      </trkpt>
      <trkpt lat="43.4348718635737895965576171875" lon="-5.66271009854972362518310546875">
        <ele>283.399993896484375</ele>
        <time>2022-06-04T08:45:35.000Z</time>
      </trkpt>
      <trkpt lat="43.43485836870968341827392578125" lon="-5.66275469027459621429443359375">
        <ele>284.20001220703125</ele>
        <time>2022-06-04T08:45:37.000Z</time>
      </trkpt>
      <trkpt lat="43.43484126962721347808837890625" lon="-5.66280397586524486541748046875">
        <ele>284.79998779296875</ele>
        <time>2022-06-04T08:45:39.000Z</time>
      </trkpt>
      <trkpt lat="43.43482199124991893768310546875" lon="-5.6628607213497161865234375">
        <ele>285.399993896484375</ele>
        <time>2022-06-04T08:45:41.000Z</time>
      </trkpt>
      <trkpt lat="43.43480858020484447479248046875" lon="-5.66291176714003086090087890625">
        <ele>286</ele>
        <time>2022-06-04T08:45:43.000Z</time>
      </trkpt>
      <trkpt lat="43.43479081057012081146240234375" lon="-5.66296490840613842010498046875">
        <ele>286.399993896484375</ele>
        <time>2022-06-04T08:45:45.000Z</time>
      </trkpt>
      <trkpt lat="43.43478284776210784912109375" lon="-5.6629872880876064300537109375">
        <ele>286.79998779296875</ele>
        <time>2022-06-04T08:45:46.000Z</time>
      </trkpt>
      <trkpt lat="43.43477572314441204071044921875" lon="-5.663009248673915863037109375">
        <ele>287.399993896484375</ele>
        <time>2022-06-04T08:45:47.000Z</time>
      </trkpt>
      <trkpt lat="43.43476474285125732421875" lon="-5.66303347237408161163330078125">
        <ele>287.600006103515625</ele>
        <time>2022-06-04T08:45:48.000Z</time>
      </trkpt>
      <trkpt lat="43.4347521699965000152587890625" lon="-5.66305861808359622955322265625">
        <ele>288</ele>
        <time>2022-06-04T08:45:49.000Z</time>
      </trkpt>
      <trkpt lat="43.4347357414662837982177734375" lon="-5.6631042994558811187744140625">
        <ele>288.399993896484375</ele>
        <time>2022-06-04T08:45:51.000Z</time>
      </trkpt>
      <trkpt lat="43.434727191925048828125" lon="-5.66312734968960285186767578125">
        <ele>288.79998779296875</ele>
        <time>2022-06-04T08:45:52.000Z</time>
      </trkpt>
      <trkpt lat="43.43471755273640155792236328125" lon="-5.6631542555987834930419921875">
        <ele>289</ele>
        <time>2022-06-04T08:45:53.000Z</time>
      </trkpt>
      <trkpt lat="43.434700034558773040771484375" lon="-5.66321619786322116851806640625">
        <ele>289.600006103515625</ele>
        <time>2022-06-04T08:45:55.000Z</time>
      </trkpt>
      <trkpt lat="43.43468897044658660888671875" lon="-5.66324318759143352508544921875">
        <ele>289.79998779296875</ele>
        <time>2022-06-04T08:45:56.000Z</time>
      </trkpt>
      <trkpt lat="43.434679917991161346435546875" lon="-5.6632665731012821197509765625">
        <ele>289.79998779296875</ele>
        <time>2022-06-04T08:45:57.000Z</time>
      </trkpt>
      <trkpt lat="43.4346735477447509765625" lon="-5.66328652203083038330078125">
        <ele>290</ele>
        <time>2022-06-04T08:45:58.000Z</time>
      </trkpt>
      <trkpt lat="43.4346680156886577606201171875" lon="-5.66330395638942718505859375">
        <ele>290</ele>
        <time>2022-06-04T08:45:59.000Z</time>
      </trkpt>
      <trkpt lat="43.4346646629273891448974609375" lon="-5.6633185409009456634521484375">
        <ele>290</ele>
        <time>2022-06-04T08:46:01.000Z</time>
      </trkpt>
      <trkpt lat="43.4346646629273891448974609375" lon="-5.6633185409009456634521484375">
        <ele>290</ele>
        <time>2022-06-04T08:46:02.000Z</time>
      </trkpt>
      <trkpt lat="43.43464739620685577392578125" lon="-5.66372447647154331207275390625">
        <ele>290</ele>
        <time>2022-06-04T08:48:28.000Z</time>
      </trkpt>
      <trkpt lat="43.4346445463597774505615234375" lon="-5.66376739181578159332275390625">
        <ele>290</ele>
        <time>2022-06-04T08:48:29.000Z</time>
      </trkpt>
      <trkpt lat="43.43464211560785770416259765625" lon="-5.663797818124294281005859375">
        <ele>290</ele>
        <time>2022-06-04T08:48:31.000Z</time>
      </trkpt>
      <trkpt lat="43.43464161269366741180419921875" lon="-5.66381625831127166748046875">
        <ele>290</ele>
        <time>2022-06-04T08:48:32.000Z</time>
      </trkpt>
      <trkpt lat="43.43463758938014507293701171875" lon="-5.66384978592395782470703125">
        <ele>290</ele>
        <time>2022-06-04T08:48:33.000Z</time>
      </trkpt>
      <trkpt lat="43.43463306315243244171142578125" lon="-5.663902424275875091552734375">
        <ele>289.79998779296875</ele>
        <time>2022-06-04T08:48:35.000Z</time>
      </trkpt>
      <trkpt lat="43.434610851109027862548828125" lon="-5.6639807112514972686767578125">
        <ele>289.600006103515625</ele>
        <time>2022-06-04T08:48:37.000Z</time>
      </trkpt>
      <trkpt lat="43.43458972871303558349609375" lon="-5.664018094539642333984375">
        <ele>289.399993896484375</ele>
        <time>2022-06-04T08:48:39.000Z</time>
      </trkpt>
      <trkpt lat="43.43453197740018367767333984375" lon="-5.66407232545316219329833984375">
        <ele>289.20001220703125</ele>
        <time>2022-06-04T08:48:40.000Z</time>
      </trkpt>
      <trkpt lat="43.43449627049267292022705078125" lon="-5.664078108966350555419921875">
        <ele>289.20001220703125</ele>
        <time>2022-06-04T08:48:41.000Z</time>
      </trkpt>
      <trkpt lat="43.43445293605327606201171875" lon="-5.6640675477683544158935546875">
        <ele>289</ele>
        <time>2022-06-04T08:48:43.000Z</time>
      </trkpt>
      <trkpt lat="43.4343002177774906158447265625" lon="-5.66401264630258083343505859375">
        <ele>288.399993896484375</ele>
        <time>2022-06-04T08:48:45.000Z</time>
      </trkpt>
      <trkpt lat="43.4342526085674762725830078125" lon="-5.664007365703582763671875">
        <ele>287.600006103515625</ele>
        <time>2022-06-04T08:48:47.000Z</time>
      </trkpt>
      <trkpt lat="43.434154875576496124267578125" lon="-5.664023794233798980712890625">
        <ele>287.20001220703125</ele>
        <time>2022-06-04T08:48:48.000Z</time>
      </trkpt>
      <trkpt lat="43.43410450033843517303466796875" lon="-5.66404902376234531402587890625">
        <ele>286.79998779296875</ele>
        <time>2022-06-04T08:48:49.000Z</time>
      </trkpt>
      <trkpt lat="43.43405672349035739898681640625" lon="-5.66407911479473114013671875">
        <ele>286.20001220703125</ele>
        <time>2022-06-04T08:48:51.000Z</time>
      </trkpt>
      <trkpt lat="43.43401372432708740234375" lon="-5.66411389969289302825927734375">
        <ele>286.20001220703125</ele>
        <time>2022-06-04T08:48:52.000Z</time>
      </trkpt>
      <trkpt lat="43.4339743293821811676025390625" lon="-5.6641642749309539794921875">
        <ele>286</ele>
        <time>2022-06-04T08:48:53.000Z</time>
      </trkpt>
      <trkpt lat="43.43389227055013179779052734375" lon="-5.66427952609956264495849609375">
        <ele>285.600006103515625</ele>
        <time>2022-06-04T08:48:54.000Z</time>
      </trkpt>
      <trkpt lat="43.43389227055013179779052734375" lon="-5.66427952609956264495849609375">
        <ele>285.399993896484375</ele>
        <time>2022-06-04T08:48:55.000Z</time>
      </trkpt>
      <trkpt lat="43.43381063081324100494384765625" lon="-5.6643853895366191864013671875">
        <ele>285</ele>
        <time>2022-06-04T08:48:57.000Z</time>
      </trkpt>
      <trkpt lat="43.43371675349771976470947265625" lon="-5.66447264514863491058349609375">
        <ele>284.79998779296875</ele>
        <time>2022-06-04T08:48:58.000Z</time>
      </trkpt>
      <trkpt lat="43.4336672164499759674072265625" lon="-5.66450826823711395263671875">
        <ele>284.399993896484375</ele>
        <time>2022-06-04T08:48:59.000Z</time>
      </trkpt>
      <trkpt lat="43.4336175955832004547119140625" lon="-5.66454757936298847198486328125">
        <ele>283</ele>
        <time>2022-06-04T08:49:01.000Z</time>
      </trkpt>
      <trkpt lat="43.43353536911308765411376953125" lon="-5.66464950330555438995361328125">
        <ele>282.20001220703125</ele>
        <time>2022-06-04T08:49:03.000Z</time>
      </trkpt>
      <trkpt lat="43.4334740974009037017822265625" lon="-5.6647813506424427032470703125">
        <ele>282</ele>
        <time>2022-06-04T08:49:04.000Z</time>
      </trkpt>
      <trkpt lat="43.4334740974009037017822265625" lon="-5.6647813506424427032470703125">
        <ele>281.79998779296875</ele>
        <time>2022-06-04T08:49:05.000Z</time>
      </trkpt>
      <trkpt lat="43.43345238827168941497802734375" lon="-5.66484756767749786376953125">
        <ele>281.600006103515625</ele>
        <time>2022-06-04T08:49:06.000Z</time>
      </trkpt>
      <trkpt lat="43.4334348700940608978271484375" lon="-5.6649154610931873321533203125">
        <ele>281.600006103515625</ele>
        <time>2022-06-04T08:49:07.000Z</time>
      </trkpt>
      <trkpt lat="43.4334184415638446807861328125" lon="-5.66505216993391513824462890625">
        <ele>281.399993896484375</ele>
        <time>2022-06-04T08:49:09.000Z</time>
      </trkpt>
      <trkpt lat="43.43341969884932041168212890625" lon="-5.66516809165477752685546875">
        <ele>281.399993896484375</ele>
        <time>2022-06-04T08:49:11.000Z</time>
      </trkpt>
      <trkpt lat="43.43342254869639873504638671875" lon="-5.6652691774070262908935546875">
        <ele>281.20001220703125</ele>
        <time>2022-06-04T08:49:13.000Z</time>
      </trkpt>
      <trkpt lat="43.433419950306415557861328125" lon="-5.66537730395793914794921875">
        <ele>281.20001220703125</ele>
        <time>2022-06-04T08:49:15.000Z</time>
      </trkpt>
      <trkpt lat="43.43339773826301097869873046875" lon="-5.66548970527946949005126953125">
        <ele>281.20001220703125</ele>
        <time>2022-06-04T08:49:16.000Z</time>
      </trkpt>
      <trkpt lat="43.43339773826301097869873046875" lon="-5.66548970527946949005126953125">
        <ele>281.20001220703125</ele>
        <time>2022-06-04T08:49:17.000Z</time>
      </trkpt>
      <trkpt lat="43.43334711156785488128662109375" lon="-5.66558576188981533050537109375">
        <ele>281.20001220703125</ele>
        <time>2022-06-04T08:49:19.000Z</time>
      </trkpt>
      <trkpt lat="43.4332645498216152191162109375" lon="-5.66567980684340000152587890625">
        <ele>281.20001220703125</ele>
        <time>2022-06-04T08:49:21.000Z</time>
      </trkpt>
      <trkpt lat="43.43318148516118526458740234375" lon="-5.66576362587511539459228515625">
        <ele>281.20001220703125</ele>
        <time>2022-06-04T08:49:23.000Z</time>
      </trkpt>
      <trkpt lat="43.43310780823230743408203125" lon="-5.6658488698303699493408203125">
        <ele>281.20001220703125</ele>
        <time>2022-06-04T08:49:25.000Z</time>
      </trkpt>
      <trkpt lat="43.43304033391177654266357421875" lon="-5.6659303419291973114013671875">
        <ele>281.20001220703125</ele>
        <time>2022-06-04T08:49:27.000Z</time>
      </trkpt>
      <trkpt lat="43.43297797255218029022216796875" lon="-5.66600033082067966461181640625">
        <ele>281.399993896484375</ele>
        <time>2022-06-04T08:49:29.000Z</time>
      </trkpt>
      <trkpt lat="43.43290806747972965240478515625" lon="-5.66602849401533603668212890625">
        <ele>281.399993896484375</ele>
        <time>2022-06-04T08:49:31.000Z</time>
      </trkpt>
      <trkpt lat="43.43287043273448944091796875" lon="-5.666040815412998199462890625">
        <ele>281.399993896484375</ele>
        <time>2022-06-04T08:49:32.000Z</time>
      </trkpt>
      <trkpt lat="43.4327946603298187255859375" lon="-5.66607040353119373321533203125">
        <ele>281.399993896484375</ele>
        <time>2022-06-04T08:49:33.000Z</time>
      </trkpt>
      <trkpt lat="43.43272936530411243438720703125" lon="-5.6660939566791057586669921875">
        <ele>281.399993896484375</ele>
        <time>2022-06-04T08:49:35.000Z</time>
      </trkpt>
      <trkpt lat="43.43269743025302886962890625" lon="-5.66609521396458148956298828125">
        <ele>281.600006103515625</ele>
        <time>2022-06-04T08:49:37.000Z</time>
      </trkpt>
      <trkpt lat="43.43266985379159450531005859375" lon="-5.6660901010036468505859375">
        <ele>281.79998779296875</ele>
        <time>2022-06-04T08:49:38.000Z</time>
      </trkpt>
      <trkpt lat="43.43264043331146240234375" lon="-5.6660835631191730499267578125">
        <ele>281.79998779296875</ele>
        <time>2022-06-04T08:49:39.000Z</time>
      </trkpt>
      <trkpt lat="43.43257195316255092620849609375" lon="-5.666061937808990478515625">
        <ele>281.79998779296875</ele>
        <time>2022-06-04T08:49:41.000Z</time>
      </trkpt>
      <trkpt lat="43.4324907325208187103271484375" lon="-5.666080377995967864990234375">
        <ele>281.79998779296875</ele>
        <time>2022-06-04T08:49:42.000Z</time>
      </trkpt>
      <trkpt lat="43.4324907325208187103271484375" lon="-5.666080377995967864990234375">
        <ele>281.79998779296875</ele>
        <time>2022-06-04T08:49:43.000Z</time>
      </trkpt>
      <trkpt lat="43.43239794485270977020263671875" lon="-5.66612807102501392364501953125">
        <ele>281.79998779296875</ele>
        <time>2022-06-04T08:49:45.000Z</time>
      </trkpt>
      <trkpt lat="43.432308174669742584228515625" lon="-5.66619914956390857696533203125">
        <ele>281.79998779296875</ele>
        <time>2022-06-04T08:49:46.000Z</time>
      </trkpt>
      <trkpt lat="43.432308174669742584228515625" lon="-5.66619914956390857696533203125">
        <ele>281.79998779296875</ele>
        <time>2022-06-04T08:49:47.000Z</time>
      </trkpt>
      <trkpt lat="43.4322369284927845001220703125" lon="-5.66631096415221691131591796875">
        <ele>281.79998779296875</ele>
        <time>2022-06-04T08:49:48.000Z</time>
      </trkpt>
      <trkpt lat="43.4322369284927845001220703125" lon="-5.66631096415221691131591796875">
        <ele>281.79998779296875</ele>
        <time>2022-06-04T08:49:49.000Z</time>
      </trkpt>
      <trkpt lat="43.43212486244738101959228515625" lon="-5.6665653549134731292724609375">
        <ele>281.399993896484375</ele>
        <time>2022-06-04T08:49:51.000Z</time>
      </trkpt>
      <trkpt lat="43.4320887364447116851806640625" lon="-5.66667507402598857879638671875">
        <ele>281</ele>
        <time>2022-06-04T08:49:52.000Z</time>
      </trkpt>
      <trkpt lat="43.4320488385856151580810546875" lon="-5.666787810623645782470703125">
        <ele>280.600006103515625</ele>
        <time>2022-06-04T08:49:53.000Z</time>
      </trkpt>
      <trkpt lat="43.43200718052685260772705078125" lon="-5.66689384169876575469970703125">
        <ele>280</ele>
        <time>2022-06-04T08:49:54.000Z</time>
      </trkpt>
      <trkpt lat="43.43200718052685260772705078125" lon="-5.66689384169876575469970703125">
        <ele>279.20001220703125</ele>
        <time>2022-06-04T08:49:55.000Z</time>
      </trkpt>
      <trkpt lat="43.43196745030581951141357421875" lon="-5.66698738373816013336181640625">
        <ele>277.79998779296875</ele>
        <time>2022-06-04T08:49:56.000Z</time>
      </trkpt>
      <trkpt lat="43.43191799707710742950439453125" lon="-5.66707354970276355743408203125">
        <ele>277.20001220703125</ele>
        <time>2022-06-04T08:49:57.000Z</time>
      </trkpt>
      <trkpt lat="43.43184842728078365325927734375" lon="-5.66714429296553134918212890625">
        <ele>276.399993896484375</ele>
        <time>2022-06-04T08:49:58.000Z</time>
      </trkpt>
      <trkpt lat="43.4317698888480663299560546875" lon="-5.66720657050609588623046875">
        <ele>275.79998779296875</ele>
        <time>2022-06-04T08:49:59.000Z</time>
      </trkpt>
      <trkpt lat="43.43169738538563251495361328125" lon="-5.66727236844599246978759765625">
        <ele>275.20001220703125</ele>
        <time>2022-06-04T08:50:00.000Z</time>
      </trkpt>
      <trkpt lat="43.43162395991384983062744140625" lon="-5.6673452071845531463623046875">
        <ele>274.399993896484375</ele>
        <time>2022-06-04T08:50:01.000Z</time>
      </trkpt>
      <trkpt lat="43.43154399655759334564208984375" lon="-5.667428858578205108642578125">
        <ele>273.600006103515625</ele>
        <time>2022-06-04T08:50:02.000Z</time>
      </trkpt>
      <trkpt lat="43.43146537430584430694580078125" lon="-5.66753438673913478851318359375">
        <ele>272.600006103515625</ele>
        <time>2022-06-04T08:50:03.000Z</time>
      </trkpt>
      <trkpt lat="43.4313900209963321685791015625" lon="-5.66764938645064830780029296875">
        <ele>272</ele>
        <time>2022-06-04T08:50:04.000Z</time>
      </trkpt>
      <trkpt lat="43.43131433241069316864013671875" lon="-5.66777117550373077392578125">
        <ele>271</ele>
        <time>2022-06-04T08:50:05.000Z</time>
      </trkpt>
      <trkpt lat="43.43124090693891048431396484375" lon="-5.66789028234779834747314453125">
        <ele>270.20001220703125</ele>
        <time>2022-06-04T08:50:06.000Z</time>
      </trkpt>
      <trkpt lat="43.43117393553256988525390625" lon="-5.66800176165997982025146484375">
        <ele>269.20001220703125</ele>
        <time>2022-06-04T08:50:07.000Z</time>
      </trkpt>
      <trkpt lat="43.43111769296228885650634765625" lon="-5.66811575554311275482177734375">
        <ele>267.79998779296875</ele>
        <time>2022-06-04T08:50:08.000Z</time>
      </trkpt>
      <trkpt lat="43.431076705455780029296875" lon="-5.66822907887399196624755859375">
        <ele>266.600006103515625</ele>
        <time>2022-06-04T08:50:09.000Z</time>
      </trkpt>
      <trkpt lat="43.43104175291955471038818359375" lon="-5.668350197374820709228515625">
        <ele>265.399993896484375</ele>
        <time>2022-06-04T08:50:10.000Z</time>
      </trkpt>
      <trkpt lat="43.4310081414878368377685546875" lon="-5.66847550682723522186279296875">
        <ele>264.20001220703125</ele>
        <time>2022-06-04T08:50:11.000Z</time>
      </trkpt>
      <trkpt lat="43.43092272989451885223388671875" lon="-5.66872528754174709320068359375">
        <ele>262.600006103515625</ele>
        <time>2022-06-04T08:50:13.000Z</time>
      </trkpt>
      <trkpt lat="43.43087344430387020111083984375" lon="-5.6688549555838108062744140625">
        <ele>261.399993896484375</ele>
        <time>2022-06-04T08:50:14.000Z</time>
      </trkpt>
      <trkpt lat="43.430824577808380126953125" lon="-5.668990574777126312255859375">
        <ele>260.399993896484375</ele>
        <time>2022-06-04T08:50:15.000Z</time>
      </trkpt>
      <trkpt lat="43.43072173185646533966064453125" lon="-5.66926055587828159332275390625">
        <ele>259</ele>
        <time>2022-06-04T08:50:17.000Z</time>
      </trkpt>
      <trkpt lat="43.43062349595129489898681640625" lon="-5.6695164553821086883544921875">
        <ele>258.20001220703125</ele>
        <time>2022-06-04T08:50:19.000Z</time>
      </trkpt>
      <trkpt lat="43.43058208934962749481201171875" lon="-5.6696378253400325775146484375">
        <ele>258</ele>
        <time>2022-06-04T08:50:20.000Z</time>
      </trkpt>
      <trkpt lat="43.43054487369954586029052734375" lon="-5.66975592635571956634521484375">
        <ele>257</ele>
        <time>2022-06-04T08:50:21.000Z</time>
      </trkpt>
      <trkpt lat="43.4305099211633205413818359375" lon="-5.66986866295337677001953125">
        <ele>256.20001220703125</ele>
        <time>2022-06-04T08:50:22.000Z</time>
      </trkpt>
      <trkpt lat="43.430470190942287445068359375" lon="-5.6699761189520359039306640625">
        <ele>255.399993896484375</ele>
        <time>2022-06-04T08:50:23.000Z</time>
      </trkpt>
      <trkpt lat="43.4303731285035610198974609375" lon="-5.6701578386127948760986328125">
        <ele>253.399993896484375</ele>
        <time>2022-06-04T08:50:24.000Z</time>
      </trkpt>
      <trkpt lat="43.4303731285035610198974609375" lon="-5.6701578386127948760986328125">
        <ele>252.399993896484375</ele>
        <time>2022-06-04T08:50:25.000Z</time>
      </trkpt>
      <trkpt lat="43.43031370081007480621337890625" lon="-5.67023218609392642974853515625">
        <ele>251.399993896484375</ele>
        <time>2022-06-04T08:50:26.000Z</time>
      </trkpt>
      <trkpt lat="43.43024798668920993804931640625" lon="-5.67029354162514209747314453125">
        <ele>250.1999969482421875</ele>
        <time>2022-06-04T08:50:27.000Z</time>
      </trkpt>
      <trkpt lat="43.43018361367285251617431640625" lon="-5.67035590298473834991455078125">
        <ele>249</ele>
        <time>2022-06-04T08:50:28.000Z</time>
      </trkpt>
      <trkpt lat="43.4301297180354595184326171875" lon="-5.67043033428490161895751953125">
        <ele>247.8000030517578125</ele>
        <time>2022-06-04T08:50:29.000Z</time>
      </trkpt>
      <trkpt lat="43.43006350100040435791015625" lon="-5.67061339505016803741455078125">
        <ele>246.600006103515625</ele>
        <time>2022-06-04T08:50:30.000Z</time>
      </trkpt>
      <trkpt lat="43.43006350100040435791015625" lon="-5.67061339505016803741455078125">
        <ele>245.1999969482421875</ele>
        <time>2022-06-04T08:50:31.000Z</time>
      </trkpt>
      <trkpt lat="43.43005235306918621063232421875" lon="-5.67070827819406986236572265625">
        <ele>244</ele>
        <time>2022-06-04T08:50:32.000Z</time>
      </trkpt>
      <trkpt lat="43.43004229478538036346435546875" lon="-5.67079746164381504058837890625">
        <ele>242.399993896484375</ele>
        <time>2022-06-04T08:50:33.000Z</time>
      </trkpt>
      <trkpt lat="43.4300086833536624908447265625" lon="-5.67093475721776485443115234375">
        <ele>241.1999969482421875</ele>
        <time>2022-06-04T08:50:34.000Z</time>
      </trkpt>
      <trkpt lat="43.4300086833536624908447265625" lon="-5.67093475721776485443115234375">
        <ele>239.8000030517578125</ele>
        <time>2022-06-04T08:50:35.000Z</time>
      </trkpt>
      <trkpt lat="43.42996467836201190948486328125" lon="-5.6710278801620006561279296875">
        <ele>238.1999969482421875</ele>
        <time>2022-06-04T08:50:36.000Z</time>
      </trkpt>
      <trkpt lat="43.4299434721469879150390625" lon="-5.67106333561241626739501953125">
        <ele>236.600006103515625</ele>
        <time>2022-06-04T08:50:37.000Z</time>
      </trkpt>
      <trkpt lat="43.4299434721469879150390625" lon="-5.67106333561241626739501953125">
        <ele>235.399993896484375</ele>
        <time>2022-06-04T08:50:38.000Z</time>
      </trkpt>
      <trkpt lat="43.42990164645016193389892578125" lon="-5.67108948715031147003173828125">
        <ele>233.8000030517578125</ele>
        <time>2022-06-04T08:50:39.000Z</time>
      </trkpt>
      <trkpt lat="43.4298826195299625396728515625" lon="-5.6710687838494777679443359375">
        <ele>232.600006103515625</ele>
        <time>2022-06-04T08:50:40.000Z</time>
      </trkpt>
      <trkpt lat="43.42987163923680782318115234375" lon="-5.671034753322601318359375">
        <ele>231.1999969482421875</ele>
        <time>2022-06-04T08:50:41.000Z</time>
      </trkpt>
      <trkpt lat="43.429858647286891937255859375" lon="-5.6710010580718517303466796875">
        <ele>230</ele>
        <time>2022-06-04T08:50:42.000Z</time>
      </trkpt>
      <trkpt lat="43.42984490096569061279296875" lon="-5.670966692268848419189453125">
        <ele>228.8000030517578125</ele>
        <time>2022-06-04T08:50:43.000Z</time>
      </trkpt>
      <trkpt lat="43.42983291484415531158447265625" lon="-5.67093140445649623870849609375">
        <ele>226.8000030517578125</ele>
        <time>2022-06-04T08:50:45.000Z</time>
      </trkpt>
      <trkpt lat="43.429799973964691162109375" lon="-5.67080668173730373382568359375">
        <ele>225.1999969482421875</ele>
        <time>2022-06-04T08:50:47.000Z</time>
      </trkpt>
      <trkpt lat="43.42977784574031829833984375" lon="-5.67071263678371906280517578125">
        <ele>224.8000030517578125</ele>
        <time>2022-06-04T08:50:49.000Z</time>
      </trkpt>
      <trkpt lat="43.42975311912596225738525390625" lon="-5.67061674781143665313720703125">
        <ele>224.600006103515625</ele>
        <time>2022-06-04T08:50:51.000Z</time>
      </trkpt>
      <trkpt lat="43.42971975915133953094482421875" lon="-5.6705242954194545745849609375">
        <ele>224.600006103515625</ele>
        <time>2022-06-04T08:50:53.000Z</time>
      </trkpt>
      <trkpt lat="43.4297032468020915985107421875" lon="-5.6704823859035968780517578125">
        <ele>224.600006103515625</ele>
        <time>2022-06-04T08:50:54.000Z</time>
      </trkpt>
      <trkpt lat="43.42968673445284366607666015625" lon="-5.67043997347354888916015625">
        <ele>224.399993896484375</ele>
        <time>2022-06-04T08:50:55.000Z</time>
      </trkpt>
      <trkpt lat="43.4296482615172863006591796875" lon="-5.67035255022346973419189453125">
        <ele>224.399993896484375</ele>
        <time>2022-06-04T08:50:57.000Z</time>
      </trkpt>
      <trkpt lat="43.4296026639640331268310546875" lon="-5.6702708266675472259521484375">
        <ele>224.600006103515625</ele>
        <time>2022-06-04T08:50:59.000Z</time>
      </trkpt>
      <trkpt lat="43.4295768477022647857666015625" lon="-5.67023302428424358367919921875">
        <ele>224.8000030517578125</ele>
        <time>2022-06-04T08:51:01.000Z</time>
      </trkpt>
      <trkpt lat="43.429551534354686737060546875" lon="-5.670194886624813079833984375">
        <ele>224.8000030517578125</ele>
        <time>2022-06-04T08:51:02.000Z</time>
      </trkpt>
      <trkpt lat="43.4295027516782283782958984375" lon="-5.670117102563381195068359375">
        <ele>225</ele>
        <time>2022-06-04T08:51:03.000Z</time>
      </trkpt>
      <trkpt lat="43.42945287935435771942138671875" lon="-5.67003403790295124053955078125">
        <ele>225.1999969482421875</ele>
        <time>2022-06-04T08:51:05.000Z</time>
      </trkpt>
      <trkpt lat="43.4294041804969310760498046875" lon="-5.66995474509894847869873046875">
        <ele>225.399993896484375</ele>
        <time>2022-06-04T08:51:07.000Z</time>
      </trkpt>
      <trkpt lat="43.42935279943048954010009765625" lon="-5.66987511701881885528564453125">
        <ele>225.399993896484375</ele>
        <time>2022-06-04T08:51:09.000Z</time>
      </trkpt>
      <trkpt lat="43.42932715080678462982177734375" lon="-5.66983387805521488189697265625">
        <ele>225.399993896484375</ele>
        <time>2022-06-04T08:51:10.000Z</time>
      </trkpt>
      <trkpt lat="43.42930150218307971954345703125" lon="-5.6697933934628963470458984375">
        <ele>225.399993896484375</ele>
        <time>2022-06-04T08:51:11.000Z</time>
      </trkpt>
      <trkpt lat="43.42925347387790679931640625" lon="-5.66970999352633953094482421875">
        <ele>225.600006103515625</ele>
        <time>2022-06-04T08:51:13.000Z</time>
      </trkpt>
      <trkpt lat="43.4292085468769073486328125" lon="-5.66962349228560924530029296875">
        <ele>225.600006103515625</ele>
        <time>2022-06-04T08:51:15.000Z</time>
      </trkpt>
      <trkpt lat="43.429166637361049652099609375" lon="-5.66953766159713268280029296875">
        <ele>225.8000030517578125</ele>
        <time>2022-06-04T08:51:17.000Z</time>
      </trkpt>
      <trkpt lat="43.42913168482482433319091796875" lon="-5.66944680176675319671630859375">
        <ele>226</ele>
        <time>2022-06-04T08:51:19.000Z</time>
      </trkpt>
      <trkpt lat="43.429116345942020416259765625" lon="-5.66940204240381717681884765625">
        <ele>226</ele>
        <time>2022-06-04T08:51:20.000Z</time>
      </trkpt>
      <trkpt lat="43.42910251580178737640380859375" lon="-5.66935527138411998748779296875">
        <ele>226.1999969482421875</ele>
        <time>2022-06-04T08:51:21.000Z</time>
      </trkpt>
      <trkpt lat="43.429074771702289581298828125" lon="-5.66925577819347381591796875">
        <ele>226.1999969482421875</ele>
        <time>2022-06-04T08:51:23.000Z</time>
      </trkpt>
      <trkpt lat="43.42904199846088886260986328125" lon="-5.66915242932736873626708984375">
        <ele>226.399993896484375</ele>
        <time>2022-06-04T08:51:25.000Z</time>
      </trkpt>
      <trkpt lat="43.42901282943785190582275390625" lon="-5.66905536688864231109619140625">
        <ele>226.600006103515625</ele>
        <time>2022-06-04T08:51:27.000Z</time>
      </trkpt>
      <trkpt lat="43.42898525297641754150390625" lon="-5.66895511932671070098876953125">
        <ele>226.600006103515625</ele>
        <time>2022-06-04T08:51:29.000Z</time>
      </trkpt>
      <trkpt lat="43.428951390087604522705078125" lon="-5.66885319538414478302001953125">
        <ele>226.8000030517578125</ele>
        <time>2022-06-04T08:51:31.000Z</time>
      </trkpt>
      <trkpt lat="43.4289295971393585205078125" lon="-5.66880575381219387054443359375">
        <ele>226.8000030517578125</ele>
        <time>2022-06-04T08:51:32.000Z</time>
      </trkpt>
      <trkpt lat="43.42890621162950992584228515625" lon="-5.6687580607831478118896484375">
        <ele>226.8000030517578125</ele>
        <time>2022-06-04T08:51:33.000Z</time>
      </trkpt>
      <trkpt lat="43.4288549982011318206787109375" lon="-5.66866912879049777984619140625">
        <ele>226.8000030517578125</ele>
        <time>2022-06-04T08:51:35.000Z</time>
      </trkpt>
      <trkpt lat="43.4288013540208339691162109375" lon="-5.66858849488198757171630859375">
        <ele>227</ele>
        <time>2022-06-04T08:51:37.000Z</time>
      </trkpt>
      <trkpt lat="43.42875055968761444091796875" lon="-5.66850735805928707122802734375">
        <ele>227</ele>
        <time>2022-06-04T08:51:39.000Z</time>
      </trkpt>
      <trkpt lat="43.4287245757877826690673828125" lon="-5.66846720874309539794921875">
        <ele>227</ele>
        <time>2022-06-04T08:51:40.000Z</time>
      </trkpt>
      <trkpt lat="43.42869850806891918182373046875" lon="-5.66842563450336456298828125">
        <ele>227</ele>
        <time>2022-06-04T08:51:41.000Z</time>
      </trkpt>
      <trkpt lat="43.42864922247827053070068359375" lon="-5.6683419831097126007080078125">
        <ele>227.1999969482421875</ele>
        <time>2022-06-04T08:51:43.000Z</time>
      </trkpt>
      <trkpt lat="43.4286050498485565185546875" lon="-5.66826143302023410797119140625">
        <ele>227.1999969482421875</ele>
        <time>2022-06-04T08:51:45.000Z</time>
      </trkpt>
      <trkpt lat="43.428565822541713714599609375" lon="-5.66817476414144039154052734375">
        <ele>227.399993896484375</ele>
        <time>2022-06-04T08:51:47.000Z</time>
      </trkpt>
      <trkpt lat="43.4285448677837848663330078125" lon="-5.66812992095947265625">
        <ele>227.399993896484375</ele>
        <time>2022-06-04T08:51:48.000Z</time>
      </trkpt>
      <trkpt lat="43.4285448677837848663330078125" lon="-5.66812992095947265625">
        <ele>227.600006103515625</ele>
        <time>2022-06-04T08:51:49.000Z</time>
      </trkpt>
      <trkpt lat="43.4284731186926364898681640625" lon="-5.66798315383493900299072265625">
        <ele>228</ele>
        <time>2022-06-04T08:51:51.000Z</time>
      </trkpt>
      <trkpt lat="43.4284224919974803924560546875" lon="-5.6678739376366138458251953125">
        <ele>228</ele>
        <time>2022-06-04T08:51:53.000Z</time>
      </trkpt>
      <trkpt lat="43.42839592136442661285400390625" lon="-5.66781719215214252471923828125">
        <ele>228.1999969482421875</ele>
        <time>2022-06-04T08:51:55.000Z</time>
      </trkpt>
      <trkpt lat="43.42831470072269439697265625" lon="-5.66764335148036479949951171875">
        <ele>228</ele>
        <time>2022-06-04T08:51:57.000Z</time>
      </trkpt>
      <trkpt lat="43.428262732923030853271484375" lon="-5.66752449609339237213134765625">
        <ele>228.1999969482421875</ele>
        <time>2022-06-04T08:51:59.000Z</time>
      </trkpt>
      <trkpt lat="43.42820649035274982452392578125" lon="-5.66740639507770538330078125">
        <ele>228.1999969482421875</ele>
        <time>2022-06-04T08:52:01.000Z</time>
      </trkpt>
      <trkpt lat="43.4281505830585956573486328125" lon="-5.66728695295751094818115234375">
        <ele>228.1999969482421875</ele>
        <time>2022-06-04T08:52:03.000Z</time>
      </trkpt>
      <trkpt lat="43.428093753755092620849609375" lon="-5.66717010922729969024658203125">
        <ele>228</ele>
        <time>2022-06-04T08:52:05.000Z</time>
      </trkpt>
      <trkpt lat="43.42803466133773326873779296875" lon="-5.66705259494483470916748046875">
        <ele>227.8000030517578125</ele>
        <time>2022-06-04T08:52:07.000Z</time>
      </trkpt>
      <trkpt lat="43.4279782511293888092041015625" lon="-5.66693357191979885101318359375">
        <ele>227.8000030517578125</ele>
        <time>2022-06-04T08:52:09.000Z</time>
      </trkpt>
      <trkpt lat="43.4279210865497589111328125" lon="-5.66681505180895328521728515625">
        <ele>227.8000030517578125</ele>
        <time>2022-06-04T08:52:11.000Z</time>
      </trkpt>
      <trkpt lat="43.4278652630746364593505859375" lon="-5.66669736988842487335205078125">
        <ele>227.8000030517578125</ele>
        <time>2022-06-04T08:52:13.000Z</time>
      </trkpt>
      <trkpt lat="43.427836932241916656494140625" lon="-5.666638277471065521240234375">
        <ele>227.8000030517578125</ele>
        <time>2022-06-04T08:52:15.000Z</time>
      </trkpt>
      <trkpt lat="43.42777951620519161224365234375" lon="-5.666522942483425140380859375">
        <ele>227.8000030517578125</ele>
        <time>2022-06-04T08:52:17.000Z</time>
      </trkpt>
      <trkpt lat="43.42769318260252475738525390625" lon="-5.66634767688810825347900390625">
        <ele>227.8000030517578125</ele>
        <time>2022-06-04T08:52:19.000Z</time>
      </trkpt>
      <trkpt lat="43.4276278875768184661865234375" lon="-5.66623561084270477294921875">
        <ele>227.8000030517578125</ele>
        <time>2022-06-04T08:52:21.000Z</time>
      </trkpt>
      <trkpt lat="43.42755638994276523590087890625" lon="-5.66613326780498027801513671875">
        <ele>227.8000030517578125</ele>
        <time>2022-06-04T08:52:23.000Z</time>
      </trkpt>
      <trkpt lat="43.4274838864803314208984375" lon="-5.6660446710884571075439453125">
        <ele>228</ele>
        <time>2022-06-04T08:52:25.000Z</time>
      </trkpt>
      <trkpt lat="43.427408449351787567138671875" lon="-5.66594869829714298248291015625">
        <ele>228</ele>
        <time>2022-06-04T08:52:27.000Z</time>
      </trkpt>
      <trkpt lat="43.42733301222324371337890625" lon="-5.66584937274456024169921875">
        <ele>228</ele>
        <time>2022-06-04T08:52:29.000Z</time>
      </trkpt>
      <trkpt lat="43.42725581489503383636474609375" lon="-5.6657472811639308929443359375">
        <ele>228</ele>
        <time>2022-06-04T08:52:31.000Z</time>
      </trkpt>
      <trkpt lat="43.42717836610972881317138671875" lon="-5.66563907079398632049560546875">
        <ele>227.8000030517578125</ele>
        <time>2022-06-04T08:52:33.000Z</time>
      </trkpt>
      <trkpt lat="43.42709823511540889739990234375" lon="-5.66553044132888317108154296875">
        <ele>227.8000030517578125</ele>
        <time>2022-06-04T08:52:35.000Z</time>
      </trkpt>
      <trkpt lat="43.42706034891307353973388671875" lon="-5.6654787249863147735595703125">
        <ele>227.600006103515625</ele>
        <time>2022-06-04T08:52:36.000Z</time>
      </trkpt>
      <trkpt lat="43.42702263034880161285400390625" lon="-5.66542617045342922210693359375">
        <ele>227.600006103515625</ele>
        <time>2022-06-04T08:52:37.000Z</time>
      </trkpt>
      <trkpt lat="43.4269885160028934478759765625" lon="-5.66537252627313137054443359375">
        <ele>227.600006103515625</ele>
        <time>2022-06-04T08:52:38.000Z</time>
      </trkpt>
      <trkpt lat="43.42695884406566619873046875" lon="-5.6653147749602794647216796875">
        <ele>227.600006103515625</ele>
        <time>2022-06-04T08:52:39.000Z</time>
      </trkpt>
      <trkpt lat="43.42691517435014247894287109375" lon="-5.665185190737247467041015625">
        <ele>227.600006103515625</ele>
        <time>2022-06-04T08:52:41.000Z</time>
      </trkpt>
      <trkpt lat="43.42689304612576961517333984375" lon="-5.66504311747848987579345703125">
        <ele>227.600006103515625</ele>
        <time>2022-06-04T08:52:43.000Z</time>
      </trkpt>
      <trkpt lat="43.42689304612576961517333984375" lon="-5.66504311747848987579345703125">
        <ele>227.600006103515625</ele>
        <time>2022-06-04T08:52:44.000Z</time>
      </trkpt>
      <trkpt lat="43.42688047327101230621337890625" lon="-5.66489861346781253814697265625">
        <ele>227.600006103515625</ele>
        <time>2022-06-04T08:52:45.000Z</time>
      </trkpt>
      <trkpt lat="43.426873683929443359375" lon="-5.6648272834718227386474609375">
        <ele>227.600006103515625</ele>
        <time>2022-06-04T08:52:46.000Z</time>
      </trkpt>
      <trkpt lat="43.42686890624463558197021484375" lon="-5.6647548638284206390380859375">
        <ele>227.600006103515625</ele>
        <time>2022-06-04T08:52:47.000Z</time>
      </trkpt>
      <trkpt lat="43.42686496675014495849609375" lon="-5.6646095216274261474609375">
        <ele>227.8000030517578125</ele>
        <time>2022-06-04T08:52:49.000Z</time>
      </trkpt>
      <trkpt lat="43.42685951851308345794677734375" lon="-5.6644718907773494720458984375">
        <ele>228</ele>
        <time>2022-06-04T08:52:51.000Z</time>
      </trkpt>
      <trkpt lat="43.4268550761044025421142578125" lon="-5.66440441645681858062744140625">
        <ele>228.1999969482421875</ele>
        <time>2022-06-04T08:52:52.000Z</time>
      </trkpt>
      <trkpt lat="43.4268550761044025421142578125" lon="-5.66440441645681858062744140625">
        <ele>228.399993896484375</ele>
        <time>2022-06-04T08:52:53.000Z</time>
      </trkpt>
      <trkpt lat="43.4268440119922161102294921875" lon="-5.664275251328945159912109375">
        <ele>228.399993896484375</ele>
        <time>2022-06-04T08:52:55.000Z</time>
      </trkpt>
      <trkpt lat="43.426820375025272369384765625" lon="-5.66409411840140819549560546875">
        <ele>228.600006103515625</ele>
        <time>2022-06-04T08:52:57.000Z</time>
      </trkpt>
      <trkpt lat="43.42679900117218494415283203125" lon="-5.66396134905517101287841796875">
        <ele>228.600006103515625</ele>
        <time>2022-06-04T08:52:59.000Z</time>
      </trkpt>
      <trkpt lat="43.42677754350006580352783203125" lon="-5.663834027945995330810546875">
        <ele>228.8000030517578125</ele>
        <time>2022-06-04T08:53:01.000Z</time>
      </trkpt>
      <trkpt lat="43.42676044441759586334228515625" lon="-5.6637725047767162322998046875">
        <ele>228.8000030517578125</ele>
        <time>2022-06-04T08:53:02.000Z</time>
      </trkpt>
      <trkpt lat="43.4267370589077472686767578125" lon="-5.663715340197086334228515625">
        <ele>228.8000030517578125</ele>
        <time>2022-06-04T08:53:03.000Z</time>
      </trkpt>
      <trkpt lat="43.4267122484743595123291015625" lon="-5.66365675069391727447509765625">
        <ele>229</ele>
        <time>2022-06-04T08:53:04.000Z</time>
      </trkpt>
      <trkpt lat="43.42668551020324230194091796875" lon="-5.66360126249492168426513671875">
        <ele>229</ele>
        <time>2022-06-04T08:53:05.000Z</time>
      </trkpt>
      <trkpt lat="43.426652066409587860107421875" lon="-5.66354937851428985595703125">
        <ele>229</ele>
        <time>2022-06-04T08:53:06.000Z</time>
      </trkpt>
      <trkpt lat="43.42661418020725250244140625" lon="-5.66350403241813182830810546875">
        <ele>229</ele>
        <time>2022-06-04T08:53:07.000Z</time>
      </trkpt>
      <trkpt lat="43.426575623452663421630859375" lon="-5.66346396692097187042236328125">
        <ele>229.1999969482421875</ele>
        <time>2022-06-04T08:53:09.000Z</time>
      </trkpt>
      <trkpt lat="43.42644478194415569305419921875" lon="-5.6633917987346649169921875">
        <ele>229.399993896484375</ele>
        <time>2022-06-04T08:53:11.000Z</time>
      </trkpt>
      <trkpt lat="43.42635333538055419921875" lon="-5.663355924189090728759765625">
        <ele>229.600006103515625</ele>
        <time>2022-06-04T08:53:13.000Z</time>
      </trkpt>
      <trkpt lat="43.42626088298857212066650390625" lon="-5.66332097165286540985107421875">
        <ele>229.8000030517578125</ele>
        <time>2022-06-04T08:53:15.000Z</time>
      </trkpt>
      <trkpt lat="43.42616532929241657257080078125" lon="-5.66328224726021289825439453125">
        <ele>229.8000030517578125</ele>
        <time>2022-06-04T08:53:17.000Z</time>
      </trkpt>
      <trkpt lat="43.4261164627969264984130859375" lon="-5.663259029388427734375">
        <ele>229.8000030517578125</ele>
        <time>2022-06-04T08:53:19.000Z</time>
      </trkpt>
      <trkpt lat="43.42597757466137409210205078125" lon="-5.6631951592862606048583984375">
        <ele>230</ele>
        <time>2022-06-04T08:53:21.000Z</time>
      </trkpt>
      <trkpt lat="43.4258852899074554443359375" lon="-5.663143694400787353515625">
        <ele>230</ele>
        <time>2022-06-04T08:53:23.000Z</time>
      </trkpt>
      <trkpt lat="43.425843380391597747802734375" lon="-5.66310874186456203460693359375">
        <ele>230</ele>
        <time>2022-06-04T08:53:24.000Z</time>
      </trkpt>
      <trkpt lat="43.42580809257924556732177734375" lon="-5.66307102330029010772705078125">
        <ele>230</ele>
        <time>2022-06-04T08:53:25.000Z</time>
      </trkpt>
      <trkpt lat="43.42580809257924556732177734375" lon="-5.66307102330029010772705078125">
        <ele>230.1999969482421875</ele>
        <time>2022-06-04T08:53:26.000Z</time>
      </trkpt>
      <trkpt lat="43.4257483296096324920654296875" lon="-5.662975050508975982666015625">
        <ele>230.399993896484375</ele>
        <time>2022-06-04T08:53:27.000Z</time>
      </trkpt>
      <trkpt lat="43.4257050789892673492431640625" lon="-5.66286449320614337921142578125">
        <ele>230.600006103515625</ele>
        <time>2022-06-04T08:53:29.000Z</time>
      </trkpt>
      <trkpt lat="43.42568747699260711669921875" lon="-5.66280514933168888092041015625">
        <ele>230.600006103515625</ele>
        <time>2022-06-04T08:53:30.000Z</time>
      </trkpt>
      <trkpt lat="43.425672054290771484375" lon="-5.66274228505790233612060546875">
        <ele>230.600006103515625</ele>
        <time>2022-06-04T08:53:31.000Z</time>
      </trkpt>
      <trkpt lat="43.4256507642567157745361328125" lon="-5.6626193225383758544921875">
        <ele>230.8000030517578125</ele>
        <time>2022-06-04T08:53:33.000Z</time>
      </trkpt>
      <trkpt lat="43.42563173733651638031005859375" lon="-5.66250172443687915802001953125">
        <ele>231</ele>
        <time>2022-06-04T08:53:35.000Z</time>
      </trkpt>
      <trkpt lat="43.4256189130246639251708984375" lon="-5.6624476611614227294921875">
        <ele>231.1999969482421875</ele>
        <time>2022-06-04T08:53:36.000Z</time>
      </trkpt>
      <trkpt lat="43.42560860328376293182373046875" lon="-5.66239225678145885467529296875">
        <ele>231.1999969482421875</ele>
        <time>2022-06-04T08:53:37.000Z</time>
      </trkpt>
      <trkpt lat="43.4255793504416942596435546875" lon="-5.66227625124156475067138671875">
        <ele>231.399993896484375</ele>
        <time>2022-06-04T08:53:39.000Z</time>
      </trkpt>
      <trkpt lat="43.4255312383174896240234375" lon="-5.6621648557484149932861328125">
        <ele>231.8000030517578125</ele>
        <time>2022-06-04T08:53:41.000Z</time>
      </trkpt>
      <trkpt lat="43.425503410398960113525390625" lon="-5.66211246885359287261962890625">
        <ele>232</ele>
        <time>2022-06-04T08:53:42.000Z</time>
      </trkpt>
      <trkpt lat="43.42547181062400341033935546875" lon="-5.662063099443912506103515625">
        <ele>232</ele>
        <time>2022-06-04T08:53:43.000Z</time>
      </trkpt>
      <trkpt lat="43.4254009835422039031982421875" lon="-5.6619690544903278350830078125">
        <ele>232.1999969482421875</ele>
        <time>2022-06-04T08:53:45.000Z</time>
      </trkpt>
      <trkpt lat="43.42532831244170665740966796875" lon="-5.66187710501253604888916015625">
        <ele>232.1999969482421875</ele>
        <time>2022-06-04T08:53:47.000Z</time>
      </trkpt>
      <trkpt lat="43.42529243789613246917724609375" lon="-5.6618319265544414520263671875">
        <ele>232.399993896484375</ele>
        <time>2022-06-04T08:53:48.000Z</time>
      </trkpt>
      <trkpt lat="43.425257317721843719482421875" lon="-5.66178825683891773223876953125">
        <ele>232.399993896484375</ele>
        <time>2022-06-04T08:53:49.000Z</time>
      </trkpt>
      <trkpt lat="43.42519017867743968963623046875" lon="-5.66169622354209423065185546875">
        <ele>232.600006103515625</ele>
        <time>2022-06-04T08:53:51.000Z</time>
      </trkpt>
      <trkpt lat="43.4251284040510654449462890625" lon="-5.6616012565791606903076171875">
        <ele>232.8000030517578125</ele>
        <time>2022-06-04T08:53:53.000Z</time>
      </trkpt>
      <trkpt lat="43.42507266439497470855712890625" lon="-5.66150955855846405029296875">
        <ele>232.8000030517578125</ele>
        <time>2022-06-04T08:53:55.000Z</time>
      </trkpt>
      <trkpt lat="43.42507266439497470855712890625" lon="-5.66150955855846405029296875">
        <ele>232.8000030517578125</ele>
        <time>2022-06-04T08:53:56.000Z</time>
      </trkpt>
      <trkpt lat="43.42502103187143802642822265625" lon="-5.6614259071648120880126953125">
        <ele>232.8000030517578125</ele>
        <time>2022-06-04T08:53:57.000Z</time>
      </trkpt>
      <trkpt lat="43.4249867498874664306640625" lon="-5.6614088080823421478271484375">
        <ele>232.8000030517578125</ele>
        <time>2022-06-04T08:53:58.000Z</time>
      </trkpt>
      <trkpt lat="43.42494450509548187255859375" lon="-5.661410987377166748046875">
        <ele>233</ele>
        <time>2022-06-04T08:53:59.000Z</time>
      </trkpt>
      <trkpt lat="43.42484082095324993133544921875" lon="-5.66143956966698169708251953125">
        <ele>233</ele>
        <time>2022-06-04T08:54:01.000Z</time>
      </trkpt>
      <trkpt lat="43.42472322285175323486328125" lon="-5.6614525616168975830078125">
        <ele>233</ele>
        <time>2022-06-04T08:54:03.000Z</time>
      </trkpt>
      <trkpt lat="43.42461266554892063140869140625" lon="-5.66139615140855312347412109375">
        <ele>233</ele>
        <time>2022-06-04T08:54:05.000Z</time>
      </trkpt>
      <trkpt lat="43.42456723563373088836669921875" lon="-5.66134653054177761077880859375">
        <ele>233</ele>
        <time>2022-06-04T08:54:06.000Z</time>
      </trkpt>
      <trkpt lat="43.424529097974300384521484375" lon="-5.66128467209637165069580078125">
        <ele>233</ele>
        <time>2022-06-04T08:54:07.000Z</time>
      </trkpt>
      <trkpt lat="43.424529097974300384521484375" lon="-5.66128467209637165069580078125">
        <ele>233</ele>
        <time>2022-06-04T08:54:08.000Z</time>
      </trkpt>
      <trkpt lat="43.4244605340063571929931640625" lon="-5.6611566804349422454833984375">
        <ele>233</ele>
        <time>2022-06-04T08:54:09.000Z</time>
      </trkpt>
      <trkpt lat="43.42442239634692668914794921875" lon="-5.6611033715307712554931640625">
        <ele>232.8000030517578125</ele>
        <time>2022-06-04T08:54:10.000Z</time>
      </trkpt>
      <trkpt lat="43.42442239634692668914794921875" lon="-5.6611033715307712554931640625">
        <ele>232.600006103515625</ele>
        <time>2022-06-04T08:54:11.000Z</time>
      </trkpt>
      <trkpt lat="43.42434645630419254302978515625" lon="-5.66102701239287853240966796875">
        <ele>232.600006103515625</ele>
        <time>2022-06-04T08:54:12.000Z</time>
      </trkpt>
      <trkpt lat="43.42434645630419254302978515625" lon="-5.66102701239287853240966796875">
        <ele>232.399993896484375</ele>
        <time>2022-06-04T08:54:13.000Z</time>
      </trkpt>
      <trkpt lat="43.42430320568382740020751953125" lon="-5.6610141880810260772705078125">
        <ele>232.399993896484375</ele>
        <time>2022-06-04T08:54:14.000Z</time>
      </trkpt>
      <trkpt lat="43.4242315404117107391357421875" lon="-5.6610690057277679443359375">
        <ele>232.399993896484375</ele>
        <time>2022-06-04T08:54:15.000Z</time>
      </trkpt>
      <trkpt lat="43.42421720735728740692138671875" lon="-5.6611251644790172576904296875">
        <ele>232.1999969482421875</ele>
        <time>2022-06-04T08:54:16.000Z</time>
      </trkpt>
      <trkpt lat="43.42421720735728740692138671875" lon="-5.6611251644790172576904296875">
        <ele>232.1999969482421875</ele>
        <time>2022-06-04T08:54:17.000Z</time>
      </trkpt>
      <trkpt lat="43.42421771027147769927978515625" lon="-5.66129037179052829742431640625">
        <ele>232</ele>
        <time>2022-06-04T08:54:19.000Z</time>
      </trkpt>
      <trkpt lat="43.424220979213714599609375" lon="-5.661388523876667022705078125">
        <ele>231.600006103515625</ele>
        <time>2022-06-04T08:54:21.000Z</time>
      </trkpt>
      <trkpt lat="43.42422408051788806915283203125" lon="-5.66142984665930271148681640625">
        <ele>231.600006103515625</ele>
        <time>2022-06-04T08:54:23.000Z</time>
      </trkpt>
      <trkpt lat="43.424229361116886138916015625" lon="-5.66152238287031650543212890625">
        <ele>231.600006103515625</ele>
        <time>2022-06-04T08:54:25.000Z</time>
      </trkpt>
      <trkpt lat="43.424229361116886138916015625" lon="-5.66152238287031650543212890625">
        <ele>231.600006103515625</ele>
        <time>2022-06-04T08:54:26.000Z</time>
      </trkpt>
      <trkpt lat="43.42423296533524990081787109375" lon="-5.6615519709885120391845703125">
        <ele>231.600006103515625</ele>
        <time>2022-06-04T08:54:27.000Z</time>
      </trkpt>
      <trkpt lat="43.42424822039902210235595703125" lon="-5.6616357900202274322509765625">
        <ele>231.600006103515625</ele>
        <time>2022-06-04T08:54:29.000Z</time>
      </trkpt>
      <trkpt lat="43.42426112852990627288818359375" lon="-5.661687590181827545166015625">
        <ele>232</ele>
        <time>2022-06-04T08:54:31.000Z</time>
      </trkpt>
      <trkpt lat="43.4242781437933444976806640625" lon="-5.66174014471471309661865234375">
        <ele>233</ele>
        <time>2022-06-04T08:54:33.000Z</time>
      </trkpt>
      <trkpt lat="43.4242922253906726837158203125" lon="-5.66179512999951839447021484375">
        <ele>233.8000030517578125</ele>
        <time>2022-06-04T08:54:35.000Z</time>
      </trkpt>
      <trkpt lat="43.42429541051387786865234375" lon="-5.66182312555611133575439453125">
        <ele>234.1999969482421875</ele>
        <time>2022-06-04T08:54:36.000Z</time>
      </trkpt>
      <trkpt lat="43.42430035583674907684326171875" lon="-5.6618496961891651153564453125">
        <ele>234.600006103515625</ele>
        <time>2022-06-04T08:54:37.000Z</time>
      </trkpt>
      <trkpt lat="43.42430890537798404693603515625" lon="-5.66187727265059947967529296875">
        <ele>235</ele>
        <time>2022-06-04T08:54:39.000Z</time>
      </trkpt>
      <trkpt lat="43.42433153651654720306396484375" lon="-5.66192924045026302337646484375">
        <ele>235.1999969482421875</ele>
        <time>2022-06-04T08:54:40.000Z</time>
      </trkpt>
      <trkpt lat="43.42433824203908443450927734375" lon="-5.66195623017847537994384765625">
        <ele>235.399993896484375</ele>
        <time>2022-06-04T08:54:41.000Z</time>
      </trkpt>
      <trkpt lat="43.424367494881153106689453125" lon="-5.66200719214975833892822265625">
        <ele>235.8000030517578125</ele>
        <time>2022-06-04T08:54:43.000Z</time>
      </trkpt>
      <trkpt lat="43.424398005008697509765625" lon="-5.66205781884491443634033203125">
        <ele>236.1999969482421875</ele>
        <time>2022-06-04T08:54:45.000Z</time>
      </trkpt>
      <trkpt lat="43.42441233806312084197998046875" lon="-5.6620807014405727386474609375">
        <ele>236.399993896484375</ele>
        <time>2022-06-04T08:54:46.000Z</time>
      </trkpt>
      <trkpt lat="43.4244317002594470977783203125" lon="-5.66210425458848476409912109375">
        <ele>236.600006103515625</ele>
        <time>2022-06-04T08:54:47.000Z</time>
      </trkpt>
      <trkpt lat="43.42448190785944461822509765625" lon="-5.66214113496243953704833984375">
        <ele>237</ele>
        <time>2022-06-04T08:54:49.000Z</time>
      </trkpt>
      <trkpt lat="43.4245068021118640899658203125" lon="-5.6621584855020046234130859375">
        <ele>237.1999969482421875</ele>
        <time>2022-06-04T08:54:51.000Z</time>
      </trkpt>
      <trkpt lat="43.4245617873966693878173828125" lon="-5.66220290958881378173828125">
        <ele>237.8000030517578125</ele>
        <time>2022-06-04T08:54:53.000Z</time>
      </trkpt>
      <trkpt lat="43.424580059945583343505859375" lon="-5.6622208468616008758544921875">
        <ele>237.8000030517578125</ele>
        <time>2022-06-04T08:54:55.000Z</time>
      </trkpt>
      <trkpt lat="43.42461367137730121612548828125" lon="-5.6622704677283763885498046875">
        <ele>238.399993896484375</ele>
        <time>2022-06-04T08:54:57.000Z</time>
      </trkpt>
      <trkpt lat="43.42462523840367794036865234375" lon="-5.66228563897311687469482421875">
        <ele>238.399993896484375</ele>
        <time>2022-06-04T08:54:58.000Z</time>
      </trkpt>
      <trkpt lat="43.42462523840367794036865234375" lon="-5.66228563897311687469482421875">
        <ele>238.399993896484375</ele>
        <time>2022-06-04T08:54:59.000Z</time>
      </trkpt>
      <trkpt lat="43.42464745044708251953125" lon="-5.66232268698513507843017578125">
        <ele>238.399993896484375</ele>
        <time>2022-06-04T08:55:00.000Z</time>
      </trkpt>
      <trkpt lat="43.42464745044708251953125" lon="-5.66232268698513507843017578125">
        <ele>238.8000030517578125</ele>
        <time>2022-06-04T08:55:01.000Z</time>
      </trkpt>
      <trkpt lat="43.42466823756694793701171875" lon="-5.66237465478479862213134765625">
        <ele>239.1999969482421875</ele>
        <time>2022-06-04T08:55:03.000Z</time>
      </trkpt>
      <trkpt lat="43.4246710874140262603759765625" lon="-5.66239242441952228546142578125">
        <ele>239.399993896484375</ele>
        <time>2022-06-04T08:55:04.000Z</time>
      </trkpt>
      <trkpt lat="43.4246751107275485992431640625" lon="-5.66240952350199222564697265625">
        <ele>239.600006103515625</ele>
        <time>2022-06-04T08:55:05.000Z</time>
      </trkpt>
      <trkpt lat="43.4246838279068470001220703125" lon="-5.6624558754265308380126953125">
        <ele>240.1999969482421875</ele>
        <time>2022-06-04T08:55:07.000Z</time>
      </trkpt>
      <trkpt lat="43.4246838279068470001220703125" lon="-5.6624558754265308380126953125">
        <ele>240.399993896484375</ele>
        <time>2022-06-04T08:55:08.000Z</time>
      </trkpt>
      <trkpt lat="43.4246885217726230621337890625" lon="-5.662491582334041595458984375">
        <ele>240.600006103515625</ele>
        <time>2022-06-04T08:55:09.000Z</time>
      </trkpt>
      <trkpt lat="43.42469028197228908538818359375" lon="-5.66251060925424098968505859375">
        <ele>241</ele>
        <time>2022-06-04T08:55:11.000Z</time>
      </trkpt>
      <trkpt lat="43.42469212599098682403564453125" lon="-5.6625467352569103240966796875">
        <ele>241.399993896484375</ele>
        <time>2022-06-04T08:55:12.000Z</time>
      </trkpt>
      <trkpt lat="43.42469212599098682403564453125" lon="-5.6625467352569103240966796875">
        <ele>241.600006103515625</ele>
        <time>2022-06-04T08:55:13.000Z</time>
      </trkpt>
      <trkpt lat="43.42469103634357452392578125" lon="-5.6625832803547382354736328125">
        <ele>242.1999969482421875</ele>
        <time>2022-06-04T08:55:15.000Z</time>
      </trkpt>
      <trkpt lat="43.424683324992656707763671875" lon="-5.66264170221984386444091796875">
        <ele>242.600006103515625</ele>
        <time>2022-06-04T08:55:17.000Z</time>
      </trkpt>
      <trkpt lat="43.42467821203172206878662109375" lon="-5.66266081295907497406005859375">
        <ele>242.8000030517578125</ele>
        <time>2022-06-04T08:55:18.000Z</time>
      </trkpt>
      <trkpt lat="43.42467821203172206878662109375" lon="-5.66266081295907497406005859375">
        <ele>243</ele>
        <time>2022-06-04T08:55:19.000Z</time>
      </trkpt>
      <trkpt lat="43.42467762529850006103515625" lon="-5.66267774440348148345947265625">
        <ele>243.399993896484375</ele>
        <time>2022-06-04T08:55:20.000Z</time>
      </trkpt>
      <trkpt lat="43.424672596156597137451171875" lon="-5.6627133674919605255126953125">
        <ele>243.600006103515625</ele>
        <time>2022-06-04T08:55:21.000Z</time>
      </trkpt>
      <trkpt lat="43.42467251233756542205810546875" lon="-5.66272719763219356536865234375">
        <ele>243.8000030517578125</ele>
        <time>2022-06-04T08:55:22.000Z</time>
      </trkpt>
      <trkpt lat="43.42466890811920166015625" lon="-5.66274077631533145904541015625">
        <ele>244.1999969482421875</ele>
        <time>2022-06-04T08:55:23.000Z</time>
      </trkpt>
      <trkpt lat="43.42466798610985279083251953125" lon="-5.6627774052321910858154296875">
        <ele>244.600006103515625</ele>
        <time>2022-06-04T08:55:25.000Z</time>
      </trkpt>
      <trkpt lat="43.42466798610985279083251953125" lon="-5.6627774052321910858154296875">
        <ele>244.8000030517578125</ele>
        <time>2022-06-04T08:55:26.000Z</time>
      </trkpt>
      <trkpt lat="43.4246623702347278594970703125" lon="-5.66279810853302478790283203125">
        <ele>245.1999969482421875</ele>
        <time>2022-06-04T08:55:27.000Z</time>
      </trkpt>
      <trkpt lat="43.4246648848056793212890625" lon="-5.66283683292567729949951171875">
        <ele>246</ele>
        <time>2022-06-04T08:55:29.000Z</time>
      </trkpt>
      <trkpt lat="43.42466848902404308319091796875" lon="-5.66287321038544178009033203125">
        <ele>246.399993896484375</ele>
        <time>2022-06-04T08:55:31.000Z</time>
      </trkpt>
      <trkpt lat="43.42468072660267353057861328125" lon="-5.66294445656239986419677734375">
        <ele>246.8000030517578125</ele>
        <time>2022-06-04T08:55:33.000Z</time>
      </trkpt>
      <trkpt lat="43.42468625865876674652099609375" lon="-5.6629654951393604278564453125">
        <ele>247.1999969482421875</ele>
        <time>2022-06-04T08:55:34.000Z</time>
      </trkpt>
      <trkpt lat="43.42468625865876674652099609375" lon="-5.6629654951393604278564453125">
        <ele>247.399993896484375</ele>
        <time>2022-06-04T08:55:35.000Z</time>
      </trkpt>
      <trkpt lat="43.42470134608447551727294921875" lon="-5.66300597973167896270751953125">
        <ele>248</ele>
        <time>2022-06-04T08:55:37.000Z</time>
      </trkpt>
      <trkpt lat="43.42470302246510982513427734375" lon="-5.6630337238311767578125">
        <ele>248.1999969482421875</ele>
        <time>2022-06-04T08:55:38.000Z</time>
      </trkpt>
      <trkpt lat="43.42472246848046779632568359375" lon="-5.66308191977441310882568359375">
        <ele>248.399993896484375</ele>
        <time>2022-06-04T08:55:39.000Z</time>
      </trkpt>
      <trkpt lat="43.4247364662587642669677734375" lon="-5.66313975490629673004150390625">
        <ele>249.1999969482421875</ele>
        <time>2022-06-04T08:55:41.000Z</time>
      </trkpt>
      <trkpt lat="43.4247480332851409912109375" lon="-5.66316272132098674774169921875">
        <ele>249.399993896484375</ele>
        <time>2022-06-04T08:55:42.000Z</time>
      </trkpt>
      <trkpt lat="43.4247480332851409912109375" lon="-5.66316272132098674774169921875">
        <ele>249.600006103515625</ele>
        <time>2022-06-04T08:55:43.000Z</time>
      </trkpt>
      <trkpt lat="43.4247713349759578704833984375" lon="-5.66320613957941532135009765625">
        <ele>250.1999969482421875</ele>
        <time>2022-06-04T08:55:45.000Z</time>
      </trkpt>
      <trkpt lat="43.42480109073221683502197265625" lon="-5.66324419341981410980224609375">
        <ele>250.399993896484375</ele>
        <time>2022-06-04T08:55:46.000Z</time>
      </trkpt>
      <trkpt lat="43.42481416650116443634033203125" lon="-5.66326514817774295806884765625">
        <ele>250.8000030517578125</ele>
        <time>2022-06-04T08:55:47.000Z</time>
      </trkpt>
      <trkpt lat="43.424839563667774200439453125" lon="-5.6633084826171398162841796875">
        <ele>251.1999969482421875</ele>
        <time>2022-06-04T08:55:49.000Z</time>
      </trkpt>
      <trkpt lat="43.4248538129031658172607421875" lon="-5.66333211958408355712890625">
        <ele>251.399993896484375</ele>
        <time>2022-06-04T08:55:51.000Z</time>
      </trkpt>
      <trkpt lat="43.4248816408216953277587890625" lon="-5.6633939780294895172119140625">
        <ele>251.600006103515625</ele>
        <time>2022-06-04T08:55:52.000Z</time>
      </trkpt>
      <trkpt lat="43.42489547096192836761474609375" lon="-5.663422644138336181640625">
        <ele>251.8000030517578125</ele>
        <time>2022-06-04T08:55:53.000Z</time>
      </trkpt>
      <trkpt lat="43.42490804381668567657470703125" lon="-5.66345122642815113067626953125">
        <ele>252</ele>
        <time>2022-06-04T08:55:55.000Z</time>
      </trkpt>
      <trkpt lat="43.42494106851518154144287109375" lon="-5.6635124981403350830078125">
        <ele>252.399993896484375</ele>
        <time>2022-06-04T08:55:57.000Z</time>
      </trkpt>
      <trkpt lat="43.42498918063938617706298828125" lon="-5.6636052019894123077392578125">
        <ele>252.600006103515625</ele>
        <time>2022-06-04T08:55:59.000Z</time>
      </trkpt>
      <trkpt lat="43.4250251390039920806884765625" lon="-5.66365909762680530548095703125">
        <ele>252.600006103515625</ele>
        <time>2022-06-04T08:56:01.000Z</time>
      </trkpt>
      <trkpt lat="43.425042741000652313232421875" lon="-5.663677789270877838134765625">
        <ele>252.8000030517578125</ele>
        <time>2022-06-04T08:56:03.000Z</time>
      </trkpt>
      <trkpt lat="43.42509470880031585693359375" lon="-5.6637352891266345977783203125">
        <ele>252.600006103515625</ele>
        <time>2022-06-04T08:56:05.000Z</time>
      </trkpt>
      <trkpt lat="43.42512496747076511383056640625" lon="-5.6637751869857311248779296875">
        <ele>252.8000030517578125</ele>
        <time>2022-06-04T08:56:07.000Z</time>
      </trkpt>
      <trkpt lat="43.4251610934734344482421875" lon="-5.66381282173097133636474609375">
        <ele>252.8000030517578125</ele>
        <time>2022-06-04T08:56:09.000Z</time>
      </trkpt>
      <trkpt lat="43.42520945705473423004150390625" lon="-5.66386294551193714141845703125">
        <ele>252.8000030517578125</ele>
        <time>2022-06-04T08:56:11.000Z</time>
      </trkpt>
      <trkpt lat="43.4252648614346981048583984375" lon="-5.6639186851680278778076171875">
        <ele>252.8000030517578125</ele>
        <time>2022-06-04T08:56:13.000Z</time>
      </trkpt>
      <trkpt lat="43.42528774403035640716552734375" lon="-5.66395447589457035064697265625">
        <ele>253</ele>
        <time>2022-06-04T08:56:15.000Z</time>
      </trkpt>
      <trkpt lat="43.42533334158360958099365234375" lon="-5.66401449032127857208251953125">
        <ele>253</ele>
        <time>2022-06-04T08:56:17.000Z</time>
      </trkpt>
      <trkpt lat="43.425380699336528778076171875" lon="-5.66412932239472866058349609375">
        <ele>253</ele>
        <time>2022-06-04T08:56:19.000Z</time>
      </trkpt>
      <trkpt lat="43.42541464604437351226806640625" lon="-5.664197467267513275146484375">
        <ele>253.1999969482421875</ele>
        <time>2022-06-04T08:56:21.000Z</time>
      </trkpt>
      <trkpt lat="43.42544498853385448455810546875" lon="-5.66426460631191730499267578125">
        <ele>253.1999969482421875</ele>
        <time>2022-06-04T08:56:23.000Z</time>
      </trkpt>
      <trkpt lat="43.42547348700463771820068359375" lon="-5.66433199681341648101806640625">
        <ele>253.399993896484375</ele>
        <time>2022-06-04T08:56:25.000Z</time>
      </trkpt>
      <trkpt lat="43.42549343593418598175048828125" lon="-5.66439351998269557952880859375">
        <ele>253.8000030517578125</ele>
        <time>2022-06-04T08:56:27.000Z</time>
      </trkpt>
      <trkpt lat="43.4255136363208293914794921875" lon="-5.6644517742097377777099609375">
        <ele>254.399993896484375</ele>
        <time>2022-06-04T08:56:29.000Z</time>
      </trkpt>
      <trkpt lat="43.42552310787141323089599609375" lon="-5.66448253579437732696533203125">
        <ele>254.399993896484375</ele>
        <time>2022-06-04T08:56:30.000Z</time>
      </trkpt>
      <trkpt lat="43.4255339205265045166015625" lon="-5.664513967931270599365234375">
        <ele>254.600006103515625</ele>
        <time>2022-06-04T08:56:31.000Z</time>
      </trkpt>
      <trkpt lat="43.42554423026740550994873046875" lon="-5.664544142782688140869140625">
        <ele>255</ele>
        <time>2022-06-04T08:56:33.000Z</time>
      </trkpt>
      <trkpt lat="43.425559736788272857666015625" lon="-5.6646039895713329315185546875">
        <ele>255.399993896484375</ele>
        <time>2022-06-04T08:56:35.000Z</time>
      </trkpt>
      <trkpt lat="43.4255702979862689971923828125" lon="-5.66466492600739002227783203125">
        <ele>255.600006103515625</ele>
        <time>2022-06-04T08:56:36.000Z</time>
      </trkpt>
      <trkpt lat="43.4255702979862689971923828125" lon="-5.66466492600739002227783203125">
        <ele>255.8000030517578125</ele>
        <time>2022-06-04T08:56:37.000Z</time>
      </trkpt>
      <trkpt lat="43.42557591386139392852783203125" lon="-5.66469602286815643310546875">
        <ele>255.8000030517578125</ele>
        <time>2022-06-04T08:56:38.000Z</time>
      </trkpt>
      <trkpt lat="43.42558613978326320648193359375" lon="-5.6647575460374355316162109375">
        <ele>256</ele>
        <time>2022-06-04T08:56:39.000Z</time>
      </trkpt>
      <trkpt lat="43.4255877323448657989501953125" lon="-5.6648256070911884307861328125">
        <ele>256.20001220703125</ele>
        <time>2022-06-04T08:56:41.000Z</time>
      </trkpt>
      <trkpt lat="43.425589241087436676025390625" lon="-5.66489316523075103759765625">
        <ele>256.399993896484375</ele>
        <time>2022-06-04T08:56:43.000Z</time>
      </trkpt>
      <trkpt lat="43.425589241087436676025390625" lon="-5.66489316523075103759765625">
        <ele>256.600006103515625</ele>
        <time>2022-06-04T08:56:44.000Z</time>
      </trkpt>
      <trkpt lat="43.4255902469158172607421875" lon="-5.664953179657459259033203125">
        <ele>256.79998779296875</ele>
        <time>2022-06-04T08:56:45.000Z</time>
      </trkpt>
      <trkpt lat="43.42559720389544963836669921875" lon="-5.6649848632514476776123046875">
        <ele>257.20001220703125</ele>
        <time>2022-06-04T08:56:47.000Z</time>
      </trkpt>
      <trkpt lat="43.4256212599575519561767578125" lon="-5.6650923192501068115234375">
        <ele>258</ele>
        <time>2022-06-04T08:56:49.000Z</time>
      </trkpt>
      <trkpt lat="43.4256289713084697723388671875" lon="-5.66513163037598133087158203125">
        <ele>258.399993896484375</ele>
        <time>2022-06-04T08:56:51.000Z</time>
      </trkpt>
      <trkpt lat="43.42565596103668212890625" lon="-5.66520924679934978485107421875">
        <ele>258.79998779296875</ele>
        <time>2022-06-04T08:56:53.000Z</time>
      </trkpt>
      <trkpt lat="43.42568856664001941680908203125" lon="-5.66528753377497196197509765625">
        <ele>259</ele>
        <time>2022-06-04T08:56:54.000Z</time>
      </trkpt>
      <trkpt lat="43.42568856664001941680908203125" lon="-5.66528753377497196197509765625">
        <ele>259</ele>
        <time>2022-06-04T08:56:55.000Z</time>
      </trkpt>
      <trkpt lat="43.4257060848176479339599609375" lon="-5.66532592289149761199951171875">
        <ele>259.20001220703125</ele>
        <time>2022-06-04T08:56:56.000Z</time>
      </trkpt>
      <trkpt lat="43.42572192661464214324951171875" lon="-5.66536297090351581573486328125">
        <ele>259.399993896484375</ele>
        <time>2022-06-04T08:56:57.000Z</time>
      </trkpt>
      <trkpt lat="43.42575226910412311553955078125" lon="-5.6654405035078525543212890625">
        <ele>259.600006103515625</ele>
        <time>2022-06-04T08:56:59.000Z</time>
      </trkpt>
      <trkpt lat="43.4257875569164752960205078125" lon="-5.66555500030517578125">
        <ele>259.600006103515625</ele>
        <time>2022-06-04T08:57:01.000Z</time>
      </trkpt>
      <trkpt lat="43.4257875569164752960205078125" lon="-5.66555500030517578125">
        <ele>259.79998779296875</ele>
        <time>2022-06-04T08:57:02.000Z</time>
      </trkpt>
      <trkpt lat="43.42579744756221771240234375" lon="-5.6655913777649402618408203125">
        <ele>259.79998779296875</ele>
        <time>2022-06-04T08:57:03.000Z</time>
      </trkpt>
      <trkpt lat="43.425812534987926483154296875" lon="-5.6656664796173572540283203125">
        <ele>260</ele>
        <time>2022-06-04T08:57:05.000Z</time>
      </trkpt>
      <trkpt lat="43.425824604928493499755859375" lon="-5.6657432578504085540771484375">
        <ele>260</ele>
        <time>2022-06-04T08:57:06.000Z</time>
      </trkpt>
      <trkpt lat="43.425824604928493499755859375" lon="-5.6657432578504085540771484375">
        <ele>260.20001220703125</ele>
        <time>2022-06-04T08:57:07.000Z</time>
      </trkpt>
      <trkpt lat="43.42583122663199901580810546875" lon="-5.66581852734088897705078125">
        <ele>260.399993896484375</ele>
        <time>2022-06-04T08:57:09.000Z</time>
      </trkpt>
      <trkpt lat="43.42583860270678997039794921875" lon="-5.66589270718395709991455078125">
        <ele>260.600006103515625</ele>
        <time>2022-06-04T08:57:11.000Z</time>
      </trkpt>
      <trkpt lat="43.425847403705120086669921875" lon="-5.66595934331417083740234375">
        <ele>260.79998779296875</ele>
        <time>2022-06-04T08:57:13.000Z</time>
      </trkpt>
      <trkpt lat="43.42585419304668903350830078125" lon="-5.6660225428640842437744140625">
        <ele>261</ele>
        <time>2022-06-04T08:57:15.000Z</time>
      </trkpt>
      <trkpt lat="43.4258616529405117034912109375" lon="-5.66608968190848827362060546875">
        <ele>261</ele>
        <time>2022-06-04T08:57:16.000Z</time>
      </trkpt>
      <trkpt lat="43.4258616529405117034912109375" lon="-5.66608968190848827362060546875">
        <ele>261.399993896484375</ele>
        <time>2022-06-04T08:57:17.000Z</time>
      </trkpt>
      <trkpt lat="43.42587011866271495819091796875" lon="-5.666157491505146026611328125">
        <ele>261.79998779296875</ele>
        <time>2022-06-04T08:57:18.000Z</time>
      </trkpt>
      <trkpt lat="43.42587011866271495819091796875" lon="-5.666157491505146026611328125">
        <ele>261.79998779296875</ele>
        <time>2022-06-04T08:57:19.000Z</time>
      </trkpt>
      <trkpt lat="43.425870873034000396728515625" lon="-5.6661911867558956146240234375">
        <ele>262.399993896484375</ele>
        <time>2022-06-04T08:57:20.000Z</time>
      </trkpt>
      <trkpt lat="43.42587112449109554290771484375" lon="-5.6662240438163280487060546875">
        <ele>262.600006103515625</ele>
        <time>2022-06-04T08:57:21.000Z</time>
      </trkpt>
      <trkpt lat="43.4258720465004444122314453125" lon="-5.6662964634597301483154296875">
        <ele>263</ele>
        <time>2022-06-04T08:57:23.000Z</time>
      </trkpt>
      <trkpt lat="43.4258770756423473358154296875" lon="-5.6663690507411956787109375">
        <ele>263.399993896484375</ele>
        <time>2022-06-04T08:57:25.000Z</time>
      </trkpt>
      <trkpt lat="43.42587615363299846649169921875" lon="-5.66640601493418216705322265625">
        <ele>263.399993896484375</ele>
        <time>2022-06-04T08:57:26.000Z</time>
      </trkpt>
      <trkpt lat="43.425873219966888427734375" lon="-5.66644105128943920135498046875">
        <ele>263.79998779296875</ele>
        <time>2022-06-04T08:57:27.000Z</time>
      </trkpt>
      <trkpt lat="43.42586978338658809661865234375" lon="-5.666506849229335784912109375">
        <ele>264</ele>
        <time>2022-06-04T08:57:29.000Z</time>
      </trkpt>
      <trkpt lat="43.4258643351495265960693359375" lon="-5.6665742397308349609375">
        <ele>264</ele>
        <time>2022-06-04T08:57:31.000Z</time>
      </trkpt>
      <trkpt lat="43.42586307786405086517333984375" lon="-5.66661019809544086456298828125">
        <ele>264.399993896484375</ele>
        <time>2022-06-04T08:57:32.000Z</time>
      </trkpt>
      <trkpt lat="43.42586358077824115753173828125" lon="-5.6666458211839199066162109375">
        <ele>264.399993896484375</ele>
        <time>2022-06-04T08:57:33.000Z</time>
      </trkpt>
      <trkpt lat="43.425866179168224334716796875" lon="-5.666726790368556976318359375">
        <ele>264.600006103515625</ele>
        <time>2022-06-04T08:57:34.000Z</time>
      </trkpt>
      <trkpt lat="43.425866179168224334716796875" lon="-5.666726790368556976318359375">
        <ele>264.79998779296875</ele>
        <time>2022-06-04T08:57:35.000Z</time>
      </trkpt>
      <trkpt lat="43.425861485302448272705078125" lon="-5.66681136377155780792236328125">
        <ele>265</ele>
        <time>2022-06-04T08:57:37.000Z</time>
      </trkpt>
      <trkpt lat="43.4258546121418476104736328125" lon="-5.666888393461704254150390625">
        <ele>265</ele>
        <time>2022-06-04T08:57:39.000Z</time>
      </trkpt>
      <trkpt lat="43.4258423745632171630859375" lon="-5.6669660098850727081298828125">
        <ele>265.20001220703125</ele>
        <time>2022-06-04T08:57:40.000Z</time>
      </trkpt>
      <trkpt lat="43.4258423745632171630859375" lon="-5.6669660098850727081298828125">
        <ele>265.20001220703125</ele>
        <time>2022-06-04T08:57:41.000Z</time>
      </trkpt>
      <trkpt lat="43.425827957689762115478515625" lon="-5.66703231073915958404541015625">
        <ele>265.399993896484375</ele>
        <time>2022-06-04T08:57:43.000Z</time>
      </trkpt>
      <trkpt lat="43.42581261880695819854736328125" lon="-5.66708947531878948211669921875">
        <ele>265.600006103515625</ele>
        <time>2022-06-04T08:57:45.000Z</time>
      </trkpt>
      <trkpt lat="43.4257686138153076171875" lon="-5.667166002094745635986328125">
        <ele>266.20001220703125</ele>
        <time>2022-06-04T08:57:47.000Z</time>
      </trkpt>
      <trkpt lat="43.42575176618993282318115234375" lon="-5.66718771122395992279052734375">
        <ele>266.399993896484375</ele>
        <time>2022-06-04T08:57:48.000Z</time>
      </trkpt>
      <trkpt lat="43.42575176618993282318115234375" lon="-5.66718771122395992279052734375">
        <ele>266.399993896484375</ele>
        <time>2022-06-04T08:57:49.000Z</time>
      </trkpt>
      <trkpt lat="43.42573148198425769805908203125" lon="-5.6672057323157787322998046875">
        <ele>266.600006103515625</ele>
        <time>2022-06-04T08:57:50.000Z</time>
      </trkpt>
      <trkpt lat="43.42571220360696315765380859375" lon="-5.66722073592245578765869140625">
        <ele>266.79998779296875</ele>
        <time>2022-06-04T08:57:51.000Z</time>
      </trkpt>
      <trkpt lat="43.425675742328166961669921875" lon="-5.667253844439983367919921875">
        <ele>267</ele>
        <time>2022-06-04T08:57:53.000Z</time>
      </trkpt>
      <trkpt lat="43.425638861954212188720703125" lon="-5.66728393547236919403076171875">
        <ele>267.399993896484375</ele>
        <time>2022-06-04T08:57:55.000Z</time>
      </trkpt>
      <trkpt lat="43.4256018139421939849853515625" lon="-5.667313523590564727783203125">
        <ele>267.79998779296875</ele>
        <time>2022-06-04T08:57:57.000Z</time>
      </trkpt>
      <trkpt lat="43.425560407340526580810546875" lon="-5.66733774729073047637939453125">
        <ele>268.20001220703125</ele>
        <time>2022-06-04T08:57:59.000Z</time>
      </trkpt>
      <trkpt lat="43.42549863271415233612060546875" lon="-5.6673509068787097930908203125">
        <ele>268.399993896484375</ele>
        <time>2022-06-04T08:58:01.000Z</time>
      </trkpt>
      <trkpt lat="43.425420932471752166748046875" lon="-5.6673552654683589935302734375">
        <ele>268.79998779296875</ele>
        <time>2022-06-04T08:58:03.000Z</time>
      </trkpt>
      <trkpt lat="43.425383381545543670654296875" lon="-5.66735409200191497802734375">
        <ele>268.79998779296875</ele>
        <time>2022-06-04T08:58:04.000Z</time>
      </trkpt>
      <trkpt lat="43.425344489514827728271484375" lon="-5.667350403964519500732421875">
        <ele>269</ele>
        <time>2022-06-04T08:58:05.000Z</time>
      </trkpt>
      <trkpt lat="43.4252591617405414581298828125" lon="-5.66733791492879390716552734375">
        <ele>269</ele>
        <time>2022-06-04T08:58:07.000Z</time>
      </trkpt>
      <trkpt lat="43.42516603879630565643310546875" lon="-5.66732601262629032135009765625">
        <ele>269</ele>
        <time>2022-06-04T08:58:09.000Z</time>
      </trkpt>
      <trkpt lat="43.42511390335857868194580078125" lon="-5.66731628961861133575439453125">
        <ele>269</ele>
        <time>2022-06-04T08:58:10.000Z</time>
      </trkpt>
      <trkpt lat="43.42505388893187046051025390625" lon="-5.66730204038321971893310546875">
        <ele>269</ele>
        <time>2022-06-04T08:58:11.000Z</time>
      </trkpt>
      <trkpt lat="43.424993455410003662109375" lon="-5.6672851927578449249267578125">
        <ele>269</ele>
        <time>2022-06-04T08:58:12.000Z</time>
      </trkpt>
      <trkpt lat="43.424933440983295440673828125" lon="-5.667277313768863677978515625">
        <ele>268.79998779296875</ele>
        <time>2022-06-04T08:58:13.000Z</time>
      </trkpt>
      <trkpt lat="43.42481835745275020599365234375" lon="-5.66733523271977901458740234375">
        <ele>268.79998779296875</ele>
        <time>2022-06-04T08:58:15.000Z</time>
      </trkpt>
      <trkpt lat="43.42475012876093387603759765625" lon="-5.66743179224431514739990234375">
        <ele>268.20001220703125</ele>
        <time>2022-06-04T08:58:17.000Z</time>
      </trkpt>
      <trkpt lat="43.42470436356961727142333984375" lon="-5.66751301288604736328125">
        <ele>268</ele>
        <time>2022-06-04T08:58:18.000Z</time>
      </trkpt>
      <trkpt lat="43.42470436356961727142333984375" lon="-5.66751301288604736328125">
        <ele>267.79998779296875</ele>
        <time>2022-06-04T08:58:19.000Z</time>
      </trkpt>
      <trkpt lat="43.424671590328216552734375" lon="-5.66759574227035045623779296875">
        <ele>267.600006103515625</ele>
        <time>2022-06-04T08:58:21.000Z</time>
      </trkpt>
      <trkpt lat="43.4246761165559291839599609375" lon="-5.667638070881366729736328125">
        <ele>267.399993896484375</ele>
        <time>2022-06-04T08:58:22.000Z</time>
      </trkpt>
      <trkpt lat="43.42468835413455963134765625" lon="-5.66767117939889430999755859375">
        <ele>267.399993896484375</ele>
        <time>2022-06-04T08:58:23.000Z</time>
      </trkpt>
      <trkpt lat="43.424739651381969451904296875" lon="-5.66767537035048007965087890625">
        <ele>266.79998779296875</ele>
        <time>2022-06-04T08:58:25.000Z</time>
      </trkpt>
      <trkpt lat="43.4247669763863086700439453125" lon="-5.6676754541695117950439453125">
        <ele>266.79998779296875</ele>
        <time>2022-06-04T08:58:26.000Z</time>
      </trkpt>
      <trkpt lat="43.42479254119098186492919921875" lon="-5.667670257389545440673828125">
        <ele>266.79998779296875</ele>
        <time>2022-06-04T08:58:27.000Z</time>
      </trkpt>
      <trkpt lat="43.42484551481902599334716796875" lon="-5.66768626682460308074951171875">
        <ele>266.600006103515625</ele>
        <time>2022-06-04T08:58:28.000Z</time>
      </trkpt>
      <trkpt lat="43.42484551481902599334716796875" lon="-5.66768626682460308074951171875">
        <ele>266.600006103515625</ele>
        <time>2022-06-04T08:58:29.000Z</time>
      </trkpt>
      <trkpt lat="43.42490787617862224578857421875" lon="-5.6677183695137500762939453125">
        <ele>266.600006103515625</ele>
        <time>2022-06-04T08:58:30.000Z</time>
      </trkpt>
      <trkpt lat="43.42490787617862224578857421875" lon="-5.6677183695137500762939453125">
        <ele>266.600006103515625</ele>
        <time>2022-06-04T08:58:31.000Z</time>
      </trkpt>
      <trkpt lat="43.4249634481966495513916015625" lon="-5.6677686609327793121337890625">
        <ele>266.600006103515625</ele>
        <time>2022-06-04T08:58:33.000Z</time>
      </trkpt>
      <trkpt lat="43.4250040166079998016357421875" lon="-5.66782423295080661773681640625">
        <ele>266.600006103515625</ele>
        <time>2022-06-04T08:58:35.000Z</time>
      </trkpt>
      <trkpt lat="43.425027988851070404052734375" lon="-5.6678826548159122467041015625">
        <ele>266.79998779296875</ele>
        <time>2022-06-04T08:58:36.000Z</time>
      </trkpt>
      <trkpt lat="43.425027988851070404052734375" lon="-5.6678826548159122467041015625">
        <ele>266.79998779296875</ele>
        <time>2022-06-04T08:58:37.000Z</time>
      </trkpt>
      <trkpt lat="43.42504785396158695220947265625" lon="-5.66793881356716156005859375">
        <ele>267.20001220703125</ele>
        <time>2022-06-04T08:58:39.000Z</time>
      </trkpt>
      <trkpt lat="43.42506579123437404632568359375" lon="-5.6680016778409481048583984375">
        <ele>267.20001220703125</ele>
        <time>2022-06-04T08:58:41.000Z</time>
      </trkpt>
      <trkpt lat="43.4250757656991481781005859375" lon="-5.66803042776882648468017578125">
        <ele>267.399993896484375</ele>
        <time>2022-06-04T08:58:42.000Z</time>
      </trkpt>
      <trkpt lat="43.42508557252585887908935546875" lon="-5.66806043498218059539794921875">
        <ele>267.399993896484375</ele>
        <time>2022-06-04T08:58:43.000Z</time>
      </trkpt>
      <trkpt lat="43.42510770075023174285888671875" lon="-5.66811692900955677032470703125">
        <ele>268</ele>
        <time>2022-06-04T08:58:45.000Z</time>
      </trkpt>
      <trkpt lat="43.425126560032367706298828125" lon="-5.6681609340012073516845703125">
        <ele>268.600006103515625</ele>
        <time>2022-06-04T08:58:47.000Z</time>
      </trkpt>
      <trkpt lat="43.42513628304004669189453125" lon="-5.66818130202591419219970703125">
        <ele>268.79998779296875</ele>
        <time>2022-06-04T08:58:48.000Z</time>
      </trkpt>
      <trkpt lat="43.42514608986675739288330078125" lon="-5.66820208914577960968017578125">
        <ele>269.20001220703125</ele>
        <time>2022-06-04T08:58:49.000Z</time>
      </trkpt>
      <trkpt lat="43.4251745045185089111328125" lon="-5.6682538054883480072021484375">
        <ele>269.399993896484375</ele>
        <time>2022-06-04T08:58:51.000Z</time>
      </trkpt>
      <trkpt lat="43.42519520781934261322021484375" lon="-5.6683027558028697967529296875">
        <ele>269.79998779296875</ele>
        <time>2022-06-04T08:58:53.000Z</time>
      </trkpt>
      <trkpt lat="43.42521616257727146148681640625" lon="-5.66834826953709125518798828125">
        <ele>270</ele>
        <time>2022-06-04T08:58:54.000Z</time>
      </trkpt>
      <trkpt lat="43.42521616257727146148681640625" lon="-5.66834826953709125518798828125">
        <ele>270.399993896484375</ele>
        <time>2022-06-04T08:58:55.000Z</time>
      </trkpt>
      <trkpt lat="43.42524030245840549468994140625" lon="-5.66840015351772308349609375">
        <ele>271</ele>
        <time>2022-06-04T08:58:57.000Z</time>
      </trkpt>
      <trkpt lat="43.42526092194020748138427734375" lon="-5.6684499420225620269775390625">
        <ele>271.399993896484375</ele>
        <time>2022-06-04T08:58:59.000Z</time>
      </trkpt>
      <trkpt lat="43.42528522945940494537353515625" lon="-5.66850350238382816314697265625">
        <ele>271.79998779296875</ele>
        <time>2022-06-04T08:59:01.000Z</time>
      </trkpt>
      <trkpt lat="43.425296209752559661865234375" lon="-5.668529905378818511962890625">
        <ele>272</ele>
        <time>2022-06-04T08:59:02.000Z</time>
      </trkpt>
      <trkpt lat="43.42530685476958751678466796875" lon="-5.6685542128980159759521484375">
        <ele>272</ele>
        <time>2022-06-04T08:59:03.000Z</time>
      </trkpt>
      <trkpt lat="43.4253275580704212188720703125" lon="-5.6686078570783138275146484375">
        <ele>272.600006103515625</ele>
        <time>2022-06-04T08:59:05.000Z</time>
      </trkpt>
      <trkpt lat="43.4253503568470478057861328125" lon="-5.6686635129153728485107421875">
        <ele>273</ele>
        <time>2022-06-04T08:59:07.000Z</time>
      </trkpt>
      <trkpt lat="43.425368629395961761474609375" lon="-5.66871841438114643096923828125">
        <ele>273.20001220703125</ele>
        <time>2022-06-04T08:59:09.000Z</time>
      </trkpt>
      <trkpt lat="43.42537768185138702392578125" lon="-5.66874557174742221832275390625">
        <ele>273.399993896484375</ele>
        <time>2022-06-04T08:59:10.000Z</time>
      </trkpt>
      <trkpt lat="43.42538765631616115570068359375" lon="-5.668770968914031982421875">
        <ele>273.600006103515625</ele>
        <time>2022-06-04T08:59:11.000Z</time>
      </trkpt>
      <trkpt lat="43.425410874187946319580078125" lon="-5.66882151179015636444091796875">
        <ele>273.600006103515625</ele>
        <time>2022-06-04T08:59:12.000Z</time>
      </trkpt>
      <trkpt lat="43.425410874187946319580078125" lon="-5.66882151179015636444091796875">
        <ele>273.79998779296875</ele>
        <time>2022-06-04T08:59:13.000Z</time>
      </trkpt>
      <trkpt lat="43.42543140985071659088134765625" lon="-5.66887347958981990814208984375">
        <ele>274</ele>
        <time>2022-06-04T08:59:15.000Z</time>
      </trkpt>
      <trkpt lat="43.42544951476156711578369140625" lon="-5.6689256988465785980224609375">
        <ele>274.20001220703125</ele>
        <time>2022-06-04T08:59:17.000Z</time>
      </trkpt>
      <trkpt lat="43.425470888614654541015625" lon="-5.66897825337946414947509765625">
        <ele>274.399993896484375</ele>
        <time>2022-06-04T08:59:19.000Z</time>
      </trkpt>
      <trkpt lat="43.4254884906113147735595703125" lon="-5.66903181374073028564453125">
        <ele>275</ele>
        <time>2022-06-04T08:59:21.000Z</time>
      </trkpt>
      <trkpt lat="43.42550911009311676025390625" lon="-5.6690862961113452911376953125">
        <ele>275.399993896484375</ele>
        <time>2022-06-04T08:59:23.000Z</time>
      </trkpt>
      <trkpt lat="43.42552947811782360076904296875" lon="-5.66913231275975704193115234375">
        <ele>275.79998779296875</ele>
        <time>2022-06-04T08:59:25.000Z</time>
      </trkpt>
      <trkpt lat="43.425545655190944671630859375" lon="-5.66917723976075649261474609375">
        <ele>276</ele>
        <time>2022-06-04T08:59:27.000Z</time>
      </trkpt>
      <trkpt lat="43.42555738985538482666015625" lon="-5.66922283731400966644287109375">
        <ele>276.20001220703125</ele>
        <time>2022-06-04T08:59:29.000Z</time>
      </trkpt>
      <trkpt lat="43.42556434683501720428466796875" lon="-5.6692660041153430938720703125">
        <ele>276.399993896484375</ele>
        <time>2022-06-04T08:59:31.000Z</time>
      </trkpt>
      <trkpt lat="43.42556543648242950439453125" lon="-5.6693089194595813751220703125">
        <ele>276.600006103515625</ele>
        <time>2022-06-04T08:59:33.000Z</time>
      </trkpt>
      <trkpt lat="43.42556786723434925079345703125" lon="-5.66935057751834392547607421875">
        <ele>277.20001220703125</ele>
        <time>2022-06-04T08:59:35.000Z</time>
      </trkpt>
      <trkpt lat="43.4255733154714107513427734375" lon="-5.66939097829163074493408203125">
        <ele>277.79998779296875</ele>
        <time>2022-06-04T08:59:37.000Z</time>
      </trkpt>
      <trkpt lat="43.425573147833347320556640625" lon="-5.6694118492305278778076171875">
        <ele>278.20001220703125</ele>
        <time>2022-06-04T08:59:38.000Z</time>
      </trkpt>
      <trkpt lat="43.42557071708142757415771484375" lon="-5.66943146288394927978515625">
        <ele>278.600006103515625</ele>
        <time>2022-06-04T08:59:39.000Z</time>
      </trkpt>
      <trkpt lat="43.42556887306272983551025390625" lon="-5.6694758869707584381103515625">
        <ele>279</ele>
        <time>2022-06-04T08:59:41.000Z</time>
      </trkpt>
      <trkpt lat="43.425563760101795196533203125" lon="-5.66952223889529705047607421875">
        <ele>279.399993896484375</ele>
        <time>2022-06-04T08:59:43.000Z</time>
      </trkpt>
      <trkpt lat="43.4255605749785900115966796875" lon="-5.66954755224287509918212890625">
        <ele>279.600006103515625</ele>
        <time>2022-06-04T08:59:44.000Z</time>
      </trkpt>
      <trkpt lat="43.42555814422667026519775390625" lon="-5.66957085393369197845458984375">
        <ele>279.79998779296875</ele>
        <time>2022-06-04T08:59:45.000Z</time>
      </trkpt>
      <trkpt lat="43.425559736788272857666015625" lon="-5.66961561329662799835205078125">
        <ele>280.399993896484375</ele>
        <time>2022-06-04T08:59:47.000Z</time>
      </trkpt>
      <trkpt lat="43.425559736788272857666015625" lon="-5.6696589477360248565673828125">
        <ele>280.79998779296875</ele>
        <time>2022-06-04T08:59:49.000Z</time>
      </trkpt>
      <trkpt lat="43.42556049115955829620361328125" lon="-5.66968099214136600494384765625">
        <ele>281</ele>
        <time>2022-06-04T08:59:50.000Z</time>
      </trkpt>
      <trkpt lat="43.4255619160830974578857421875" lon="-5.6696995161473751068115234375">
        <ele>281</ele>
        <time>2022-06-04T08:59:51.000Z</time>
      </trkpt>
      <trkpt lat="43.42556417919695377349853515625" lon="-5.6697384081780910491943359375">
        <ele>281.600006103515625</ele>
        <time>2022-06-04T08:59:53.000Z</time>
      </trkpt>
      <trkpt lat="43.425575830042362213134765625" lon="-5.669774115085601806640625">
        <ele>282</ele>
        <time>2022-06-04T08:59:55.000Z</time>
      </trkpt>
      <trkpt lat="43.42558345757424831390380859375" lon="-5.66980889998376369476318359375">
        <ele>282.399993896484375</ele>
        <time>2022-06-04T08:59:57.000Z</time>
      </trkpt>
      <trkpt lat="43.42559485696256160736083984375" lon="-5.66983907483518123626708984375">
        <ele>282.79998779296875</ele>
        <time>2022-06-04T08:59:59.000Z</time>
      </trkpt>
      <trkpt lat="43.42561229132115840911865234375" lon="-5.6698718480765819549560546875">
        <ele>283.20001220703125</ele>
        <time>2022-06-04T09:00:01.000Z</time>
      </trkpt>
      <trkpt lat="43.42562687583267688751220703125" lon="-5.6699053756892681121826171875">
        <ele>283.79998779296875</ele>
        <time>2022-06-04T09:00:03.000Z</time>
      </trkpt>
      <trkpt lat="43.42564615420997142791748046875" lon="-5.66995315253734588623046875">
        <ele>284.399993896484375</ele>
        <time>2022-06-04T09:00:05.000Z</time>
      </trkpt>
      <trkpt lat="43.425666354596614837646484375" lon="-5.670012496411800384521484375">
        <ele>284.79998779296875</ele>
        <time>2022-06-04T09:00:07.000Z</time>
      </trkpt>
      <trkpt lat="43.4256733953952789306640625" lon="-5.6700441800057888031005859375">
        <ele>284.79998779296875</ele>
        <time>2022-06-04T09:00:08.000Z</time>
      </trkpt>
      <trkpt lat="43.42567716725170612335205078125" lon="-5.6700704991817474365234375">
        <ele>285</ele>
        <time>2022-06-04T09:00:09.000Z</time>
      </trkpt>
      <trkpt lat="43.42568387277424335479736328125" lon="-5.67012405954301357269287109375">
        <ele>285.399993896484375</ele>
        <time>2022-06-04T09:00:11.000Z</time>
      </trkpt>
      <trkpt lat="43.4256923384964466094970703125" lon="-5.67017451860010623931884765625">
        <ele>285.20001220703125</ele>
        <time>2022-06-04T09:00:13.000Z</time>
      </trkpt>
      <trkpt lat="43.42569912783801555633544921875" lon="-5.67022246308624744415283203125">
        <ele>285.399993896484375</ele>
        <time>2022-06-04T09:00:15.000Z</time>
      </trkpt>
      <trkpt lat="43.4257047437131404876708984375" lon="-5.67026504315435886383056640625">
        <ele>285.399993896484375</ele>
        <time>2022-06-04T09:00:17.000Z</time>
      </trkpt>
      <trkpt lat="43.4257137961685657501220703125" lon="-5.670308880507946014404296875">
        <ele>285.79998779296875</ele>
        <time>2022-06-04T09:00:19.000Z</time>
      </trkpt>
      <trkpt lat="43.4257178194820880889892578125" lon="-5.67035003565251827239990234375">
        <ele>286.20001220703125</ele>
        <time>2022-06-04T09:00:21.000Z</time>
      </trkpt>
      <trkpt lat="43.4257221780717372894287109375" lon="-5.670376606285572052001953125">
        <ele>286.399993896484375</ele>
        <time>2022-06-04T09:00:22.000Z</time>
      </trkpt>
      <trkpt lat="43.425722010433673858642578125" lon="-5.670398734509944915771484375">
        <ele>286.79998779296875</ele>
        <time>2022-06-04T09:00:23.000Z</time>
      </trkpt>
      <trkpt lat="43.42571538873016834259033203125" lon="-5.6704391352832317352294921875">
        <ele>287.20001220703125</ele>
        <time>2022-06-04T09:00:25.000Z</time>
      </trkpt>
      <trkpt lat="43.42571170069277286529541015625" lon="-5.6704615987837314605712890625">
        <ele>287.399993896484375</ele>
        <time>2022-06-04T09:00:26.000Z</time>
      </trkpt>
      <trkpt lat="43.42570432461798191070556640625" lon="-5.67048967815935611724853515625">
        <ele>287.79998779296875</ele>
        <time>2022-06-04T09:00:27.000Z</time>
      </trkpt>
      <trkpt lat="43.42569778673350811004638671875" lon="-5.6705410592257976531982421875">
        <ele>288.399993896484375</ele>
        <time>2022-06-04T09:00:29.000Z</time>
      </trkpt>
      <trkpt lat="43.42570080421864986419677734375" lon="-5.6705993972718715667724609375">
        <ele>288.600006103515625</ele>
        <time>2022-06-04T09:00:30.000Z</time>
      </trkpt>
      <trkpt lat="43.42570080421864986419677734375" lon="-5.6705993972718715667724609375">
        <ele>288.79998779296875</ele>
        <time>2022-06-04T09:00:31.000Z</time>
      </trkpt>
      <trkpt lat="43.42570549808442592620849609375" lon="-5.6706557236611843109130859375">
        <ele>289.20001220703125</ele>
        <time>2022-06-04T09:00:33.000Z</time>
      </trkpt>
      <trkpt lat="43.42570952139794826507568359375" lon="-5.67067458294332027435302734375">
        <ele>289.399993896484375</ele>
        <time>2022-06-04T09:00:35.000Z</time>
      </trkpt>
      <trkpt lat="43.42571103014051914215087890625" lon="-5.670680366456508636474609375">
        <ele>289.399993896484375</ele>
        <time>2022-06-04T09:00:36.000Z</time>
      </trkpt>
      <trkpt lat="43.42570750974118709564208984375" lon="-5.670810453593730926513671875">
        <ele>289.600006103515625</ele>
        <time>2022-06-04T09:01:17.000Z</time>
      </trkpt>
      <trkpt lat="43.42570893466472625732421875" lon="-5.6708501838147640228271484375">
        <ele>289.79998779296875</ele>
        <time>2022-06-04T09:01:19.000Z</time>
      </trkpt>
      <trkpt lat="43.425709269940853118896484375" lon="-5.6708927638828754425048828125">
        <ele>289.79998779296875</ele>
        <time>2022-06-04T09:01:21.000Z</time>
      </trkpt>
      <trkpt lat="43.42570918612182140350341796875" lon="-5.6709400378167629241943359375">
        <ele>289.600006103515625</ele>
        <time>2022-06-04T09:01:22.000Z</time>
      </trkpt>
      <trkpt lat="43.42570918612182140350341796875" lon="-5.6709400378167629241943359375">
        <ele>289.79998779296875</ele>
        <time>2022-06-04T09:01:23.000Z</time>
      </trkpt>
      <trkpt lat="43.425715975463390350341796875" lon="-5.6709906645119190216064453125">
        <ele>290</ele>
        <time>2022-06-04T09:01:24.000Z</time>
      </trkpt>
      <trkpt lat="43.425715975463390350341796875" lon="-5.6709906645119190216064453125">
        <ele>290.20001220703125</ele>
        <time>2022-06-04T09:01:25.000Z</time>
      </trkpt>
      <trkpt lat="43.4257268719375133514404296875" lon="-5.67104606889188289642333984375">
        <ele>290.399993896484375</ele>
        <time>2022-06-04T09:01:27.000Z</time>
      </trkpt>
      <trkpt lat="43.42574154026806354522705078125" lon="-5.6710977852344512939453125">
        <ele>290.600006103515625</ele>
        <time>2022-06-04T09:01:28.000Z</time>
      </trkpt>
      <trkpt lat="43.42574154026806354522705078125" lon="-5.6710977852344512939453125">
        <ele>291</ele>
        <time>2022-06-04T09:01:29.000Z</time>
      </trkpt>
      <trkpt lat="43.42575092799961566925048828125" lon="-5.67114648409187793731689453125">
        <ele>291.399993896484375</ele>
        <time>2022-06-04T09:01:31.000Z</time>
      </trkpt>
      <trkpt lat="43.4257627464830875396728515625" lon="-5.6711951829493045806884765625">
        <ele>291.79998779296875</ele>
        <time>2022-06-04T09:01:33.000Z</time>
      </trkpt>
      <trkpt lat="43.4257672727108001708984375" lon="-5.6712176464498043060302734375">
        <ele>292</ele>
        <time>2022-06-04T09:01:34.000Z</time>
      </trkpt>
      <trkpt lat="43.425774313509464263916015625" lon="-5.6712426245212554931640625">
        <ele>292.20001220703125</ele>
        <time>2022-06-04T09:01:35.000Z</time>
      </trkpt>
      <trkpt lat="43.42578412033617496490478515625" lon="-5.67128629423677921295166015625">
        <ele>292.600006103515625</ele>
        <time>2022-06-04T09:01:37.000Z</time>
      </trkpt>
      <trkpt lat="43.425790406763553619384765625" lon="-5.67133222706615924835205078125">
        <ele>292.79998779296875</ele>
        <time>2022-06-04T09:01:39.000Z</time>
      </trkpt>
      <trkpt lat="43.425789065659046173095703125" lon="-5.671373046934604644775390625">
        <ele>293</ele>
        <time>2022-06-04T09:01:40.000Z</time>
      </trkpt>
      <trkpt lat="43.425789065659046173095703125" lon="-5.671373046934604644775390625">
        <ele>293.20001220703125</ele>
        <time>2022-06-04T09:01:41.000Z</time>
      </trkpt>
      <trkpt lat="43.42578562907874584197998046875" lon="-5.671415627002716064453125">
        <ele>293.600006103515625</ele>
        <time>2022-06-04T09:01:43.000Z</time>
      </trkpt>
      <trkpt lat="43.425781689584255218505859375" lon="-5.671438090503215789794921875">
        <ele>294</ele>
        <time>2022-06-04T09:01:44.000Z</time>
      </trkpt>
      <trkpt lat="43.42578135430812835693359375" lon="-5.6714593805372714996337890625">
        <ele>294.20001220703125</ele>
        <time>2022-06-04T09:01:45.000Z</time>
      </trkpt>
      <trkpt lat="43.4257780015468597412109375" lon="-5.67151897586882114410400390625">
        <ele>294.79998779296875</ele>
        <time>2022-06-04T09:01:47.000Z</time>
      </trkpt>
      <trkpt lat="43.42577439732849597930908203125" lon="-5.6715385057032108306884765625">
        <ele>295</ele>
        <time>2022-06-04T09:01:48.000Z</time>
      </trkpt>
      <trkpt lat="43.42577439732849597930908203125" lon="-5.6715385057032108306884765625">
        <ele>295.20001220703125</ele>
        <time>2022-06-04T09:01:49.000Z</time>
      </trkpt>
      <trkpt lat="43.42577054165303707122802734375" lon="-5.67157228477299213409423828125">
        <ele>295.600006103515625</ele>
        <time>2022-06-04T09:01:51.000Z</time>
      </trkpt>
      <trkpt lat="43.4257597289979457855224609375" lon="-5.67161134444177150726318359375">
        <ele>296.20001220703125</ele>
        <time>2022-06-04T09:01:53.000Z</time>
      </trkpt>
      <trkpt lat="43.4257463179528713226318359375" lon="-5.671651996672153472900390625">
        <ele>296.79998779296875</ele>
        <time>2022-06-04T09:01:55.000Z</time>
      </trkpt>
      <trkpt lat="43.425738774240016937255859375" lon="-5.6716798245906829833984375">
        <ele>297.600006103515625</ele>
        <time>2022-06-04T09:01:57.000Z</time>
      </trkpt>
      <trkpt lat="43.4257241897284984588623046875" lon="-5.67171125672757625579833984375">
        <ele>298.20001220703125</ele>
        <time>2022-06-04T09:01:59.000Z</time>
      </trkpt>
      <trkpt lat="43.4257168136537075042724609375" lon="-5.671727098524570465087890625">
        <ele>298.79998779296875</ele>
        <time>2022-06-04T09:02:00.000Z</time>
      </trkpt>
      <trkpt lat="43.425709269940853118896484375" lon="-5.67174880765378475189208984375">
        <ele>299.20001220703125</ele>
        <time>2022-06-04T09:02:01.000Z</time>
      </trkpt>
      <trkpt lat="43.42570298351347446441650390625" lon="-5.67176473326981067657470703125">
        <ele>299.600006103515625</ele>
        <time>2022-06-04T09:02:02.000Z</time>
      </trkpt>
      <trkpt lat="43.4256973676383495330810546875" lon="-5.6717817485332489013671875">
        <ele>300</ele>
        <time>2022-06-04T09:02:03.000Z</time>
      </trkpt>
      <trkpt lat="43.425685800611972808837890625" lon="-5.6718174554407596588134765625">
        <ele>300.399993896484375</ele>
        <time>2022-06-04T09:02:05.000Z</time>
      </trkpt>
      <trkpt lat="43.425676412880420684814453125" lon="-5.671853162348270416259765625">
        <ele>301</ele>
        <time>2022-06-04T09:02:07.000Z</time>
      </trkpt>
      <trkpt lat="43.42567482031881809234619140625" lon="-5.6718700937926769256591796875">
        <ele>301</ele>
        <time>2022-06-04T09:02:08.000Z</time>
      </trkpt>
      <trkpt lat="43.4256735630333423614501953125" lon="-5.67188962362706661224365234375">
        <ele>301.20001220703125</ele>
        <time>2022-06-04T09:02:09.000Z</time>
      </trkpt>
      <trkpt lat="43.42566895298659801483154296875" lon="-5.6719277612864971160888671875">
        <ele>301.399993896484375</ele>
        <time>2022-06-04T09:02:11.000Z</time>
      </trkpt>
      <trkpt lat="43.42565638013184070587158203125" lon="-5.671961121261119842529296875">
        <ele>301.79998779296875</ele>
        <time>2022-06-04T09:02:13.000Z</time>
      </trkpt>
      <trkpt lat="43.42565386556088924407958984375" lon="-5.67197595722973346710205078125">
        <ele>301.79998779296875</ele>
        <time>2022-06-04T09:02:14.000Z</time>
      </trkpt>
      <trkpt lat="43.42564749531447887420654296875" lon="-5.6719881109893321990966796875">
        <ele>302</ele>
        <time>2022-06-04T09:02:15.000Z</time>
      </trkpt>
      <trkpt lat="43.42564179562032222747802734375" lon="-5.67200361751019954681396484375">
        <ele>302</ele>
        <time>2022-06-04T09:02:16.000Z</time>
      </trkpt>
      <trkpt lat="43.425638191401958465576171875" lon="-5.67202272824943065643310546875">
        <ele>302.20001220703125</ele>
        <time>2022-06-04T09:02:17.000Z</time>
      </trkpt>
      <trkpt lat="43.42562788166105747222900390625" lon="-5.67206178791821002960205078125">
        <ele>302.600006103515625</ele>
        <time>2022-06-04T09:02:19.000Z</time>
      </trkpt>
      <trkpt lat="43.42562402598559856414794921875" lon="-5.67208207212388515472412109375">
        <ele>302.79998779296875</ele>
        <time>2022-06-04T09:02:20.000Z</time>
      </trkpt>
      <trkpt lat="43.4256175719201564788818359375" lon="-5.672102607786655426025390625">
        <ele>303</ele>
        <time>2022-06-04T09:02:21.000Z</time>
      </trkpt>
      <trkpt lat="43.42561162076890468597412109375" lon="-5.67212398163974285125732421875">
        <ele>303.20001220703125</ele>
        <time>2022-06-04T09:02:22.000Z</time>
      </trkpt>
      <trkpt lat="43.42560826800763607025146484375" lon="-5.6721406616270542144775390625">
        <ele>303.20001220703125</ele>
        <time>2022-06-04T09:02:23.000Z</time>
      </trkpt>
      <trkpt lat="43.4256024844944477081298828125" lon="-5.67218315787613391876220703125">
        <ele>303.79998779296875</ele>
        <time>2022-06-04T09:02:25.000Z</time>
      </trkpt>
      <trkpt lat="43.42559200711548328399658203125" lon="-5.6722231395542621612548828125">
        <ele>304</ele>
        <time>2022-06-04T09:02:27.000Z</time>
      </trkpt>
      <trkpt lat="43.42558421194553375244140625" lon="-5.67224350757896900177001953125">
        <ele>304.20001220703125</ele>
        <time>2022-06-04T09:02:28.000Z</time>
      </trkpt>
      <trkpt lat="43.4255753271281719207763671875" lon="-5.672264881432056427001953125">
        <ele>304.399993896484375</ele>
        <time>2022-06-04T09:02:29.000Z</time>
      </trkpt>
      <trkpt lat="43.4255669452250003814697265625" lon="-5.6722787953913211822509765625">
        <ele>304.79998779296875</ele>
        <time>2022-06-04T09:02:30.000Z</time>
      </trkpt>
      <trkpt lat="43.4255666099488735198974609375" lon="-5.672299079596996307373046875">
        <ele>305</ele>
        <time>2022-06-04T09:02:31.000Z</time>
      </trkpt>
      <trkpt lat="43.4255645982921123504638671875" lon="-5.672318525612354278564453125">
        <ele>305.20001220703125</ele>
        <time>2022-06-04T09:02:32.000Z</time>
      </trkpt>
      <trkpt lat="43.425561748445034027099609375" lon="-5.672337301075458526611328125">
        <ele>305.399993896484375</ele>
        <time>2022-06-04T09:02:33.000Z</time>
      </trkpt>
      <trkpt lat="43.42555831186473369598388671875" lon="-5.67235817201435565948486328125">
        <ele>305.600006103515625</ele>
        <time>2022-06-04T09:02:34.000Z</time>
      </trkpt>
      <trkpt lat="43.4255515225231647491455078125" lon="-5.67238189280033111572265625">
        <ele>305.79998779296875</ele>
        <time>2022-06-04T09:02:35.000Z</time>
      </trkpt>
      <trkpt lat="43.4255354292690753936767578125" lon="-5.67242640070617198944091796875">
        <ele>306.20001220703125</ele>
        <time>2022-06-04T09:02:37.000Z</time>
      </trkpt>
      <trkpt lat="43.4255317412316799163818359375" lon="-5.672441907227039337158203125">
        <ele>306.399993896484375</ele>
        <time>2022-06-04T09:02:38.000Z</time>
      </trkpt>
      <trkpt lat="43.4255263768136501312255859375" lon="-5.67246210761368274688720703125">
        <ele>306.399993896484375</ele>
        <time>2022-06-04T09:02:39.000Z</time>
      </trkpt>
      <trkpt lat="43.42551673762500286102294921875" lon="-5.67248784005641937255859375">
        <ele>306.600006103515625</ele>
        <time>2022-06-04T09:02:40.000Z</time>
      </trkpt>
      <trkpt lat="43.4255112893879413604736328125" lon="-5.67250753752887248992919921875">
        <ele>306.79998779296875</ele>
        <time>2022-06-04T09:02:41.000Z</time>
      </trkpt>
      <trkpt lat="43.42550215311348438262939453125" lon="-5.67255489528179168701171875">
        <ele>307.20001220703125</ele>
        <time>2022-06-04T09:02:43.000Z</time>
      </trkpt>
      <trkpt lat="43.425493352115154266357421875" lon="-5.672605521976947784423828125">
        <ele>307.600006103515625</ele>
        <time>2022-06-04T09:02:45.000Z</time>
      </trkpt>
      <trkpt lat="43.425483293831348419189453125" lon="-5.67265656776726245880126953125">
        <ele>307.79998779296875</ele>
        <time>2022-06-04T09:02:47.000Z</time>
      </trkpt>
      <trkpt lat="43.425478599965572357177734375" lon="-5.6727227009832859039306640625">
        <ele>308</ele>
        <time>2022-06-04T09:02:49.000Z</time>
      </trkpt>
      <trkpt lat="43.42546753585338592529296875" lon="-5.6727823801338672637939453125">
        <ele>308.20001220703125</ele>
        <time>2022-06-04T09:02:51.000Z</time>
      </trkpt>
      <trkpt lat="43.4254563041031360626220703125" lon="-5.67283644340932369232177734375">
        <ele>308.79998779296875</ele>
        <time>2022-06-04T09:02:53.000Z</time>
      </trkpt>
      <trkpt lat="43.42544968239963054656982421875" lon="-5.67288078367710113525390625">
        <ele>309.20001220703125</ele>
        <time>2022-06-04T09:02:55.000Z</time>
      </trkpt>
      <trkpt lat="43.425439037382602691650390625" lon="-5.67292478866875171661376953125">
        <ele>309.79998779296875</ele>
        <time>2022-06-04T09:02:57.000Z</time>
      </trkpt>
      <trkpt lat="43.42542923055589199066162109375" lon="-5.67295077256858348846435546875">
        <ele>310</ele>
        <time>2022-06-04T09:02:58.000Z</time>
      </trkpt>
      <trkpt lat="43.42542327940464019775390625" lon="-5.672971308231353759765625">
        <ele>310.20001220703125</ele>
        <time>2022-06-04T09:02:59.000Z</time>
      </trkpt>
      <trkpt lat="43.425412885844707489013671875" lon="-5.6730127148330211639404296875">
        <ele>310.399993896484375</ele>
        <time>2022-06-04T09:03:01.000Z</time>
      </trkpt>
      <trkpt lat="43.4254043363034725189208984375" lon="-5.67305286414921283721923828125">
        <ele>310.600006103515625</ele>
        <time>2022-06-04T09:03:03.000Z</time>
      </trkpt>
      <trkpt lat="43.4254006482660770416259765625" lon="-5.67307231016457080841064453125">
        <ele>310.79998779296875</ele>
        <time>2022-06-04T09:03:04.000Z</time>
      </trkpt>
      <trkpt lat="43.42539687640964984893798828125" lon="-5.67309158854186534881591796875">
        <ele>310.79998779296875</ele>
        <time>2022-06-04T09:03:05.000Z</time>
      </trkpt>
      <trkpt lat="43.425393439829349517822265625" lon="-5.67311086691915988922119140625">
        <ele>311</ele>
        <time>2022-06-04T09:03:06.000Z</time>
      </trkpt>
      <trkpt lat="43.4253905899822711944580078125" lon="-5.6731280498206615447998046875">
        <ele>311</ele>
        <time>2022-06-04T09:03:07.000Z</time>
      </trkpt>
      <trkpt lat="43.42538899742066860198974609375" lon="-5.6731635890901088714599609375">
        <ele>311.399993896484375</ele>
        <time>2022-06-04T09:03:09.000Z</time>
      </trkpt>
      <trkpt lat="43.4253869019448757171630859375" lon="-5.67318345420062541961669921875">
        <ele>311.79998779296875</ele>
        <time>2022-06-04T09:03:10.000Z</time>
      </trkpt>
      <trkpt lat="43.42538329772651195526123046875" lon="-5.67320340313017368316650390625">
        <ele>312</ele>
        <time>2022-06-04T09:03:11.000Z</time>
      </trkpt>
      <trkpt lat="43.4253785200417041778564453125" lon="-5.67322276532649993896484375">
        <ele>312.399993896484375</ele>
        <time>2022-06-04T09:03:12.000Z</time>
      </trkpt>
      <trkpt lat="43.42537374235689640045166015625" lon="-5.67324028350412845611572265625">
        <ele>312.600006103515625</ele>
        <time>2022-06-04T09:03:13.000Z</time>
      </trkpt>
      <trkpt lat="43.42536938376724720001220703125" lon="-5.6732688657939434051513671875">
        <ele>313</ele>
        <time>2022-06-04T09:03:15.000Z</time>
      </trkpt>
      <trkpt lat="43.42537189833819866180419921875" lon="-5.6733027286827564239501953125">
        <ele>313.399993896484375</ele>
        <time>2022-06-04T09:03:17.000Z</time>
      </trkpt>
      <trkpt lat="43.42537365853786468505859375" lon="-5.67332041449844837188720703125">
        <ele>313.600006103515625</ele>
        <time>2022-06-04T09:03:18.000Z</time>
      </trkpt>
      <trkpt lat="43.4253728203475475311279296875" lon="-5.67333667539060115814208984375">
        <ele>313.79998779296875</ele>
        <time>2022-06-04T09:03:19.000Z</time>
      </trkpt>
      <trkpt lat="43.42537374235689640045166015625" lon="-5.6733510084450244903564453125">
        <ele>314.20001220703125</ele>
        <time>2022-06-04T09:03:20.000Z</time>
      </trkpt>
      <trkpt lat="43.42537441290915012359619140625" lon="-5.673366598784923553466796875">
        <ele>314.399993896484375</ele>
        <time>2022-06-04T09:03:21.000Z</time>
      </trkpt>
      <trkpt lat="43.42537307180464267730712890625" lon="-5.67339576780796051025390625">
        <ele>314.79998779296875</ele>
        <time>2022-06-04T09:03:23.000Z</time>
      </trkpt>
      <trkpt lat="43.4253738261759281158447265625" lon="-5.6734098494052886962890625">
        <ele>315</ele>
        <time>2022-06-04T09:03:24.000Z</time>
      </trkpt>
      <trkpt lat="43.42537323944270610809326171875" lon="-5.67342753522098064422607421875">
        <ele>315.20001220703125</ele>
        <time>2022-06-04T09:03:25.000Z</time>
      </trkpt>
      <trkpt lat="43.42536150477826595306396484375" lon="-5.67347397096455097198486328125">
        <ele>315.600006103515625</ele>
        <time>2022-06-04T09:03:27.000Z</time>
      </trkpt>
      <trkpt lat="43.425357230007648468017578125" lon="-5.67351512610912322998046875">
        <ele>316</ele>
        <time>2022-06-04T09:03:29.000Z</time>
      </trkpt>
      <trkpt lat="43.4253527037799358367919921875" lon="-5.67353381775319576263427734375">
        <ele>316.20001220703125</ele>
        <time>2022-06-04T09:03:30.000Z</time>
      </trkpt>
      <trkpt lat="43.4253513626754283905029296875" lon="-5.67355292849242687225341796875">
        <ele>316.399993896484375</ele>
        <time>2022-06-04T09:03:31.000Z</time>
      </trkpt>
      <trkpt lat="43.42535044066607952117919921875" lon="-5.67360254935920238494873046875">
        <ele>316.79998779296875</ele>
        <time>2022-06-04T09:03:33.000Z</time>
      </trkpt>
      <trkpt lat="43.42535295523703098297119140625" lon="-5.6736443750560283660888671875">
        <ele>317.20001220703125</ele>
        <time>2022-06-04T09:03:35.000Z</time>
      </trkpt>
      <trkpt lat="43.4253533743321895599365234375" lon="-5.67366457544267177581787109375">
        <ele>317.600006103515625</ele>
        <time>2022-06-04T09:03:36.000Z</time>
      </trkpt>
      <trkpt lat="43.4253527037799358367919921875" lon="-5.67368502728641033172607421875">
        <ele>317.79998779296875</ele>
        <time>2022-06-04T09:03:37.000Z</time>
      </trkpt>
      <trkpt lat="43.42535488307476043701171875" lon="-5.67372676916420459747314453125">
        <ele>318.399993896484375</ele>
        <time>2022-06-04T09:03:39.000Z</time>
      </trkpt>
      <trkpt lat="43.4253560565412044525146484375" lon="-5.67374889738857746124267578125">
        <ele>318.79998779296875</ele>
        <time>2022-06-04T09:03:40.000Z</time>
      </trkpt>
      <trkpt lat="43.42535496689379215240478515625" lon="-5.6737717799842357635498046875">
        <ele>319.20001220703125</ele>
        <time>2022-06-04T09:03:41.000Z</time>
      </trkpt>
      <trkpt lat="43.42534909956157207489013671875" lon="-5.67381553351879119873046875">
        <ele>319.79998779296875</ele>
        <time>2022-06-04T09:03:43.000Z</time>
      </trkpt>
      <trkpt lat="43.4253419749438762664794921875" lon="-5.67383724264800548553466796875">
        <ele>320</ele>
        <time>2022-06-04T09:03:44.000Z</time>
      </trkpt>
      <trkpt lat="43.425333090126514434814453125" lon="-5.6738582812249660491943359375">
        <ele>320</ele>
        <time>2022-06-04T09:03:45.000Z</time>
      </trkpt>
      <trkpt lat="43.42531171627342700958251953125" lon="-5.67389625124633312225341796875">
        <ele>320.79998779296875</ele>
        <time>2022-06-04T09:03:47.000Z</time>
      </trkpt>
      <trkpt lat="43.425299562513828277587890625" lon="-5.673910416662693023681640625">
        <ele>321</ele>
        <time>2022-06-04T09:03:48.000Z</time>
      </trkpt>
      <trkpt lat="43.42528640292584896087646484375" lon="-5.6739250011742115020751953125">
        <ele>321.20001220703125</ele>
        <time>2022-06-04T09:03:49.000Z</time>
      </trkpt>
      <trkpt lat="43.42526108957827091217041015625" lon="-5.6739436089992523193359375">
        <ele>321.79998779296875</ele>
        <time>2022-06-04T09:03:51.000Z</time>
      </trkpt>
      <trkpt lat="43.4252467565238475799560546875" lon="-5.67394855432212352752685546875">
        <ele>322.600006103515625</ele>
        <time>2022-06-04T09:03:52.000Z</time>
      </trkpt>
      <trkpt lat="43.425231836736202239990234375" lon="-5.67395140416920185089111328125">
        <ele>323</ele>
        <time>2022-06-04T09:03:53.000Z</time>
      </trkpt>
      <trkpt lat="43.4252051822841167449951171875" lon="-5.67394570447504520416259765625">
        <ele>323.79998779296875</ele>
        <time>2022-06-04T09:03:55.000Z</time>
      </trkpt>
      <trkpt lat="43.42517861165106296539306640625" lon="-5.67393832840025424957275390625">
        <ele>324.20001220703125</ele>
        <time>2022-06-04T09:03:57.000Z</time>
      </trkpt>
      <trkpt lat="43.4251622669398784637451171875" lon="-5.6739350594580173492431640625">
        <ele>324.399993896484375</ele>
        <time>2022-06-04T09:03:58.000Z</time>
      </trkpt>
      <trkpt lat="43.42514860443770885467529296875" lon="-5.673929862678050994873046875">
        <ele>324.600006103515625</ele>
        <time>2022-06-04T09:03:59.000Z</time>
      </trkpt>
      <trkpt lat="43.42513452284038066864013671875" lon="-5.6739209778606891632080078125">
        <ele>325</ele>
        <time>2022-06-04T09:04:00.000Z</time>
      </trkpt>
      <trkpt lat="43.42512018978595733642578125" lon="-5.67391267977654933929443359375">
        <ele>325.20001220703125</ele>
        <time>2022-06-04T09:04:01.000Z</time>
      </trkpt>
      <trkpt lat="43.4250932000577449798583984375" lon="-5.6738978438079357147216796875">
        <ele>325.600006103515625</ele>
        <time>2022-06-04T09:04:03.000Z</time>
      </trkpt>
      <trkpt lat="43.425068557262420654296875" lon="-5.6738887913525104522705078125">
        <ele>326</ele>
        <time>2022-06-04T09:04:05.000Z</time>
      </trkpt>
      <trkpt lat="43.42504299245774745941162109375" lon="-5.67387730814516544342041015625">
        <ele>326.399993896484375</ele>
        <time>2022-06-04T09:04:07.000Z</time>
      </trkpt>
      <trkpt lat="43.4250170923769474029541015625" lon="-5.6738683395087718963623046875">
        <ele>326.600006103515625</ele>
        <time>2022-06-04T09:04:09.000Z</time>
      </trkpt>
      <trkpt lat="43.424991108477115631103515625" lon="-5.67386104725301265716552734375">
        <ele>327</ele>
        <time>2022-06-04T09:04:11.000Z</time>
      </trkpt>
      <trkpt lat="43.4249765239655971527099609375" lon="-5.67385786212980747222900390625">
        <ele>327.20001220703125</ele>
        <time>2022-06-04T09:04:12.000Z</time>
      </trkpt>
      <trkpt lat="43.424960933625698089599609375" lon="-5.6738535873591899871826171875">
        <ele>327.399993896484375</ele>
        <time>2022-06-04T09:04:13.000Z</time>
      </trkpt>
      <trkpt lat="43.424945175647735595703125" lon="-5.673852078616619110107421875">
        <ele>327.600006103515625</ele>
        <time>2022-06-04T09:04:14.000Z</time>
      </trkpt>
      <trkpt lat="43.42492975294589996337890625" lon="-5.673850066959857940673828125">
        <ele>327.600006103515625</ele>
        <time>2022-06-04T09:04:15.000Z</time>
      </trkpt>
      <trkpt lat="43.42489622533321380615234375" lon="-5.67384864203631877899169921875">
        <ele>327.79998779296875</ele>
        <time>2022-06-04T09:04:17.000Z</time>
      </trkpt>
      <trkpt lat="43.42486127279698848724365234375" lon="-5.673846043646335601806640625">
        <ele>328</ele>
        <time>2022-06-04T09:04:19.000Z</time>
      </trkpt>
      <trkpt lat="43.4248286671936511993408203125" lon="-5.67384042777121067047119140625">
        <ele>328.20001220703125</ele>
        <time>2022-06-04T09:04:21.000Z</time>
      </trkpt>
      <trkpt lat="43.42479790560901165008544921875" lon="-5.67383942194283008575439453125">
        <ele>328.399993896484375</ele>
        <time>2022-06-04T09:04:23.000Z</time>
      </trkpt>
      <trkpt lat="43.4247726760804653167724609375" lon="-5.67384026013314723968505859375">
        <ele>328.600006103515625</ele>
        <time>2022-06-04T09:04:25.000Z</time>
      </trkpt>
      <trkpt lat="43.42474526725709438323974609375" lon="-5.673838667571544647216796875">
        <ele>328.600006103515625</ele>
        <time>2022-06-04T09:04:27.000Z</time>
      </trkpt>
      <trkpt lat="43.42471308074891567230224609375" lon="-5.67383523099124431610107421875">
        <ele>328.79998779296875</ele>
        <time>2022-06-04T09:04:29.000Z</time>
      </trkpt>
      <trkpt lat="43.42468357644975185394287109375" lon="-5.67383858375251293182373046875">
        <ele>329</ele>
        <time>2022-06-04T09:04:31.000Z</time>
      </trkpt>
      <trkpt lat="43.42465071938931941986083984375" lon="-5.67384428344666957855224609375">
        <ele>329</ele>
        <time>2022-06-04T09:04:33.000Z</time>
      </trkpt>
      <trkpt lat="43.42462171800434589385986328125" lon="-5.67384964786469936370849609375">
        <ele>329.20001220703125</ele>
        <time>2022-06-04T09:04:35.000Z</time>
      </trkpt>
      <trkpt lat="43.42460696585476398468017578125" lon="-5.6738535873591899871826171875">
        <ele>329.20001220703125</ele>
        <time>2022-06-04T09:04:36.000Z</time>
      </trkpt>
      <trkpt lat="43.424592800438404083251953125" lon="-5.6738631427288055419921875">
        <ele>329.399993896484375</ele>
        <time>2022-06-04T09:04:37.000Z</time>
      </trkpt>
      <trkpt lat="43.4245575964450836181640625" lon="-5.67387680523097515106201171875">
        <ele>329.79998779296875</ele>
        <time>2022-06-04T09:04:39.000Z</time>
      </trkpt>
      <trkpt lat="43.424525745213031768798828125" lon="-5.67389541305601596832275390625">
        <ele>330</ele>
        <time>2022-06-04T09:04:41.000Z</time>
      </trkpt>
      <trkpt lat="43.424513004720211029052734375" lon="-5.67390530370175838470458984375">
        <ele>330</ele>
        <time>2022-06-04T09:04:42.000Z</time>
      </trkpt>
      <trkpt lat="43.42449749819934368133544921875" lon="-5.67391854710876941680908203125">
        <ele>330.20001220703125</ele>
        <time>2022-06-04T09:04:43.000Z</time>
      </trkpt>
      <trkpt lat="43.42448048293590545654296875" lon="-5.67393195815384387969970703125">
        <ele>330.399993896484375</ele>
        <time>2022-06-04T09:04:44.000Z</time>
      </trkpt>
      <trkpt lat="43.42446430586278438568115234375" lon="-5.67394637502729892730712890625">
        <ele>330.399993896484375</ele>
        <time>2022-06-04T09:04:45.000Z</time>
      </trkpt>
      <trkpt lat="43.42443580739200115203857421875" lon="-5.6739709340035915374755859375">
        <ele>330.79998779296875</ele>
        <time>2022-06-04T09:04:47.000Z</time>
      </trkpt>
      <trkpt lat="43.42442281544208526611328125" lon="-5.67398074083030223846435546875">
        <ele>330.79998779296875</ele>
        <time>2022-06-04T09:04:48.000Z</time>
      </trkpt>
      <trkpt lat="43.42440781183540821075439453125" lon="-5.67399146966636180877685546875">
        <ele>331</ele>
        <time>2022-06-04T09:04:49.000Z</time>
      </trkpt>
      <trkpt lat="43.42438392341136932373046875" lon="-5.67401745356619358062744140625">
        <ele>331.20001220703125</ele>
        <time>2022-06-04T09:04:51.000Z</time>
      </trkpt>
      <trkpt lat="43.4243592806160449981689453125" lon="-5.6740433536469936370849609375">
        <ele>331.399993896484375</ele>
        <time>2022-06-04T09:04:53.000Z</time>
      </trkpt>
      <trkpt lat="43.42433824203908443450927734375" lon="-5.67407730035483837127685546875">
        <ele>331.600006103515625</ele>
        <time>2022-06-04T09:04:55.000Z</time>
      </trkpt>
      <trkpt lat="43.4243146888911724090576171875" lon="-5.67411334253847599029541015625">
        <ele>331.79998779296875</ele>
        <time>2022-06-04T09:04:57.000Z</time>
      </trkpt>
      <trkpt lat="43.42429163865745067596435546875" lon="-5.67414687015116214752197265625">
        <ele>332.20001220703125</ele>
        <time>2022-06-04T09:04:59.000Z</time>
      </trkpt>
      <trkpt lat="43.4242684207856655120849609375" lon="-5.67419447936117649078369140625">
        <ele>332.399993896484375</ele>
        <time>2022-06-04T09:05:01.000Z</time>
      </trkpt>
      <trkpt lat="43.4242352284491062164306640625" lon="-5.67425114102661609649658203125">
        <ele>332.600006103515625</ele>
        <time>2022-06-04T09:05:03.000Z</time>
      </trkpt>
      <trkpt lat="43.424199186265468597412109375" lon="-5.6742964871227741241455078125">
        <ele>332.79998779296875</ele>
        <time>2022-06-04T09:05:05.000Z</time>
      </trkpt>
      <trkpt lat="43.42415518127381801605224609375" lon="-5.67433319985866546630859375">
        <ele>332.79998779296875</ele>
        <time>2022-06-04T09:05:07.000Z</time>
      </trkpt>
      <trkpt lat="43.4240935742855072021484375" lon="-5.67436966113746166229248046875">
        <ele>332.79998779296875</ele>
        <time>2022-06-04T09:05:09.000Z</time>
      </trkpt>
      <trkpt lat="43.4240318834781646728515625" lon="-5.67439363338053226470947265625">
        <ele>333</ele>
        <time>2022-06-04T09:05:11.000Z</time>
      </trkpt>
      <trkpt lat="43.42400346882641315460205078125" lon="-5.6744051165878772735595703125">
        <ele>333</ele>
        <time>2022-06-04T09:05:12.000Z</time>
      </trkpt>
      <trkpt lat="43.42397899366915225982666015625" lon="-5.674420706927776336669921875">
        <ele>333</ele>
        <time>2022-06-04T09:05:13.000Z</time>
      </trkpt>
      <trkpt lat="43.42393071390688419342041015625" lon="-5.67445381544530391693115234375">
        <ele>333.20001220703125</ele>
        <time>2022-06-04T09:05:15.000Z</time>
      </trkpt>
      <trkpt lat="43.42388913966715335845947265625" lon="-5.6744671426713466644287109375">
        <ele>333.20001220703125</ele>
        <time>2022-06-04T09:05:17.000Z</time>
      </trkpt>
      <trkpt lat="43.423865921795368194580078125" lon="-5.674471668899059295654296875">
        <ele>333.20001220703125</ele>
        <time>2022-06-04T09:05:18.000Z</time>
      </trkpt>
      <trkpt lat="43.42384454794228076934814453125" lon="-5.674475021660327911376953125">
        <ele>333.20001220703125</ele>
        <time>2022-06-04T09:05:19.000Z</time>
      </trkpt>
      <trkpt lat="43.42379911802709102630615234375" lon="-5.6744989939033985137939453125">
        <ele>333.20001220703125</ele>
        <time>2022-06-04T09:05:21.000Z</time>
      </trkpt>
      <trkpt lat="43.423750586807727813720703125" lon="-5.67452229559421539306640625">
        <ele>333.20001220703125</ele>
        <time>2022-06-04T09:05:23.000Z</time>
      </trkpt>
      <trkpt lat="43.42370272614061832427978515625" lon="-5.67454769276082515716552734375">
        <ele>333.399993896484375</ele>
        <time>2022-06-04T09:05:25.000Z</time>
      </trkpt>
      <trkpt lat="43.42366299591958522796630859375" lon="-5.6745766103267669677734375">
        <ele>333.399993896484375</ele>
        <time>2022-06-04T09:05:27.000Z</time>
      </trkpt>
      <trkpt lat="43.42362242750823497772216796875" lon="-5.6745818071067333221435546875">
        <ele>333.600006103515625</ele>
        <time>2022-06-04T09:05:29.000Z</time>
      </trkpt>
      <trkpt lat="43.4235868044197559356689453125" lon="-5.67457954399287700653076171875">
        <ele>333.79998779296875</ele>
        <time>2022-06-04T09:05:31.000Z</time>
      </trkpt>
      <trkpt lat="43.42355486936867237091064453125" lon="-5.6745764426887035369873046875">
        <ele>334</ele>
        <time>2022-06-04T09:05:33.000Z</time>
      </trkpt>
      <trkpt lat="43.4235264547169208526611328125" lon="-5.67458641715347766876220703125">
        <ele>334.20001220703125</ele>
        <time>2022-06-04T09:05:35.000Z</time>
      </trkpt>
      <trkpt lat="43.42349753715097904205322265625" lon="-5.67460016347467899322509765625">
        <ele>334.399993896484375</ele>
        <time>2022-06-04T09:05:37.000Z</time>
      </trkpt>
      <trkpt lat="43.423480354249477386474609375" lon="-5.67460854537785053253173828125">
        <ele>334.399993896484375</ele>
        <time>2022-06-04T09:05:38.000Z</time>
      </trkpt>
      <trkpt lat="43.42346501536667346954345703125" lon="-5.67460921593010425567626953125">
        <ele>334.600006103515625</ele>
        <time>2022-06-04T09:05:39.000Z</time>
      </trkpt>
      <trkpt lat="43.42344908975064754486083984375" lon="-5.6746113114058971405029296875">
        <ele>334.79998779296875</ele>
        <time>2022-06-04T09:05:40.000Z</time>
      </trkpt>
      <trkpt lat="43.423434086143970489501953125" lon="-5.6746136583387851715087890625">
        <ele>335</ele>
        <time>2022-06-04T09:05:41.000Z</time>
      </trkpt>
      <trkpt lat="43.42339645139873027801513671875" lon="-5.67462312988936901092529296875">
        <ele>335.600006103515625</ele>
        <time>2022-06-04T09:05:43.000Z</time>
      </trkpt>
      <trkpt lat="43.4233755804598331451416015625" lon="-5.674629919230937957763671875">
        <ele>335.79998779296875</ele>
        <time>2022-06-04T09:05:44.000Z</time>
      </trkpt>
      <trkpt lat="43.42335957102477550506591796875" lon="-5.67462882958352565765380859375">
        <ele>336</ele>
        <time>2022-06-04T09:05:45.000Z</time>
      </trkpt>
      <trkpt lat="43.42332906089723110198974609375" lon="-5.67461910657584667205810546875">
        <ele>336.79998779296875</ele>
        <time>2022-06-04T09:05:47.000Z</time>
      </trkpt>
      <trkpt lat="43.42331145890057086944580078125" lon="-5.67458675242960453033447265625">
        <ele>337.20001220703125</ele>
        <time>2022-06-04T09:05:49.000Z</time>
      </trkpt>
      <trkpt lat="43.4233018197119235992431640625" lon="-5.67454132251441478729248046875">
        <ele>337.600006103515625</ele>
        <time>2022-06-04T09:05:51.000Z</time>
      </trkpt>
      <trkpt lat="43.42329503037035465240478515625" lon="-5.67451827228069305419921875">
        <ele>337.79998779296875</ele>
        <time>2022-06-04T09:05:52.000Z</time>
      </trkpt>
      <trkpt lat="43.4232890792191028594970703125" lon="-5.67449304275214672088623046875">
        <ele>338</ele>
        <time>2022-06-04T09:05:53.000Z</time>
      </trkpt>
      <trkpt lat="43.42327860184013843536376953125" lon="-5.67444543354213237762451171875">
        <ele>338.600006103515625</ele>
        <time>2022-06-04T09:05:55.000Z</time>
      </trkpt>
      <trkpt lat="43.423271141946315765380859375" lon="-5.6744222156703472137451171875">
        <ele>338.600006103515625</ele>
        <time>2022-06-04T09:05:56.000Z</time>
      </trkpt>
      <trkpt lat="43.4232615865767002105712890625" lon="-5.67440067417919635772705078125">
        <ele>339</ele>
        <time>2022-06-04T09:05:57.000Z</time>
      </trkpt>
      <trkpt lat="43.42323652468621730804443359375" lon="-5.67435524426400661468505859375">
        <ele>339.79998779296875</ele>
        <time>2022-06-04T09:05:59.000Z</time>
      </trkpt>
      <trkpt lat="43.42322629876434803009033203125" lon="-5.67433663643896579742431640625">
        <ele>340.20001220703125</ele>
        <time>2022-06-04T09:06:00.000Z</time>
      </trkpt>
      <trkpt lat="43.42321741394698619842529296875" lon="-5.6743166036903858184814453125">
        <ele>340.399993896484375</ele>
        <time>2022-06-04T09:06:01.000Z</time>
      </trkpt>
      <trkpt lat="43.42321255244314670562744140625" lon="-5.6742964871227741241455078125">
        <ele>340.600006103515625</ele>
        <time>2022-06-04T09:06:02.000Z</time>
      </trkpt>
      <trkpt lat="43.4232106246054172515869140625" lon="-5.67427553236484527587890625">
        <ele>340.79998779296875</ele>
        <time>2022-06-04T09:06:03.000Z</time>
      </trkpt>
      <trkpt lat="43.42321037314832210540771484375" lon="-5.6742518953979015350341796875">
        <ele>341.20001220703125</ele>
        <time>2022-06-04T09:06:04.000Z</time>
      </trkpt>
      <trkpt lat="43.4232112951576709747314453125" lon="-5.67422750405967235565185546875">
        <ele>341.600006103515625</ele>
        <time>2022-06-04T09:06:05.000Z</time>
      </trkpt>
      <trkpt lat="43.42321875505149364471435546875" lon="-5.6741845048964023590087890625">
        <ele>342.399993896484375</ele>
        <time>2022-06-04T09:06:07.000Z</time>
      </trkpt>
      <trkpt lat="43.42323325574398040771484375" lon="-5.67414276301860809326171875">
        <ele>342.79998779296875</ele>
        <time>2022-06-04T09:06:09.000Z</time>
      </trkpt>
      <trkpt lat="43.42324524186551570892333984375" lon="-5.67409808747470378875732421875">
        <ele>344</ele>
        <time>2022-06-04T09:06:11.000Z</time>
      </trkpt>
      <trkpt lat="43.4232468344271183013916015625" lon="-5.67407746799290180206298828125">
        <ele>344.399993896484375</ele>
        <time>2022-06-04T09:06:12.000Z</time>
      </trkpt>
      <trkpt lat="43.42324775643646717071533203125" lon="-5.67405760288238525390625">
        <ele>344.600006103515625</ele>
        <time>2022-06-04T09:06:13.000Z</time>
      </trkpt>
      <trkpt lat="43.4232515282928943634033203125" lon="-5.67404218018054962158203125">
        <ele>345</ele>
        <time>2022-06-04T09:06:14.000Z</time>
      </trkpt>
      <trkpt lat="43.42325270175933837890625" lon="-5.67402516491711139678955078125">
        <ele>345.399993896484375</ele>
        <time>2022-06-04T09:06:15.000Z</time>
      </trkpt>
      <trkpt lat="43.42325563542544841766357421875" lon="-5.67399364896118640899658203125">
        <ele>345.79998779296875</ele>
        <time>2022-06-04T09:06:17.000Z</time>
      </trkpt>
      <trkpt lat="43.4232578985393047332763671875" lon="-5.67398023791611194610595703125">
        <ele>346</ele>
        <time>2022-06-04T09:06:18.000Z</time>
      </trkpt>
      <trkpt lat="43.42326083220541477203369140625" lon="-5.67396431230008602142333984375">
        <ele>346.20001220703125</ele>
        <time>2022-06-04T09:06:19.000Z</time>
      </trkpt>
      <trkpt lat="43.423261754214763641357421875" lon="-5.6739467941224575042724609375">
        <ele>346.600006103515625</ele>
        <time>2022-06-04T09:06:20.000Z</time>
      </trkpt>
      <trkpt lat="43.4232605807483196258544921875" lon="-5.6739293597638607025146484375">
        <ele>346.79998779296875</ele>
        <time>2022-06-04T09:06:21.000Z</time>
      </trkpt>
      <trkpt lat="43.42325915582478046417236328125" lon="-5.673909075558185577392578125">
        <ele>347</ele>
        <time>2022-06-04T09:06:22.000Z</time>
      </trkpt>
      <trkpt lat="43.42325714416801929473876953125" lon="-5.67389356903731822967529296875">
        <ele>347.20001220703125</ele>
        <time>2022-06-04T09:06:23.000Z</time>
      </trkpt>
      <trkpt lat="43.42325203120708465576171875" lon="-5.67387462593615055084228515625">
        <ele>347.399993896484375</ele>
        <time>2022-06-04T09:06:24.000Z</time>
      </trkpt>
      <trkpt lat="43.42324733734130859375" lon="-5.67385333590209484100341796875">
        <ele>347.600006103515625</ele>
        <time>2022-06-04T09:06:25.000Z</time>
      </trkpt>
      <trkpt lat="43.423243649303913116455078125" lon="-5.67381561733782291412353515625">
        <ele>348.20001220703125</ele>
        <time>2022-06-04T09:06:27.000Z</time>
      </trkpt>
      <trkpt lat="43.42324323020875453948974609375" lon="-5.67379969172179698944091796875">
        <ele>348.399993896484375</ele>
        <time>2022-06-04T09:06:28.000Z</time>
      </trkpt>
      <trkpt lat="43.42323996126651763916015625" lon="-5.6737828440964221954345703125">
        <ele>348.600006103515625</ele>
        <time>2022-06-04T09:06:29.000Z</time>
      </trkpt>
      <trkpt lat="43.42323459684848785400390625" lon="-5.673746131360530853271484375">
        <ele>349</ele>
        <time>2022-06-04T09:06:31.000Z</time>
      </trkpt>
      <trkpt lat="43.42322914861142635345458984375" lon="-5.67370447330176830291748046875">
        <ele>349.399993896484375</ele>
        <time>2022-06-04T09:06:33.000Z</time>
      </trkpt>
      <trkpt lat="43.423226885497570037841796875" lon="-5.6736846081912517547607421875">
        <ele>349.600006103515625</ele>
        <time>2022-06-04T09:06:34.000Z</time>
      </trkpt>
      <trkpt lat="43.4232250414788722991943359375" lon="-5.6736648268997669219970703125">
        <ele>350</ele>
        <time>2022-06-04T09:06:35.000Z</time>
      </trkpt>
      <trkpt lat="43.42322177253663539886474609375" lon="-5.6736453808844089508056640625">
        <ele>350</ele>
        <time>2022-06-04T09:06:36.000Z</time>
      </trkpt>
      <trkpt lat="43.42321791686117649078369140625" lon="-5.67362601868808269500732421875">
        <ele>350.20001220703125</ele>
        <time>2022-06-04T09:06:37.000Z</time>
      </trkpt>
      <trkpt lat="43.42321179807186126708984375" lon="-5.67358897067606449127197265625">
        <ele>350.600006103515625</ele>
        <time>2022-06-04T09:06:39.000Z</time>
      </trkpt>
      <trkpt lat="43.42320282943546772003173828125" lon="-5.67355829291045665740966796875">
        <ele>350.79998779296875</ele>
        <time>2022-06-04T09:06:41.000Z</time>
      </trkpt>
      <trkpt lat="43.42318841256201267242431640625" lon="-5.6735276989638805389404296875">
        <ele>351.399993896484375</ele>
        <time>2022-06-04T09:06:43.000Z</time>
      </trkpt>
      <trkpt lat="43.423166535794734954833984375" lon="-5.67349945195019245147705078125">
        <ele>351.79998779296875</ele>
        <time>2022-06-04T09:06:45.000Z</time>
      </trkpt>
      <trkpt lat="43.4231546334922313690185546875" lon="-5.67349039949476718902587890625">
        <ele>352.20001220703125</ele>
        <time>2022-06-04T09:06:46.000Z</time>
      </trkpt>
      <trkpt lat="43.4231425635516643524169921875" lon="-5.67348218522965908050537109375">
        <ele>352.20001220703125</ele>
        <time>2022-06-04T09:06:47.000Z</time>
      </trkpt>
      <trkpt lat="43.42311800457537174224853515625" lon="-5.67347531206905841827392578125">
        <ele>352.600006103515625</ele>
        <time>2022-06-04T09:06:49.000Z</time>
      </trkpt>
      <trkpt lat="43.42309503816068172454833984375" lon="-5.67348805256187915802001953125">
        <ele>352.79998779296875</ele>
        <time>2022-06-04T09:06:51.000Z</time>
      </trkpt>
      <trkpt lat="43.42307844199240207672119140625" lon="-5.6735144555568695068359375">
        <ele>353.399993896484375</ele>
        <time>2022-06-04T09:06:53.000Z</time>
      </trkpt>
      <trkpt lat="43.42306804843246936798095703125" lon="-5.67354655824601650238037109375">
        <ele>353.600006103515625</ele>
        <time>2022-06-04T09:06:55.000Z</time>
      </trkpt>
      <trkpt lat="43.42305799014866352081298828125" lon="-5.67357589490711688995361328125">
        <ele>354.20001220703125</ele>
        <time>2022-06-04T09:06:57.000Z</time>
      </trkpt>
      <trkpt lat="43.4230523742735385894775390625" lon="-5.67359098233282566070556640625">
        <ele>354.399993896484375</ele>
        <time>2022-06-04T09:06:58.000Z</time>
      </trkpt>
      <trkpt lat="43.42304625548422336578369140625" lon="-5.67360707558691501617431640625">
        <ele>354.600006103515625</ele>
        <time>2022-06-04T09:06:59.000Z</time>
      </trkpt>
      <trkpt lat="43.42303133569657802581787109375" lon="-5.67363942973315715789794921875">
        <ele>355.20001220703125</ele>
        <time>2022-06-04T09:07:01.000Z</time>
      </trkpt>
      <trkpt lat="43.4230141527950763702392578125" lon="-5.6736715324223041534423828125">
        <ele>355.600006103515625</ele>
        <time>2022-06-04T09:07:03.000Z</time>
      </trkpt>
      <trkpt lat="43.42299361713230609893798828125" lon="-5.673701204359531402587890625">
        <ele>355.79998779296875</ele>
        <time>2022-06-04T09:07:05.000Z</time>
      </trkpt>
      <trkpt lat="43.422971405088901519775390625" lon="-5.67372794263064861297607421875">
        <ele>356.20001220703125</ele>
        <time>2022-06-04T09:07:07.000Z</time>
      </trkpt>
      <trkpt lat="43.4229487739503383636474609375" lon="-5.67375007085502147674560546875">
        <ele>356.399993896484375</ele>
        <time>2022-06-04T09:07:09.000Z</time>
      </trkpt>
      <trkpt lat="43.422925136983394622802734375" lon="-5.673762895166873931884765625">
        <ele>356.600006103515625</ele>
        <time>2022-06-04T09:07:11.000Z</time>
      </trkpt>
      <trkpt lat="43.42290602624416351318359375" lon="-5.6737665832042694091796875">
        <ele>356.600006103515625</ele>
        <time>2022-06-04T09:07:12.000Z</time>
      </trkpt>
      <trkpt lat="43.4228797070682048797607421875" lon="-5.6737704388797283172607421875">
        <ele>356.600006103515625</ele>
        <time>2022-06-04T09:07:13.000Z</time>
      </trkpt>
      <trkpt lat="43.422848023474216461181640625" lon="-5.6737704388797283172607421875">
        <ele>356.600006103515625</ele>
        <time>2022-06-04T09:07:14.000Z</time>
      </trkpt>
      <trkpt lat="43.42281374149024486541748046875" lon="-5.67376432009041309356689453125">
        <ele>356.600006103515625</ele>
        <time>2022-06-04T09:07:15.000Z</time>
      </trkpt>
      <trkpt lat="43.42273126356303691864013671875" lon="-5.67373481579124927520751953125">
        <ele>356.600006103515625</ele>
        <time>2022-06-04T09:07:17.000Z</time>
      </trkpt>
      <trkpt lat="43.422686755657196044921875" lon="-5.67371251992881298065185546875">
        <ele>356.600006103515625</ele>
        <time>2022-06-04T09:07:18.000Z</time>
      </trkpt>
      <trkpt lat="43.4226424992084503173828125" lon="-5.67368955351412296295166015625">
        <ele>356.600006103515625</ele>
        <time>2022-06-04T09:07:19.000Z</time>
      </trkpt>
      <trkpt lat="43.42256697826087474822998046875" lon="-5.67364412359893321990966796875">
        <ele>356.600006103515625</ele>
        <time>2022-06-04T09:07:21.000Z</time>
      </trkpt>
      <trkpt lat="43.42250310815870761871337890625" lon="-5.67359031178057193756103515625">
        <ele>356.600006103515625</ele>
        <time>2022-06-04T09:07:23.000Z</time>
      </trkpt>
      <trkpt lat="43.422476537525653839111328125" lon="-5.67356483079493045806884765625">
        <ele>356.399993896484375</ele>
        <time>2022-06-04T09:07:24.000Z</time>
      </trkpt>
      <trkpt lat="43.42245382256805896759033203125" lon="-5.67354035563766956329345703125">
        <ele>356.20001220703125</ele>
        <time>2022-06-04T09:07:25.000Z</time>
      </trkpt>
      <trkpt lat="43.42241912148892879486083984375" lon="-5.67348972894251346588134765625">
        <ele>356</ele>
        <time>2022-06-04T09:07:27.000Z</time>
      </trkpt>
      <trkpt lat="43.42238827608525753021240234375" lon="-5.67344161681830883026123046875">
        <ele>356</ele>
        <time>2022-06-04T09:07:29.000Z</time>
      </trkpt>
      <trkpt lat="43.42237067408859729766845703125" lon="-5.67341948859393596649169921875">
        <ele>355.79998779296875</ele>
        <time>2022-06-04T09:07:30.000Z</time>
      </trkpt>
      <trkpt lat="43.42235575430095195770263671875" lon="-5.6733929179608821868896484375">
        <ele>355.79998779296875</ele>
        <time>2022-06-04T09:07:31.000Z</time>
      </trkpt>
      <trkpt lat="43.42232524417340755462646484375" lon="-5.67334153689444065093994140625">
        <ele>355.79998779296875</ele>
        <time>2022-06-04T09:07:33.000Z</time>
      </trkpt>
      <trkpt lat="43.42229188419878482818603515625" lon="-5.673296190798282623291015625">
        <ele>356</ele>
        <time>2022-06-04T09:07:35.000Z</time>
      </trkpt>
      <trkpt lat="43.42226439155638217926025390625" lon="-5.67324824631214141845703125">
        <ele>356</ele>
        <time>2022-06-04T09:07:37.000Z</time>
      </trkpt>
      <trkpt lat="43.42224226333200931549072265625" lon="-5.67319200374186038970947265625">
        <ele>356.20001220703125</ele>
        <time>2022-06-04T09:07:39.000Z</time>
      </trkpt>
      <trkpt lat="43.42221829108893871307373046875" lon="-5.67314707674086093902587890625">
        <ele>356.20001220703125</ele>
        <time>2022-06-04T09:07:41.000Z</time>
      </trkpt>
      <trkpt lat="43.42219054698944091796875" lon="-5.67310902290046215057373046875">
        <ele>356.399993896484375</ele>
        <time>2022-06-04T09:07:43.000Z</time>
      </trkpt>
      <trkpt lat="43.4221769683063030242919921875" lon="-5.67308991216123104095458984375">
        <ele>356.600006103515625</ele>
        <time>2022-06-04T09:07:44.000Z</time>
      </trkpt>
      <trkpt lat="43.4221638925373554229736328125" lon="-5.67307231016457080841064453125">
        <ele>356.600006103515625</ele>
        <time>2022-06-04T09:07:45.000Z</time>
      </trkpt>
      <trkpt lat="43.4221370704472064971923828125" lon="-5.6730395369231700897216796875">
        <ele>357</ele>
        <time>2022-06-04T09:07:47.000Z</time>
      </trkpt>
      <trkpt lat="43.422110080718994140625" lon="-5.67300684750080108642578125">
        <ele>357.20001220703125</ele>
        <time>2022-06-04T09:07:49.000Z</time>
      </trkpt>
      <trkpt lat="43.4220820851624011993408203125" lon="-5.67297323606908321380615234375">
        <ele>357.600006103515625</ele>
        <time>2022-06-04T09:07:51.000Z</time>
      </trkpt>
      <trkpt lat="43.4220693446695804595947265625" lon="-5.67295253276824951171875">
        <ele>357.79998779296875</ele>
        <time>2022-06-04T09:07:52.000Z</time>
      </trkpt>
      <trkpt lat="43.42205551452934741973876953125" lon="-5.67293115891516208648681640625">
        <ele>358</ele>
        <time>2022-06-04T09:07:53.000Z</time>
      </trkpt>
      <trkpt lat="43.4220304526388645172119140625" lon="-5.67288790829479694366455078125">
        <ele>358.399993896484375</ele>
        <time>2022-06-04T09:07:55.000Z</time>
      </trkpt>
      <trkpt lat="43.42200958169996738433837890625" lon="-5.672844909131526947021484375">
        <ele>358.79998779296875</ele>
        <time>2022-06-04T09:07:57.000Z</time>
      </trkpt>
      <trkpt lat="43.42199943959712982177734375" lon="-5.6728222779929637908935546875">
        <ele>359</ele>
        <time>2022-06-04T09:07:58.000Z</time>
      </trkpt>
      <trkpt lat="43.42198963277041912078857421875" lon="-5.6728014908730983734130859375">
        <ele>359.20001220703125</ele>
        <time>2022-06-04T09:07:59.000Z</time>
      </trkpt>
      <trkpt lat="43.42197395861148834228515625" lon="-5.6727585755288600921630859375">
        <ele>359.600006103515625</ele>
        <time>2022-06-04T09:08:01.000Z</time>
      </trkpt>
      <trkpt lat="43.4219657443463802337646484375" lon="-5.6727366149425506591796875">
        <ele>360</ele>
        <time>2022-06-04T09:08:02.000Z</time>
      </trkpt>
      <trkpt lat="43.42195375822484493255615234375" lon="-5.67271448671817779541015625">
        <ele>360.20001220703125</ele>
        <time>2022-06-04T09:08:03.000Z</time>
      </trkpt>
      <trkpt lat="43.42192970216274261474609375" lon="-5.67266888916492462158203125">
        <ele>360.600006103515625</ele>
        <time>2022-06-04T09:08:05.000Z</time>
      </trkpt>
      <trkpt lat="43.4219067357480525970458984375" lon="-5.672627985477447509765625">
        <ele>361</ele>
        <time>2022-06-04T09:08:07.000Z</time>
      </trkpt>
      <trkpt lat="43.421894498169422149658203125" lon="-5.67260879091918468475341796875">
        <ele>361.20001220703125</ele>
        <time>2022-06-04T09:08:08.000Z</time>
      </trkpt>
      <trkpt lat="43.421881087124347686767578125" lon="-5.67259051837027072906494140625">
        <ele>361.399993896484375</ele>
        <time>2022-06-04T09:08:09.000Z</time>
      </trkpt>
      <trkpt lat="43.42185351066291332244873046875" lon="-5.672555901110172271728515625">
        <ele>362</ele>
        <time>2022-06-04T09:08:11.000Z</time>
      </trkpt>
      <trkpt lat="43.42184110544621944427490234375" lon="-5.67253536544740200042724609375">
        <ele>362.20001220703125</ele>
        <time>2022-06-04T09:08:12.000Z</time>
      </trkpt>
      <trkpt lat="43.42182903550565242767333984375" lon="-5.67251357249915599822998046875">
        <ele>362.399993896484375</ele>
        <time>2022-06-04T09:08:13.000Z</time>
      </trkpt>
      <trkpt lat="43.42180187813937664031982421875" lon="-5.6724776141345500946044921875">
        <ele>362.79998779296875</ele>
        <time>2022-06-04T09:08:15.000Z</time>
      </trkpt>
      <trkpt lat="43.42177203856408596038818359375" lon="-5.67244484089314937591552734375">
        <ele>363.20001220703125</ele>
        <time>2022-06-04T09:08:17.000Z</time>
      </trkpt>
      <trkpt lat="43.42175804078578948974609375" lon="-5.6724300049245357513427734375">
        <ele>363.399993896484375</ele>
        <time>2022-06-04T09:08:18.000Z</time>
      </trkpt>
      <trkpt lat="43.42174437828361988067626953125" lon="-5.67241500131785869598388671875">
        <ele>363.600006103515625</ele>
        <time>2022-06-04T09:08:19.000Z</time>
      </trkpt>
      <trkpt lat="43.42171621508896350860595703125" lon="-5.672390274703502655029296875">
        <ele>363.600006103515625</ele>
        <time>2022-06-04T09:08:21.000Z</time>
      </trkpt>
      <trkpt lat="43.42168369330465793609619140625" lon="-5.67237208597362041473388671875">
        <ele>363.79998779296875</ele>
        <time>2022-06-04T09:08:23.000Z</time>
      </trkpt>
      <trkpt lat="43.42165066860616207122802734375" lon="-5.6723595969378948211669921875">
        <ele>363.79998779296875</ele>
        <time>2022-06-04T09:08:25.000Z</time>
      </trkpt>
      <trkpt lat="43.42161588370800018310546875" lon="-5.67235901020467281341552734375">
        <ele>364</ele>
        <time>2022-06-04T09:08:27.000Z</time>
      </trkpt>
      <trkpt lat="43.4215811826288700103759765625" lon="-5.6723664700984954833984375">
        <ele>364</ele>
        <time>2022-06-04T09:08:29.000Z</time>
      </trkpt>
      <trkpt lat="43.421563915908336639404296875" lon="-5.6723726727068424224853515625">
        <ele>364.20001220703125</ele>
        <time>2022-06-04T09:08:30.000Z</time>
      </trkpt>
      <trkpt lat="43.4215473197400569915771484375" lon="-5.672379545867443084716796875">
        <ele>364.399993896484375</ele>
        <time>2022-06-04T09:08:31.000Z</time>
      </trkpt>
      <trkpt lat="43.42153063975274562835693359375" lon="-5.67238650284707546234130859375">
        <ele>364.399993896484375</ele>
        <time>2022-06-04T09:08:32.000Z</time>
      </trkpt>
      <trkpt lat="43.42151404358446598052978515625" lon="-5.6723958067595958709716796875">
        <ele>364.600006103515625</ele>
        <time>2022-06-04T09:08:33.000Z</time>
      </trkpt>
      <trkpt lat="43.4214811027050018310546875" lon="-5.67241265438497066497802734375">
        <ele>364.79998779296875</ele>
        <time>2022-06-04T09:08:35.000Z</time>
      </trkpt>
      <trkpt lat="43.4214460663497447967529296875" lon="-5.6724316813051700592041015625">
        <ele>365</ele>
        <time>2022-06-04T09:08:37.000Z</time>
      </trkpt>
      <trkpt lat="43.4214282967150211334228515625" lon="-5.672442913055419921875">
        <ele>365.20001220703125</ele>
        <time>2022-06-04T09:08:38.000Z</time>
      </trkpt>
      <trkpt lat="43.42141094617545604705810546875" lon="-5.67245422862470149993896484375">
        <ele>365.20001220703125</ele>
        <time>2022-06-04T09:08:39.000Z</time>
      </trkpt>
      <trkpt lat="43.42137850821018218994140625" lon="-5.67247300408780574798583984375">
        <ele>365.600006103515625</ele>
        <time>2022-06-04T09:08:41.000Z</time>
      </trkpt>
      <trkpt lat="43.4213464893400669097900390625" lon="-5.6724893487989902496337890625">
        <ele>366</ele>
        <time>2022-06-04T09:08:43.000Z</time>
      </trkpt>
      <trkpt lat="43.42131304554641246795654296875" lon="-5.67250661551952362060546875">
        <ele>366.399993896484375</ele>
        <time>2022-06-04T09:08:45.000Z</time>
      </trkpt>
      <trkpt lat="43.42128152959048748016357421875" lon="-5.67252161912620067596435546875">
        <ele>366.600006103515625</ele>
        <time>2022-06-04T09:08:47.000Z</time>
      </trkpt>
      <trkpt lat="43.42126610688865184783935546875" lon="-5.67252949811518192291259765625">
        <ele>366.79998779296875</ele>
        <time>2022-06-04T09:08:48.000Z</time>
      </trkpt>
      <trkpt lat="43.4212502650916576385498046875" lon="-5.67253704182803630828857421875">
        <ele>367</ele>
        <time>2022-06-04T09:08:49.000Z</time>
      </trkpt>
      <trkpt lat="43.42121816240251064300537109375" lon="-5.67254818975925445556640625">
        <ele>367.399993896484375</ele>
        <time>2022-06-04T09:08:51.000Z</time>
      </trkpt>
      <trkpt lat="43.4211879037320613861083984375" lon="-5.6725604273378849029541015625">
        <ele>367.79998779296875</ele>
        <time>2022-06-04T09:08:53.000Z</time>
      </trkpt>
      <trkpt lat="43.42117390595376491546630859375" lon="-5.67256621085107326507568359375">
        <ele>368</ele>
        <time>2022-06-04T09:08:54.000Z</time>
      </trkpt>
      <trkpt lat="43.42115798033773899078369140625" lon="-5.6725731678307056427001953125">
        <ele>368.20001220703125</ele>
        <time>2022-06-04T09:08:55.000Z</time>
      </trkpt>
      <trkpt lat="43.42114188708364963531494140625" lon="-5.67258029244840145111083984375">
        <ele>368.20001220703125</ele>
        <time>2022-06-04T09:08:56.000Z</time>
      </trkpt>
      <trkpt lat="43.421125710010528564453125" lon="-5.67258574068546295166015625">
        <ele>368.399993896484375</ele>
        <time>2022-06-04T09:08:57.000Z</time>
      </trkpt>
      <trkpt lat="43.42109243385493755340576171875" lon="-5.6726009957492351531982421875">
        <ele>368.79998779296875</ele>
        <time>2022-06-04T09:08:59.000Z</time>
      </trkpt>
      <trkpt lat="43.4210762567818164825439453125" lon="-5.67260853946208953857421875">
        <ele>369</ele>
        <time>2022-06-04T09:09:00.000Z</time>
      </trkpt>
      <trkpt lat="43.4210599958896636962890625" lon="-5.6726167537271976470947265625">
        <ele>369</ele>
        <time>2022-06-04T09:09:01.000Z</time>
      </trkpt>
      <trkpt lat="43.421029150485992431640625" lon="-5.67263678647577762603759765625">
        <ele>369.399993896484375</ele>
        <time>2022-06-04T09:09:03.000Z</time>
      </trkpt>
      <trkpt lat="43.42101431451737880706787109375" lon="-5.6726445816457271575927734375">
        <ele>369.600006103515625</ele>
        <time>2022-06-04T09:09:04.000Z</time>
      </trkpt>
      <trkpt lat="43.42099956236779689788818359375" lon="-5.67265053279697895050048828125">
        <ele>369.79998779296875</ele>
        <time>2022-06-04T09:09:05.000Z</time>
      </trkpt>
      <trkpt lat="43.42096905224025249481201171875" lon="-5.67266084253787994384765625">
        <ele>370.20001220703125</ele>
        <time>2022-06-04T09:09:07.000Z</time>
      </trkpt>
      <trkpt lat="43.42093862593173980712890625" lon="-5.67266486585140228271484375">
        <ele>370.600006103515625</ele>
        <time>2022-06-04T09:09:09.000Z</time>
      </trkpt>
      <trkpt lat="43.4209086187183856964111328125" lon="-5.6726596690714359283447265625">
        <ele>371</ele>
        <time>2022-06-04T09:09:11.000Z</time>
      </trkpt>
      <trkpt lat="43.42089436948299407958984375" lon="-5.672651119530200958251953125">
        <ele>371.20001220703125</ele>
        <time>2022-06-04T09:09:12.000Z</time>
      </trkpt>
      <trkpt lat="43.4208781085908412933349609375" lon="-5.672640390694141387939453125">
        <ele>371.399993896484375</ele>
        <time>2022-06-04T09:09:13.000Z</time>
      </trkpt>
      <trkpt lat="43.420845754444599151611328125" lon="-5.67262195050716400146484375">
        <ele>371.600006103515625</ele>
        <time>2022-06-04T09:09:15.000Z</time>
      </trkpt>
      <trkpt lat="43.42081214301288127899169921875" lon="-5.6726078689098358154296875">
        <ele>371.79998779296875</ele>
        <time>2022-06-04T09:09:17.000Z</time>
      </trkpt>
      <trkpt lat="43.42077727429568767547607421875" lon="-5.67259839735925197601318359375">
        <ele>372</ele>
        <time>2022-06-04T09:09:19.000Z</time>
      </trkpt>
      <trkpt lat="43.420741818845272064208984375" lon="-5.6725916080176830291748046875">
        <ele>372.399993896484375</ele>
        <time>2022-06-04T09:09:21.000Z</time>
      </trkpt>
      <trkpt lat="43.42072681523859500885009765625" lon="-5.67258817143738269805908203125">
        <ele>372.399993896484375</ele>
        <time>2022-06-04T09:09:22.000Z</time>
      </trkpt>
      <trkpt lat="43.42071172781288623809814453125" lon="-5.672584064304828643798828125">
        <ele>372.600006103515625</ele>
        <time>2022-06-04T09:09:23.000Z</time>
      </trkpt>
      <trkpt lat="43.42067384161055088043212890625" lon="-5.6725657917559146881103515625">
        <ele>372.79998779296875</ele>
        <time>2022-06-04T09:09:25.000Z</time>
      </trkpt>
      <trkpt lat="43.42062958516180515289306640625" lon="-5.6725322641432285308837890625">
        <ele>373.20001220703125</ele>
        <time>2022-06-04T09:09:27.000Z</time>
      </trkpt>
      <trkpt lat="43.420608043670654296875" lon="-5.6725180149078369140625">
        <ele>373.20001220703125</ele>
        <time>2022-06-04T09:09:28.000Z</time>
      </trkpt>
      <trkpt lat="43.42058549635112285614013671875" lon="-5.6725051067769527435302734375">
        <ele>373.20001220703125</ele>
        <time>2022-06-04T09:09:29.000Z</time>
      </trkpt>
      <trkpt lat="43.42054123990237712860107421875" lon="-5.67247979342937469482421875">
        <ele>373.600006103515625</ele>
        <time>2022-06-04T09:09:31.000Z</time>
      </trkpt>
      <trkpt lat="43.4204994142055511474609375" lon="-5.67245841957628726959228515625">
        <ele>373.79998779296875</ele>
        <time>2022-06-04T09:09:33.000Z</time>
      </trkpt>
      <trkpt lat="43.42045540921390056610107421875" lon="-5.67243545316159725189208984375">
        <ele>374</ele>
        <time>2022-06-04T09:09:35.000Z</time>
      </trkpt>
      <trkpt lat="43.42041450552642345428466796875" lon="-5.67242019809782505035400390625">
        <ele>374.20001220703125</ele>
        <time>2022-06-04T09:09:37.000Z</time>
      </trkpt>
      <trkpt lat="43.42037796042859554290771484375" lon="-5.67241248674690723419189453125">
        <ele>374.20001220703125</ele>
        <time>2022-06-04T09:09:39.000Z</time>
      </trkpt>
      <trkpt lat="43.42033990658819675445556640625" lon="-5.6724021770060062408447265625">
        <ele>374.399993896484375</ele>
        <time>2022-06-04T09:09:41.000Z</time>
      </trkpt>
      <trkpt lat="43.42030453495681285858154296875" lon="-5.67239119671285152435302734375">
        <ele>374.399993896484375</ele>
        <time>2022-06-04T09:09:43.000Z</time>
      </trkpt>
      <trkpt lat="43.4202853403985500335693359375" lon="-5.67238013260066509246826171875">
        <ele>374.600006103515625</ele>
        <time>2022-06-04T09:09:44.000Z</time>
      </trkpt>
      <trkpt lat="43.42026514001190662384033203125" lon="-5.67237057723104953765869140625">
        <ele>374.600006103515625</ele>
        <time>2022-06-04T09:09:45.000Z</time>
      </trkpt>
      <trkpt lat="43.42022608034312725067138671875" lon="-5.67235280759632587432861328125">
        <ele>374.79998779296875</ele>
        <time>2022-06-04T09:09:47.000Z</time>
      </trkpt>
      <trkpt lat="43.42018500901758670806884765625" lon="-5.67232816480100154876708984375">
        <ele>375</ele>
        <time>2022-06-04T09:09:49.000Z</time>
      </trkpt>
      <trkpt lat="43.42016388662159442901611328125" lon="-5.6723119877278804779052734375">
        <ele>375.20001220703125</ele>
        <time>2022-06-04T09:09:50.000Z</time>
      </trkpt>
      <trkpt lat="43.42013991437852382659912109375" lon="-5.6722965650260448455810546875">
        <ele>375.399993896484375</ele>
        <time>2022-06-04T09:09:51.000Z</time>
      </trkpt>
      <trkpt lat="43.420085012912750244140625" lon="-5.6722616963088512420654296875">
        <ele>375.600006103515625</ele>
        <time>2022-06-04T09:09:53.000Z</time>
      </trkpt>
      <trkpt lat="43.42005475424230098724365234375" lon="-5.6722449325025081634521484375">
        <ele>375.600006103515625</ele>
        <time>2022-06-04T09:09:54.000Z</time>
      </trkpt>
      <trkpt lat="43.42002390883862972259521484375" lon="-5.67222976125776767730712890625">
        <ele>375.600006103515625</ele>
        <time>2022-06-04T09:09:55.000Z</time>
      </trkpt>
      <trkpt lat="43.4199946559965610504150390625" lon="-5.6722191162407398223876953125">
        <ele>375.79998779296875</ele>
        <time>2022-06-04T09:09:56.000Z</time>
      </trkpt>
      <trkpt lat="43.41996691189706325531005859375" lon="-5.672204531729221343994140625">
        <ele>375.79998779296875</ele>
        <time>2022-06-04T09:09:57.000Z</time>
      </trkpt>
      <trkpt lat="43.41991092078387737274169921875" lon="-5.6721852533519268035888671875">
        <ele>375.79998779296875</ele>
        <time>2022-06-04T09:09:59.000Z</time>
      </trkpt>
      <trkpt lat="43.41985643841326236724853515625" lon="-5.6721617840230464935302734375">
        <ele>375.79998779296875</ele>
        <time>2022-06-04T09:10:01.000Z</time>
      </trkpt>
      <trkpt lat="43.419797010719776153564453125" lon="-5.672138817608356475830078125">
        <ele>375.79998779296875</ele>
        <time>2022-06-04T09:10:03.000Z</time>
      </trkpt>
      <trkpt lat="43.4197274409234523773193359375" lon="-5.67209950648248195648193359375">
        <ele>375.600006103515625</ele>
        <time>2022-06-04T09:10:05.000Z</time>
      </trkpt>
      <trkpt lat="43.41963867656886577606201171875" lon="-5.67203697748482227325439453125">
        <ele>375.600006103515625</ele>
        <time>2022-06-04T09:10:07.000Z</time>
      </trkpt>
      <trkpt lat="43.41953809373080730438232421875" lon="-5.67197696305811405181884765625">
        <ele>375.399993896484375</ele>
        <time>2022-06-04T09:10:09.000Z</time>
      </trkpt>
      <trkpt lat="43.419492244720458984375" lon="-5.67195064388215541839599609375">
        <ele>375.399993896484375</ele>
        <time>2022-06-04T09:10:10.000Z</time>
      </trkpt>
      <trkpt lat="43.4194437973201274871826171875" lon="-5.6719239056110382080078125">
        <ele>375.20001220703125</ele>
        <time>2022-06-04T09:10:11.000Z</time>
      </trkpt>
      <trkpt lat="43.41933860443532466888427734375" lon="-5.67188610322773456573486328125">
        <ele>374.79998779296875</ele>
        <time>2022-06-04T09:10:13.000Z</time>
      </trkpt>
      <trkpt lat="43.41928613372147083282470703125" lon="-5.67187629640102386474609375">
        <ele>374.600006103515625</ele>
        <time>2022-06-04T09:10:14.000Z</time>
      </trkpt>
      <trkpt lat="43.41923550702631473541259765625" lon="-5.67186984233558177947998046875">
        <ele>374.399993896484375</ele>
        <time>2022-06-04T09:10:15.000Z</time>
      </trkpt>
      <trkpt lat="43.41918588615953922271728515625" lon="-5.671865902841091156005859375">
        <ele>374.20001220703125</ele>
        <time>2022-06-04T09:10:16.000Z</time>
      </trkpt>
      <trkpt lat="43.4191380254924297332763671875" lon="-5.6718648970127105712890625">
        <ele>374</ele>
        <time>2022-06-04T09:10:17.000Z</time>
      </trkpt>
      <trkpt lat="43.419034592807292938232421875" lon="-5.67185617983341217041015625">
        <ele>373.600006103515625</ele>
        <time>2022-06-04T09:10:19.000Z</time>
      </trkpt>
      <trkpt lat="43.41897482983767986297607421875" lon="-5.6718412600457668304443359375">
        <ele>373.399993896484375</ele>
        <time>2022-06-04T09:10:20.000Z</time>
      </trkpt>
      <trkpt lat="43.41890760697424411773681640625" lon="-5.67182139493525028228759765625">
        <ele>373.399993896484375</ele>
        <time>2022-06-04T09:10:21.000Z</time>
      </trkpt>
      <trkpt lat="43.418832756578922271728515625" lon="-5.67180479876697063446044921875">
        <ele>373.20001220703125</ele>
        <time>2022-06-04T09:10:22.000Z</time>
      </trkpt>
      <trkpt lat="43.41875220648944377899169921875" lon="-5.67179373465478420257568359375">
        <ele>373.20001220703125</ele>
        <time>2022-06-04T09:10:23.000Z</time>
      </trkpt>
      <trkpt lat="43.4186696447432041168212890625" lon="-5.67179088480770587921142578125">
        <ele>373.20001220703125</ele>
        <time>2022-06-04T09:10:24.000Z</time>
      </trkpt>
      <trkpt lat="43.41859060339629650115966796875" lon="-5.6717939861118793487548828125">
        <ele>373</ele>
        <time>2022-06-04T09:10:25.000Z</time>
      </trkpt>
      <trkpt lat="43.41843771748244762420654296875" lon="-5.67181871272623538970947265625">
        <ele>372.20001220703125</ele>
        <time>2022-06-04T09:10:27.000Z</time>
      </trkpt>
      <trkpt lat="43.41830243356525897979736328125" lon="-5.671902783215045928955078125">
        <ele>371.399993896484375</ele>
        <time>2022-06-04T09:10:29.000Z</time>
      </trkpt>
      <trkpt lat="43.41826102696359157562255859375" lon="-5.67197226919233798980712890625">
        <ele>370.79998779296875</ele>
        <time>2022-06-04T09:10:30.000Z</time>
      </trkpt>
      <trkpt lat="43.41823118738830089569091796875" lon="-5.67205407656729221343994140625">
        <ele>370</ele>
        <time>2022-06-04T09:10:31.000Z</time>
      </trkpt>
      <trkpt lat="43.418203778564929962158203125" lon="-5.672138147056102752685546875">
        <ele>369.20001220703125</ele>
        <time>2022-06-04T09:10:32.000Z</time>
      </trkpt>
      <trkpt lat="43.41817704029381275177001953125" lon="-5.672222636640071868896484375">
        <ele>368.20001220703125</ele>
        <time>2022-06-04T09:10:33.000Z</time>
      </trkpt>
      <trkpt lat="43.418149463832378387451171875" lon="-5.67230301909148693084716796875">
        <ele>366.79998779296875</ele>
        <time>2022-06-04T09:10:34.000Z</time>
      </trkpt>
      <trkpt lat="43.4181238152086734771728515625" lon="-5.67238348536193370819091796875">
        <ele>365.79998779296875</ele>
        <time>2022-06-04T09:10:35.000Z</time>
      </trkpt>
      <trkpt lat="43.41808081604540348052978515625" lon="-5.672540478408336639404296875">
        <ele>364.399993896484375</ele>
        <time>2022-06-04T09:10:37.000Z</time>
      </trkpt>
      <trkpt lat="43.41805927455425262451171875" lon="-5.67261817865073680877685546875">
        <ele>363.600006103515625</ele>
        <time>2022-06-04T09:10:38.000Z</time>
      </trkpt>
      <trkpt lat="43.418036811053752899169921875" lon="-5.672692693769931793212890625">
        <ele>363.20001220703125</ele>
        <time>2022-06-04T09:10:39.000Z</time>
      </trkpt>
      <trkpt lat="43.4180076420307159423828125" lon="-5.6727585755288600921630859375">
        <ele>362.79998779296875</ele>
        <time>2022-06-04T09:10:40.000Z</time>
      </trkpt>
      <trkpt lat="43.41797201894223690032958984375" lon="-5.6728105433285236358642578125">
        <ele>362.600006103515625</ele>
        <time>2022-06-04T09:10:41.000Z</time>
      </trkpt>
      <trkpt lat="43.417934216558933258056640625" lon="-5.6728514470160007476806640625">
        <ele>362.600006103515625</ele>
        <time>2022-06-04T09:10:42.000Z</time>
      </trkpt>
      <trkpt lat="43.417894653975963592529296875" lon="-5.672885477542877197265625">
        <ele>362.399993896484375</ele>
        <time>2022-06-04T09:10:43.000Z</time>
      </trkpt>
      <trkpt lat="43.4178304485976696014404296875" lon="-5.672928728163242340087890625">
        <ele>362</ele>
        <time>2022-06-04T09:10:45.000Z</time>
      </trkpt>
      <trkpt lat="43.41781192459166049957275390625" lon="-5.67293903790414333343505859375">
        <ele>362</ele>
        <time>2022-06-04T09:10:46.000Z</time>
      </trkpt>
      <trkpt lat="43.417799435555934906005859375" lon="-5.672947503626346588134765625">
        <ele>362</ele>
        <time>2022-06-04T09:10:47.000Z</time>
      </trkpt>
      <trkpt lat="43.41778962872922420501708984375" lon="-5.672965608537197113037109375">
        <ele>361.79998779296875</ele>
        <time>2022-06-04T09:10:49.000Z</time>
      </trkpt>
      <trkpt lat="43.417789041996002197265625" lon="-5.67297927103936672210693359375">
        <ele>361.79998779296875</ele>
        <time>2022-06-04T09:10:50.000Z</time>
      </trkpt>
      <trkpt lat="43.41779348440468311309814453125" lon="-5.6729919277131557464599609375">
        <ele>361.79998779296875</ele>
        <time>2022-06-04T09:10:51.000Z</time>
      </trkpt>
      <trkpt lat="43.41781360097229480743408203125" lon="-5.67299670539796352386474609375">
        <ele>361.79998779296875</ele>
        <time>2022-06-04T09:10:53.000Z</time>
      </trkpt>
      <trkpt lat="43.417824916541576385498046875" lon="-5.67297072149813175201416015625">
        <ele>361.600006103515625</ele>
        <time>2022-06-04T09:10:55.000Z</time>
      </trkpt>
      <trkpt lat="43.4178277663886547088623046875" lon="-5.67293769679963588714599609375">
        <ele>361.600006103515625</ele>
        <time>2022-06-04T09:10:57.000Z</time>
      </trkpt>
      <trkpt lat="43.4178032912313938140869140625" lon="-5.67292110063135623931884765625">
        <ele>361.600006103515625</ele>
        <time>2022-06-04T09:10:59.000Z</time>
      </trkpt>
      <trkpt lat="43.41778091154992580413818359375" lon="-5.6729218550026416778564453125">
        <ele>361.600006103515625</ele>
        <time>2022-06-04T09:11:01.000Z</time>
      </trkpt>
      <trkpt lat="43.41777320019900798797607421875" lon="-5.67293283529579639434814453125">
        <ele>361.600006103515625</ele>
        <time>2022-06-04T09:11:02.000Z</time>
      </trkpt>
      <trkpt lat="43.41777135618031024932861328125" lon="-5.67295177839696407318115234375">
        <ele>361.600006103515625</ele>
        <time>2022-06-04T09:11:03.000Z</time>
      </trkpt>
      <trkpt lat="43.417779318988323211669921875" lon="-5.67298002541065216064453125">
        <ele>361.600006103515625</ele>
        <time>2022-06-04T09:11:04.000Z</time>
      </trkpt>
      <trkpt lat="43.41778661124408245086669921875" lon="-5.67301346920430660247802734375">
        <ele>361.600006103515625</ele>
        <time>2022-06-04T09:11:05.000Z</time>
      </trkpt>
      <trkpt lat="43.4177972562611103057861328125" lon="-5.6731025688350200653076171875">
        <ele>361.600006103515625</ele>
        <time>2022-06-04T09:11:07.000Z</time>
      </trkpt>
      <trkpt lat="43.41780404560267925262451171875" lon="-5.673190243542194366455078125">
        <ele>361.399993896484375</ele>
        <time>2022-06-04T09:11:09.000Z</time>
      </trkpt>
      <trkpt lat="43.41780739836394786834716796875" lon="-5.67323215305805206298828125">
        <ele>361.399993896484375</ele>
        <time>2022-06-04T09:11:10.000Z</time>
      </trkpt>
      <trkpt lat="43.41780823655426502227783203125" lon="-5.67327247001230716705322265625">
        <ele>361.399993896484375</ele>
        <time>2022-06-04T09:11:11.000Z</time>
      </trkpt>
      <trkpt lat="43.4178078174591064453125" lon="-5.67334949970245361328125">
        <ele>361.399993896484375</ele>
        <time>2022-06-04T09:11:13.000Z</time>
      </trkpt>
      <trkpt lat="43.417802788317203521728515625" lon="-5.67342937923967838287353515625">
        <ele>361.600006103515625</ele>
        <time>2022-06-04T09:11:15.000Z</time>
      </trkpt>
      <trkpt lat="43.41779951937496662139892578125" lon="-5.67346818745136260986328125">
        <ele>361.600006103515625</ele>
        <time>2022-06-04T09:11:16.000Z</time>
      </trkpt>
      <trkpt lat="43.4177952446043491363525390625" lon="-5.67350565455853939056396484375">
        <ele>361.600006103515625</ele>
        <time>2022-06-04T09:11:17.000Z</time>
      </trkpt>
      <trkpt lat="43.41777236200869083404541015625" lon="-5.67357840947806835174560546875">
        <ele>362</ele>
        <time>2022-06-04T09:11:19.000Z</time>
      </trkpt>
      <trkpt lat="43.417739756405353546142578125" lon="-5.67365200258791446685791015625">
        <ele>362.20001220703125</ele>
        <time>2022-06-04T09:11:21.000Z</time>
      </trkpt>
      <trkpt lat="43.41772156767547130584716796875" lon="-5.67369005642831325531005859375">
        <ele>362.399993896484375</ele>
        <time>2022-06-04T09:11:22.000Z</time>
      </trkpt>
      <trkpt lat="43.417703546583652496337890625" lon="-5.67372928373515605926513671875">
        <ele>362.600006103515625</ele>
        <time>2022-06-04T09:11:23.000Z</time>
      </trkpt>
      <trkpt lat="43.41766138561069965362548828125" lon="-5.6738180480897426605224609375">
        <ele>363.20001220703125</ele>
        <time>2022-06-04T09:11:25.000Z</time>
      </trkpt>
      <trkpt lat="43.4176188893616199493408203125" lon="-5.67392525263130664825439453125">
        <ele>363.600006103515625</ele>
        <time>2022-06-04T09:11:27.000Z</time>
      </trkpt>
      <trkpt lat="43.417601287364959716796875" lon="-5.67398585379123687744140625">
        <ele>363.79998779296875</ele>
        <time>2022-06-04T09:11:28.000Z</time>
      </trkpt>
      <trkpt lat="43.41758745722472667694091796875" lon="-5.67404595203697681427001953125">
        <ele>363.79998779296875</ele>
        <time>2022-06-04T09:11:29.000Z</time>
      </trkpt>
      <trkpt lat="43.4175709448754787445068359375" lon="-5.67416748963296413421630859375">
        <ele>363.79998779296875</ele>
        <time>2022-06-04T09:11:31.000Z</time>
      </trkpt>
      <trkpt lat="43.417554013431072235107421875" lon="-5.6742824055254459381103515625">
        <ele>364</ele>
        <time>2022-06-04T09:11:33.000Z</time>
      </trkpt>
      <trkpt lat="43.417547307908535003662109375" lon="-5.67433319985866546630859375">
        <ele>364</ele>
        <time>2022-06-04T09:11:34.000Z</time>
      </trkpt>
      <trkpt lat="43.417539261281490325927734375" lon="-5.6743917055428028106689453125">
        <ele>364</ele>
        <time>2022-06-04T09:11:35.000Z</time>
      </trkpt>
      <trkpt lat="43.41752006672322750091552734375" lon="-5.67451785318553447723388671875">
        <ele>364</ele>
        <time>2022-06-04T09:11:37.000Z</time>
      </trkpt>
      <trkpt lat="43.41749592684209346771240234375" lon="-5.67463352344930171966552734375">
        <ele>364</ele>
        <time>2022-06-04T09:11:39.000Z</time>
      </trkpt>
      <trkpt lat="43.41748150996863842010498046875" lon="-5.6746877543628215789794921875">
        <ele>364</ele>
        <time>2022-06-04T09:11:40.000Z</time>
      </trkpt>
      <trkpt lat="43.41746927239000797271728515625" lon="-5.67473393864929676055908203125">
        <ele>364</ele>
        <time>2022-06-04T09:11:41.000Z</time>
      </trkpt>
      <trkpt lat="43.417446725070476531982421875" lon="-5.67481943406164646148681640625">
        <ele>364</ele>
        <time>2022-06-04T09:11:43.000Z</time>
      </trkpt>
      <trkpt lat="43.4174210764467716217041015625" lon="-5.67490593530237674713134765625">
        <ele>364.20001220703125</ele>
        <time>2022-06-04T09:11:45.000Z</time>
      </trkpt>
      <trkpt lat="43.41740942560136318206787109375" lon="-5.67495086230337619781494140625">
        <ele>364.399993896484375</ele>
        <time>2022-06-04T09:11:46.000Z</time>
      </trkpt>
      <trkpt lat="43.41739811003208160400390625" lon="-5.67499595694243907928466796875">
        <ele>364.600006103515625</ele>
        <time>2022-06-04T09:11:47.000Z</time>
      </trkpt>
      <trkpt lat="43.41737262904644012451171875" lon="-5.675096623599529266357421875">
        <ele>365.399993896484375</ele>
        <time>2022-06-04T09:11:49.000Z</time>
      </trkpt>
      <trkpt lat="43.417362906038761138916015625" lon="-5.6751487590372562408447265625">
        <ele>365.79998779296875</ele>
        <time>2022-06-04T09:11:50.000Z</time>
      </trkpt>
      <trkpt lat="43.417352177202701568603515625" lon="-5.6752054207026958465576171875">
        <ele>366</ele>
        <time>2022-06-04T09:11:51.000Z</time>
      </trkpt>
      <trkpt lat="43.41732996515929698944091796875" lon="-5.675329975783824920654296875">
        <ele>366.20001220703125</ele>
        <time>2022-06-04T09:11:53.000Z</time>
      </trkpt>
      <trkpt lat="43.4173094294965267181396484375" lon="-5.675463415682315826416015625">
        <ele>366.399993896484375</ele>
        <time>2022-06-04T09:11:55.000Z</time>
      </trkpt>
      <trkpt lat="43.41730347834527492523193359375" lon="-5.67553474567830562591552734375">
        <ele>366.399993896484375</ele>
        <time>2022-06-04T09:11:56.000Z</time>
      </trkpt>
      <trkpt lat="43.4172993712127208709716796875" lon="-5.67560724914073944091796875">
        <ele>366.399993896484375</ele>
        <time>2022-06-04T09:11:57.000Z</time>
      </trkpt>
      <trkpt lat="43.4172950126230716705322265625" lon="-5.67575334571301937103271484375">
        <ele>366.399993896484375</ele>
        <time>2022-06-04T09:11:59.000Z</time>
      </trkpt>
      <trkpt lat="43.41729107312858104705810546875" lon="-5.67590497434139251708984375">
        <ele>366.399993896484375</ele>
        <time>2022-06-04T09:12:01.000Z</time>
      </trkpt>
      <trkpt lat="43.41729409061372280120849609375" lon="-5.6760679185390472412109375">
        <ele>366.399993896484375</ele>
        <time>2022-06-04T09:12:03.000Z</time>
      </trkpt>
      <trkpt lat="43.4172983653843402862548828125" lon="-5.67623916082084178924560546875">
        <ele>366.399993896484375</ele>
        <time>2022-06-04T09:12:05.000Z</time>
      </trkpt>
      <trkpt lat="43.4173127822577953338623046875" lon="-5.67641501314938068389892578125">
        <ele>366.20001220703125</ele>
        <time>2022-06-04T09:12:07.000Z</time>
      </trkpt>
      <trkpt lat="43.41731739230453968048095703125" lon="-5.67650184966623783111572265625">
        <ele>366.20001220703125</ele>
        <time>2022-06-04T09:12:08.000Z</time>
      </trkpt>
      <trkpt lat="43.417322002351284027099609375" lon="-5.6765870936214923858642578125">
        <ele>366</ele>
        <time>2022-06-04T09:12:09.000Z</time>
      </trkpt>
      <trkpt lat="43.41731957159936428070068359375" lon="-5.67666764371097087860107421875">
        <ele>365.79998779296875</ele>
        <time>2022-06-04T09:12:10.000Z</time>
      </trkpt>
      <trkpt lat="43.41730155050754547119140625" lon="-5.67674140445888042449951171875">
        <ele>365.600006103515625</ele>
        <time>2022-06-04T09:12:11.000Z</time>
      </trkpt>
      <trkpt lat="43.4172691963613033294677734375" lon="-5.67681265063583850860595703125">
        <ele>365.20001220703125</ele>
        <time>2022-06-04T09:12:12.000Z</time>
      </trkpt>
      <trkpt lat="43.41723089106380939483642578125" lon="-5.67688708193600177764892578125">
        <ele>364.79998779296875</ele>
        <time>2022-06-04T09:12:13.000Z</time>
      </trkpt>
      <trkpt lat="43.4171924181282520294189453125" lon="-5.67697048187255859375">
        <ele>364.79998779296875</ele>
        <time>2022-06-04T09:12:14.000Z</time>
      </trkpt>
      <trkpt lat="43.417155705392360687255859375" lon="-5.6770608387887477874755859375">
        <ele>364.600006103515625</ele>
        <time>2022-06-04T09:12:15.000Z</time>
      </trkpt>
      <trkpt lat="43.41711941175162792205810546875" lon="-5.6771550513803958892822265625">
        <ele>364.20001220703125</ele>
        <time>2022-06-04T09:12:16.000Z</time>
      </trkpt>
      <trkpt lat="43.4170822799205780029296875" lon="-5.67725504748523235321044921875">
        <ele>364</ele>
        <time>2022-06-04T09:12:17.000Z</time>
      </trkpt>
      <trkpt lat="43.41701455414295196533203125" lon="-5.67747498862445354461669921875">
        <ele>363.399993896484375</ele>
        <time>2022-06-04T09:12:19.000Z</time>
      </trkpt>
      <trkpt lat="43.416951857507228851318359375" lon="-5.677713789045810699462890625">
        <ele>362.399993896484375</ele>
        <time>2022-06-04T09:12:21.000Z</time>
      </trkpt>
      <trkpt lat="43.41692981310188770294189453125" lon="-5.6778353266417980194091796875">
        <ele>361.600006103515625</ele>
        <time>2022-06-04T09:12:22.000Z</time>
      </trkpt>
      <trkpt lat="43.41691237874329090118408203125" lon="-5.6779553554952144622802734375">
        <ele>361</ele>
        <time>2022-06-04T09:12:23.000Z</time>
      </trkpt>
      <trkpt lat="43.41685018502175807952880859375" lon="-5.678167082369327545166015625">
        <ele>360</ele>
        <time>2022-06-04T09:12:24.000Z</time>
      </trkpt>
      <trkpt lat="43.41685018502175807952880859375" lon="-5.678167082369327545166015625">
        <ele>359.399993896484375</ele>
        <time>2022-06-04T09:12:25.000Z</time>
      </trkpt>
      <trkpt lat="43.41680425219237804412841796875" lon="-5.6782571040093898773193359375">
        <ele>358.79998779296875</ele>
        <time>2022-06-04T09:12:26.000Z</time>
      </trkpt>
      <trkpt lat="43.41675396077334880828857421875" lon="-5.67834444344043731689453125">
        <ele>358</ele>
        <time>2022-06-04T09:12:27.000Z</time>
      </trkpt>
      <trkpt lat="43.41669537127017974853515625" lon="-5.678433291614055633544921875">
        <ele>357.399993896484375</ele>
        <time>2022-06-04T09:12:28.000Z</time>
      </trkpt>
      <trkpt lat="43.41663443483412265777587890625" lon="-5.6785169430077075958251953125">
        <ele>356.600006103515625</ele>
        <time>2022-06-04T09:12:29.000Z</time>
      </trkpt>
      <trkpt lat="43.4165275655686855316162109375" lon="-5.6786711700260639190673828125">
        <ele>355.79998779296875</ele>
        <time>2022-06-04T09:12:30.000Z</time>
      </trkpt>
      <trkpt lat="43.4165275655686855316162109375" lon="-5.6786711700260639190673828125">
        <ele>355</ele>
        <time>2022-06-04T09:12:31.000Z</time>
      </trkpt>
      <trkpt lat="43.41647316701710224151611328125" lon="-5.678743757307529449462890625">
        <ele>354.20001220703125</ele>
        <time>2022-06-04T09:12:32.000Z</time>
      </trkpt>
      <trkpt lat="43.416412062942981719970703125" lon="-5.6788203679025173187255859375">
        <ele>353.20001220703125</ele>
        <time>2022-06-04T09:12:33.000Z</time>
      </trkpt>
      <trkpt lat="43.416287004947662353515625" lon="-5.6789749301970005035400390625">
        <ele>352</ele>
        <time>2022-06-04T09:12:34.000Z</time>
      </trkpt>
      <trkpt lat="43.416287004947662353515625" lon="-5.6789749301970005035400390625">
        <ele>351</ele>
        <time>2022-06-04T09:12:35.000Z</time>
      </trkpt>
      <trkpt lat="43.4161419980227947235107421875" lon="-5.67911080084741115570068359375">
        <ele>350.20001220703125</ele>
        <time>2022-06-04T09:12:36.000Z</time>
      </trkpt>
      <trkpt lat="43.4161419980227947235107421875" lon="-5.67911080084741115570068359375">
        <ele>349.399993896484375</ele>
        <time>2022-06-04T09:12:37.000Z</time>
      </trkpt>
      <trkpt lat="43.41606832109391689300537109375" lon="-5.67915673367679119110107421875">
        <ele>348.20001220703125</ele>
        <time>2022-06-04T09:12:38.000Z</time>
      </trkpt>
      <trkpt lat="43.4159924648702144622802734375" lon="-5.6791901774704456329345703125">
        <ele>346.79998779296875</ele>
        <time>2022-06-04T09:12:39.000Z</time>
      </trkpt>
      <trkpt lat="43.41583840548992156982421875" lon="-5.6792324222624301910400390625">
        <ele>344.600006103515625</ele>
        <time>2022-06-04T09:12:40.000Z</time>
      </trkpt>
      <trkpt lat="43.41576389037072658538818359375" lon="-5.67924960516393184661865234375">
        <ele>343.600006103515625</ele>
        <time>2022-06-04T09:12:41.000Z</time>
      </trkpt>
      <trkpt lat="43.41576389037072658538818359375" lon="-5.67924960516393184661865234375">
        <ele>342.600006103515625</ele>
        <time>2022-06-04T09:12:42.000Z</time>
      </trkpt>
      <trkpt lat="43.41569214127957820892333984375" lon="-5.6792739965021610260009765625">
        <ele>341.600006103515625</ele>
        <time>2022-06-04T09:12:43.000Z</time>
      </trkpt>
      <trkpt lat="43.41562408022582530975341796875" lon="-5.67931029014289379119873046875">
        <ele>341.20001220703125</ele>
        <time>2022-06-04T09:12:44.000Z</time>
      </trkpt>
      <trkpt lat="43.4155576117336750030517578125" lon="-5.6793641857802867889404296875">
        <ele>340.399993896484375</ele>
        <time>2022-06-04T09:12:45.000Z</time>
      </trkpt>
      <trkpt lat="43.415498100221157073974609375" lon="-5.679424703121185302734375">
        <ele>339.600006103515625</ele>
        <time>2022-06-04T09:12:46.000Z</time>
      </trkpt>
      <trkpt lat="43.4154466353356838226318359375" lon="-5.67949318327009677886962890625">
        <ele>339.20001220703125</ele>
        <time>2022-06-04T09:12:47.000Z</time>
      </trkpt>
      <trkpt lat="43.4153597988188266754150390625" lon="-5.6796428002417087554931640625">
        <ele>338.399993896484375</ele>
        <time>2022-06-04T09:12:49.000Z</time>
      </trkpt>
      <trkpt lat="43.41532073915004730224609375" lon="-5.67972066812217235565185546875">
        <ele>338</ele>
        <time>2022-06-04T09:12:50.000Z</time>
      </trkpt>
      <trkpt lat="43.41528276912868022918701171875" lon="-5.67980214022099971771240234375">
        <ele>337.600006103515625</ele>
        <time>2022-06-04T09:12:51.000Z</time>
      </trkpt>
      <trkpt lat="43.41524739749729633331298828125" lon="-5.679885707795619964599609375">
        <ele>337.20001220703125</ele>
        <time>2022-06-04T09:12:52.000Z</time>
      </trkpt>
      <trkpt lat="43.415214121341705322265625" lon="-5.67997195757925510406494140625">
        <ele>336.600006103515625</ele>
        <time>2022-06-04T09:12:53.000Z</time>
      </trkpt>
      <trkpt lat="43.41518520377576351165771484375" lon="-5.680061392486095428466796875">
        <ele>336.399993896484375</ele>
        <time>2022-06-04T09:12:54.000Z</time>
      </trkpt>
      <trkpt lat="43.41516382992267608642578125" lon="-5.68016105331480503082275390625">
        <ele>335.600006103515625</ele>
        <time>2022-06-04T09:12:55.000Z</time>
      </trkpt>
      <trkpt lat="43.41513792984187602996826171875" lon="-5.680371858179569244384765625">
        <ele>335.20001220703125</ele>
        <time>2022-06-04T09:12:57.000Z</time>
      </trkpt>
      <trkpt lat="43.4151381812989711761474609375" lon="-5.68059305660426616668701171875">
        <ele>335</ele>
        <time>2022-06-04T09:12:59.000Z</time>
      </trkpt>
      <trkpt lat="43.41513969004154205322265625" lon="-5.6808154284954071044921875">
        <ele>334.399993896484375</ele>
        <time>2022-06-04T09:13:01.000Z</time>
      </trkpt>
      <trkpt lat="43.4151314757764339447021484375" lon="-5.681007541716098785400390625">
        <ele>333.20001220703125</ele>
        <time>2022-06-04T09:13:03.000Z</time>
      </trkpt>
      <trkpt lat="43.4151254408061504364013671875" lon="-5.681100748479366302490234375">
        <ele>332.600006103515625</ele>
        <time>2022-06-04T09:13:04.000Z</time>
      </trkpt>
      <trkpt lat="43.41512284241616725921630859375" lon="-5.68118850700557231903076171875">
        <ele>332.20001220703125</ele>
        <time>2022-06-04T09:13:05.000Z</time>
      </trkpt>
      <trkpt lat="43.41512133367359638214111328125" lon="-5.6812668778002262115478515625">
        <ele>331.79998779296875</ele>
        <time>2022-06-04T09:13:06.000Z</time>
      </trkpt>
      <trkpt lat="43.4151210822165012359619140625" lon="-5.6813429854810237884521484375">
        <ele>331.20001220703125</ele>
        <time>2022-06-04T09:13:07.000Z</time>
      </trkpt>
      <trkpt lat="43.41512896120548248291015625" lon="-5.68141683004796504974365234375">
        <ele>330</ele>
        <time>2022-06-04T09:13:08.000Z</time>
      </trkpt>
      <trkpt lat="43.4151479043066501617431640625" lon="-5.68148690275847911834716796875">
        <ele>329.20001220703125</ele>
        <time>2022-06-04T09:13:09.000Z</time>
      </trkpt>
      <trkpt lat="43.41517799533903598785400390625" lon="-5.681555382907390594482421875">
        <ele>328.20001220703125</ele>
        <time>2022-06-04T09:13:10.000Z</time>
      </trkpt>
      <trkpt lat="43.41521319933235645294189453125" lon="-5.68162654526531696319580078125">
        <ele>327.20001220703125</ele>
        <time>2022-06-04T09:13:11.000Z</time>
      </trkpt>
      <trkpt lat="43.41527086682617664337158203125" lon="-5.68177825771272182464599609375">
        <ele>325.79998779296875</ele>
        <time>2022-06-04T09:13:12.000Z</time>
      </trkpt>
      <trkpt lat="43.41527086682617664337158203125" lon="-5.68177825771272182464599609375">
        <ele>324.600006103515625</ele>
        <time>2022-06-04T09:13:13.000Z</time>
      </trkpt>
      <trkpt lat="43.4152880497276782989501953125" lon="-5.6818653456866741180419921875">
        <ele>323.399993896484375</ele>
        <time>2022-06-04T09:13:14.000Z</time>
      </trkpt>
      <trkpt lat="43.4152920730412006378173828125" lon="-5.6819518469274044036865234375">
        <ele>322.399993896484375</ele>
        <time>2022-06-04T09:13:15.000Z</time>
      </trkpt>
      <trkpt lat="43.415289558470249176025390625" lon="-5.6820383481681346893310546875">
        <ele>321.399993896484375</ele>
        <time>2022-06-04T09:13:16.000Z</time>
      </trkpt>
      <trkpt lat="43.415289558470249176025390625" lon="-5.6821171380579471588134765625">
        <ele>320.600006103515625</ele>
        <time>2022-06-04T09:13:17.000Z</time>
      </trkpt>
      <trkpt lat="43.41529936529695987701416015625" lon="-5.68218897096812725067138671875">
        <ele>319.79998779296875</ele>
        <time>2022-06-04T09:13:18.000Z</time>
      </trkpt>
      <trkpt lat="43.4153178893029689788818359375" lon="-5.68226256407797336578369140625">
        <ele>319.399993896484375</ele>
        <time>2022-06-04T09:13:19.000Z</time>
      </trkpt>
      <trkpt lat="43.4153737127780914306640625" lon="-5.6824051402509212493896484375">
        <ele>318.79998779296875</ele>
        <time>2022-06-04T09:13:21.000Z</time>
      </trkpt>
      <trkpt lat="43.41542936861515045166015625" lon="-5.6825580261647701263427734375">
        <ele>318.600006103515625</ele>
        <time>2022-06-04T09:13:23.000Z</time>
      </trkpt>
      <trkpt lat="43.4154613874852657318115234375" lon="-5.682724155485630035400390625">
        <ele>318.20001220703125</ele>
        <time>2022-06-04T09:13:25.000Z</time>
      </trkpt>
      <trkpt lat="43.41549533419311046600341796875" lon="-5.68287025205790996551513671875">
        <ele>317.79998779296875</ele>
        <time>2022-06-04T09:13:27.000Z</time>
      </trkpt>
      <trkpt lat="43.41550639830529689788818359375" lon="-5.682942084968090057373046875">
        <ele>317.600006103515625</ele>
        <time>2022-06-04T09:13:28.000Z</time>
      </trkpt>
      <trkpt lat="43.41551662422716617584228515625" lon="-5.68301827646791934967041015625">
        <ele>317.399993896484375</ele>
        <time>2022-06-04T09:13:29.000Z</time>
      </trkpt>
      <trkpt lat="43.415536321699619293212890625" lon="-5.6831873394548892974853515625">
        <ele>317.20001220703125</ele>
        <time>2022-06-04T09:13:31.000Z</time>
      </trkpt>
      <trkpt lat="43.415559120476245880126953125" lon="-5.6833509542047977447509765625">
        <ele>316.600006103515625</ele>
        <time>2022-06-04T09:13:33.000Z</time>
      </trkpt>
      <trkpt lat="43.41556507162749767303466796875" lon="-5.683494620025157928466796875">
        <ele>316.20001220703125</ele>
        <time>2022-06-04T09:13:35.000Z</time>
      </trkpt>
      <trkpt lat="43.415535651147365570068359375" lon="-5.68361070938408374786376953125">
        <ele>316</ele>
        <time>2022-06-04T09:13:37.000Z</time>
      </trkpt>
      <trkpt lat="43.41551193036139011383056640625" lon="-5.68366033025085926055908203125">
        <ele>315.600006103515625</ele>
        <time>2022-06-04T09:13:38.000Z</time>
      </trkpt>
      <trkpt lat="43.41547437943518161773681640625" lon="-5.68370223976671695709228515625">
        <ele>315</ele>
        <time>2022-06-04T09:13:39.000Z</time>
      </trkpt>
      <trkpt lat="43.41537362895905971527099609375" lon="-5.68376979790627956390380859375">
        <ele>314.399993896484375</ele>
        <time>2022-06-04T09:13:40.000Z</time>
      </trkpt>
      <trkpt lat="43.41537362895905971527099609375" lon="-5.68376979790627956390380859375">
        <ele>313.600006103515625</ele>
        <time>2022-06-04T09:13:41.000Z</time>
      </trkpt>
      <trkpt lat="43.41532736085355281829833984375" lon="-5.6838039122521877288818359375">
        <ele>312.600006103515625</ele>
        <time>2022-06-04T09:13:42.000Z</time>
      </trkpt>
      <trkpt lat="43.41529048047959804534912109375" lon="-5.6838334165513515472412109375">
        <ele>311.600006103515625</ele>
        <time>2022-06-04T09:13:43.000Z</time>
      </trkpt>
      <trkpt lat="43.4152315557003021240234375" lon="-5.68386887200176715850830078125">
        <ele>310.20001220703125</ele>
        <time>2022-06-04T09:13:45.000Z</time>
      </trkpt>
      <trkpt lat="43.415152765810489654541015625" lon="-5.68385831080377101898193359375">
        <ele>308.600006103515625</ele>
        <time>2022-06-04T09:13:47.000Z</time>
      </trkpt>
      <trkpt lat="43.41511127538979053497314453125" lon="-5.68382947705686092376708984375">
        <ele>308</ele>
        <time>2022-06-04T09:13:48.000Z</time>
      </trkpt>
      <trkpt lat="43.415075652301311492919921875" lon="-5.6837926805019378662109375">
        <ele>307.600006103515625</ele>
        <time>2022-06-04T09:13:49.000Z</time>
      </trkpt>
      <trkpt lat="43.41501354239881038665771484375" lon="-5.68370978347957134246826171875">
        <ele>306.600006103515625</ele>
        <time>2022-06-04T09:13:51.000Z</time>
      </trkpt>
      <trkpt lat="43.41499485075473785400390625" lon="-5.6836496852338314056396484375">
        <ele>306</ele>
        <time>2022-06-04T09:13:52.000Z</time>
      </trkpt>
      <trkpt lat="43.41497682966291904449462890625" lon="-5.68358547985553741455078125">
        <ele>305.600006103515625</ele>
        <time>2022-06-04T09:13:53.000Z</time>
      </trkpt>
      <trkpt lat="43.41495729982852935791015625" lon="-5.6835202686488628387451171875">
        <ele>305.20001220703125</ele>
        <time>2022-06-04T09:13:54.000Z</time>
      </trkpt>
      <trkpt lat="43.414935506880283355712890625" lon="-5.6834574043750762939453125">
        <ele>304.79998779296875</ele>
        <time>2022-06-04T09:13:55.000Z</time>
      </trkpt>
      <trkpt lat="43.41489426791667938232421875" lon="-5.6833367049694061279296875">
        <ele>304</ele>
        <time>2022-06-04T09:13:57.000Z</time>
      </trkpt>
      <trkpt lat="43.414828218519687652587890625" lon="-5.68321206606924533843994140625">
        <ele>303.600006103515625</ele>
        <time>2022-06-04T09:13:58.000Z</time>
      </trkpt>
      <trkpt lat="43.414828218519687652587890625" lon="-5.68321206606924533843994140625">
        <ele>303.20001220703125</ele>
        <time>2022-06-04T09:13:59.000Z</time>
      </trkpt>
      <trkpt lat="43.41478429734706878662109375" lon="-5.6831407360732555389404296875">
        <ele>303</ele>
        <time>2022-06-04T09:14:00.000Z</time>
      </trkpt>
      <trkpt lat="43.41473828069865703582763671875" lon="-5.68306982517242431640625">
        <ele>302.79998779296875</ele>
        <time>2022-06-04T09:14:01.000Z</time>
      </trkpt>
      <trkpt lat="43.4146614186465740203857421875" lon="-5.68293504416942596435546875">
        <ele>302.600006103515625</ele>
        <time>2022-06-04T09:14:03.000Z</time>
      </trkpt>
      <trkpt lat="43.414634764194488525390625" lon="-5.6828691624104976654052734375">
        <ele>302.399993896484375</ele>
        <time>2022-06-04T09:14:04.000Z</time>
      </trkpt>
      <trkpt lat="43.41461389325559139251708984375" lon="-5.6828021071851253509521484375">
        <ele>302.399993896484375</ele>
        <time>2022-06-04T09:14:05.000Z</time>
      </trkpt>
      <trkpt lat="43.4145869873464107513427734375" lon="-5.68266221322119235992431640625">
        <ele>302</ele>
        <time>2022-06-04T09:14:06.000Z</time>
      </trkpt>
      <trkpt lat="43.4145869873464107513427734375" lon="-5.68266221322119235992431640625">
        <ele>301.399993896484375</ele>
        <time>2022-06-04T09:14:07.000Z</time>
      </trkpt>
      <trkpt lat="43.41457064263522624969482421875" lon="-5.68258644081652164459228515625">
        <ele>300.600006103515625</ele>
        <time>2022-06-04T09:14:08.000Z</time>
      </trkpt>
      <trkpt lat="43.4145457483828067779541015625" lon="-5.6825130991637706756591796875">
        <ele>300.20001220703125</ele>
        <time>2022-06-04T09:14:09.000Z</time>
      </trkpt>
      <trkpt lat="43.41452253051102161407470703125" lon="-5.6824463792145252227783203125">
        <ele>299.600006103515625</ele>
        <time>2022-06-04T09:14:10.000Z</time>
      </trkpt>
      <trkpt lat="43.4145014919340610504150390625" lon="-5.6823920644819736480712890625">
        <ele>299.20001220703125</ele>
        <time>2022-06-04T09:14:11.000Z</time>
      </trkpt>
      <trkpt lat="43.41447726823389530181884765625" lon="-5.68235392682254314422607421875">
        <ele>299</ele>
        <time>2022-06-04T09:14:12.000Z</time>
      </trkpt>
      <trkpt lat="43.41445078141987323760986328125" lon="-5.682329870760440826416015625">
        <ele>298.600006103515625</ele>
        <time>2022-06-04T09:14:13.000Z</time>
      </trkpt>
      <trkpt lat="43.41439864598214626312255859375" lon="-5.6823174655437469482421875">
        <ele>298</ele>
        <time>2022-06-04T09:14:15.000Z</time>
      </trkpt>
      <trkpt lat="43.41437417082488536834716796875" lon="-5.68232308141887187957763671875">
        <ele>297.600006103515625</ele>
        <time>2022-06-04T09:14:16.000Z</time>
      </trkpt>
      <trkpt lat="43.41434734873473644256591796875" lon="-5.6823189742863178253173828125">
        <ele>297.399993896484375</ele>
        <time>2022-06-04T09:14:17.000Z</time>
      </trkpt>
      <trkpt lat="43.41427861712872982025146484375" lon="-5.68230983801186084747314453125">
        <ele>296.600006103515625</ele>
        <time>2022-06-04T09:14:19.000Z</time>
      </trkpt>
      <trkpt lat="43.41424978338181972503662109375" lon="-5.68230363540351390838623046875">
        <ele>296.399993896484375</ele>
        <time>2022-06-04T09:14:20.000Z</time>
      </trkpt>
      <trkpt lat="43.41422346420586109161376953125" lon="-5.682299025356769561767578125">
        <ele>296</ele>
        <time>2022-06-04T09:14:21.000Z</time>
      </trkpt>
      <trkpt lat="43.414179794490337371826171875" lon="-5.68230195902287960052490234375">
        <ele>295.399993896484375</ele>
        <time>2022-06-04T09:14:23.000Z</time>
      </trkpt>
      <trkpt lat="43.41413612477481365203857421875" lon="-5.6822960078716278076171875">
        <ele>295</ele>
        <time>2022-06-04T09:14:25.000Z</time>
      </trkpt>
      <trkpt lat="43.41409740038216114044189453125" lon="-5.68228460848331451416015625">
        <ele>294</ele>
        <time>2022-06-04T09:14:27.000Z</time>
      </trkpt>
      <trkpt lat="43.4140807203948497772216796875" lon="-5.68227044306695461273193359375">
        <ele>293.600006103515625</ele>
        <time>2022-06-04T09:14:28.000Z</time>
      </trkpt>
      <trkpt lat="43.4140673093497753143310546875" lon="-5.682248733937740325927734375">
        <ele>293.399993896484375</ele>
        <time>2022-06-04T09:14:29.000Z</time>
      </trkpt>
      <trkpt lat="43.41403185389935970306396484375" lon="-5.68220942281186580657958984375">
        <ele>292.600006103515625</ele>
        <time>2022-06-04T09:14:31.000Z</time>
      </trkpt>
      <trkpt lat="43.41400318779051303863525390625" lon="-5.68220171146094799041748046875">
        <ele>291.399993896484375</ele>
        <time>2022-06-04T09:14:32.000Z</time>
      </trkpt>
      <trkpt lat="43.4139697439968585968017578125" lon="-5.68219584412872791290283203125">
        <ele>291</ele>
        <time>2022-06-04T09:14:33.000Z</time>
      </trkpt>
      <trkpt lat="43.413910232484340667724609375" lon="-5.6821841932833194732666015625">
        <ele>290</ele>
        <time>2022-06-04T09:14:35.000Z</time>
      </trkpt>
      <trkpt lat="43.41382381506264209747314453125" lon="-5.68216348998248577117919921875">
        <ele>289</ele>
        <time>2022-06-04T09:14:37.000Z</time>
      </trkpt>
      <trkpt lat="43.41377989389002323150634765625" lon="-5.68216122686862945556640625">
        <ele>288.399993896484375</ele>
        <time>2022-06-04T09:14:38.000Z</time>
      </trkpt>
      <trkpt lat="43.41373111121356487274169921875" lon="-5.68216114304959774017333984375">
        <ele>287.79998779296875</ele>
        <time>2022-06-04T09:14:39.000Z</time>
      </trkpt>
      <trkpt lat="43.41368299908936023712158203125" lon="-5.68215846084058284759521484375">
        <ele>287.20001220703125</ele>
        <time>2022-06-04T09:14:40.000Z</time>
      </trkpt>
      <trkpt lat="43.4136301092803478240966796875" lon="-5.68215946666896343231201171875">
        <ele>286.600006103515625</ele>
        <time>2022-06-04T09:14:41.000Z</time>
      </trkpt>
      <trkpt lat="43.41357688419520854949951171875" lon="-5.682170279324054718017578125">
        <ele>285.79998779296875</ele>
        <time>2022-06-04T09:14:42.000Z</time>
      </trkpt>
      <trkpt lat="43.41352223418653011322021484375" lon="-5.68219148553907871246337890625">
        <ele>285.20001220703125</ele>
        <time>2022-06-04T09:14:43.000Z</time>
      </trkpt>
      <trkpt lat="43.41346490196883678436279296875" lon="-5.68220808170735836029052734375">
        <ele>284.79998779296875</ele>
        <time>2022-06-04T09:14:44.000Z</time>
      </trkpt>
      <trkpt lat="43.41340321116149425506591796875" lon="-5.682242028415203094482421875">
        <ele>284.600006103515625</ele>
        <time>2022-06-04T09:14:45.000Z</time>
      </trkpt>
      <trkpt lat="43.4133142791688442230224609375" lon="-5.6822998635470867156982421875">
        <ele>283.600006103515625</ele>
        <time>2022-06-04T09:14:47.000Z</time>
      </trkpt>
      <trkpt lat="43.413281925022602081298828125" lon="-5.68231402896344661712646484375">
        <ele>283.20001220703125</ele>
        <time>2022-06-04T09:14:48.000Z</time>
      </trkpt>
      <trkpt lat="43.4132549352943897247314453125" lon="-5.68231704644858837127685546875">
        <ele>283</ele>
        <time>2022-06-04T09:14:49.000Z</time>
      </trkpt>
      <trkpt lat="43.41320288367569446563720703125" lon="-5.68232215940952301025390625">
        <ele>282.600006103515625</ele>
        <time>2022-06-04T09:14:51.000Z</time>
      </trkpt>
      <trkpt lat="43.41317354701459407806396484375" lon="-5.68232626654207706451416015625">
        <ele>282.399993896484375</ele>
        <time>2022-06-04T09:14:52.000Z</time>
      </trkpt>
      <trkpt lat="43.41314471326768398284912109375" lon="-5.682333223521709442138671875">
        <ele>282.20001220703125</ele>
        <time>2022-06-04T09:14:53.000Z</time>
      </trkpt>
      <trkpt lat="43.41307950206100940704345703125" lon="-5.6823364086449146270751953125">
        <ele>281.600006103515625</ele>
        <time>2022-06-04T09:14:55.000Z</time>
      </trkpt>
      <trkpt lat="43.4130430407822132110595703125" lon="-5.68232559598982334136962890625">
        <ele>281.20001220703125</ele>
        <time>2022-06-04T09:14:56.000Z</time>
      </trkpt>
      <trkpt lat="43.41301026754081249237060546875" lon="-5.682305730879306793212890625">
        <ele>281</ele>
        <time>2022-06-04T09:14:57.000Z</time>
      </trkpt>
      <trkpt lat="43.4129840321838855743408203125" lon="-5.68227580748498439788818359375">
        <ele>280.79998779296875</ele>
        <time>2022-06-04T09:14:58.000Z</time>
      </trkpt>
      <trkpt lat="43.41295947320759296417236328125" lon="-5.68223590962588787078857421875">
        <ele>280.20001220703125</ele>
        <time>2022-06-04T09:14:59.000Z</time>
      </trkpt>
      <trkpt lat="43.4129199944436550140380859375" lon="-5.682168267667293548583984375">
        <ele>278.600006103515625</ele>
        <time>2022-06-04T09:15:01.000Z</time>
      </trkpt>
      <trkpt lat="43.4128690324723720550537109375" lon="-5.6821007095277309417724609375">
        <ele>277.20001220703125</ele>
        <time>2022-06-04T09:15:03.000Z</time>
      </trkpt>
      <trkpt lat="43.4128039889037609100341796875" lon="-5.68201747722923755645751953125">
        <ele>276.600006103515625</ele>
        <time>2022-06-04T09:15:05.000Z</time>
      </trkpt>
      <trkpt lat="43.41271572746336460113525390625" lon="-5.681965090334415435791015625">
        <ele>276.399993896484375</ele>
        <time>2022-06-04T09:15:06.000Z</time>
      </trkpt>
      <trkpt lat="43.41271572746336460113525390625" lon="-5.681965090334415435791015625">
        <ele>276.399993896484375</ele>
        <time>2022-06-04T09:15:07.000Z</time>
      </trkpt>
      <trkpt lat="43.41266929171979427337646484375" lon="-5.68194170482456684112548828125">
        <ele>276.399993896484375</ele>
        <time>2022-06-04T09:15:08.000Z</time>
      </trkpt>
      <trkpt lat="43.41261564753949642181396484375" lon="-5.68192611448466777801513671875">
        <ele>276.20001220703125</ele>
        <time>2022-06-04T09:15:09.000Z</time>
      </trkpt>
      <trkpt lat="43.4125629253685474395751953125" lon="-5.68191354162991046905517578125">
        <ele>276.20001220703125</ele>
        <time>2022-06-04T09:15:10.000Z</time>
      </trkpt>
      <trkpt lat="43.41251313686370849609375" lon="-5.6819085963070392608642578125">
        <ele>276.20001220703125</ele>
        <time>2022-06-04T09:15:11.000Z</time>
      </trkpt>
      <trkpt lat="43.412415571510791778564453125" lon="-5.68190641701221466064453125">
        <ele>276</ele>
        <time>2022-06-04T09:15:13.000Z</time>
      </trkpt>
      <trkpt lat="43.41237139888107776641845703125" lon="-5.68190616555511951446533203125">
        <ele>276</ele>
        <time>2022-06-04T09:15:14.000Z</time>
      </trkpt>
      <trkpt lat="43.4123255498707294464111328125" lon="-5.681902058422565460205078125">
        <ele>276</ele>
        <time>2022-06-04T09:15:15.000Z</time>
      </trkpt>
      <trkpt lat="43.41224156320095062255859375" lon="-5.681898035109043121337890625">
        <ele>276</ele>
        <time>2022-06-04T09:15:17.000Z</time>
      </trkpt>
      <trkpt lat="43.412160091102123260498046875" lon="-5.68189728073775768280029296875">
        <ele>276</ele>
        <time>2022-06-04T09:15:19.000Z</time>
      </trkpt>
      <trkpt lat="43.412078954279422760009765625" lon="-5.68189543671905994415283203125">
        <ele>276</ele>
        <time>2022-06-04T09:15:21.000Z</time>
      </trkpt>
      <trkpt lat="43.412003181874752044677734375" lon="-5.6818935088813304901123046875">
        <ele>275.79998779296875</ele>
        <time>2022-06-04T09:15:23.000Z</time>
      </trkpt>
      <trkpt lat="43.41193067841231822967529296875" lon="-5.68189007230103015899658203125">
        <ele>275.79998779296875</ele>
        <time>2022-06-04T09:15:25.000Z</time>
      </trkpt>
      <trkpt lat="43.4118573367595672607421875" lon="-5.68187557160854339599609375">
        <ele>275.79998779296875</ele>
        <time>2022-06-04T09:15:27.000Z</time>
      </trkpt>
      <trkpt lat="43.41178567148745059967041015625" lon="-5.68185604177415370941162109375">
        <ele>275.79998779296875</ele>
        <time>2022-06-04T09:15:29.000Z</time>
      </trkpt>
      <trkpt lat="43.41171450912952423095703125" lon="-5.681827627122402191162109375">
        <ele>275.79998779296875</ele>
        <time>2022-06-04T09:15:30.000Z</time>
      </trkpt>
      <trkpt lat="43.41171450912952423095703125" lon="-5.681827627122402191162109375">
        <ele>275.79998779296875</ele>
        <time>2022-06-04T09:15:31.000Z</time>
      </trkpt>
      <trkpt lat="43.4116466157138347625732421875" lon="-5.6817885674536228179931640625">
        <ele>275.79998779296875</ele>
        <time>2022-06-04T09:15:33.000Z</time>
      </trkpt>
      <trkpt lat="43.4115837514400482177734375" lon="-5.68173852749168872833251953125">
        <ele>275.79998779296875</ele>
        <time>2022-06-04T09:15:35.000Z</time>
      </trkpt>
      <trkpt lat="43.411521725356578826904296875" lon="-5.681679435074329376220703125">
        <ele>275.79998779296875</ele>
        <time>2022-06-04T09:15:37.000Z</time>
      </trkpt>
      <trkpt lat="43.4114330448210239410400390625" lon="-5.6815833784639835357666015625">
        <ele>276</ele>
        <time>2022-06-04T09:15:39.000Z</time>
      </trkpt>
      <trkpt lat="43.41138183139264583587646484375" lon="-5.6815240345895290374755859375">
        <ele>276</ele>
        <time>2022-06-04T09:15:41.000Z</time>
      </trkpt>
      <trkpt lat="43.41135869733989238739013671875" lon="-5.68149335682392120361328125">
        <ele>276.20001220703125</ele>
        <time>2022-06-04T09:15:43.000Z</time>
      </trkpt>
      <trkpt lat="43.41133858077228069305419921875" lon="-5.6814576499164104461669921875">
        <ele>276.399993896484375</ele>
        <time>2022-06-04T09:15:44.000Z</time>
      </trkpt>
      <trkpt lat="43.41131209395825862884521484375" lon="-5.6814231164753437042236328125">
        <ele>276.399993896484375</ele>
        <time>2022-06-04T09:15:45.000Z</time>
      </trkpt>
      <trkpt lat="43.41124646365642547607421875" lon="-5.6813755072653293609619140625">
        <ele>276.600006103515625</ele>
        <time>2022-06-04T09:15:46.000Z</time>
      </trkpt>
      <trkpt lat="43.41124646365642547607421875" lon="-5.6813755072653293609619140625">
        <ele>276.600006103515625</ele>
        <time>2022-06-04T09:15:47.000Z</time>
      </trkpt>
      <trkpt lat="43.41117647476494312286376953125" lon="-5.68136234767735004425048828125">
        <ele>276.79998779296875</ele>
        <time>2022-06-04T09:15:48.000Z</time>
      </trkpt>
      <trkpt lat="43.41114026494324207305908203125" lon="-5.68136268295347690582275390625">
        <ele>277.20001220703125</ele>
        <time>2022-06-04T09:15:49.000Z</time>
      </trkpt>
      <trkpt lat="43.41110036708414554595947265625" lon="-5.68136435933411121368408203125">
        <ele>277.600006103515625</ele>
        <time>2022-06-04T09:15:51.000Z</time>
      </trkpt>
      <trkpt lat="43.41102006845176219940185546875" lon="-5.68136486224830150604248046875">
        <ele>277.79998779296875</ele>
        <time>2022-06-04T09:15:53.000Z</time>
      </trkpt>
      <trkpt lat="43.4109482355415821075439453125" lon="-5.6813679635524749755859375">
        <ele>277.79998779296875</ele>
        <time>2022-06-04T09:15:55.000Z</time>
      </trkpt>
      <trkpt lat="43.4108862094581127166748046875" lon="-5.68139486946165561676025390625">
        <ele>277.79998779296875</ele>
        <time>2022-06-04T09:15:57.000Z</time>
      </trkpt>
      <trkpt lat="43.41083432547748088836669921875" lon="-5.68139679729938507080078125">
        <ele>277.79998779296875</ele>
        <time>2022-06-04T09:15:58.000Z</time>
      </trkpt>
      <trkpt lat="43.41083432547748088836669921875" lon="-5.68139679729938507080078125">
        <ele>277.79998779296875</ele>
        <time>2022-06-04T09:15:59.000Z</time>
      </trkpt>
      <trkpt lat="43.410790152847766876220703125" lon="-5.681336782872676849365234375">
        <ele>277.79998779296875</ele>
        <time>2022-06-04T09:16:00.000Z</time>
      </trkpt>
      <trkpt lat="43.410790152847766876220703125" lon="-5.681336782872676849365234375">
        <ele>277.79998779296875</ele>
        <time>2022-06-04T09:16:01.000Z</time>
      </trkpt>
      <trkpt lat="43.41075033880770206451416015625" lon="-5.6812098808586597442626953125">
        <ele>277.79998779296875</ele>
        <time>2022-06-04T09:16:03.000Z</time>
      </trkpt>
      <trkpt lat="43.4107075072824954986572265625" lon="-5.68106009624898433685302734375">
        <ele>277.600006103515625</ele>
        <time>2022-06-04T09:16:05.000Z</time>
      </trkpt>
      <trkpt lat="43.41067624278366565704345703125" lon="-5.68088860251009464263916015625">
        <ele>277.20001220703125</ele>
        <time>2022-06-04T09:16:06.000Z</time>
      </trkpt>
      <trkpt lat="43.41067624278366565704345703125" lon="-5.68088860251009464263916015625">
        <ele>277</ele>
        <time>2022-06-04T09:16:07.000Z</time>
      </trkpt>
      <trkpt lat="43.4106702916324138641357421875" lon="-5.680804364383220672607421875">
        <ele>276.79998779296875</ele>
        <time>2022-06-04T09:16:08.000Z</time>
      </trkpt>
      <trkpt lat="43.4106557071208953857421875" lon="-5.680725909769535064697265625">
        <ele>276.600006103515625</ele>
        <time>2022-06-04T09:16:09.000Z</time>
      </trkpt>
      <trkpt lat="43.4106246940791606903076171875" lon="-5.68057344295084476470947265625">
        <ele>276</ele>
        <time>2022-06-04T09:16:10.000Z</time>
      </trkpt>
      <trkpt lat="43.41058940626680850982666015625" lon="-5.68048962391912937164306640625">
        <ele>275.600006103515625</ele>
        <time>2022-06-04T09:16:11.000Z</time>
      </trkpt>
      <trkpt lat="43.41055118478834629058837890625" lon="-5.6804058887064456939697265625">
        <ele>275</ele>
        <time>2022-06-04T09:16:12.000Z</time>
      </trkpt>
      <trkpt lat="43.41051614843308925628662109375" lon="-5.6803193874657154083251953125">
        <ele>274.399993896484375</ele>
        <time>2022-06-04T09:16:13.000Z</time>
      </trkpt>
      <trkpt lat="43.41051614843308925628662109375" lon="-5.6803193874657154083251953125">
        <ele>274.20001220703125</ele>
        <time>2022-06-04T09:16:14.000Z</time>
      </trkpt>
      <trkpt lat="43.410488069057464599609375" lon="-5.6802258454263210296630859375">
        <ele>273.79998779296875</ele>
        <time>2022-06-04T09:16:15.000Z</time>
      </trkpt>
      <trkpt lat="43.410452865064144134521484375" lon="-5.6799209117889404296875">
        <ele>272.600006103515625</ele>
        <time>2022-06-04T09:16:17.000Z</time>
      </trkpt>
      <trkpt lat="43.41043685562908649444580078125" lon="-5.67969082854688167572021484375">
        <ele>271.399993896484375</ele>
        <time>2022-06-04T09:16:19.000Z</time>
      </trkpt>
      <trkpt lat="43.4104201756417751312255859375" lon="-5.67944607697427272796630859375">
        <ele>270.20001220703125</ele>
        <time>2022-06-04T09:16:21.000Z</time>
      </trkpt>
      <trkpt lat="43.410416655242443084716796875" lon="-5.67932101897895336151123046875">
        <ele>269</ele>
        <time>2022-06-04T09:16:22.000Z</time>
      </trkpt>
      <trkpt lat="43.410416655242443084716796875" lon="-5.67932101897895336151123046875">
        <ele>266.79998779296875</ele>
        <time>2022-06-04T09:16:23.000Z</time>
      </trkpt>
      <trkpt lat="43.41041900217533111572265625" lon="-5.679065622389316558837890625">
        <ele>265.600006103515625</ele>
        <time>2022-06-04T09:16:24.000Z</time>
      </trkpt>
      <trkpt lat="43.4104195050895214080810546875" lon="-5.67893913947045803070068359375">
        <ele>265</ele>
        <time>2022-06-04T09:16:25.000Z</time>
      </trkpt>
      <trkpt lat="43.4104195050895214080810546875" lon="-5.67893913947045803070068359375">
        <ele>264.20001220703125</ele>
        <time>2022-06-04T09:16:26.000Z</time>
      </trkpt>
      <trkpt lat="43.41041992418467998504638671875" lon="-5.67881626076996326446533203125">
        <ele>263.79998779296875</ele>
        <time>2022-06-04T09:16:27.000Z</time>
      </trkpt>
      <trkpt lat="43.4104349277913570404052734375" lon="-5.6786098144948482513427734375">
        <ele>263.20001220703125</ele>
        <time>2022-06-04T09:16:28.000Z</time>
      </trkpt>
      <trkpt lat="43.4104349277913570404052734375" lon="-5.6786098144948482513427734375">
        <ele>262.79998779296875</ele>
        <time>2022-06-04T09:16:29.000Z</time>
      </trkpt>
      <trkpt lat="43.4104894101619720458984375" lon="-5.67844779230654239654541015625">
        <ele>262.399993896484375</ele>
        <time>2022-06-04T09:16:30.000Z</time>
      </trkpt>
      <trkpt lat="43.4104894101619720458984375" lon="-5.67844779230654239654541015625">
        <ele>261.79998779296875</ele>
        <time>2022-06-04T09:16:31.000Z</time>
      </trkpt>
      <trkpt lat="43.4105187468230724334716796875" lon="-5.6783804856240749359130859375">
        <ele>261.600006103515625</ele>
        <time>2022-06-04T09:16:32.000Z</time>
      </trkpt>
      <trkpt lat="43.41054531745612621307373046875" lon="-5.6783147715032100677490234375">
        <ele>261.399993896484375</ele>
        <time>2022-06-04T09:16:33.000Z</time>
      </trkpt>
      <trkpt lat="43.41059242375195026397705078125" lon="-5.6781846843659877777099609375">
        <ele>260.79998779296875</ele>
        <time>2022-06-04T09:16:35.000Z</time>
      </trkpt>
      <trkpt lat="43.410616815090179443359375" lon="-5.67811310291290283203125">
        <ele>260.600006103515625</ele>
        <time>2022-06-04T09:16:36.000Z</time>
      </trkpt>
      <trkpt lat="43.41064908541738986968994140625" lon="-5.67804059945046901702880859375">
        <ele>260.399993896484375</ele>
        <time>2022-06-04T09:16:37.000Z</time>
      </trkpt>
      <trkpt lat="43.4106927551329135894775390625" lon="-5.67797069437801837921142578125">
        <ele>260.20001220703125</ele>
        <time>2022-06-04T09:16:38.000Z</time>
      </trkpt>
      <trkpt lat="43.410740531980991363525390625" lon="-5.67790028639137744903564453125">
        <ele>260</ele>
        <time>2022-06-04T09:16:39.000Z</time>
      </trkpt>
      <trkpt lat="43.410788811743259429931640625" lon="-5.67782945930957794189453125">
        <ele>259.79998779296875</ele>
        <time>2022-06-04T09:16:40.000Z</time>
      </trkpt>
      <trkpt lat="43.4108372591435909271240234375" lon="-5.677756033837795257568359375">
        <ele>259.600006103515625</ele>
        <time>2022-06-04T09:16:41.000Z</time>
      </trkpt>
      <trkpt lat="43.4108791686594486236572265625" lon="-5.67767380736768245697021484375">
        <ele>259.399993896484375</ele>
        <time>2022-06-04T09:16:42.000Z</time>
      </trkpt>
      <trkpt lat="43.4109106846153736114501953125" lon="-5.67759451456367969512939453125">
        <ele>259.20001220703125</ele>
        <time>2022-06-04T09:16:43.000Z</time>
      </trkpt>
      <trkpt lat="43.41091361828148365020751953125" lon="-5.6774346716701984405517578125">
        <ele>258.600006103515625</ele>
        <time>2022-06-04T09:16:45.000Z</time>
      </trkpt>
      <trkpt lat="43.4108744747936725616455078125" lon="-5.67729326896369457244873046875">
        <ele>258.399993896484375</ele>
        <time>2022-06-04T09:16:46.000Z</time>
      </trkpt>
      <trkpt lat="43.4108744747936725616455078125" lon="-5.67729326896369457244873046875">
        <ele>257.79998779296875</ele>
        <time>2022-06-04T09:16:47.000Z</time>
      </trkpt>
      <trkpt lat="43.41085142455995082855224609375" lon="-5.67717525176703929901123046875">
        <ele>257.399993896484375</ele>
        <time>2022-06-04T09:16:48.000Z</time>
      </trkpt>
      <trkpt lat="43.41085142455995082855224609375" lon="-5.67717525176703929901123046875">
        <ele>257</ele>
        <time>2022-06-04T09:16:49.000Z</time>
      </trkpt>
      <trkpt lat="43.4108355827629566192626953125" lon="-5.67701230756938457489013671875">
        <ele>256.600006103515625</ele>
        <time>2022-06-04T09:16:51.000Z</time>
      </trkpt>
      <trkpt lat="43.41082644648849964141845703125" lon="-5.67696168087422847747802734375">
        <ele>256.600006103515625</ele>
        <time>2022-06-04T09:16:53.000Z</time>
      </trkpt>
      <trkpt lat="43.41080926358699798583984375" lon="-5.6768710725009441375732421875">
        <ele>256.600006103515625</ele>
        <time>2022-06-04T09:16:55.000Z</time>
      </trkpt>
      <trkpt lat="43.4107715450227260589599609375" lon="-5.67677493207156658172607421875">
        <ele>256.600006103515625</ele>
        <time>2022-06-04T09:16:57.000Z</time>
      </trkpt>
      <trkpt lat="43.41074413619935512542724609375" lon="-5.676728747785091400146484375">
        <ele>256.600006103515625</ele>
        <time>2022-06-04T09:16:59.000Z</time>
      </trkpt>
      <trkpt lat="43.41072569601237773895263671875" lon="-5.67668139003217220306396484375">
        <ele>256.79998779296875</ele>
        <time>2022-06-04T09:17:01.000Z</time>
      </trkpt>
      <trkpt lat="43.41071245260536670684814453125" lon="-5.676628164947032928466796875">
        <ele>257.20001220703125</ele>
        <time>2022-06-04T09:17:03.000Z</time>
      </trkpt>
      <trkpt lat="43.41069702990353107452392578125" lon="-5.6765730120241641998291015625">
        <ele>258</ele>
        <time>2022-06-04T09:17:05.000Z</time>
      </trkpt>
      <trkpt lat="43.41068998910486698150634765625" lon="-5.67654677666723728179931640625">
        <ele>258.20001220703125</ele>
        <time>2022-06-04T09:17:06.000Z</time>
      </trkpt>
      <trkpt lat="43.41068596579134464263916015625" lon="-5.67651744000613689422607421875">
        <ele>258.600006103515625</ele>
        <time>2022-06-04T09:17:07.000Z</time>
      </trkpt>
      <trkpt lat="43.41068043373525142669677734375" lon="-5.67648835480213165283203125">
        <ele>259</ele>
        <time>2022-06-04T09:17:09.000Z</time>
      </trkpt>
      <trkpt lat="43.41066467575728893280029296875" lon="-5.676429010927677154541015625">
        <ele>259.399993896484375</ele>
        <time>2022-06-04T09:17:10.000Z</time>
      </trkpt>
      <trkpt lat="43.41065797023475170135498046875" lon="-5.6764000095427036285400390625">
        <ele>259.79998779296875</ele>
        <time>2022-06-04T09:17:11.000Z</time>
      </trkpt>
      <trkpt lat="43.410639949142932891845703125" lon="-5.6763389892876148223876953125">
        <ele>260.399993896484375</ele>
        <time>2022-06-04T09:17:13.000Z</time>
      </trkpt>
      <trkpt lat="43.41061555780470371246337890625" lon="-5.67628324963152408599853515625">
        <ele>261</ele>
        <time>2022-06-04T09:17:15.000Z</time>
      </trkpt>
      <trkpt lat="43.4106045775115489959716796875" lon="-5.67625357769429683685302734375">
        <ele>261.399993896484375</ele>
        <time>2022-06-04T09:17:17.000Z</time>
      </trkpt>
      <trkpt lat="43.41058135963976383209228515625" lon="-5.6762005202472209930419921875">
        <ele>261.79998779296875</ele>
        <time>2022-06-04T09:17:18.000Z</time>
      </trkpt>
      <trkpt lat="43.41058135963976383209228515625" lon="-5.6762005202472209930419921875">
        <ele>262</ele>
        <time>2022-06-04T09:17:19.000Z</time>
      </trkpt>
      <trkpt lat="43.41055738739669322967529296875" lon="-5.67615282721817493438720703125">
        <ele>262.399993896484375</ele>
        <time>2022-06-04T09:17:21.000Z</time>
      </trkpt>
      <trkpt lat="43.41052788309752941131591796875" lon="-5.67610479891300201416015625">
        <ele>262.79998779296875</ele>
        <time>2022-06-04T09:17:23.000Z</time>
      </trkpt>
      <trkpt lat="43.41049770824611186981201171875" lon="-5.67605207674205303192138671875">
        <ele>263.20001220703125</ele>
        <time>2022-06-04T09:17:25.000Z</time>
      </trkpt>
      <trkpt lat="43.4104708023369312286376953125" lon="-5.67600446753203868865966796875">
        <ele>263.600006103515625</ele>
        <time>2022-06-04T09:17:27.000Z</time>
      </trkpt>
      <trkpt lat="43.41044724918901920318603515625" lon="-5.675960965454578399658203125">
        <ele>263.79998779296875</ele>
        <time>2022-06-04T09:17:28.000Z</time>
      </trkpt>
      <trkpt lat="43.4104352630674839019775390625" lon="-5.6759383343160152435302734375">
        <ele>264.20001220703125</ele>
        <time>2022-06-04T09:17:29.000Z</time>
      </trkpt>
      <trkpt lat="43.41042210347950458526611328125" lon="-5.67591310478746891021728515625">
        <ele>264.600006103515625</ele>
        <time>2022-06-04T09:17:31.000Z</time>
      </trkpt>
      <trkpt lat="43.41036938130855560302734375" lon="-5.67582853138446807861328125">
        <ele>265</ele>
        <time>2022-06-04T09:17:33.000Z</time>
      </trkpt>
      <trkpt lat="43.410334847867488861083984375" lon="-5.6757740490138530731201171875">
        <ele>265.600006103515625</ele>
        <time>2022-06-04T09:17:35.000Z</time>
      </trkpt>
      <trkpt lat="43.410300314426422119140625" lon="-5.675715543329715728759765625">
        <ele>266</ele>
        <time>2022-06-04T09:17:37.000Z</time>
      </trkpt>
      <trkpt lat="43.410268463194370269775390625" lon="-5.6756553612649440765380859375">
        <ele>266.79998779296875</ele>
        <time>2022-06-04T09:17:39.000Z</time>
      </trkpt>
      <trkpt lat="43.4102542139589786529541015625" lon="-5.67562468349933624267578125">
        <ele>267</ele>
        <time>2022-06-04T09:17:40.000Z</time>
      </trkpt>
      <trkpt lat="43.410239629447460174560546875" lon="-5.67559576593339443206787109375">
        <ele>267.20001220703125</ele>
        <time>2022-06-04T09:17:41.000Z</time>
      </trkpt>
      <trkpt lat="43.4102118015289306640625" lon="-5.67553751170635223388671875">
        <ele>267.600006103515625</ele>
        <time>2022-06-04T09:17:43.000Z</time>
      </trkpt>
      <trkpt lat="43.41019797138869762420654296875" lon="-5.675509013235569000244140625">
        <ele>268</ele>
        <time>2022-06-04T09:17:45.000Z</time>
      </trkpt>
      <trkpt lat="43.4101730771362781524658203125" lon="-5.675460062921047210693359375">
        <ele>268.600006103515625</ele>
        <time>2022-06-04T09:17:47.000Z</time>
      </trkpt>
      <trkpt lat="43.410146422684192657470703125" lon="-5.67541052587330341339111328125">
        <ele>269</ele>
        <time>2022-06-04T09:17:49.000Z</time>
      </trkpt>
      <trkpt lat="43.41013158671557903289794921875" lon="-5.6753904931247234344482421875">
        <ele>269</ele>
        <time>2022-06-04T09:17:50.000Z</time>
      </trkpt>
      <trkpt lat="43.410110883414745330810546875" lon="-5.6753760762512683868408203125">
        <ele>269.399993896484375</ele>
        <time>2022-06-04T09:17:51.000Z</time>
      </trkpt>
      <trkpt lat="43.41004374437034130096435546875" lon="-5.6753733940422534942626953125">
        <ele>269.600006103515625</ele>
        <time>2022-06-04T09:17:52.000Z</time>
      </trkpt>
      <trkpt lat="43.41004374437034130096435546875" lon="-5.6753733940422534942626953125">
        <ele>269.600006103515625</ele>
        <time>2022-06-04T09:17:53.000Z</time>
      </trkpt>
      <trkpt lat="43.40990024618804454803466796875" lon="-5.675406754016876220703125">
        <ele>269.79998779296875</ele>
        <time>2022-06-04T09:17:55.000Z</time>
      </trkpt>
      <trkpt lat="43.40985774993896484375" lon="-5.6754199974238872528076171875">
        <ele>269.79998779296875</ele>
        <time>2022-06-04T09:17:57.000Z</time>
      </trkpt>
      <trkpt lat="43.409797735512256622314453125" lon="-5.67544740624725818634033203125">
        <ele>269.79998779296875</ele>
        <time>2022-06-04T09:17:58.000Z</time>
      </trkpt>
      <trkpt lat="43.409797735512256622314453125" lon="-5.67544740624725818634033203125">
        <ele>269.79998779296875</ele>
        <time>2022-06-04T09:17:59.000Z</time>
      </trkpt>
      <trkpt lat="43.40977384708821773529052734375" lon="-5.675458721816539764404296875">
        <ele>269.79998779296875</ele>
        <time>2022-06-04T09:18:01.000Z</time>
      </trkpt>
      <trkpt lat="43.4097704105079174041748046875" lon="-5.6754605658352375030517578125">
        <ele>269.79998779296875</ele>
        <time>2022-06-04T09:18:02.000Z</time>
      </trkpt>
      <trkpt lat="43.4097707457840442657470703125" lon="-5.6754615716636180877685546875">
        <ele>269.600006103515625</ele>
        <time>2022-06-04T09:18:03.000Z</time>
      </trkpt>
      <trkpt lat="43.409634791314601898193359375" lon="-5.6754578836262226104736328125">
        <ele>265.79998779296875</ele>
        <time>2022-06-04T09:42:52.000Z</time>
      </trkpt>
      <trkpt lat="43.40961542911827564239501953125" lon="-5.6754615716636180877685546875">
        <ele>265.600006103515625</ele>
        <time>2022-06-04T09:42:53.000Z</time>
      </trkpt>
      <trkpt lat="43.4095756150782108306884765625" lon="-5.6754697859287261962890625">
        <ele>265.600006103515625</ele>
        <time>2022-06-04T09:42:55.000Z</time>
      </trkpt>
      <trkpt lat="43.4095756150782108306884765625" lon="-5.6754697859287261962890625">
        <ele>265.600006103515625</ele>
        <time>2022-06-04T09:42:56.000Z</time>
      </trkpt>
      <trkpt lat="43.40955960564315319061279296875" lon="-5.67547774873673915863037109375">
        <ele>265.600006103515625</ele>
        <time>2022-06-04T09:42:57.000Z</time>
      </trkpt>
      <trkpt lat="43.409516103565692901611328125" lon="-5.67550524137914180755615234375">
        <ele>265.399993896484375</ele>
        <time>2022-06-04T09:42:59.000Z</time>
      </trkpt>
      <trkpt lat="43.4094562567770481109619140625" lon="-5.67552217282354831695556640625">
        <ele>265.399993896484375</ele>
        <time>2022-06-04T09:43:00.000Z</time>
      </trkpt>
      <trkpt lat="43.4094562567770481109619140625" lon="-5.67552217282354831695556640625">
        <ele>265.20001220703125</ele>
        <time>2022-06-04T09:43:01.000Z</time>
      </trkpt>
      <trkpt lat="43.4093767963349819183349609375" lon="-5.67551672458648681640625">
        <ele>265</ele>
        <time>2022-06-04T09:43:03.000Z</time>
      </trkpt>
      <trkpt lat="43.4093033708631992340087890625" lon="-5.67549585364758968353271484375">
        <ele>264.79998779296875</ele>
        <time>2022-06-04T09:43:05.000Z</time>
      </trkpt>
      <trkpt lat="43.409238159656524658203125" lon="-5.6754773296415805816650390625">
        <ele>264.600006103515625</ele>
        <time>2022-06-04T09:43:07.000Z</time>
      </trkpt>
      <trkpt lat="43.40917353518307209014892578125" lon="-5.6754344142973423004150390625">
        <ele>264.600006103515625</ele>
        <time>2022-06-04T09:43:09.000Z</time>
      </trkpt>
      <trkpt lat="43.40909709222614765167236328125" lon="-5.6754018925130367279052734375">
        <ele>264.20001220703125</ele>
        <time>2022-06-04T09:43:10.000Z</time>
      </trkpt>
      <trkpt lat="43.40909709222614765167236328125" lon="-5.6754018925130367279052734375">
        <ele>264</ele>
        <time>2022-06-04T09:43:11.000Z</time>
      </trkpt>
      <trkpt lat="43.4090046398341655731201171875" lon="-5.6753522716462612152099609375">
        <ele>263.600006103515625</ele>
        <time>2022-06-04T09:43:13.000Z</time>
      </trkpt>
      <trkpt lat="43.40890757739543914794921875" lon="-5.67527867853641510009765625">
        <ele>263.20001220703125</ele>
        <time>2022-06-04T09:43:15.000Z</time>
      </trkpt>
      <trkpt lat="43.408821411430835723876953125" lon="-5.67517767660319805145263671875">
        <ele>263</ele>
        <time>2022-06-04T09:43:16.000Z</time>
      </trkpt>
      <trkpt lat="43.408821411430835723876953125" lon="-5.67517767660319805145263671875">
        <ele>262.79998779296875</ele>
        <time>2022-06-04T09:43:17.000Z</time>
      </trkpt>
      <trkpt lat="43.40871848165988922119140625" lon="-5.675063431262969970703125">
        <ele>262.600006103515625</ele>
        <time>2022-06-04T09:43:18.000Z</time>
      </trkpt>
      <trkpt lat="43.40871848165988922119140625" lon="-5.675063431262969970703125">
        <ele>262.399993896484375</ele>
        <time>2022-06-04T09:43:19.000Z</time>
      </trkpt>
      <trkpt lat="43.40866408310830593109130859375" lon="-5.6750071048736572265625">
        <ele>262</ele>
        <time>2022-06-04T09:43:20.000Z</time>
      </trkpt>
      <trkpt lat="43.4086080081760883331298828125" lon="-5.67495320923626422882080078125">
        <ele>261.399993896484375</ele>
        <time>2022-06-04T09:43:21.000Z</time>
      </trkpt>
      <trkpt lat="43.40855126269161701202392578125" lon="-5.67489906214177608489990234375">
        <ele>260.79998779296875</ele>
        <time>2022-06-04T09:43:22.000Z</time>
      </trkpt>
      <trkpt lat="43.4084951877593994140625" lon="-5.674845837056636810302734375">
        <ele>260.20001220703125</ele>
        <time>2022-06-04T09:43:23.000Z</time>
      </trkpt>
      <trkpt lat="43.4083860553801059722900390625" lon="-5.6747370399534702301025390625">
        <ele>259.79998779296875</ele>
        <time>2022-06-04T09:43:24.000Z</time>
      </trkpt>
      <trkpt lat="43.4083397872745990753173828125" lon="-5.67467560060322284698486328125">
        <ele>259.399993896484375</ele>
        <time>2022-06-04T09:43:25.000Z</time>
      </trkpt>
      <trkpt lat="43.4083015657961368560791015625" lon="-5.6746106408536434173583984375">
        <ele>258.79998779296875</ele>
        <time>2022-06-04T09:43:27.000Z</time>
      </trkpt>
      <trkpt lat="43.408235013484954833984375" lon="-5.67450813017785549163818359375">
        <ele>258.399993896484375</ele>
        <time>2022-06-04T09:43:28.000Z</time>
      </trkpt>
      <trkpt lat="43.4082076884806156158447265625" lon="-5.67447024397552013397216796875">
        <ele>258.20001220703125</ele>
        <time>2022-06-04T09:43:29.000Z</time>
      </trkpt>
      <trkpt lat="43.4081848897039890289306640625" lon="-5.6744386442005634307861328125">
        <ele>258</ele>
        <time>2022-06-04T09:43:30.000Z</time>
      </trkpt>
      <trkpt lat="43.408170975744724273681640625" lon="-5.674410648643970489501953125">
        <ele>258</ele>
        <time>2022-06-04T09:43:31.000Z</time>
      </trkpt>
      <trkpt lat="43.408156894147396087646484375" lon="-5.67438977770507335662841796875">
        <ele>257.79998779296875</ele>
        <time>2022-06-04T09:43:33.000Z</time>
      </trkpt>
      <trkpt lat="43.40813250280916690826416015625" lon="-5.67436404526233673095703125">
        <ele>257.399993896484375</ele>
        <time>2022-06-04T09:43:35.000Z</time>
      </trkpt>
      <trkpt lat="43.40811632573604583740234375" lon="-5.6743484549224376678466796875">
        <ele>257</ele>
        <time>2022-06-04T09:43:37.000Z</time>
      </trkpt>
      <trkpt lat="43.40810693800449371337890625" lon="-5.67434485070407390594482421875">
        <ele>256.399993896484375</ele>
        <time>2022-06-04T09:43:39.000Z</time>
      </trkpt>
      <trkpt lat="43.40810601599514484405517578125" lon="-5.674338229000568389892578125">
        <ele>256.20001220703125</ele>
        <time>2022-06-04T09:43:40.000Z</time>
      </trkpt>
      <trkpt lat="43.40805673040449619293212890625" lon="-5.674267821013927459716796875">
        <ele>255.1999969482421875</ele>
        <time>2022-06-04T09:44:07.000Z</time>
      </trkpt>
      <trkpt lat="43.40803661383688449859619140625" lon="-5.6742532365024089813232421875">
        <ele>255.1999969482421875</ele>
        <time>2022-06-04T09:44:08.000Z</time>
      </trkpt>
      <trkpt lat="43.40801062993705272674560546875" lon="-5.674242340028285980224609375">
        <ele>255.1999969482421875</ele>
        <time>2022-06-04T09:44:09.000Z</time>
      </trkpt>
      <trkpt lat="43.40793938376009464263916015625" lon="-5.674206130206584930419921875">
        <ele>255</ele>
        <time>2022-06-04T09:44:11.000Z</time>
      </trkpt>
      <trkpt lat="43.407868556678295135498046875" lon="-5.67417318932712078094482421875">
        <ele>255</ele>
        <time>2022-06-04T09:44:12.000Z</time>
      </trkpt>
      <trkpt lat="43.407868556678295135498046875" lon="-5.67417318932712078094482421875">
        <ele>255</ele>
        <time>2022-06-04T09:44:13.000Z</time>
      </trkpt>
      <trkpt lat="43.40780560858547687530517578125" lon="-5.67413832060992717742919921875">
        <ele>254.600006103515625</ele>
        <time>2022-06-04T09:44:15.000Z</time>
      </trkpt>
      <trkpt lat="43.407775349915027618408203125" lon="-5.6741228140890598297119140625">
        <ele>254.1999969482421875</ele>
        <time>2022-06-04T09:44:16.000Z</time>
      </trkpt>
      <trkpt lat="43.40774827636778354644775390625" lon="-5.6741120852530002593994140625">
        <ele>253.600006103515625</ele>
        <time>2022-06-04T09:44:17.000Z</time>
      </trkpt>
      <trkpt lat="43.4077158384025096893310546875" lon="-5.67409582436084747314453125">
        <ele>253.1999969482421875</ele>
        <time>2022-06-04T09:44:18.000Z</time>
      </trkpt>
      <trkpt lat="43.407690189778804779052734375" lon="-5.67410445772111415863037109375">
        <ele>252.8000030517578125</ele>
        <time>2022-06-04T09:44:19.000Z</time>
      </trkpt>
      <trkpt lat="43.40766948647797107696533203125" lon="-5.674112923443317413330078125">
        <ele>252</ele>
        <time>2022-06-04T09:44:20.000Z</time>
      </trkpt>
      <trkpt lat="43.40764559805393218994140625" lon="-5.67411652766168117523193359375">
        <ele>251.399993896484375</ele>
        <time>2022-06-04T09:44:21.000Z</time>
      </trkpt>
      <trkpt lat="43.40761919505894184112548828125" lon="-5.6741251610219478607177734375">
        <ele>250.8000030517578125</ele>
        <time>2022-06-04T09:44:22.000Z</time>
      </trkpt>
      <trkpt lat="43.40758432634174823760986328125" lon="-5.67412138916552066802978515625">
        <ele>250</ele>
        <time>2022-06-04T09:44:23.000Z</time>
      </trkpt>
      <trkpt lat="43.40755213983356952667236328125" lon="-5.67410764284431934356689453125">
        <ele>249.600006103515625</ele>
        <time>2022-06-04T09:44:24.000Z</time>
      </trkpt>
      <trkpt lat="43.40752012096345424652099609375" lon="-5.67408015020191669464111328125">
        <ele>249.1999969482421875</ele>
        <time>2022-06-04T09:44:25.000Z</time>
      </trkpt>
      <trkpt lat="43.40749405324459075927734375" lon="-5.6740393303334712982177734375">
        <ele>248.8000030517578125</ele>
        <time>2022-06-04T09:44:26.000Z</time>
      </trkpt>
      <trkpt lat="43.4074714221060276031494140625" lon="-5.67399415187537670135498046875">
        <ele>248.399993896484375</ele>
        <time>2022-06-04T09:44:27.000Z</time>
      </trkpt>
      <trkpt lat="43.40740813873708248138427734375" lon="-5.67387915216386318206787109375">
        <ele>247</ele>
        <time>2022-06-04T09:44:29.000Z</time>
      </trkpt>
      <trkpt lat="43.40734745375812053680419921875" lon="-5.673749484121799468994140625">
        <ele>245.600006103515625</ele>
        <time>2022-06-04T09:44:31.000Z</time>
      </trkpt>
      <trkpt lat="43.407303281128406524658203125" lon="-5.6736780703067779541015625">
        <ele>244.8000030517578125</ele>
        <time>2022-06-04T09:44:32.000Z</time>
      </trkpt>
      <trkpt lat="43.40726514346897602081298828125" lon="-5.67360774613916873931884765625">
        <ele>244</ele>
        <time>2022-06-04T09:44:33.000Z</time>
      </trkpt>
      <trkpt lat="43.4071445278823375701904296875" lon="-5.6734002940356731414794921875">
        <ele>242.399993896484375</ele>
        <time>2022-06-04T09:44:35.000Z</time>
      </trkpt>
      <trkpt lat="43.407098762691020965576171875" lon="-5.67333944141864776611328125">
        <ele>241.8000030517578125</ele>
        <time>2022-06-04T09:44:36.000Z</time>
      </trkpt>
      <trkpt lat="43.4070452861487865447998046875" lon="-5.67329828627407550811767578125">
        <ele>241.399993896484375</ele>
        <time>2022-06-04T09:44:37.000Z</time>
      </trkpt>
      <trkpt lat="43.4070452861487865447998046875" lon="-5.67329828627407550811767578125">
        <ele>240.600006103515625</ele>
        <time>2022-06-04T09:44:38.000Z</time>
      </trkpt>
      <trkpt lat="43.406990468502044677734375" lon="-5.67327515222132205963134765625">
        <ele>240.399993896484375</ele>
        <time>2022-06-04T09:44:39.000Z</time>
      </trkpt>
      <trkpt lat="43.40687236748635768890380859375" lon="-5.67324288189411163330078125">
        <ele>239.399993896484375</ele>
        <time>2022-06-04T09:44:41.000Z</time>
      </trkpt>
      <trkpt lat="43.4067549370229244232177734375" lon="-5.67320155911147594451904296875">
        <ele>239</ele>
        <time>2022-06-04T09:44:42.000Z</time>
      </trkpt>
      <trkpt lat="43.40670003555715084075927734375" lon="-5.67317104898393154144287109375">
        <ele>238.600006103515625</ele>
        <time>2022-06-04T09:44:43.000Z</time>
      </trkpt>
      <trkpt lat="43.40670003555715084075927734375" lon="-5.67317104898393154144287109375">
        <ele>238</ele>
        <time>2022-06-04T09:44:44.000Z</time>
      </trkpt>
      <trkpt lat="43.40665108524262905120849609375" lon="-5.67313768900930881500244140625">
        <ele>237.8000030517578125</ele>
        <time>2022-06-04T09:44:45.000Z</time>
      </trkpt>
      <trkpt lat="43.40656877495348453521728515625" lon="-5.6730155646800994873046875">
        <ele>237.600006103515625</ele>
        <time>2022-06-04T09:44:46.000Z</time>
      </trkpt>
      <trkpt lat="43.406544215977191925048828125" lon="-5.672943480312824249267578125">
        <ele>237.1999969482421875</ele>
        <time>2022-06-04T09:44:47.000Z</time>
      </trkpt>
      <trkpt lat="43.40653005056083202362060546875" lon="-5.6728769280016422271728515625">
        <ele>236.8000030517578125</ele>
        <time>2022-06-04T09:44:48.000Z</time>
      </trkpt>
      <trkpt lat="43.40653005056083202362060546875" lon="-5.6728769280016422271728515625">
        <ele>236.399993896484375</ele>
        <time>2022-06-04T09:44:49.000Z</time>
      </trkpt>
      <trkpt lat="43.40652435086667537689208984375" lon="-5.67281196825206279754638671875">
        <ele>236.1999969482421875</ele>
        <time>2022-06-04T09:44:50.000Z</time>
      </trkpt>
      <trkpt lat="43.40651697479188442230224609375" lon="-5.67269160412251949310302734375">
        <ele>235.8000030517578125</ele>
        <time>2022-06-04T09:44:51.000Z</time>
      </trkpt>
      <trkpt lat="43.4065071679651737213134765625" lon="-5.672637037932872772216796875">
        <ele>235.600006103515625</ele>
        <time>2022-06-04T09:44:52.000Z</time>
      </trkpt>
      <trkpt lat="43.40649350546300411224365234375" lon="-5.672590769827365875244140625">
        <ele>235.399993896484375</ele>
        <time>2022-06-04T09:44:53.000Z</time>
      </trkpt>
      <trkpt lat="43.4064776636660099029541015625" lon="-5.67254290916025638580322265625">
        <ele>235.1999969482421875</ele>
        <time>2022-06-04T09:44:54.000Z</time>
      </trkpt>
      <trkpt lat="43.40645880438387393951416015625" lon="-5.67249496467411518096923828125">
        <ele>235.1999969482421875</ele>
        <time>2022-06-04T09:44:55.000Z</time>
      </trkpt>
      <trkpt lat="43.40645880438387393951416015625" lon="-5.67249496467411518096923828125">
        <ele>234.8000030517578125</ele>
        <time>2022-06-04T09:44:56.000Z</time>
      </trkpt>
      <trkpt lat="43.4064256958663463592529296875" lon="-5.6724040210247039794921875">
        <ele>234.8000030517578125</ele>
        <time>2022-06-04T09:44:57.000Z</time>
      </trkpt>
      <trkpt lat="43.4063941799104213714599609375" lon="-5.6723262369632720947265625">
        <ele>234.8000030517578125</ele>
        <time>2022-06-04T09:44:59.000Z</time>
      </trkpt>
      <trkpt lat="43.4063643403351306915283203125" lon="-5.672263540327548980712890625">
        <ele>234.8000030517578125</ele>
        <time>2022-06-04T09:45:01.000Z</time>
      </trkpt>
      <trkpt lat="43.40633207000792026519775390625" lon="-5.6722036935389041900634765625">
        <ele>234.8000030517578125</ele>
        <time>2022-06-04T09:45:03.000Z</time>
      </trkpt>
      <trkpt lat="43.40629854239523410797119140625" lon="-5.6721466965973377227783203125">
        <ele>234.8000030517578125</ele>
        <time>2022-06-04T09:45:05.000Z</time>
      </trkpt>
      <trkpt lat="43.406263254582881927490234375" lon="-5.67208995111286640167236328125">
        <ele>235</ele>
        <time>2022-06-04T09:45:07.000Z</time>
      </trkpt>
      <trkpt lat="43.40623148716986179351806640625" lon="-5.67203127779066562652587890625">
        <ele>235.399993896484375</ele>
        <time>2022-06-04T09:45:09.000Z</time>
      </trkpt>
      <trkpt lat="43.40620030649006366729736328125" lon="-5.67197662778198719024658203125">
        <ele>236</ele>
        <time>2022-06-04T09:45:11.000Z</time>
      </trkpt>
      <trkpt lat="43.40616895817220211029052734375" lon="-5.67192197777330875396728515625">
        <ele>236.399993896484375</ele>
        <time>2022-06-04T09:45:13.000Z</time>
      </trkpt>
      <trkpt lat="43.40616895817220211029052734375" lon="-5.67192197777330875396728515625">
        <ele>236.399993896484375</ele>
        <time>2022-06-04T09:45:14.000Z</time>
      </trkpt>
      <trkpt lat="43.40613945387303829193115234375" lon="-5.6718707643449306488037109375">
        <ele>236.600006103515625</ele>
        <time>2022-06-04T09:45:15.000Z</time>
      </trkpt>
      <trkpt lat="43.40610743500292301177978515625" lon="-5.67181988619267940521240234375">
        <ele>237</ele>
        <time>2022-06-04T09:45:17.000Z</time>
      </trkpt>
      <trkpt lat="43.40607441030442714691162109375" lon="-5.6717721931636333465576171875">
        <ele>237.399993896484375</ele>
        <time>2022-06-04T09:45:19.000Z</time>
      </trkpt>
      <trkpt lat="43.40607441030442714691162109375" lon="-5.6717721931636333465576171875">
        <ele>237.600006103515625</ele>
        <time>2022-06-04T09:45:20.000Z</time>
      </trkpt>
      <trkpt lat="43.40603752993047237396240234375" lon="-5.67173774354159832000732421875">
        <ele>237.600006103515625</ele>
        <time>2022-06-04T09:45:21.000Z</time>
      </trkpt>
      <trkpt lat="43.40599578805267810821533203125" lon="-5.6717084906995296478271484375">
        <ele>238</ele>
        <time>2022-06-04T09:45:23.000Z</time>
      </trkpt>
      <trkpt lat="43.4059713967144489288330078125" lon="-5.671693570911884307861328125">
        <ele>238.399993896484375</ele>
        <time>2022-06-04T09:45:24.000Z</time>
      </trkpt>
      <trkpt lat="43.4059479273855686187744140625" lon="-5.6716816686093807220458984375">
        <ele>238.600006103515625</ele>
        <time>2022-06-04T09:45:25.000Z</time>
      </trkpt>
      <trkpt lat="43.40590308420360088348388671875" lon="-5.6716588698327541351318359375">
        <ele>239</ele>
        <time>2022-06-04T09:45:27.000Z</time>
      </trkpt>
      <trkpt lat="43.40585782192647457122802734375" lon="-5.67163716070353984832763671875">
        <ele>239.600006103515625</ele>
        <time>2022-06-04T09:45:29.000Z</time>
      </trkpt>
      <trkpt lat="43.4058161638677120208740234375" lon="-5.671606399118900299072265625">
        <ele>240.1999969482421875</ele>
        <time>2022-06-04T09:45:31.000Z</time>
      </trkpt>
      <trkpt lat="43.4058161638677120208740234375" lon="-5.671606399118900299072265625">
        <ele>240.399993896484375</ele>
        <time>2022-06-04T09:45:32.000Z</time>
      </trkpt>
      <trkpt lat="43.40578942559659481048583984375" lon="-5.6715619750320911407470703125">
        <ele>241</ele>
        <time>2022-06-04T09:45:33.000Z</time>
      </trkpt>
      <trkpt lat="43.405786491930484771728515625" lon="-5.67151646129786968231201171875">
        <ele>241.399993896484375</ele>
        <time>2022-06-04T09:45:35.000Z</time>
      </trkpt>
      <trkpt lat="43.4057886712253093719482421875" lon="-5.67149701528251171112060546875">
        <ele>241.600006103515625</ele>
        <time>2022-06-04T09:45:36.000Z</time>
      </trkpt>
      <trkpt lat="43.40579613111913204193115234375" lon="-5.67147522233426570892333984375">
        <ele>241.8000030517578125</ele>
        <time>2022-06-04T09:45:37.000Z</time>
      </trkpt>
      <trkpt lat="43.40579613111913204193115234375" lon="-5.67147522233426570892333984375">
        <ele>242</ele>
        <time>2022-06-04T09:45:38.000Z</time>
      </trkpt>
      <trkpt lat="43.40580937452614307403564453125" lon="-5.67143113352358341217041015625">
        <ele>242.1999969482421875</ele>
        <time>2022-06-04T09:45:39.000Z</time>
      </trkpt>
      <trkpt lat="43.40581574477255344390869140625" lon="-5.671401880681514739990234375">
        <ele>242.8000030517578125</ele>
        <time>2022-06-04T09:45:41.000Z</time>
      </trkpt>
      <trkpt lat="43.40582027100026607513427734375" lon="-5.67138385958969593048095703125">
        <ele>242.8000030517578125</ele>
        <time>2022-06-04T09:45:42.000Z</time>
      </trkpt>
      <trkpt lat="43.40582261793315410614013671875" lon="-5.67136541940271854400634765625">
        <ele>243.1999969482421875</ele>
        <time>2022-06-04T09:45:43.000Z</time>
      </trkpt>
      <trkpt lat="43.40582261793315410614013671875" lon="-5.67136541940271854400634765625">
        <ele>243.399993896484375</ele>
        <time>2022-06-04T09:45:44.000Z</time>
      </trkpt>
      <trkpt lat="43.4058265574276447296142578125" lon="-5.67132820375263690948486328125">
        <ele>243.600006103515625</ele>
        <time>2022-06-04T09:45:45.000Z</time>
      </trkpt>
      <trkpt lat="43.4058221988379955291748046875" lon="-5.67129467613995075225830078125">
        <ele>244.1999969482421875</ele>
        <time>2022-06-04T09:45:47.000Z</time>
      </trkpt>
      <trkpt lat="43.4058161638677120208740234375" lon="-5.67127958871424198150634765625">
        <ele>244.399993896484375</ele>
        <time>2022-06-04T09:45:48.000Z</time>
      </trkpt>
      <trkpt lat="43.405808620154857635498046875" lon="-5.671265088021755218505859375">
        <ele>244.600006103515625</ele>
        <time>2022-06-04T09:45:49.000Z</time>
      </trkpt>
      <trkpt lat="43.40577802620828151702880859375" lon="-5.67125276662409305572509765625">
        <ele>245</ele>
        <time>2022-06-04T09:45:51.000Z</time>
      </trkpt>
      <trkpt lat="43.4057397209107875823974609375" lon="-5.6712451390922069549560546875">
        <ele>245.8000030517578125</ele>
        <time>2022-06-04T09:45:53.000Z</time>
      </trkpt>
      <trkpt lat="43.4057216159999370574951171875" lon="-5.6712357513606548309326171875">
        <ele>246</ele>
        <time>2022-06-04T09:45:54.000Z</time>
      </trkpt>
      <trkpt lat="43.4057025052607059478759765625" lon="-5.67122795619070529937744140625">
        <ele>246.1999969482421875</ele>
        <time>2022-06-04T09:45:55.000Z</time>
      </trkpt>
      <trkpt lat="43.4057025052607059478759765625" lon="-5.67122795619070529937744140625">
        <ele>246.600006103515625</ele>
        <time>2022-06-04T09:45:56.000Z</time>
      </trkpt>
      <trkpt lat="43.40566738508641719818115234375" lon="-5.67121110856533050537109375">
        <ele>246.8000030517578125</ele>
        <time>2022-06-04T09:45:57.000Z</time>
      </trkpt>
      <trkpt lat="43.40564827434718608856201171875" lon="-5.6712028943002223968505859375">
        <ele>247</ele>
        <time>2022-06-04T09:45:58.000Z</time>
      </trkpt>
      <trkpt lat="43.4056265652179718017578125" lon="-5.67119459621608257293701171875">
        <ele>247.1999969482421875</ele>
        <time>2022-06-04T09:45:59.000Z</time>
      </trkpt>
      <trkpt lat="43.40558566153049468994140625" lon="-5.67117892205715179443359375">
        <ele>247.399993896484375</ele>
        <time>2022-06-04T09:46:01.000Z</time>
      </trkpt>
      <trkpt lat="43.405547440052032470703125" lon="-5.67116324789822101593017578125">
        <ele>247.399993896484375</ele>
        <time>2022-06-04T09:46:03.000Z</time>
      </trkpt>
      <trkpt lat="43.405506871640682220458984375" lon="-5.671150423586368560791015625">
        <ele>247.600006103515625</ele>
        <time>2022-06-04T09:46:05.000Z</time>
      </trkpt>
      <trkpt lat="43.40547711588442325592041015625" lon="-5.6711334921419620513916015625">
        <ele>247.8000030517578125</ele>
        <time>2022-06-04T09:46:07.000Z</time>
      </trkpt>
      <trkpt lat="43.40547711588442325592041015625" lon="-5.6711334921419620513916015625">
        <ele>248</ele>
        <time>2022-06-04T09:46:08.000Z</time>
      </trkpt>
      <trkpt lat="43.40544140897691249847412109375" lon="-5.67112452350556850433349609375">
        <ele>248.1999969482421875</ele>
        <time>2022-06-04T09:46:09.000Z</time>
      </trkpt>
      <trkpt lat="43.40540519915521144866943359375" lon="-5.67111882381141185760498046875">
        <ele>248.600006103515625</ele>
        <time>2022-06-04T09:46:11.000Z</time>
      </trkpt>
      <trkpt lat="43.4053860045969486236572265625" lon="-5.671112202107906341552734375">
        <ele>248.8000030517578125</ele>
        <time>2022-06-04T09:46:13.000Z</time>
      </trkpt>
      <trkpt lat="43.40536982752382755279541015625" lon="-5.671108849346637725830078125">
        <ele>248.8000030517578125</ele>
        <time>2022-06-04T09:46:14.000Z</time>
      </trkpt>
      <trkpt lat="43.4053380601108074188232421875" lon="-5.67110650241374969482421875">
        <ele>248.8000030517578125</ele>
        <time>2022-06-04T09:46:15.000Z</time>
      </trkpt>
      <trkpt lat="43.4053145907819271087646484375" lon="-5.6711002998054027557373046875">
        <ele>249</ele>
        <time>2022-06-04T09:46:16.000Z</time>
      </trkpt>
      <trkpt lat="43.4053145907819271087646484375" lon="-5.6711002998054027557373046875">
        <ele>249</ele>
        <time>2022-06-04T09:46:17.000Z</time>
      </trkpt>
      <trkpt lat="43.4052746929228305816650390625" lon="-5.6710872240364551544189453125">
        <ele>249.1999969482421875</ele>
        <time>2022-06-04T09:46:19.000Z</time>
      </trkpt>
      <trkpt lat="43.405228592455387115478515625" lon="-5.67108043469488620758056640625">
        <ele>249.399993896484375</ele>
        <time>2022-06-04T09:46:21.000Z</time>
      </trkpt>
      <trkpt lat="43.40518601238727569580078125" lon="-5.67107607610523700714111328125">
        <ele>249.600006103515625</ele>
        <time>2022-06-04T09:46:23.000Z</time>
      </trkpt>
      <trkpt lat="43.4051415883004665374755859375" lon="-5.67107456736266613006591796875">
        <ele>249.8000030517578125</ele>
        <time>2022-06-04T09:46:25.000Z</time>
      </trkpt>
      <trkpt lat="43.40509640984237194061279296875" lon="-5.67106199450790882110595703125">
        <ele>250</ele>
        <time>2022-06-04T09:46:27.000Z</time>
      </trkpt>
      <trkpt lat="43.405073694884777069091796875" lon="-5.67105797119438648223876953125">
        <ele>250.399993896484375</ele>
        <time>2022-06-04T09:46:28.000Z</time>
      </trkpt>
      <trkpt lat="43.4050530754029750823974609375" lon="-5.67105243913829326629638671875">
        <ele>250.8000030517578125</ele>
        <time>2022-06-04T09:46:29.000Z</time>
      </trkpt>
      <trkpt lat="43.40503312647342681884765625" lon="-5.67104883491992950439453125">
        <ele>251</ele>
        <time>2022-06-04T09:46:30.000Z</time>
      </trkpt>
      <trkpt lat="43.4050108306109905242919921875" lon="-5.67104757763445377349853515625">
        <ele>251.1999969482421875</ele>
        <time>2022-06-04T09:46:31.000Z</time>
      </trkpt>
      <trkpt lat="43.40497084893286228179931640625" lon="-5.67104875110089778900146484375">
        <ele>251.600006103515625</ele>
        <time>2022-06-04T09:46:33.000Z</time>
      </trkpt>
      <trkpt lat="43.40493656694889068603515625" lon="-5.6710456497967243194580078125">
        <ele>251.8000030517578125</ele>
        <time>2022-06-04T09:46:35.000Z</time>
      </trkpt>
      <trkpt lat="43.4048996865749359130859375" lon="-5.67103785462677478790283203125">
        <ele>252</ele>
        <time>2022-06-04T09:46:36.000Z</time>
      </trkpt>
      <trkpt lat="43.4048996865749359130859375" lon="-5.67103785462677478790283203125">
        <ele>252.1999969482421875</ele>
        <time>2022-06-04T09:46:37.000Z</time>
      </trkpt>
      <trkpt lat="43.40486691333353519439697265625" lon="-5.6710262037813663482666015625">
        <ele>252.399993896484375</ele>
        <time>2022-06-04T09:46:39.000Z</time>
      </trkpt>
      <trkpt lat="43.40482567436993122100830078125" lon="-5.671010278165340423583984375">
        <ele>252.600006103515625</ele>
        <time>2022-06-04T09:46:41.000Z</time>
      </trkpt>
      <trkpt lat="43.40478342957794666290283203125" lon="-5.67098840139806270599365234375">
        <ele>252.600006103515625</ele>
        <time>2022-06-04T09:46:43.000Z</time>
      </trkpt>
      <trkpt lat="43.40474001131951808929443359375" lon="-5.6709648482501506805419921875">
        <ele>253</ele>
        <time>2022-06-04T09:46:45.000Z</time>
      </trkpt>
      <trkpt lat="43.40468938462436199188232421875" lon="-5.67094146274030208587646484375">
        <ele>253.399993896484375</ele>
        <time>2022-06-04T09:46:47.000Z</time>
      </trkpt>
      <trkpt lat="43.4046276099979877471923828125" lon="-5.670917071402072906494140625">
        <ele>253.8000030517578125</ele>
        <time>2022-06-04T09:46:49.000Z</time>
      </trkpt>
      <trkpt lat="43.4045494906604290008544921875" lon="-5.6708850525319576263427734375">
        <ele>254</ele>
        <time>2022-06-04T09:46:51.000Z</time>
      </trkpt>
      <trkpt lat="43.40446106158196926116943359375" lon="-5.67085060290992259979248046875">
        <ele>254</ele>
        <time>2022-06-04T09:46:53.000Z</time>
      </trkpt>
      <trkpt lat="43.40437757782638072967529296875" lon="-5.67081036977469921112060546875">
        <ele>254</ele>
        <time>2022-06-04T09:46:54.000Z</time>
      </trkpt>
      <trkpt lat="43.40437757782638072967529296875" lon="-5.67081036977469921112060546875">
        <ele>254</ele>
        <time>2022-06-04T09:46:55.000Z</time>
      </trkpt>
      <trkpt lat="43.4042559564113616943359375" lon="-5.6707598268985748291015625">
        <ele>254</ele>
        <time>2022-06-04T09:46:57.000Z</time>
      </trkpt>
      <trkpt lat="43.4042195789515972137451171875" lon="-5.67075253464281558990478515625">
        <ele>253.600006103515625</ele>
        <time>2022-06-04T09:46:59.000Z</time>
      </trkpt>
      <trkpt lat="43.404140286147594451904296875" lon="-5.67073543556034564971923828125">
        <ele>253.399993896484375</ele>
        <time>2022-06-04T09:47:00.000Z</time>
      </trkpt>
      <trkpt lat="43.404140286147594451904296875" lon="-5.67073543556034564971923828125">
        <ele>253.1999969482421875</ele>
        <time>2022-06-04T09:47:01.000Z</time>
      </trkpt>
      <trkpt lat="43.40406090952455997467041015625" lon="-5.6707224436104297637939453125">
        <ele>253</ele>
        <time>2022-06-04T09:47:03.000Z</time>
      </trkpt>
      <trkpt lat="43.40397725813090801239013671875" lon="-5.6707130558788776397705078125">
        <ele>252.8000030517578125</ele>
        <time>2022-06-04T09:47:05.000Z</time>
      </trkpt>
      <trkpt lat="43.403894193470478057861328125" lon="-5.670681707561016082763671875">
        <ele>252.8000030517578125</ele>
        <time>2022-06-04T09:47:06.000Z</time>
      </trkpt>
      <trkpt lat="43.403894193470478057861328125" lon="-5.670681707561016082763671875">
        <ele>252.600006103515625</ele>
        <time>2022-06-04T09:47:07.000Z</time>
      </trkpt>
      <trkpt lat="43.40386896394193172454833984375" lon="-5.670645497739315032958984375">
        <ele>252.600006103515625</ele>
        <time>2022-06-04T09:47:08.000Z</time>
      </trkpt>
      <trkpt lat="43.40386376716196537017822265625" lon="-5.6706024147570133209228515625">
        <ele>252.600006103515625</ele>
        <time>2022-06-04T09:47:09.000Z</time>
      </trkpt>
      <trkpt lat="43.40389109216630458831787109375" lon="-5.670516081154346466064453125">
        <ele>252.600006103515625</ele>
        <time>2022-06-04T09:47:10.000Z</time>
      </trkpt>
      <trkpt lat="43.40391858480870723724365234375" lon="-5.67048414610326290130615234375">
        <ele>252.600006103515625</ele>
        <time>2022-06-04T09:47:11.000Z</time>
      </trkpt>
      <trkpt lat="43.4039466641843318939208984375" lon="-5.6704580783843994140625">
        <ele>252.600006103515625</ele>
        <time>2022-06-04T09:47:12.000Z</time>
      </trkpt>
      <trkpt lat="43.40396963059902191162109375" lon="-5.67043502815067768096923828125">
        <ele>252.600006103515625</ele>
        <time>2022-06-04T09:47:13.000Z</time>
      </trkpt>
      <trkpt lat="43.40398832224309444427490234375" lon="-5.67041625268757343292236328125">
        <ele>252.600006103515625</ele>
        <time>2022-06-04T09:47:15.000Z</time>
      </trkpt>
      <trkpt lat="43.40401397086679935455322265625" lon="-5.67039596848189830780029296875">
        <ele>252.600006103515625</ele>
        <time>2022-06-04T09:47:17.000Z</time>
      </trkpt>
      <trkpt lat="43.40403811074793338775634765625" lon="-5.6703797914087772369384765625">
        <ele>252.600006103515625</ele>
        <time>2022-06-04T09:47:19.000Z</time>
      </trkpt>
      <trkpt lat="43.40403811074793338775634765625" lon="-5.6703797914087772369384765625">
        <ele>252.600006103515625</ele>
        <time>2022-06-04T09:47:20.000Z</time>
      </trkpt>
      <trkpt lat="43.40405336581170558929443359375" lon="-5.67036864347755908966064453125">
        <ele>252.600006103515625</ele>
        <time>2022-06-04T09:47:21.000Z</time>
      </trkpt>
      <trkpt lat="43.40406359173357486724853515625" lon="-5.670366548001766204833984375">
        <ele>252.600006103515625</ele>
        <time>2022-06-04T09:47:22.000Z</time>
      </trkpt>
      <trkpt lat="43.40406359173357486724853515625" lon="-5.670366548001766204833984375">
        <ele>252.600006103515625</ele>
        <time>2022-06-04T09:47:23.000Z</time>
      </trkpt>
      <trkpt lat="43.40408496558666229248046875" lon="-5.6703613512217998504638671875">
        <ele>252.8000030517578125</ele>
        <time>2022-06-04T09:47:25.000Z</time>
      </trkpt>
      <trkpt lat="43.40406878851354122161865234375" lon="-5.670358501374721527099609375">
        <ele>252.8000030517578125</ele>
        <time>2022-06-04T09:47:27.000Z</time>
      </trkpt>
      <trkpt lat="43.4040475822985172271728515625" lon="-5.67037903703749179840087890625">
        <ele>252.8000030517578125</ele>
        <time>2022-06-04T09:47:28.000Z</time>
      </trkpt>
      <trkpt lat="43.4040475822985172271728515625" lon="-5.67037903703749179840087890625">
        <ele>252.8000030517578125</ele>
        <time>2022-06-04T09:47:29.000Z</time>
      </trkpt>
      <trkpt lat="43.40401011519134044647216796875" lon="-5.67040636204183101654052734375">
        <ele>252.600006103515625</ele>
        <time>2022-06-04T09:47:30.000Z</time>
      </trkpt>
      <trkpt lat="43.40401011519134044647216796875" lon="-5.67040636204183101654052734375">
        <ele>252.600006103515625</ele>
        <time>2022-06-04T09:47:31.000Z</time>
      </trkpt>
      <trkpt lat="43.40391305275261402130126953125" lon="-5.67047945223748683929443359375">
        <ele>252.600006103515625</ele>
        <time>2022-06-04T09:47:33.000Z</time>
      </trkpt>
      <trkpt lat="43.4038765914738178253173828125" lon="-5.67051239311695098876953125">
        <ele>252.600006103515625</ele>
        <time>2022-06-04T09:47:35.000Z</time>
      </trkpt>
      <trkpt lat="43.4037706442177295684814453125" lon="-5.67059361375868320465087890625">
        <ele>252.600006103515625</ele>
        <time>2022-06-04T09:47:37.000Z</time>
      </trkpt>
      <trkpt lat="43.40369763784110546112060546875" lon="-5.6706245429813861846923828125">
        <ele>252.600006103515625</ele>
        <time>2022-06-04T09:47:39.000Z</time>
      </trkpt>
      <trkpt lat="43.40366092510521411895751953125" lon="-5.67063233815133571624755859375">
        <ele>252.600006103515625</ele>
        <time>2022-06-04T09:47:40.000Z</time>
      </trkpt>
      <trkpt lat="43.40362220071256160736083984375" lon="-5.67063787020742893218994140625">
        <ele>252.600006103515625</ele>
        <time>2022-06-04T09:47:41.000Z</time>
      </trkpt>
      <trkpt lat="43.40354961343109607696533203125" lon="-5.67064692266285419464111328125">
        <ele>252.600006103515625</ele>
        <time>2022-06-04T09:47:43.000Z</time>
      </trkpt>
      <trkpt lat="43.40348054654896259307861328125" lon="-5.67065312527120113372802734375">
        <ele>252.399993896484375</ele>
        <time>2022-06-04T09:47:45.000Z</time>
      </trkpt>
      <trkpt lat="43.40340309776365756988525390625" lon="-5.67065848968923091888427734375">
        <ele>252.399993896484375</ele>
        <time>2022-06-04T09:47:47.000Z</time>
      </trkpt>
      <trkpt lat="43.40335733257234096527099609375" lon="-5.6706553883850574493408203125">
        <ele>252.399993896484375</ele>
        <time>2022-06-04T09:47:48.000Z</time>
      </trkpt>
      <trkpt lat="43.40330335311591625213623046875" lon="-5.67064306698739528656005859375">
        <ele>252.399993896484375</ele>
        <time>2022-06-04T09:47:49.000Z</time>
      </trkpt>
      <trkpt lat="43.40324543416500091552734375" lon="-5.67062881775200366973876953125">
        <ele>252.1999969482421875</ele>
        <time>2022-06-04T09:47:51.000Z</time>
      </trkpt>
      <trkpt lat="43.40311802923679351806640625" lon="-5.67060551606118679046630859375">
        <ele>252.1999969482421875</ele>
        <time>2022-06-04T09:47:52.000Z</time>
      </trkpt>
      <trkpt lat="43.4030494652688503265380859375" lon="-5.6706010736525058746337890625">
        <ele>252.1999969482421875</ele>
        <time>2022-06-04T09:47:53.000Z</time>
      </trkpt>
      <trkpt lat="43.40298115275800228118896484375" lon="-5.6705916859209537506103515625">
        <ele>252</ele>
        <time>2022-06-04T09:47:55.000Z</time>
      </trkpt>
      <trkpt lat="43.4029029496014118194580078125" lon="-5.670581795275211334228515625">
        <ele>251.8000030517578125</ele>
        <time>2022-06-04T09:47:56.000Z</time>
      </trkpt>
      <trkpt lat="43.4028221480548381805419921875" lon="-5.67057634703814983367919921875">
        <ele>251.399993896484375</ele>
        <time>2022-06-04T09:47:57.000Z</time>
      </trkpt>
      <trkpt lat="43.40265442617237567901611328125" lon="-5.6705836392939090728759765625">
        <ele>250.600006103515625</ele>
        <time>2022-06-04T09:47:59.000Z</time>
      </trkpt>
      <trkpt lat="43.402496092021465301513671875" lon="-5.67063183523714542388916015625">
        <ele>250.399993896484375</ele>
        <time>2022-06-04T09:48:00.000Z</time>
      </trkpt>
      <trkpt lat="43.402496092021465301513671875" lon="-5.67063183523714542388916015625">
        <ele>250</ele>
        <time>2022-06-04T09:48:01.000Z</time>
      </trkpt>
      <trkpt lat="43.40241973288357257843017578125" lon="-5.6706721521914005279541015625">
        <ele>249.600006103515625</ele>
        <time>2022-06-04T09:48:02.000Z</time>
      </trkpt>
      <trkpt lat="43.40234429575502872467041015625" lon="-5.6707174144685268402099609375">
        <ele>249</ele>
        <time>2022-06-04T09:48:03.000Z</time>
      </trkpt>
      <trkpt lat="43.402184285223484039306640625" lon="-5.670807771384716033935546875">
        <ele>248.399993896484375</ele>
        <time>2022-06-04T09:48:04.000Z</time>
      </trkpt>
      <trkpt lat="43.4021059982478618621826171875" lon="-5.67084523849189281463623046875">
        <ele>247.600006103515625</ele>
        <time>2022-06-04T09:48:05.000Z</time>
      </trkpt>
      <trkpt lat="43.4020282141864299774169921875" lon="-5.67087373696267604827880859375">
        <ele>247</ele>
        <time>2022-06-04T09:48:06.000Z</time>
      </trkpt>
      <trkpt lat="43.4020282141864299774169921875" lon="-5.67087373696267604827880859375">
        <ele>246.399993896484375</ele>
        <time>2022-06-04T09:48:07.000Z</time>
      </trkpt>
      <trkpt lat="43.4019507654011249542236328125" lon="-5.6708920933306217193603515625">
        <ele>246</ele>
        <time>2022-06-04T09:48:08.000Z</time>
      </trkpt>
      <trkpt lat="43.401805423200130462646484375" lon="-5.67090391181409358978271484375">
        <ele>245.399993896484375</ele>
        <time>2022-06-04T09:48:09.000Z</time>
      </trkpt>
      <trkpt lat="43.4017318300902843475341796875" lon="-5.670905001461505889892578125">
        <ele>244.8000030517578125</ele>
        <time>2022-06-04T09:48:11.000Z</time>
      </trkpt>
      <trkpt lat="43.40158707462251186370849609375" lon="-5.6708820350468158721923828125">
        <ele>244.399993896484375</ele>
        <time>2022-06-04T09:48:12.000Z</time>
      </trkpt>
      <trkpt lat="43.40158707462251186370849609375" lon="-5.6708820350468158721923828125">
        <ele>244.1999969482421875</ele>
        <time>2022-06-04T09:48:13.000Z</time>
      </trkpt>
      <trkpt lat="43.4015199355781078338623046875" lon="-5.6708609126508235931396484375">
        <ele>244</ele>
        <time>2022-06-04T09:48:14.000Z</time>
      </trkpt>
      <trkpt lat="43.40145816095173358917236328125" lon="-5.67083450965583324432373046875">
        <ele>243.600006103515625</ele>
        <time>2022-06-04T09:48:15.000Z</time>
      </trkpt>
      <trkpt lat="43.4012825600802898406982421875" lon="-5.6707522831857204437255859375">
        <ele>243</ele>
        <time>2022-06-04T09:48:17.000Z</time>
      </trkpt>
      <trkpt lat="43.40123050846159458160400390625" lon="-5.67072554491460323333740234375">
        <ele>242.600006103515625</ele>
        <time>2022-06-04T09:48:19.000Z</time>
      </trkpt>
      <trkpt lat="43.40118507854640483856201171875" lon="-5.67069620825350284576416015625">
        <ele>242.600006103515625</ele>
        <time>2022-06-04T09:48:20.000Z</time>
      </trkpt>
      <trkpt lat="43.40114350430667400360107421875" lon="-5.67066821269690990447998046875">
        <ele>242.399993896484375</ele>
        <time>2022-06-04T09:48:21.000Z</time>
      </trkpt>
      <trkpt lat="43.4010166861116886138916015625" lon="-5.67061431705951690673828125">
        <ele>242.399993896484375</ele>
        <time>2022-06-04T09:48:23.000Z</time>
      </trkpt>
      <trkpt lat="43.4009710885584354400634765625" lon="-5.6706034205853939056396484375">
        <ele>242.399993896484375</ele>
        <time>2022-06-04T09:48:25.000Z</time>
      </trkpt>
      <trkpt lat="43.40087980963289737701416015625" lon="-5.67059411667287349700927734375">
        <ele>242.399993896484375</ele>
        <time>2022-06-04T09:48:27.000Z</time>
      </trkpt>
      <trkpt lat="43.400788195431232452392578125" lon="-5.67058607004582881927490234375">
        <ele>242.399993896484375</ele>
        <time>2022-06-04T09:48:28.000Z</time>
      </trkpt>
      <trkpt lat="43.400788195431232452392578125" lon="-5.67058607004582881927490234375">
        <ele>242.399993896484375</ele>
        <time>2022-06-04T09:48:29.000Z</time>
      </trkpt>
      <trkpt lat="43.4007025323808193206787109375" lon="-5.6705667078495025634765625">
        <ele>242.399993896484375</ele>
        <time>2022-06-04T09:48:30.000Z</time>
      </trkpt>
      <trkpt lat="43.4007025323808193206787109375" lon="-5.6705667078495025634765625">
        <ele>242.399993896484375</ele>
        <time>2022-06-04T09:48:31.000Z</time>
      </trkpt>
      <trkpt lat="43.40061963535845279693603515625" lon="-5.67054684273898601531982421875">
        <ele>242.600006103515625</ele>
        <time>2022-06-04T09:48:33.000Z</time>
      </trkpt>
      <trkpt lat="43.40049474500119686126708984375" lon="-5.67051264457404613494873046875">
        <ele>242.600006103515625</ele>
        <time>2022-06-04T09:48:35.000Z</time>
      </trkpt>
      <trkpt lat="43.4004507400095462799072265625" lon="-5.67050141282379627227783203125">
        <ele>242.600006103515625</ele>
        <time>2022-06-04T09:48:37.000Z</time>
      </trkpt>
      <trkpt lat="43.4003055654466152191162109375" lon="-5.670466125011444091796875">
        <ele>242.600006103515625</ele>
        <time>2022-06-04T09:48:39.000Z</time>
      </trkpt>
      <trkpt lat="43.400256447494029998779296875" lon="-5.6704475171864032745361328125">
        <ele>242.600006103515625</ele>
        <time>2022-06-04T09:48:40.000Z</time>
      </trkpt>
      <trkpt lat="43.400256447494029998779296875" lon="-5.6704475171864032745361328125">
        <ele>242.8000030517578125</ele>
        <time>2022-06-04T09:48:41.000Z</time>
      </trkpt>
      <trkpt lat="43.40016164816915988922119140625" lon="-5.67039303481578826904296875">
        <ele>242.8000030517578125</ele>
        <time>2022-06-04T09:48:42.000Z</time>
      </trkpt>
      <trkpt lat="43.40016164816915988922119140625" lon="-5.67039303481578826904296875">
        <ele>242.8000030517578125</ele>
        <time>2022-06-04T09:48:43.000Z</time>
      </trkpt>
      <trkpt lat="43.40006995014846324920654296875" lon="-5.6703217886388301849365234375">
        <ele>242.8000030517578125</ele>
        <time>2022-06-04T09:48:45.000Z</time>
      </trkpt>
      <trkpt lat="43.3999796770513057708740234375" lon="-5.670246519148349761962890625">
        <ele>242.8000030517578125</ele>
        <time>2022-06-04T09:48:46.000Z</time>
      </trkpt>
      <trkpt lat="43.3999796770513057708740234375" lon="-5.670246519148349761962890625">
        <ele>243</ele>
        <time>2022-06-04T09:48:47.000Z</time>
      </trkpt>
      <trkpt lat="43.39988923631608486175537109375" lon="-5.67017887718975543975830078125">
        <ele>243.399993896484375</ele>
        <time>2022-06-04T09:48:49.000Z</time>
      </trkpt>
      <trkpt lat="43.39984363876283168792724609375" lon="-5.6701482832431793212890625">
        <ele>243.600006103515625</ele>
        <time>2022-06-04T09:48:50.000Z</time>
      </trkpt>
      <trkpt lat="43.399754203855991363525390625" lon="-5.67008768208324909210205078125">
        <ele>243.600006103515625</ele>
        <time>2022-06-04T09:48:51.000Z</time>
      </trkpt>
      <trkpt lat="43.399663008749485015869140625" lon="-5.6700351275503635406494140625">
        <ele>244</ele>
        <time>2022-06-04T09:48:53.000Z</time>
      </trkpt>
      <trkpt lat="43.39961732737720012664794921875" lon="-5.6700113229453563690185546875">
        <ele>244.1999969482421875</ele>
        <time>2022-06-04T09:48:55.000Z</time>
      </trkpt>
      <trkpt lat="43.399485312402248382568359375" lon="-5.66991568543016910552978515625">
        <ele>244.600006103515625</ele>
        <time>2022-06-04T09:48:57.000Z</time>
      </trkpt>
      <trkpt lat="43.3994019962847232818603515625" lon="-5.66983320750296115875244140625">
        <ele>245.1999969482421875</ele>
        <time>2022-06-04T09:48:59.000Z</time>
      </trkpt>
      <trkpt lat="43.39935765601694583892822265625" lon="-5.66979330964386463165283203125">
        <ele>245.399993896484375</ele>
        <time>2022-06-04T09:49:00.000Z</time>
      </trkpt>
      <trkpt lat="43.39935765601694583892822265625" lon="-5.66979330964386463165283203125">
        <ele>245.600006103515625</ele>
        <time>2022-06-04T09:49:01.000Z</time>
      </trkpt>
      <trkpt lat="43.39931197464466094970703125" lon="-5.66975458525121212005615234375">
        <ele>245.8000030517578125</ele>
        <time>2022-06-04T09:49:02.000Z</time>
      </trkpt>
      <trkpt lat="43.399266712367534637451171875" lon="-5.66971703432500362396240234375">
        <ele>246</ele>
        <time>2022-06-04T09:49:03.000Z</time>
      </trkpt>
      <trkpt lat="43.39917912147939205169677734375" lon="-5.669642351567745208740234375">
        <ele>246.1999969482421875</ele>
        <time>2022-06-04T09:49:05.000Z</time>
      </trkpt>
      <trkpt lat="43.39905506931245326995849609375" lon="-5.66954302601516246795654296875">
        <ele>246.399993896484375</ele>
        <time>2022-06-04T09:49:07.000Z</time>
      </trkpt>
      <trkpt lat="43.39901533909142017364501953125" lon="-5.6695141084492206573486328125">
        <ele>246.600006103515625</ele>
        <time>2022-06-04T09:49:09.000Z</time>
      </trkpt>
      <trkpt lat="43.39893587864935398101806640625" lon="-5.66946004517376422882080078125">
        <ele>246.600006103515625</ele>
        <time>2022-06-04T09:49:11.000Z</time>
      </trkpt>
      <trkpt lat="43.398857004940509796142578125" lon="-5.66941243596374988555908203125">
        <ele>247</ele>
        <time>2022-06-04T09:49:13.000Z</time>
      </trkpt>
      <trkpt lat="43.39877628721296787261962890625" lon="-5.66937287338078022003173828125">
        <ele>247.8000030517578125</ele>
        <time>2022-06-04T09:49:15.000Z</time>
      </trkpt>
      <trkpt lat="43.39869364164769649505615234375" lon="-5.66934429109096527099609375">
        <ele>248</ele>
        <time>2022-06-04T09:49:16.000Z</time>
      </trkpt>
      <trkpt lat="43.3986539952456951141357421875" lon="-5.66933230496942996978759765625">
        <ele>248.399993896484375</ele>
        <time>2022-06-04T09:49:17.000Z</time>
      </trkpt>
      <trkpt lat="43.39861434884369373321533203125" lon="-5.66932057030498981475830078125">
        <ele>249</ele>
        <time>2022-06-04T09:49:19.000Z</time>
      </trkpt>
      <trkpt lat="43.3985741995275020599365234375" lon="-5.6693085841834545135498046875">
        <ele>249.1999969482421875</ele>
        <time>2022-06-04T09:49:20.000Z</time>
      </trkpt>
      <trkpt lat="43.39853455312550067901611328125" lon="-5.66929441876709461212158203125">
        <ele>249.399993896484375</ele>
        <time>2022-06-04T09:49:21.000Z</time>
      </trkpt>
      <trkpt lat="43.398455679416656494140625" lon="-5.66925988532602787017822265625">
        <ele>250</ele>
        <time>2022-06-04T09:49:23.000Z</time>
      </trkpt>
      <trkpt lat="43.3983765542507171630859375" lon="-5.6692143715918064117431640625">
        <ele>250.1999969482421875</ele>
        <time>2022-06-04T09:49:24.000Z</time>
      </trkpt>
      <trkpt lat="43.3983765542507171630859375" lon="-5.6692143715918064117431640625">
        <ele>250.600006103515625</ele>
        <time>2022-06-04T09:49:25.000Z</time>
      </trkpt>
      <trkpt lat="43.3983363211154937744140625" lon="-5.669189393520355224609375">
        <ele>250.600006103515625</ele>
        <time>2022-06-04T09:49:26.000Z</time>
      </trkpt>
      <trkpt lat="43.39829868637025356292724609375" lon="-5.6691694445908069610595703125">
        <ele>250.8000030517578125</ele>
        <time>2022-06-04T09:49:27.000Z</time>
      </trkpt>
      <trkpt lat="43.3982154540717601776123046875" lon="-5.6691416166722774505615234375">
        <ele>251</ele>
        <time>2022-06-04T09:49:28.000Z</time>
      </trkpt>
      <trkpt lat="43.39817178435623645782470703125" lon="-5.66912912763655185699462890625">
        <ele>251.1999969482421875</ele>
        <time>2022-06-04T09:49:29.000Z</time>
      </trkpt>
      <trkpt lat="43.3980868756771087646484375" lon="-5.66910230554640293121337890625">
        <ele>251.600006103515625</ele>
        <time>2022-06-04T09:49:31.000Z</time>
      </trkpt>
      <trkpt lat="43.3980453014373779296875" lon="-5.66907950676977634429931640625">
        <ele>252.1999969482421875</ele>
        <time>2022-06-04T09:49:33.000Z</time>
      </trkpt>
      <trkpt lat="43.39797011576592922210693359375" lon="-5.669018737971782684326171875">
        <ele>252.399993896484375</ele>
        <time>2022-06-04T09:49:35.000Z</time>
      </trkpt>
      <trkpt lat="43.3979036472737789154052734375" lon="-5.668942630290985107421875">
        <ele>252.8000030517578125</ele>
        <time>2022-06-04T09:49:37.000Z</time>
      </trkpt>
      <trkpt lat="43.39780599810183048248291015625" lon="-5.6688264571130275726318359375">
        <ele>253.1999969482421875</ele>
        <time>2022-06-04T09:49:39.000Z</time>
      </trkpt>
      <trkpt lat="43.397776074707508087158203125" lon="-5.66878446377813816070556640625">
        <ele>253.399993896484375</ele>
        <time>2022-06-04T09:49:41.000Z</time>
      </trkpt>
      <trkpt lat="43.397714383900165557861328125" lon="-5.66869611851871013641357421875">
        <ele>253.600006103515625</ele>
        <time>2022-06-04T09:49:42.000Z</time>
      </trkpt>
      <trkpt lat="43.397714383900165557861328125" lon="-5.66869611851871013641357421875">
        <ele>253.8000030517578125</ele>
        <time>2022-06-04T09:49:43.000Z</time>
      </trkpt>
      <trkpt lat="43.3976411260664463043212890625" lon="-5.66861213184893131256103515625">
        <ele>254</ele>
        <time>2022-06-04T09:49:45.000Z</time>
      </trkpt>
      <trkpt lat="43.39755655266344547271728515625" lon="-5.66852110438048839569091796875">
        <ele>254.1999969482421875</ele>
        <time>2022-06-04T09:49:47.000Z</time>
      </trkpt>
      <trkpt lat="43.3974724821746349334716796875" lon="-5.66842655651271343231201171875">
        <ele>254.399993896484375</ele>
        <time>2022-06-04T09:49:49.000Z</time>
      </trkpt>
      <trkpt lat="43.39739293791353702545166015625" lon="-5.6683351099491119384765625">
        <ele>254.399993896484375</ele>
        <time>2022-06-04T09:49:51.000Z</time>
      </trkpt>
      <trkpt lat="43.39731180109083652496337890625" lon="-5.66824299283325672149658203125">
        <ele>254.399993896484375</ele>
        <time>2022-06-04T09:49:53.000Z</time>
      </trkpt>
      <trkpt lat="43.39722211472690105438232421875" lon="-5.66814810968935489654541015625">
        <ele>254.399993896484375</ele>
        <time>2022-06-04T09:49:55.000Z</time>
      </trkpt>
      <trkpt lat="43.3971144072711467742919921875" lon="-5.66805942915380001068115234375">
        <ele>254.1999969482421875</ele>
        <time>2022-06-04T09:49:57.000Z</time>
      </trkpt>
      <trkpt lat="43.39696126990020275115966796875" lon="-5.6679783761501312255859375">
        <ele>253.8000030517578125</ele>
        <time>2022-06-04T09:49:59.000Z</time>
      </trkpt>
      <trkpt lat="43.3967660553753376007080078125" lon="-5.6679262407124042510986328125">
        <ele>253.600006103515625</ele>
        <time>2022-06-04T09:50:01.000Z</time>
      </trkpt>
      <trkpt lat="43.39665784500539302825927734375" lon="-5.667915679514408111572265625">
        <ele>253.399993896484375</ele>
        <time>2022-06-04T09:50:02.000Z</time>
      </trkpt>
      <trkpt lat="43.396546281874179840087890625" lon="-5.6679014302790164947509765625">
        <ele>253.1999969482421875</ele>
        <time>2022-06-04T09:50:03.000Z</time>
      </trkpt>
      <trkpt lat="43.39631653390824794769287109375" lon="-5.66784493625164031982421875">
        <ele>252.1999969482421875</ele>
        <time>2022-06-04T09:50:05.000Z</time>
      </trkpt>
      <trkpt lat="43.3961015380918979644775390625" lon="-5.66776773892343044281005859375">
        <ele>251.600006103515625</ele>
        <time>2022-06-04T09:50:06.000Z</time>
      </trkpt>
      <trkpt lat="43.3961015380918979644775390625" lon="-5.66776773892343044281005859375">
        <ele>250.8000030517578125</ele>
        <time>2022-06-04T09:50:07.000Z</time>
      </trkpt>
      <trkpt lat="43.39590263552963733673095703125" lon="-5.667644776403903961181640625">
        <ele>248.8000030517578125</ele>
        <time>2022-06-04T09:50:09.000Z</time>
      </trkpt>
      <trkpt lat="43.395733572542667388916015625" lon="-5.66747487522661685943603515625">
        <ele>247</ele>
        <time>2022-06-04T09:50:10.000Z</time>
      </trkpt>
      <trkpt lat="43.395733572542667388916015625" lon="-5.66747487522661685943603515625">
        <ele>246.399993896484375</ele>
        <time>2022-06-04T09:50:11.000Z</time>
      </trkpt>
      <trkpt lat="43.395614884793758392333984375" lon="-5.66730849444866180419921875">
        <ele>245.399993896484375</ele>
        <time>2022-06-04T09:50:12.000Z</time>
      </trkpt>
      <trkpt lat="43.395614884793758392333984375" lon="-5.66730849444866180419921875">
        <ele>244.399993896484375</ele>
        <time>2022-06-04T09:50:13.000Z</time>
      </trkpt>
      <trkpt lat="43.3955620788037776947021484375" lon="-5.667229704558849334716796875">
        <ele>243.399993896484375</ele>
        <time>2022-06-04T09:50:14.000Z</time>
      </trkpt>
      <trkpt lat="43.39551354758441448211669921875" lon="-5.66714764572679996490478515625">
        <ele>242.8000030517578125</ele>
        <time>2022-06-04T09:50:15.000Z</time>
      </trkpt>
      <trkpt lat="43.39545361697673797607421875" lon="-5.6669539399445056915283203125">
        <ele>241.399993896484375</ele>
        <time>2022-06-04T09:50:17.000Z</time>
      </trkpt>
      <trkpt lat="43.39543391950428485870361328125" lon="-5.66674263216555118560791015625">
        <ele>240.1999969482421875</ele>
        <time>2022-06-04T09:50:19.000Z</time>
      </trkpt>
      <trkpt lat="43.3953590691089630126953125" lon="-5.66643971018493175506591796875">
        <ele>239.1999969482421875</ele>
        <time>2022-06-04T09:50:21.000Z</time>
      </trkpt>
      <trkpt lat="43.39532277546823024749755859375" lon="-5.6663564778864383697509765625">
        <ele>239</ele>
        <time>2022-06-04T09:50:22.000Z</time>
      </trkpt>
      <trkpt lat="43.39532277546823024749755859375" lon="-5.6663564778864383697509765625">
        <ele>238.600006103515625</ele>
        <time>2022-06-04T09:50:23.000Z</time>
      </trkpt>
      <trkpt lat="43.3952378667891025543212890625" lon="-5.6662062741816043853759765625">
        <ele>238.1999969482421875</ele>
        <time>2022-06-04T09:50:24.000Z</time>
      </trkpt>
      <trkpt lat="43.3952378667891025543212890625" lon="-5.6662062741816043853759765625">
        <ele>237.600006103515625</ele>
        <time>2022-06-04T09:50:25.000Z</time>
      </trkpt>
      <trkpt lat="43.3951852284371852874755859375" lon="-5.66613410599529743194580078125">
        <ele>237.1999969482421875</ele>
        <time>2022-06-04T09:50:26.000Z</time>
      </trkpt>
      <trkpt lat="43.3950655348598957061767578125" lon="-5.66598775796592235565185546875">
        <ele>236.8000030517578125</ele>
        <time>2022-06-04T09:50:27.000Z</time>
      </trkpt>
      <trkpt lat="43.39500007219612598419189453125" lon="-5.6659152545034885406494140625">
        <ele>236</ele>
        <time>2022-06-04T09:50:28.000Z</time>
      </trkpt>
      <trkpt lat="43.39492899365723133087158203125" lon="-5.6658421643078327178955078125">
        <ele>235.1999969482421875</ele>
        <time>2022-06-04T09:50:29.000Z</time>
      </trkpt>
      <trkpt lat="43.39492899365723133087158203125" lon="-5.6658421643078327178955078125">
        <ele>234.399993896484375</ele>
        <time>2022-06-04T09:50:30.000Z</time>
      </trkpt>
      <trkpt lat="43.39485540054738521575927734375" lon="-5.665759854018688201904296875">
        <ele>233.8000030517578125</ele>
        <time>2022-06-04T09:50:31.000Z</time>
      </trkpt>
      <trkpt lat="43.3947842381894588470458984375" lon="-5.6656644679605960845947265625">
        <ele>233</ele>
        <time>2022-06-04T09:50:32.000Z</time>
      </trkpt>
      <trkpt lat="43.3946534804999828338623046875" lon="-5.6654586084187030792236328125">
        <ele>232.1999969482421875</ele>
        <time>2022-06-04T09:50:33.000Z</time>
      </trkpt>
      <trkpt lat="43.39459338225424289703369140625" lon="-5.665364228188991546630859375">
        <ele>231.1999969482421875</ele>
        <time>2022-06-04T09:50:34.000Z</time>
      </trkpt>
      <trkpt lat="43.39453705586493015289306640625" lon="-5.66527529619634151458740234375">
        <ele>230.600006103515625</ele>
        <time>2022-06-04T09:50:35.000Z</time>
      </trkpt>
      <trkpt lat="43.3944848366081714630126953125" lon="-5.66518996842205524444580078125">
        <ele>229.8000030517578125</ele>
        <time>2022-06-04T09:50:36.000Z</time>
      </trkpt>
      <trkpt lat="43.39443932287395000457763671875" lon="-5.66510598175227642059326171875">
        <ele>228.399993896484375</ele>
        <time>2022-06-04T09:50:37.000Z</time>
      </trkpt>
      <trkpt lat="43.3943530730903148651123046875" lon="-5.6649328954517841339111328125">
        <ele>227.1999969482421875</ele>
        <time>2022-06-04T09:50:39.000Z</time>
      </trkpt>
      <trkpt lat="43.39431124739348888397216796875" lon="-5.664845891296863555908203125">
        <ele>225.8000030517578125</ele>
        <time>2022-06-04T09:50:41.000Z</time>
      </trkpt>
      <trkpt lat="43.39420379139482975006103515625" lon="-5.66462838090956211090087890625">
        <ele>224.1999969482421875</ele>
        <time>2022-06-04T09:50:43.000Z</time>
      </trkpt>
      <trkpt lat="43.39420379139482975006103515625" lon="-5.66462838090956211090087890625">
        <ele>223.399993896484375</ele>
        <time>2022-06-04T09:50:44.000Z</time>
      </trkpt>
      <trkpt lat="43.3941549248993396759033203125" lon="-5.664495192468166351318359375">
        <ele>222.8000030517578125</ele>
        <time>2022-06-04T09:50:45.000Z</time>
      </trkpt>
      <trkpt lat="43.39410035870969295501708984375" lon="-5.66442805342376232147216796875">
        <ele>221.399993896484375</ele>
        <time>2022-06-04T09:50:47.000Z</time>
      </trkpt>
      <trkpt lat="43.39402726851403713226318359375" lon="-5.66446091048419475555419921875">
        <ele>219.8000030517578125</ele>
        <time>2022-06-04T09:50:49.000Z</time>
      </trkpt>
      <trkpt lat="43.39402726851403713226318359375" lon="-5.66446091048419475555419921875">
        <ele>218.8000030517578125</ele>
        <time>2022-06-04T09:50:50.000Z</time>
      </trkpt>
      <trkpt lat="43.39396641589701175689697265625" lon="-5.66455109976232051849365234375">
        <ele>217.8000030517578125</ele>
        <time>2022-06-04T09:50:51.000Z</time>
      </trkpt>
      <trkpt lat="43.3939115144312381744384765625" lon="-5.66466023214161396026611328125">
        <ele>216.399993896484375</ele>
        <time>2022-06-04T09:50:53.000Z</time>
      </trkpt>
      <trkpt lat="43.39388879947364330291748046875" lon="-5.6647146306931972503662109375">
        <ele>215.8000030517578125</ele>
        <time>2022-06-04T09:50:54.000Z</time>
      </trkpt>
      <trkpt lat="43.39387270621955394744873046875" lon="-5.66476165316998958587646484375">
        <ele>215</ele>
        <time>2022-06-04T09:50:55.000Z</time>
      </trkpt>
      <trkpt lat="43.393854685127735137939453125" lon="-5.66482569091022014617919921875">
        <ele>214.1999969482421875</ele>
        <time>2022-06-04T09:50:57.000Z</time>
      </trkpt>
      <trkpt lat="43.39384965598583221435546875" lon="-5.664851255714893341064453125">
        <ele>213.8000030517578125</ele>
        <time>2022-06-04T09:50:58.000Z</time>
      </trkpt>
      <trkpt lat="43.39384102262556552886962890625" lon="-5.66487547941505908966064453125">
        <ele>213.600006103515625</ele>
        <time>2022-06-04T09:50:59.000Z</time>
      </trkpt>
      <trkpt lat="43.39381855912506580352783203125" lon="-5.66492644138634204864501953125">
        <ele>213.1999969482421875</ele>
        <time>2022-06-04T09:51:01.000Z</time>
      </trkpt>
      <trkpt lat="43.3937931619584560394287109375" lon="-5.66498612053692340850830078125">
        <ele>212.8000030517578125</ele>
        <time>2022-06-04T09:51:03.000Z</time>
      </trkpt>
      <trkpt lat="43.39377832598984241485595703125" lon="-5.66501797176897525787353515625">
        <ele>212.399993896484375</ele>
        <time>2022-06-04T09:51:04.000Z</time>
      </trkpt>
      <trkpt lat="43.39377832598984241485595703125" lon="-5.66501797176897525787353515625">
        <ele>212.1999969482421875</ele>
        <time>2022-06-04T09:51:05.000Z</time>
      </trkpt>
      <trkpt lat="43.39375837706029415130615234375" lon="-5.6650914810597896575927734375">
        <ele>212</ele>
        <time>2022-06-04T09:51:07.000Z</time>
      </trkpt>
      <trkpt lat="43.3937314711511135101318359375" lon="-5.66522399894893169403076171875">
        <ele>212</ele>
        <time>2022-06-04T09:51:09.000Z</time>
      </trkpt>
      <trkpt lat="43.39372183196246623992919921875" lon="-5.66527135670185089111328125">
        <ele>211.8000030517578125</ele>
        <time>2022-06-04T09:51:11.000Z</time>
      </trkpt>
      <trkpt lat="43.39369945228099822998046875" lon="-5.6653684191405773162841796875">
        <ele>211.8000030517578125</ele>
        <time>2022-06-04T09:51:13.000Z</time>
      </trkpt>
      <trkpt lat="43.393660895526409149169921875" lon="-5.66552926786243915557861328125">
        <ele>211.600006103515625</ele>
        <time>2022-06-04T09:51:15.000Z</time>
      </trkpt>
      <trkpt lat="43.39364337734878063201904296875" lon="-5.6656470336019992828369140625">
        <ele>211.600006103515625</ele>
        <time>2022-06-04T09:51:17.000Z</time>
      </trkpt>
      <trkpt lat="43.39364136569201946258544921875" lon="-5.66571132279932498931884765625">
        <ele>211.399993896484375</ele>
        <time>2022-06-04T09:51:18.000Z</time>
      </trkpt>
      <trkpt lat="43.393640778958797454833984375" lon="-5.6657762825489044189453125">
        <ele>211.399993896484375</ele>
        <time>2022-06-04T09:51:19.000Z</time>
      </trkpt>
      <trkpt lat="43.39362141676247119903564453125" lon="-5.66590033471584320068359375">
        <ele>211.1999969482421875</ele>
        <time>2022-06-04T09:51:21.000Z</time>
      </trkpt>
      <trkpt lat="43.39359526522457599639892578125" lon="-5.66595121286809444427490234375">
        <ele>211</ele>
        <time>2022-06-04T09:51:22.000Z</time>
      </trkpt>
      <trkpt lat="43.39359526522457599639892578125" lon="-5.66595121286809444427490234375">
        <ele>211</ele>
        <time>2022-06-04T09:51:23.000Z</time>
      </trkpt>
      <trkpt lat="43.393520079553127288818359375" lon="-5.66596093587577342987060546875">
        <ele>210.8000030517578125</ele>
        <time>2022-06-04T09:51:24.000Z</time>
      </trkpt>
      <trkpt lat="43.39349694550037384033203125" lon="-5.66591198556125164031982421875">
        <ele>210.8000030517578125</ele>
        <time>2022-06-04T09:51:25.000Z</time>
      </trkpt>
      <trkpt lat="43.39349166490137577056884765625" lon="-5.66585197113454341888427734375">
        <ele>210.399993896484375</ele>
        <time>2022-06-04T09:51:27.000Z</time>
      </trkpt>
      <trkpt lat="43.39350490830838680267333984375" lon="-5.66573177464306354522705078125">
        <ele>210.1999969482421875</ele>
        <time>2022-06-04T09:51:28.000Z</time>
      </trkpt>
      <trkpt lat="43.3935058303177356719970703125" lon="-5.66567444242537021636962890625">
        <ele>210.1999969482421875</ele>
        <time>2022-06-04T09:51:29.000Z</time>
      </trkpt>
      <trkpt lat="43.3934897370636463165283203125" lon="-5.6655632145702838897705078125">
        <ele>210</ele>
        <time>2022-06-04T09:51:31.000Z</time>
      </trkpt>
      <trkpt lat="43.3934686146676540374755859375" lon="-5.66544435918331146240234375">
        <ele>209.8000030517578125</ele>
        <time>2022-06-04T09:51:33.000Z</time>
      </trkpt>
      <trkpt lat="43.39345545507967472076416015625" lon="-5.66538241691887378692626953125">
        <ele>209.8000030517578125</ele>
        <time>2022-06-04T09:51:34.000Z</time>
      </trkpt>
      <trkpt lat="43.393441624939441680908203125" lon="-5.6653204746544361114501953125">
        <ele>209.8000030517578125</ele>
        <time>2022-06-04T09:51:35.000Z</time>
      </trkpt>
      <trkpt lat="43.39341354556381702423095703125" lon="-5.66518284380435943603515625">
        <ele>209.600006103515625</ele>
        <time>2022-06-04T09:51:37.000Z</time>
      </trkpt>
      <trkpt lat="43.3933849632740020751953125" lon="-5.665039010345935821533203125">
        <ele>209.399993896484375</ele>
        <time>2022-06-04T09:51:39.000Z</time>
      </trkpt>
      <trkpt lat="43.393354453146457672119140625" lon="-5.664897859096527099609375">
        <ele>209.399993896484375</ele>
        <time>2022-06-04T09:51:41.000Z</time>
      </trkpt>
      <trkpt lat="43.39333592914044857025146484375" lon="-5.6648303009569644927978515625">
        <ele>209.399993896484375</ele>
        <time>2022-06-04T09:51:42.000Z</time>
      </trkpt>
      <trkpt lat="43.39331463910639286041259765625" lon="-5.66476483829319477081298828125">
        <ele>209.1999969482421875</ele>
        <time>2022-06-04T09:51:43.000Z</time>
      </trkpt>
      <trkpt lat="43.39328044094145298004150390625" lon="-5.66462435759603977203369140625">
        <ele>209.1999969482421875</ele>
        <time>2022-06-04T09:51:45.000Z</time>
      </trkpt>
      <trkpt lat="43.39323811233043670654296875" lon="-5.66449896432459354400634765625">
        <ele>209.600006103515625</ele>
        <time>2022-06-04T09:51:47.000Z</time>
      </trkpt>
      <trkpt lat="43.3931913413107395172119140625" lon="-5.66438614390790462493896484375">
        <ele>209.399993896484375</ele>
        <time>2022-06-04T09:51:49.000Z</time>
      </trkpt>
      <trkpt lat="43.3931262977421283721923828125" lon="-5.66429427824914455413818359375">
        <ele>209.399993896484375</ele>
        <time>2022-06-04T09:51:51.000Z</time>
      </trkpt>
      <trkpt lat="43.3930857293307781219482421875" lon="-5.66426980309188365936279296875">
        <ele>209.399993896484375</ele>
        <time>2022-06-04T09:51:52.000Z</time>
      </trkpt>
      <trkpt lat="43.39304826222360134124755859375" lon="-5.664248764514923095703125">
        <ele>209.399993896484375</ele>
        <time>2022-06-04T09:51:53.000Z</time>
      </trkpt>
      <trkpt lat="43.39296209625899791717529296875" lon="-5.66423258744180202484130859375">
        <ele>209.600006103515625</ele>
        <time>2022-06-04T09:51:55.000Z</time>
      </trkpt>
      <trkpt lat="43.39289302937686443328857421875" lon="-5.66421766765415668487548828125">
        <ele>209.600006103515625</ele>
        <time>2022-06-04T09:51:57.000Z</time>
      </trkpt>
      <trkpt lat="43.3928077854216098785400390625" lon="-5.66421280615031719207763671875">
        <ele>209.600006103515625</ele>
        <time>2022-06-04T09:51:59.000Z</time>
      </trkpt>
      <trkpt lat="43.392704688012599945068359375" lon="-5.66420006565749645233154296875">
        <ele>209.600006103515625</ele>
        <time>2022-06-04T09:52:01.000Z</time>
      </trkpt>
      <trkpt lat="43.3926495350897312164306640625" lon="-5.66419051028788089752197265625">
        <ele>209.600006103515625</ele>
        <time>2022-06-04T09:52:02.000Z</time>
      </trkpt>
      <trkpt lat="43.39259128086268901824951171875" lon="-5.66418078728020191192626953125">
        <ele>209.600006103515625</ele>
        <time>2022-06-04T09:52:03.000Z</time>
      </trkpt>
      <trkpt lat="43.39247376658022403717041015625" lon="-5.664170645177364349365234375">
        <ele>209.399993896484375</ele>
        <time>2022-06-04T09:52:05.000Z</time>
      </trkpt>
      <trkpt lat="43.39235675521194934844970703125" lon="-5.6641714833676815032958984375">
        <ele>209.399993896484375</ele>
        <time>2022-06-04T09:52:07.000Z</time>
      </trkpt>
      <trkpt lat="43.39224443770945072174072265625" lon="-5.6641778536140918731689453125">
        <ele>209.399993896484375</ele>
        <time>2022-06-04T09:52:09.000Z</time>
      </trkpt>
      <trkpt lat="43.3921362273395061492919921875" lon="-5.66418908536434173583984375">
        <ele>209.1999969482421875</ele>
        <time>2022-06-04T09:52:11.000Z</time>
      </trkpt>
      <trkpt lat="43.39202801696956157684326171875" lon="-5.66420593298971652984619140625">
        <ele>209.1999969482421875</ele>
        <time>2022-06-04T09:52:13.000Z</time>
      </trkpt>
      <trkpt lat="43.3919176273047924041748046875" lon="-5.66421917639672756195068359375">
        <ele>209</ele>
        <time>2022-06-04T09:52:15.000Z</time>
      </trkpt>
      <trkpt lat="43.391809165477752685546875" lon="-5.6642227806150913238525390625">
        <ele>209</ele>
        <time>2022-06-04T09:52:17.000Z</time>
      </trkpt>
      <trkpt lat="43.39174680411815643310546875" lon="-5.664221942424774169921875">
        <ele>209</ele>
        <time>2022-06-04T09:52:18.000Z</time>
      </trkpt>
      <trkpt lat="43.3916926570236682891845703125" lon="-5.66422403790056705474853515625">
        <ele>209</ele>
        <time>2022-06-04T09:52:19.000Z</time>
      </trkpt>
      <trkpt lat="43.391585536301136016845703125" lon="-5.6642321683466434478759765625">
        <ele>209</ele>
        <time>2022-06-04T09:52:21.000Z</time>
      </trkpt>
      <trkpt lat="43.3915340714156627655029296875" lon="-5.6642392091453075408935546875">
        <ele>208.8000030517578125</ele>
        <time>2022-06-04T09:52:22.000Z</time>
      </trkpt>
      <trkpt lat="43.39148185215890407562255859375" lon="-5.6642559729516506195068359375">
        <ele>208.8000030517578125</ele>
        <time>2022-06-04T09:52:23.000Z</time>
      </trkpt>
      <trkpt lat="43.39143072254955768585205078125" lon="-5.6642744131386280059814453125">
        <ele>208.8000030517578125</ele>
        <time>2022-06-04T09:52:24.000Z</time>
      </trkpt>
      <trkpt lat="43.391381017863750457763671875" lon="-5.6642774306237697601318359375">
        <ele>208.8000030517578125</ele>
        <time>2022-06-04T09:52:25.000Z</time>
      </trkpt>
      <trkpt lat="43.391381017863750457763671875" lon="-5.6642774306237697601318359375">
        <ele>208.8000030517578125</ele>
        <time>2022-06-04T09:52:26.000Z</time>
      </trkpt>
      <trkpt lat="43.3912987075746059417724609375" lon="-5.664200484752655029296875">
        <ele>208.600006103515625</ele>
        <time>2022-06-04T09:52:27.000Z</time>
      </trkpt>
      <trkpt lat="43.39126492850482463836669921875" lon="-5.66414306871592998504638671875">
        <ele>208.600006103515625</ele>
        <time>2022-06-04T09:52:29.000Z</time>
      </trkpt>
      <trkpt lat="43.39121438562870025634765625" lon="-5.66401599906384944915771484375">
        <ele>208.399993896484375</ele>
        <time>2022-06-04T09:52:30.000Z</time>
      </trkpt>
      <trkpt lat="43.39121438562870025634765625" lon="-5.66401599906384944915771484375">
        <ele>208.399993896484375</ele>
        <time>2022-06-04T09:52:31.000Z</time>
      </trkpt>
      <trkpt lat="43.39113132096827030181884765625" lon="-5.66379957832396030426025390625">
        <ele>208.1999969482421875</ele>
        <time>2022-06-04T09:52:33.000Z</time>
      </trkpt>
      <trkpt lat="43.3910970389842987060546875" lon="-5.6637243926525115966796875">
        <ele>208.1999969482421875</ele>
        <time>2022-06-04T09:52:35.000Z</time>
      </trkpt>
      <trkpt lat="43.39101548306643962860107421875" lon="-5.663508810102939605712890625">
        <ele>208</ele>
        <time>2022-06-04T09:52:37.000Z</time>
      </trkpt>
      <trkpt lat="43.39098262600600719451904296875" lon="-5.66339649260044097900390625">
        <ele>207.8000030517578125</ele>
        <time>2022-06-04T09:52:39.000Z</time>
      </trkpt>
      <trkpt lat="43.39095421135425567626953125" lon="-5.6632846780121326446533203125">
        <ele>207</ele>
        <time>2022-06-04T09:52:41.000Z</time>
      </trkpt>
      <trkpt lat="43.3909419737756252288818359375" lon="-5.66323824226856231689453125">
        <ele>206.600006103515625</ele>
        <time>2022-06-04T09:52:42.000Z</time>
      </trkpt>
      <trkpt lat="43.390925042331218719482421875" lon="-5.663199014961719512939453125">
        <ele>206.399993896484375</ele>
        <time>2022-06-04T09:52:43.000Z</time>
      </trkpt>
      <trkpt lat="43.39090769179165363311767578125" lon="-5.66316255368292331695556640625">
        <ele>205.600006103515625</ele>
        <time>2022-06-04T09:52:45.000Z</time>
      </trkpt>
      <trkpt lat="43.3908970467746257781982421875" lon="-5.66310740076005458831787109375">
        <ele>204.8000030517578125</ele>
        <time>2022-06-04T09:52:47.000Z</time>
      </trkpt>
      <trkpt lat="43.3908739127218723297119140625" lon="-5.66305727697908878326416015625">
        <ele>204.399993896484375</ele>
        <time>2022-06-04T09:52:48.000Z</time>
      </trkpt>
      <trkpt lat="43.3908651955425739288330078125" lon="-5.6630302034318447113037109375">
        <ele>204.1999969482421875</ele>
        <time>2022-06-04T09:52:49.000Z</time>
      </trkpt>
      <trkpt lat="43.390853293240070343017578125" lon="-5.66300547681748867034912109375">
        <ele>203.8000030517578125</ele>
        <time>2022-06-04T09:52:51.000Z</time>
      </trkpt>
      <trkpt lat="43.39085052721202373504638671875" lon="-5.66296373493969440460205078125">
        <ele>203.8000030517578125</ele>
        <time>2022-06-04T09:52:52.000Z</time>
      </trkpt>
      <trkpt lat="43.39085052721202373504638671875" lon="-5.66296373493969440460205078125">
        <ele>203.399993896484375</ele>
        <time>2022-06-04T09:52:53.000Z</time>
      </trkpt>
      <trkpt lat="43.3908444084227085113525390625" lon="-5.66295065917074680328369140625">
        <ele>203</ele>
        <time>2022-06-04T09:52:54.000Z</time>
      </trkpt>
      <trkpt lat="43.3908444084227085113525390625" lon="-5.66295065917074680328369140625">
        <ele>202.600006103515625</ele>
        <time>2022-06-04T09:52:55.000Z</time>
      </trkpt>
      <trkpt lat="43.39083510451018810272216796875" lon="-5.66293439827859401702880859375">
        <ele>202.1999969482421875</ele>
        <time>2022-06-04T09:52:57.000Z</time>
      </trkpt>
      <trkpt lat="43.39083258993923664093017578125" lon="-5.662932805716991424560546875">
        <ele>201.8000030517578125</ele>
        <time>2022-06-04T09:52:58.000Z</time>
      </trkpt>
      <trkpt lat="43.39080090634524822235107421875" lon="-5.66286952234804630279541015625">
        <ele>200.8000030517578125</ele>
        <time>2022-06-04T09:53:05.000Z</time>
      </trkpt>
      <trkpt lat="43.39077022857964038848876953125" lon="-5.66280179657042026519775390625">
        <ele>200.8000030517578125</ele>
        <time>2022-06-04T09:53:06.000Z</time>
      </trkpt>
      <trkpt lat="43.39077022857964038848876953125" lon="-5.66280179657042026519775390625">
        <ele>200.8000030517578125</ele>
        <time>2022-06-04T09:53:07.000Z</time>
      </trkpt>
      <trkpt lat="43.39071013033390045166015625" lon="-5.66273138858377933502197265625">
        <ele>200.600006103515625</ele>
        <time>2022-06-04T09:53:09.000Z</time>
      </trkpt>
      <trkpt lat="43.390658162534236907958984375" lon="-5.66266533918678760528564453125">
        <ele>200.600006103515625</ele>
        <time>2022-06-04T09:53:10.000Z</time>
      </trkpt>
      <trkpt lat="43.390658162534236907958984375" lon="-5.66266533918678760528564453125">
        <ele>200.399993896484375</ele>
        <time>2022-06-04T09:53:11.000Z</time>
      </trkpt>
      <trkpt lat="43.3905996568500995635986328125" lon="-5.6626208312809467315673828125">
        <ele>200.1999969482421875</ele>
        <time>2022-06-04T09:53:12.000Z</time>
      </trkpt>
      <trkpt lat="43.3905996568500995635986328125" lon="-5.6626208312809467315673828125">
        <ele>200</ele>
        <time>2022-06-04T09:53:13.000Z</time>
      </trkpt>
      <trkpt lat="43.390557579696178436279296875" lon="-5.6625621579587459564208984375">
        <ele>199.8000030517578125</ele>
        <time>2022-06-04T09:53:15.000Z</time>
      </trkpt>
      <trkpt lat="43.3905118145048618316650390625" lon="-5.66251245327293872833251953125">
        <ele>199.8000030517578125</ele>
        <time>2022-06-04T09:53:16.000Z</time>
      </trkpt>
      <trkpt lat="43.3905118145048618316650390625" lon="-5.66251245327293872833251953125">
        <ele>199.600006103515625</ele>
        <time>2022-06-04T09:53:17.000Z</time>
      </trkpt>
      <trkpt lat="43.39046730659902095794677734375" lon="-5.66249250434339046478271484375">
        <ele>199.399993896484375</ele>
        <time>2022-06-04T09:53:19.000Z</time>
      </trkpt>
      <trkpt lat="43.39041315950453281402587890625" lon="-5.66249518655240535736083984375">
        <ele>199.399993896484375</ele>
        <time>2022-06-04T09:53:21.000Z</time>
      </trkpt>
      <trkpt lat="43.390296734869480133056640625" lon="-5.66251815296709537506103515625">
        <ele>199.399993896484375</ele>
        <time>2022-06-04T09:53:23.000Z</time>
      </trkpt>
      <trkpt lat="43.39020051062107086181640625" lon="-5.662533156573772430419921875">
        <ele>199.399993896484375</ele>
        <time>2022-06-04T09:53:25.000Z</time>
      </trkpt>
      <trkpt lat="43.3901497162878513336181640625" lon="-5.66253592260181903839111328125">
        <ele>199.399993896484375</ele>
        <time>2022-06-04T09:53:26.000Z</time>
      </trkpt>
      <trkpt lat="43.39009950868785381317138671875" lon="-5.6625442206859588623046875">
        <ele>199.399993896484375</ele>
        <time>2022-06-04T09:53:27.000Z</time>
      </trkpt>
      <trkpt lat="43.389995992183685302734375" lon="-5.6625655107200145721435546875">
        <ele>199.399993896484375</ele>
        <time>2022-06-04T09:53:29.000Z</time>
      </trkpt>
      <trkpt lat="43.3898927271366119384765625" lon="-5.6625765748322010040283203125">
        <ele>199.600006103515625</ele>
        <time>2022-06-04T09:53:31.000Z</time>
      </trkpt>
      <trkpt lat="43.38979407213628292083740234375" lon="-5.66258185543119907379150390625">
        <ele>199.8000030517578125</ele>
        <time>2022-06-04T09:53:33.000Z</time>
      </trkpt>
      <trkpt lat="43.38970572687685489654541015625" lon="-5.6625812686979770660400390625">
        <ele>200</ele>
        <time>2022-06-04T09:53:35.000Z</time>
      </trkpt>
      <trkpt lat="43.3896276913583278656005859375" lon="-5.6625785864889621734619140625">
        <ele>200.399993896484375</ele>
        <time>2022-06-04T09:53:37.000Z</time>
      </trkpt>
      <trkpt lat="43.38951596058905124664306640625" lon="-5.6625906564295291900634765625">
        <ele>200.600006103515625</ele>
        <time>2022-06-04T09:53:39.000Z</time>
      </trkpt>
      <trkpt lat="43.38941370137035846710205078125" lon="-5.66260767169296741485595703125">
        <ele>200.600006103515625</ele>
        <time>2022-06-04T09:53:41.000Z</time>
      </trkpt>
      <trkpt lat="43.3893085084855556488037109375" lon="-5.66261320374906063079833984375">
        <ele>200.8000030517578125</ele>
        <time>2022-06-04T09:53:43.000Z</time>
      </trkpt>
      <trkpt lat="43.38922427035868167877197265625" lon="-5.66263147629797458648681640625">
        <ele>200.8000030517578125</ele>
        <time>2022-06-04T09:53:45.000Z</time>
      </trkpt>
      <trkpt lat="43.38917984627187252044677734375" lon="-5.66265729255974292755126953125">
        <ele>201</ele>
        <time>2022-06-04T09:53:47.000Z</time>
      </trkpt>
      <trkpt lat="43.3891254477202892303466796875" lon="-5.6627046503126621246337890625">
        <ele>201.1999969482421875</ele>
        <time>2022-06-04T09:53:49.000Z</time>
      </trkpt>
      <trkpt lat="43.38909502141177654266357421875" lon="-5.66272686235606670379638671875">
        <ele>201.399993896484375</ele>
        <time>2022-06-04T09:53:50.000Z</time>
      </trkpt>
      <trkpt lat="43.3890580572187900543212890625" lon="-5.6627331487834453582763671875">
        <ele>201.399993896484375</ele>
        <time>2022-06-04T09:53:51.000Z</time>
      </trkpt>
      <trkpt lat="43.38902159593999385833740234375" lon="-5.6627239286899566650390625">
        <ele>201.600006103515625</ele>
        <time>2022-06-04T09:53:52.000Z</time>
      </trkpt>
      <trkpt lat="43.38898488320410251617431640625" lon="-5.6627126969397068023681640625">
        <ele>201.600006103515625</ele>
        <time>2022-06-04T09:53:53.000Z</time>
      </trkpt>
      <trkpt lat="43.38888865895569324493408203125" lon="-5.66268629394471645355224609375">
        <ele>201.600006103515625</ele>
        <time>2022-06-04T09:53:55.000Z</time>
      </trkpt>
      <trkpt lat="43.38888865895569324493408203125" lon="-5.66268629394471645355224609375">
        <ele>201.8000030517578125</ele>
        <time>2022-06-04T09:53:56.000Z</time>
      </trkpt>
      <trkpt lat="43.388788998126983642578125" lon="-5.6626801751554012298583984375">
        <ele>201.8000030517578125</ele>
        <time>2022-06-04T09:53:57.000Z</time>
      </trkpt>
      <trkpt lat="43.38869235478341579437255859375" lon="-5.66270188428461551666259765625">
        <ele>201.8000030517578125</ele>
        <time>2022-06-04T09:53:59.000Z</time>
      </trkpt>
      <trkpt lat="43.38864441029727458953857421875" lon="-5.662711523473262786865234375">
        <ele>201.8000030517578125</ele>
        <time>2022-06-04T09:54:00.000Z</time>
      </trkpt>
      <trkpt lat="43.38859881274402141571044921875" lon="-5.6627204082906246185302734375">
        <ele>201.8000030517578125</ele>
        <time>2022-06-04T09:54:01.000Z</time>
      </trkpt>
      <trkpt lat="43.38851197622716426849365234375" lon="-5.66273507662117481231689453125">
        <ele>202</ele>
        <time>2022-06-04T09:54:03.000Z</time>
      </trkpt>
      <trkpt lat="43.38842782191932201385498046875" lon="-5.6627515889704227447509765625">
        <ele>202.600006103515625</ele>
        <time>2022-06-04T09:54:05.000Z</time>
      </trkpt>
      <trkpt lat="43.38835037313401699066162109375" lon="-5.66276810131967067718505859375">
        <ele>203.1999969482421875</ele>
        <time>2022-06-04T09:54:07.000Z</time>
      </trkpt>
      <trkpt lat="43.3883097209036350250244140625" lon="-5.6627790816128253936767578125">
        <ele>203.399993896484375</ele>
        <time>2022-06-04T09:54:09.000Z</time>
      </trkpt>
      <trkpt lat="43.38822481222450733184814453125" lon="-5.66279877908527851104736328125">
        <ele>203.600006103515625</ele>
        <time>2022-06-04T09:54:10.000Z</time>
      </trkpt>
      <trkpt lat="43.38817737065255641937255859375" lon="-5.6627998687326908111572265625">
        <ele>203.600006103515625</ele>
        <time>2022-06-04T09:54:11.000Z</time>
      </trkpt>
      <trkpt lat="43.3881326951086521148681640625" lon="-5.66280229948461055755615234375">
        <ele>203.8000030517578125</ele>
        <time>2022-06-04T09:54:12.000Z</time>
      </trkpt>
      <trkpt lat="43.3881326951086521148681640625" lon="-5.66280229948461055755615234375">
        <ele>204</ele>
        <time>2022-06-04T09:54:13.000Z</time>
      </trkpt>
      <trkpt lat="43.38804694823920726776123046875" lon="-5.662814788520336151123046875">
        <ele>204.600006103515625</ele>
        <time>2022-06-04T09:54:15.000Z</time>
      </trkpt>
      <trkpt lat="43.38795525021851062774658203125" lon="-5.662822835147380828857421875">
        <ele>205</ele>
        <time>2022-06-04T09:54:16.000Z</time>
      </trkpt>
      <trkpt lat="43.3879110775887966156005859375" lon="-5.66283348016440868377685546875">
        <ele>205.1999969482421875</ele>
        <time>2022-06-04T09:54:17.000Z</time>
      </trkpt>
      <trkpt lat="43.387820720672607421875" lon="-5.66283850930631160736083984375">
        <ele>205.600006103515625</ele>
        <time>2022-06-04T09:54:19.000Z</time>
      </trkpt>
      <trkpt lat="43.387820720672607421875" lon="-5.66283850930631160736083984375">
        <ele>205.8000030517578125</ele>
        <time>2022-06-04T09:54:20.000Z</time>
      </trkpt>
      <trkpt lat="43.38777713477611541748046875" lon="-5.6628498248755931854248046875">
        <ele>206</ele>
        <time>2022-06-04T09:54:21.000Z</time>
      </trkpt>
      <trkpt lat="43.387682251632213592529296875" lon="-5.6628706119954586029052734375">
        <ele>206.1999969482421875</ele>
        <time>2022-06-04T09:54:23.000Z</time>
      </trkpt>
      <trkpt lat="43.38758074678480625152587890625" lon="-5.66288729198276996612548828125">
        <ele>206.399993896484375</ele>
        <time>2022-06-04T09:54:25.000Z</time>
      </trkpt>
      <trkpt lat="43.3875297009944915771484375" lon="-5.662894584238529205322265625">
        <ele>206.399993896484375</ele>
        <time>2022-06-04T09:54:26.000Z</time>
      </trkpt>
      <trkpt lat="43.38747848756611347198486328125" lon="-5.66290087066590785980224609375">
        <ele>206.399993896484375</ele>
        <time>2022-06-04T09:54:27.000Z</time>
      </trkpt>
      <trkpt lat="43.3873756416141986846923828125" lon="-5.6629242561757564544677734375">
        <ele>206.399993896484375</ele>
        <time>2022-06-04T09:54:29.000Z</time>
      </trkpt>
      <trkpt lat="43.387262485921382904052734375" lon="-5.662943534553050994873046875">
        <ele>206.399993896484375</ele>
        <time>2022-06-04T09:54:31.000Z</time>
      </trkpt>
      <trkpt lat="43.387201130390167236328125" lon="-5.66294998861849308013916015625">
        <ele>206.399993896484375</ele>
        <time>2022-06-04T09:54:32.000Z</time>
      </trkpt>
      <trkpt lat="43.3870697021484375" lon="-5.66296507604420185089111328125">
        <ele>206.399993896484375</ele>
        <time>2022-06-04T09:54:33.000Z</time>
      </trkpt>
      <trkpt lat="43.38699937798082828521728515625" lon="-5.66296842880547046661376953125">
        <ele>206.399993896484375</ele>
        <time>2022-06-04T09:54:35.000Z</time>
      </trkpt>
      <trkpt lat="43.3868537843227386474609375" lon="-5.66293674521148204803466796875">
        <ele>206.399993896484375</ele>
        <time>2022-06-04T09:54:36.000Z</time>
      </trkpt>
      <trkpt lat="43.3867822028696537017822265625" lon="-5.66290573216974735260009765625">
        <ele>206</ele>
        <time>2022-06-04T09:54:37.000Z</time>
      </trkpt>
      <trkpt lat="43.3867114596068859100341796875" lon="-5.66287119872868061065673828125">
        <ele>205.600006103515625</ele>
        <time>2022-06-04T09:54:39.000Z</time>
      </trkpt>
      <trkpt lat="43.386568464338779449462890625" lon="-5.66280028782784938812255859375">
        <ele>205</ele>
        <time>2022-06-04T09:54:41.000Z</time>
      </trkpt>
      <trkpt lat="43.38642471469938755035400390625" lon="-5.66272887401282787322998046875">
        <ele>204.600006103515625</ele>
        <time>2022-06-04T09:54:42.000Z</time>
      </trkpt>
      <trkpt lat="43.38642471469938755035400390625" lon="-5.66272887401282787322998046875">
        <ele>204.1999969482421875</ele>
        <time>2022-06-04T09:54:43.000Z</time>
      </trkpt>
      <trkpt lat="43.38635195977985858917236328125" lon="-5.662693083286285400390625">
        <ele>204</ele>
        <time>2022-06-04T09:54:44.000Z</time>
      </trkpt>
      <trkpt lat="43.38627912104129791259765625" lon="-5.6626583822071552276611328125">
        <ele>203.399993896484375</ele>
        <time>2022-06-04T09:54:45.000Z</time>
      </trkpt>
      <trkpt lat="43.38613319210708141326904296875" lon="-5.66258646547794342041015625">
        <ele>203.1999969482421875</ele>
        <time>2022-06-04T09:54:46.000Z</time>
      </trkpt>
      <trkpt lat="43.38605976663529872894287109375" lon="-5.6625469028949737548828125">
        <ele>203</ele>
        <time>2022-06-04T09:54:47.000Z</time>
      </trkpt>
      <trkpt lat="43.38598533533513545989990234375" lon="-5.66250809468328952789306640625">
        <ele>202.399993896484375</ele>
        <time>2022-06-04T09:54:49.000Z</time>
      </trkpt>
      <trkpt lat="43.38583429343998432159423828125" lon="-5.66243232227861881256103515625">
        <ele>202</ele>
        <time>2022-06-04T09:54:51.000Z</time>
      </trkpt>
      <trkpt lat="43.3856878615915775299072265625" lon="-5.66235705278813838958740234375">
        <ele>201.399993896484375</ele>
        <time>2022-06-04T09:54:53.000Z</time>
      </trkpt>
      <trkpt lat="43.38556204922497272491455078125" lon="-5.6622947752475738525390625">
        <ele>200.600006103515625</ele>
        <time>2022-06-04T09:54:55.000Z</time>
      </trkpt>
      <trkpt lat="43.38551527820527553558349609375" lon="-5.6622640974819660186767578125">
        <ele>200.399993896484375</ele>
        <time>2022-06-04T09:54:56.000Z</time>
      </trkpt>
      <trkpt lat="43.38547990657389163970947265625" lon="-5.66222428344190120697021484375">
        <ele>200.1999969482421875</ele>
        <time>2022-06-04T09:54:57.000Z</time>
      </trkpt>
      <trkpt lat="43.385436236858367919921875" lon="-5.662104003131389617919921875">
        <ele>199.8000030517578125</ele>
        <time>2022-06-04T09:54:59.000Z</time>
      </trkpt>
      <trkpt lat="43.3854276873171329498291015625" lon="-5.66196327097713947296142578125">
        <ele>199.600006103515625</ele>
        <time>2022-06-04T09:55:00.000Z</time>
      </trkpt>
      <trkpt lat="43.3854276873171329498291015625" lon="-5.66196327097713947296142578125">
        <ele>199.1999969482421875</ele>
        <time>2022-06-04T09:55:01.000Z</time>
      </trkpt>
      <trkpt lat="43.38542190380394458770751953125" lon="-5.66189051605761051177978515625">
        <ele>198.600006103515625</ele>
        <time>2022-06-04T09:55:02.000Z</time>
      </trkpt>
      <trkpt lat="43.385421149432659149169921875" lon="-5.66173679195344448089599609375">
        <ele>198</ele>
        <time>2022-06-04T09:55:03.000Z</time>
      </trkpt>
      <trkpt lat="43.38542140088975429534912109375" lon="-5.6616617739200592041015625">
        <ele>197.1999969482421875</ele>
        <time>2022-06-04T09:55:05.000Z</time>
      </trkpt>
      <trkpt lat="43.38542710058391094207763671875" lon="-5.661510564386844635009765625">
        <ele>197</ele>
        <time>2022-06-04T09:55:06.000Z</time>
      </trkpt>
      <trkpt lat="43.38542710058391094207763671875" lon="-5.661510564386844635009765625">
        <ele>197</ele>
        <time>2022-06-04T09:55:07.000Z</time>
      </trkpt>
      <trkpt lat="43.385433889925479888916015625" lon="-5.66134938038885593414306640625">
        <ele>196.600006103515625</ele>
        <time>2022-06-04T09:55:09.000Z</time>
      </trkpt>
      <trkpt lat="43.385439254343509674072265625" lon="-5.6612049601972103118896484375">
        <ele>196.1999969482421875</ele>
        <time>2022-06-04T09:55:11.000Z</time>
      </trkpt>
      <trkpt lat="43.385457694530487060546875" lon="-5.661059953272342681884765625">
        <ele>196</ele>
        <time>2022-06-04T09:55:12.000Z</time>
      </trkpt>
      <trkpt lat="43.385457694530487060546875" lon="-5.661059953272342681884765625">
        <ele>195.8000030517578125</ele>
        <time>2022-06-04T09:55:13.000Z</time>
      </trkpt>
      <trkpt lat="43.38548116385936737060546875" lon="-5.66090547479689121246337890625">
        <ele>195.8000030517578125</ele>
        <time>2022-06-04T09:55:15.000Z</time>
      </trkpt>
      <trkpt lat="43.38551142252981662750244140625" lon="-5.660742782056331634521484375">
        <ele>195.8000030517578125</ele>
        <time>2022-06-04T09:55:17.000Z</time>
      </trkpt>
      <trkpt lat="43.38554017245769500732421875" lon="-5.660574473440647125244140625">
        <ele>195.600006103515625</ele>
        <time>2022-06-04T09:55:18.000Z</time>
      </trkpt>
      <trkpt lat="43.38554017245769500732421875" lon="-5.660574473440647125244140625">
        <ele>195.600006103515625</ele>
        <time>2022-06-04T09:55:19.000Z</time>
      </trkpt>
      <trkpt lat="43.38556590490043163299560546875" lon="-5.660413205623626708984375">
        <ele>195.600006103515625</ele>
        <time>2022-06-04T09:55:21.000Z</time>
      </trkpt>
      <trkpt lat="43.385589458048343658447265625" lon="-5.66026560030877590179443359375">
        <ele>195.399993896484375</ele>
        <time>2022-06-04T09:55:23.000Z</time>
      </trkpt>
      <trkpt lat="43.38559918105602264404296875" lon="-5.66011925227940082550048828125">
        <ele>195.399993896484375</ele>
        <time>2022-06-04T09:55:24.000Z</time>
      </trkpt>
      <trkpt lat="43.38559918105602264404296875" lon="-5.66011925227940082550048828125">
        <ele>195.399993896484375</ele>
        <time>2022-06-04T09:55:25.000Z</time>
      </trkpt>
      <trkpt lat="43.38560580275952816009521484375" lon="-5.66005437634885311126708984375">
        <ele>195.399993896484375</ele>
        <time>2022-06-04T09:55:26.000Z</time>
      </trkpt>
      <trkpt lat="43.3856161125004291534423828125" lon="-5.6599905900657176971435546875">
        <ele>195.399993896484375</ele>
        <time>2022-06-04T09:55:27.000Z</time>
      </trkpt>
      <trkpt lat="43.3856425993144512176513671875" lon="-5.65978917293250560760498046875">
        <ele>195.399993896484375</ele>
        <time>2022-06-04T09:55:29.000Z</time>
      </trkpt>
      <trkpt lat="43.38565282523632049560546875" lon="-5.659710131585597991943359375">
        <ele>195.399993896484375</ele>
        <time>2022-06-04T09:55:30.000Z</time>
      </trkpt>
      <trkpt lat="43.38565282523632049560546875" lon="-5.659710131585597991943359375">
        <ele>195.399993896484375</ele>
        <time>2022-06-04T09:55:31.000Z</time>
      </trkpt>
      <trkpt lat="43.3856744505465030670166015625" lon="-5.6595476903021335601806640625">
        <ele>195.399993896484375</ele>
        <time>2022-06-04T09:55:33.000Z</time>
      </trkpt>
      <trkpt lat="43.38571250438690185546875" lon="-5.659306459128856658935546875">
        <ele>195.399993896484375</ele>
        <time>2022-06-04T09:55:35.000Z</time>
      </trkpt>
      <trkpt lat="43.38573823682963848114013671875" lon="-5.65914896316826343536376953125">
        <ele>195.399993896484375</ele>
        <time>2022-06-04T09:55:37.000Z</time>
      </trkpt>
      <trkpt lat="43.38573823682963848114013671875" lon="-5.65914896316826343536376953125">
        <ele>195.399993896484375</ele>
        <time>2022-06-04T09:55:38.000Z</time>
      </trkpt>
      <trkpt lat="43.3857512287795543670654296875" lon="-5.6590699218213558197021484375">
        <ele>195.600006103515625</ele>
        <time>2022-06-04T09:55:39.000Z</time>
      </trkpt>
      <trkpt lat="43.38577461428940296173095703125" lon="-5.6588494777679443359375">
        <ele>195.600006103515625</ele>
        <time>2022-06-04T09:55:41.000Z</time>
      </trkpt>
      <trkpt lat="43.3857835829257965087890625" lon="-5.65870958380401134490966796875">
        <ele>195.600006103515625</ele>
        <time>2022-06-04T09:55:43.000Z</time>
      </trkpt>
      <trkpt lat="43.3857835829257965087890625" lon="-5.65870958380401134490966796875">
        <ele>195.600006103515625</ele>
        <time>2022-06-04T09:55:44.000Z</time>
      </trkpt>
      <trkpt lat="43.38579221628606319427490234375" lon="-5.6585636548697948455810546875">
        <ele>195.600006103515625</ele>
        <time>2022-06-04T09:55:45.000Z</time>
      </trkpt>
      <trkpt lat="43.38579238392412662506103515625" lon="-5.65848528407514095306396484375">
        <ele>195.8000030517578125</ele>
        <time>2022-06-04T09:55:46.000Z</time>
      </trkpt>
      <trkpt lat="43.385793976485729217529296875" lon="-5.65840850584208965301513671875">
        <ele>195.8000030517578125</ele>
        <time>2022-06-04T09:55:47.000Z</time>
      </trkpt>
      <trkpt lat="43.38580713607370853424072265625" lon="-5.658251009881496429443359375">
        <ele>195.8000030517578125</ele>
        <time>2022-06-04T09:55:49.000Z</time>
      </trkpt>
      <trkpt lat="43.38585541583597660064697265625" lon="-5.65809912979602813720703125">
        <ele>195.8000030517578125</ele>
        <time>2022-06-04T09:55:51.000Z</time>
      </trkpt>
      <trkpt lat="43.385871089994907379150390625" lon="-5.6580238603055477142333984375">
        <ele>195.8000030517578125</ele>
        <time>2022-06-04T09:55:52.000Z</time>
      </trkpt>
      <trkpt lat="43.385891877114772796630859375" lon="-5.65794783644378185272216796875">
        <ele>195.8000030517578125</ele>
        <time>2022-06-04T09:55:53.000Z</time>
      </trkpt>
      <trkpt lat="43.38593286462128162384033203125" lon="-5.6578045897185802459716796875">
        <ele>196</ele>
        <time>2022-06-04T09:55:55.000Z</time>
      </trkpt>
      <trkpt lat="43.38593286462128162384033203125" lon="-5.6578045897185802459716796875">
        <ele>196</ele>
        <time>2022-06-04T09:55:56.000Z</time>
      </trkpt>
      <trkpt lat="43.38597712107002735137939453125" lon="-5.6576832197606563568115234375">
        <ele>196</ele>
        <time>2022-06-04T09:55:57.000Z</time>
      </trkpt>
      <trkpt lat="43.38604199700057506561279296875" lon="-5.657558999955654144287109375">
        <ele>196</ele>
        <time>2022-06-04T09:55:59.000Z</time>
      </trkpt>
      <trkpt lat="43.38607904501259326934814453125" lon="-5.657504014670848846435546875">
        <ele>196</ele>
        <time>2022-06-04T09:56:00.000Z</time>
      </trkpt>
      <trkpt lat="43.38607904501259326934814453125" lon="-5.657504014670848846435546875">
        <ele>196</ele>
        <time>2022-06-04T09:56:01.000Z</time>
      </trkpt>
      <trkpt lat="43.3861242234706878662109375" lon="-5.65745464526116847991943359375">
        <ele>196</ele>
        <time>2022-06-04T09:56:02.000Z</time>
      </trkpt>
      <trkpt lat="43.38616772554814815521240234375" lon="-5.657405443489551544189453125">
        <ele>196</ele>
        <time>2022-06-04T09:56:03.000Z</time>
      </trkpt>
      <trkpt lat="43.3862638659775257110595703125" lon="-5.65730125643312931060791015625">
        <ele>196</ele>
        <time>2022-06-04T09:56:05.000Z</time>
      </trkpt>
      <trkpt lat="43.3863560669124126434326171875" lon="-5.65716496668756008148193359375">
        <ele>196</ele>
        <time>2022-06-04T09:56:06.000Z</time>
      </trkpt>
      <trkpt lat="43.3863560669124126434326171875" lon="-5.65716496668756008148193359375">
        <ele>196</ele>
        <time>2022-06-04T09:56:07.000Z</time>
      </trkpt>
      <trkpt lat="43.38643142022192478179931640625" lon="-5.65700948238372802734375">
        <ele>196</ele>
        <time>2022-06-04T09:56:09.000Z</time>
      </trkpt>
      <trkpt lat="43.3865009061992168426513671875" lon="-5.6568472087383270263671875">
        <ele>196</ele>
        <time>2022-06-04T09:56:11.000Z</time>
      </trkpt>
      <trkpt lat="43.38657282292842864990234375" lon="-5.65668552182614803314208984375">
        <ele>195.8000030517578125</ele>
        <time>2022-06-04T09:56:13.000Z</time>
      </trkpt>
      <trkpt lat="43.38663510046899318695068359375" lon="-5.6565325520932674407958984375">
        <ele>195.600006103515625</ele>
        <time>2022-06-04T09:56:15.000Z</time>
      </trkpt>
      <trkpt lat="43.38665924035012722015380859375" lon="-5.65645183436572551727294921875">
        <ele>195.399993896484375</ele>
        <time>2022-06-04T09:56:16.000Z</time>
      </trkpt>
      <trkpt lat="43.38667633943259716033935546875" lon="-5.6563719548285007476806640625">
        <ele>195.1999969482421875</ele>
        <time>2022-06-04T09:56:17.000Z</time>
      </trkpt>
      <trkpt lat="43.3866843022406101226806640625" lon="-5.656214542686939239501953125">
        <ele>195.1999969482421875</ele>
        <time>2022-06-04T09:56:18.000Z</time>
      </trkpt>
      <trkpt lat="43.3866843022406101226806640625" lon="-5.656214542686939239501953125">
        <ele>195.1999969482421875</ele>
        <time>2022-06-04T09:56:19.000Z</time>
      </trkpt>
      <trkpt lat="43.3866621740162372589111328125" lon="-5.6561282090842723846435546875">
        <ele>195</ele>
        <time>2022-06-04T09:56:21.000Z</time>
      </trkpt>
      <trkpt lat="43.38663308881223201751708984375" lon="-5.65610331483185291290283203125">
        <ele>195</ele>
        <time>2022-06-04T09:56:22.000Z</time>
      </trkpt>
      <trkpt lat="43.38663308881223201751708984375" lon="-5.65610331483185291290283203125">
        <ele>195</ele>
        <time>2022-06-04T09:56:23.000Z</time>
      </trkpt>
      <trkpt lat="43.38659654371440410614013671875" lon="-5.65608236007392406463623046875">
        <ele>195</ele>
        <time>2022-06-04T09:56:25.000Z</time>
      </trkpt>
      <trkpt lat="43.38654809631407260894775390625" lon="-5.6560695357620716094970703125">
        <ele>195</ele>
        <time>2022-06-04T09:56:27.000Z</time>
      </trkpt>
      <trkpt lat="43.38652580045163631439208984375" lon="-5.65605050884187221527099609375">
        <ele>195.399993896484375</ele>
        <time>2022-06-04T09:56:28.000Z</time>
      </trkpt>
      <trkpt lat="43.38651557452976703643798828125" lon="-5.65600373782217502593994140625">
        <ele>195.399993896484375</ele>
        <time>2022-06-04T09:56:29.000Z</time>
      </trkpt>
      <trkpt lat="43.38652144186198711395263671875" lon="-5.655876584351062774658203125">
        <ele>195.399993896484375</ele>
        <time>2022-06-04T09:56:31.000Z</time>
      </trkpt>
      <trkpt lat="43.38653367944061756134033203125" lon="-5.65573400817811489105224609375">
        <ele>195.600006103515625</ele>
        <time>2022-06-04T09:56:33.000Z</time>
      </trkpt>
      <trkpt lat="43.386531583964824676513671875" lon="-5.6555931083858013153076171875">
        <ele>195.600006103515625</ele>
        <time>2022-06-04T09:56:35.000Z</time>
      </trkpt>
      <trkpt lat="43.38650752790272235870361328125" lon="-5.65545380115509033203125">
        <ele>195.600006103515625</ele>
        <time>2022-06-04T09:56:36.000Z</time>
      </trkpt>
      <trkpt lat="43.38650752790272235870361328125" lon="-5.65545380115509033203125">
        <ele>195.399993896484375</ele>
        <time>2022-06-04T09:56:37.000Z</time>
      </trkpt>
      <trkpt lat="43.38648221455514430999755859375" lon="-5.65539143979549407958984375">
        <ele>195.399993896484375</ele>
        <time>2022-06-04T09:56:38.000Z</time>
      </trkpt>
      <trkpt lat="43.38644810020923614501953125" lon="-5.6553413160145282745361328125">
        <ele>195.399993896484375</ele>
        <time>2022-06-04T09:56:39.000Z</time>
      </trkpt>
      <trkpt lat="43.3863602578639984130859375" lon="-5.65528624691069126129150390625">
        <ele>195.399993896484375</ele>
        <time>2022-06-04T09:56:40.000Z</time>
      </trkpt>
      <trkpt lat="43.3863602578639984130859375" lon="-5.65528624691069126129150390625">
        <ele>195.399993896484375</ele>
        <time>2022-06-04T09:56:41.000Z</time>
      </trkpt>
      <trkpt lat="43.38626394979655742645263671875" lon="-5.6552682258188724517822265625">
        <ele>195.399993896484375</ele>
        <time>2022-06-04T09:56:42.000Z</time>
      </trkpt>
      <trkpt lat="43.38626394979655742645263671875" lon="-5.6552682258188724517822265625">
        <ele>195.399993896484375</ele>
        <time>2022-06-04T09:56:43.000Z</time>
      </trkpt>
      <trkpt lat="43.38616739027202129364013671875" lon="-5.6552593410015106201171875">
        <ele>195.399993896484375</ele>
        <time>2022-06-04T09:56:45.000Z</time>
      </trkpt>
      <trkpt lat="43.3860808052122592926025390625" lon="-5.6552373804152011871337890625">
        <ele>195.399993896484375</ele>
        <time>2022-06-04T09:56:46.000Z</time>
      </trkpt>
      <trkpt lat="43.3860808052122592926025390625" lon="-5.6552373804152011871337890625">
        <ele>195.600006103515625</ele>
        <time>2022-06-04T09:56:47.000Z</time>
      </trkpt>
      <trkpt lat="43.38600427843630313873291015625" lon="-5.6551894359290599822998046875">
        <ele>196.1999969482421875</ele>
        <time>2022-06-04T09:56:49.000Z</time>
      </trkpt>
      <trkpt lat="43.38594543747603893280029296875" lon="-5.65511173568665981292724609375">
        <ele>196.399993896484375</ele>
        <time>2022-06-04T09:56:51.000Z</time>
      </trkpt>
      <trkpt lat="43.3858990855515003204345703125" lon="-5.655003525316715240478515625">
        <ele>196.399993896484375</ele>
        <time>2022-06-04T09:56:52.000Z</time>
      </trkpt>
      <trkpt lat="43.3858990855515003204345703125" lon="-5.655003525316715240478515625">
        <ele>196.399993896484375</ele>
        <time>2022-06-04T09:56:53.000Z</time>
      </trkpt>
      <trkpt lat="43.38587067089974880218505859375" lon="-5.6548977456986904144287109375">
        <ele>196.600006103515625</ele>
        <time>2022-06-04T09:56:55.000Z</time>
      </trkpt>
      <trkpt lat="43.3858658932149410247802734375" lon="-5.6548031978309154510498046875">
        <ele>196.8000030517578125</ele>
        <time>2022-06-04T09:56:57.000Z</time>
      </trkpt>
      <trkpt lat="43.385882489383220672607421875" lon="-5.65469264052808284759521484375">
        <ele>196.8000030517578125</ele>
        <time>2022-06-04T09:56:59.000Z</time>
      </trkpt>
      <trkpt lat="43.385892547667026519775390625" lon="-5.6545619666576385498046875">
        <ele>196.8000030517578125</ele>
        <time>2022-06-04T09:57:01.000Z</time>
      </trkpt>
      <trkpt lat="43.38590755127370357513427734375" lon="-5.6544934026896953582763671875">
        <ele>196.8000030517578125</ele>
        <time>2022-06-04T09:57:02.000Z</time>
      </trkpt>
      <trkpt lat="43.38592716492712497711181640625" lon="-5.65443313680589199066162109375">
        <ele>196.600006103515625</ele>
        <time>2022-06-04T09:57:03.000Z</time>
      </trkpt>
      <trkpt lat="43.38595650158822536468505859375" lon="-5.6543768942356109619140625">
        <ele>196.600006103515625</ele>
        <time>2022-06-04T09:57:04.000Z</time>
      </trkpt>
      <trkpt lat="43.38599589653313159942626953125" lon="-5.654328949749469757080078125">
        <ele>196.600006103515625</ele>
        <time>2022-06-04T09:57:05.000Z</time>
      </trkpt>
      <trkpt lat="43.38609983213245868682861328125" lon="-5.6542694382369518280029296875">
        <ele>196.399993896484375</ele>
        <time>2022-06-04T09:57:07.000Z</time>
      </trkpt>
      <trkpt lat="43.3861468546092510223388671875" lon="-5.6542352400720119476318359375">
        <ele>196.399993896484375</ele>
        <time>2022-06-04T09:57:08.000Z</time>
      </trkpt>
      <trkpt lat="43.386188261210918426513671875" lon="-5.65419274382293224334716796875">
        <ele>196.1999969482421875</ele>
        <time>2022-06-04T09:57:09.000Z</time>
      </trkpt>
      <trkpt lat="43.386273086071014404296875" lon="-5.65409903414547443389892578125">
        <ele>195.8000030517578125</ele>
        <time>2022-06-04T09:57:11.000Z</time>
      </trkpt>
      <trkpt lat="43.38635095395147800445556640625" lon="-5.654038600623607635498046875">
        <ele>195.600006103515625</ele>
        <time>2022-06-04T09:57:12.000Z</time>
      </trkpt>
      <trkpt lat="43.38635095395147800445556640625" lon="-5.654038600623607635498046875">
        <ele>195.399993896484375</ele>
        <time>2022-06-04T09:57:13.000Z</time>
      </trkpt>
      <trkpt lat="43.3864123933017253875732421875" lon="-5.65403315238654613494873046875">
        <ele>195.1999969482421875</ele>
        <time>2022-06-04T09:57:15.000Z</time>
      </trkpt>
      <trkpt lat="43.386479951441287994384765625" lon="-5.65405963920056819915771484375">
        <ele>195.1999969482421875</ele>
        <time>2022-06-04T09:57:17.000Z</time>
      </trkpt>
      <trkpt lat="43.3865619264543056488037109375" lon="-5.65409190952777862548828125">
        <ele>195.1999969482421875</ele>
        <time>2022-06-04T09:57:19.000Z</time>
      </trkpt>
      <trkpt lat="43.38661313988268375396728515625" lon="-5.6540686078369617462158203125">
        <ele>195</ele>
        <time>2022-06-04T09:57:20.000Z</time>
      </trkpt>
      <trkpt lat="43.38666376657783985137939453125" lon="-5.65401957370340824127197265625">
        <ele>195.1999969482421875</ele>
        <time>2022-06-04T09:57:21.000Z</time>
      </trkpt>
      <trkpt lat="43.38673216290771961212158203125" lon="-5.65387506969273090362548828125">
        <ele>195</ele>
        <time>2022-06-04T09:57:23.000Z</time>
      </trkpt>
      <trkpt lat="43.38676317594945430755615234375" lon="-5.6537108682096004486083984375">
        <ele>195</ele>
        <time>2022-06-04T09:57:25.000Z</time>
      </trkpt>
      <trkpt lat="43.386774994432926177978515625" lon="-5.65354079939424991607666015625">
        <ele>195</ele>
        <time>2022-06-04T09:57:27.000Z</time>
      </trkpt>
      <trkpt lat="43.38679720647633075714111328125" lon="-5.65329805947840213775634765625">
        <ele>195</ele>
        <time>2022-06-04T09:57:29.000Z</time>
      </trkpt>
      <trkpt lat="43.386809192597866058349609375" lon="-5.65321776084601879119873046875">
        <ele>195</ele>
        <time>2022-06-04T09:57:31.000Z</time>
      </trkpt>
      <trkpt lat="43.38682268746197223663330078125" lon="-5.65313595347106456756591796875">
        <ele>195</ele>
        <time>2022-06-04T09:57:32.000Z</time>
      </trkpt>
      <trkpt lat="43.38683961890637874603271484375" lon="-5.65305062569677829742431640625">
        <ele>195</ele>
        <time>2022-06-04T09:57:33.000Z</time>
      </trkpt>
      <trkpt lat="43.386903069913387298583984375" lon="-5.652893967926502227783203125">
        <ele>195</ele>
        <time>2022-06-04T09:57:34.000Z</time>
      </trkpt>
      <trkpt lat="43.386903069913387298583984375" lon="-5.652893967926502227783203125">
        <ele>195</ele>
        <time>2022-06-04T09:57:35.000Z</time>
      </trkpt>
      <trkpt lat="43.386998958885669708251953125" lon="-5.65277896821498870849609375">
        <ele>195</ele>
        <time>2022-06-04T09:57:36.000Z</time>
      </trkpt>
      <trkpt lat="43.386998958885669708251953125" lon="-5.65277896821498870849609375">
        <ele>195</ele>
        <time>2022-06-04T09:57:37.000Z</time>
      </trkpt>
      <trkpt lat="43.38704816065728664398193359375" lon="-5.6527295149862766265869140625">
        <ele>195</ele>
        <time>2022-06-04T09:57:38.000Z</time>
      </trkpt>
      <trkpt lat="43.38710163719952106475830078125" lon="-5.6526842527091503143310546875">
        <ele>195</ele>
        <time>2022-06-04T09:57:39.000Z</time>
      </trkpt>
      <trkpt lat="43.3872589655220508575439453125" lon="-5.6525471247732639312744140625">
        <ele>195</ele>
        <time>2022-06-04T09:57:41.000Z</time>
      </trkpt>
      <trkpt lat="43.3873645775020122528076171875" lon="-5.6524509005248546600341796875">
        <ele>195</ele>
        <time>2022-06-04T09:57:43.000Z</time>
      </trkpt>
      <trkpt lat="43.3873645775020122528076171875" lon="-5.6524509005248546600341796875">
        <ele>195</ele>
        <time>2022-06-04T09:57:44.000Z</time>
      </trkpt>
      <trkpt lat="43.38741646148264408111572265625" lon="-5.652399770915508270263671875">
        <ele>195</ele>
        <time>2022-06-04T09:57:45.000Z</time>
      </trkpt>
      <trkpt lat="43.38750463910400867462158203125" lon="-5.652271024882793426513671875">
        <ele>195.1999969482421875</ele>
        <time>2022-06-04T09:57:46.000Z</time>
      </trkpt>
      <trkpt lat="43.38750463910400867462158203125" lon="-5.652271024882793426513671875">
        <ele>195.1999969482421875</ele>
        <time>2022-06-04T09:57:47.000Z</time>
      </trkpt>
      <trkpt lat="43.3875828422605991363525390625" lon="-5.65212526358664035797119140625">
        <ele>195.1999969482421875</ele>
        <time>2022-06-04T09:57:48.000Z</time>
      </trkpt>
      <trkpt lat="43.38761578314006328582763671875" lon="-5.6520442105829715728759765625">
        <ele>195.1999969482421875</ele>
        <time>2022-06-04T09:57:49.000Z</time>
      </trkpt>
      <trkpt lat="43.3876468800008296966552734375" lon="-5.65196357667446136474609375">
        <ele>195.1999969482421875</ele>
        <time>2022-06-04T09:57:51.000Z</time>
      </trkpt>
      <trkpt lat="43.38770245201885700225830078125" lon="-5.6518108583986759185791015625">
        <ele>195.1999969482421875</ele>
        <time>2022-06-04T09:57:53.000Z</time>
      </trkpt>
      <trkpt lat="43.38775106705725193023681640625" lon="-5.6516619957983493804931640625">
        <ele>195.399993896484375</ele>
        <time>2022-06-04T09:57:55.000Z</time>
      </trkpt>
      <trkpt lat="43.387807309627532958984375" lon="-5.6514457426965236663818359375">
        <ele>195.399993896484375</ele>
        <time>2022-06-04T09:57:57.000Z</time>
      </trkpt>
      <trkpt lat="43.3878215588629245758056640625" lon="-5.65137960948050022125244140625">
        <ele>195.399993896484375</ele>
        <time>2022-06-04T09:57:59.000Z</time>
      </trkpt>
      <trkpt lat="43.38784226216375827789306640625" lon="-5.6512673757970333099365234375">
        <ele>195.399993896484375</ele>
        <time>2022-06-04T09:58:01.000Z</time>
      </trkpt>
      <trkpt lat="43.387861959636211395263671875" lon="-5.65118514932692050933837890625">
        <ele>195.1999969482421875</ele>
        <time>2022-06-04T09:58:03.000Z</time>
      </trkpt>
      <trkpt lat="43.38785600848495960235595703125" lon="-5.65112228505313396453857421875">
        <ele>195</ele>
        <time>2022-06-04T09:58:05.000Z</time>
      </trkpt>
      <trkpt lat="43.3878386579453945159912109375" lon="-5.65108624286949634552001953125">
        <ele>195</ele>
        <time>2022-06-04T09:58:07.000Z</time>
      </trkpt>
      <trkpt lat="43.387811668217182159423828125" lon="-5.65105942077934741973876953125">
        <ele>195</ele>
        <time>2022-06-04T09:58:09.000Z</time>
      </trkpt>
      <trkpt lat="43.38776028715074062347412109375" lon="-5.65101566724479198455810546875">
        <ele>195</ele>
        <time>2022-06-04T09:58:10.000Z</time>
      </trkpt>
      <trkpt lat="43.38776028715074062347412109375" lon="-5.65101566724479198455810546875">
        <ele>195</ele>
        <time>2022-06-04T09:58:11.000Z</time>
      </trkpt>
      <trkpt lat="43.38772089220583438873291015625" lon="-5.6509320996701717376708984375">
        <ele>195</ele>
        <time>2022-06-04T09:58:12.000Z</time>
      </trkpt>
      <trkpt lat="43.38772089220583438873291015625" lon="-5.6509320996701717376708984375">
        <ele>195</ele>
        <time>2022-06-04T09:58:13.000Z</time>
      </trkpt>
      <trkpt lat="43.3877182938158512115478515625" lon="-5.6508724205195903778076171875">
        <ele>195</ele>
        <time>2022-06-04T09:58:14.000Z</time>
      </trkpt>
      <trkpt lat="43.38771536014974117279052734375" lon="-5.65079891122877597808837890625">
        <ele>195</ele>
        <time>2022-06-04T09:58:15.000Z</time>
      </trkpt>
      <trkpt lat="43.3876840956509113311767578125" lon="-5.650658346712589263916015625">
        <ele>195</ele>
        <time>2022-06-04T09:58:17.000Z</time>
      </trkpt>
      <trkpt lat="43.38764864020049571990966796875" lon="-5.65059699118137359619140625">
        <ele>195</ele>
        <time>2022-06-04T09:58:18.000Z</time>
      </trkpt>
      <trkpt lat="43.3876053057610988616943359375" lon="-5.65054393373429775238037109375">
        <ele>195</ele>
        <time>2022-06-04T09:58:19.000Z</time>
      </trkpt>
      <trkpt lat="43.3875120989978313446044921875" lon="-5.65045575611293315887451171875">
        <ele>195</ele>
        <time>2022-06-04T09:58:21.000Z</time>
      </trkpt>
      <trkpt lat="43.38736130855977535247802734375" lon="-5.6503416784107685089111328125">
        <ele>195</ele>
        <time>2022-06-04T09:58:23.000Z</time>
      </trkpt>
      <trkpt lat="43.38725955225527286529541015625" lon="-5.65027018077671527862548828125">
        <ele>195.1999969482421875</ele>
        <time>2022-06-04T09:58:25.000Z</time>
      </trkpt>
      <trkpt lat="43.387158215045928955078125" lon="-5.6501951627433300018310546875">
        <ele>195.1999969482421875</ele>
        <time>2022-06-04T09:58:27.000Z</time>
      </trkpt>
      <trkpt lat="43.3871070854365825653076171875" lon="-5.6501579470932483673095703125">
        <ele>195.1999969482421875</ele>
        <time>2022-06-04T09:58:29.000Z</time>
      </trkpt>
      <trkpt lat="43.3869987912476062774658203125" lon="-5.6500774808228015899658203125">
        <ele>195.1999969482421875</ele>
        <time>2022-06-04T09:58:31.000Z</time>
      </trkpt>
      <trkpt lat="43.38690298609435558319091796875" lon="-5.65000162459909915924072265625">
        <ele>195.1999969482421875</ele>
        <time>2022-06-04T09:58:33.000Z</time>
      </trkpt>
      <trkpt lat="43.3868257887661457061767578125" lon="-5.6499426998198032379150390625">
        <ele>195.1999969482421875</ele>
        <time>2022-06-04T09:58:34.000Z</time>
      </trkpt>
      <trkpt lat="43.38680877350270748138427734375" lon="-5.6499131955206394195556640625">
        <ele>195.399993896484375</ele>
        <time>2022-06-04T09:58:35.000Z</time>
      </trkpt>
      <trkpt lat="43.386809527873992919921875" lon="-5.64986214973032474517822265625">
        <ele>195.399993896484375</ele>
        <time>2022-06-04T09:58:37.000Z</time>
      </trkpt>
      <trkpt lat="43.3868167363107204437255859375" lon="-5.6498370878398418426513671875">
        <ele>195.1999969482421875</ele>
        <time>2022-06-04T09:58:39.000Z</time>
      </trkpt>
      <trkpt lat="43.38685269467532634735107421875" lon="-5.6497576273977756500244140625">
        <ele>195.399993896484375</ele>
        <time>2022-06-04T09:58:41.000Z</time>
      </trkpt>
      <trkpt lat="43.38687532581388950347900390625" lon="-5.649720914661884307861328125">
        <ele>195.399993896484375</ele>
        <time>2022-06-04T09:58:43.000Z</time>
      </trkpt>
      <trkpt lat="43.38688689284026622772216796875" lon="-5.64966701902449131011962890625">
        <ele>195.399993896484375</ele>
        <time>2022-06-04T09:58:44.000Z</time>
      </trkpt>
      <trkpt lat="43.386886976659297943115234375" lon="-5.6496040709316730499267578125">
        <ele>195.600006103515625</ele>
        <time>2022-06-04T09:58:45.000Z</time>
      </trkpt>
      <trkpt lat="43.3868452347815036773681640625" lon="-5.6494729779660701751708984375">
        <ele>195.600006103515625</ele>
        <time>2022-06-04T09:58:46.000Z</time>
      </trkpt>
      <trkpt lat="43.3868452347815036773681640625" lon="-5.6494729779660701751708984375">
        <ele>195.600006103515625</ele>
        <time>2022-06-04T09:58:47.000Z</time>
      </trkpt>
      <trkpt lat="43.386778347194194793701171875" lon="-5.649352781474590301513671875">
        <ele>195.399993896484375</ele>
        <time>2022-06-04T09:58:49.000Z</time>
      </trkpt>
      <trkpt lat="43.3867490105330944061279296875" lon="-5.649289749562740325927734375">
        <ele>195.399993896484375</ele>
        <time>2022-06-04T09:58:50.000Z</time>
      </trkpt>
      <trkpt lat="43.38670936413109302520751953125" lon="-5.64914147369563579559326171875">
        <ele>195.399993896484375</ele>
        <time>2022-06-04T09:58:51.000Z</time>
      </trkpt>
      <trkpt lat="43.386697210371494293212890625" lon="-5.64905497245490550994873046875">
        <ele>195.399993896484375</ele>
        <time>2022-06-04T09:58:52.000Z</time>
      </trkpt>
      <trkpt lat="43.386689163744449615478515625" lon="-5.6489623524248600006103515625">
        <ele>195.1999969482421875</ele>
        <time>2022-06-04T09:58:53.000Z</time>
      </trkpt>
      <trkpt lat="43.3866901695728302001953125" lon="-5.64877585507929325103759765625">
        <ele>195.399993896484375</ele>
        <time>2022-06-04T09:58:55.000Z</time>
      </trkpt>
      <trkpt lat="43.3866901695728302001953125" lon="-5.64877585507929325103759765625">
        <ele>195.399993896484375</ele>
        <time>2022-06-04T09:58:56.000Z</time>
      </trkpt>
      <trkpt lat="43.38670014403760433197021484375" lon="-5.6486870907247066497802734375">
        <ele>195.399993896484375</ele>
        <time>2022-06-04T09:58:57.000Z</time>
      </trkpt>
      <trkpt lat="43.3867704682052135467529296875" lon="-5.648439489305019378662109375">
        <ele>195.399993896484375</ele>
        <time>2022-06-04T09:58:59.000Z</time>
      </trkpt>
      <trkpt lat="43.3868028223514556884765625" lon="-5.64836698584258556365966796875">
        <ele>195.399993896484375</ele>
        <time>2022-06-04T09:59:00.000Z</time>
      </trkpt>
      <trkpt lat="43.3868381939828395843505859375" lon="-5.64829431474208831787109375">
        <ele>195.399993896484375</ele>
        <time>2022-06-04T09:59:01.000Z</time>
      </trkpt>
      <trkpt lat="43.3868381939828395843505859375" lon="-5.64829431474208831787109375">
        <ele>195.399993896484375</ele>
        <time>2022-06-04T09:59:02.000Z</time>
      </trkpt>
      <trkpt lat="43.3869136311113834381103515625" lon="-5.64816900528967380523681640625">
        <ele>195.399993896484375</ele>
        <time>2022-06-04T09:59:03.000Z</time>
      </trkpt>
      <trkpt lat="43.3869867213070392608642578125" lon="-5.64806096255779266357421875">
        <ele>195.399993896484375</ele>
        <time>2022-06-04T09:59:05.000Z</time>
      </trkpt>
      <trkpt lat="43.3870576322078704833984375" lon="-5.64796096645295619964599609375">
        <ele>195.600006103515625</ele>
        <time>2022-06-04T09:59:07.000Z</time>
      </trkpt>
      <trkpt lat="43.3871218375861644744873046875" lon="-5.647850744426250457763671875">
        <ele>195.8000030517578125</ele>
        <time>2022-06-04T09:59:09.000Z</time>
      </trkpt>
      <trkpt lat="43.38713566772639751434326171875" lon="-5.6477174721658229827880859375">
        <ele>195.8000030517578125</ele>
        <time>2022-06-04T09:59:11.000Z</time>
      </trkpt>
      <trkpt lat="43.38710566051304340362548828125" lon="-5.64759534783661365509033203125">
        <ele>195.8000030517578125</ele>
        <time>2022-06-04T09:59:13.000Z</time>
      </trkpt>
      <trkpt lat="43.38710566051304340362548828125" lon="-5.64759534783661365509033203125">
        <ele>195.8000030517578125</ele>
        <time>2022-06-04T09:59:14.000Z</time>
      </trkpt>
      <trkpt lat="43.3870628289878368377685546875" lon="-5.64751840196549892425537109375">
        <ele>196</ele>
        <time>2022-06-04T09:59:15.000Z</time>
      </trkpt>
      <trkpt lat="43.38704531081020832061767578125" lon="-5.64744547940790653228759765625">
        <ele>196</ele>
        <time>2022-06-04T09:59:17.000Z</time>
      </trkpt>
      <trkpt lat="43.38707515038549900054931640625" lon="-5.64735897816717624664306640625">
        <ele>196</ele>
        <time>2022-06-04T09:59:19.000Z</time>
      </trkpt>
      <trkpt lat="43.38709794916212558746337890625" lon="-5.6473121233284473419189453125">
        <ele>196</ele>
        <time>2022-06-04T09:59:21.000Z</time>
      </trkpt>
      <trkpt lat="43.3871541917324066162109375" lon="-5.6472256220877170562744140625">
        <ele>196</ele>
        <time>2022-06-04T09:59:22.000Z</time>
      </trkpt>
      <trkpt lat="43.3871855400502681732177734375" lon="-5.64718362875282764434814453125">
        <ele>195.8000030517578125</ele>
        <time>2022-06-04T09:59:23.000Z</time>
      </trkpt>
      <trkpt lat="43.387217223644256591796875" lon="-5.64714423380792140960693359375">
        <ele>196</ele>
        <time>2022-06-04T09:59:25.000Z</time>
      </trkpt>
      <trkpt lat="43.38726189918816089630126953125" lon="-5.64706728793680667877197265625">
        <ele>195.8000030517578125</ele>
        <time>2022-06-04T09:59:27.000Z</time>
      </trkpt>
      <trkpt lat="43.38733348064124584197998046875" lon="-5.6469577364623546600341796875">
        <ele>196</ele>
        <time>2022-06-04T09:59:29.000Z</time>
      </trkpt>
      <trkpt lat="43.3873572014272212982177734375" lon="-5.64692177809774875640869140625">
        <ele>196</ele>
        <time>2022-06-04T09:59:30.000Z</time>
      </trkpt>
      <trkpt lat="43.3873572014272212982177734375" lon="-5.64692177809774875640869140625">
        <ele>196</ele>
        <time>2022-06-04T09:59:31.000Z</time>
      </trkpt>
      <trkpt lat="43.38742366991937160491943359375" lon="-5.64681298099458217620849609375">
        <ele>196.399993896484375</ele>
        <time>2022-06-04T09:59:33.000Z</time>
      </trkpt>
      <trkpt lat="43.387475050985813140869140625" lon="-5.64672849141061305999755859375">
        <ele>196.8000030517578125</ele>
        <time>2022-06-04T09:59:35.000Z</time>
      </trkpt>
      <trkpt lat="43.387496173381805419921875" lon="-5.64668708480894565582275390625">
        <ele>197.1999969482421875</ele>
        <time>2022-06-04T09:59:36.000Z</time>
      </trkpt>
      <trkpt lat="43.3875204809010028839111328125" lon="-5.646651126444339752197265625">
        <ele>197.600006103515625</ele>
        <time>2022-06-04T09:59:37.000Z</time>
      </trkpt>
      <trkpt lat="43.38758376426994800567626953125" lon="-5.64663478173315525054931640625">
        <ele>198.1999969482421875</ele>
        <time>2022-06-04T09:59:39.000Z</time>
      </trkpt>
      <trkpt lat="43.38762156665325164794921875" lon="-5.64665615558624267578125">
        <ele>198.600006103515625</ele>
        <time>2022-06-04T09:59:40.000Z</time>
      </trkpt>
      <trkpt lat="43.38762156665325164794921875" lon="-5.64665615558624267578125">
        <ele>199</ele>
        <time>2022-06-04T09:59:41.000Z</time>
      </trkpt>
      <trkpt lat="43.38776213116943836212158203125" lon="-5.6467406451702117919921875">
        <ele>199.8000030517578125</ele>
        <time>2022-06-04T09:59:43.000Z</time>
      </trkpt>
      <trkpt lat="43.38786221109330654144287109375" lon="-5.64680661074817180633544921875">
        <ele>200.600006103515625</ele>
        <time>2022-06-04T09:59:45.000Z</time>
      </trkpt>
      <trkpt lat="43.3879127539694309234619140625" lon="-5.64683787524700164794921875">
        <ele>200.8000030517578125</ele>
        <time>2022-06-04T09:59:46.000Z</time>
      </trkpt>
      <trkpt lat="43.38796220719814300537109375" lon="-5.64686897210776805877685546875">
        <ele>201.1999969482421875</ele>
        <time>2022-06-04T09:59:47.000Z</time>
      </trkpt>
      <trkpt lat="43.38800646364688873291015625" lon="-5.6469004042446613311767578125">
        <ele>201.1999969482421875</ele>
        <time>2022-06-04T09:59:49.000Z</time>
      </trkpt>
      <trkpt lat="43.3880793862044811248779296875" lon="-5.6469624303281307220458984375">
        <ele>201.1999969482421875</ele>
        <time>2022-06-04T09:59:51.000Z</time>
      </trkpt>
      <trkpt lat="43.38815658353269100189208984375" lon="-5.647017918527126312255859375">
        <ele>201.399993896484375</ele>
        <time>2022-06-04T09:59:52.000Z</time>
      </trkpt>
      <trkpt lat="43.3881974034011363983154296875" lon="-5.6470408849418163299560546875">
        <ele>201.399993896484375</ele>
        <time>2022-06-04T09:59:53.000Z</time>
      </trkpt>
      <trkpt lat="43.38827661238610744476318359375" lon="-5.64708958379924297332763671875">
        <ele>201.399993896484375</ele>
        <time>2022-06-04T09:59:55.000Z</time>
      </trkpt>
      <trkpt lat="43.3883546479046344757080078125" lon="-5.64714155159890651702880859375">
        <ele>201.600006103515625</ele>
        <time>2022-06-04T09:59:57.000Z</time>
      </trkpt>
      <trkpt lat="43.388393707573413848876953125" lon="-5.6471672840416431427001953125">
        <ele>201.8000030517578125</ele>
        <time>2022-06-04T09:59:59.000Z</time>
      </trkpt>
      <trkpt lat="43.38847207836806774139404296875" lon="-5.64721598289906978607177734375">
        <ele>202</ele>
        <time>2022-06-04T10:00:00.000Z</time>
      </trkpt>
      <trkpt lat="43.38850929401814937591552734375" lon="-5.64724314026534557342529296875">
        <ele>202.1999969482421875</ele>
        <time>2022-06-04T10:00:01.000Z</time>
      </trkpt>
      <trkpt lat="43.38854634203016757965087890625" lon="-5.647270381450653076171875">
        <ele>202.399993896484375</ele>
        <time>2022-06-04T10:00:03.000Z</time>
      </trkpt>
      <trkpt lat="43.3886198513209819793701171875" lon="-5.647327713668346405029296875">
        <ele>203</ele>
        <time>2022-06-04T10:00:05.000Z</time>
      </trkpt>
      <trkpt lat="43.38869570754468441009521484375" lon="-5.6473791785538196563720703125">
        <ele>203.1999969482421875</ele>
        <time>2022-06-04T10:00:06.000Z</time>
      </trkpt>
      <trkpt lat="43.38869570754468441009521484375" lon="-5.6473791785538196563720703125">
        <ele>203.399993896484375</ele>
        <time>2022-06-04T10:00:07.000Z</time>
      </trkpt>
      <trkpt lat="43.38877131231129169464111328125" lon="-5.64743273891508579254150390625">
        <ele>203.8000030517578125</ele>
        <time>2022-06-04T10:00:09.000Z</time>
      </trkpt>
      <trkpt lat="43.38884088210761547088623046875" lon="-5.6474881432950496673583984375">
        <ele>203.8000030517578125</ele>
        <time>2022-06-04T10:00:11.000Z</time>
      </trkpt>
      <trkpt lat="43.38886971585452556610107421875" lon="-5.6475109420716762542724609375">
        <ele>203.8000030517578125</ele>
        <time>2022-06-04T10:00:12.000Z</time>
      </trkpt>
      <trkpt lat="43.3888964541256427764892578125" lon="-5.64752896316349506378173828125">
        <ele>203.8000030517578125</ele>
        <time>2022-06-04T10:00:13.000Z</time>
      </trkpt>
      <trkpt lat="43.38895588181912899017333984375" lon="-5.6475790031254291534423828125">
        <ele>203.8000030517578125</ele>
        <time>2022-06-04T10:00:15.000Z</time>
      </trkpt>
      <trkpt lat="43.389027379453182220458984375" lon="-5.64763390459120273590087890625">
        <ele>203.8000030517578125</ele>
        <time>2022-06-04T10:00:17.000Z</time>
      </trkpt>
      <trkpt lat="43.38911153376102447509765625" lon="-5.6476903147995471954345703125">
        <ele>203.600006103515625</ele>
        <time>2022-06-04T10:00:18.000Z</time>
      </trkpt>
      <trkpt lat="43.38915687985718250274658203125" lon="-5.6477201543748378753662109375">
        <ele>203.600006103515625</ele>
        <time>2022-06-04T10:00:19.000Z</time>
      </trkpt>
      <trkpt lat="43.38920264504849910736083984375" lon="-5.6477499939501285552978515625">
        <ele>203.1999969482421875</ele>
        <time>2022-06-04T10:00:21.000Z</time>
      </trkpt>
      <trkpt lat="43.38927623815834522247314453125" lon="-5.6478187255561351776123046875">
        <ele>202.8000030517578125</ele>
        <time>2022-06-04T10:00:23.000Z</time>
      </trkpt>
      <trkpt lat="43.38931730948388576507568359375" lon="-5.647880248725414276123046875">
        <ele>202.8000030517578125</ele>
        <time>2022-06-04T10:00:24.000Z</time>
      </trkpt>
      <trkpt lat="43.38931730948388576507568359375" lon="-5.647880248725414276123046875">
        <ele>202.600006103515625</ele>
        <time>2022-06-04T10:00:25.000Z</time>
      </trkpt>
      <trkpt lat="43.3893158845603466033935546875" lon="-5.6479085795581340789794921875">
        <ele>202.600006103515625</ele>
        <time>2022-06-04T10:00:26.000Z</time>
      </trkpt>
      <trkpt lat="43.3893051557242870330810546875" lon="-5.6479280255734920501708984375">
        <ele>202.399993896484375</ele>
        <time>2022-06-04T10:00:27.000Z</time>
      </trkpt>
      <trkpt lat="43.38928545825183391571044921875" lon="-5.64793213270604610443115234375">
        <ele>202.1999969482421875</ele>
        <time>2022-06-04T10:00:28.000Z</time>
      </trkpt>
      <trkpt lat="43.38926307857036590576171875" lon="-5.6479280255734920501708984375">
        <ele>201.8000030517578125</ele>
        <time>2022-06-04T10:00:29.000Z</time>
      </trkpt>
      <trkpt lat="43.3892122842371463775634765625" lon="-5.64790145494043827056884765625">
        <ele>200.8000030517578125</ele>
        <time>2022-06-04T10:00:31.000Z</time>
      </trkpt>
      <trkpt lat="43.38918655179440975189208984375" lon="-5.64787563867866992950439453125">
        <ele>200.399993896484375</ele>
        <time>2022-06-04T10:00:32.000Z</time>
      </trkpt>
      <trkpt lat="43.38915738277137279510498046875" lon="-5.64784680493175983428955078125">
        <ele>200</ele>
        <time>2022-06-04T10:00:33.000Z</time>
      </trkpt>
      <trkpt lat="43.38906568475067615509033203125" lon="-5.64777924679219722747802734375">
        <ele>199.8000030517578125</ele>
        <time>2022-06-04T10:00:35.000Z</time>
      </trkpt>
      <trkpt lat="43.3890075981616973876953125" lon="-5.647746138274669647216796875">
        <ele>199.600006103515625</ele>
        <time>2022-06-04T10:00:37.000Z</time>
      </trkpt>
      <trkpt lat="43.38894515298306941986083984375" lon="-5.647728703916072845458984375">
        <ele>199.600006103515625</ele>
        <time>2022-06-04T10:00:39.000Z</time>
      </trkpt>
      <trkpt lat="43.3889159001410007476806640625" lon="-5.6477325595915317535400390625">
        <ele>199.600006103515625</ele>
        <time>2022-06-04T10:00:41.000Z</time>
      </trkpt>
      <trkpt lat="43.38887005113065242767333984375" lon="-5.64776851795613765716552734375">
        <ele>199.399993896484375</ele>
        <time>2022-06-04T10:00:42.000Z</time>
      </trkpt>
      <trkpt lat="43.38887005113065242767333984375" lon="-5.64776851795613765716552734375">
        <ele>199.399993896484375</ele>
        <time>2022-06-04T10:00:43.000Z</time>
      </trkpt>
      <trkpt lat="43.38884741999208927154541015625" lon="-5.64782199449837207794189453125">
        <ele>199.600006103515625</ele>
        <time>2022-06-04T10:00:45.000Z</time>
      </trkpt>
      <trkpt lat="43.3888572268187999725341796875" lon="-5.6478596292436122894287109375">
        <ele>199.600006103515625</ele>
        <time>2022-06-04T10:00:46.000Z</time>
      </trkpt>
      <trkpt lat="43.3888572268187999725341796875" lon="-5.6478596292436122894287109375">
        <ele>199.600006103515625</ele>
        <time>2022-06-04T10:00:47.000Z</time>
      </trkpt>
      <trkpt lat="43.388874493539333343505859375" lon="-5.6479129381477832794189453125">
        <ele>199.8000030517578125</ele>
        <time>2022-06-04T10:00:49.000Z</time>
      </trkpt>
      <trkpt lat="43.38888865895569324493408203125" lon="-5.6479716114699840545654296875">
        <ele>199.8000030517578125</ele>
        <time>2022-06-04T10:00:51.000Z</time>
      </trkpt>
      <trkpt lat="43.38890005834400653839111328125" lon="-5.64805962145328521728515625">
        <ele>200</ele>
        <time>2022-06-04T10:00:53.000Z</time>
      </trkpt>
      <trkpt lat="43.38889905251562595367431640625" lon="-5.64815827645361423492431640625">
        <ele>200.1999969482421875</ele>
        <time>2022-06-04T10:00:55.000Z</time>
      </trkpt>
      <trkpt lat="43.3888922631740570068359375" lon="-5.6482549197971820831298828125">
        <ele>200.1999969482421875</ele>
        <time>2022-06-04T10:00:57.000Z</time>
      </trkpt>
      <trkpt lat="43.38888530619442462921142578125" lon="-5.64836271107196807861328125">
        <ele>200.1999969482421875</ele>
        <time>2022-06-04T10:00:59.000Z</time>
      </trkpt>
      <trkpt lat="43.38888245634734630584716796875" lon="-5.64848718233406543731689453125">
        <ele>200.1999969482421875</ele>
        <time>2022-06-04T10:01:01.000Z</time>
      </trkpt>
      <trkpt lat="43.3888964541256427764892578125" lon="-5.6486262381076812744140625">
        <ele>200.1999969482421875</ele>
        <time>2022-06-04T10:01:03.000Z</time>
      </trkpt>
      <trkpt lat="43.38890768587589263916015625" lon="-5.6487591750919818878173828125">
        <ele>200.1999969482421875</ele>
        <time>2022-06-04T10:01:04.000Z</time>
      </trkpt>
      <trkpt lat="43.38890768587589263916015625" lon="-5.6487591750919818878173828125">
        <ele>200.1999969482421875</ele>
        <time>2022-06-04T10:01:05.000Z</time>
      </trkpt>
      <trkpt lat="43.38893174193799495697021484375" lon="-5.64892270602285861968994140625">
        <ele>200.1999969482421875</ele>
        <time>2022-06-04T10:01:07.000Z</time>
      </trkpt>
      <trkpt lat="43.38894330896437168121337890625" lon="-5.64896620810031890869140625">
        <ele>200.1999969482421875</ele>
        <time>2022-06-04T10:01:09.000Z</time>
      </trkpt>
      <trkpt lat="43.38895923458039760589599609375" lon="-5.64900350756943225860595703125">
        <ele>200.1999969482421875</ele>
        <time>2022-06-04T10:01:10.000Z</time>
      </trkpt>
      <trkpt lat="43.38897163979709148406982421875" lon="-5.6490384601056575775146484375">
        <ele>200.1999969482421875</ele>
        <time>2022-06-04T10:01:11.000Z</time>
      </trkpt>
      <trkpt lat="43.3889920078217983245849609375" lon="-5.64911163412034511566162109375">
        <ele>200.1999969482421875</ele>
        <time>2022-06-04T10:01:13.000Z</time>
      </trkpt>
      <trkpt lat="43.3890104480087757110595703125" lon="-5.64918036572635173797607421875">
        <ele>200.1999969482421875</ele>
        <time>2022-06-04T10:01:15.000Z</time>
      </trkpt>
      <trkpt lat="43.3890392817556858062744140625" lon="-5.64927709288895130157470703125">
        <ele>200.1999969482421875</ele>
        <time>2022-06-04T10:01:17.000Z</time>
      </trkpt>
      <trkpt lat="43.389050848782062530517578125" lon="-5.64930953085422515869140625">
        <ele>200.1999969482421875</ele>
        <time>2022-06-04T10:01:19.000Z</time>
      </trkpt>
      <trkpt lat="43.38907674886286258697509765625" lon="-5.64937247894704341888427734375">
        <ele>200.1999969482421875</ele>
        <time>2022-06-04T10:01:21.000Z</time>
      </trkpt>
      <trkpt lat="43.38911262340843677520751953125" lon="-5.6494723074138164520263671875">
        <ele>200.1999969482421875</ele>
        <time>2022-06-04T10:01:23.000Z</time>
      </trkpt>
      <trkpt lat="43.3891363441944122314453125" lon="-5.6495316512882709503173828125">
        <ele>200.1999969482421875</ele>
        <time>2022-06-04T10:01:25.000Z</time>
      </trkpt>
      <trkpt lat="43.3891363441944122314453125" lon="-5.6495316512882709503173828125">
        <ele>200.1999969482421875</ele>
        <time>2022-06-04T10:01:26.000Z</time>
      </trkpt>
      <trkpt lat="43.389160819351673126220703125" lon="-5.64959292300045490264892578125">
        <ele>200.1999969482421875</ele>
        <time>2022-06-04T10:01:27.000Z</time>
      </trkpt>
      <trkpt lat="43.38918219320476055145263671875" lon="-5.64965729601681232452392578125">
        <ele>200.1999969482421875</ele>
        <time>2022-06-04T10:01:29.000Z</time>
      </trkpt>
      <trkpt lat="43.3891941793262958526611328125" lon="-5.6496929191052913665771484375">
        <ele>200.1999969482421875</ele>
        <time>2022-06-04T10:01:31.000Z</time>
      </trkpt>
      <trkpt lat="43.38923047296702861785888671875" lon="-5.64981152303516864776611328125">
        <ele>200.1999969482421875</ele>
        <time>2022-06-04T10:01:33.000Z</time>
      </trkpt>
      <trkpt lat="43.3892474882304668426513671875" lon="-5.6498987786471843719482421875">
        <ele>200.1999969482421875</ele>
        <time>2022-06-04T10:01:35.000Z</time>
      </trkpt>
      <trkpt lat="43.3892645873129367828369140625" lon="-5.6499893032014369964599609375">
        <ele>200.1999969482421875</ele>
        <time>2022-06-04T10:01:37.000Z</time>
      </trkpt>
      <trkpt lat="43.389267437160015106201171875" lon="-5.6500370800495147705078125">
        <ele>200.1999969482421875</ele>
        <time>2022-06-04T10:01:39.000Z</time>
      </trkpt>
      <trkpt lat="43.38926115073263645172119140625" lon="-5.65012970007956027984619140625">
        <ele>200.1999969482421875</ele>
        <time>2022-06-04T10:01:41.000Z</time>
      </trkpt>
      <trkpt lat="43.38924162089824676513671875" lon="-5.65020547248423099517822265625">
        <ele>200.1999969482421875</ele>
        <time>2022-06-04T10:01:43.000Z</time>
      </trkpt>
      <trkpt lat="43.38919862173497676849365234375" lon="-5.650287531316280364990234375">
        <ele>200.1999969482421875</ele>
        <time>2022-06-04T10:01:45.000Z</time>
      </trkpt>
      <trkpt lat="43.3891619928181171417236328125" lon="-5.65031024627387523651123046875">
        <ele>200.1999969482421875</ele>
        <time>2022-06-04T10:01:47.000Z</time>
      </trkpt>
      <trkpt lat="43.38912921957671642303466796875" lon="-5.65033036284148693084716796875">
        <ele>200.399993896484375</ele>
        <time>2022-06-04T10:01:49.000Z</time>
      </trkpt>
      <trkpt lat="43.38909812271595001220703125" lon="-5.650333799421787261962890625">
        <ele>200.399993896484375</ele>
        <time>2022-06-04T10:01:51.000Z</time>
      </trkpt>
      <trkpt lat="43.3890848793089389801025390625" lon="-5.65033807419240474700927734375">
        <ele>200.600006103515625</ele>
        <time>2022-06-04T10:01:53.000Z</time>
      </trkpt>
      <trkpt lat="43.38907071389257907867431640625" lon="-5.65036229789257049560546875">
        <ele>200.600006103515625</ele>
        <time>2022-06-04T10:01:54.000Z</time>
      </trkpt>
      <trkpt lat="43.38907071389257907867431640625" lon="-5.65036229789257049560546875">
        <ele>200.8000030517578125</ele>
        <time>2022-06-04T10:01:55.000Z</time>
      </trkpt>
      <trkpt lat="43.38908982463181018829345703125" lon="-5.6504214741289615631103515625">
        <ele>201</ele>
        <time>2022-06-04T10:01:57.000Z</time>
      </trkpt>
      <trkpt lat="43.38910340331494808197021484375" lon="-5.65044008195400238037109375">
        <ele>201.1999969482421875</ele>
        <time>2022-06-04T10:01:58.000Z</time>
      </trkpt>
      <trkpt lat="43.3891113661229610443115234375" lon="-5.6504600308835506439208984375">
        <ele>201.399993896484375</ele>
        <time>2022-06-04T10:01:59.000Z</time>
      </trkpt>
      <trkpt lat="43.38912771083414554595947265625" lon="-5.6504959054291248321533203125">
        <ele>201.8000030517578125</ele>
        <time>2022-06-04T10:02:01.000Z</time>
      </trkpt>
      <trkpt lat="43.38915168307721614837646484375" lon="-5.65053303726017475128173828125">
        <ele>202.1999969482421875</ele>
        <time>2022-06-04T10:02:03.000Z</time>
      </trkpt>
      <trkpt lat="43.38916375301778316497802734375" lon="-5.6505472026765346527099609375">
        <ele>202.600006103515625</ele>
        <time>2022-06-04T10:02:04.000Z</time>
      </trkpt>
      <trkpt lat="43.3891792595386505126953125" lon="-5.65056354738771915435791015625">
        <ele>203</ele>
        <time>2022-06-04T10:02:05.000Z</time>
      </trkpt>
      <trkpt lat="43.3892106078565120697021484375" lon="-5.65059699118137359619140625">
        <ele>203.399993896484375</ele>
        <time>2022-06-04T10:02:07.000Z</time>
      </trkpt>
      <trkpt lat="43.3892106078565120697021484375" lon="-5.65059699118137359619140625">
        <ele>203.600006103515625</ele>
        <time>2022-06-04T10:02:08.000Z</time>
      </trkpt>
      <trkpt lat="43.38922418653964996337890625" lon="-5.65061442553997039794921875">
        <ele>203.600006103515625</ele>
        <time>2022-06-04T10:02:09.000Z</time>
      </trkpt>
      <trkpt lat="43.38925545103847980499267578125" lon="-5.65065641887485980987548828125">
        <ele>203.8000030517578125</ele>
        <time>2022-06-04T10:02:11.000Z</time>
      </trkpt>
      <trkpt lat="43.389287889003753662109375" lon="-5.6507014296948909759521484375">
        <ele>204</ele>
        <time>2022-06-04T10:02:13.000Z</time>
      </trkpt>
      <trkpt lat="43.38931940495967864990234375" lon="-5.65074442885816097259521484375">
        <ele>204.399993896484375</ele>
        <time>2022-06-04T10:02:15.000Z</time>
      </trkpt>
      <trkpt lat="43.3893356658518314361572265625" lon="-5.6507647968828678131103515625">
        <ele>204.600006103515625</ele>
        <time>2022-06-04T10:02:16.000Z</time>
      </trkpt>
      <trkpt lat="43.38934899307787418365478515625" lon="-5.6507869251072406768798828125">
        <ele>204.600006103515625</ele>
        <time>2022-06-04T10:02:17.000Z</time>
      </trkpt>
      <trkpt lat="43.3893732167780399322509765625" lon="-5.6508283317089080810546875">
        <ele>205</ele>
        <time>2022-06-04T10:02:19.000Z</time>
      </trkpt>
      <trkpt lat="43.38937975466251373291015625" lon="-5.65085716545581817626953125">
        <ele>205.1999969482421875</ele>
        <time>2022-06-04T10:02:20.000Z</time>
      </trkpt>
      <trkpt lat="43.38938067667186260223388671875" lon="-5.650890357792377471923828125">
        <ele>205.399993896484375</ele>
        <time>2022-06-04T10:02:21.000Z</time>
      </trkpt>
      <trkpt lat="43.389359973371028900146484375" lon="-5.65098079852759838104248046875">
        <ele>205.600006103515625</ele>
        <time>2022-06-04T10:02:23.000Z</time>
      </trkpt>
      <trkpt lat="43.38934932835400104522705078125" lon="-5.651013739407062530517578125">
        <ele>205.8000030517578125</ele>
        <time>2022-06-04T10:02:24.000Z</time>
      </trkpt>
      <trkpt lat="43.38934932835400104522705078125" lon="-5.651013739407062530517578125">
        <ele>206</ele>
        <time>2022-06-04T10:02:25.000Z</time>
      </trkpt>
      <trkpt lat="43.38933876715600490570068359375" lon="-5.65104894340038299560546875">
        <ele>206.1999969482421875</ele>
        <time>2022-06-04T10:02:26.000Z</time>
      </trkpt>
      <trkpt lat="43.38932787068188190460205078125" lon="-5.65108573995530605316162109375">
        <ele>206.399993896484375</ele>
        <time>2022-06-04T10:02:27.000Z</time>
      </trkpt>
      <trkpt lat="43.389309011399745941162109375" lon="-5.65116989426314830780029296875">
        <ele>206.8000030517578125</ele>
        <time>2022-06-04T10:02:29.000Z</time>
      </trkpt>
      <trkpt lat="43.38929099030792713165283203125" lon="-5.65126963891088962554931640625">
        <ele>207</ele>
        <time>2022-06-04T10:02:31.000Z</time>
      </trkpt>
      <trkpt lat="43.38928059674799442291259765625" lon="-5.6513230316340923309326171875">
        <ele>207</ele>
        <time>2022-06-04T10:02:32.000Z</time>
      </trkpt>
      <trkpt lat="43.38927355594933032989501953125" lon="-5.65137944184243679046630859375">
        <ele>207.1999969482421875</ele>
        <time>2022-06-04T10:02:33.000Z</time>
      </trkpt>
      <trkpt lat="43.38927204720675945281982421875" lon="-5.651564262807369232177734375">
        <ele>207.1999969482421875</ele>
        <time>2022-06-04T10:02:35.000Z</time>
      </trkpt>
      <trkpt lat="43.3892739750444889068603515625" lon="-5.65162486396729946136474609375">
        <ele>207.1999969482421875</ele>
        <time>2022-06-04T10:02:37.000Z</time>
      </trkpt>
      <trkpt lat="43.3892759867012500762939453125" lon="-5.651685632765293121337890625">
        <ele>207</ele>
        <time>2022-06-04T10:02:38.000Z</time>
      </trkpt>
      <trkpt lat="43.389277160167694091796875" lon="-5.65174606628715991973876953125">
        <ele>207</ele>
        <time>2022-06-04T10:02:39.000Z</time>
      </trkpt>
      <trkpt lat="43.3892773278057575225830078125" lon="-5.65186693333089351654052734375">
        <ele>207.1999969482421875</ele>
        <time>2022-06-04T10:02:41.000Z</time>
      </trkpt>
      <trkpt lat="43.38927875272929668426513671875" lon="-5.6519865430891513824462890625">
        <ele>207.1999969482421875</ele>
        <time>2022-06-04T10:02:43.000Z</time>
      </trkpt>
      <trkpt lat="43.38928344659507274627685546875" lon="-5.6521628983318805694580078125">
        <ele>207</ele>
        <time>2022-06-04T10:02:45.000Z</time>
      </trkpt>
      <trkpt lat="43.389283530414104461669921875" lon="-5.652224086225032806396484375">
        <ele>206.8000030517578125</ele>
        <time>2022-06-04T10:02:47.000Z</time>
      </trkpt>
      <trkpt lat="43.38928520679473876953125" lon="-5.65234838984906673431396484375">
        <ele>206.8000030517578125</ele>
        <time>2022-06-04T10:02:49.000Z</time>
      </trkpt>
      <trkpt lat="43.389289565384387969970703125" lon="-5.65247395075857639312744140625">
        <ele>206.8000030517578125</ele>
        <time>2022-06-04T10:02:51.000Z</time>
      </trkpt>
      <trkpt lat="43.389286883175373077392578125" lon="-5.6525977514684200286865234375">
        <ele>206.8000030517578125</ele>
        <time>2022-06-04T10:02:53.000Z</time>
      </trkpt>
      <trkpt lat="43.389280177652835845947265625" lon="-5.6527264975011348724365234375">
        <ele>206.600006103515625</ele>
        <time>2022-06-04T10:02:55.000Z</time>
      </trkpt>
      <trkpt lat="43.3892790041863918304443359375" lon="-5.6529212929308414459228515625">
        <ele>206.600006103515625</ele>
        <time>2022-06-04T10:02:57.000Z</time>
      </trkpt>
      <trkpt lat="43.38928587734699249267578125" lon="-5.652986504137516021728515625">
        <ele>206.399993896484375</ele>
        <time>2022-06-04T10:02:59.000Z</time>
      </trkpt>
      <trkpt lat="43.38932133279740810394287109375" lon="-5.65310963429510593414306640625">
        <ele>206.399993896484375</ele>
        <time>2022-06-04T10:03:00.000Z</time>
      </trkpt>
      <trkpt lat="43.3893541060388088226318359375" lon="-5.65316244028508663177490234375">
        <ele>206.399993896484375</ele>
        <time>2022-06-04T10:03:01.000Z</time>
      </trkpt>
      <trkpt lat="43.389439769089221954345703125" lon="-5.653230585157871246337890625">
        <ele>206.399993896484375</ele>
        <time>2022-06-04T10:03:03.000Z</time>
      </trkpt>
      <trkpt lat="43.38953708298504352569580078125" lon="-5.653262771666049957275390625">
        <ele>206.1999969482421875</ele>
        <time>2022-06-04T10:03:05.000Z</time>
      </trkpt>
      <trkpt lat="43.3895851112902164459228515625" lon="-5.6532770209014415740966796875">
        <ele>206.1999969482421875</ele>
        <time>2022-06-04T10:03:07.000Z</time>
      </trkpt>
      <trkpt lat="43.38967747986316680908203125" lon="-5.65331432037055492401123046875">
        <ele>206.1999969482421875</ele>
        <time>2022-06-04T10:03:09.000Z</time>
      </trkpt>
      <trkpt lat="43.3897561021149158477783203125" lon="-5.65336503088474273681640625">
        <ele>206.1999969482421875</ele>
        <time>2022-06-04T10:03:11.000Z</time>
      </trkpt>
      <trkpt lat="43.3898050524294376373291015625" lon="-5.65345890820026397705078125">
        <ele>206.1999969482421875</ele>
        <time>2022-06-04T10:03:13.000Z</time>
      </trkpt>
      <trkpt lat="43.3898291923105716705322265625" lon="-5.6535083614289760589599609375">
        <ele>206.1999969482421875</ele>
        <time>2022-06-04T10:03:14.000Z</time>
      </trkpt>
      <trkpt lat="43.38990873657166957855224609375" lon="-5.65355412662029266357421875">
        <ele>206.1999969482421875</ele>
        <time>2022-06-04T10:03:15.000Z</time>
      </trkpt>
      <trkpt lat="43.38995399884879589080810546875" lon="-5.653559826314449310302734375">
        <ele>206.1999969482421875</ele>
        <time>2022-06-04T10:03:16.000Z</time>
      </trkpt>
      <trkpt lat="43.38995399884879589080810546875" lon="-5.653559826314449310302734375">
        <ele>206.1999969482421875</ele>
        <time>2022-06-04T10:03:17.000Z</time>
      </trkpt>
      <trkpt lat="43.39004360139369964599609375" lon="-5.6535589881241321563720703125">
        <ele>206.399993896484375</ele>
        <time>2022-06-04T10:03:18.000Z</time>
      </trkpt>
      <trkpt lat="43.39004360139369964599609375" lon="-5.6535589881241321563720703125">
        <ele>206.399993896484375</ele>
        <time>2022-06-04T10:03:19.000Z</time>
      </trkpt>
      <trkpt lat="43.39017628692090511322021484375" lon="-5.653555132448673248291015625">
        <ele>206.8000030517578125</ele>
        <time>2022-06-04T10:03:21.000Z</time>
      </trkpt>
      <trkpt lat="43.3902231417596340179443359375" lon="-5.65355521626770496368408203125">
        <ele>207</ele>
        <time>2022-06-04T10:03:23.000Z</time>
      </trkpt>
      <trkpt lat="43.39031257666647434234619140625" lon="-5.653554461896419525146484375">
        <ele>207</ele>
        <time>2022-06-04T10:03:25.000Z</time>
      </trkpt>
      <trkpt lat="43.39039254002273082733154296875" lon="-5.65355010330677032470703125">
        <ele>207.399993896484375</ele>
        <time>2022-06-04T10:03:27.000Z</time>
      </trkpt>
      <trkpt lat="43.39049178175628185272216796875" lon="-5.65352722071111202239990234375">
        <ele>207.600006103515625</ele>
        <time>2022-06-04T10:03:29.000Z</time>
      </trkpt>
      <trkpt lat="43.390518687665462493896484375" lon="-5.65349067561328411102294921875">
        <ele>207.8000030517578125</ele>
        <time>2022-06-04T10:03:31.000Z</time>
      </trkpt>
      <trkpt lat="43.39054048061370849609375" lon="-5.653443150222301483154296875">
        <ele>208</ele>
        <time>2022-06-04T10:03:32.000Z</time>
      </trkpt>
      <trkpt lat="43.3905557356774806976318359375" lon="-5.653388164937496185302734375">
        <ele>208</ele>
        <time>2022-06-04T10:03:33.000Z</time>
      </trkpt>
      <trkpt lat="43.39056939817965030670166015625" lon="-5.65325665287673473358154296875">
        <ele>208.1999969482421875</ele>
        <time>2022-06-04T10:03:35.000Z</time>
      </trkpt>
      <trkpt lat="43.39057794772088527679443359375" lon="-5.6531184352934360504150390625">
        <ele>208.1999969482421875</ele>
        <time>2022-06-04T10:03:36.000Z</time>
      </trkpt>
      <trkpt lat="43.39057794772088527679443359375" lon="-5.6531184352934360504150390625">
        <ele>208.1999969482421875</ele>
        <time>2022-06-04T10:03:37.000Z</time>
      </trkpt>
      <trkpt lat="43.39058532379567623138427734375" lon="-5.6529794633388519287109375">
        <ele>208.399993896484375</ele>
        <time>2022-06-04T10:03:39.000Z</time>
      </trkpt>
      <trkpt lat="43.39058850891888141632080078125" lon="-5.65282766707241535186767578125">
        <ele>208.399993896484375</ele>
        <time>2022-06-04T10:03:41.000Z</time>
      </trkpt>
      <trkpt lat="43.390597142279148101806640625" lon="-5.65267025493085384368896484375">
        <ele>208.399993896484375</ele>
        <time>2022-06-04T10:03:43.000Z</time>
      </trkpt>
      <trkpt lat="43.3906020037829875946044921875" lon="-5.65251669846475124359130859375">
        <ele>208.399993896484375</ele>
        <time>2022-06-04T10:03:45.000Z</time>
      </trkpt>
      <trkpt lat="43.3906090445816516876220703125" lon="-5.652366578578948974609375">
        <ele>208.600006103515625</ele>
        <time>2022-06-04T10:03:47.000Z</time>
      </trkpt>
      <trkpt lat="43.39062371291220188140869140625" lon="-5.65222148783504962921142578125">
        <ele>208.600006103515625</ele>
        <time>2022-06-04T10:03:49.000Z</time>
      </trkpt>
      <trkpt lat="43.39064332656562328338623046875" lon="-5.6521551869809627532958984375">
        <ele>208.600006103515625</ele>
        <time>2022-06-04T10:03:50.000Z</time>
      </trkpt>
      <trkpt lat="43.39067526161670684814453125" lon="-5.65210162661969661712646484375">
        <ele>208.600006103515625</ele>
        <time>2022-06-04T10:03:51.000Z</time>
      </trkpt>
      <trkpt lat="43.3907626010477542877197265625" lon="-5.6520515866577625274658203125">
        <ele>208.600006103515625</ele>
        <time>2022-06-04T10:03:53.000Z</time>
      </trkpt>
      <trkpt lat="43.39085019193589687347412109375" lon="-5.65204270184040069580078125">
        <ele>208.600006103515625</ele>
        <time>2022-06-04T10:03:55.000Z</time>
      </trkpt>
      <trkpt lat="43.3908900059759616851806640625" lon="-5.652040354907512664794921875">
        <ele>208.399993896484375</ele>
        <time>2022-06-04T10:03:56.000Z</time>
      </trkpt>
      <trkpt lat="43.39096602983772754669189453125" lon="-5.65203809179365634918212890625">
        <ele>208.399993896484375</ele>
        <time>2022-06-04T10:03:57.000Z</time>
      </trkpt>
      <trkpt lat="43.391000144183635711669921875" lon="-5.65203457139432430267333984375">
        <ele>208.8000030517578125</ele>
        <time>2022-06-04T10:03:59.000Z</time>
      </trkpt>
      <trkpt lat="43.391067869961261749267578125" lon="-5.65202258527278900146484375">
        <ele>209.399993896484375</ele>
        <time>2022-06-04T10:04:01.000Z</time>
      </trkpt>
      <trkpt lat="43.3911025710403919219970703125" lon="-5.65201680175960063934326171875">
        <ele>209.8000030517578125</ele>
        <time>2022-06-04T10:04:02.000Z</time>
      </trkpt>
      <trkpt lat="43.3911364339292049407958984375" lon="-5.65201210789382457733154296875">
        <ele>210.1999969482421875</ele>
        <time>2022-06-04T10:04:03.000Z</time>
      </trkpt>
      <trkpt lat="43.39120541699230670928955078125" lon="-5.65200841985642910003662109375">
        <ele>211</ele>
        <time>2022-06-04T10:04:05.000Z</time>
      </trkpt>
      <trkpt lat="43.3912718854844570159912109375" lon="-5.652003474533557891845703125">
        <ele>211.600006103515625</ele>
        <time>2022-06-04T10:04:07.000Z</time>
      </trkpt>
      <trkpt lat="43.39130382053554058074951171875" lon="-5.65200188197195529937744140625">
        <ele>211.8000030517578125</ele>
        <time>2022-06-04T10:04:08.000Z</time>
      </trkpt>
      <trkpt lat="43.3913352526724338531494140625" lon="-5.652001798152923583984375">
        <ele>212</ele>
        <time>2022-06-04T10:04:09.000Z</time>
      </trkpt>
      <trkpt lat="43.391401804983615875244140625" lon="-5.65199173986911773681640625">
        <ele>212.1999969482421875</ele>
        <time>2022-06-04T10:04:11.000Z</time>
      </trkpt>
      <trkpt lat="43.3914673514664173126220703125" lon="-5.6519838608801364898681640625">
        <ele>212.600006103515625</ele>
        <time>2022-06-04T10:04:13.000Z</time>
      </trkpt>
      <trkpt lat="43.39149945415556430816650390625" lon="-5.65198293887078762054443359375">
        <ele>212.8000030517578125</ele>
        <time>2022-06-04T10:04:14.000Z</time>
      </trkpt>
      <trkpt lat="43.39153298176825046539306640625" lon="-5.651982687413692474365234375">
        <ele>213</ele>
        <time>2022-06-04T10:04:15.000Z</time>
      </trkpt>
      <trkpt lat="43.391602970659732818603515625" lon="-5.65197723917663097381591796875">
        <ele>213.399993896484375</ele>
        <time>2022-06-04T10:04:17.000Z</time>
      </trkpt>
      <trkpt lat="43.39167463593184947967529296875" lon="-5.6519731320440769195556640625">
        <ele>214</ele>
        <time>2022-06-04T10:04:19.000Z</time>
      </trkpt>
      <trkpt lat="43.39171218685805797576904296875" lon="-5.65197170712053775787353515625">
        <ele>214.399993896484375</ele>
        <time>2022-06-04T10:04:20.000Z</time>
      </trkpt>
      <trkpt lat="43.3917496539652347564697265625" lon="-5.651969946920871734619140625">
        <ele>214.600006103515625</ele>
        <time>2022-06-04T10:04:21.000Z</time>
      </trkpt>
      <trkpt lat="43.3918254263699054718017578125" lon="-5.65196047537028789520263671875">
        <ele>215</ele>
        <time>2022-06-04T10:04:23.000Z</time>
      </trkpt>
      <trkpt lat="43.39190564118325710296630859375" lon="-5.651957876980304718017578125">
        <ele>215.399993896484375</ele>
        <time>2022-06-04T10:04:25.000Z</time>
      </trkpt>
      <trkpt lat="43.3919902145862579345703125" lon="-5.6519526802003383636474609375">
        <ele>216</ele>
        <time>2022-06-04T10:04:27.000Z</time>
      </trkpt>
      <trkpt lat="43.39208182878792285919189453125" lon="-5.65194320864975452423095703125">
        <ele>216.1999969482421875</ele>
        <time>2022-06-04T10:04:29.000Z</time>
      </trkpt>
      <trkpt lat="43.3921275101602077484130859375" lon="-5.65193499438464641571044921875">
        <ele>216.399993896484375</ele>
        <time>2022-06-04T10:04:30.000Z</time>
      </trkpt>
      <trkpt lat="43.39217235334217548370361328125" lon="-5.6519226729869842529296875">
        <ele>216.399993896484375</ele>
        <time>2022-06-04T10:04:31.000Z</time>
      </trkpt>
      <trkpt lat="43.3922649733722209930419921875" lon="-5.6518930010497570037841796875">
        <ele>216.600006103515625</ele>
        <time>2022-06-04T10:04:33.000Z</time>
      </trkpt>
      <trkpt lat="43.3923075534403324127197265625" lon="-5.6518717110157012939453125">
        <ele>216.600006103515625</ele>
        <time>2022-06-04T10:04:34.000Z</time>
      </trkpt>
      <trkpt lat="43.39234518818557262420654296875" lon="-5.65183759666979312896728515625">
        <ele>216.399993896484375</ele>
        <time>2022-06-04T10:04:35.000Z</time>
      </trkpt>
      <trkpt lat="43.39238173328340053558349609375" lon="-5.651797614991664886474609375">
        <ele>216.600006103515625</ele>
        <time>2022-06-04T10:04:36.000Z</time>
      </trkpt>
      <trkpt lat="43.39241811074316501617431640625" lon="-5.6517555378377437591552734375">
        <ele>216.600006103515625</ele>
        <time>2022-06-04T10:04:37.000Z</time>
      </trkpt>
      <trkpt lat="43.39245951734483242034912109375" lon="-5.6517210043966770172119140625">
        <ele>216.600006103515625</ele>
        <time>2022-06-04T10:04:38.000Z</time>
      </trkpt>
      <trkpt lat="43.392505533993244171142578125" lon="-5.65169937908649444580078125">
        <ele>216.8000030517578125</ele>
        <time>2022-06-04T10:04:39.000Z</time>
      </trkpt>
      <trkpt lat="43.39260376989841461181640625" lon="-5.6517161428928375244140625">
        <ele>216.8000030517578125</ele>
        <time>2022-06-04T10:04:40.000Z</time>
      </trkpt>
      <trkpt lat="43.39260376989841461181640625" lon="-5.6517161428928375244140625">
        <ele>216.8000030517578125</ele>
        <time>2022-06-04T10:04:41.000Z</time>
      </trkpt>
      <trkpt lat="43.39264760725200176239013671875" lon="-5.6517469882965087890625">
        <ele>216.8000030517578125</ele>
        <time>2022-06-04T10:04:42.000Z</time>
      </trkpt>
      <trkpt lat="43.392687924206256866455078125" lon="-5.65178328193724155426025390625">
        <ele>216.8000030517578125</ele>
        <time>2022-06-04T10:04:43.000Z</time>
      </trkpt>
      <trkpt lat="43.3927638642489910125732421875" lon="-5.65183407627046108245849609375">
        <ele>216.8000030517578125</ele>
        <time>2022-06-04T10:04:45.000Z</time>
      </trkpt>
      <trkpt lat="43.39284189976751804351806640625" lon="-5.65181949175894260406494140625">
        <ele>217</ele>
        <time>2022-06-04T10:04:47.000Z</time>
      </trkpt>
      <trkpt lat="43.39287794195115566253662109375" lon="-5.65179199911653995513916015625">
        <ele>217</ele>
        <time>2022-06-04T10:04:48.000Z</time>
      </trkpt>
      <trkpt lat="43.392912559211254119873046875" lon="-5.651760399341583251953125">
        <ele>217.1999969482421875</ele>
        <time>2022-06-04T10:04:49.000Z</time>
      </trkpt>
      <trkpt lat="43.39294709265232086181640625" lon="-5.6517268717288970947265625">
        <ele>217.399993896484375</ele>
        <time>2022-06-04T10:04:50.000Z</time>
      </trkpt>
      <trkpt lat="43.3929791115224361419677734375" lon="-5.6516935117542743682861328125">
        <ele>217.600006103515625</ele>
        <time>2022-06-04T10:04:51.000Z</time>
      </trkpt>
      <trkpt lat="43.393047340214252471923828125" lon="-5.65162637270987033843994140625">
        <ele>218</ele>
        <time>2022-06-04T10:04:53.000Z</time>
      </trkpt>
      <trkpt lat="43.39312017895281314849853515625" lon="-5.6515597365796566009521484375">
        <ele>218.600006103515625</ele>
        <time>2022-06-04T10:04:55.000Z</time>
      </trkpt>
      <trkpt lat="43.3931958675384521484375" lon="-5.65149477683007717132568359375">
        <ele>218.8000030517578125</ele>
        <time>2022-06-04T10:04:57.000Z</time>
      </trkpt>
      <trkpt lat="43.393270969390869140625" lon="-5.6514232791960239410400390625">
        <ele>219</ele>
        <time>2022-06-04T10:04:59.000Z</time>
      </trkpt>
      <trkpt lat="43.39334271848201751708984375" lon="-5.65134876407682895660400390625">
        <ele>219.1999969482421875</ele>
        <time>2022-06-04T10:05:01.000Z</time>
      </trkpt>
      <trkpt lat="43.39341136626899242401123046875" lon="-5.651269219815731048583984375">
        <ele>219.399993896484375</ele>
        <time>2022-06-04T10:05:03.000Z</time>
      </trkpt>
      <trkpt lat="43.3934749849140644073486328125" lon="-5.65118297003209590911865234375">
        <ele>219.600006103515625</ele>
        <time>2022-06-04T10:05:04.000Z</time>
      </trkpt>
      <trkpt lat="43.3934749849140644073486328125" lon="-5.65118297003209590911865234375">
        <ele>219.8000030517578125</ele>
        <time>2022-06-04T10:05:05.000Z</time>
      </trkpt>
      <trkpt lat="43.39350499212741851806640625" lon="-5.65113720484077930450439453125">
        <ele>219.8000030517578125</ele>
        <time>2022-06-04T10:05:06.000Z</time>
      </trkpt>
      <trkpt lat="43.39353315532207489013671875" lon="-5.65109043382108211517333984375">
        <ele>219.8000030517578125</ele>
        <time>2022-06-04T10:05:07.000Z</time>
      </trkpt>
      <trkpt lat="43.39358537457883358001708984375" lon="-5.650993287563323974609375">
        <ele>220</ele>
        <time>2022-06-04T10:05:09.000Z</time>
      </trkpt>
      <trkpt lat="43.39363398961722850799560546875" lon="-5.65089597366750240325927734375">
        <ele>220.1999969482421875</ele>
        <time>2022-06-04T10:05:11.000Z</time>
      </trkpt>
      <trkpt lat="43.39367472566664218902587890625" lon="-5.65078952349722385406494140625">
        <ele>220.399993896484375</ele>
        <time>2022-06-04T10:05:12.000Z</time>
      </trkpt>
      <trkpt lat="43.39367472566664218902587890625" lon="-5.65078952349722385406494140625">
        <ele>220.600006103515625</ele>
        <time>2022-06-04T10:05:13.000Z</time>
      </trkpt>
      <trkpt lat="43.393691070377826690673828125" lon="-5.65073269419372081756591796875">
        <ele>220.600006103515625</ele>
        <time>2022-06-04T10:05:14.000Z</time>
      </trkpt>
      <trkpt lat="43.3937069959938526153564453125" lon="-5.65067477524280548095703125">
        <ele>220.8000030517578125</ele>
        <time>2022-06-04T10:05:15.000Z</time>
      </trkpt>
      <trkpt lat="43.393748067319393157958984375" lon="-5.65049950964748859405517578125">
        <ele>221.399993896484375</ele>
        <time>2022-06-04T10:05:17.000Z</time>
      </trkpt>
      <trkpt lat="43.39376474730670452117919921875" lon="-5.65037914551794528961181640625">
        <ele>221.8000030517578125</ele>
        <time>2022-06-04T10:05:19.000Z</time>
      </trkpt>
      <trkpt lat="43.39376474730670452117919921875" lon="-5.65037914551794528961181640625">
        <ele>221.8000030517578125</ele>
        <time>2022-06-04T10:05:20.000Z</time>
      </trkpt>
      <trkpt lat="43.393773548305034637451171875" lon="-5.6502508185803890228271484375">
        <ele>221.8000030517578125</ele>
        <time>2022-06-04T10:05:21.000Z</time>
      </trkpt>
      <trkpt lat="43.39377715252339839935302734375" lon="-5.6501867808401584625244140625">
        <ele>222</ele>
        <time>2022-06-04T10:05:23.000Z</time>
      </trkpt>
      <trkpt lat="43.3937800861895084381103515625" lon="-5.65005778335034847259521484375">
        <ele>222</ele>
        <time>2022-06-04T10:05:25.000Z</time>
      </trkpt>
      <trkpt lat="43.3937780745327472686767578125" lon="-5.64992618747055530548095703125">
        <ele>222</ele>
        <time>2022-06-04T10:05:27.000Z</time>
      </trkpt>
      <trkpt lat="43.393776901066303253173828125" lon="-5.64979366958141326904296875">
        <ele>222</ele>
        <time>2022-06-04T10:05:28.000Z</time>
      </trkpt>
      <trkpt lat="43.3937765657901763916015625" lon="-5.6497267819941043853759765625">
        <ele>222</ele>
        <time>2022-06-04T10:05:29.000Z</time>
      </trkpt>
      <trkpt lat="43.393776901066303253173828125" lon="-5.64966031350195407867431640625">
        <ele>222</ele>
        <time>2022-06-04T10:05:31.000Z</time>
      </trkpt>
      <trkpt lat="43.3937753923237323760986328125" lon="-5.649531818926334381103515625">
        <ele>222</ele>
        <time>2022-06-04T10:05:33.000Z</time>
      </trkpt>
      <trkpt lat="43.39377589523792266845703125" lon="-5.649409107863903045654296875">
        <ele>222</ele>
        <time>2022-06-04T10:05:35.000Z</time>
      </trkpt>
      <trkpt lat="43.3937797509133815765380859375" lon="-5.64928379841148853302001953125">
        <ele>222</ele>
        <time>2022-06-04T10:05:37.000Z</time>
      </trkpt>
      <trkpt lat="43.39378553442656993865966796875" lon="-5.64921841956675052642822265625">
        <ele>221.8000030517578125</ele>
        <time>2022-06-04T10:05:38.000Z</time>
      </trkpt>
      <trkpt lat="43.39379358105361461639404296875" lon="-5.64915320836007595062255859375">
        <ele>221.8000030517578125</ele>
        <time>2022-06-04T10:05:39.000Z</time>
      </trkpt>
      <trkpt lat="43.39382392354309558868408203125" lon="-5.648957155644893646240234375">
        <ele>221.399993896484375</ele>
        <time>2022-06-04T10:05:41.000Z</time>
      </trkpt>
      <trkpt lat="43.39385158382356166839599609375" lon="-5.6488247215747833251953125">
        <ele>221.399993896484375</ele>
        <time>2022-06-04T10:05:43.000Z</time>
      </trkpt>
      <trkpt lat="43.3938662521541118621826171875" lon="-5.64876009710133075714111328125">
        <ele>221.399993896484375</ele>
        <time>2022-06-04T10:05:45.000Z</time>
      </trkpt>
      <trkpt lat="43.39390137232840061187744140625" lon="-5.64863587729632854461669921875">
        <ele>221.399993896484375</ele>
        <time>2022-06-04T10:05:46.000Z</time>
      </trkpt>
      <trkpt lat="43.39390137232840061187744140625" lon="-5.64863587729632854461669921875">
        <ele>221.399993896484375</ele>
        <time>2022-06-04T10:05:47.000Z</time>
      </trkpt>
      <trkpt lat="43.39394629932940006256103515625" lon="-5.648514591157436370849609375">
        <ele>221.399993896484375</ele>
        <time>2022-06-04T10:05:48.000Z</time>
      </trkpt>
      <trkpt lat="43.39394629932940006256103515625" lon="-5.648514591157436370849609375">
        <ele>221.399993896484375</ele>
        <time>2022-06-04T10:05:49.000Z</time>
      </trkpt>
      <trkpt lat="43.39397412724792957305908203125" lon="-5.6484513916075229644775390625">
        <ele>221.399993896484375</ele>
        <time>2022-06-04T10:05:50.000Z</time>
      </trkpt>
      <trkpt lat="43.394004888832569122314453125" lon="-5.6483833305537700653076171875">
        <ele>221.399993896484375</ele>
        <time>2022-06-04T10:05:51.000Z</time>
      </trkpt>
      <trkpt lat="43.3940825052559375762939453125" lon="-5.6482341326773166656494140625">
        <ele>221.399993896484375</ele>
        <time>2022-06-04T10:05:52.000Z</time>
      </trkpt>
      <trkpt lat="43.39412860572338104248046875" lon="-5.648155845701694488525390625">
        <ele>221.399993896484375</ele>
        <time>2022-06-04T10:05:53.000Z</time>
      </trkpt>
      <trkpt lat="43.3941757120192050933837890625" lon="-5.64807437360286712646484375">
        <ele>221.399993896484375</ele>
        <time>2022-06-04T10:05:54.000Z</time>
      </trkpt>
      <trkpt lat="43.3942246623337268829345703125" lon="-5.64798586070537567138671875">
        <ele>221.1999969482421875</ele>
        <time>2022-06-04T10:05:55.000Z</time>
      </trkpt>
      <trkpt lat="43.3943259157240390777587890625" lon="-5.64779466949403285980224609375">
        <ele>221.1999969482421875</ele>
        <time>2022-06-04T10:05:57.000Z</time>
      </trkpt>
      <trkpt lat="43.39443035423755645751953125" lon="-5.64758344553411006927490234375">
        <ele>220.600006103515625</ele>
        <time>2022-06-04T10:05:59.000Z</time>
      </trkpt>
      <trkpt lat="43.39448458515107631683349609375" lon="-5.6474728882312774658203125">
        <ele>220.399993896484375</ele>
        <time>2022-06-04T10:06:00.000Z</time>
      </trkpt>
      <trkpt lat="43.39453772641718387603759765625" lon="-5.6473577208817005157470703125">
        <ele>220</ele>
        <time>2022-06-04T10:06:01.000Z</time>
      </trkpt>
      <trkpt lat="43.39462372474372386932373046875" lon="-5.6471062637865543365478515625">
        <ele>219.399993896484375</ele>
        <time>2022-06-04T10:06:03.000Z</time>
      </trkpt>
      <trkpt lat="43.3946551568806171417236328125" lon="-5.64697575755417346954345703125">
        <ele>218.8000030517578125</ele>
        <time>2022-06-04T10:06:04.000Z</time>
      </trkpt>
      <trkpt lat="43.39468139223754405975341796875" lon="-5.6468484364449977874755859375">
        <ele>218.399993896484375</ele>
        <time>2022-06-04T10:06:05.000Z</time>
      </trkpt>
      <trkpt lat="43.39470335282385349273681640625" lon="-5.64672413282096385955810546875">
        <ele>218</ele>
        <time>2022-06-04T10:06:06.000Z</time>
      </trkpt>
      <trkpt lat="43.394722044467926025390625" lon="-5.64660108648240566253662109375">
        <ele>217.399993896484375</ele>
        <time>2022-06-04T10:06:07.000Z</time>
      </trkpt>
      <trkpt lat="43.394722044467926025390625" lon="-5.64660108648240566253662109375">
        <ele>216.8000030517578125</ele>
        <time>2022-06-04T10:06:08.000Z</time>
      </trkpt>
      <trkpt lat="43.3947389759123325347900390625" lon="-5.64648088999092578887939453125">
        <ele>216</ele>
        <time>2022-06-04T10:06:09.000Z</time>
      </trkpt>
      <trkpt lat="43.394752554595470428466796875" lon="-5.64624284394085407257080078125">
        <ele>215.600006103515625</ele>
        <time>2022-06-04T10:06:10.000Z</time>
      </trkpt>
      <trkpt lat="43.394752554595470428466796875" lon="-5.64624284394085407257080078125">
        <ele>215</ele>
        <time>2022-06-04T10:06:11.000Z</time>
      </trkpt>
      <trkpt lat="43.3947362937033176422119140625" lon="-5.64602248370647430419921875">
        <ele>213.8000030517578125</ele>
        <time>2022-06-04T10:06:12.000Z</time>
      </trkpt>
      <trkpt lat="43.3947362937033176422119140625" lon="-5.64602248370647430419921875">
        <ele>213.600006103515625</ele>
        <time>2022-06-04T10:06:13.000Z</time>
      </trkpt>
      <trkpt lat="43.3946863375604152679443359375" lon="-5.64571746625006198883056640625">
        <ele>213.399993896484375</ele>
        <time>2022-06-04T10:06:15.000Z</time>
      </trkpt>
      <trkpt lat="43.39466379024088382720947265625" lon="-5.6456199847161769866943359375">
        <ele>213.399993896484375</ele>
        <time>2022-06-04T10:06:17.000Z</time>
      </trkpt>
      <trkpt lat="43.39464283548295497894287109375" lon="-5.64552417956292629241943359375">
        <ele>213.399993896484375</ele>
        <time>2022-06-04T10:06:18.000Z</time>
      </trkpt>
      <trkpt lat="43.3946236409246921539306640625" lon="-5.6454302184283733367919921875">
        <ele>213.399993896484375</ele>
        <time>2022-06-04T10:06:19.000Z</time>
      </trkpt>
      <trkpt lat="43.394591622054576873779296875" lon="-5.64524087123572826385498046875">
        <ele>213.399993896484375</ele>
        <time>2022-06-04T10:06:21.000Z</time>
      </trkpt>
      <trkpt lat="43.39457561261951923370361328125" lon="-5.64503836445510387420654296875">
        <ele>213.600006103515625</ele>
        <time>2022-06-04T10:06:23.000Z</time>
      </trkpt>
      <trkpt lat="43.394582904875278472900390625" lon="-5.64480987377464771270751953125">
        <ele>213.600006103515625</ele>
        <time>2022-06-04T10:06:24.000Z</time>
      </trkpt>
      <trkpt lat="43.394582904875278472900390625" lon="-5.64480987377464771270751953125">
        <ele>213.600006103515625</ele>
        <time>2022-06-04T10:06:25.000Z</time>
      </trkpt>
      <trkpt lat="43.39459438808262348175048828125" lon="-5.6445598416030406951904296875">
        <ele>213.600006103515625</ele>
        <time>2022-06-04T10:06:27.000Z</time>
      </trkpt>
      <trkpt lat="43.39459639973938465118408203125" lon="-5.6442943029105663299560546875">
        <ele>213.600006103515625</ele>
        <time>2022-06-04T10:06:29.000Z</time>
      </trkpt>
      <trkpt lat="43.39458935894072055816650390625" lon="-5.64403153024613857269287109375">
        <ele>213.600006103515625</ele>
        <time>2022-06-04T10:06:30.000Z</time>
      </trkpt>
      <trkpt lat="43.39458935894072055816650390625" lon="-5.64403153024613857269287109375">
        <ele>213.600006103515625</ele>
        <time>2022-06-04T10:06:31.000Z</time>
      </trkpt>
      <trkpt lat="43.39459271170198917388916015625" lon="-5.64378074370324611663818359375">
        <ele>213.1999969482421875</ele>
        <time>2022-06-04T10:06:33.000Z</time>
      </trkpt>
      <trkpt lat="43.3946330286562442779541015625" lon="-5.6435516662895679473876953125">
        <ele>212.399993896484375</ele>
        <time>2022-06-04T10:06:35.000Z</time>
      </trkpt>
      <trkpt lat="43.3946987427771091461181640625" lon="-5.64335276372730731964111328125">
        <ele>212.1999969482421875</ele>
        <time>2022-06-04T10:06:36.000Z</time>
      </trkpt>
      <trkpt lat="43.3946987427771091461181640625" lon="-5.64335276372730731964111328125">
        <ele>212.1999969482421875</ele>
        <time>2022-06-04T10:06:37.000Z</time>
      </trkpt>
      <trkpt lat="43.394783399999141693115234375" lon="-5.64317992888391017913818359375">
        <ele>212</ele>
        <time>2022-06-04T10:06:39.000Z</time>
      </trkpt>
      <trkpt lat="43.394958078861236572265625" lon="-5.64300893805921077728271484375">
        <ele>212</ele>
        <time>2022-06-04T10:06:41.000Z</time>
      </trkpt>
      <trkpt lat="43.39502102695405483245849609375" lon="-5.64297021366655826568603515625">
        <ele>212</ele>
        <time>2022-06-04T10:06:42.000Z</time>
      </trkpt>
      <trkpt lat="43.39508070610463619232177734375" lon="-5.64292830415070056915283203125">
        <ele>212</ele>
        <time>2022-06-04T10:06:43.000Z</time>
      </trkpt>
      <trkpt lat="43.39520425535738468170166015625" lon="-5.6428274698555469512939453125">
        <ele>212.1999969482421875</ele>
        <time>2022-06-04T10:06:45.000Z</time>
      </trkpt>
      <trkpt lat="43.39526996947824954986572265625" lon="-5.6427674554288387298583984375">
        <ele>212.8000030517578125</ele>
        <time>2022-06-04T10:06:47.000Z</time>
      </trkpt>
      <trkpt lat="43.395402319729328155517578125" lon="-5.64261339604854583740234375">
        <ele>213.1999969482421875</ele>
        <time>2022-06-04T10:06:48.000Z</time>
      </trkpt>
      <trkpt lat="43.395402319729328155517578125" lon="-5.64261339604854583740234375">
        <ele>213.399993896484375</ele>
        <time>2022-06-04T10:06:49.000Z</time>
      </trkpt>
      <trkpt lat="43.39546577073633670806884765625" lon="-5.64251792617142200469970703125">
        <ele>213.399993896484375</ele>
        <time>2022-06-04T10:06:50.000Z</time>
      </trkpt>
      <trkpt lat="43.39558848179876804351806640625" lon="-5.64230267889797687530517578125">
        <ele>213.399993896484375</ele>
        <time>2022-06-04T10:06:51.000Z</time>
      </trkpt>
      <trkpt lat="43.39570934884250164031982421875" lon="-5.6420754455029964447021484375">
        <ele>213.399993896484375</ele>
        <time>2022-06-04T10:06:53.000Z</time>
      </trkpt>
      <trkpt lat="43.3957722969353199005126953125" lon="-5.64195759594440460205078125">
        <ele>213.399993896484375</ele>
        <time>2022-06-04T10:06:55.000Z</time>
      </trkpt>
      <trkpt lat="43.39600170962512493133544921875" lon="-5.641621649265289306640625">
        <ele>213.399993896484375</ele>
        <time>2022-06-04T10:06:57.000Z</time>
      </trkpt>
      <trkpt lat="43.39609458111226558685302734375" lon="-5.64153439365327358245849609375">
        <ele>213.399993896484375</ele>
        <time>2022-06-04T10:06:58.000Z</time>
      </trkpt>
      <trkpt lat="43.39609458111226558685302734375" lon="-5.64153439365327358245849609375">
        <ele>213</ele>
        <time>2022-06-04T10:06:59.000Z</time>
      </trkpt>
      <trkpt lat="43.39630790054798126220703125" lon="-5.6414149515330791473388671875">
        <ele>212.399993896484375</ele>
        <time>2022-06-04T10:07:00.000Z</time>
      </trkpt>
      <trkpt lat="43.39642013423144817352294921875" lon="-5.64137279056012630462646484375">
        <ele>211.600006103515625</ele>
        <time>2022-06-04T10:07:01.000Z</time>
      </trkpt>
      <trkpt lat="43.39642013423144817352294921875" lon="-5.64137279056012630462646484375">
        <ele>210.8000030517578125</ele>
        <time>2022-06-04T10:07:02.000Z</time>
      </trkpt>
      <trkpt lat="43.39664426632225513458251953125" lon="-5.64128813333809375762939453125">
        <ele>210.1999969482421875</ele>
        <time>2022-06-04T10:07:03.000Z</time>
      </trkpt>
      <trkpt lat="43.39675448834896087646484375" lon="-5.641234405338764190673828125">
        <ele>209.399993896484375</ele>
        <time>2022-06-04T10:07:04.000Z</time>
      </trkpt>
      <trkpt lat="43.39685917831957340240478515625" lon="-5.6411755643784999847412109375">
        <ele>208.600006103515625</ele>
        <time>2022-06-04T10:07:05.000Z</time>
      </trkpt>
      <trkpt lat="43.39696294628083705902099609375" lon="-5.64109937287867069244384765625">
        <ele>208</ele>
        <time>2022-06-04T10:07:06.000Z</time>
      </trkpt>
      <trkpt lat="43.39696294628083705902099609375" lon="-5.64109937287867069244384765625">
        <ele>206.600006103515625</ele>
        <time>2022-06-04T10:07:07.000Z</time>
      </trkpt>
      <trkpt lat="43.3970569074153900146484375" lon="-5.64100398682057857513427734375">
        <ele>206</ele>
        <time>2022-06-04T10:07:08.000Z</time>
      </trkpt>
      <trkpt lat="43.39717668481171131134033203125" lon="-5.64075772650539875030517578125">
        <ele>205.600006103515625</ele>
        <time>2022-06-04T10:07:09.000Z</time>
      </trkpt>
      <trkpt lat="43.39721473865211009979248046875" lon="-5.6406320817768573760986328125">
        <ele>205.399993896484375</ele>
        <time>2022-06-04T10:07:10.000Z</time>
      </trkpt>
      <trkpt lat="43.39721473865211009979248046875" lon="-5.6406320817768573760986328125">
        <ele>205.1999969482421875</ele>
        <time>2022-06-04T10:07:11.000Z</time>
      </trkpt>
      <trkpt lat="43.39723326265811920166015625" lon="-5.6403636932373046875">
        <ele>205.1999969482421875</ele>
        <time>2022-06-04T10:07:12.000Z</time>
      </trkpt>
      <trkpt lat="43.3972243778407573699951171875" lon="-5.640232600271701812744140625">
        <ele>205</ele>
        <time>2022-06-04T10:07:13.000Z</time>
      </trkpt>
      <trkpt lat="43.39721859432756900787353515625" lon="-5.63997250981628894805908203125">
        <ele>205</ele>
        <time>2022-06-04T10:07:15.000Z</time>
      </trkpt>
      <trkpt lat="43.39725329540669918060302734375" lon="-5.63972465693950653076171875">
        <ele>204.600006103515625</ele>
        <time>2022-06-04T10:07:17.000Z</time>
      </trkpt>
      <trkpt lat="43.39733920991420745849609375" lon="-5.63952357508242130279541015625">
        <ele>204.399993896484375</ele>
        <time>2022-06-04T10:07:19.000Z</time>
      </trkpt>
      <trkpt lat="43.39733920991420745849609375" lon="-5.63952357508242130279541015625">
        <ele>204.399993896484375</ele>
        <time>2022-06-04T10:07:20.000Z</time>
      </trkpt>
      <trkpt lat="43.39742814190685749053955078125" lon="-5.63935719430446624755859375">
        <ele>204</ele>
        <time>2022-06-04T10:07:21.000Z</time>
      </trkpt>
      <trkpt lat="43.39751112274825572967529296875" lon="-5.63920673914253711700439453125">
        <ele>204</ele>
        <time>2022-06-04T10:07:23.000Z</time>
      </trkpt>
      <trkpt lat="43.3975826203823089599609375" lon="-5.63908101059496402740478515625">
        <ele>204</ele>
        <time>2022-06-04T10:07:25.000Z</time>
      </trkpt>
      <trkpt lat="43.39764640666544437408447265625" lon="-5.6389711238443851470947265625">
        <ele>204</ele>
        <time>2022-06-04T10:07:27.000Z</time>
      </trkpt>
      <trkpt lat="43.3976977877318859100341796875" lon="-5.63886635005474090576171875">
        <ele>204</ele>
        <time>2022-06-04T10:07:29.000Z</time>
      </trkpt>
      <trkpt lat="43.3977477438747882843017578125" lon="-5.63876635394990444183349609375">
        <ele>204</ele>
        <time>2022-06-04T10:07:31.000Z</time>
      </trkpt>
      <trkpt lat="43.39777699671685695648193359375" lon="-5.638723857700824737548828125">
        <ele>204.600006103515625</ele>
        <time>2022-06-04T10:07:33.000Z</time>
      </trkpt>
      <trkpt lat="43.39784882962703704833984375" lon="-5.6385805271565914154052734375">
        <ele>205.8000030517578125</ele>
        <time>2022-06-04T10:07:35.000Z</time>
      </trkpt>
      <trkpt lat="43.39787431061267852783203125" lon="-5.63853107392787933349609375">
        <ele>206</ele>
        <time>2022-06-04T10:07:36.000Z</time>
      </trkpt>
      <trkpt lat="43.39790021069347858428955078125" lon="-5.6384849734604358673095703125">
        <ele>206.399993896484375</ele>
        <time>2022-06-04T10:07:37.000Z</time>
      </trkpt>
      <trkpt lat="43.39790021069347858428955078125" lon="-5.6384849734604358673095703125">
        <ele>206.8000030517578125</ele>
        <time>2022-06-04T10:07:38.000Z</time>
      </trkpt>
      <trkpt lat="43.39795284904539585113525390625" lon="-5.63839134760200977325439453125">
        <ele>207.1999969482421875</ele>
        <time>2022-06-04T10:07:39.000Z</time>
      </trkpt>
      <trkpt lat="43.39801252819597721099853515625" lon="-5.63830836676061153411865234375">
        <ele>208.1999969482421875</ele>
        <time>2022-06-04T10:07:41.000Z</time>
      </trkpt>
      <trkpt lat="43.39807505719363689422607421875" lon="-5.638234354555606842041015625">
        <ele>209</ele>
        <time>2022-06-04T10:07:43.000Z</time>
      </trkpt>
      <trkpt lat="43.39807505719363689422607421875" lon="-5.638234354555606842041015625">
        <ele>209.399993896484375</ele>
        <time>2022-06-04T10:07:44.000Z</time>
      </trkpt>
      <trkpt lat="43.39811227284371852874755859375" lon="-5.63819638453423976898193359375">
        <ele>210</ele>
        <time>2022-06-04T10:07:45.000Z</time>
      </trkpt>
      <trkpt lat="43.39819408021867275238037109375" lon="-5.638129413127899169921875">
        <ele>210.8000030517578125</ele>
        <time>2022-06-04T10:07:47.000Z</time>
      </trkpt>
      <trkpt lat="43.398321568965911865234375" lon="-5.638027489185333251953125">
        <ele>211.399993896484375</ele>
        <time>2022-06-04T10:07:49.000Z</time>
      </trkpt>
      <trkpt lat="43.3984095789492130279541015625" lon="-5.6379579193890094757080078125">
        <ele>212</ele>
        <time>2022-06-04T10:07:51.000Z</time>
      </trkpt>
      <trkpt lat="43.39849884621798992156982421875" lon="-5.63788273371756076812744140625">
        <ele>212.1999969482421875</ele>
        <time>2022-06-04T10:07:53.000Z</time>
      </trkpt>
      <trkpt lat="43.39854377321898937225341796875" lon="-5.6378412432968616485595703125">
        <ele>212.1999969482421875</ele>
        <time>2022-06-04T10:07:55.000Z</time>
      </trkpt>
      <trkpt lat="43.39863295666873455047607421875" lon="-5.6377587653696537017822265625">
        <ele>212.399993896484375</ele>
        <time>2022-06-04T10:07:57.000Z</time>
      </trkpt>
      <trkpt lat="43.398714177310466766357421875" lon="-5.63767134211957454681396484375">
        <ele>212.399993896484375</ele>
        <time>2022-06-04T10:07:58.000Z</time>
      </trkpt>
      <trkpt lat="43.3987512253224849700927734375" lon="-5.637625157833099365234375">
        <ele>212.399993896484375</ele>
        <time>2022-06-04T10:07:59.000Z</time>
      </trkpt>
      <trkpt lat="43.39878601022064685821533203125" lon="-5.6375814042985439300537109375">
        <ele>212.399993896484375</ele>
        <time>2022-06-04T10:08:01.000Z</time>
      </trkpt>
      <trkpt lat="43.39885222725570201873779296875" lon="-5.63749884255230426788330078125">
        <ele>212.399993896484375</ele>
        <time>2022-06-04T10:08:03.000Z</time>
      </trkpt>
      <trkpt lat="43.3989195339381694793701171875" lon="-5.63742742873728275299072265625">
        <ele>212.600006103515625</ele>
        <time>2022-06-04T10:08:04.000Z</time>
      </trkpt>
      <trkpt lat="43.3989587612450122833251953125" lon="-5.63739691860973834991455078125">
        <ele>212.600006103515625</ele>
        <time>2022-06-04T10:08:05.000Z</time>
      </trkpt>
      <trkpt lat="43.39900108985602855682373046875" lon="-5.63737009651958942413330078125">
        <ele>212.600006103515625</ele>
        <time>2022-06-04T10:08:06.000Z</time>
      </trkpt>
      <trkpt lat="43.39900108985602855682373046875" lon="-5.63737009651958942413330078125">
        <ele>212.600006103515625</ele>
        <time>2022-06-04T10:08:07.000Z</time>
      </trkpt>
      <trkpt lat="43.39914307929575443267822265625" lon="-5.6373071484267711639404296875">
        <ele>212.8000030517578125</ele>
        <time>2022-06-04T10:08:09.000Z</time>
      </trkpt>
      <trkpt lat="43.3991961367428302764892578125" lon="-5.6372944079339504241943359375">
        <ele>212.8000030517578125</ele>
        <time>2022-06-04T10:08:11.000Z</time>
      </trkpt>
      <trkpt lat="43.39931063354015350341796875" lon="-5.63727873377501964569091796875">
        <ele>212.8000030517578125</ele>
        <time>2022-06-04T10:08:12.000Z</time>
      </trkpt>
      <trkpt lat="43.3993721567094326019287109375" lon="-5.63727387227118015289306640625">
        <ele>212.8000030517578125</ele>
        <time>2022-06-04T10:08:13.000Z</time>
      </trkpt>
      <trkpt lat="43.39944046922028064727783203125" lon="-5.63726364634931087493896484375">
        <ele>212.8000030517578125</ele>
        <time>2022-06-04T10:08:15.000Z</time>
      </trkpt>
      <trkpt lat="43.39956410229206085205078125" lon="-5.6371757201850414276123046875">
        <ele>212.8000030517578125</ele>
        <time>2022-06-04T10:08:16.000Z</time>
      </trkpt>
      <trkpt lat="43.399596624076366424560546875" lon="-5.63709097914397716522216796875">
        <ele>212.600006103515625</ele>
        <time>2022-06-04T10:08:17.000Z</time>
      </trkpt>
      <trkpt lat="43.3996058441698551177978515625" lon="-5.63699257560074329376220703125">
        <ele>212.600006103515625</ele>
        <time>2022-06-04T10:08:18.000Z</time>
      </trkpt>
      <trkpt lat="43.3996058441698551177978515625" lon="-5.63699257560074329376220703125">
        <ele>212.399993896484375</ele>
        <time>2022-06-04T10:08:19.000Z</time>
      </trkpt>
      <trkpt lat="43.39959905482828617095947265625" lon="-5.63689266331493854522705078125">
        <ele>212.1999969482421875</ele>
        <time>2022-06-04T10:08:20.000Z</time>
      </trkpt>
      <trkpt lat="43.39956200681626796722412109375" lon="-5.63670256175100803375244140625">
        <ele>212</ele>
        <time>2022-06-04T10:08:21.000Z</time>
      </trkpt>
      <trkpt lat="43.3995404653251171112060546875" lon="-5.63661270774900913238525390625">
        <ele>211.8000030517578125</ele>
        <time>2022-06-04T10:08:22.000Z</time>
      </trkpt>
      <trkpt lat="43.39951875619590282440185546875" lon="-5.636526457965373992919921875">
        <ele>211.600006103515625</ele>
        <time>2022-06-04T10:08:23.000Z</time>
      </trkpt>
      <trkpt lat="43.39948497712612152099609375" lon="-5.6363666988909244537353515625">
        <ele>211.1999969482421875</ele>
        <time>2022-06-04T10:08:25.000Z</time>
      </trkpt>
      <trkpt lat="43.3994628489017486572265625" lon="-5.63621456734836101531982421875">
        <ele>211</ele>
        <time>2022-06-04T10:08:27.000Z</time>
      </trkpt>
      <trkpt lat="43.3994615077972412109375" lon="-5.6361378729343414306640625">
        <ele>211</ele>
        <time>2022-06-04T10:08:28.000Z</time>
      </trkpt>
      <trkpt lat="43.39946796186268329620361328125" lon="-5.63606134615838527679443359375">
        <ele>211</ele>
        <time>2022-06-04T10:08:29.000Z</time>
      </trkpt>
      <trkpt lat="43.3994811214506626129150390625" lon="-5.6359878368675708770751953125">
        <ele>211</ele>
        <time>2022-06-04T10:08:31.000Z</time>
      </trkpt>
      <trkpt lat="43.3995005674660205841064453125" lon="-5.63592036254703998565673828125">
        <ele>211</ele>
        <time>2022-06-04T10:08:32.000Z</time>
      </trkpt>
      <trkpt lat="43.3995488472282886505126953125" lon="-5.6358034349977970123291015625">
        <ele>211</ele>
        <time>2022-06-04T10:08:33.000Z</time>
      </trkpt>
      <trkpt lat="43.39960257522761821746826171875" lon="-5.6357132457196712493896484375">
        <ele>211.1999969482421875</ele>
        <time>2022-06-04T10:08:35.000Z</time>
      </trkpt>
      <trkpt lat="43.39963140897452831268310546875" lon="-5.635677874088287353515625">
        <ele>211.1999969482421875</ele>
        <time>2022-06-04T10:08:36.000Z</time>
      </trkpt>
      <trkpt lat="43.39966158382594585418701171875" lon="-5.6356428377330303192138671875">
        <ele>211.399993896484375</ele>
        <time>2022-06-04T10:08:37.000Z</time>
      </trkpt>
      <trkpt lat="43.39972503483295440673828125" lon="-5.63558332622051239013671875">
        <ele>211.600006103515625</ele>
        <time>2022-06-04T10:08:39.000Z</time>
      </trkpt>
      <trkpt lat="43.39979611337184906005859375" lon="-5.63554175198078155517578125">
        <ele>212</ele>
        <time>2022-06-04T10:08:41.000Z</time>
      </trkpt>
      <trkpt lat="43.3998318202793598175048828125" lon="-5.6355275027453899383544921875">
        <ele>212</ele>
        <time>2022-06-04T10:08:42.000Z</time>
      </trkpt>
      <trkpt lat="43.3998318202793598175048828125" lon="-5.6355275027453899383544921875">
        <ele>212.399993896484375</ele>
        <time>2022-06-04T10:08:43.000Z</time>
      </trkpt>
      <trkpt lat="43.39995302259922027587890625" lon="-5.6355120800435543060302734375">
        <ele>212.8000030517578125</ele>
        <time>2022-06-04T10:08:45.000Z</time>
      </trkpt>
      <trkpt lat="43.400031812489032745361328125" lon="-5.635501183569431304931640625">
        <ele>213.1999969482421875</ele>
        <time>2022-06-04T10:08:47.000Z</time>
      </trkpt>
      <trkpt lat="43.40011001564562320709228515625" lon="-5.6354872696101665496826171875">
        <ele>213.8000030517578125</ele>
        <time>2022-06-04T10:08:49.000Z</time>
      </trkpt>
      <trkpt lat="43.40011001564562320709228515625" lon="-5.6354872696101665496826171875">
        <ele>213.8000030517578125</ele>
        <time>2022-06-04T10:08:50.000Z</time>
      </trkpt>
      <trkpt lat="43.4001872129738330841064453125" lon="-5.63547327183187007904052734375">
        <ele>214</ele>
        <time>2022-06-04T10:08:51.000Z</time>
      </trkpt>
      <trkpt lat="43.40027027763426303863525390625" lon="-5.6354517303407192230224609375">
        <ele>214.399993896484375</ele>
        <time>2022-06-04T10:08:53.000Z</time>
      </trkpt>
      <trkpt lat="43.40031269006431102752685546875" lon="-5.6354378163814544677734375">
        <ele>214.8000030517578125</ele>
        <time>2022-06-04T10:08:55.000Z</time>
      </trkpt>
      <trkpt lat="43.400354683399200439453125" lon="-5.63542348332703113555908203125">
        <ele>215.1999969482421875</ele>
        <time>2022-06-04T10:08:56.000Z</time>
      </trkpt>
      <trkpt lat="43.40039600618183612823486328125" lon="-5.6354098208248615264892578125">
        <ele>215.399993896484375</ele>
        <time>2022-06-04T10:08:57.000Z</time>
      </trkpt>
      <trkpt lat="43.4004775620996952056884765625" lon="-5.63538014888763427734375">
        <ele>215.600006103515625</ele>
        <time>2022-06-04T10:08:58.000Z</time>
      </trkpt>
      <trkpt lat="43.4004775620996952056884765625" lon="-5.63538014888763427734375">
        <ele>215.8000030517578125</ele>
        <time>2022-06-04T10:08:59.000Z</time>
      </trkpt>
      <trkpt lat="43.4005556814372539520263671875" lon="-5.63533681444823741912841796875">
        <ele>216</ele>
        <time>2022-06-04T10:09:00.000Z</time>
      </trkpt>
      <trkpt lat="43.4005556814372539520263671875" lon="-5.63533681444823741912841796875">
        <ele>216.1999969482421875</ele>
        <time>2022-06-04T10:09:01.000Z</time>
      </trkpt>
      <trkpt lat="43.40059231035411357879638671875" lon="-5.63530881889164447784423828125">
        <ele>216.1999969482421875</ele>
        <time>2022-06-04T10:09:02.000Z</time>
      </trkpt>
      <trkpt lat="43.40065400116145610809326171875" lon="-5.63523220829665660858154296875">
        <ele>216.1999969482421875</ele>
        <time>2022-06-04T10:09:03.000Z</time>
      </trkpt>
      <trkpt lat="43.40067830868065357208251953125" lon="-5.63518728129565715789794921875">
        <ele>216.399993896484375</ele>
        <time>2022-06-04T10:09:04.000Z</time>
      </trkpt>
      <trkpt lat="43.4006971679627895355224609375" lon="-5.63513983972370624542236328125">
        <ele>216.600006103515625</ele>
        <time>2022-06-04T10:09:05.000Z</time>
      </trkpt>
      <trkpt lat="43.4007249958813190460205078125" lon="-5.63503657467663288116455078125">
        <ele>216.600006103515625</ele>
        <time>2022-06-04T10:09:07.000Z</time>
      </trkpt>
      <trkpt lat="43.4007249958813190460205078125" lon="-5.63503657467663288116455078125">
        <ele>216.8000030517578125</ele>
        <time>2022-06-04T10:09:08.000Z</time>
      </trkpt>
      <trkpt lat="43.400746621191501617431640625" lon="-5.6349229998886585235595703125">
        <ele>216.8000030517578125</ele>
        <time>2022-06-04T10:09:09.000Z</time>
      </trkpt>
      <trkpt lat="43.40075659565627574920654296875" lon="-5.634862817823886871337890625">
        <ele>217</ele>
        <time>2022-06-04T10:09:10.000Z</time>
      </trkpt>
      <trkpt lat="43.40076849795877933502197265625" lon="-5.6348039768636226654052734375">
        <ele>217</ele>
        <time>2022-06-04T10:09:11.000Z</time>
      </trkpt>
      <trkpt lat="43.40078442357480525970458984375" lon="-5.6347486563026905059814453125">
        <ele>217.1999969482421875</ele>
        <time>2022-06-04T10:09:13.000Z</time>
      </trkpt>
      <trkpt lat="43.40084074996411800384521484375" lon="-5.6345930881798267364501953125">
        <ele>217.1999969482421875</ele>
        <time>2022-06-04T10:09:15.000Z</time>
      </trkpt>
      <trkpt lat="43.40086271055042743682861328125" lon="-5.63453986309468746185302734375">
        <ele>217.399993896484375</ele>
        <time>2022-06-04T10:09:16.000Z</time>
      </trkpt>
      <trkpt lat="43.40088643133640289306640625" lon="-5.63448437489569187164306640625">
        <ele>217.399993896484375</ele>
        <time>2022-06-04T10:09:17.000Z</time>
      </trkpt>
      <trkpt lat="43.40094166807830333709716796875" lon="-5.6343681178987026214599609375">
        <ele>217.600006103515625</ele>
        <time>2022-06-04T10:09:19.000Z</time>
      </trkpt>
      <trkpt lat="43.40100486762821674346923828125" lon="-5.634248591959476470947265625">
        <ele>217.600006103515625</ele>
        <time>2022-06-04T10:09:21.000Z</time>
      </trkpt>
      <trkpt lat="43.40103856287896633148193359375" lon="-5.63418748788535594940185546875">
        <ele>217.600006103515625</ele>
        <time>2022-06-04T10:09:22.000Z</time>
      </trkpt>
      <trkpt lat="43.40107359923422336578369140625" lon="-5.6341257132589817047119140625">
        <ele>217.600006103515625</ele>
        <time>2022-06-04T10:09:23.000Z</time>
      </trkpt>
      <trkpt lat="43.401146940886974334716796875" lon="-5.6340046785771846771240234375">
        <ele>217.600006103515625</ele>
        <time>2022-06-04T10:09:25.000Z</time>
      </trkpt>
      <trkpt lat="43.40122045017778873443603515625" lon="-5.6338910199701786041259765625">
        <ele>217.600006103515625</ele>
        <time>2022-06-04T10:09:27.000Z</time>
      </trkpt>
      <trkpt lat="43.40129077434539794921875" lon="-5.63377912156283855438232421875">
        <ele>217.600006103515625</ele>
        <time>2022-06-04T10:09:29.000Z</time>
      </trkpt>
      <trkpt lat="43.40136118233203887939453125" lon="-5.63366529531776905059814453125">
        <ele>217.600006103515625</ele>
        <time>2022-06-04T10:09:31.000Z</time>
      </trkpt>
      <trkpt lat="43.40143821202218532562255859375" lon="-5.63355599530041217803955078125">
        <ele>217.600006103515625</ele>
        <time>2022-06-04T10:09:33.000Z</time>
      </trkpt>
      <trkpt lat="43.4015229530632495880126953125" lon="-5.63345021568238735198974609375">
        <ele>217.600006103515625</ele>
        <time>2022-06-04T10:09:35.000Z</time>
      </trkpt>
      <trkpt lat="43.40156813152134418487548828125" lon="-5.6333998404443264007568359375">
        <ele>217.600006103515625</ele>
        <time>2022-06-04T10:09:37.000Z</time>
      </trkpt>
      <trkpt lat="43.4016590751707553863525390625" lon="-5.6333016045391559600830078125">
        <ele>217.600006103515625</ele>
        <time>2022-06-04T10:09:39.000Z</time>
      </trkpt>
      <trkpt lat="43.4017435647547245025634765625" lon="-5.6331966631114482879638671875">
        <ele>217.600006103515625</ele>
        <time>2022-06-04T10:09:40.000Z</time>
      </trkpt>
      <trkpt lat="43.4017824567854404449462890625" lon="-5.633140169084072113037109375">
        <ele>217.600006103515625</ele>
        <time>2022-06-04T10:09:41.000Z</time>
      </trkpt>
      <trkpt lat="43.40181841515004634857177734375" lon="-5.633080489933490753173828125">
        <ele>217.8000030517578125</ele>
        <time>2022-06-04T10:09:43.000Z</time>
      </trkpt>
      <trkpt lat="43.40185060165822505950927734375" lon="-5.633018128573894500732421875">
        <ele>217.8000030517578125</ele>
        <time>2022-06-04T10:09:44.000Z</time>
      </trkpt>
      <trkpt lat="43.40188044123351573944091796875" lon="-5.6329532526433467864990234375">
        <ele>217.8000030517578125</ele>
        <time>2022-06-04T10:09:45.000Z</time>
      </trkpt>
      <trkpt lat="43.40193525888025760650634765625" lon="-5.63281386159360408782958984375">
        <ele>218</ele>
        <time>2022-06-04T10:09:46.000Z</time>
      </trkpt>
      <trkpt lat="43.40196258388459682464599609375" lon="-5.6327423639595508575439453125">
        <ele>218</ele>
        <time>2022-06-04T10:09:47.000Z</time>
      </trkpt>
      <trkpt lat="43.40201698243618011474609375" lon="-5.63259526155889034271240234375">
        <ele>218.1999969482421875</ele>
        <time>2022-06-04T10:09:49.000Z</time>
      </trkpt>
      <trkpt lat="43.40206836350262165069580078125" lon="-5.63244170509278774261474609375">
        <ele>218.1999969482421875</ele>
        <time>2022-06-04T10:09:51.000Z</time>
      </trkpt>
      <trkpt lat="43.4021220915019512176513671875" lon="-5.63228580169379711151123046875">
        <ele>218.1999969482421875</ele>
        <time>2022-06-04T10:09:53.000Z</time>
      </trkpt>
      <trkpt lat="43.40218084864318370819091796875" lon="-5.63212436623871326446533203125">
        <ele>218.1999969482421875</ele>
        <time>2022-06-04T10:09:55.000Z</time>
      </trkpt>
      <trkpt lat="43.4022129513323307037353515625" lon="-5.63204121775925159454345703125">
        <ele>218.1999969482421875</ele>
        <time>2022-06-04T10:09:57.000Z</time>
      </trkpt>
      <trkpt lat="43.40229584835469722747802734375" lon="-5.63188179396092891693115234375">
        <ele>218.1999969482421875</ele>
        <time>2022-06-04T10:09:58.000Z</time>
      </trkpt>
      <trkpt lat="43.4023520909249782562255859375" lon="-5.6318146549165248870849609375">
        <ele>218</ele>
        <time>2022-06-04T10:09:59.000Z</time>
      </trkpt>
      <trkpt lat="43.40248771011829376220703125" lon="-5.63170946203172206878662109375">
        <ele>217.8000030517578125</ele>
        <time>2022-06-04T10:10:01.000Z</time>
      </trkpt>
      <trkpt lat="43.40248771011829376220703125" lon="-5.63170946203172206878662109375">
        <ele>217.600006103515625</ele>
        <time>2022-06-04T10:10:02.000Z</time>
      </trkpt>
      <trkpt lat="43.40263481251895427703857421875" lon="-5.63162438571453094482421875">
        <ele>217.399993896484375</ele>
        <time>2022-06-04T10:10:03.000Z</time>
      </trkpt>
      <trkpt lat="43.4027048014104366302490234375" lon="-5.63157568685710430145263671875">
        <ele>217.399993896484375</ele>
        <time>2022-06-04T10:10:04.000Z</time>
      </trkpt>
      <trkpt lat="43.4027700126171112060546875" lon="-5.6315226294100284576416015625">
        <ele>217.1999969482421875</ele>
        <time>2022-06-04T10:10:05.000Z</time>
      </trkpt>
      <trkpt lat="43.40283078141510486602783203125" lon="-5.6314646266400814056396484375">
        <ele>217</ele>
        <time>2022-06-04T10:10:06.000Z</time>
      </trkpt>
      <trkpt lat="43.402884341776371002197265625" lon="-5.63140176236629486083984375">
        <ele>216.8000030517578125</ele>
        <time>2022-06-04T10:10:07.000Z</time>
      </trkpt>
      <trkpt lat="43.40297763235867023468017578125" lon="-5.6312798894941806793212890625">
        <ele>216.600006103515625</ele>
        <time>2022-06-04T10:10:09.000Z</time>
      </trkpt>
      <trkpt lat="43.4030605293810367584228515625" lon="-5.6311655603349208831787109375">
        <ele>216.600006103515625</ele>
        <time>2022-06-04T10:10:11.000Z</time>
      </trkpt>
      <trkpt lat="43.4031346254050731658935546875" lon="-5.63105818815529346466064453125">
        <ele>216.600006103515625</ele>
        <time>2022-06-04T10:10:13.000Z</time>
      </trkpt>
      <trkpt lat="43.403199501335620880126953125" lon="-5.63095257617533206939697265625">
        <ele>216.600006103515625</ele>
        <time>2022-06-04T10:10:15.000Z</time>
      </trkpt>
      <trkpt lat="43.40326060540974140167236328125" lon="-5.63084092922508716583251953125">
        <ele>216.600006103515625</ele>
        <time>2022-06-04T10:10:17.000Z</time>
      </trkpt>
      <trkpt lat="43.40331726707518100738525390625" lon="-5.63071888871490955352783203125">
        <ele>216.8000030517578125</ele>
        <time>2022-06-04T10:10:19.000Z</time>
      </trkpt>
      <trkpt lat="43.40333939529955387115478515625" lon="-5.63065267167985439300537109375">
        <ele>217.1999969482421875</ele>
        <time>2022-06-04T10:10:20.000Z</time>
      </trkpt>
      <trkpt lat="43.40335808694362640380859375" lon="-5.63058410771191120147705078125">
        <ele>217.399993896484375</ele>
        <time>2022-06-04T10:10:21.000Z</time>
      </trkpt>
      <trkpt lat="43.40338759124279022216796875" lon="-5.63043541274964809417724609375">
        <ele>217.8000030517578125</ele>
        <time>2022-06-04T10:10:23.000Z</time>
      </trkpt>
      <trkpt lat="43.4033998288214206695556640625" lon="-5.63035796396434307098388671875">
        <ele>217.8000030517578125</ele>
        <time>2022-06-04T10:10:24.000Z</time>
      </trkpt>
      <trkpt lat="43.4034110605716705322265625" lon="-5.63027967698872089385986328125">
        <ele>218</ele>
        <time>2022-06-04T10:10:25.000Z</time>
      </trkpt>
      <trkpt lat="43.4034110605716705322265625" lon="-5.63027967698872089385986328125">
        <ele>218</ele>
        <time>2022-06-04T10:10:26.000Z</time>
      </trkpt>
      <trkpt lat="43.4034326858818531036376953125" lon="-5.63012125901877880096435546875">
        <ele>218</ele>
        <time>2022-06-04T10:10:27.000Z</time>
      </trkpt>
      <trkpt lat="43.4034507907927036285400390625" lon="-5.62996485270559787750244140625">
        <ele>218.1999969482421875</ele>
        <time>2022-06-04T10:10:29.000Z</time>
      </trkpt>
      <trkpt lat="43.40346763841807842254638671875" lon="-5.6298046745359897613525390625">
        <ele>218.1999969482421875</ele>
        <time>2022-06-04T10:10:31.000Z</time>
      </trkpt>
      <trkpt lat="43.40347669087350368499755859375" lon="-5.62963812611997127532958984375">
        <ele>218.1999969482421875</ele>
        <time>2022-06-04T10:10:33.000Z</time>
      </trkpt>
      <trkpt lat="43.40347769670188426971435546875" lon="-5.62955162487924098968505859375">
        <ele>218.1999969482421875</ele>
        <time>2022-06-04T10:10:34.000Z</time>
      </trkpt>
      <trkpt lat="43.40347803197801113128662109375" lon="-5.62946495600044727325439453125">
        <ele>218.1999969482421875</ele>
        <time>2022-06-04T10:10:35.000Z</time>
      </trkpt>
      <trkpt lat="43.40347048826515674591064453125" lon="-5.62929346226155757904052734375">
        <ele>218.1999969482421875</ele>
        <time>2022-06-04T10:10:37.000Z</time>
      </trkpt>
      <trkpt lat="43.40346026234328746795654296875" lon="-5.62912800349295139312744140625">
        <ele>218.1999969482421875</ele>
        <time>2022-06-04T10:10:39.000Z</time>
      </trkpt>
      <trkpt lat="43.4034591726958751678466796875" lon="-5.62897075898945331573486328125">
        <ele>218.1999969482421875</ele>
        <time>2022-06-04T10:10:41.000Z</time>
      </trkpt>
      <trkpt lat="43.4034620225429534912109375" lon="-5.62882156111299991607666015625">
        <ele>218.399993896484375</ele>
        <time>2022-06-04T10:10:43.000Z</time>
      </trkpt>
      <trkpt lat="43.40346596203744411468505859375" lon="-5.62867772765457630157470703125">
        <ele>218.399993896484375</ele>
        <time>2022-06-04T10:10:45.000Z</time>
      </trkpt>
      <trkpt lat="43.40347568504512310028076171875" lon="-5.62853691168129444122314453125">
        <ele>218.399993896484375</ele>
        <time>2022-06-04T10:10:47.000Z</time>
      </trkpt>
      <trkpt lat="43.403485156595706939697265625" lon="-5.6284716166555881500244140625">
        <ele>218.399993896484375</ele>
        <time>2022-06-04T10:10:48.000Z</time>
      </trkpt>
      <trkpt lat="43.40349295176565647125244140625" lon="-5.6284085847437381744384765625">
        <ele>218.600006103515625</ele>
        <time>2022-06-04T10:10:49.000Z</time>
      </trkpt>
      <trkpt lat="43.4035103023052215576171875" lon="-5.6282888911664485931396484375">
        <ele>219</ele>
        <time>2022-06-04T10:10:51.000Z</time>
      </trkpt>
      <trkpt lat="43.40352916158735752105712890625" lon="-5.62823248095810413360595703125">
        <ele>219.1999969482421875</ele>
        <time>2022-06-04T10:10:52.000Z</time>
      </trkpt>
      <trkpt lat="43.4035496972501277923583984375" lon="-5.62817774713039398193359375">
        <ele>219.399993896484375</ele>
        <time>2022-06-04T10:10:53.000Z</time>
      </trkpt>
      <trkpt lat="43.40356905944645404815673828125" lon="-5.62812485732138156890869140625">
        <ele>219.8000030517578125</ele>
        <time>2022-06-04T10:10:54.000Z</time>
      </trkpt>
      <trkpt lat="43.40358381159603595733642578125" lon="-5.62806970439851284027099609375">
        <ele>220.1999969482421875</ele>
        <time>2022-06-04T10:10:55.000Z</time>
      </trkpt>
      <trkpt lat="43.4036122262477874755859375" lon="-5.62795336358249187469482421875">
        <ele>221</ele>
        <time>2022-06-04T10:10:57.000Z</time>
      </trkpt>
      <trkpt lat="43.40363494120538234710693359375" lon="-5.6278962828218936920166015625">
        <ele>221.399993896484375</ele>
        <time>2022-06-04T10:10:58.000Z</time>
      </trkpt>
      <trkpt lat="43.4036605060100555419921875" lon="-5.62783903442323207855224609375">
        <ele>221.8000030517578125</ele>
        <time>2022-06-04T10:10:59.000Z</time>
      </trkpt>
      <trkpt lat="43.40371884405612945556640625" lon="-5.62774348072707653045654296875">
        <ele>222.8000030517578125</ele>
        <time>2022-06-04T10:11:01.000Z</time>
      </trkpt>
      <trkpt lat="43.403772823512554168701171875" lon="-5.627651028335094451904296875">
        <ele>223.600006103515625</ele>
        <time>2022-06-04T10:11:03.000Z</time>
      </trkpt>
      <trkpt lat="43.4037984721362590789794921875" lon="-5.62760300002992153167724609375">
        <ele>223.600006103515625</ele>
        <time>2022-06-04T10:11:04.000Z</time>
      </trkpt>
      <trkpt lat="43.403823785483837127685546875" lon="-5.62755354680120944976806640625">
        <ele>224</ele>
        <time>2022-06-04T10:11:05.000Z</time>
      </trkpt>
      <trkpt lat="43.40384918265044689178466796875" lon="-5.627501495182514190673828125">
        <ele>223.8000030517578125</ele>
        <time>2022-06-04T10:11:07.000Z</time>
      </trkpt>
      <trkpt lat="43.40391472913324832916259765625" lon="-5.62734031118452548980712890625">
        <ele>224</ele>
        <time>2022-06-04T10:11:09.000Z</time>
      </trkpt>
      <trkpt lat="43.40394389815628528594970703125" lon="-5.627221874892711639404296875">
        <ele>224.1999969482421875</ele>
        <time>2022-06-04T10:11:11.000Z</time>
      </trkpt>
      <trkpt lat="43.40394909493625164031982421875" lon="-5.627156160771846771240234375">
        <ele>224.8000030517578125</ele>
        <time>2022-06-04T10:11:13.000Z</time>
      </trkpt>
      <trkpt lat="43.4039520286023616790771484375" lon="-5.62694795429706573486328125">
        <ele>225</ele>
        <time>2022-06-04T10:11:15.000Z</time>
      </trkpt>
      <trkpt lat="43.40395060367882251739501953125" lon="-5.62679448164999485015869140625">
        <ele>225</ele>
        <time>2022-06-04T10:11:17.000Z</time>
      </trkpt>
      <trkpt lat="43.4039582312107086181640625" lon="-5.6266343034803867340087890625">
        <ele>225</ele>
        <time>2022-06-04T10:11:19.000Z</time>
      </trkpt>
      <trkpt lat="43.4039738215506076812744140625" lon="-5.62646607868373394012451171875">
        <ele>225</ele>
        <time>2022-06-04T10:11:21.000Z</time>
      </trkpt>
      <trkpt lat="43.4039919264614582061767578125" lon="-5.62629106454551219940185546875">
        <ele>225</ele>
        <time>2022-06-04T10:11:23.000Z</time>
      </trkpt>
      <trkpt lat="43.404002152383327484130859375" lon="-5.62619827687740325927734375">
        <ele>225</ele>
        <time>2022-06-04T10:11:24.000Z</time>
      </trkpt>
      <trkpt lat="43.404002152383327484130859375" lon="-5.62619827687740325927734375">
        <ele>225</ele>
        <time>2022-06-04T10:11:25.000Z</time>
      </trkpt>
      <trkpt lat="43.404023610055446624755859375" lon="-5.6260018050670623779296875">
        <ele>225</ele>
        <time>2022-06-04T10:11:27.000Z</time>
      </trkpt>
      <trkpt lat="43.40404163114726543426513671875" lon="-5.6257967837154865264892578125">
        <ele>224.8000030517578125</ele>
        <time>2022-06-04T10:11:29.000Z</time>
      </trkpt>
      <trkpt lat="43.4040596522390842437744140625" lon="-5.62559209764003753662109375">
        <ele>224.1999969482421875</ele>
        <time>2022-06-04T10:11:31.000Z</time>
      </trkpt>
      <trkpt lat="43.40407867915928363800048828125" lon="-5.62533100135624408721923828125">
        <ele>224</ele>
        <time>2022-06-04T10:11:33.000Z</time>
      </trkpt>
      <trkpt lat="43.404091335833072662353515625" lon="-5.62518398277461528778076171875">
        <ele>223.600006103515625</ele>
        <time>2022-06-04T10:11:35.000Z</time>
      </trkpt>
      <trkpt lat="43.40409996919333934783935546875" lon="-5.625107288360595703125">
        <ele>223.399993896484375</ele>
        <time>2022-06-04T10:11:37.000Z</time>
      </trkpt>
      <trkpt lat="43.40412226505577564239501953125" lon="-5.624858178198337554931640625">
        <ele>223.1999969482421875</ele>
        <time>2022-06-04T10:11:39.000Z</time>
      </trkpt>
      <trkpt lat="43.404130898416042327880859375" lon="-5.6247706711292266845703125">
        <ele>223.1999969482421875</ele>
        <time>2022-06-04T10:11:40.000Z</time>
      </trkpt>
      <trkpt lat="43.404130898416042327880859375" lon="-5.6247706711292266845703125">
        <ele>222.8000030517578125</ele>
        <time>2022-06-04T10:11:41.000Z</time>
      </trkpt>
      <trkpt lat="43.40414606966078281402587890625" lon="-5.62459071166813373565673828125">
        <ele>222.600006103515625</ele>
        <time>2022-06-04T10:11:42.000Z</time>
      </trkpt>
      <trkpt lat="43.40415378101170063018798828125" lon="-5.62450001947581768035888671875">
        <ele>222.600006103515625</ele>
        <time>2022-06-04T10:11:43.000Z</time>
      </trkpt>
      <trkpt lat="43.40415612794458866119384765625" lon="-5.624409578740596771240234375">
        <ele>222.600006103515625</ele>
        <time>2022-06-04T10:11:45.000Z</time>
      </trkpt>
      <trkpt lat="43.40415202081203460693359375" lon="-5.62422777526080608367919921875">
        <ele>222.600006103515625</ele>
        <time>2022-06-04T10:11:47.000Z</time>
      </trkpt>
      <trkpt lat="43.4041245281696319580078125" lon="-5.62404940836131572723388671875">
        <ele>222.600006103515625</ele>
        <time>2022-06-04T10:11:48.000Z</time>
      </trkpt>
      <trkpt lat="43.4041245281696319580078125" lon="-5.62404940836131572723388671875">
        <ele>222.600006103515625</ele>
        <time>2022-06-04T10:11:49.000Z</time>
      </trkpt>
      <trkpt lat="43.40407499112188816070556640625" lon="-5.62379526905715465545654296875">
        <ele>222.600006103515625</ele>
        <time>2022-06-04T10:11:51.000Z</time>
      </trkpt>
      <trkpt lat="43.40406258590519428253173828125" lon="-5.623718239367008209228515625">
        <ele>222.600006103515625</ele>
        <time>2022-06-04T10:11:53.000Z</time>
      </trkpt>
      <trkpt lat="43.4040288068354129791259765625" lon="-5.623546577990055084228515625">
        <ele>222.8000030517578125</ele>
        <time>2022-06-04T10:11:55.000Z</time>
      </trkpt>
      <trkpt lat="43.404018580913543701171875" lon="-5.623499639332294464111328125">
        <ele>222.8000030517578125</ele>
        <time>2022-06-04T10:11:57.000Z</time>
      </trkpt>
      <trkpt lat="43.40401648543775081634521484375" lon="-5.6234156526625156402587890625">
        <ele>223</ele>
        <time>2022-06-04T10:11:58.000Z</time>
      </trkpt>
      <trkpt lat="43.40401648543775081634521484375" lon="-5.6234156526625156402587890625">
        <ele>223</ele>
        <time>2022-06-04T10:11:59.000Z</time>
      </trkpt>
      <trkpt lat="43.4040378592908382415771484375" lon="-5.62341825105249881744384765625">
        <ele>223</ele>
        <time>2022-06-04T10:12:00.000Z</time>
      </trkpt>
      <trkpt lat="43.4040378592908382415771484375" lon="-5.62341825105249881744384765625">
        <ele>223</ele>
        <time>2022-06-04T10:12:01.000Z</time>
      </trkpt>
      <trkpt lat="43.40405437164008617401123046875" lon="-5.6235088594257831573486328125">
        <ele>223.1999969482421875</ele>
        <time>2022-06-04T10:12:03.000Z</time>
      </trkpt>
      <trkpt lat="43.404082618653774261474609375" lon="-5.623632408678531646728515625">
        <ele>223.1999969482421875</ele>
        <time>2022-06-04T10:12:04.000Z</time>
      </trkpt>
      <trkpt lat="43.4040965326130390167236328125" lon="-5.6236977875232696533203125">
        <ele>223.1999969482421875</ele>
        <time>2022-06-04T10:12:05.000Z</time>
      </trkpt>
      <trkpt lat="43.40412695892155170440673828125" lon="-5.62383525073528289794921875">
        <ele>223.1999969482421875</ele>
        <time>2022-06-04T10:12:07.000Z</time>
      </trkpt>
      <trkpt lat="43.4041431359946727752685546875" lon="-5.623907335102558135986328125">
        <ele>223.1999969482421875</ele>
        <time>2022-06-04T10:12:09.000Z</time>
      </trkpt>
      <trkpt lat="43.40417079627513885498046875" lon="-5.6240572035312652587890625">
        <ele>223.1999969482421875</ele>
        <time>2022-06-04T10:12:10.000Z</time>
      </trkpt>
      <trkpt lat="43.40417079627513885498046875" lon="-5.6240572035312652587890625">
        <ele>223.1999969482421875</ele>
        <time>2022-06-04T10:12:11.000Z</time>
      </trkpt>
      <trkpt lat="43.4041894041001796722412109375" lon="-5.62420832924544811248779296875">
        <ele>223.399993896484375</ele>
        <time>2022-06-04T10:12:12.000Z</time>
      </trkpt>
      <trkpt lat="43.40419250540435314178466796875" lon="-5.62428292818367481231689453125">
        <ele>223.399993896484375</ele>
        <time>2022-06-04T10:12:13.000Z</time>
      </trkpt>
      <trkpt lat="43.40419267304241657257080078125" lon="-5.62435367144644260406494140625">
        <ele>223.399993896484375</ele>
        <time>2022-06-04T10:12:15.000Z</time>
      </trkpt>
      <trkpt lat="43.40418965555727481842041015625" lon="-5.62441636808216571807861328125">
        <ele>223.600006103515625</ele>
        <time>2022-06-04T10:12:16.000Z</time>
      </trkpt>
      <trkpt lat="43.40418496169149875640869140625" lon="-5.6244744546711444854736328125">
        <ele>223.600006103515625</ele>
        <time>2022-06-04T10:12:17.000Z</time>
      </trkpt>
      <trkpt lat="43.40417272411286830902099609375" lon="-5.6245824135839939117431640625">
        <ele>223.600006103515625</ele>
        <time>2022-06-04T10:12:19.000Z</time>
      </trkpt>
      <trkpt lat="43.40415830723941326141357421875" lon="-5.6246843375265598297119140625">
        <ele>223.600006103515625</ele>
        <time>2022-06-04T10:12:21.000Z</time>
      </trkpt>
      <trkpt lat="43.40417213737964630126953125" lon="-5.6247601099312305450439453125">
        <ele>223.600006103515625</ele>
        <time>2022-06-04T10:12:22.000Z</time>
      </trkpt>
      <trkpt lat="43.40417213737964630126953125" lon="-5.6247601099312305450439453125">
        <ele>223.600006103515625</ele>
        <time>2022-06-04T10:12:23.000Z</time>
      </trkpt>
      <trkpt lat="43.40421647764742374420166015625" lon="-5.6247668154537677764892578125">
        <ele>223.600006103515625</ele>
        <time>2022-06-04T10:12:24.000Z</time>
      </trkpt>
      <trkpt lat="43.40421647764742374420166015625" lon="-5.6247668154537677764892578125">
        <ele>223.600006103515625</ele>
        <time>2022-06-04T10:12:25.000Z</time>
      </trkpt>
      <trkpt lat="43.404261656105518341064453125" lon="-5.6246534921228885650634765625">
        <ele>223.600006103515625</ele>
        <time>2022-06-04T10:12:27.000Z</time>
      </trkpt>
      <trkpt lat="43.40429174713790416717529296875" lon="-5.6245656497776508331298828125">
        <ele>223.600006103515625</ele>
        <time>2022-06-04T10:12:29.000Z</time>
      </trkpt>
      <trkpt lat="43.40430700220167636871337890625" lon="-5.62452097423374652862548828125">
        <ele>223.600006103515625</ele>
        <time>2022-06-04T10:12:31.000Z</time>
      </trkpt>
      <trkpt lat="43.4043203294277191162109375" lon="-5.624477975070476531982421875">
        <ele>223.600006103515625</ele>
        <time>2022-06-04T10:12:32.000Z</time>
      </trkpt>
      <trkpt lat="43.4043339081108570098876953125" lon="-5.6244318746030330657958984375">
        <ele>223.8000030517578125</ele>
        <time>2022-06-04T10:12:33.000Z</time>
      </trkpt>
      <trkpt lat="43.40436249040067195892333984375" lon="-5.62435023486614227294921875">
        <ele>224.1999969482421875</ele>
        <time>2022-06-04T10:12:35.000Z</time>
      </trkpt>
      <trkpt lat="43.4043798409402370452880859375" lon="-5.624256022274494171142578125">
        <ele>224.399993896484375</ele>
        <time>2022-06-04T10:12:36.000Z</time>
      </trkpt>
      <trkpt lat="43.40438897721469402313232421875" lon="-5.62420782633125782012939453125">
        <ele>224.8000030517578125</ele>
        <time>2022-06-04T10:12:37.000Z</time>
      </trkpt>
      <trkpt lat="43.4044133685529232025146484375" lon="-5.6241120211780071258544921875">
        <ele>225.399993896484375</ele>
        <time>2022-06-04T10:12:39.000Z</time>
      </trkpt>
      <trkpt lat="43.4044318087399005889892578125" lon="-5.62401755712926387786865234375">
        <ele>225.600006103515625</ele>
        <time>2022-06-04T10:12:41.000Z</time>
      </trkpt>
      <trkpt lat="43.40444044210016727447509765625" lon="-5.6239712052047252655029296875">
        <ele>225.8000030517578125</ele>
        <time>2022-06-04T10:12:42.000Z</time>
      </trkpt>
      <trkpt lat="43.40444044210016727447509765625" lon="-5.6239712052047252655029296875">
        <ele>226</ele>
        <time>2022-06-04T10:12:43.000Z</time>
      </trkpt>
      <trkpt lat="43.40446022339165210723876953125" lon="-5.62387271784245967864990234375">
        <ele>226.399993896484375</ele>
        <time>2022-06-04T10:12:45.000Z</time>
      </trkpt>
      <trkpt lat="43.404480926692485809326171875" lon="-5.6237891502678394317626953125">
        <ele>226.600006103515625</ele>
        <time>2022-06-04T10:12:47.000Z</time>
      </trkpt>
      <trkpt lat="43.40449442155659198760986328125" lon="-5.623707510530948638916015625">
        <ele>227</ele>
        <time>2022-06-04T10:12:49.000Z</time>
      </trkpt>
      <trkpt lat="43.4045002050697803497314453125" lon="-5.62366484664380550384521484375">
        <ele>227.1999969482421875</ele>
        <time>2022-06-04T10:12:50.000Z</time>
      </trkpt>
      <trkpt lat="43.404520489275455474853515625" lon="-5.6235779263079166412353515625">
        <ele>227.399993896484375</ele>
        <time>2022-06-04T10:12:51.000Z</time>
      </trkpt>
      <trkpt lat="43.40452979318797588348388671875" lon="-5.6235313229262828826904296875">
        <ele>227.8000030517578125</ele>
        <time>2022-06-04T10:12:53.000Z</time>
      </trkpt>
      <trkpt lat="43.40454370714724063873291015625" lon="-5.623439960181713104248046875">
        <ele>228.1999969482421875</ele>
        <time>2022-06-04T10:12:55.000Z</time>
      </trkpt>
      <trkpt lat="43.404551334679126739501953125" lon="-5.6233945302665233612060546875">
        <ele>228.399993896484375</ele>
        <time>2022-06-04T10:12:56.000Z</time>
      </trkpt>
      <trkpt lat="43.4045565314590930938720703125" lon="-5.623354129493236541748046875">
        <ele>228.8000030517578125</ele>
        <time>2022-06-04T10:12:57.000Z</time>
      </trkpt>
      <trkpt lat="43.40456516481935977935791015625" lon="-5.6232775188982486724853515625">
        <ele>229.399993896484375</ele>
        <time>2022-06-04T10:12:59.000Z</time>
      </trkpt>
      <trkpt lat="43.40457270853221416473388671875" lon="-5.62320501543581485748291015625">
        <ele>229.8000030517578125</ele>
        <time>2022-06-04T10:13:01.000Z</time>
      </trkpt>
      <trkpt lat="43.4045887179672718048095703125" lon="-5.62312454916536808013916015625">
        <ele>230.399993896484375</ele>
        <time>2022-06-04T10:13:03.000Z</time>
      </trkpt>
      <trkpt lat="43.40460263192653656005859375" lon="-5.623047687113285064697265625">
        <ele>230.399993896484375</ele>
        <time>2022-06-04T10:13:04.000Z</time>
      </trkpt>
      <trkpt lat="43.40460263192653656005859375" lon="-5.623047687113285064697265625">
        <ele>230.8000030517578125</ele>
        <time>2022-06-04T10:13:05.000Z</time>
      </trkpt>
      <trkpt lat="43.40461763553321361541748046875" lon="-5.6229762732982635498046875">
        <ele>231.399993896484375</ele>
        <time>2022-06-04T10:13:07.000Z</time>
      </trkpt>
      <trkpt lat="43.4046259336173534393310546875" lon="-5.62294199131429195404052734375">
        <ele>231.600006103515625</ele>
        <time>2022-06-04T10:13:08.000Z</time>
      </trkpt>
      <trkpt lat="43.4046346507966518402099609375" lon="-5.6228989921510219573974609375">
        <ele>231.8000030517578125</ele>
        <time>2022-06-04T10:13:09.000Z</time>
      </trkpt>
      <trkpt lat="43.40467262081801891326904296875" lon="-5.62276395969092845916748046875">
        <ele>232.1999969482421875</ele>
        <time>2022-06-04T10:13:11.000Z</time>
      </trkpt>
      <trkpt lat="43.40468619950115680694580078125" lon="-5.622715093195438385009765625">
        <ele>232.600006103515625</ele>
        <time>2022-06-04T10:13:13.000Z</time>
      </trkpt>
      <trkpt lat="43.40473280288279056549072265625" lon="-5.6226176954805850982666015625">
        <ele>233</ele>
        <time>2022-06-04T10:13:15.000Z</time>
      </trkpt>
      <trkpt lat="43.40484897606074810028076171875" lon="-5.6224785558879375457763671875">
        <ele>233.1999969482421875</ele>
        <time>2022-06-04T10:13:17.000Z</time>
      </trkpt>
      <trkpt lat="43.4048985131084918975830078125" lon="-5.6224265880882740020751953125">
        <ele>233.1999969482421875</ele>
        <time>2022-06-04T10:13:19.000Z</time>
      </trkpt>
      <trkpt lat="43.4050661511719226837158203125" lon="-5.6222545914351940155029296875">
        <ele>233.1999969482421875</ele>
        <time>2022-06-04T10:13:21.000Z</time>
      </trkpt>
      <trkpt lat="43.4051254950463771820068359375" lon="-5.6221962533891201019287109375">
        <ele>233.1999969482421875</ele>
        <time>2022-06-04T10:13:23.000Z</time>
      </trkpt>
      <trkpt lat="43.40525315143167972564697265625" lon="-5.62209776602685451507568359375">
        <ele>233.1999969482421875</ele>
        <time>2022-06-04T10:13:24.000Z</time>
      </trkpt>
      <trkpt lat="43.40525315143167972564697265625" lon="-5.62209776602685451507568359375">
        <ele>233.1999969482421875</ele>
        <time>2022-06-04T10:13:25.000Z</time>
      </trkpt>
      <trkpt lat="43.4054483659565448760986328125" lon="-5.6219816766679286956787109375">
        <ele>232.600006103515625</ele>
        <time>2022-06-04T10:13:27.000Z</time>
      </trkpt>
      <trkpt lat="43.405514247715473175048828125" lon="-5.6219551898539066314697265625">
        <ele>232</ele>
        <time>2022-06-04T10:13:28.000Z</time>
      </trkpt>
      <trkpt lat="43.405514247715473175048828125" lon="-5.6219551898539066314697265625">
        <ele>231.399993896484375</ele>
        <time>2022-06-04T10:13:29.000Z</time>
      </trkpt>
      <trkpt lat="43.40564575977623462677001953125" lon="-5.6219216622412204742431640625">
        <ele>231.1999969482421875</ele>
        <time>2022-06-04T10:13:30.000Z</time>
      </trkpt>
      <trkpt lat="43.40564575977623462677001953125" lon="-5.6219216622412204742431640625">
        <ele>231.1999969482421875</ele>
        <time>2022-06-04T10:13:31.000Z</time>
      </trkpt>
      <trkpt lat="43.405832089483737945556640625" lon="-5.62189810909330844879150390625">
        <ele>231</ele>
        <time>2022-06-04T10:13:33.000Z</time>
      </trkpt>
      <trkpt lat="43.40588967315852642059326171875" lon="-5.62189056538045406341552734375">
        <ele>231</ele>
        <time>2022-06-04T10:13:34.000Z</time>
      </trkpt>
      <trkpt lat="43.40594650246202945709228515625" lon="-5.62188151292502880096435546875">
        <ele>230.8000030517578125</ele>
        <time>2022-06-04T10:13:35.000Z</time>
      </trkpt>
      <trkpt lat="43.40600567869842052459716796875" lon="-5.62187363393604755401611328125">
        <ele>230.8000030517578125</ele>
        <time>2022-06-04T10:13:36.000Z</time>
      </trkpt>
      <trkpt lat="43.40600567869842052459716796875" lon="-5.62187363393604755401611328125">
        <ele>230.8000030517578125</ele>
        <time>2022-06-04T10:13:37.000Z</time>
      </trkpt>
      <trkpt lat="43.4061812795698642730712890625" lon="-5.62184144742786884307861328125">
        <ele>230.8000030517578125</ele>
        <time>2022-06-04T10:13:39.000Z</time>
      </trkpt>
      <trkpt lat="43.40623199008405208587646484375" lon="-5.6218274496495723724365234375">
        <ele>230.8000030517578125</ele>
        <time>2022-06-04T10:13:41.000Z</time>
      </trkpt>
      <trkpt lat="43.40632469393312931060791015625" lon="-5.62180079519748687744140625">
        <ele>230.8000030517578125</ele>
        <time>2022-06-04T10:13:42.000Z</time>
      </trkpt>
      <trkpt lat="43.40637163259088993072509765625" lon="-5.62179408967494964599609375">
        <ele>230.8000030517578125</ele>
        <time>2022-06-04T10:13:43.000Z</time>
      </trkpt>
      <trkpt lat="43.406467437744140625" lon="-5.6217825226485729217529296875">
        <ele>230.8000030517578125</ele>
        <time>2022-06-04T10:13:45.000Z</time>
      </trkpt>
      <trkpt lat="43.40651697479188442230224609375" lon="-5.62177170999348163604736328125">
        <ele>230.8000030517578125</ele>
        <time>2022-06-04T10:13:47.000Z</time>
      </trkpt>
      <trkpt lat="43.40661806054413318634033203125" lon="-5.621753521263599395751953125">
        <ele>231</ele>
        <time>2022-06-04T10:13:49.000Z</time>
      </trkpt>
      <trkpt lat="43.40671487152576446533203125" lon="-5.62174539081752300262451171875">
        <ele>231.1999969482421875</ele>
        <time>2022-06-04T10:13:51.000Z</time>
      </trkpt>
      <trkpt lat="43.40680983848869800567626953125" lon="-5.6217483244836330413818359375">
        <ele>231.399993896484375</ele>
        <time>2022-06-04T10:13:53.000Z</time>
      </trkpt>
      <trkpt lat="43.4069460444152355194091796875" lon="-5.6217573769390583038330078125">
        <ele>231.600006103515625</ele>
        <time>2022-06-04T10:13:55.000Z</time>
      </trkpt>
      <trkpt lat="43.4069916419684886932373046875" lon="-5.62175679020583629608154296875">
        <ele>232</ele>
        <time>2022-06-04T10:13:57.000Z</time>
      </trkpt>
      <trkpt lat="43.40708392672240734100341796875" lon="-5.62174958176910877227783203125">
        <ele>232.399993896484375</ele>
        <time>2022-06-04T10:13:59.000Z</time>
      </trkpt>
      <trkpt lat="43.407183587551116943359375" lon="-5.621730051934719085693359375">
        <ele>232.600006103515625</ele>
        <time>2022-06-04T10:14:00.000Z</time>
      </trkpt>
      <trkpt lat="43.407183587551116943359375" lon="-5.621730051934719085693359375">
        <ele>232.600006103515625</ele>
        <time>2022-06-04T10:14:01.000Z</time>
      </trkpt>
      <trkpt lat="43.40735717676579952239990234375" lon="-5.62170197255909442901611328125">
        <ele>232.600006103515625</ele>
        <time>2022-06-04T10:14:03.000Z</time>
      </trkpt>
      <trkpt lat="43.4074841625988483428955078125" lon="-5.62169325537979602813720703125">
        <ele>232.600006103515625</ele>
        <time>2022-06-04T10:14:05.000Z</time>
      </trkpt>
      <trkpt lat="43.40755180455744266510009765625" lon="-5.6216896511614322662353515625">
        <ele>232.600006103515625</ele>
        <time>2022-06-04T10:14:06.000Z</time>
      </trkpt>
      <trkpt lat="43.40755180455744266510009765625" lon="-5.6216896511614322662353515625">
        <ele>232.600006103515625</ele>
        <time>2022-06-04T10:14:07.000Z</time>
      </trkpt>
      <trkpt lat="43.4077669680118560791015625" lon="-5.62168068252503871917724609375">
        <ele>232.399993896484375</ele>
        <time>2022-06-04T10:14:09.000Z</time>
      </trkpt>
      <trkpt lat="43.407838046550750732421875" lon="-5.621673725545406341552734375">
        <ele>232</ele>
        <time>2022-06-04T10:14:11.000Z</time>
      </trkpt>
      <trkpt lat="43.407983891665935516357421875" lon="-5.6216417066752910614013671875">
        <ele>231.8000030517578125</ele>
        <time>2022-06-04T10:14:12.000Z</time>
      </trkpt>
      <trkpt lat="43.408052958548069000244140625" lon="-5.62161848880350589752197265625">
        <ele>231.399993896484375</ele>
        <time>2022-06-04T10:14:13.000Z</time>
      </trkpt>
      <trkpt lat="43.4081657789647579193115234375" lon="-5.62155612744390964508056640625">
        <ele>230.8000030517578125</ele>
        <time>2022-06-04T10:14:15.000Z</time>
      </trkpt>
      <trkpt lat="43.408270217478275299072265625" lon="-5.6214945204555988311767578125">
        <ele>230.1999969482421875</ele>
        <time>2022-06-04T10:14:17.000Z</time>
      </trkpt>
      <trkpt lat="43.40832008980214595794677734375" lon="-5.6214619986712932586669921875">
        <ele>230.1999969482421875</ele>
        <time>2022-06-04T10:14:18.000Z</time>
      </trkpt>
      <trkpt lat="43.40836786665022373199462890625" lon="-5.62143006362020969390869140625">
        <ele>230.1999969482421875</ele>
        <time>2022-06-04T10:14:19.000Z</time>
      </trkpt>
      <trkpt lat="43.40841564349830150604248046875" lon="-5.62139787711203098297119140625">
        <ele>230</ele>
        <time>2022-06-04T10:14:21.000Z</time>
      </trkpt>
      <trkpt lat="43.4085429646074771881103515625" lon="-5.6213133037090301513671875">
        <ele>230</ele>
        <time>2022-06-04T10:14:23.000Z</time>
      </trkpt>
      <trkpt lat="43.40861781500279903411865234375" lon="-5.6212598271667957305908203125">
        <ele>230</ele>
        <time>2022-06-04T10:14:25.000Z</time>
      </trkpt>
      <trkpt lat="43.40868906117975711822509765625" lon="-5.6212118826806545257568359375">
        <ele>230.8000030517578125</ele>
        <time>2022-06-04T10:14:27.000Z</time>
      </trkpt>
      <trkpt lat="43.4087501652538776397705078125" lon="-5.6211615912616252899169921875">
        <ele>231.399993896484375</ele>
        <time>2022-06-04T10:14:29.000Z</time>
      </trkpt>
      <trkpt lat="43.40878478251397609710693359375" lon="-5.621140636503696441650390625">
        <ele>232</ele>
        <time>2022-06-04T10:14:31.000Z</time>
      </trkpt>
      <trkpt lat="43.4088916517794132232666015625" lon="-5.62113183550536632537841796875">
        <ele>232.8000030517578125</ele>
        <time>2022-06-04T10:14:33.000Z</time>
      </trkpt>
      <trkpt lat="43.40892425738275051116943359375" lon="-5.621136613190174102783203125">
        <ele>233</ele>
        <time>2022-06-04T10:14:34.000Z</time>
      </trkpt>
      <trkpt lat="43.40892425738275051116943359375" lon="-5.621136613190174102783203125">
        <ele>233.399993896484375</ele>
        <time>2022-06-04T10:14:35.000Z</time>
      </trkpt>
      <trkpt lat="43.4089873731136322021484375" lon="-5.62112228013575077056884765625">
        <ele>233.8000030517578125</ele>
        <time>2022-06-04T10:14:36.000Z</time>
      </trkpt>
      <trkpt lat="43.40901377610862255096435546875" lon="-5.6211005710065364837646484375">
        <ele>234</ele>
        <time>2022-06-04T10:14:37.000Z</time>
      </trkpt>
      <trkpt lat="43.40901377610862255096435546875" lon="-5.6211005710065364837646484375">
        <ele>234.399993896484375</ele>
        <time>2022-06-04T10:14:38.000Z</time>
      </trkpt>
      <trkpt lat="43.40906088240444660186767578125" lon="-5.62103896401822566986083984375">
        <ele>234.8000030517578125</ele>
        <time>2022-06-04T10:14:39.000Z</time>
      </trkpt>
      <trkpt lat="43.40907923877239227294921875" lon="-5.621001161634922027587890625">
        <ele>235</ele>
        <time>2022-06-04T10:14:40.000Z</time>
      </trkpt>
      <trkpt lat="43.40909776277840137481689453125" lon="-5.62096084468066692352294921875">
        <ele>235.399993896484375</ele>
        <time>2022-06-04T10:14:41.000Z</time>
      </trkpt>
      <trkpt lat="43.4091214835643768310546875" lon="-5.62092178501188755035400390625">
        <ele>235.600006103515625</ele>
        <time>2022-06-04T10:14:42.000Z</time>
      </trkpt>
      <trkpt lat="43.409147299826145172119140625" lon="-5.62088549137115478515625">
        <ele>235.8000030517578125</ele>
        <time>2022-06-04T10:14:43.000Z</time>
      </trkpt>
      <trkpt lat="43.40919851325452327728271484375" lon="-5.6208219565451145172119140625">
        <ele>236.1999969482421875</ele>
        <time>2022-06-04T10:14:45.000Z</time>
      </trkpt>
      <trkpt lat="43.409255929291248321533203125" lon="-5.6207663007080554962158203125">
        <ele>236.8000030517578125</ele>
        <time>2022-06-04T10:14:47.000Z</time>
      </trkpt>
      <trkpt lat="43.40931820683181285858154296875" lon="-5.62071072869002819061279296875">
        <ele>237</ele>
        <time>2022-06-04T10:14:49.000Z</time>
      </trkpt>
      <trkpt lat="43.40931820683181285858154296875" lon="-5.62071072869002819061279296875">
        <ele>237.1999969482421875</ele>
        <time>2022-06-04T10:14:50.000Z</time>
      </trkpt>
      <trkpt lat="43.40938366949558258056640625" lon="-5.6206479482352733612060546875">
        <ele>237.600006103515625</ele>
        <time>2022-06-04T10:14:51.000Z</time>
      </trkpt>
      <trkpt lat="43.40941476635634899139404296875" lon="-5.62061433680355548858642578125">
        <ele>238</ele>
        <time>2022-06-04T10:14:53.000Z</time>
      </trkpt>
      <trkpt lat="43.409471176564693450927734375" lon="-5.6205461919307708740234375">
        <ele>238.399993896484375</ele>
        <time>2022-06-04T10:14:54.000Z</time>
      </trkpt>
      <trkpt lat="43.409471176564693450927734375" lon="-5.6205461919307708740234375">
        <ele>238.399993896484375</ele>
        <time>2022-06-04T10:14:55.000Z</time>
      </trkpt>
      <trkpt lat="43.40953119099140167236328125" lon="-5.6204786337912082672119140625">
        <ele>238.600006103515625</ele>
        <time>2022-06-04T10:14:57.000Z</time>
      </trkpt>
      <trkpt lat="43.409603945910930633544921875" lon="-5.62043312005698680877685546875">
        <ele>238.600006103515625</ele>
        <time>2022-06-04T10:14:58.000Z</time>
      </trkpt>
      <trkpt lat="43.409603945910930633544921875" lon="-5.62043312005698680877685546875">
        <ele>238.600006103515625</ele>
        <time>2022-06-04T10:14:59.000Z</time>
      </trkpt>
      <trkpt lat="43.40970687568187713623046875" lon="-5.62042892910540103912353515625">
        <ele>238.8000030517578125</ele>
        <time>2022-06-04T10:15:01.000Z</time>
      </trkpt>
      <trkpt lat="43.4097657166421413421630859375" lon="-5.62043915502727031707763671875">
        <ele>238.8000030517578125</ele>
        <time>2022-06-04T10:15:03.000Z</time>
      </trkpt>
      <trkpt lat="43.40979362837970256805419921875" lon="-5.62044301070272922515869140625">
        <ele>239</ele>
        <time>2022-06-04T10:15:05.000Z</time>
      </trkpt>
      <trkpt lat="43.4098475240170955657958984375" lon="-5.620449297130107879638671875">
        <ele>239.399993896484375</ele>
        <time>2022-06-04T10:15:06.000Z</time>
      </trkpt>
      <trkpt lat="43.4098746813833713531494140625" lon="-5.62045457772910594940185546875">
        <ele>239.399993896484375</ele>
        <time>2022-06-04T10:15:07.000Z</time>
      </trkpt>
      <trkpt lat="43.4099259786307811737060546875" lon="-5.62046513892710208892822265625">
        <ele>239.8000030517578125</ele>
        <time>2022-06-04T10:15:09.000Z</time>
      </trkpt>
      <trkpt lat="43.4099491126835346221923828125" lon="-5.62046849168837070465087890625">
        <ele>240.1999969482421875</ele>
        <time>2022-06-04T10:15:10.000Z</time>
      </trkpt>
      <trkpt lat="43.40997283346951007843017578125" lon="-5.62046715058386325836181640625">
        <ele>240.399993896484375</ele>
        <time>2022-06-04T10:15:11.000Z</time>
      </trkpt>
      <trkpt lat="43.4100200235843658447265625" lon="-5.62046145088970661163330078125">
        <ele>240.600006103515625</ele>
        <time>2022-06-04T10:15:13.000Z</time>
      </trkpt>
      <trkpt lat="43.4100631065666675567626953125" lon="-5.62044971622526645660400390625">
        <ele>241.1999969482421875</ele>
        <time>2022-06-04T10:15:15.000Z</time>
      </trkpt>
      <trkpt lat="43.41008380986750125885009765625" lon="-5.6204389035701751708984375">
        <ele>241.399993896484375</ele>
        <time>2022-06-04T10:15:16.000Z</time>
      </trkpt>
      <trkpt lat="43.41010308824479579925537109375" lon="-5.6204254925251007080078125">
        <ele>241.600006103515625</ele>
        <time>2022-06-04T10:15:17.000Z</time>
      </trkpt>
      <trkpt lat="43.4101353585720062255859375" lon="-5.620390288531780242919921875">
        <ele>242</ele>
        <time>2022-06-04T10:15:19.000Z</time>
      </trkpt>
      <trkpt lat="43.41016176156699657440185546875" lon="-5.62034477479755878448486328125">
        <ele>242.600006103515625</ele>
        <time>2022-06-04T10:15:21.000Z</time>
      </trkpt>
      <trkpt lat="43.41018506325781345367431640625" lon="-5.62029741704463958740234375">
        <ele>243.1999969482421875</ele>
        <time>2022-06-04T10:15:23.000Z</time>
      </trkpt>
      <trkpt lat="43.4102076105773448944091796875" lon="-5.620254166424274444580078125">
        <ele>243.600006103515625</ele>
        <time>2022-06-04T10:15:25.000Z</time>
      </trkpt>
      <trkpt lat="43.410228900611400604248046875" lon="-5.620206892490386962890625">
        <ele>244</ele>
        <time>2022-06-04T10:15:27.000Z</time>
      </trkpt>
      <trkpt lat="43.4102508611977100372314453125" lon="-5.62015919946134090423583984375">
        <ele>244.399993896484375</ele>
        <time>2022-06-04T10:15:29.000Z</time>
      </trkpt>
      <trkpt lat="43.41026008129119873046875" lon="-5.62013472430408000946044921875">
        <ele>244.600006103515625</ele>
        <time>2022-06-04T10:15:30.000Z</time>
      </trkpt>
      <trkpt lat="43.4102672897279262542724609375" lon="-5.62011159025132656097412109375">
        <ele>244.8000030517578125</ele>
        <time>2022-06-04T10:15:31.000Z</time>
      </trkpt>
      <trkpt lat="43.41028111986815929412841796875" lon="-5.62006029300391674041748046875">
        <ele>245.1999969482421875</ele>
        <time>2022-06-04T10:15:33.000Z</time>
      </trkpt>
      <trkpt lat="43.4102961234748363494873046875" lon="-5.6199951656162738800048828125">
        <ele>245.399993896484375</ele>
        <time>2022-06-04T10:15:35.000Z</time>
      </trkpt>
      <trkpt lat="43.41030458919703960418701171875" lon="-5.619960464537143707275390625">
        <ele>245.8000030517578125</ele>
        <time>2022-06-04T10:15:36.000Z</time>
      </trkpt>
      <trkpt lat="43.41031330637633800506591796875" lon="-5.61992383562028408050537109375">
        <ele>245.8000030517578125</ele>
        <time>2022-06-04T10:15:37.000Z</time>
      </trkpt>
      <trkpt lat="43.41032705269753932952880859375" lon="-5.61984353698790073394775390625">
        <ele>246.1999969482421875</ele>
        <time>2022-06-04T10:15:39.000Z</time>
      </trkpt>
      <trkpt lat="43.41034901328384876251220703125" lon="-5.61975502409040927886962890625">
        <ele>246.399993896484375</ele>
        <time>2022-06-04T10:15:41.000Z</time>
      </trkpt>
      <trkpt lat="43.4103712253272533416748046875" lon="-5.61965167522430419921875">
        <ele>246.600006103515625</ele>
        <time>2022-06-04T10:15:43.000Z</time>
      </trkpt>
      <trkpt lat="43.41039611957967281341552734375" lon="-5.61954262666404247283935546875">
        <ele>246.8000030517578125</ele>
        <time>2022-06-04T10:15:45.000Z</time>
      </trkpt>
      <trkpt lat="43.41042704880237579345703125" lon="-5.6194443069398403167724609375">
        <ele>246.8000030517578125</ele>
        <time>2022-06-04T10:15:47.000Z</time>
      </trkpt>
      <trkpt lat="43.410466276109218597412109375" lon="-5.6193511001765727996826171875">
        <ele>246.8000030517578125</ele>
        <time>2022-06-04T10:15:49.000Z</time>
      </trkpt>
      <trkpt lat="43.41048605740070343017578125" lon="-5.61930659227073192596435546875">
        <ele>246.8000030517578125</ele>
        <time>2022-06-04T10:15:50.000Z</time>
      </trkpt>
      <trkpt lat="43.4105076827108860015869140625" lon="-5.6192615814507007598876953125">
        <ele>246.8000030517578125</ele>
        <time>2022-06-04T10:15:51.000Z</time>
      </trkpt>
      <trkpt lat="43.41055286116898059844970703125" lon="-5.61917533166706562042236328125">
        <ele>246.8000030517578125</ele>
        <time>2022-06-04T10:15:53.000Z</time>
      </trkpt>
      <trkpt lat="43.4106002189218997955322265625" lon="-5.6191013194620609283447265625">
        <ele>246.8000030517578125</ele>
        <time>2022-06-04T10:15:55.000Z</time>
      </trkpt>
      <trkpt lat="43.4106575511395931243896484375" lon="-5.61903485096991062164306640625">
        <ele>246.8000030517578125</ele>
        <time>2022-06-04T10:15:57.000Z</time>
      </trkpt>
      <trkpt lat="43.41071999631822109222412109375" lon="-5.6189725734293460845947265625">
        <ele>246.8000030517578125</ele>
        <time>2022-06-04T10:15:59.000Z</time>
      </trkpt>
      <trkpt lat="43.41078654862940311431884765625" lon="-5.61891012825071811676025390625">
        <ele>247</ele>
        <time>2022-06-04T10:16:01.000Z</time>
      </trkpt>
      <trkpt lat="43.41084815561771392822265625" lon="-5.61885346658527851104736328125">
        <ele>247</ele>
        <time>2022-06-04T10:16:03.000Z</time>
      </trkpt>
      <trkpt lat="43.41090037487447261810302734375" lon="-5.6187858246266841888427734375">
        <ele>247.1999969482421875</ele>
        <time>2022-06-04T10:16:05.000Z</time>
      </trkpt>
      <trkpt lat="43.4109239280223846435546875" lon="-5.6187509559094905853271484375">
        <ele>247.399993896484375</ele>
        <time>2022-06-04T10:16:07.000Z</time>
      </trkpt>
      <trkpt lat="43.41099307872354984283447265625" lon="-5.61864777468144893646240234375">
        <ele>247.399993896484375</ele>
        <time>2022-06-04T10:16:09.000Z</time>
      </trkpt>
      <trkpt lat="43.41103951446712017059326171875" lon="-5.618578456342220306396484375">
        <ele>247.600006103515625</ele>
        <time>2022-06-04T10:16:11.000Z</time>
      </trkpt>
      <trkpt lat="43.4110632352530956268310546875" lon="-5.61854417435824871063232421875">
        <ele>247.8000030517578125</ele>
        <time>2022-06-04T10:16:12.000Z</time>
      </trkpt>
      <trkpt lat="43.41109148226678371429443359375" lon="-5.6185155920684337615966796875">
        <ele>247.8000030517578125</ele>
        <time>2022-06-04T10:16:13.000Z</time>
      </trkpt>
      <trkpt lat="43.41109148226678371429443359375" lon="-5.6185155920684337615966796875">
        <ele>248</ele>
        <time>2022-06-04T10:16:14.000Z</time>
      </trkpt>
      <trkpt lat="43.41116474010050296783447265625" lon="-5.6184901110827922821044921875">
        <ele>248.1999969482421875</ele>
        <time>2022-06-04T10:16:15.000Z</time>
      </trkpt>
      <trkpt lat="43.411255516111850738525390625" lon="-5.6184917874634265899658203125">
        <ele>248.399993896484375</ele>
        <time>2022-06-04T10:16:17.000Z</time>
      </trkpt>
      <trkpt lat="43.41134444810450077056884765625" lon="-5.6184854172170162200927734375">
        <ele>248.399993896484375</ele>
        <time>2022-06-04T10:16:19.000Z</time>
      </trkpt>
      <trkpt lat="43.41143027879297733306884765625" lon="-5.6184559129178524017333984375">
        <ele>248.399993896484375</ele>
        <time>2022-06-04T10:16:21.000Z</time>
      </trkpt>
      <trkpt lat="43.41147436760365962982177734375" lon="-5.61843772418797016143798828125">
        <ele>248.399993896484375</ele>
        <time>2022-06-04T10:16:22.000Z</time>
      </trkpt>
      <trkpt lat="43.4115218929946422576904296875" lon="-5.618415176868438720703125">
        <ele>248.399993896484375</ele>
        <time>2022-06-04T10:16:23.000Z</time>
      </trkpt>
      <trkpt lat="43.41156698763370513916015625" lon="-5.61837871558964252471923828125">
        <ele>248.399993896484375</ele>
        <time>2022-06-04T10:16:24.000Z</time>
      </trkpt>
      <trkpt lat="43.4116117469966411590576171875" lon="-5.618332363665103912353515625">
        <ele>248.1999969482421875</ele>
        <time>2022-06-04T10:16:25.000Z</time>
      </trkpt>
      <trkpt lat="43.4116117469966411590576171875" lon="-5.618332363665103912353515625">
        <ele>248</ele>
        <time>2022-06-04T10:16:26.000Z</time>
      </trkpt>
      <trkpt lat="43.41167620383203029632568359375" lon="-5.6182259134948253631591796875">
        <ele>247.8000030517578125</ele>
        <time>2022-06-04T10:16:27.000Z</time>
      </trkpt>
      <trkpt lat="43.411734960973262786865234375" lon="-5.6181080639362335205078125">
        <ele>247.600006103515625</ele>
        <time>2022-06-04T10:16:29.000Z</time>
      </trkpt>
      <trkpt lat="43.41174845583736896514892578125" lon="-5.6180321238934993743896484375">
        <ele>247.600006103515625</ele>
        <time>2022-06-04T10:16:30.000Z</time>
      </trkpt>
      <trkpt lat="43.41174745000898838043212890625" lon="-5.61794067732989788055419921875">
        <ele>247.399993896484375</ele>
        <time>2022-06-04T10:16:31.000Z</time>
      </trkpt>
      <trkpt lat="43.41171241365373134613037109375" lon="-5.6177085824310779571533203125">
        <ele>246.8000030517578125</ele>
        <time>2022-06-04T10:16:33.000Z</time>
      </trkpt>
      <trkpt lat="43.4116999246180057525634765625" lon="-5.61758042313158512115478515625">
        <ele>246.600006103515625</ele>
        <time>2022-06-04T10:16:34.000Z</time>
      </trkpt>
      <trkpt lat="43.41169212944805622100830078125" lon="-5.61744446866214275360107421875">
        <ele>246.1999969482421875</ele>
        <time>2022-06-04T10:16:35.000Z</time>
      </trkpt>
      <trkpt lat="43.41169078834354877471923828125" lon="-5.617303065955638885498046875">
        <ele>245.600006103515625</ele>
        <time>2022-06-04T10:16:36.000Z</time>
      </trkpt>
      <trkpt lat="43.41170352883636951446533203125" lon="-5.617173649370670318603515625">
        <ele>245</ele>
        <time>2022-06-04T10:16:37.000Z</time>
      </trkpt>
      <trkpt lat="43.4117465279996395111083984375" lon="-5.6169253773987293243408203125">
        <ele>244</ele>
        <time>2022-06-04T10:16:39.000Z</time>
      </trkpt>
      <trkpt lat="43.41176086105406284332275390625" lon="-5.6168087013065814971923828125">
        <ele>243.399993896484375</ele>
        <time>2022-06-04T10:16:40.000Z</time>
      </trkpt>
      <trkpt lat="43.41176086105406284332275390625" lon="-5.6168087013065814971923828125">
        <ele>242.600006103515625</ele>
        <time>2022-06-04T10:16:41.000Z</time>
      </trkpt>
      <trkpt lat="43.411771841347217559814453125" lon="-5.616599656641483306884765625">
        <ele>242.1999969482421875</ele>
        <time>2022-06-04T10:16:42.000Z</time>
      </trkpt>
      <trkpt lat="43.4117763675749301910400390625" lon="-5.61650385148823261260986328125">
        <ele>241.600006103515625</ele>
        <time>2022-06-04T10:16:43.000Z</time>
      </trkpt>
      <trkpt lat="43.4117941372096538543701171875" lon="-5.61632984317839145660400390625">
        <ele>240</ele>
        <time>2022-06-04T10:16:45.000Z</time>
      </trkpt>
      <trkpt lat="43.4118212945759296417236328125" lon="-5.6161844171583652496337890625">
        <ele>239</ele>
        <time>2022-06-04T10:16:47.000Z</time>
      </trkpt>
      <trkpt lat="43.41183646582067012786865234375" lon="-5.616118870675563812255859375">
        <ele>238.8000030517578125</ele>
        <time>2022-06-04T10:16:48.000Z</time>
      </trkpt>
      <trkpt lat="43.41185574419796466827392578125" lon="-5.61605575494468212127685546875">
        <ele>238.600006103515625</ele>
        <time>2022-06-04T10:16:49.000Z</time>
      </trkpt>
      <trkpt lat="43.411895893514156341552734375" lon="-5.61593212187290191650390625">
        <ele>238.600006103515625</ele>
        <time>2022-06-04T10:16:51.000Z</time>
      </trkpt>
      <trkpt lat="43.41194459237158298492431640625" lon="-5.6158176250755786895751953125">
        <ele>238.600006103515625</ele>
        <time>2022-06-04T10:16:53.000Z</time>
      </trkpt>
      <trkpt lat="43.41197174973785877227783203125" lon="-5.615764819085597991943359375">
        <ele>238.600006103515625</ele>
        <time>2022-06-04T10:16:54.000Z</time>
      </trkpt>
      <trkpt lat="43.41200108639895915985107421875" lon="-5.6157140247523784637451171875">
        <ele>238.600006103515625</ele>
        <time>2022-06-04T10:16:55.000Z</time>
      </trkpt>
      <trkpt lat="43.4120522998273372650146484375" lon="-5.61561017297208309173583984375">
        <ele>238.600006103515625</ele>
        <time>2022-06-04T10:16:57.000Z</time>
      </trkpt>
      <trkpt lat="43.41210233978927135467529296875" lon="-5.6155085004866123199462890625">
        <ele>239</ele>
        <time>2022-06-04T10:16:59.000Z</time>
      </trkpt>
      <trkpt lat="43.41214894317090511322021484375" lon="-5.61540632508695125579833984375">
        <ele>239.1999969482421875</ele>
        <time>2022-06-04T10:17:01.000Z</time>
      </trkpt>
      <trkpt lat="43.41218934394419193267822265625" lon="-5.6153110228478908538818359375">
        <ele>239.399993896484375</ele>
        <time>2022-06-04T10:17:03.000Z</time>
      </trkpt>
      <trkpt lat="43.41222153045237064361572265625" lon="-5.61522393487393856048583984375">
        <ele>239.600006103515625</ele>
        <time>2022-06-04T10:17:05.000Z</time>
      </trkpt>
      <trkpt lat="43.41224835254251956939697265625" lon="-5.61513726599514484405517578125">
        <ele>239.8000030517578125</ele>
        <time>2022-06-04T10:17:07.000Z</time>
      </trkpt>
      <trkpt lat="43.41224835254251956939697265625" lon="-5.61513726599514484405517578125">
        <ele>240</ele>
        <time>2022-06-04T10:17:08.000Z</time>
      </trkpt>
      <trkpt lat="43.41226578690111637115478515625" lon="-5.61504154466092586517333984375">
        <ele>240</ele>
        <time>2022-06-04T10:17:09.000Z</time>
      </trkpt>
      <trkpt lat="43.41228506527841091156005859375" lon="-5.61494532041251659393310546875">
        <ele>240.399993896484375</ele>
        <time>2022-06-04T10:17:11.000Z</time>
      </trkpt>
      <trkpt lat="43.41230400837957859039306640625" lon="-5.614850521087646484375">
        <ele>240.8000030517578125</ele>
        <time>2022-06-04T10:17:13.000Z</time>
      </trkpt>
      <trkpt lat="43.41231289319694042205810546875" lon="-5.61480416916310787200927734375">
        <ele>241</ele>
        <time>2022-06-04T10:17:14.000Z</time>
      </trkpt>
      <trkpt lat="43.41232580132782459259033203125" lon="-5.61476158909499645233154296875">
        <ele>241.1999969482421875</ele>
        <time>2022-06-04T10:17:15.000Z</time>
      </trkpt>
      <trkpt lat="43.412359915673732757568359375" lon="-5.61466787941753864288330078125">
        <ele>241.399993896484375</ele>
        <time>2022-06-04T10:17:17.000Z</time>
      </trkpt>
      <trkpt lat="43.41239972971379756927490234375" lon="-5.61455883085727691650390625">
        <ele>241.8000030517578125</ele>
        <time>2022-06-04T10:17:19.000Z</time>
      </trkpt>
      <trkpt lat="43.41244599781930446624755859375" lon="-5.614437796175479888916015625">
        <ele>241.8000030517578125</ele>
        <time>2022-06-04T10:17:21.000Z</time>
      </trkpt>
      <trkpt lat="43.41250131838023662567138671875" lon="-5.614309720695018768310546875">
        <ele>242</ele>
        <time>2022-06-04T10:17:23.000Z</time>
      </trkpt>
      <trkpt lat="43.41252721846103668212890625" lon="-5.614246688783168792724609375">
        <ele>242</ele>
        <time>2022-06-04T10:17:24.000Z</time>
      </trkpt>
      <trkpt lat="43.4125565551221370697021484375" lon="-5.6141813099384307861328125">
        <ele>242.1999969482421875</ele>
        <time>2022-06-04T10:17:25.000Z</time>
      </trkpt>
      <trkpt lat="43.412620089948177337646484375" lon="-5.6140443496406078338623046875">
        <ele>242.1999969482421875</ele>
        <time>2022-06-04T10:17:27.000Z</time>
      </trkpt>
      <trkpt lat="43.412682116031646728515625" lon="-5.61391937546432018280029296875">
        <ele>242.399993896484375</ele>
        <time>2022-06-04T10:17:29.000Z</time>
      </trkpt>
      <trkpt lat="43.41273517347872257232666015625" lon="-5.6137912161648273468017578125">
        <ele>242.600006103515625</ele>
        <time>2022-06-04T10:17:31.000Z</time>
      </trkpt>
      <trkpt lat="43.4127905778586864471435546875" lon="-5.61366506852209568023681640625">
        <ele>242.600006103515625</ele>
        <time>2022-06-04T10:17:33.000Z</time>
      </trkpt>
      <trkpt lat="43.41285168193280696868896484375" lon="-5.61354604549705982208251953125">
        <ele>242.600006103515625</ele>
        <time>2022-06-04T10:17:35.000Z</time>
      </trkpt>
      <trkpt lat="43.41291706077754497528076171875" lon="-5.613427944481372833251953125">
        <ele>242.600006103515625</ele>
        <time>2022-06-04T10:17:37.000Z</time>
      </trkpt>
      <trkpt lat="43.41294656507670879364013671875" lon="-5.6133704446256160736083984375">
        <ele>242.600006103515625</ele>
        <time>2022-06-04T10:17:38.000Z</time>
      </trkpt>
      <trkpt lat="43.41297372244298458099365234375" lon="-5.61331319622695446014404296875">
        <ele>242.600006103515625</ele>
        <time>2022-06-04T10:17:39.000Z</time>
      </trkpt>
      <trkpt lat="43.41299752704799175262451171875" lon="-5.6132524274289608001708984375">
        <ele>242.600006103515625</ele>
        <time>2022-06-04T10:17:40.000Z</time>
      </trkpt>
      <trkpt lat="43.41301244683563709259033203125" lon="-5.6131900660693645477294921875">
        <ele>242.600006103515625</ele>
        <time>2022-06-04T10:17:41.000Z</time>
      </trkpt>
      <trkpt lat="43.413032479584217071533203125" lon="-5.613054446876049041748046875">
        <ele>242.600006103515625</ele>
        <time>2022-06-04T10:17:43.000Z</time>
      </trkpt>
      <trkpt lat="43.41306768357753753662109375" lon="-5.6129097752273082733154296875">
        <ele>242.600006103515625</ele>
        <time>2022-06-04T10:17:45.000Z</time>
      </trkpt>
      <trkpt lat="43.41311638243496417999267578125" lon="-5.6127790175378322601318359375">
        <ele>242.600006103515625</ele>
        <time>2022-06-04T10:17:47.000Z</time>
      </trkpt>
      <trkpt lat="43.413144461810588836669921875" lon="-5.61272210441529750823974609375">
        <ele>242.600006103515625</ele>
        <time>2022-06-04T10:17:48.000Z</time>
      </trkpt>
      <trkpt lat="43.41317304410040378570556640625" lon="-5.61266644857823848724365234375">
        <ele>242.600006103515625</ele>
        <time>2022-06-04T10:17:49.000Z</time>
      </trkpt>
      <trkpt lat="43.41323800384998321533203125" lon="-5.61257609166204929351806640625">
        <ele>242.8000030517578125</ele>
        <time>2022-06-04T10:17:51.000Z</time>
      </trkpt>
      <trkpt lat="43.41330598108470439910888671875" lon="-5.6125000678002834320068359375">
        <ele>243</ele>
        <time>2022-06-04T10:17:53.000Z</time>
      </trkpt>
      <trkpt lat="43.413338251411914825439453125" lon="-5.61246410943567752838134765625">
        <ele>243.1999969482421875</ele>
        <time>2022-06-04T10:17:54.000Z</time>
      </trkpt>
      <trkpt lat="43.41336834244430065155029296875" lon="-5.6124306656420230865478515625">
        <ele>243.399993896484375</ele>
        <time>2022-06-04T10:17:55.000Z</time>
      </trkpt>
      <trkpt lat="43.4134291112422943115234375" lon="-5.61235271394252777099609375">
        <ele>243.8000030517578125</ele>
        <time>2022-06-04T10:17:57.000Z</time>
      </trkpt>
      <trkpt lat="43.41348669491708278656005859375" lon="-5.61226864345371723175048828125">
        <ele>244</ele>
        <time>2022-06-04T10:17:59.000Z</time>
      </trkpt>
      <trkpt lat="43.4135426022112369537353515625" lon="-5.61219152994453907012939453125">
        <ele>244.399993896484375</ele>
        <time>2022-06-04T10:18:01.000Z</time>
      </trkpt>
      <trkpt lat="43.41359280981123447418212890625" lon="-5.61211441643536090850830078125">
        <ele>244.600006103515625</ele>
        <time>2022-06-04T10:18:03.000Z</time>
      </trkpt>
      <trkpt lat="43.41364410705864429473876953125" lon="-5.61204266734421253204345703125">
        <ele>245</ele>
        <time>2022-06-04T10:18:05.000Z</time>
      </trkpt>
      <trkpt lat="43.41367092914879322052001953125" lon="-5.612003691494464874267578125">
        <ele>245.1999969482421875</ele>
        <time>2022-06-04T10:18:06.000Z</time>
      </trkpt>
      <trkpt lat="43.41369691304862499237060546875" lon="-5.6119639612734317779541015625">
        <ele>245.600006103515625</ele>
        <time>2022-06-04T10:18:07.000Z</time>
      </trkpt>
      <trkpt lat="43.413723148405551910400390625" lon="-5.6119237281382083892822265625">
        <ele>245.8000030517578125</ele>
        <time>2022-06-04T10:18:08.000Z</time>
      </trkpt>
      <trkpt lat="43.41375022195279598236083984375" lon="-5.611881650984287261962890625">
        <ele>246</ele>
        <time>2022-06-04T10:18:09.000Z</time>
      </trkpt>
      <trkpt lat="43.41380663216114044189453125" lon="-5.6117941439151763916015625">
        <ele>246.1999969482421875</ele>
        <time>2022-06-04T10:18:11.000Z</time>
      </trkpt>
      <trkpt lat="43.4138721786439418792724609375" lon="-5.6117136776447296142578125">
        <ele>246.600006103515625</ele>
        <time>2022-06-04T10:18:13.000Z</time>
      </trkpt>
      <trkpt lat="43.4139419160783290863037109375" lon="-5.6116457842290401458740234375">
        <ele>247</ele>
        <time>2022-06-04T10:18:15.000Z</time>
      </trkpt>
      <trkpt lat="43.41401509009301662445068359375" lon="-5.6115800701081752777099609375">
        <ele>247</ele>
        <time>2022-06-04T10:18:17.000Z</time>
      </trkpt>
      <trkpt lat="43.41408935375511646270751953125" lon="-5.61151091940701007843017578125">
        <ele>247.1999969482421875</ele>
        <time>2022-06-04T10:18:19.000Z</time>
      </trkpt>
      <trkpt lat="43.41416127048432826995849609375" lon="-5.6114347279071807861328125">
        <ele>247.1999969482421875</ele>
        <time>2022-06-04T10:18:21.000Z</time>
      </trkpt>
      <trkpt lat="43.414227403700351715087890625" lon="-5.611350238323211669921875">
        <ele>247.1999969482421875</ele>
        <time>2022-06-04T10:18:23.000Z</time>
      </trkpt>
      <trkpt lat="43.4142825566232204437255859375" lon="-5.61125971376895904541015625">
        <ele>247.1999969482421875</ele>
        <time>2022-06-04T10:18:25.000Z</time>
      </trkpt>
      <trkpt lat="43.41434466652572154998779296875" lon="-5.6111579574644565582275390625">
        <ele>247.1999969482421875</ele>
        <time>2022-06-04T10:18:27.000Z</time>
      </trkpt>
      <trkpt lat="43.414414487779140472412109375" lon="-5.61107405461370944976806640625">
        <ele>247.1999969482421875</ele>
        <time>2022-06-04T10:18:29.000Z</time>
      </trkpt>
      <trkpt lat="43.41445514000952243804931640625" lon="-5.61103834770619869232177734375">
        <ele>247.1999969482421875</ele>
        <time>2022-06-04T10:18:30.000Z</time>
      </trkpt>
      <trkpt lat="43.41449755243957042694091796875" lon="-5.61101521365344524383544921875">
        <ele>247.399993896484375</ele>
        <time>2022-06-04T10:18:31.000Z</time>
      </trkpt>
      <trkpt lat="43.41458489187061786651611328125" lon="-5.61100758612155914306640625">
        <ele>247.399993896484375</ele>
        <time>2022-06-04T10:18:33.000Z</time>
      </trkpt>
      <trkpt lat="43.414629735052585601806640625" lon="-5.61101035214960575103759765625">
        <ele>247.399993896484375</ele>
        <time>2022-06-04T10:18:34.000Z</time>
      </trkpt>
      <trkpt lat="43.4146741591393947601318359375" lon="-5.611011274158954620361328125">
        <ele>247.600006103515625</ele>
        <time>2022-06-04T10:18:35.000Z</time>
      </trkpt>
      <trkpt lat="43.414761163294315338134765625" lon="-5.61101051978766918182373046875">
        <ele>248</ele>
        <time>2022-06-04T10:18:37.000Z</time>
      </trkpt>
      <trkpt lat="43.414852358400821685791015625" lon="-5.61100632883608341217041015625">
        <ele>248</ele>
        <time>2022-06-04T10:18:39.000Z</time>
      </trkpt>
      <trkpt lat="43.41489636339247226715087890625" lon="-5.61099576763808727264404296875">
        <ele>248</ele>
        <time>2022-06-04T10:18:40.000Z</time>
      </trkpt>
      <trkpt lat="43.4149396978318691253662109375" lon="-5.6109832786023616790771484375">
        <ele>248</ele>
        <time>2022-06-04T10:18:41.000Z</time>
      </trkpt>
      <trkpt lat="43.41502443887293338775634765625" lon="-5.61095285229384899139404296875">
        <ele>248.399993896484375</ele>
        <time>2022-06-04T10:18:43.000Z</time>
      </trkpt>
      <trkpt lat="43.415104486048221588134765625" lon="-5.61090876348316669464111328125">
        <ele>248.399993896484375</ele>
        <time>2022-06-04T10:18:45.000Z</time>
      </trkpt>
      <trkpt lat="43.415181934833526611328125" lon="-5.6108585558831691741943359375">
        <ele>248.600006103515625</ele>
        <time>2022-06-04T10:18:47.000Z</time>
      </trkpt>
      <trkpt lat="43.4152582101523876190185546875" lon="-5.61081002466380596160888671875">
        <ele>249.1999969482421875</ele>
        <time>2022-06-04T10:18:49.000Z</time>
      </trkpt>
      <trkpt lat="43.41533188708126544952392578125" lon="-5.61077062971889972686767578125">
        <ele>249.399993896484375</ele>
        <time>2022-06-04T10:18:51.000Z</time>
      </trkpt>
      <trkpt lat="43.41539508663117885589599609375" lon="-5.61072100885212421417236328125">
        <ele>249.600006103515625</ele>
        <time>2022-06-04T10:18:53.000Z</time>
      </trkpt>
      <trkpt lat="43.41545283794403076171875" lon="-5.61066032387316226959228515625">
        <ele>249.8000030517578125</ele>
        <time>2022-06-04T10:18:55.000Z</time>
      </trkpt>
      <trkpt lat="43.4155046381056308746337890625" lon="-5.6105920113623142242431640625">
        <ele>250</ele>
        <time>2022-06-04T10:18:57.000Z</time>
      </trkpt>
      <trkpt lat="43.41555316932499408721923828125" lon="-5.610516406595706939697265625">
        <ele>250.1999969482421875</ele>
        <time>2022-06-04T10:18:59.000Z</time>
      </trkpt>
      <trkpt lat="43.41557823121547698974609375" lon="-5.61048044823110103607177734375">
        <ele>250.399993896484375</ele>
        <time>2022-06-04T10:19:00.000Z</time>
      </trkpt>
      <trkpt lat="43.41560413129627704620361328125" lon="-5.61044566333293914794921875">
        <ele>250.8000030517578125</ele>
        <time>2022-06-04T10:19:01.000Z</time>
      </trkpt>
      <trkpt lat="43.41565308161079883575439453125" lon="-5.61037735082209110260009765625">
        <ele>251.399993896484375</ele>
        <time>2022-06-04T10:19:03.000Z</time>
      </trkpt>
      <trkpt lat="43.4156980924308300018310546875" lon="-5.61030878685414791107177734375">
        <ele>251.600006103515625</ele>
        <time>2022-06-04T10:19:05.000Z</time>
      </trkpt>
      <trkpt lat="43.41572164557874202728271484375" lon="-5.61027760617434978485107421875">
        <ele>251.8000030517578125</ele>
        <time>2022-06-04T10:19:06.000Z</time>
      </trkpt>
      <trkpt lat="43.415745534002780914306640625" lon="-5.61024843715131282806396484375">
        <ele>252</ele>
        <time>2022-06-04T10:19:07.000Z</time>
      </trkpt>
      <trkpt lat="43.415770344436168670654296875" lon="-5.61022127978503704071044921875">
        <ele>252.1999969482421875</ele>
        <time>2022-06-04T10:19:08.000Z</time>
      </trkpt>
      <trkpt lat="43.4157946519553661346435546875" lon="-5.6101960502564907073974609375">
        <ele>252.399993896484375</ele>
        <time>2022-06-04T10:19:09.000Z</time>
      </trkpt>
      <trkpt lat="43.4158382378518581390380859375" lon="-5.61014592647552490234375">
        <ele>252.600006103515625</ele>
        <time>2022-06-04T10:19:11.000Z</time>
      </trkpt>
      <trkpt lat="43.41586765833199024200439453125" lon="-5.61009806580841541290283203125">
        <ele>253</ele>
        <time>2022-06-04T10:19:13.000Z</time>
      </trkpt>
      <trkpt lat="43.41589473187923431396484375" lon="-5.610032938420772552490234375">
        <ele>253.399993896484375</ele>
        <time>2022-06-04T10:19:15.000Z</time>
      </trkpt>
      <trkpt lat="43.41592557728290557861328125" lon="-5.60996328480541706085205078125">
        <ele>254</ele>
        <time>2022-06-04T10:19:17.000Z</time>
      </trkpt>
      <trkpt lat="43.4159401617944240570068359375" lon="-5.6099326908588409423828125">
        <ele>254.1999969482421875</ele>
        <time>2022-06-04T10:19:18.000Z</time>
      </trkpt>
      <trkpt lat="43.41595700941979885101318359375" lon="-5.6099010072648525238037109375">
        <ele>254.399993896484375</ele>
        <time>2022-06-04T10:19:19.000Z</time>
      </trkpt>
      <trkpt lat="43.41599321924149990081787109375" lon="-5.609837472438812255859375">
        <ele>255</ele>
        <time>2022-06-04T10:19:21.000Z</time>
      </trkpt>
      <trkpt lat="43.41601006686687469482421875" lon="-5.6098098121583461761474609375">
        <ele>255.1999969482421875</ele>
        <time>2022-06-04T10:19:22.000Z</time>
      </trkpt>
      <trkpt lat="43.4160276688635349273681640625" lon="-5.60978374443948268890380859375">
        <ele>255.399993896484375</ele>
        <time>2022-06-04T10:19:23.000Z</time>
      </trkpt>
      <trkpt lat="43.41606915928423404693603515625" lon="-5.60973462648689746856689453125">
        <ele>255.8000030517578125</ele>
        <time>2022-06-04T10:19:25.000Z</time>
      </trkpt>
      <trkpt lat="43.41610402800142765045166015625" lon="-5.60967729426920413970947265625">
        <ele>256</ele>
        <time>2022-06-04T10:19:27.000Z</time>
      </trkpt>
      <trkpt lat="43.41612003743648529052734375" lon="-5.60964309610426425933837890625">
        <ele>256.20001220703125</ele>
        <time>2022-06-04T10:19:28.000Z</time>
      </trkpt>
      <trkpt lat="43.41613738797605037689208984375" lon="-5.609607808291912078857421875">
        <ele>256.399993896484375</ele>
        <time>2022-06-04T10:19:29.000Z</time>
      </trkpt>
      <trkpt lat="43.41617544181644916534423828125" lon="-5.60953815467655658721923828125">
        <ele>256.79998779296875</ele>
        <time>2022-06-04T10:19:31.000Z</time>
      </trkpt>
      <trkpt lat="43.41621014289557933807373046875" lon="-5.6094701774418354034423828125">
        <ele>257.20001220703125</ele>
        <time>2022-06-04T10:19:33.000Z</time>
      </trkpt>
      <trkpt lat="43.416224978864192962646484375" lon="-5.6094359792768955230712890625">
        <ele>257.399993896484375</ele>
        <time>2022-06-04T10:19:34.000Z</time>
      </trkpt>
      <trkpt lat="43.41623780317604541778564453125" lon="-5.60940236784517765045166015625">
        <ele>257.600006103515625</ele>
        <time>2022-06-04T10:19:35.000Z</time>
      </trkpt>
      <trkpt lat="43.41626462526619434356689453125" lon="-5.60933589935302734375">
        <ele>258</ele>
        <time>2022-06-04T10:19:37.000Z</time>
      </trkpt>
      <trkpt lat="43.41628390364348888397216796875" lon="-5.6092648208141326904296875">
        <ele>258.20001220703125</ele>
        <time>2022-06-04T10:19:39.000Z</time>
      </trkpt>
      <trkpt lat="43.41629228554666042327880859375" lon="-5.60918946750462055206298828125">
        <ele>258.399993896484375</ele>
        <time>2022-06-04T10:19:41.000Z</time>
      </trkpt>
      <trkpt lat="43.41629412956535816192626953125" lon="-5.60915149748325347900390625">
        <ele>258.600006103515625</ele>
        <time>2022-06-04T10:19:42.000Z</time>
      </trkpt>
      <trkpt lat="43.4162965603172779083251953125" lon="-5.60911453329026699066162109375">
        <ele>258.79998779296875</ele>
        <time>2022-06-04T10:19:43.000Z</time>
      </trkpt>
      <trkpt lat="43.41630217619240283966064453125" lon="-5.6090410239994525909423828125">
        <ele>258.79998779296875</ele>
        <time>2022-06-04T10:19:45.000Z</time>
      </trkpt>
      <trkpt lat="43.4163113124668598175048828125" lon="-5.608960725367069244384765625">
        <ele>259.20001220703125</ele>
        <time>2022-06-04T10:19:47.000Z</time>
      </trkpt>
      <trkpt lat="43.41631315648555755615234375" lon="-5.60892107896506786346435546875">
        <ele>259.399993896484375</ele>
        <time>2022-06-04T10:19:48.000Z</time>
      </trkpt>
      <trkpt lat="43.41631474904716014862060546875" lon="-5.608880259096622467041015625">
        <ele>259.600006103515625</ele>
        <time>2022-06-04T10:19:49.000Z</time>
      </trkpt>
      <trkpt lat="43.41631474904716014862060546875" lon="-5.608880259096622467041015625">
        <ele>259.600006103515625</ele>
        <time>2022-06-04T10:19:50.000Z</time>
      </trkpt>
      <trkpt lat="43.416324555873870849609375" lon="-5.60880306176841259002685546875">
        <ele>259.79998779296875</ele>
        <time>2022-06-04T10:19:51.000Z</time>
      </trkpt>
      <trkpt lat="43.416334949433803558349609375" lon="-5.60872443951666355133056640625">
        <ele>260</ele>
        <time>2022-06-04T10:19:53.000Z</time>
      </trkpt>
      <trkpt lat="43.416340649127960205078125" lon="-5.6086842902004718780517578125">
        <ele>260</ele>
        <time>2022-06-04T10:19:54.000Z</time>
      </trkpt>
      <trkpt lat="43.41634492389857769012451171875" lon="-5.608641542494297027587890625">
        <ele>260.20001220703125</ele>
        <time>2022-06-04T10:19:55.000Z</time>
      </trkpt>
      <trkpt lat="43.4163542278110980987548828125" lon="-5.60854774899780750274658203125">
        <ele>260.20001220703125</ele>
        <time>2022-06-04T10:19:57.000Z</time>
      </trkpt>
      <trkpt lat="43.4163726679980754852294921875" lon="-5.60844716615974903106689453125">
        <ele>260.399993896484375</ele>
        <time>2022-06-04T10:19:59.000Z</time>
      </trkpt>
      <trkpt lat="43.416379205882549285888671875" lon="-5.60839100740849971771240234375">
        <ele>260.399993896484375</ele>
        <time>2022-06-04T10:20:00.000Z</time>
      </trkpt>
      <trkpt lat="43.41637928970158100128173828125" lon="-5.60832596383988857269287109375">
        <ele>260.399993896484375</ele>
        <time>2022-06-04T10:20:01.000Z</time>
      </trkpt>
      <trkpt lat="43.416349031031131744384765625" lon="-5.608176179230213165283203125">
        <ele>260.399993896484375</ele>
        <time>2022-06-04T10:20:03.000Z</time>
      </trkpt>
      <trkpt lat="43.416322879493236541748046875" lon="-5.6080807931721210479736328125">
        <ele>260.399993896484375</ele>
        <time>2022-06-04T10:20:04.000Z</time>
      </trkpt>
      <trkpt lat="43.41628926806151866912841796875" lon="-5.607971660792827606201171875">
        <ele>260.20001220703125</ele>
        <time>2022-06-04T10:20:05.000Z</time>
      </trkpt>
      <trkpt lat="43.41622087173163890838623046875" lon="-5.6077223829925060272216796875">
        <ele>259.79998779296875</ele>
        <time>2022-06-04T10:20:07.000Z</time>
      </trkpt>
      <trkpt lat="43.41619907878339290618896484375" lon="-5.607588775455951690673828125">
        <ele>259.600006103515625</ele>
        <time>2022-06-04T10:20:08.000Z</time>
      </trkpt>
      <trkpt lat="43.416186757385730743408203125" lon="-5.6074704229831695556640625">
        <ele>259.399993896484375</ele>
        <time>2022-06-04T10:20:09.000Z</time>
      </trkpt>
      <trkpt lat="43.41619513928890228271484375" lon="-5.60727654956281185150146484375">
        <ele>258.600006103515625</ele>
        <time>2022-06-04T10:20:11.000Z</time>
      </trkpt>
      <trkpt lat="43.41622690670192241668701171875" lon="-5.6071396730840206146240234375">
        <ele>257</ele>
        <time>2022-06-04T10:20:13.000Z</time>
      </trkpt>
      <trkpt lat="43.41624551452696323394775390625" lon="-5.60702207498252391815185546875">
        <ele>256</ele>
        <time>2022-06-04T10:20:15.000Z</time>
      </trkpt>
      <trkpt lat="43.41626755893230438232421875" lon="-5.60692719183862209320068359375">
        <ele>255.8000030517578125</ele>
        <time>2022-06-04T10:20:17.000Z</time>
      </trkpt>
      <trkpt lat="43.416296057403087615966796875" lon="-5.60685016214847564697265625">
        <ele>255.8000030517578125</ele>
        <time>2022-06-04T10:20:19.000Z</time>
      </trkpt>
      <trkpt lat="43.416296057403087615966796875" lon="-5.60685016214847564697265625">
        <ele>255.8000030517578125</ele>
        <time>2022-06-04T10:20:20.000Z</time>
      </trkpt>
      <trkpt lat="43.41632254421710968017578125" lon="-5.6067785806953907012939453125">
        <ele>255.8000030517578125</ele>
        <time>2022-06-04T10:20:21.000Z</time>
      </trkpt>
      <trkpt lat="43.4163512103259563446044921875" lon="-5.60670171864330768585205078125">
        <ele>255.8000030517578125</ele>
        <time>2022-06-04T10:20:23.000Z</time>
      </trkpt>
      <trkpt lat="43.416385911405086517333984375" lon="-5.6066454760730266571044921875">
        <ele>256.20001220703125</ele>
        <time>2022-06-04T10:20:25.000Z</time>
      </trkpt>
      <trkpt lat="43.416385911405086517333984375" lon="-5.6066454760730266571044921875">
        <ele>256.399993896484375</ele>
        <time>2022-06-04T10:20:26.000Z</time>
      </trkpt>
      <trkpt lat="43.4164179302752017974853515625" lon="-5.60660767368972301483154296875">
        <ele>256.600006103515625</ele>
        <time>2022-06-04T10:20:27.000Z</time>
      </trkpt>
      <trkpt lat="43.41643494553864002227783203125" lon="-5.6065918318927288055419921875">
        <ele>257</ele>
        <time>2022-06-04T10:20:28.000Z</time>
      </trkpt>
      <trkpt lat="43.41645221225917339324951171875" lon="-5.6065733917057514190673828125">
        <ele>257.20001220703125</ele>
        <time>2022-06-04T10:20:29.000Z</time>
      </trkpt>
      <trkpt lat="43.41648976318538188934326171875" lon="-5.60654363594949245452880859375">
        <ele>257.79998779296875</ele>
        <time>2022-06-04T10:20:31.000Z</time>
      </trkpt>
      <trkpt lat="43.41650686226785182952880859375" lon="-5.6065311469137668609619140625">
        <ele>258.20001220703125</ele>
        <time>2022-06-04T10:20:32.000Z</time>
      </trkpt>
      <trkpt lat="43.4165238775312900543212890625" lon="-5.60651882551610469818115234375">
        <ele>258.600006103515625</ele>
        <time>2022-06-04T10:20:33.000Z</time>
      </trkpt>
      <trkpt lat="43.416558243334293365478515625" lon="-5.60648932121694087982177734375">
        <ele>259.20001220703125</ele>
        <time>2022-06-04T10:20:35.000Z</time>
      </trkpt>
      <trkpt lat="43.416574336588382720947265625" lon="-5.60647088102996349334716796875">
        <ele>259.399993896484375</ele>
        <time>2022-06-04T10:20:36.000Z</time>
      </trkpt>
      <trkpt lat="43.41658934019505977630615234375" lon="-5.60645260848104953765869140625">
        <ele>259.79998779296875</ele>
        <time>2022-06-04T10:20:37.000Z</time>
      </trkpt>
      <trkpt lat="43.4166036732494831085205078125" lon="-5.60643685050308704376220703125">
        <ele>260</ele>
        <time>2022-06-04T10:20:38.000Z</time>
      </trkpt>
      <trkpt lat="43.416616916656494140625" lon="-5.6064241938292980194091796875">
        <ele>260.20001220703125</ele>
        <time>2022-06-04T10:20:39.000Z</time>
      </trkpt>
      <trkpt lat="43.4166298247873783111572265625" lon="-5.60641271062195301055908203125">
        <ele>260.600006103515625</ele>
        <time>2022-06-04T10:20:40.000Z</time>
      </trkpt>
      <trkpt lat="43.41664650477468967437744140625" lon="-5.60640231706202030181884765625">
        <ele>260.79998779296875</ele>
        <time>2022-06-04T10:20:41.000Z</time>
      </trkpt>
      <trkpt lat="43.41667735017836093902587890625" lon="-5.60637750662863254547119140625">
        <ele>261.399993896484375</ele>
        <time>2022-06-04T10:20:43.000Z</time>
      </trkpt>
      <trkpt lat="43.416695035994052886962890625" lon="-5.6063648499548435211181640625">
        <ele>261.600006103515625</ele>
        <time>2022-06-04T10:20:44.000Z</time>
      </trkpt>
      <trkpt lat="43.416711799800395965576171875" lon="-5.60635202564299106597900390625">
        <ele>261.79998779296875</ele>
        <time>2022-06-04T10:20:45.000Z</time>
      </trkpt>
      <trkpt lat="43.41672579757869243621826171875" lon="-5.6063366867601871490478515625">
        <ele>262</ele>
        <time>2022-06-04T10:20:46.000Z</time>
      </trkpt>
      <trkpt lat="43.416737951338291168212890625" lon="-5.60631665401160717010498046875">
        <ele>262.20001220703125</ele>
        <time>2022-06-04T10:20:47.000Z</time>
      </trkpt>
      <trkpt lat="43.4167602472007274627685546875" lon="-5.606269799172878265380859375">
        <ele>262.600006103515625</ele>
        <time>2022-06-04T10:20:49.000Z</time>
      </trkpt>
      <trkpt lat="43.41677206568419933319091796875" lon="-5.606247000396251678466796875">
        <ele>262.600006103515625</ele>
        <time>2022-06-04T10:20:50.000Z</time>
      </trkpt>
      <trkpt lat="43.416786231100559234619140625" lon="-5.60622495599091053009033203125">
        <ele>262.79998779296875</ele>
        <time>2022-06-04T10:20:51.000Z</time>
      </trkpt>
      <trkpt lat="43.41681296937167644500732421875" lon="-5.60618371702730655670166015625">
        <ele>263.399993896484375</ele>
        <time>2022-06-04T10:20:53.000Z</time>
      </trkpt>
      <trkpt lat="43.416831828653812408447265625" lon="-5.60613929294049739837646484375">
        <ele>263.600006103515625</ele>
        <time>2022-06-04T10:20:55.000Z</time>
      </trkpt>
      <trkpt lat="43.41684096492826938629150390625" lon="-5.6061159074306488037109375">
        <ele>263.79998779296875</ele>
        <time>2022-06-04T10:20:56.000Z</time>
      </trkpt>
      <trkpt lat="43.41685035265982151031494140625" lon="-5.60609218664467334747314453125">
        <ele>264.20001220703125</ele>
        <time>2022-06-04T10:20:57.000Z</time>
      </trkpt>
      <trkpt lat="43.41686460189521312713623046875" lon="-5.60605530627071857452392578125">
        <ele>264.600006103515625</ele>
        <time>2022-06-04T10:20:59.000Z</time>
      </trkpt>
      <trkpt lat="43.41687281616032123565673828125" lon="-5.60603837482631206512451171875">
        <ele>264.79998779296875</ele>
        <time>2022-06-04T10:21:00.000Z</time>
      </trkpt>
      <trkpt lat="43.4168775938451290130615234375" lon="-5.60602697543799877166748046875">
        <ele>265</ele>
        <time>2022-06-04T10:21:01.000Z</time>
      </trkpt>
      <trkpt lat="43.4168953634798526763916015625" lon="-5.60599344782531261444091796875">
        <ele>265.399993896484375</ele>
        <time>2022-06-04T10:21:03.000Z</time>
      </trkpt>
      <trkpt lat="43.41691237874329090118408203125" lon="-5.605962015688419342041015625">
        <ele>265.79998779296875</ele>
        <time>2022-06-04T10:21:05.000Z</time>
      </trkpt>
      <trkpt lat="43.41692201793193817138671875" lon="-5.60594533570110797882080078125">
        <ele>266</ele>
        <time>2022-06-04T10:21:06.000Z</time>
      </trkpt>
      <trkpt lat="43.41693266294896602630615234375" lon="-5.60592957772314548492431640625">
        <ele>266.20001220703125</ele>
        <time>2022-06-04T10:21:07.000Z</time>
      </trkpt>
      <trkpt lat="43.41695009730756282806396484375" lon="-5.60589529573917388916015625">
        <ele>266.79998779296875</ele>
        <time>2022-06-04T10:21:09.000Z</time>
      </trkpt>
      <trkpt lat="43.41696359217166900634765625" lon="-5.60586000792682170867919921875">
        <ele>267.399993896484375</ele>
        <time>2022-06-04T10:21:11.000Z</time>
      </trkpt>
      <trkpt lat="43.41697842814028263092041015625" lon="-5.60582279227674007415771484375">
        <ele>268</ele>
        <time>2022-06-04T10:21:13.000Z</time>
      </trkpt>
      <trkpt lat="43.4169956110417842864990234375" lon="-5.6057908572256565093994140625">
        <ele>268.399993896484375</ele>
        <time>2022-06-04T10:21:15.000Z</time>
      </trkpt>
      <trkpt lat="43.41701178811490535736083984375" lon="-5.60576126910746097564697265625">
        <ele>269</ele>
        <time>2022-06-04T10:21:17.000Z</time>
      </trkpt>
      <trkpt lat="43.41701799072325229644775390625" lon="-5.60572975315153598785400390625">
        <ele>270</ele>
        <time>2022-06-04T10:21:19.000Z</time>
      </trkpt>
      <trkpt lat="43.41703576035797595977783203125" lon="-5.60569153167307376861572265625">
        <ele>270.600006103515625</ele>
        <time>2022-06-04T10:21:21.000Z</time>
      </trkpt>
      <trkpt lat="43.4170566312968730926513671875" lon="-5.60566018335521221160888671875">
        <ele>271</ele>
        <time>2022-06-04T10:21:23.000Z</time>
      </trkpt>
      <trkpt lat="43.41706710867583751678466796875" lon="-5.60565029270946979522705078125">
        <ele>271.399993896484375</ele>
        <time>2022-06-04T10:21:24.000Z</time>
      </trkpt>
      <trkpt lat="43.417077921330928802490234375" lon="-5.605644173920154571533203125">
        <ele>271.79998779296875</ele>
        <time>2022-06-04T10:21:25.000Z</time>
      </trkpt>
      <trkpt lat="43.41709099709987640380859375" lon="-5.605640150606632232666015625">
        <ele>272</ele>
        <time>2022-06-04T10:21:26.000Z</time>
      </trkpt>
      <trkpt lat="43.41710398904979228973388671875" lon="-5.6056389771401882171630859375">
        <ele>272.399993896484375</ele>
        <time>2022-06-04T10:21:27.000Z</time>
      </trkpt>
      <trkpt lat="43.4171300567686557769775390625" lon="-5.6056406535208225250244140625">
        <ele>273.20001220703125</ele>
        <time>2022-06-04T10:21:29.000Z</time>
      </trkpt>
      <trkpt lat="43.41714003123342990875244140625" lon="-5.60563914477825164794921875">
        <ele>273.399993896484375</ele>
        <time>2022-06-04T10:21:30.000Z</time>
      </trkpt>
      <trkpt lat="43.41715109534561634063720703125" lon="-5.6056373007595539093017578125">
        <ele>273.600006103515625</ele>
        <time>2022-06-04T10:21:31.000Z</time>
      </trkpt>
      <trkpt lat="43.4171759895980358123779296875" lon="-5.6056332774460315704345703125">
        <ele>274.20001220703125</ele>
        <time>2022-06-04T10:21:33.000Z</time>
      </trkpt>
      <trkpt lat="43.41720188967883586883544921875" lon="-5.60562682338058948516845703125">
        <ele>274.79998779296875</ele>
        <time>2022-06-04T10:21:35.000Z</time>
      </trkpt>
      <trkpt lat="43.417223431169986724853515625" lon="-5.60561835765838623046875">
        <ele>275.20001220703125</ele>
        <time>2022-06-04T10:21:37.000Z</time>
      </trkpt>
      <trkpt lat="43.4172363393008708953857421875" lon="-5.60561642982065677642822265625">
        <ele>275.399993896484375</ele>
        <time>2022-06-04T10:21:38.000Z</time>
      </trkpt>
      <trkpt lat="43.41724748723208904266357421875" lon="-5.60561391524970531463623046875">
        <ele>275.79998779296875</ele>
        <time>2022-06-04T10:21:39.000Z</time>
      </trkpt>
      <trkpt lat="43.4172705374658107757568359375" lon="-5.6056081317365169525146484375">
        <ele>276.20001220703125</ele>
        <time>2022-06-04T10:21:41.000Z</time>
      </trkpt>
      <trkpt lat="43.417280428111553192138671875" lon="-5.6056057848036289215087890625">
        <ele>276.399993896484375</ele>
        <time>2022-06-04T10:21:42.000Z</time>
      </trkpt>
      <trkpt lat="43.41729073785245418548583984375" lon="-5.6056007556617259979248046875">
        <ele>276.79998779296875</ele>
        <time>2022-06-04T10:21:43.000Z</time>
      </trkpt>
      <trkpt lat="43.41729995794594287872314453125" lon="-5.60559296049177646636962890625">
        <ele>277</ele>
        <time>2022-06-04T10:21:44.000Z</time>
      </trkpt>
      <trkpt lat="43.41730733402073383331298828125" lon="-5.60558591969311237335205078125">
        <ele>277.399993896484375</ele>
        <time>2022-06-04T10:21:45.000Z</time>
      </trkpt>
      <trkpt lat="43.41731420718133449554443359375" lon="-5.60557611286640167236328125">
        <ele>277.600006103515625</ele>
        <time>2022-06-04T10:21:46.000Z</time>
      </trkpt>
      <trkpt lat="43.4173204936087131500244140625" lon="-5.60556312091648578643798828125">
        <ele>278.20001220703125</ele>
        <time>2022-06-04T10:21:47.000Z</time>
      </trkpt>
      <trkpt lat="43.41733097098767757415771484375" lon="-5.60553512535989284515380859375">
        <ele>278.79998779296875</ele>
        <time>2022-06-04T10:21:49.000Z</time>
      </trkpt>
      <trkpt lat="43.417333401739597320556640625" lon="-5.6054984964430332183837890625">
        <ele>279.600006103515625</ele>
        <time>2022-06-04T10:21:51.000Z</time>
      </trkpt>
      <trkpt lat="43.41733046807348728179931640625" lon="-5.605481229722499847412109375">
        <ele>279.79998779296875</ele>
        <time>2022-06-04T10:21:52.000Z</time>
      </trkpt>
      <trkpt lat="43.41733164153993129730224609375" lon="-5.60546203516423702239990234375">
        <ele>280.20001220703125</ele>
        <time>2022-06-04T10:21:53.000Z</time>
      </trkpt>
      <trkpt lat="43.41733776032924652099609375" lon="-5.6054217182099819183349609375">
        <ele>280.600006103515625</ele>
        <time>2022-06-04T10:21:55.000Z</time>
      </trkpt>
      <trkpt lat="43.4173451364040374755859375" lon="-5.605388693511486053466796875">
        <ele>281.20001220703125</ele>
        <time>2022-06-04T10:21:57.000Z</time>
      </trkpt>
      <trkpt lat="43.41735159046947956085205078125" lon="-5.6053714267909526824951171875">
        <ele>281.600006103515625</ele>
        <time>2022-06-04T10:21:58.000Z</time>
      </trkpt>
      <trkpt lat="43.4173570387065410614013671875" lon="-5.60535290278494358062744140625">
        <ele>281.79998779296875</ele>
        <time>2022-06-04T10:21:59.000Z</time>
      </trkpt>
      <trkpt lat="43.41736215166747570037841796875" lon="-5.6053335405886173248291015625">
        <ele>282.20001220703125</ele>
        <time>2022-06-04T10:22:00.000Z</time>
      </trkpt>
      <trkpt lat="43.41736315749585628509521484375" lon="-5.60531535185873508453369140625">
        <ele>282.600006103515625</ele>
        <time>2022-06-04T10:22:01.000Z</time>
      </trkpt>
      <trkpt lat="43.41735343448817729949951171875" lon="-5.6052778847515583038330078125">
        <ele>283</ele>
        <time>2022-06-04T10:22:03.000Z</time>
      </trkpt>
      <trkpt lat="43.4173318929970264434814453125" lon="-5.60524745844304561614990234375">
        <ele>284</ele>
        <time>2022-06-04T10:22:05.000Z</time>
      </trkpt>
      <trkpt lat="43.41732208617031574249267578125" lon="-5.605237148702144622802734375">
        <ele>284.20001220703125</ele>
        <time>2022-06-04T10:22:06.000Z</time>
      </trkpt>
      <trkpt lat="43.4173156321048736572265625" lon="-5.60522432439029216766357421875">
        <ele>284.399993896484375</ele>
        <time>2022-06-04T10:22:07.000Z</time>
      </trkpt>
      <trkpt lat="43.41731320135295391082763671875" lon="-5.60521225444972515106201171875">
        <ele>284.79998779296875</ele>
        <time>2022-06-04T10:22:09.000Z</time>
      </trkpt>
      <trkpt lat="43.417311944067478179931640625" lon="-5.60520940460264682769775390625">
        <ele>284.79998779296875</ele>
        <time>2022-06-04T10:22:10.000Z</time>
      </trkpt>
      <trkpt lat="43.4173218347132205963134765625" lon="-5.605203621089458465576171875">
        <ele>284.399993896484375</ele>
        <time>2022-06-04T10:27:05.000Z</time>
      </trkpt>
      <trkpt lat="43.41730783693492412567138671875" lon="-5.605175457894802093505859375">
        <ele>284.399993896484375</ele>
        <time>2022-06-04T10:27:07.000Z</time>
      </trkpt>
      <trkpt lat="43.417295180261135101318359375" lon="-5.60516037046909332275390625">
        <ele>284.399993896484375</ele>
        <time>2022-06-04T10:27:09.000Z</time>
      </trkpt>
      <trkpt lat="43.41729442588984966278076171875" lon="-5.6051583588123321533203125">
        <ele>284.399993896484375</ele>
        <time>2022-06-04T10:27:10.000Z</time>
      </trkpt>
      <trkpt lat="43.4148025698959827423095703125" lon="-5.60118131339550018310546875">
        <ele>284.79998779296875</ele>
        <time>2022-06-04T10:35:46.000Z</time>
      </trkpt>
      <trkpt lat="43.41479544527828693389892578125" lon="-5.6011216342449188232421875">
        <ele>284.399993896484375</ele>
        <time>2022-06-04T10:35:47.000Z</time>
      </trkpt>
      <trkpt lat="43.4147609956562519073486328125" lon="-5.6008653156459331512451171875">
        <ele>284.399993896484375</ele>
        <time>2022-06-04T10:35:51.000Z</time>
      </trkpt>
      <trkpt lat="43.4147432260215282440185546875" lon="-5.60074017383158206939697265625">
        <ele>284.399993896484375</ele>
        <time>2022-06-04T10:35:53.000Z</time>
      </trkpt>
      <trkpt lat="43.414722941815853118896484375" lon="-5.60055862180888652801513671875">
        <ele>284.600006103515625</ele>
        <time>2022-06-04T10:35:57.000Z</time>
      </trkpt>
      <trkpt lat="43.4146936051547527313232421875" lon="-5.60043674893677234649658203125">
        <ele>284.399993896484375</ele>
        <time>2022-06-04T10:35:59.000Z</time>
      </trkpt>
      <trkpt lat="43.4146902523934841156005859375" lon="-5.6003959290683269500732421875">
        <ele>284.600006103515625</ele>
        <time>2022-06-04T10:36:04.000Z</time>
      </trkpt>
      <trkpt lat="43.4146577306091785430908203125" lon="-5.6002132035791873931884765625">
        <ele>283.79998779296875</ele>
        <time>2022-06-04T10:37:05.000Z</time>
      </trkpt>
      <trkpt lat="43.41462981887161731719970703125" lon="-5.60012259520590305328369140625">
        <ele>284</ele>
        <time>2022-06-04T10:37:06.000Z</time>
      </trkpt>
      <trkpt lat="43.414610959589481353759765625" lon="-5.60005906037986278533935546875">
        <ele>283.79998779296875</ele>
        <time>2022-06-04T10:37:07.000Z</time>
      </trkpt>
      <trkpt lat="43.414586484432220458984375" lon="-5.5999862216413021087646484375">
        <ele>283.79998779296875</ele>
        <time>2022-06-04T10:37:09.000Z</time>
      </trkpt>
      <trkpt lat="43.4145330078899860382080078125" lon="-5.59983828105032444000244140625">
        <ele>283.79998779296875</ele>
        <time>2022-06-04T10:37:10.000Z</time>
      </trkpt>
      <trkpt lat="43.4145046770572662353515625" lon="-5.599767453968524932861328125">
        <ele>283.79998779296875</ele>
        <time>2022-06-04T10:37:11.000Z</time>
      </trkpt>
      <trkpt lat="43.4144498594105243682861328125" lon="-5.59962521307170391082763671875">
        <ele>283.79998779296875</ele>
        <time>2022-06-04T10:37:13.000Z</time>
      </trkpt>
      <trkpt lat="43.41438339091837406158447265625" lon="-5.59947953559458255767822265625">
        <ele>284</ele>
        <time>2022-06-04T10:37:15.000Z</time>
      </trkpt>
      <trkpt lat="43.41431717388331890106201171875" lon="-5.599339306354522705078125">
        <ele>284</ele>
        <time>2022-06-04T10:37:17.000Z</time>
      </trkpt>
      <trkpt lat="43.41428599320352077484130859375" lon="-5.59927417896687984466552734375">
        <ele>284</ele>
        <time>2022-06-04T10:37:18.000Z</time>
      </trkpt>
      <trkpt lat="43.41425456106662750244140625" lon="-5.5992103926837444305419921875">
        <ele>284</ele>
        <time>2022-06-04T10:37:19.000Z</time>
      </trkpt>
      <trkpt lat="43.4141923673450946807861328125" lon="-5.5990866757929325103759765625">
        <ele>284.20001220703125</ele>
        <time>2022-06-04T10:37:21.000Z</time>
      </trkpt>
      <trkpt lat="43.4141238033771514892578125" lon="-5.5989599414169788360595703125">
        <ele>284.20001220703125</ele>
        <time>2022-06-04T10:37:23.000Z</time>
      </trkpt>
      <trkpt lat="43.41405834071338176727294921875" lon="-5.5988291837275028228759765625">
        <ele>284.20001220703125</ele>
        <time>2022-06-04T10:37:25.000Z</time>
      </trkpt>
      <trkpt lat="43.41405834071338176727294921875" lon="-5.5988291837275028228759765625">
        <ele>284.399993896484375</ele>
        <time>2022-06-04T10:37:26.000Z</time>
      </trkpt>
      <trkpt lat="43.41399698518216609954833984375" lon="-5.59870102442800998687744140625">
        <ele>284.399993896484375</ele>
        <time>2022-06-04T10:37:27.000Z</time>
      </trkpt>
      <trkpt lat="43.413969911634922027587890625" lon="-5.59863899834454059600830078125">
        <ele>284.399993896484375</ele>
        <time>2022-06-04T10:37:29.000Z</time>
      </trkpt>
      <trkpt lat="43.413915596902370452880859375" lon="-5.59852299280464649200439453125">
        <ele>284.399993896484375</ele>
        <time>2022-06-04T10:37:31.000Z</time>
      </trkpt>
      <trkpt lat="43.41383856721222400665283203125" lon="-5.598340518772602081298828125">
        <ele>284.399993896484375</ele>
        <time>2022-06-04T10:37:33.000Z</time>
      </trkpt>
      <trkpt lat="43.41378659941256046295166015625" lon="-5.598217807710170745849609375">
        <ele>284.600006103515625</ele>
        <time>2022-06-04T10:37:35.000Z</time>
      </trkpt>
      <trkpt lat="43.4137414209544658660888671875" lon="-5.59807003475725650787353515625">
        <ele>284.600006103515625</ele>
        <time>2022-06-04T10:37:37.000Z</time>
      </trkpt>
      <trkpt lat="43.41372122056782245635986328125" lon="-5.5979950167238712310791015625">
        <ele>284.600006103515625</ele>
        <time>2022-06-04T10:37:39.000Z</time>
      </trkpt>
      <trkpt lat="43.413686938583850860595703125" lon="-5.597833581268787384033203125">
        <ele>284.79998779296875</ele>
        <time>2022-06-04T10:37:41.000Z</time>
      </trkpt>
      <trkpt lat="43.41366271488368511199951171875" lon="-5.59767189435660839080810546875">
        <ele>284.79998779296875</ele>
        <time>2022-06-04T10:37:42.000Z</time>
      </trkpt>
      <trkpt lat="43.4136576019227504730224609375" lon="-5.59759411029517650604248046875">
        <ele>284.79998779296875</ele>
        <time>2022-06-04T10:37:43.000Z</time>
      </trkpt>
      <trkpt lat="43.4136544167995452880859375" lon="-5.59743963181972503662109375">
        <ele>284.79998779296875</ele>
        <time>2022-06-04T10:37:45.000Z</time>
      </trkpt>
      <trkpt lat="43.41365215368568897247314453125" lon="-5.597279369831085205078125">
        <ele>284.79998779296875</ele>
        <time>2022-06-04T10:37:47.000Z</time>
      </trkpt>
      <trkpt lat="43.4136512316763401031494140625" lon="-5.59720267541706562042236328125">
        <ele>284.79998779296875</ele>
        <time>2022-06-04T10:37:49.000Z</time>
      </trkpt>
      <trkpt lat="43.413664139807224273681640625" lon="-5.59698105789721012115478515625">
        <ele>284.79998779296875</ele>
        <time>2022-06-04T10:37:51.000Z</time>
      </trkpt>
      <trkpt lat="43.4136757068336009979248046875" lon="-5.59691081754863262176513671875">
        <ele>284.79998779296875</ele>
        <time>2022-06-04T10:37:52.000Z</time>
      </trkpt>
      <trkpt lat="43.4136757068336009979248046875" lon="-5.59691081754863262176513671875">
        <ele>284.79998779296875</ele>
        <time>2022-06-04T10:37:53.000Z</time>
      </trkpt>
      <trkpt lat="43.41370982117950916290283203125" lon="-5.5967772938311100006103515625">
        <ele>284.79998779296875</ele>
        <time>2022-06-04T10:37:54.000Z</time>
      </trkpt>
      <trkpt lat="43.41373178176581859588623046875" lon="-5.59670914895832538604736328125">
        <ele>284.79998779296875</ele>
        <time>2022-06-04T10:37:55.000Z</time>
      </trkpt>
      <trkpt lat="43.41377268545329570770263671875" lon="-5.59656213037669658660888671875">
        <ele>285</ele>
        <time>2022-06-04T10:37:57.000Z</time>
      </trkpt>
      <trkpt lat="43.4137913770973682403564453125" lon="-5.59649121947586536407470703125">
        <ele>285</ele>
        <time>2022-06-04T10:37:59.000Z</time>
      </trkpt>
      <trkpt lat="43.41382666490972042083740234375" lon="-5.5963571928441524505615234375">
        <ele>285</ele>
        <time>2022-06-04T10:38:01.000Z</time>
      </trkpt>
      <trkpt lat="43.4138705022633075714111328125" lon="-5.596230290830135345458984375">
        <ele>285.20001220703125</ele>
        <time>2022-06-04T10:38:03.000Z</time>
      </trkpt>
      <trkpt lat="43.413918949663639068603515625" lon="-5.59610464610159397125244140625">
        <ele>285.20001220703125</ele>
        <time>2022-06-04T10:38:04.000Z</time>
      </trkpt>
      <trkpt lat="43.413918949663639068603515625" lon="-5.59610464610159397125244140625">
        <ele>285.20001220703125</ele>
        <time>2022-06-04T10:38:05.000Z</time>
      </trkpt>
      <trkpt lat="43.41397116892039775848388671875" lon="-5.59597640298306941986083984375">
        <ele>285.20001220703125</ele>
        <time>2022-06-04T10:38:07.000Z</time>
      </trkpt>
      <trkpt lat="43.41404157690703868865966796875" lon="-5.5958081781864166259765625">
        <ele>285.20001220703125</ele>
        <time>2022-06-04T10:38:09.000Z</time>
      </trkpt>
      <trkpt lat="43.41410041786730289459228515625" lon="-5.59570432640612125396728515625">
        <ele>285.20001220703125</ele>
        <time>2022-06-04T10:38:11.000Z</time>
      </trkpt>
      <trkpt lat="43.41416143812239170074462890625" lon="-5.5955944396555423736572265625">
        <ele>285.399993896484375</ele>
        <time>2022-06-04T10:38:13.000Z</time>
      </trkpt>
      <trkpt lat="43.414232097566127777099609375" lon="-5.5954871512949466705322265625">
        <ele>285.399993896484375</ele>
        <time>2022-06-04T10:38:15.000Z</time>
      </trkpt>
      <trkpt lat="43.4142671339213848114013671875" lon="-5.595422945916652679443359375">
        <ele>285.399993896484375</ele>
        <time>2022-06-04T10:38:16.000Z</time>
      </trkpt>
      <trkpt lat="43.414299823343753814697265625" lon="-5.59534558095037937164306640625">
        <ele>285.399993896484375</ele>
        <time>2022-06-04T10:38:17.000Z</time>
      </trkpt>
      <trkpt lat="43.41436411254107952117919921875" lon="-5.595176182687282562255859375">
        <ele>285.399993896484375</ele>
        <time>2022-06-04T10:38:19.000Z</time>
      </trkpt>
      <trkpt lat="43.414425551891326904296875" lon="-5.5950150825083255767822265625">
        <ele>285.399993896484375</ele>
        <time>2022-06-04T10:38:21.000Z</time>
      </trkpt>
      <trkpt lat="43.41448531486093997955322265625" lon="-5.59485758654773235321044921875">
        <ele>285.20001220703125</ele>
        <time>2022-06-04T10:38:23.000Z</time>
      </trkpt>
      <trkpt lat="43.414543569087982177734375" lon="-5.5947079695761203765869140625">
        <ele>285.20001220703125</ele>
        <time>2022-06-04T10:38:25.000Z</time>
      </trkpt>
      <trkpt lat="43.41459880582988262176513671875" lon="-5.5945601128041744232177734375">
        <ele>285</ele>
        <time>2022-06-04T10:38:27.000Z</time>
      </trkpt>
      <trkpt lat="43.4146553836762905120849609375" lon="-5.59440865181386470794677734375">
        <ele>285</ele>
        <time>2022-06-04T10:38:29.000Z</time>
      </trkpt>
      <trkpt lat="43.414681367576122283935546875" lon="-5.5943334661424160003662109375">
        <ele>284.79998779296875</ele>
        <time>2022-06-04T10:38:31.000Z</time>
      </trkpt>
      <trkpt lat="43.4147251211106777191162109375" lon="-5.59418284334242343902587890625">
        <ele>284.79998779296875</ele>
        <time>2022-06-04T10:38:33.000Z</time>
      </trkpt>
      <trkpt lat="43.41476325877010822296142578125" lon="-5.5940431170165538787841796875">
        <ele>284.79998779296875</ele>
        <time>2022-06-04T10:38:34.000Z</time>
      </trkpt>
      <trkpt lat="43.41477759182453155517578125" lon="-5.59397597797214984893798828125">
        <ele>284.79998779296875</ele>
        <time>2022-06-04T10:38:35.000Z</time>
      </trkpt>
      <trkpt lat="43.4147970378398895263671875" lon="-5.5939073301851749420166015625">
        <ele>285</ele>
        <time>2022-06-04T10:38:37.000Z</time>
      </trkpt>
      <trkpt lat="43.41484121046960353851318359375" lon="-5.59369518421590328216552734375">
        <ele>285.20001220703125</ele>
        <time>2022-06-04T10:38:39.000Z</time>
      </trkpt>
      <trkpt lat="43.414850346744060516357421875" lon="-5.59362125582993030548095703125">
        <ele>285.399993896484375</ele>
        <time>2022-06-04T10:38:40.000Z</time>
      </trkpt>
      <trkpt lat="43.41485646553337574005126953125" lon="-5.5935524404048919677734375">
        <ele>285.399993896484375</ele>
        <time>2022-06-04T10:38:41.000Z</time>
      </trkpt>
      <trkpt lat="43.41486208140850067138671875" lon="-5.59349234215915203094482421875">
        <ele>285.600006103515625</ele>
        <time>2022-06-04T10:38:43.000Z</time>
      </trkpt>
      <trkpt lat="43.4148721396923065185546875" lon="-5.5934215150773525238037109375">
        <ele>285.79998779296875</ele>
        <time>2022-06-04T10:38:44.000Z</time>
      </trkpt>
      <trkpt lat="43.41488194651901721954345703125" lon="-5.593277178704738616943359375">
        <ele>285.79998779296875</ele>
        <time>2022-06-04T10:38:45.000Z</time>
      </trkpt>
      <trkpt lat="43.41488060541450977325439453125" lon="-5.59320366941392421722412109375">
        <ele>285.79998779296875</ele>
        <time>2022-06-04T10:38:46.000Z</time>
      </trkpt>
      <trkpt lat="43.4148770011961460113525390625" lon="-5.59312798082828521728515625">
        <ele>286</ele>
        <time>2022-06-04T10:38:47.000Z</time>
      </trkpt>
      <trkpt lat="43.41487272642552852630615234375" lon="-5.59305497445166110992431640625">
        <ele>286</ele>
        <time>2022-06-04T10:38:48.000Z</time>
      </trkpt>
      <trkpt lat="43.41486769728362560272216796875" lon="-5.592987835407257080078125">
        <ele>286</ele>
        <time>2022-06-04T10:38:49.000Z</time>
      </trkpt>
      <trkpt lat="43.41485059820115566253662109375" lon="-5.59284660033881664276123046875">
        <ele>286</ele>
        <time>2022-06-04T10:38:51.000Z</time>
      </trkpt>
      <trkpt lat="43.41484053991734981536865234375" lon="-5.59277795255184173583984375">
        <ele>286.20001220703125</ele>
        <time>2022-06-04T10:38:52.000Z</time>
      </trkpt>
      <trkpt lat="43.41484053991734981536865234375" lon="-5.59277795255184173583984375">
        <ele>286.20001220703125</ele>
        <time>2022-06-04T10:38:53.000Z</time>
      </trkpt>
      <trkpt lat="43.4148012287914752960205078125" lon="-5.5926289223134517669677734375">
        <ele>286.20001220703125</ele>
        <time>2022-06-04T10:38:54.000Z</time>
      </trkpt>
      <trkpt lat="43.41476158238947391510009765625" lon="-5.59253714047372341156005859375">
        <ele>286.20001220703125</ele>
        <time>2022-06-04T10:38:55.000Z</time>
      </trkpt>
      <trkpt lat="43.41476158238947391510009765625" lon="-5.59253714047372341156005859375">
        <ele>286.20001220703125</ele>
        <time>2022-06-04T10:38:56.000Z</time>
      </trkpt>
      <trkpt lat="43.41469268314540386199951171875" lon="-5.592349804937839508056640625">
        <ele>286.20001220703125</ele>
        <time>2022-06-04T10:38:57.000Z</time>
      </trkpt>
      <trkpt lat="43.41462747193872928619384765625" lon="-5.59215760789811611175537109375">
        <ele>286.20001220703125</ele>
        <time>2022-06-04T10:38:59.000Z</time>
      </trkpt>
      <trkpt lat="43.4145605005323886871337890625" lon="-5.5919707752764225006103515625">
        <ele>286.20001220703125</ele>
        <time>2022-06-04T10:39:01.000Z</time>
      </trkpt>
      <trkpt lat="43.4145605005323886871337890625" lon="-5.5919707752764225006103515625">
        <ele>286.20001220703125</ele>
        <time>2022-06-04T10:39:02.000Z</time>
      </trkpt>
      <trkpt lat="43.41449218802154064178466796875" lon="-5.5918011255562305450439453125">
        <ele>286</ele>
        <time>2022-06-04T10:39:03.000Z</time>
      </trkpt>
      <trkpt lat="43.41441306285560131072998046875" lon="-5.5916465632617473602294921875">
        <ele>285.79998779296875</ele>
        <time>2022-06-04T10:39:05.000Z</time>
      </trkpt>
      <trkpt lat="43.41437484137713909149169921875" lon="-5.59157255105674266815185546875">
        <ele>285.600006103515625</ele>
        <time>2022-06-04T10:39:06.000Z</time>
      </trkpt>
      <trkpt lat="43.41433460824191570281982421875" lon="-5.59149376116693019866943359375">
        <ele>285.600006103515625</ele>
        <time>2022-06-04T10:39:07.000Z</time>
      </trkpt>
      <trkpt lat="43.41429605148732662200927734375" lon="-5.5914182402193546295166015625">
        <ele>285.600006103515625</ele>
        <time>2022-06-04T10:39:09.000Z</time>
      </trkpt>
      <trkpt lat="43.41417686082422733306884765625" lon="-5.5911962874233722686767578125">
        <ele>285.600006103515625</ele>
        <time>2022-06-04T10:39:11.000Z</time>
      </trkpt>
      <trkpt lat="43.41413830406963825225830078125" lon="-5.5911277234554290771484375">
        <ele>285.600006103515625</ele>
        <time>2022-06-04T10:39:12.000Z</time>
      </trkpt>
      <trkpt lat="43.41410477645695209503173828125" lon="-5.59106326662003993988037109375">
        <ele>285.600006103515625</ele>
        <time>2022-06-04T10:39:13.000Z</time>
      </trkpt>
      <trkpt lat="43.4140321053564548492431640625" lon="-5.5909267254173755645751953125">
        <ele>285.600006103515625</ele>
        <time>2022-06-04T10:39:15.000Z</time>
      </trkpt>
      <trkpt lat="43.4139570035040378570556640625" lon="-5.590788759291172027587890625">
        <ele>285.600006103515625</ele>
        <time>2022-06-04T10:39:17.000Z</time>
      </trkpt>
      <trkpt lat="43.41391970403492450714111328125" lon="-5.5907175131142139434814453125">
        <ele>285.600006103515625</ele>
        <time>2022-06-04T10:39:18.000Z</time>
      </trkpt>
      <trkpt lat="43.4138788841664791107177734375" lon="-5.59064467437565326690673828125">
        <ele>285.600006103515625</ele>
        <time>2022-06-04T10:39:19.000Z</time>
      </trkpt>
      <trkpt lat="43.41379565186798572540283203125" lon="-5.5904754437506198883056640625">
        <ele>285.600006103515625</ele>
        <time>2022-06-04T10:39:21.000Z</time>
      </trkpt>
      <trkpt lat="43.4137048758566379547119140625" lon="-5.5902883596718311309814453125">
        <ele>285.600006103515625</ele>
        <time>2022-06-04T10:39:23.000Z</time>
      </trkpt>
      <trkpt lat="43.4136612899601459503173828125" lon="-5.59019708074629306793212890625">
        <ele>285.600006103515625</ele>
        <time>2022-06-04T10:39:25.000Z</time>
      </trkpt>
      <trkpt lat="43.413521982729434967041015625" lon="-5.58993506245315074920654296875">
        <ele>285.399993896484375</ele>
        <time>2022-06-04T10:39:27.000Z</time>
      </trkpt>
      <trkpt lat="43.4134742058813571929931640625" lon="-5.58984554372727870941162109375">
        <ele>285</ele>
        <time>2022-06-04T10:39:29.000Z</time>
      </trkpt>
      <trkpt lat="43.4133752994239330291748046875" lon="-5.5896680988371372222900390625">
        <ele>284.79998779296875</ele>
        <time>2022-06-04T10:39:31.000Z</time>
      </trkpt>
      <trkpt lat="43.41332911513745784759521484375" lon="-5.58958050794899463653564453125">
        <ele>284.600006103515625</ele>
        <time>2022-06-04T10:39:32.000Z</time>
      </trkpt>
      <trkpt lat="43.41328385286033153533935546875" lon="-5.5894910730421543121337890625">
        <ele>284.600006103515625</ele>
        <time>2022-06-04T10:39:33.000Z</time>
      </trkpt>
      <trkpt lat="43.41315695084631443023681640625" lon="-5.5892153084278106689453125">
        <ele>284.399993896484375</ele>
        <time>2022-06-04T10:39:35.000Z</time>
      </trkpt>
      <trkpt lat="43.41311395168304443359375" lon="-5.58911950327455997467041015625">
        <ele>284.399993896484375</ele>
        <time>2022-06-04T10:39:37.000Z</time>
      </trkpt>
      <trkpt lat="43.413029797375202178955078125" lon="-5.58892839588224887847900390625">
        <ele>284.20001220703125</ele>
        <time>2022-06-04T10:39:39.000Z</time>
      </trkpt>
      <trkpt lat="43.41295679099857807159423828125" lon="-5.58873594738543033599853515625">
        <ele>284.20001220703125</ele>
        <time>2022-06-04T10:39:40.000Z</time>
      </trkpt>
      <trkpt lat="43.41295679099857807159423828125" lon="-5.58873594738543033599853515625">
        <ele>284.20001220703125</ele>
        <time>2022-06-04T10:39:41.000Z</time>
      </trkpt>
      <trkpt lat="43.41286056675016880035400390625" lon="-5.58844844810664653778076171875">
        <ele>284</ele>
        <time>2022-06-04T10:39:43.000Z</time>
      </trkpt>
      <trkpt lat="43.4127934277057647705078125" lon="-5.58827360160648822784423828125">
        <ele>283.600006103515625</ele>
        <time>2022-06-04T10:39:45.000Z</time>
      </trkpt>
      <trkpt lat="43.412722013890743255615234375" lon="-5.58811199851334095001220703125">
        <ele>283.399993896484375</ele>
        <time>2022-06-04T10:39:47.000Z</time>
      </trkpt>
      <trkpt lat="43.41268823482096195220947265625" lon="-5.5880342982709407806396484375">
        <ele>283.20001220703125</ele>
        <time>2022-06-04T10:39:48.000Z</time>
      </trkpt>
      <trkpt lat="43.41268823482096195220947265625" lon="-5.5880342982709407806396484375">
        <ele>283.20001220703125</ele>
        <time>2022-06-04T10:39:49.000Z</time>
      </trkpt>
      <trkpt lat="43.4126378595829010009765625" lon="-5.58789574541151523590087890625">
        <ele>283</ele>
        <time>2022-06-04T10:39:51.000Z</time>
      </trkpt>
      <trkpt lat="43.412644229829311370849609375" lon="-5.58777957223355770111083984375">
        <ele>283</ele>
        <time>2022-06-04T10:39:52.000Z</time>
      </trkpt>
      <trkpt lat="43.412644229829311370849609375" lon="-5.58777957223355770111083984375">
        <ele>283</ele>
        <time>2022-06-04T10:39:53.000Z</time>
      </trkpt>
      <trkpt lat="43.41270265169441699981689453125" lon="-5.58769508264958858489990234375">
        <ele>283</ele>
        <time>2022-06-04T10:39:54.000Z</time>
      </trkpt>
      <trkpt lat="43.41270265169441699981689453125" lon="-5.58769508264958858489990234375">
        <ele>283</ele>
        <time>2022-06-04T10:39:55.000Z</time>
      </trkpt>
      <trkpt lat="43.412741124629974365234375" lon="-5.58766474016010761260986328125">
        <ele>283</ele>
        <time>2022-06-04T10:39:56.000Z</time>
      </trkpt>
      <trkpt lat="43.41277926228940486907958984375" lon="-5.58763272128999233245849609375">
        <ele>283</ele>
        <time>2022-06-04T10:39:57.000Z</time>
      </trkpt>
      <trkpt lat="43.412891328334808349609375" lon="-5.587543956935405731201171875">
        <ele>283</ele>
        <time>2022-06-04T10:39:59.000Z</time>
      </trkpt>
      <trkpt lat="43.41296047903597354888916015625" lon="-5.5874874629080295562744140625">
        <ele>283</ele>
        <time>2022-06-04T10:40:01.000Z</time>
      </trkpt>
      <trkpt lat="43.41303239576518535614013671875" lon="-5.5874395184218883514404296875">
        <ele>283</ele>
        <time>2022-06-04T10:40:03.000Z</time>
      </trkpt>
      <trkpt lat="43.413068018853664398193359375" lon="-5.587416552007198333740234375">
        <ele>283.20001220703125</ele>
        <time>2022-06-04T10:40:05.000Z</time>
      </trkpt>
      <trkpt lat="43.413138091564178466796875" lon="-5.58737388812005519866943359375">
        <ele>283.600006103515625</ele>
        <time>2022-06-04T10:40:07.000Z</time>
      </trkpt>
      <trkpt lat="43.41322886757552623748779296875" lon="-5.5873261950910091400146484375">
        <ele>284.20001220703125</ele>
        <time>2022-06-04T10:40:09.000Z</time>
      </trkpt>
      <trkpt lat="43.41325409710407257080078125" lon="-5.5873168073594570159912109375">
        <ele>284.600006103515625</ele>
        <time>2022-06-04T10:40:10.000Z</time>
      </trkpt>
      <trkpt lat="43.41327513568103313446044921875" lon="-5.58731236495077610015869140625">
        <ele>284.79998779296875</ele>
        <time>2022-06-04T10:40:11.000Z</time>
      </trkpt>
      <trkpt lat="43.41328762471675872802734375" lon="-5.58731161057949066162109375">
        <ele>285.399993896484375</ele>
        <time>2022-06-04T10:40:13.000Z</time>
      </trkpt>
      <trkpt lat="43.41328904964029788970947265625" lon="-5.58731169439852237701416015625">
        <ele>285.600006103515625</ele>
        <time>2022-06-04T10:40:14.000Z</time>
      </trkpt>
      <trkpt lat="43.4132887981832027435302734375" lon="-5.58731068857014179229736328125">
        <ele>285.79998779296875</ele>
        <time>2022-06-04T10:40:15.000Z</time>
      </trkpt>
      <trkpt lat="43.413354344666004180908203125" lon="-5.5872933380305767059326171875">
        <ele>286.399993896484375</ele>
        <time>2022-06-04T10:40:33.000Z</time>
      </trkpt>
      <trkpt lat="43.41341880150139331817626953125" lon="-5.58726995252072811126708984375">
        <ele>286.600006103515625</ele>
        <time>2022-06-04T10:40:35.000Z</time>
      </trkpt>
      <trkpt lat="43.41350345872342586517333984375" lon="-5.58722837828099727630615234375">
        <ele>286.600006103515625</ele>
        <time>2022-06-04T10:40:37.000Z</time>
      </trkpt>
      <trkpt lat="43.4135489724576473236083984375" lon="-5.58720222674310207366943359375">
        <ele>286.600006103515625</ele>
        <time>2022-06-04T10:40:39.000Z</time>
      </trkpt>
      <trkpt lat="43.41356984339654445648193359375" lon="-5.58718931861221790313720703125">
        <ele>287</ele>
        <time>2022-06-04T10:40:41.000Z</time>
      </trkpt>
      <trkpt lat="43.413612842559814453125" lon="-5.58715830557048320770263671875">
        <ele>287.20001220703125</ele>
        <time>2022-06-04T10:40:43.000Z</time>
      </trkpt>
      <trkpt lat="43.41364963911473751068115234375" lon="-5.58713718317449092864990234375">
        <ele>287.399993896484375</ele>
        <time>2022-06-04T10:40:45.000Z</time>
      </trkpt>
      <trkpt lat="43.41368869878351688385009765625" lon="-5.58711656369268894195556640625">
        <ele>287.600006103515625</ele>
        <time>2022-06-04T10:40:47.000Z</time>
      </trkpt>
      <trkpt lat="43.41372826136648654937744140625" lon="-5.587087310850620269775390625">
        <ele>287.79998779296875</ele>
        <time>2022-06-04T10:40:48.000Z</time>
      </trkpt>
      <trkpt lat="43.41374938376247882843017578125" lon="-5.5870697088539600372314453125">
        <ele>287.79998779296875</ele>
        <time>2022-06-04T10:40:49.000Z</time>
      </trkpt>
      <trkpt lat="43.41378383338451385498046875" lon="-5.58703492395579814910888671875">
        <ele>288.20001220703125</ele>
        <time>2022-06-04T10:40:51.000Z</time>
      </trkpt>
      <trkpt lat="43.4138007648289203643798828125" lon="-5.58701849542558193206787109375">
        <ele>288.600006103515625</ele>
        <time>2022-06-04T10:40:52.000Z</time>
      </trkpt>
      <trkpt lat="43.4138007648289203643798828125" lon="-5.58701849542558193206787109375">
        <ele>289</ele>
        <time>2022-06-04T10:40:53.000Z</time>
      </trkpt>
      <trkpt lat="43.41383387334644794464111328125" lon="-5.5869801901280879974365234375">
        <ele>289.600006103515625</ele>
        <time>2022-06-04T10:40:54.000Z</time>
      </trkpt>
      <trkpt lat="43.41383387334644794464111328125" lon="-5.5869801901280879974365234375">
        <ele>290.20001220703125</ele>
        <time>2022-06-04T10:40:55.000Z</time>
      </trkpt>
      <trkpt lat="43.4138483740389347076416015625" lon="-5.5869542062282562255859375">
        <ele>290.600006103515625</ele>
        <time>2022-06-04T10:40:56.000Z</time>
      </trkpt>
      <trkpt lat="43.41386136598885059356689453125" lon="-5.5869255401194095611572265625">
        <ele>291</ele>
        <time>2022-06-04T10:40:57.000Z</time>
      </trkpt>
      <trkpt lat="43.41388785280287265777587890625" lon="-5.58686904609203338623046875">
        <ele>291.399993896484375</ele>
        <time>2022-06-04T10:40:59.000Z</time>
      </trkpt>
      <trkpt lat="43.41392138041555881500244140625" lon="-5.58680810965597629547119140625">
        <ele>291.79998779296875</ele>
        <time>2022-06-04T10:41:01.000Z</time>
      </trkpt>
      <trkpt lat="43.413997404277324676513671875" lon="-5.5867190100252628326416015625">
        <ele>292.399993896484375</ele>
        <time>2022-06-04T10:41:03.000Z</time>
      </trkpt>
      <trkpt lat="43.4140559099614620208740234375" lon="-5.586668550968170166015625">
        <ele>293</ele>
        <time>2022-06-04T10:41:05.000Z</time>
      </trkpt>
      <trkpt lat="43.414088599383831024169921875" lon="-5.58664600364863872528076171875">
        <ele>293.600006103515625</ele>
        <time>2022-06-04T10:41:07.000Z</time>
      </trkpt>
      <trkpt lat="43.41415674425661563873291015625" lon="-5.58659722097218036651611328125">
        <ele>293.79998779296875</ele>
        <time>2022-06-04T10:41:09.000Z</time>
      </trkpt>
      <trkpt lat="43.41422639787197113037109375" lon="-5.586552210152149200439453125">
        <ele>294</ele>
        <time>2022-06-04T10:41:11.000Z</time>
      </trkpt>
      <trkpt lat="43.4142942912876605987548828125" lon="-5.5865188501775264739990234375">
        <ele>294.20001220703125</ele>
        <time>2022-06-04T10:41:12.000Z</time>
      </trkpt>
      <trkpt lat="43.41432538814842700958251953125" lon="-5.58650418184697628021240234375">
        <ele>294.20001220703125</ele>
        <time>2022-06-04T10:41:13.000Z</time>
      </trkpt>
      <trkpt lat="43.41437182389199733734130859375" lon="-5.58647417463362216949462890625">
        <ele>294.399993896484375</ele>
        <time>2022-06-04T10:41:15.000Z</time>
      </trkpt>
      <trkpt lat="43.41438842006027698516845703125" lon="-5.5864588357508182525634765625">
        <ele>294.399993896484375</ele>
        <time>2022-06-04T10:41:17.000Z</time>
      </trkpt>
      <trkpt lat="43.414398394525051116943359375" lon="-5.586448274552822113037109375">
        <ele>294.600006103515625</ele>
        <time>2022-06-04T10:41:18.000Z</time>
      </trkpt>
      <trkpt lat="43.414398394525051116943359375" lon="-5.586448274552822113037109375">
        <ele>294.600006103515625</ele>
        <time>2022-06-04T10:41:19.000Z</time>
      </trkpt>
      <trkpt lat="43.414458744227886199951171875" lon="-5.58642975054681301116943359375">
        <ele>294.600006103515625</ele>
        <time>2022-06-04T10:42:07.000Z</time>
      </trkpt>
      <trkpt lat="43.41451599262654781341552734375" lon="-5.58640393428504467010498046875">
        <ele>294.600006103515625</ele>
        <time>2022-06-04T10:42:09.000Z</time>
      </trkpt>
      <trkpt lat="43.41459193266928195953369140625" lon="-5.5863870866596698760986328125">
        <ele>294.79998779296875</ele>
        <time>2022-06-04T10:42:11.000Z</time>
      </trkpt>
      <trkpt lat="43.41466669924557209014892578125" lon="-5.58638432063162326812744140625">
        <ele>294.79998779296875</ele>
        <time>2022-06-04T10:42:13.000Z</time>
      </trkpt>
      <trkpt lat="43.4147033281624317169189453125" lon="-5.58637996204197406768798828125">
        <ele>294.79998779296875</ele>
        <time>2022-06-04T10:42:14.000Z</time>
      </trkpt>
      <trkpt lat="43.4147361852228641510009765625" lon="-5.586373843252658843994140625">
        <ele>294.79998779296875</ele>
        <time>2022-06-04T10:42:15.000Z</time>
      </trkpt>
      <trkpt lat="43.4148022346198558807373046875" lon="-5.58635364286601543426513671875">
        <ele>295.20001220703125</ele>
        <time>2022-06-04T10:42:17.000Z</time>
      </trkpt>
      <trkpt lat="43.41488747857511043548583984375" lon="-5.5863237194716930389404296875">
        <ele>295.600006103515625</ele>
        <time>2022-06-04T10:42:19.000Z</time>
      </trkpt>
      <trkpt lat="43.41488747857511043548583984375" lon="-5.5863237194716930389404296875">
        <ele>295.600006103515625</ele>
        <time>2022-06-04T10:42:20.000Z</time>
      </trkpt>
      <trkpt lat="43.4149162285029888153076171875" lon="-5.586315505206584930419921875">
        <ele>295.79998779296875</ele>
        <time>2022-06-04T10:42:21.000Z</time>
      </trkpt>
      <trkpt lat="43.41500381939113140106201171875" lon="-5.5862801335752010345458984375">
        <ele>296.20001220703125</ele>
        <time>2022-06-04T10:42:23.000Z</time>
      </trkpt>
      <trkpt lat="43.4150315634906291961669921875" lon="-5.586268566548824310302734375">
        <ele>296.399993896484375</ele>
        <time>2022-06-04T10:42:25.000Z</time>
      </trkpt>
      <trkpt lat="43.41511714272201061248779296875" lon="-5.58624970726668834686279296875">
        <ele>297</ele>
        <time>2022-06-04T10:42:27.000Z</time>
      </trkpt>
      <trkpt lat="43.41514463536441326141357421875" lon="-5.58624752797186374664306640625">
        <ele>297.600006103515625</ele>
        <time>2022-06-04T10:42:29.000Z</time>
      </trkpt>
      <trkpt lat="43.415197692811489105224609375" lon="-5.5862526409327983856201171875">
        <ele>298.20001220703125</ele>
        <time>2022-06-04T10:42:31.000Z</time>
      </trkpt>
      <trkpt lat="43.4152515046298503875732421875" lon="-5.58625926263630390167236328125">
        <ele>298.600006103515625</ele>
        <time>2022-06-04T10:42:33.000Z</time>
      </trkpt>
      <trkpt lat="43.4153088368475437164306640625" lon="-5.58626529760658740997314453125">
        <ele>298.79998779296875</ele>
        <time>2022-06-04T10:42:34.000Z</time>
      </trkpt>
      <trkpt lat="43.4153088368475437164306640625" lon="-5.58626529760658740997314453125">
        <ele>299</ele>
        <time>2022-06-04T10:42:35.000Z</time>
      </trkpt>
      <trkpt lat="43.4153614751994609832763671875" lon="-5.58627493679523468017578125">
        <ele>299.20001220703125</ele>
        <time>2022-06-04T10:42:36.000Z</time>
      </trkpt>
      <trkpt lat="43.4153614751994609832763671875" lon="-5.58627493679523468017578125">
        <ele>299.399993896484375</ele>
        <time>2022-06-04T10:42:37.000Z</time>
      </trkpt>
      <trkpt lat="43.41541369445621967315673828125" lon="-5.58627770282328128814697265625">
        <ele>299.79998779296875</ele>
        <time>2022-06-04T10:42:39.000Z</time>
      </trkpt>
      <trkpt lat="43.41546700336039066314697265625" lon="-5.58628105558454990386962890625">
        <ele>300.20001220703125</ele>
        <time>2022-06-04T10:42:40.000Z</time>
      </trkpt>
      <trkpt lat="43.41546700336039066314697265625" lon="-5.58628105558454990386962890625">
        <ele>300.399993896484375</ele>
        <time>2022-06-04T10:42:41.000Z</time>
      </trkpt>
      <trkpt lat="43.41553053818643093109130859375" lon="-5.5862818099558353424072265625">
        <ele>301.399993896484375</ele>
        <time>2022-06-04T10:42:43.000Z</time>
      </trkpt>
      <trkpt lat="43.415592648088932037353515625" lon="-5.58628055267035961151123046875">
        <ele>302</ele>
        <time>2022-06-04T10:42:45.000Z</time>
      </trkpt>
      <trkpt lat="43.41565660201013088226318359375" lon="-5.58628289960324764251708984375">
        <ele>302.600006103515625</ele>
        <time>2022-06-04T10:42:47.000Z</time>
      </trkpt>
      <trkpt lat="43.41571812517940998077392578125" lon="-5.586281977593898773193359375">
        <ele>303</ele>
        <time>2022-06-04T10:42:49.000Z</time>
      </trkpt>
      <trkpt lat="43.415750563144683837890625" lon="-5.58628155849874019622802734375">
        <ele>303.399993896484375</ele>
        <time>2022-06-04T10:42:50.000Z</time>
      </trkpt>
      <trkpt lat="43.4158100746572017669677734375" lon="-5.58628709055483341217041015625">
        <ele>303.79998779296875</ele>
        <time>2022-06-04T10:42:51.000Z</time>
      </trkpt>
      <trkpt lat="43.415840752422809600830078125" lon="-5.58629103004932403564453125">
        <ele>304.399993896484375</ele>
        <time>2022-06-04T10:42:53.000Z</time>
      </trkpt>
      <trkpt lat="43.4159021079540252685546875" lon="-5.58630351908504962921142578125">
        <ele>305</ele>
        <time>2022-06-04T10:42:55.000Z</time>
      </trkpt>
      <trkpt lat="43.41595935635268688201904296875" lon="-5.58631994761526584625244140625">
        <ele>305.399993896484375</ele>
        <time>2022-06-04T10:42:57.000Z</time>
      </trkpt>
      <trkpt lat="43.4160367213189601898193359375" lon="-5.58635632507503032684326171875">
        <ele>305.79998779296875</ele>
        <time>2022-06-04T10:42:59.000Z</time>
      </trkpt>
      <trkpt lat="43.41606111265718936920166015625" lon="-5.5863716639578342437744140625">
        <ele>306</ele>
        <time>2022-06-04T10:43:00.000Z</time>
      </trkpt>
      <trkpt lat="43.41606111265718936920166015625" lon="-5.5863716639578342437744140625">
        <ele>306.20001220703125</ele>
        <time>2022-06-04T10:43:01.000Z</time>
      </trkpt>
      <trkpt lat="43.41610956005752086639404296875" lon="-5.58640494011342525482177734375">
        <ele>306.79998779296875</ele>
        <time>2022-06-04T10:43:03.000Z</time>
      </trkpt>
      <trkpt lat="43.4161570854485034942626953125" lon="-5.58643695898354053497314453125">
        <ele>307.20001220703125</ele>
        <time>2022-06-04T10:43:05.000Z</time>
      </trkpt>
      <trkpt lat="43.41620142571628093719482421875" lon="-5.58647098951041698455810546875">
        <ele>307.399993896484375</ele>
        <time>2022-06-04T10:43:07.000Z</time>
      </trkpt>
      <trkpt lat="43.41624752618372440338134765625" lon="-5.58649621903896331787109375">
        <ele>307.79998779296875</ele>
        <time>2022-06-04T10:43:09.000Z</time>
      </trkpt>
      <trkpt lat="43.41631793417036533355712890625" lon="-5.58652580715715885162353515625">
        <ele>308.20001220703125</ele>
        <time>2022-06-04T10:43:11.000Z</time>
      </trkpt>
      <trkpt lat="43.416340984404087066650390625" lon="-5.58653301559388637542724609375">
        <ele>308.600006103515625</ele>
        <time>2022-06-04T10:43:13.000Z</time>
      </trkpt>
      <trkpt lat="43.41640778817236423492431640625" lon="-5.58654139749705791473388671875">
        <ele>309</ele>
        <time>2022-06-04T10:43:15.000Z</time>
      </trkpt>
      <trkpt lat="43.416430167853832244873046875" lon="-5.58653737418353557586669921875">
        <ele>309.399993896484375</ele>
        <time>2022-06-04T10:43:16.000Z</time>
      </trkpt>
      <trkpt lat="43.416454307734966278076171875" lon="-5.58652966283261775970458984375">
        <ele>309.600006103515625</ele>
        <time>2022-06-04T10:43:17.000Z</time>
      </trkpt>
      <trkpt lat="43.4164782799780368804931640625" lon="-5.58652044273912906646728515625">
        <ele>309.79998779296875</ele>
        <time>2022-06-04T10:43:18.000Z</time>
      </trkpt>
      <trkpt lat="43.4164782799780368804931640625" lon="-5.58652044273912906646728515625">
        <ele>309.79998779296875</ele>
        <time>2022-06-04T10:43:19.000Z</time>
      </trkpt>
      <trkpt lat="43.4165570698678493499755859375" lon="-5.5864982306957244873046875">
        <ele>310.20001220703125</ele>
        <time>2022-06-04T10:43:21.000Z</time>
      </trkpt>
      <trkpt lat="43.41658397577702999114990234375" lon="-5.5864983983337879180908203125">
        <ele>310.399993896484375</ele>
        <time>2022-06-04T10:43:22.000Z</time>
      </trkpt>
      <trkpt lat="43.41660794802010059356689453125" lon="-5.58650133199989795684814453125">
        <ele>310.399993896484375</ele>
        <time>2022-06-04T10:43:23.000Z</time>
      </trkpt>
      <trkpt lat="43.4166492708027362823486328125" lon="-5.5865223705768585205078125">
        <ele>310.600006103515625</ele>
        <time>2022-06-04T10:43:25.000Z</time>
      </trkpt>
      <trkpt lat="43.41669059358537197113037109375" lon="-5.586552880704402923583984375">
        <ele>311</ele>
        <time>2022-06-04T10:43:27.000Z</time>
      </trkpt>
      <trkpt lat="43.4167123027145862579345703125" lon="-5.58657073415815830230712890625">
        <ele>311.399993896484375</ele>
        <time>2022-06-04T10:43:29.000Z</time>
      </trkpt>
      <trkpt lat="43.41675697825849056243896484375" lon="-5.58660811744630336761474609375">
        <ele>311.79998779296875</ele>
        <time>2022-06-04T10:43:31.000Z</time>
      </trkpt>
      <trkpt lat="43.4167952835559844970703125" lon="-5.58666251599788665771484375">
        <ele>311.79998779296875</ele>
        <time>2022-06-04T10:43:33.000Z</time>
      </trkpt>
      <trkpt lat="43.41683610342442989349365234375" lon="-5.586709119379520416259765625">
        <ele>312</ele>
        <time>2022-06-04T10:43:34.000Z</time>
      </trkpt>
      <trkpt lat="43.4168561361730098724365234375" lon="-5.5867273919284343719482421875">
        <ele>312.20001220703125</ele>
        <time>2022-06-04T10:43:35.000Z</time>
      </trkpt>
      <trkpt lat="43.41687767766416072845458984375" lon="-5.5867471732199192047119140625">
        <ele>312.79998779296875</ele>
        <time>2022-06-04T10:43:37.000Z</time>
      </trkpt>
      <trkpt lat="43.4169302321970462799072265625" lon="-5.5868142284452915191650390625">
        <ele>313</ele>
        <time>2022-06-04T10:43:39.000Z</time>
      </trkpt>
      <trkpt lat="43.41694490052759647369384765625" lon="-5.58683551847934722900390625">
        <ele>313.600006103515625</ele>
        <time>2022-06-04T10:43:41.000Z</time>
      </trkpt>
      <trkpt lat="43.41697239316999912261962890625" lon="-5.5868765898048877716064453125">
        <ele>313.79998779296875</ele>
        <time>2022-06-04T10:43:42.000Z</time>
      </trkpt>
      <trkpt lat="43.41697239316999912261962890625" lon="-5.5868765898048877716064453125">
        <ele>314.399993896484375</ele>
        <time>2022-06-04T10:43:43.000Z</time>
      </trkpt>
      <trkpt lat="43.41702067293226718902587890625" lon="-5.58694741688668727874755859375">
        <ele>314.79998779296875</ele>
        <time>2022-06-04T10:43:45.000Z</time>
      </trkpt>
      <trkpt lat="43.41704246588051319122314453125" lon="-5.58696870692074298858642578125">
        <ele>315.600006103515625</ele>
        <time>2022-06-04T10:43:47.000Z</time>
      </trkpt>
      <trkpt lat="43.41712578199803829193115234375" lon="-5.587005503475666046142578125">
        <ele>316</ele>
        <time>2022-06-04T10:43:49.000Z</time>
      </trkpt>
      <trkpt lat="43.4172008000314235687255859375" lon="-5.58702017180621623992919921875">
        <ele>316</ele>
        <time>2022-06-04T10:43:51.000Z</time>
      </trkpt>
      <trkpt lat="43.41728235594928264617919921875" lon="-5.5870267935097217559814453125">
        <ele>316.399993896484375</ele>
        <time>2022-06-04T10:43:53.000Z</time>
      </trkpt>
      <trkpt lat="43.4173719584941864013671875" lon="-5.5870184116065502166748046875">
        <ele>316.600006103515625</ele>
        <time>2022-06-04T10:43:55.000Z</time>
      </trkpt>
      <trkpt lat="43.4174693562090396881103515625" lon="-5.58699787594377994537353515625">
        <ele>316.600006103515625</ele>
        <time>2022-06-04T10:43:57.000Z</time>
      </trkpt>
      <trkpt lat="43.4175742976367473602294921875" lon="-5.58698630891740322113037109375">
        <ele>316.79998779296875</ele>
        <time>2022-06-04T10:43:59.000Z</time>
      </trkpt>
      <trkpt lat="43.417680747807025909423828125" lon="-5.58697155676782131195068359375">
        <ele>316.79998779296875</ele>
        <time>2022-06-04T10:44:01.000Z</time>
      </trkpt>
      <trkpt lat="43.41778610832989215850830078125" lon="-5.58694691397249698638916015625">
        <ele>316.79998779296875</ele>
        <time>2022-06-04T10:44:03.000Z</time>
      </trkpt>
      <trkpt lat="43.4178928099572658538818359375" lon="-5.58692310936748981475830078125">
        <ele>316.79998779296875</ele>
        <time>2022-06-04T10:44:05.000Z</time>
      </trkpt>
      <trkpt lat="43.41800068505108356475830078125" lon="-5.586894191801548004150390625">
        <ele>316.600006103515625</ele>
        <time>2022-06-04T10:44:07.000Z</time>
      </trkpt>
      <trkpt lat="43.41810830868780612945556640625" lon="-5.5868631787598133087158203125">
        <ele>316.600006103515625</ele>
        <time>2022-06-04T10:44:09.000Z</time>
      </trkpt>
      <trkpt lat="43.4181617014110088348388671875" lon="-5.58684901334345340728759765625">
        <ele>316.600006103515625</ele>
        <time>2022-06-04T10:44:10.000Z</time>
      </trkpt>
      <trkpt lat="43.418213836848735809326171875" lon="-5.586838535964488983154296875">
        <ele>316.600006103515625</ele>
        <time>2022-06-04T10:44:11.000Z</time>
      </trkpt>
      <trkpt lat="43.41826555319130420684814453125" lon="-5.58683660812675952911376953125">
        <ele>316.600006103515625</ele>
        <time>2022-06-04T10:44:12.000Z</time>
      </trkpt>
      <trkpt lat="43.418317101895809173583984375" lon="-5.58684180490672588348388671875">
        <ele>316.600006103515625</ele>
        <time>2022-06-04T10:44:13.000Z</time>
      </trkpt>
      <trkpt lat="43.4184134937822818756103515625" lon="-5.5868544615805149078369140625">
        <ele>316.600006103515625</ele>
        <time>2022-06-04T10:44:15.000Z</time>
      </trkpt>
      <trkpt lat="43.41845984570682048797607421875" lon="-5.5868589878082275390625">
        <ele>316.600006103515625</ele>
        <time>2022-06-04T10:44:16.000Z</time>
      </trkpt>
      <trkpt lat="43.418504856526851654052734375" lon="-5.58686426840722560882568359375">
        <ele>316.600006103515625</ele>
        <time>2022-06-04T10:44:17.000Z</time>
      </trkpt>
      <trkpt lat="43.418585993349552154541015625" lon="-5.5868792720139026641845703125">
        <ele>316.600006103515625</ele>
        <time>2022-06-04T10:44:19.000Z</time>
      </trkpt>
      <trkpt lat="43.41866319067776203155517578125" lon="-5.5868832953274250030517578125">
        <ele>316.600006103515625</ele>
        <time>2022-06-04T10:44:21.000Z</time>
      </trkpt>
      <trkpt lat="43.418700993061065673828125" lon="-5.58687851764261722564697265625">
        <ele>316.79998779296875</ele>
        <time>2022-06-04T10:44:22.000Z</time>
      </trkpt>
      <trkpt lat="43.41873678378760814666748046875" lon="-5.58687164448201656341552734375">
        <ele>316.79998779296875</ele>
        <time>2022-06-04T10:44:23.000Z</time>
      </trkpt>
      <trkpt lat="43.41880635358393192291259765625" lon="-5.58685705997049808502197265625">
        <ele>317.20001220703125</ele>
        <time>2022-06-04T10:44:25.000Z</time>
      </trkpt>
      <trkpt lat="43.4188423119485378265380859375" lon="-5.5868460796773433685302734375">
        <ele>317.79998779296875</ele>
        <time>2022-06-04T10:44:27.000Z</time>
      </trkpt>
      <trkpt lat="43.41895119287073612213134765625" lon="-5.58681129477918148040771484375">
        <ele>318.399993896484375</ele>
        <time>2022-06-04T10:44:29.000Z</time>
      </trkpt>
      <trkpt lat="43.418986313045024871826171875" lon="-5.58679587207734584808349609375">
        <ele>318.79998779296875</ele>
        <time>2022-06-04T10:44:30.000Z</time>
      </trkpt>
      <trkpt lat="43.419021852314472198486328125" lon="-5.58677852153778076171875">
        <ele>319.20001220703125</ele>
        <time>2022-06-04T10:44:31.000Z</time>
      </trkpt>
      <trkpt lat="43.4190924279391765594482421875" lon="-5.586737953126430511474609375">
        <ele>320.20001220703125</ele>
        <time>2022-06-04T10:44:33.000Z</time>
      </trkpt>
      <trkpt lat="43.41917163692414760589599609375" lon="-5.5866993963718414306640625">
        <ele>321.20001220703125</ele>
        <time>2022-06-04T10:44:35.000Z</time>
      </trkpt>
      <trkpt lat="43.41921572573482990264892578125" lon="-5.586681626737117767333984375">
        <ele>322</ele>
        <time>2022-06-04T10:44:37.000Z</time>
      </trkpt>
      <trkpt lat="43.41926082037389278411865234375" lon="-5.5866636894643306732177734375">
        <ele>322.399993896484375</ele>
        <time>2022-06-04T10:44:38.000Z</time>
      </trkpt>
      <trkpt lat="43.41935302130877971649169921875" lon="-5.58662270195782184600830078125">
        <ele>322.600006103515625</ele>
        <time>2022-06-04T10:44:39.000Z</time>
      </trkpt>
      <trkpt lat="43.4194434620440006256103515625" lon="-5.5865711532533168792724609375">
        <ele>322.79998779296875</ele>
        <time>2022-06-04T10:44:41.000Z</time>
      </trkpt>
      <trkpt lat="43.4194853715598583221435546875" lon="-5.586534775793552398681640625">
        <ele>323</ele>
        <time>2022-06-04T10:44:43.000Z</time>
      </trkpt>
      <trkpt lat="43.4196067415177822113037109375" lon="-5.58641030453145503997802734375">
        <ele>323</ele>
        <time>2022-06-04T10:44:45.000Z</time>
      </trkpt>
      <trkpt lat="43.41969802044332027435302734375" lon="-5.5863495357334613800048828125">
        <ele>323</ele>
        <time>2022-06-04T10:44:47.000Z</time>
      </trkpt>
      <trkpt lat="43.4197431989014148712158203125" lon="-5.5863238871097564697265625">
        <ele>323</ele>
        <time>2022-06-04T10:44:48.000Z</time>
      </trkpt>
      <trkpt lat="43.4197431989014148712158203125" lon="-5.5863238871097564697265625">
        <ele>323</ele>
        <time>2022-06-04T10:44:49.000Z</time>
      </trkpt>
      <trkpt lat="43.41986666433513164520263671875" lon="-5.586239062249660491943359375">
        <ele>323.20001220703125</ele>
        <time>2022-06-04T10:44:51.000Z</time>
      </trkpt>
      <trkpt lat="43.41994897462427616119384765625" lon="-5.5861889384686946868896484375">
        <ele>323.20001220703125</ele>
        <time>2022-06-04T10:44:53.000Z</time>
      </trkpt>
      <trkpt lat="43.42002977617084980010986328125" lon="-5.58614392764866352081298828125">
        <ele>323.20001220703125</ele>
        <time>2022-06-04T10:44:55.000Z</time>
      </trkpt>
      <trkpt lat="43.42010714113712310791015625" lon="-5.58610822074115276336669921875">
        <ele>323.600006103515625</ele>
        <time>2022-06-04T10:44:57.000Z</time>
      </trkpt>
      <trkpt lat="43.42018534429371356964111328125" lon="-5.586077459156513214111328125">
        <ele>324</ele>
        <time>2022-06-04T10:44:59.000Z</time>
      </trkpt>
      <trkpt lat="43.420221805572509765625" lon="-5.58606614358723163604736328125">
        <ele>324.20001220703125</ele>
        <time>2022-06-04T10:45:01.000Z</time>
      </trkpt>
      <trkpt lat="43.4202534891664981842041015625" lon="-5.586062371730804443359375">
        <ele>324.79998779296875</ele>
        <time>2022-06-04T10:45:02.000Z</time>
      </trkpt>
      <trkpt lat="43.42031476087868213653564453125" lon="-5.58605658821761608123779296875">
        <ele>325</ele>
        <time>2022-06-04T10:45:03.000Z</time>
      </trkpt>
      <trkpt lat="43.42037796042859554290771484375" lon="-5.58604636229574680328369140625">
        <ele>325.399993896484375</ele>
        <time>2022-06-04T10:45:05.000Z</time>
      </trkpt>
      <trkpt lat="43.420436382293701171875" lon="-5.5860387347638607025146484375">
        <ele>325.79998779296875</ele>
        <time>2022-06-04T10:45:07.000Z</time>
      </trkpt>
      <trkpt lat="43.42048608697950839996337890625" lon="-5.5860323645174503326416015625">
        <ele>326.20001220703125</ele>
        <time>2022-06-04T10:45:09.000Z</time>
      </trkpt>
      <trkpt lat="43.42053252272307872772216796875" lon="-5.58602088131010532379150390625">
        <ele>326.399993896484375</ele>
        <time>2022-06-04T10:45:11.000Z</time>
      </trkpt>
      <trkpt lat="43.42057895846664905548095703125" lon="-5.58600914664566516876220703125">
        <ele>327.20001220703125</ele>
        <time>2022-06-04T10:45:13.000Z</time>
      </trkpt>
      <trkpt lat="43.4206216223537921905517578125" lon="-5.58600814081728458404541015625">
        <ele>327.600006103515625</ele>
        <time>2022-06-04T10:45:15.000Z</time>
      </trkpt>
      <trkpt lat="43.42066613025963306427001953125" lon="-5.58600579388439655303955078125">
        <ele>328</ele>
        <time>2022-06-04T10:45:17.000Z</time>
      </trkpt>
      <trkpt lat="43.420688845217227935791015625" lon="-5.586005039513111114501953125">
        <ele>328.20001220703125</ele>
        <time>2022-06-04T10:45:18.000Z</time>
      </trkpt>
      <trkpt lat="43.42071072198450565338134765625" lon="-5.58600378222763538360595703125">
        <ele>328.600006103515625</ele>
        <time>2022-06-04T10:45:19.000Z</time>
      </trkpt>
      <trkpt lat="43.42075346969068050384521484375" lon="-5.58601300232112407684326171875">
        <ele>329</ele>
        <time>2022-06-04T10:45:21.000Z</time>
      </trkpt>
      <trkpt lat="43.42077828012406826019287109375" lon="-5.5860181152820587158203125">
        <ele>329.399993896484375</ele>
        <time>2022-06-04T10:45:22.000Z</time>
      </trkpt>
      <trkpt lat="43.42080443166196346282958984375" lon="-5.586021132767200469970703125">
        <ele>329.600006103515625</ele>
        <time>2022-06-04T10:45:23.000Z</time>
      </trkpt>
      <trkpt lat="43.42082999646663665771484375" lon="-5.58602507226169109344482421875">
        <ele>330</ele>
        <time>2022-06-04T10:45:24.000Z</time>
      </trkpt>
      <trkpt lat="43.4208549745380878448486328125" lon="-5.5860276706516742706298828125">
        <ele>330.20001220703125</ele>
        <time>2022-06-04T10:45:25.000Z</time>
      </trkpt>
      <trkpt lat="43.4208549745380878448486328125" lon="-5.5860276706516742706298828125">
        <ele>330.600006103515625</ele>
        <time>2022-06-04T10:45:26.000Z</time>
      </trkpt>
      <trkpt lat="43.42090652324259281158447265625" lon="-5.58603328652679920196533203125">
        <ele>331</ele>
        <time>2022-06-04T10:45:27.000Z</time>
      </trkpt>
      <trkpt lat="43.42095614410936832427978515625" lon="-5.586035549640655517578125">
        <ele>331.399993896484375</ele>
        <time>2022-06-04T10:45:29.000Z</time>
      </trkpt>
      <trkpt lat="43.4209803678095340728759765625" lon="-5.58603814803063869476318359375">
        <ele>331.600006103515625</ele>
        <time>2022-06-04T10:45:30.000Z</time>
      </trkpt>
      <trkpt lat="43.421006686985492706298828125" lon="-5.5860397405922412872314453125">
        <ele>331.600006103515625</ele>
        <time>2022-06-04T10:45:31.000Z</time>
      </trkpt>
      <trkpt lat="43.421006686985492706298828125" lon="-5.5860397405922412872314453125">
        <ele>331.79998779296875</ele>
        <time>2022-06-04T10:45:32.000Z</time>
      </trkpt>
      <trkpt lat="43.421059660613536834716796875" lon="-5.58603228069841861724853515625">
        <ele>332</ele>
        <time>2022-06-04T10:45:33.000Z</time>
      </trkpt>
      <trkpt lat="43.4211134724318981170654296875" lon="-5.58602775447070598602294921875">
        <ele>332.20001220703125</ele>
        <time>2022-06-04T10:45:35.000Z</time>
      </trkpt>
      <trkpt lat="43.421166278421878814697265625" lon="-5.58603278361260890960693359375">
        <ele>332.399993896484375</ele>
        <time>2022-06-04T10:45:37.000Z</time>
      </trkpt>
      <trkpt lat="43.42121011577546596527099609375" lon="-5.58604896068572998046875">
        <ele>332.600006103515625</ele>
        <time>2022-06-04T10:45:39.000Z</time>
      </trkpt>
      <trkpt lat="43.42125521041452884674072265625" lon="-5.586062036454677581787109375">
        <ele>332.79998779296875</ele>
        <time>2022-06-04T10:45:41.000Z</time>
      </trkpt>
      <trkpt lat="43.42129804193973541259765625" lon="-5.58607569895684719085693359375">
        <ele>333.20001220703125</ele>
        <time>2022-06-04T10:45:43.000Z</time>
      </trkpt>
      <trkpt lat="43.42129804193973541259765625" lon="-5.58607569895684719085693359375">
        <ele>333.20001220703125</ele>
        <time>2022-06-04T10:45:44.000Z</time>
      </trkpt>
      <trkpt lat="43.421341292560100555419921875" lon="-5.58609732426702976226806640625">
        <ele>333.399993896484375</ele>
        <time>2022-06-04T10:45:45.000Z</time>
      </trkpt>
      <trkpt lat="43.42138462699949741363525390625" lon="-5.58612079359591007232666015625">
        <ele>333.79998779296875</ele>
        <time>2022-06-04T10:45:47.000Z</time>
      </trkpt>
      <trkpt lat="43.421425782144069671630859375" lon="-5.58614795096218585968017578125">
        <ele>334</ele>
        <time>2022-06-04T10:45:49.000Z</time>
      </trkpt>
      <trkpt lat="43.42146542854607105255126953125" lon="-5.586182735860347747802734375">
        <ele>334.399993896484375</ele>
        <time>2022-06-04T10:45:51.000Z</time>
      </trkpt>
      <trkpt lat="43.42150264419615268707275390625" lon="-5.58621592819690704345703125">
        <ele>334.79998779296875</ele>
        <time>2022-06-04T10:45:53.000Z</time>
      </trkpt>
      <trkpt lat="43.4215369261801242828369140625" lon="-5.58625155128538608551025390625">
        <ele>335.20001220703125</ele>
        <time>2022-06-04T10:45:55.000Z</time>
      </trkpt>
      <trkpt lat="43.42157288454473018646240234375" lon="-5.5862915329635143280029296875">
        <ele>335.600006103515625</ele>
        <time>2022-06-04T10:45:57.000Z</time>
      </trkpt>
      <trkpt lat="43.421592414379119873046875" lon="-5.58631106279790401458740234375">
        <ele>336.20001220703125</ele>
        <time>2022-06-04T10:45:58.000Z</time>
      </trkpt>
      <trkpt lat="43.42161244712769985198974609375" lon="-5.5863284133374691009521484375">
        <ele>336.600006103515625</ele>
        <time>2022-06-04T10:45:59.000Z</time>
      </trkpt>
      <trkpt lat="43.421653099358081817626953125" lon="-5.5863565765321254730224609375">
        <ele>337</ele>
        <time>2022-06-04T10:46:01.000Z</time>
      </trkpt>
      <trkpt lat="43.4216743893921375274658203125" lon="-5.58637191541492938995361328125">
        <ele>337.399993896484375</ele>
        <time>2022-06-04T10:46:02.000Z</time>
      </trkpt>
      <trkpt lat="43.42169593088328838348388671875" lon="-5.58638851158320903778076171875">
        <ele>337.600006103515625</ele>
        <time>2022-06-04T10:46:03.000Z</time>
      </trkpt>
      <trkpt lat="43.42173767276108264923095703125" lon="-5.5864216201007366180419921875">
        <ele>338</ele>
        <time>2022-06-04T10:46:05.000Z</time>
      </trkpt>
      <trkpt lat="43.42175695113837718963623046875" lon="-5.5864373780786991119384765625">
        <ele>338.600006103515625</ele>
        <time>2022-06-04T10:46:06.000Z</time>
      </trkpt>
      <trkpt lat="43.42177555896341800689697265625" lon="-5.58645556680858135223388671875">
        <ele>338.600006103515625</ele>
        <time>2022-06-04T10:46:07.000Z</time>
      </trkpt>
      <trkpt lat="43.4218162111937999725341796875" lon="-5.58649881742894649505615234375">
        <ele>339.20001220703125</ele>
        <time>2022-06-04T10:46:09.000Z</time>
      </trkpt>
      <trkpt lat="43.4218351542949676513671875" lon="-5.5865205265581607818603515625">
        <ele>339.600006103515625</ele>
        <time>2022-06-04T10:46:10.000Z</time>
      </trkpt>
      <trkpt lat="43.4218567796051502227783203125" lon="-5.5865399725735187530517578125">
        <ele>339.79998779296875</ele>
        <time>2022-06-04T10:46:11.000Z</time>
      </trkpt>
      <trkpt lat="43.4219003655016422271728515625" lon="-5.58658230118453502655029296875">
        <ele>340</ele>
        <time>2022-06-04T10:46:13.000Z</time>
      </trkpt>
      <trkpt lat="43.42193908989429473876953125" lon="-5.58663167059421539306640625">
        <ele>340.20001220703125</ele>
        <time>2022-06-04T10:46:15.000Z</time>
      </trkpt>
      <trkpt lat="43.42195560224354267120361328125" lon="-5.5866586603224277496337890625">
        <ele>340.79998779296875</ele>
        <time>2022-06-04T10:46:16.000Z</time>
      </trkpt>
      <trkpt lat="43.42196968384087085723876953125" lon="-5.58668774552643299102783203125">
        <ele>341</ele>
        <time>2022-06-04T10:46:17.000Z</time>
      </trkpt>
      <trkpt lat="43.42200371436774730682373046875" lon="-5.58674038387835025787353515625">
        <ele>341.20001220703125</ele>
        <time>2022-06-04T10:46:19.000Z</time>
      </trkpt>
      <trkpt lat="43.42204160057008266448974609375" lon="-5.58678799308836460113525390625">
        <ele>341.20001220703125</ele>
        <time>2022-06-04T10:46:21.000Z</time>
      </trkpt>
      <trkpt lat="43.422062136232852935791015625" lon="-5.58680894784629344940185546875">
        <ele>341.399993896484375</ele>
        <time>2022-06-04T10:46:22.000Z</time>
      </trkpt>
      <trkpt lat="43.422082252800464630126953125" lon="-5.586828477680683135986328125">
        <ele>341.600006103515625</ele>
        <time>2022-06-04T10:46:23.000Z</time>
      </trkpt>
      <trkpt lat="43.4221022017300128936767578125" lon="-5.58684733696281909942626953125">
        <ele>341.79998779296875</ele>
        <time>2022-06-04T10:46:24.000Z</time>
      </trkpt>
      <trkpt lat="43.42211888171732425689697265625" lon="-5.5868672020733356475830078125">
        <ele>342</ele>
        <time>2022-06-04T10:46:25.000Z</time>
      </trkpt>
      <trkpt lat="43.4221548400819301605224609375" lon="-5.58691154234111309051513671875">
        <ele>342.20001220703125</ele>
        <time>2022-06-04T10:46:27.000Z</time>
      </trkpt>
      <trkpt lat="43.42218987643718719482421875" lon="-5.58695395477116107940673828125">
        <ele>342.600006103515625</ele>
        <time>2022-06-04T10:46:29.000Z</time>
      </trkpt>
      <trkpt lat="43.42220806516706943511962890625" lon="-5.58697306551039218902587890625">
        <ele>342.79998779296875</ele>
        <time>2022-06-04T10:46:30.000Z</time>
      </trkpt>
      <trkpt lat="43.42222700826823711395263671875" lon="-5.58699234388768672943115234375">
        <ele>343</ele>
        <time>2022-06-04T10:46:31.000Z</time>
      </trkpt>
      <trkpt lat="43.42222700826823711395263671875" lon="-5.58699234388768672943115234375">
        <ele>343.20001220703125</ele>
        <time>2022-06-04T10:46:32.000Z</time>
      </trkpt>
      <trkpt lat="43.42226204462349414825439453125" lon="-5.587030984461307525634765625">
        <ele>343.399993896484375</ele>
        <time>2022-06-04T10:46:33.000Z</time>
      </trkpt>
      <trkpt lat="43.42229582369327545166015625" lon="-5.5870653502643108367919921875">
        <ele>343.79998779296875</ele>
        <time>2022-06-04T10:46:35.000Z</time>
      </trkpt>
      <trkpt lat="43.42232725583016872406005859375" lon="-5.587096698582172393798828125">
        <ele>344.20001220703125</ele>
        <time>2022-06-04T10:46:37.000Z</time>
      </trkpt>
      <trkpt lat="43.42236011289060115814208984375" lon="-5.5871236883103847503662109375">
        <ele>344.600006103515625</ele>
        <time>2022-06-04T10:46:39.000Z</time>
      </trkpt>
      <trkpt lat="43.42237637378275394439697265625" lon="-5.58713517151772975921630859375">
        <ele>344.79998779296875</ele>
        <time>2022-06-04T10:46:40.000Z</time>
      </trkpt>
      <trkpt lat="43.4223922155797481536865234375" lon="-5.58714606799185276031494140625">
        <ele>345</ele>
        <time>2022-06-04T10:46:41.000Z</time>
      </trkpt>
      <trkpt lat="43.4224225580692291259765625" lon="-5.58716869913041591644287109375">
        <ele>345.399993896484375</ele>
        <time>2022-06-04T10:46:43.000Z</time>
      </trkpt>
      <trkpt lat="43.422453068196773529052734375" lon="-5.5871840380132198333740234375">
        <ele>345.79998779296875</ele>
        <time>2022-06-04T10:46:45.000Z</time>
      </trkpt>
      <trkpt lat="43.4224790520966053009033203125" lon="-5.58720507659018039703369140625">
        <ele>346</ele>
        <time>2022-06-04T10:46:47.000Z</time>
      </trkpt>
      <trkpt lat="43.42249288223683834075927734375" lon="-5.587215386331081390380859375">
        <ele>346.20001220703125</ele>
        <time>2022-06-04T10:46:48.000Z</time>
      </trkpt>
      <trkpt lat="43.42250579036772251129150390625" lon="-5.587226115167140960693359375">
        <ele>346.20001220703125</ele>
        <time>2022-06-04T10:46:49.000Z</time>
      </trkpt>
      <trkpt lat="43.42253160662949085235595703125" lon="-5.587248913943767547607421875">
        <ele>346.79998779296875</ele>
        <time>2022-06-04T10:46:51.000Z</time>
      </trkpt>
      <trkpt lat="43.4225571714341640472412109375" lon="-5.58727196417748928070068359375">
        <ele>347.399993896484375</ele>
        <time>2022-06-04T10:46:53.000Z</time>
      </trkpt>
      <trkpt lat="43.42257703654468059539794921875" lon="-5.587304569780826568603515625">
        <ele>347.79998779296875</ele>
        <time>2022-06-04T10:46:55.000Z</time>
      </trkpt>
      <trkpt lat="43.42257703654468059539794921875" lon="-5.587304569780826568603515625">
        <ele>348.20001220703125</ele>
        <time>2022-06-04T10:46:56.000Z</time>
      </trkpt>
      <trkpt lat="43.42259799130260944366455078125" lon="-5.58733885176479816436767578125">
        <ele>348.399993896484375</ele>
        <time>2022-06-04T10:46:57.000Z</time>
      </trkpt>
      <trkpt lat="43.4226077981293201446533203125" lon="-5.58735326863825321197509765625">
        <ele>348.600006103515625</ele>
        <time>2022-06-04T10:46:58.000Z</time>
      </trkpt>
      <trkpt lat="43.42261777259409427642822265625" lon="-5.587367601692676544189453125">
        <ele>348.79998779296875</ele>
        <time>2022-06-04T10:46:59.000Z</time>
      </trkpt>
      <trkpt lat="43.42263923026621341705322265625" lon="-5.58739752508699893951416015625">
        <ele>349.399993896484375</ele>
        <time>2022-06-04T10:47:01.000Z</time>
      </trkpt>
      <trkpt lat="43.42263923026621341705322265625" lon="-5.58739752508699893951416015625">
        <ele>349.600006103515625</ele>
        <time>2022-06-04T10:47:02.000Z</time>
      </trkpt>
      <trkpt lat="43.4226621128618717193603515625" lon="-5.5874262750148773193359375">
        <ele>349.79998779296875</ele>
        <time>2022-06-04T10:47:03.000Z</time>
      </trkpt>
      <trkpt lat="43.4226842410862445831298828125" lon="-5.58745619840919971466064453125">
        <ele>350.399993896484375</ele>
        <time>2022-06-04T10:47:05.000Z</time>
      </trkpt>
      <trkpt lat="43.42270410619676113128662109375" lon="-5.58748788200318813323974609375">
        <ele>350.600006103515625</ele>
        <time>2022-06-04T10:47:07.000Z</time>
      </trkpt>
      <trkpt lat="43.4227284975349903106689453125" lon="-5.5875112675130367279052734375">
        <ele>351.20001220703125</ele>
        <time>2022-06-04T10:47:09.000Z</time>
      </trkpt>
      <trkpt lat="43.42275707982480525970458984375" lon="-5.587527193129062652587890625">
        <ele>351.79998779296875</ele>
        <time>2022-06-04T10:47:11.000Z</time>
      </trkpt>
      <trkpt lat="43.42278474010527133941650390625" lon="-5.58752358891069889068603515625">
        <ele>352.399993896484375</ele>
        <time>2022-06-04T10:47:13.000Z</time>
      </trkpt>
      <trkpt lat="43.422811143100261688232421875" lon="-5.58750028721988201141357421875">
        <ele>352.79998779296875</ele>
        <time>2022-06-04T10:47:15.000Z</time>
      </trkpt>
      <trkpt lat="43.42283721081912517547607421875" lon="-5.5874592997133731842041015625">
        <ele>353.399993896484375</ele>
        <time>2022-06-04T10:47:17.000Z</time>
      </trkpt>
      <trkpt lat="43.422853052616119384765625" lon="-5.58741621673107147216796875">
        <ele>353.79998779296875</ele>
        <time>2022-06-04T10:47:19.000Z</time>
      </trkpt>
      <trkpt lat="43.422853052616119384765625" lon="-5.58741621673107147216796875">
        <ele>354</ele>
        <time>2022-06-04T10:47:20.000Z</time>
      </trkpt>
      <trkpt lat="43.4228678047657012939453125" lon="-5.58737271465361118316650390625">
        <ele>354.600006103515625</ele>
        <time>2022-06-04T10:47:21.000Z</time>
      </trkpt>
      <trkpt lat="43.422887586057186126708984375" lon="-5.5873323976993560791015625">
        <ele>355</ele>
        <time>2022-06-04T10:47:23.000Z</time>
      </trkpt>
      <trkpt lat="43.422899655997753143310546875" lon="-5.587316639721393585205078125">
        <ele>355.20001220703125</ele>
        <time>2022-06-04T10:47:24.000Z</time>
      </trkpt>
      <trkpt lat="43.4229134023189544677734375" lon="-5.58730230666697025299072265625">
        <ele>355.399993896484375</ele>
        <time>2022-06-04T10:47:25.000Z</time>
      </trkpt>
      <trkpt lat="43.4229402244091033935546875" lon="-5.58727481402456760406494140625">
        <ele>355.79998779296875</ele>
        <time>2022-06-04T10:47:27.000Z</time>
      </trkpt>
      <trkpt lat="43.4229688905179500579833984375" lon="-5.58724866248667240142822265625">
        <ele>356</ele>
        <time>2022-06-04T10:47:29.000Z</time>
      </trkpt>
      <trkpt lat="43.422983475029468536376953125" lon="-5.58723893947899341583251953125">
        <ele>356.20001220703125</ele>
        <time>2022-06-04T10:47:30.000Z</time>
      </trkpt>
      <trkpt lat="43.422996215522289276123046875" lon="-5.58723307214677333831787109375">
        <ele>356.399993896484375</ele>
        <time>2022-06-04T10:47:31.000Z</time>
      </trkpt>
      <trkpt lat="43.4230235405266284942626953125" lon="-5.5872286297380924224853515625">
        <ele>356.600006103515625</ele>
        <time>2022-06-04T10:47:33.000Z</time>
      </trkpt>
      <trkpt lat="43.42303753830492496490478515625" lon="-5.58723189868032932281494140625">
        <ele>356.79998779296875</ele>
        <time>2022-06-04T10:47:34.000Z</time>
      </trkpt>
      <trkpt lat="43.4230528771877288818359375" lon="-5.5872385203838348388671875">
        <ele>357</ele>
        <time>2022-06-04T10:47:35.000Z</time>
      </trkpt>
      <trkpt lat="43.4230664558708667755126953125" lon="-5.58724815957248210906982421875">
        <ele>357.20001220703125</ele>
        <time>2022-06-04T10:47:36.000Z</time>
      </trkpt>
      <trkpt lat="43.4230664558708667755126953125" lon="-5.58724815957248210906982421875">
        <ele>357.399993896484375</ele>
        <time>2022-06-04T10:47:37.000Z</time>
      </trkpt>
      <trkpt lat="43.4230865724384784698486328125" lon="-5.5872792564332485198974609375">
        <ele>357.600006103515625</ele>
        <time>2022-06-04T10:47:39.000Z</time>
      </trkpt>
      <trkpt lat="43.4231038391590118408203125" lon="-5.58731496334075927734375">
        <ele>358</ele>
        <time>2022-06-04T10:47:41.000Z</time>
      </trkpt>
      <trkpt lat="43.42310853302478790283203125" lon="-5.58733901940286159515380859375">
        <ele>358.399993896484375</ele>
        <time>2022-06-04T10:47:42.000Z</time>
      </trkpt>
      <trkpt lat="43.42310911975800991058349609375" lon="-5.58736382983624935150146484375">
        <ele>358.600006103515625</ele>
        <time>2022-06-04T10:47:43.000Z</time>
      </trkpt>
      <trkpt lat="43.42310710810124874114990234375" lon="-5.58740817010402679443359375">
        <ele>359</ele>
        <time>2022-06-04T10:47:45.000Z</time>
      </trkpt>
      <trkpt lat="43.42309755273163318634033203125" lon="-5.587452091276645660400390625">
        <ele>359.600006103515625</ele>
        <time>2022-06-04T10:47:47.000Z</time>
      </trkpt>
      <trkpt lat="43.4230922721326351165771484375" lon="-5.58747212402522563934326171875">
        <ele>359.79998779296875</ele>
        <time>2022-06-04T10:47:48.000Z</time>
      </trkpt>
      <trkpt lat="43.42308648861944675445556640625" lon="-5.5874931626021862030029296875">
        <ele>360.399993896484375</ele>
        <time>2022-06-04T10:47:49.000Z</time>
      </trkpt>
      <trkpt lat="43.4230812080204486846923828125" lon="-5.587517134845256805419921875">
        <ele>360.600006103515625</ele>
        <time>2022-06-04T10:47:50.000Z</time>
      </trkpt>
      <trkpt lat="43.42307911254465579986572265625" lon="-5.5875411070883274078369140625">
        <ele>360.79998779296875</ele>
        <time>2022-06-04T10:47:51.000Z</time>
      </trkpt>
      <trkpt lat="43.423080034554004669189453125" lon="-5.58759131468832492828369140625">
        <ele>361.20001220703125</ele>
        <time>2022-06-04T10:47:53.000Z</time>
      </trkpt>
      <trkpt lat="43.4230842255055904388427734375" lon="-5.5876410193741321563720703125">
        <ele>361.600006103515625</ele>
        <time>2022-06-04T10:47:55.000Z</time>
      </trkpt>
      <trkpt lat="43.42309218831360340118408203125" lon="-5.58768971823155879974365234375">
        <ele>362</ele>
        <time>2022-06-04T10:47:57.000Z</time>
      </trkpt>
      <trkpt lat="43.42310023494064807891845703125" lon="-5.58776398189365863800048828125">
        <ele>362.399993896484375</ele>
        <time>2022-06-04T10:47:59.000Z</time>
      </trkpt>
      <trkpt lat="43.42310677282512187957763671875" lon="-5.5878136865794658660888671875">
        <ele>362.399993896484375</ele>
        <time>2022-06-04T10:48:01.000Z</time>
      </trkpt>
      <trkpt lat="43.42310677282512187957763671875" lon="-5.5878136865794658660888671875">
        <ele>362.600006103515625</ele>
        <time>2022-06-04T10:48:02.000Z</time>
      </trkpt>
      <trkpt lat="43.42311163432896137237548828125" lon="-5.58786439709365367889404296875">
        <ele>362.79998779296875</ele>
        <time>2022-06-04T10:48:03.000Z</time>
      </trkpt>
      <trkpt lat="43.42311632819473743438720703125" lon="-5.58791376650333404541015625">
        <ele>363</ele>
        <time>2022-06-04T10:48:05.000Z</time>
      </trkpt>
      <trkpt lat="43.42311917804181575775146484375" lon="-5.58793799020349979400634765625">
        <ele>363</ele>
        <time>2022-06-04T10:48:06.000Z</time>
      </trkpt>
      <trkpt lat="43.423122279345989227294921875" lon="-5.5879622139036655426025390625">
        <ele>363.20001220703125</ele>
        <time>2022-06-04T10:48:07.000Z</time>
      </trkpt>
      <trkpt lat="43.42313325963914394378662109375" lon="-5.5880094878375530242919921875">
        <ele>363.600006103515625</ele>
        <time>2022-06-04T10:48:09.000Z</time>
      </trkpt>
      <trkpt lat="43.4231529571115970611572265625" lon="-5.58805198408663272857666015625">
        <ele>364</ele>
        <time>2022-06-04T10:48:11.000Z</time>
      </trkpt>
      <trkpt lat="43.4231700561940670013427734375" lon="-5.58809607289731502532958984375">
        <ele>364.20001220703125</ele>
        <time>2022-06-04T10:48:13.000Z</time>
      </trkpt>
      <trkpt lat="43.42318673618137836456298828125" lon="-5.58814041316509246826171875">
        <ele>364.600006103515625</ele>
        <time>2022-06-04T10:48:15.000Z</time>
      </trkpt>
      <trkpt lat="43.42319570481777191162109375" lon="-5.58816145174205303192138671875">
        <ele>364.79998779296875</ele>
        <time>2022-06-04T10:48:16.000Z</time>
      </trkpt>
      <trkpt lat="43.42320567928254604339599609375" lon="-5.588181316852569580078125">
        <ele>365.20001220703125</ele>
        <time>2022-06-04T10:48:17.000Z</time>
      </trkpt>
      <trkpt lat="43.42322763986885547637939453125" lon="-5.588219873607158660888671875">
        <ele>365.399993896484375</ele>
        <time>2022-06-04T10:48:19.000Z</time>
      </trkpt>
      <trkpt lat="43.4232486784458160400390625" lon="-5.5882596038281917572021484375">
        <ele>365.79998779296875</ele>
        <time>2022-06-04T10:48:21.000Z</time>
      </trkpt>
      <trkpt lat="43.42326938174664974212646484375" lon="-5.58830210007727146148681640625">
        <ele>366.20001220703125</ele>
        <time>2022-06-04T10:48:23.000Z</time>
      </trkpt>
      <trkpt lat="43.42328379862010478973388671875" lon="-5.58834669180214405059814453125">
        <ele>366.79998779296875</ele>
        <time>2022-06-04T10:48:25.000Z</time>
      </trkpt>
      <trkpt lat="43.42328379862010478973388671875" lon="-5.58834669180214405059814453125">
        <ele>367</ele>
        <time>2022-06-04T10:48:26.000Z</time>
      </trkpt>
      <trkpt lat="43.42329586856067180633544921875" lon="-5.58839128352701663970947265625">
        <ele>367.20001220703125</ele>
        <time>2022-06-04T10:48:27.000Z</time>
      </trkpt>
      <trkpt lat="43.42330475337803363800048828125" lon="-5.5884346179664134979248046875">
        <ele>367.79998779296875</ele>
        <time>2022-06-04T10:48:29.000Z</time>
      </trkpt>
      <trkpt lat="43.42330827377736568450927734375" lon="-5.5884775333106517791748046875">
        <ele>368.20001220703125</ele>
        <time>2022-06-04T10:48:31.000Z</time>
      </trkpt>
      <trkpt lat="43.42331732623279094696044921875" lon="-5.58852170594036579132080078125">
        <ele>368.600006103515625</ele>
        <time>2022-06-04T10:48:33.000Z</time>
      </trkpt>
      <trkpt lat="43.42332503758370876312255859375" lon="-5.58856646530330181121826171875">
        <ele>368.79998779296875</ele>
        <time>2022-06-04T10:48:35.000Z</time>
      </trkpt>
      <trkpt lat="43.42333316802978515625" lon="-5.5886069498956203460693359375">
        <ele>369.20001220703125</ele>
        <time>2022-06-04T10:48:37.000Z</time>
      </trkpt>
      <trkpt lat="43.42333316802978515625" lon="-5.5886069498956203460693359375">
        <ele>369.399993896484375</ele>
        <time>2022-06-04T10:48:38.000Z</time>
      </trkpt>
      <trkpt lat="43.42334012500941753387451171875" lon="-5.58864626102149486541748046875">
        <ele>369.600006103515625</ele>
        <time>2022-06-04T10:48:39.000Z</time>
      </trkpt>
      <trkpt lat="43.4233417175710201263427734375" lon="-5.58868624269962310791015625">
        <ele>370</ele>
        <time>2022-06-04T10:48:41.000Z</time>
      </trkpt>
      <trkpt lat="43.42334565706551074981689453125" lon="-5.58872723020613193511962890625">
        <ele>370.399993896484375</ele>
        <time>2022-06-04T10:48:43.000Z</time>
      </trkpt>
      <trkpt lat="43.4233452379703521728515625" lon="-5.5887712351977825164794921875">
        <ele>370.79998779296875</ele>
        <time>2022-06-04T10:48:45.000Z</time>
      </trkpt>
      <trkpt lat="43.4233438968658447265625" lon="-5.5888205207884311676025390625">
        <ele>371</ele>
        <time>2022-06-04T10:48:47.000Z</time>
      </trkpt>
      <trkpt lat="43.42334481887519359588623046875" lon="-5.58884524740278720855712890625">
        <ele>371.20001220703125</ele>
        <time>2022-06-04T10:48:48.000Z</time>
      </trkpt>
      <trkpt lat="43.42334314249455928802490234375" lon="-5.588871650397777557373046875">
        <ele>371.399993896484375</ele>
        <time>2022-06-04T10:48:49.000Z</time>
      </trkpt>
      <trkpt lat="43.42334314249455928802490234375" lon="-5.588871650397777557373046875">
        <ele>371.600006103515625</ele>
        <time>2022-06-04T10:48:50.000Z</time>
      </trkpt>
      <trkpt lat="43.4233370237052440643310546875" lon="-5.5889254622161388397216796875">
        <ele>371.79998779296875</ele>
        <time>2022-06-04T10:48:51.000Z</time>
      </trkpt>
      <trkpt lat="43.42333241365849971771240234375" lon="-5.58897734619677066802978515625">
        <ele>372.20001220703125</ele>
        <time>2022-06-04T10:48:53.000Z</time>
      </trkpt>
      <trkpt lat="43.42333006672561168670654296875" lon="-5.5890029110014438629150390625">
        <ele>372.20001220703125</ele>
        <time>2022-06-04T10:48:54.000Z</time>
      </trkpt>
      <trkpt lat="43.4233283065259456634521484375" lon="-5.58902931399643421173095703125">
        <ele>372.399993896484375</ele>
        <time>2022-06-04T10:48:55.000Z</time>
      </trkpt>
      <trkpt lat="43.42332202009856700897216796875" lon="-5.58907918632030487060546875">
        <ele>372.79998779296875</ele>
        <time>2022-06-04T10:48:57.000Z</time>
      </trkpt>
      <trkpt lat="43.4233135543763637542724609375" lon="-5.58912503533065319061279296875">
        <ele>373.20001220703125</ele>
        <time>2022-06-04T10:48:59.000Z</time>
      </trkpt>
      <trkpt lat="43.4233103692531585693359375" lon="-5.5891443975269794464111328125">
        <ele>373.399993896484375</ele>
        <time>2022-06-04T10:49:00.000Z</time>
      </trkpt>
      <trkpt lat="43.42330508865416049957275390625" lon="-5.589165352284908294677734375">
        <ele>373.600006103515625</ele>
        <time>2022-06-04T10:49:01.000Z</time>
      </trkpt>
      <trkpt lat="43.42329285107553005218505859375" lon="-5.58921170420944690704345703125">
        <ele>373.79998779296875</ele>
        <time>2022-06-04T10:49:03.000Z</time>
      </trkpt>
      <trkpt lat="43.42328212223947048187255859375" lon="-5.58926149271428585052490234375">
        <ele>374.20001220703125</ele>
        <time>2022-06-04T10:49:05.000Z</time>
      </trkpt>
      <trkpt lat="43.423277176916599273681640625" lon="-5.58928613550961017608642578125">
        <ele>374.399993896484375</ele>
        <time>2022-06-04T10:49:06.000Z</time>
      </trkpt>
      <trkpt lat="43.42327348887920379638671875" lon="-5.58931061066687107086181640625">
        <ele>374.600006103515625</ele>
        <time>2022-06-04T10:49:07.000Z</time>
      </trkpt>
      <trkpt lat="43.42327348887920379638671875" lon="-5.58931061066687107086181640625">
        <ele>374.600006103515625</ele>
        <time>2022-06-04T10:49:08.000Z</time>
      </trkpt>
      <trkpt lat="43.423262424767017364501953125" lon="-5.5893556214869022369384765625">
        <ele>374.600006103515625</ele>
        <time>2022-06-04T10:49:09.000Z</time>
      </trkpt>
      <trkpt lat="43.42324608005583286285400390625" lon="-5.589398704469203948974609375">
        <ele>375</ele>
        <time>2022-06-04T10:49:11.000Z</time>
      </trkpt>
      <trkpt lat="43.423236273229122161865234375" lon="-5.589419491589069366455078125">
        <ele>375.20001220703125</ele>
        <time>2022-06-04T10:49:12.000Z</time>
      </trkpt>
      <trkpt lat="43.42322629876434803009033203125" lon="-5.58944103308022022247314453125">
        <ele>375.600006103515625</ele>
        <time>2022-06-04T10:49:13.000Z</time>
      </trkpt>
      <trkpt lat="43.42320953495800495147705078125" lon="-5.58948419988155364990234375">
        <ele>376</ele>
        <time>2022-06-04T10:49:15.000Z</time>
      </trkpt>
      <trkpt lat="43.423187993466854095458984375" lon="-5.589526109397411346435546875">
        <ele>376.20001220703125</ele>
        <time>2022-06-04T10:49:17.000Z</time>
      </trkpt>
      <trkpt lat="43.42317022383213043212890625" lon="-5.58956843800842761993408203125">
        <ele>376.600006103515625</ele>
        <time>2022-06-04T10:49:19.000Z</time>
      </trkpt>
      <trkpt lat="43.4231574833393096923828125" lon="-5.58961571194231510162353515625">
        <ele>377</ele>
        <time>2022-06-04T10:49:21.000Z</time>
      </trkpt>
      <trkpt lat="43.42314482666552066802978515625" lon="-5.58966449461877346038818359375">
        <ele>377.399993896484375</ele>
        <time>2022-06-04T10:49:23.000Z</time>
      </trkpt>
      <trkpt lat="43.42313812114298343658447265625" lon="-5.58968779630959033966064453125">
        <ele>377.399993896484375</ele>
        <time>2022-06-04T10:49:24.000Z</time>
      </trkpt>
      <trkpt lat="43.42313258908689022064208984375" lon="-5.589711181819438934326171875">
        <ele>377.600006103515625</ele>
        <time>2022-06-04T10:49:25.000Z</time>
      </trkpt>
      <trkpt lat="43.4231211058795452117919921875" lon="-5.58976189233362674713134765625">
        <ele>377.79998779296875</ele>
        <time>2022-06-04T10:49:27.000Z</time>
      </trkpt>
      <trkpt lat="43.42310719192028045654296875" lon="-5.5898107588291168212890625">
        <ele>378.20001220703125</ele>
        <time>2022-06-04T10:49:29.000Z</time>
      </trkpt>
      <trkpt lat="43.423097133636474609375" lon="-5.58986230753362178802490234375">
        <ele>378.399993896484375</ele>
        <time>2022-06-04T10:49:31.000Z</time>
      </trkpt>
      <trkpt lat="43.4230993129312992095947265625" lon="-5.58991477824747562408447265625">
        <ele>378.79998779296875</ele>
        <time>2022-06-04T10:49:33.000Z</time>
      </trkpt>
      <trkpt lat="43.42310207895934581756591796875" lon="-5.58994025923311710357666015625">
        <ele>379</ele>
        <time>2022-06-04T10:49:34.000Z</time>
      </trkpt>
      <trkpt lat="43.423104174435138702392578125" lon="-5.58996607549488544464111328125">
        <ele>379</ele>
        <time>2022-06-04T10:49:35.000Z</time>
      </trkpt>
      <trkpt lat="43.42310174368321895599365234375" lon="-5.5900174565613269805908203125">
        <ele>379.20001220703125</ele>
        <time>2022-06-04T10:49:37.000Z</time>
      </trkpt>
      <trkpt lat="43.42310174368321895599365234375" lon="-5.5900174565613269805908203125">
        <ele>379.399993896484375</ele>
        <time>2022-06-04T10:49:38.000Z</time>
      </trkpt>
      <trkpt lat="43.423105180263519287109375" lon="-5.590069927275180816650390625">
        <ele>379.600006103515625</ele>
        <time>2022-06-04T10:49:39.000Z</time>
      </trkpt>
      <trkpt lat="43.42311163432896137237548828125" lon="-5.59012214653193950653076171875">
        <ele>380.20001220703125</ele>
        <time>2022-06-04T10:49:41.000Z</time>
      </trkpt>
      <trkpt lat="43.4231137298047542572021484375" lon="-5.59014846570789813995361328125">
        <ele>380.399993896484375</ele>
        <time>2022-06-04T10:49:42.000Z</time>
      </trkpt>
      <trkpt lat="43.4231157414615154266357421875" lon="-5.5901740305125713348388671875">
        <ele>380.600006103515625</ele>
        <time>2022-06-04T10:49:43.000Z</time>
      </trkpt>
      <trkpt lat="43.42311800457537174224853515625" lon="-5.59022591449320316314697265625">
        <ele>381.20001220703125</ele>
        <time>2022-06-04T10:49:45.000Z</time>
      </trkpt>
      <trkpt lat="43.4231237880885601043701171875" lon="-5.59027654118835926055908203125">
        <ele>381.399993896484375</ele>
        <time>2022-06-04T10:49:47.000Z</time>
      </trkpt>
      <trkpt lat="43.4231274761259555816650390625" lon="-5.590329430997371673583984375">
        <ele>381.79998779296875</ele>
        <time>2022-06-04T10:49:49.000Z</time>
      </trkpt>
      <trkpt lat="43.4231293201446533203125" lon="-5.5903802253305912017822265625">
        <ele>382</ele>
        <time>2022-06-04T10:49:51.000Z</time>
      </trkpt>
      <trkpt lat="43.4231348522007465362548828125" lon="-5.59042892418801784515380859375">
        <ele>382.399993896484375</ele>
        <time>2022-06-04T10:49:53.000Z</time>
      </trkpt>
      <trkpt lat="43.42314080335199832916259765625" lon="-5.590452812612056732177734375">
        <ele>382.399993896484375</ele>
        <time>2022-06-04T10:49:54.000Z</time>
      </trkpt>
      <trkpt lat="43.42314650304615497589111328125" lon="-5.59047686867415904998779296875">
        <ele>382.600006103515625</ele>
        <time>2022-06-04T10:49:55.000Z</time>
      </trkpt>
      <trkpt lat="43.42315723188221454620361328125" lon="-5.5905247293412685394287109375">
        <ele>383</ele>
        <time>2022-06-04T10:49:57.000Z</time>
      </trkpt>
      <trkpt lat="43.4231680445373058319091796875" lon="-5.59057057835161685943603515625">
        <ele>383.20001220703125</ele>
        <time>2022-06-04T10:49:59.000Z</time>
      </trkpt>
      <trkpt lat="43.42317558825016021728515625" lon="-5.59059253893792629241943359375">
        <ele>383.600006103515625</ele>
        <time>2022-06-04T10:50:00.000Z</time>
      </trkpt>
      <trkpt lat="43.42318363487720489501953125" lon="-5.59061475098133087158203125">
        <ele>383.79998779296875</ele>
        <time>2022-06-04T10:50:01.000Z</time>
      </trkpt>
      <trkpt lat="43.4231988899409770965576171875" lon="-5.59065992943942546844482421875">
        <ele>384.20001220703125</ele>
        <time>2022-06-04T10:50:03.000Z</time>
      </trkpt>
      <trkpt lat="43.42321054078638553619384765625" lon="-5.5907057784497737884521484375">
        <ele>384.600006103515625</ele>
        <time>2022-06-04T10:50:05.000Z</time>
      </trkpt>
      <trkpt lat="43.42322445474565029144287109375" lon="-5.59075154364109039306640625">
        <ele>384.600006103515625</ele>
        <time>2022-06-04T10:50:07.000Z</time>
      </trkpt>
      <trkpt lat="43.423238284885883331298828125" lon="-5.59079688973724842071533203125">
        <ele>385.399993896484375</ele>
        <time>2022-06-04T10:50:09.000Z</time>
      </trkpt>
      <trkpt lat="43.42324691824615001678466796875" lon="-5.590818934142589569091796875">
        <ele>385.600006103515625</ele>
        <time>2022-06-04T10:50:11.000Z</time>
      </trkpt>
      <trkpt lat="43.4232622571289539337158203125" lon="-5.59086428023874759674072265625">
        <ele>385.79998779296875</ele>
        <time>2022-06-04T10:50:12.000Z</time>
      </trkpt>
      <trkpt lat="43.4232686273753643035888671875" lon="-5.5908874981105327606201171875">
        <ele>386</ele>
        <time>2022-06-04T10:50:13.000Z</time>
      </trkpt>
      <trkpt lat="43.42327424325048923492431640625" lon="-5.59091113507747650146484375">
        <ele>386.399993896484375</ele>
        <time>2022-06-04T10:50:15.000Z</time>
      </trkpt>
      <trkpt lat="43.42329637147486209869384765625" lon="-5.59097626246511936187744140625">
        <ele>386.600006103515625</ele>
        <time>2022-06-04T10:50:17.000Z</time>
      </trkpt>
      <trkpt lat="43.42330223880708217620849609375" lon="-5.59099906124174594879150390625">
        <ele>387</ele>
        <time>2022-06-04T10:50:19.000Z</time>
      </trkpt>
      <trkpt lat="43.42330969870090484619140625" lon="-5.59104834683239459991455078125">
        <ele>387.20001220703125</ele>
        <time>2022-06-04T10:50:21.000Z</time>
      </trkpt>
      <trkpt lat="43.42331732623279094696044921875" lon="-5.59109746478497982025146484375">
        <ele>387.399993896484375</ele>
        <time>2022-06-04T10:50:22.000Z</time>
      </trkpt>
      <trkpt lat="43.42331732623279094696044921875" lon="-5.59109746478497982025146484375">
        <ele>387.600006103515625</ele>
        <time>2022-06-04T10:50:23.000Z</time>
      </trkpt>
      <trkpt lat="43.42332671396434307098388671875" lon="-5.5911694653332233428955078125">
        <ele>388</ele>
        <time>2022-06-04T10:50:25.000Z</time>
      </trkpt>
      <trkpt lat="43.4233266301453113555908203125" lon="-5.59119452722370624542236328125">
        <ele>388.399993896484375</ele>
        <time>2022-06-04T10:50:27.000Z</time>
      </trkpt>
      <trkpt lat="43.4233283065259456634521484375" lon="-5.5912438966333866119384765625">
        <ele>388.600006103515625</ele>
        <time>2022-06-04T10:50:28.000Z</time>
      </trkpt>
      <trkpt lat="43.4233283065259456634521484375" lon="-5.5912438966333866119384765625">
        <ele>388.600006103515625</ele>
        <time>2022-06-04T10:50:29.000Z</time>
      </trkpt>
      <trkpt lat="43.42333593405783176422119140625" lon="-5.5912908352911472320556640625">
        <ele>388.79998779296875</ele>
        <time>2022-06-04T10:50:30.000Z</time>
      </trkpt>
      <trkpt lat="43.4233371913433074951171875" lon="-5.59131572954356670379638671875">
        <ele>389</ele>
        <time>2022-06-04T10:50:31.000Z</time>
      </trkpt>
      <trkpt lat="43.42333693988621234893798828125" lon="-5.59133986942470073699951171875">
        <ele>389.399993896484375</ele>
        <time>2022-06-04T10:50:33.000Z</time>
      </trkpt>
      <trkpt lat="43.42333517968654632568359375" lon="-5.59138697572052478790283203125">
        <ele>389.79998779296875</ele>
        <time>2022-06-04T10:50:34.000Z</time>
      </trkpt>
      <trkpt lat="43.42333517968654632568359375" lon="-5.59138697572052478790283203125">
        <ele>390</ele>
        <time>2022-06-04T10:50:35.000Z</time>
      </trkpt>
      <trkpt lat="43.423339538276195526123046875" lon="-5.59143525548279285430908203125">
        <ele>390.600006103515625</ele>
        <time>2022-06-04T10:50:37.000Z</time>
      </trkpt>
      <trkpt lat="43.4233443997800350189208984375" lon="-5.5914588086307048797607421875">
        <ele>390.79998779296875</ele>
        <time>2022-06-04T10:50:38.000Z</time>
      </trkpt>
      <trkpt lat="43.423354960978031158447265625" lon="-5.59150566346943378448486328125">
        <ele>391</ele>
        <time>2022-06-04T10:50:39.000Z</time>
      </trkpt>
      <trkpt lat="43.42335990630090236663818359375" lon="-5.5915288813412189483642578125">
        <ele>391.399993896484375</ele>
        <time>2022-06-04T10:50:41.000Z</time>
      </trkpt>
      <trkpt lat="43.423367701470851898193359375" lon="-5.591576658189296722412109375">
        <ele>391.79998779296875</ele>
        <time>2022-06-04T10:50:43.000Z</time>
      </trkpt>
      <trkpt lat="43.42336761765182018280029296875" lon="-5.59160088188946247100830078125">
        <ele>391.79998779296875</ele>
        <time>2022-06-04T10:50:44.000Z</time>
      </trkpt>
      <trkpt lat="43.42336929403245449066162109375" lon="-5.59164949692785739898681640625">
        <ele>392</ele>
        <time>2022-06-04T10:50:45.000Z</time>
      </trkpt>
      <trkpt lat="43.4233749099075794219970703125" lon="-5.5916710384190082550048828125">
        <ele>392.600006103515625</ele>
        <time>2022-06-04T10:50:47.000Z</time>
      </trkpt>
      <trkpt lat="43.42339175753295421600341796875" lon="-5.59173700399696826934814453125">
        <ele>392.79998779296875</ele>
        <time>2022-06-04T10:50:49.000Z</time>
      </trkpt>
      <trkpt lat="43.423403911292552947998046875" lon="-5.59178427793085575103759765625">
        <ele>393.20001220703125</ele>
        <time>2022-06-04T10:50:51.000Z</time>
      </trkpt>
      <trkpt lat="43.4234077669680118560791015625" lon="-5.59183540754020214080810546875">
        <ele>393.600006103515625</ele>
        <time>2022-06-04T10:50:53.000Z</time>
      </trkpt>
      <trkpt lat="43.4234101139008998870849609375" lon="-5.59186038561165332794189453125">
        <ele>393.600006103515625</ele>
        <time>2022-06-04T10:50:54.000Z</time>
      </trkpt>
      <trkpt lat="43.42341321520507335662841796875" lon="-5.59188536368310451507568359375">
        <ele>394</ele>
        <time>2022-06-04T10:50:55.000Z</time>
      </trkpt>
      <trkpt lat="43.42341824434697628021240234375" lon="-5.59193615801632404327392578125">
        <ele>394</ele>
        <time>2022-06-04T10:50:57.000Z</time>
      </trkpt>
      <trkpt lat="43.42342344112694263458251953125" lon="-5.5919892154633998870849609375">
        <ele>394.600006103515625</ele>
        <time>2022-06-04T10:50:59.000Z</time>
      </trkpt>
      <trkpt lat="43.4234322421252727508544921875" lon="-5.592040680348873138427734375">
        <ele>394.79998779296875</ele>
        <time>2022-06-04T10:51:01.000Z</time>
      </trkpt>
      <trkpt lat="43.4234406240284442901611328125" lon="-5.59209130704402923583984375">
        <ele>395</ele>
        <time>2022-06-04T10:51:03.000Z</time>
      </trkpt>
      <trkpt lat="43.4234498441219329833984375" lon="-5.59214285574853420257568359375">
        <ele>395.399993896484375</ele>
        <time>2022-06-04T10:51:05.000Z</time>
      </trkpt>
      <trkpt lat="43.42345898039638996124267578125" lon="-5.592193566262722015380859375">
        <ele>395.79998779296875</ele>
        <time>2022-06-04T10:51:07.000Z</time>
      </trkpt>
      <trkpt lat="43.42347054742276668548583984375" lon="-5.5922433547675609588623046875">
        <ele>396.20001220703125</ele>
        <time>2022-06-04T10:51:09.000Z</time>
      </trkpt>
      <trkpt lat="43.42347607947885990142822265625" lon="-5.5922671593725681304931640625">
        <ele>396.399993896484375</ele>
        <time>2022-06-04T10:51:11.000Z</time>
      </trkpt>
      <trkpt lat="43.42348244972527027130126953125" lon="-5.592317283153533935546875">
        <ele>396.600006103515625</ele>
        <time>2022-06-04T10:51:13.000Z</time>
      </trkpt>
      <trkpt lat="43.42348538339138031005859375" lon="-5.592342428863048553466796875">
        <ele>396.79998779296875</ele>
        <time>2022-06-04T10:51:14.000Z</time>
      </trkpt>
      <trkpt lat="43.42349284328520298004150390625" lon="-5.592392049729824066162109375">
        <ele>396.79998779296875</ele>
        <time>2022-06-04T10:51:15.000Z</time>
      </trkpt>
      <trkpt lat="43.42349519021809101104736328125" lon="-5.59241778217256069183349609375">
        <ele>397.20001220703125</ele>
        <time>2022-06-04T10:51:17.000Z</time>
      </trkpt>
      <trkpt lat="43.42349753715097904205322265625" lon="-5.59246840886771678924560546875">
        <ele>397.399993896484375</ele>
        <time>2022-06-04T10:51:19.000Z</time>
      </trkpt>
      <trkpt lat="43.42349368147552013397216796875" lon="-5.5925427563488483428955078125">
        <ele>397.79998779296875</ele>
        <time>2022-06-04T10:51:21.000Z</time>
      </trkpt>
      <trkpt lat="43.42349502258002758026123046875" lon="-5.59256698004901409149169921875">
        <ele>398</ele>
        <time>2022-06-04T10:51:22.000Z</time>
      </trkpt>
      <trkpt lat="43.42349502258002758026123046875" lon="-5.59256698004901409149169921875">
        <ele>398.20001220703125</ele>
        <time>2022-06-04T10:51:23.000Z</time>
      </trkpt>
      <trkpt lat="43.42350373975932598114013671875" lon="-5.59261500835418701171875">
        <ele>398.20001220703125</ele>
        <time>2022-06-04T10:51:24.000Z</time>
      </trkpt>
      <trkpt lat="43.42350927181541919708251953125" lon="-5.59263990260660648345947265625">
        <ele>398.399993896484375</ele>
        <time>2022-06-04T10:51:25.000Z</time>
      </trkpt>
      <trkpt lat="43.42351648025214672088623046875" lon="-5.5926929600536823272705078125">
        <ele>398.79998779296875</ele>
        <time>2022-06-04T10:51:27.000Z</time>
      </trkpt>
      <trkpt lat="43.42351782135665416717529296875" lon="-5.592720620334148406982421875">
        <ele>399</ele>
        <time>2022-06-04T10:51:28.000Z</time>
      </trkpt>
      <trkpt lat="43.42351782135665416717529296875" lon="-5.592720620334148406982421875">
        <ele>399.399993896484375</ele>
        <time>2022-06-04T10:51:29.000Z</time>
      </trkpt>
      <trkpt lat="43.42352352105081081390380859375" lon="-5.5927972309291362762451171875">
        <ele>399.79998779296875</ele>
        <time>2022-06-04T10:51:31.000Z</time>
      </trkpt>
      <trkpt lat="43.42352352105081081390380859375" lon="-5.5927972309291362762451171875">
        <ele>400</ele>
        <time>2022-06-04T10:51:32.000Z</time>
      </trkpt>
      <trkpt lat="43.42353156767785549163818359375" lon="-5.59284743852913379669189453125">
        <ele>400.600006103515625</ele>
        <time>2022-06-04T10:51:33.000Z</time>
      </trkpt>
      <trkpt lat="43.423536010086536407470703125" lon="-5.59287182986736297607421875">
        <ele>400.79998779296875</ele>
        <time>2022-06-04T10:51:35.000Z</time>
      </trkpt>
      <trkpt lat="43.42354263179004192352294921875" lon="-5.59294802136719226837158203125">
        <ele>401</ele>
        <time>2022-06-04T10:51:37.000Z</time>
      </trkpt>
      <trkpt lat="43.42354313470423221588134765625" lon="-5.5929972231388092041015625">
        <ele>401.399993896484375</ele>
        <time>2022-06-04T10:51:39.000Z</time>
      </trkpt>
      <trkpt lat="43.4235492534935474395751953125" lon="-5.59304642491042613983154296875">
        <ele>401.600006103515625</ele>
        <time>2022-06-04T10:51:41.000Z</time>
      </trkpt>
      <trkpt lat="43.4235559590160846710205078125" lon="-5.5930691398680210113525390625">
        <ele>402.20001220703125</ele>
        <time>2022-06-04T10:51:42.000Z</time>
      </trkpt>
      <trkpt lat="43.42356383800506591796875" lon="-5.5930919386446475982666015625">
        <ele>402.399993896484375</ele>
        <time>2022-06-04T10:51:43.000Z</time>
      </trkpt>
      <trkpt lat="43.42357456684112548828125" lon="-5.59314130805432796478271484375">
        <ele>402.600006103515625</ele>
        <time>2022-06-04T10:51:45.000Z</time>
      </trkpt>
      <trkpt lat="43.423578254878520965576171875" lon="-5.593166537582874298095703125">
        <ele>403</ele>
        <time>2022-06-04T10:51:47.000Z</time>
      </trkpt>
      <trkpt lat="43.42358068563044071197509765625" lon="-5.593216829001903533935546875">
        <ele>403</ele>
        <time>2022-06-04T10:51:48.000Z</time>
      </trkpt>
      <trkpt lat="43.42358068563044071197509765625" lon="-5.593216829001903533935546875">
        <ele>403.399993896484375</ele>
        <time>2022-06-04T10:51:49.000Z</time>
      </trkpt>
      <trkpt lat="43.42358102090656757354736328125" lon="-5.5932421423494815826416015625">
        <ele>403.399993896484375</ele>
        <time>2022-06-04T10:51:50.000Z</time>
      </trkpt>
      <trkpt lat="43.42358152382075786590576171875" lon="-5.59326787479221820831298828125">
        <ele>403.600006103515625</ele>
        <time>2022-06-04T10:51:51.000Z</time>
      </trkpt>
      <trkpt lat="43.42358219437301158905029296875" lon="-5.59331933967769145965576171875">
        <ele>404</ele>
        <time>2022-06-04T10:51:53.000Z</time>
      </trkpt>
      <trkpt lat="43.423581607639789581298828125" lon="-5.59336946345865726470947265625">
        <ele>404.20001220703125</ele>
        <time>2022-06-04T10:51:54.000Z</time>
      </trkpt>
      <trkpt lat="43.423581607639789581298828125" lon="-5.59336946345865726470947265625">
        <ele>404.20001220703125</ele>
        <time>2022-06-04T10:51:55.000Z</time>
      </trkpt>
      <trkpt lat="43.42358320020139217376708984375" lon="-5.593417994678020477294921875">
        <ele>404.399993896484375</ele>
        <time>2022-06-04T10:51:57.000Z</time>
      </trkpt>
      <trkpt lat="43.42358806170523166656494140625" lon="-5.59346552006900310516357421875">
        <ele>404.79998779296875</ele>
        <time>2022-06-04T10:51:59.000Z</time>
      </trkpt>
      <trkpt lat="43.42359426431357860565185546875" lon="-5.593515224754810333251953125">
        <ele>405</ele>
        <time>2022-06-04T10:52:00.000Z</time>
      </trkpt>
      <trkpt lat="43.42359761707484722137451171875" lon="-5.59354011900722980499267578125">
        <ele>405.399993896484375</ele>
        <time>2022-06-04T10:52:01.000Z</time>
      </trkpt>
      <trkpt lat="43.42360415495932102203369140625" lon="-5.59359057806432247161865234375">
        <ele>405.600006103515625</ele>
        <time>2022-06-04T10:52:03.000Z</time>
      </trkpt>
      <trkpt lat="43.42360633425414562225341796875" lon="-5.59361672960221767425537109375">
        <ele>406</ele>
        <time>2022-06-04T10:52:05.000Z</time>
      </trkpt>
      <trkpt lat="43.423607759177684783935546875" lon="-5.59367003850638866424560546875">
        <ele>406.399993896484375</ele>
        <time>2022-06-04T10:52:07.000Z</time>
      </trkpt>
      <trkpt lat="43.42360750772058963775634765625" lon="-5.5937487445771694183349609375">
        <ele>406.600006103515625</ele>
        <time>2022-06-04T10:52:09.000Z</time>
      </trkpt>
      <trkpt lat="43.4236045740544795989990234375" lon="-5.5937997065484523773193359375">
        <ele>406.79998779296875</ele>
        <time>2022-06-04T10:52:11.000Z</time>
      </trkpt>
      <trkpt lat="43.423604071140289306640625" lon="-5.59382543899118900299072265625">
        <ele>407</ele>
        <time>2022-06-04T10:52:12.000Z</time>
      </trkpt>
      <trkpt lat="43.423604071140289306640625" lon="-5.59382543899118900299072265625">
        <ele>407.20001220703125</ele>
        <time>2022-06-04T10:52:13.000Z</time>
      </trkpt>
      <trkpt lat="43.423603735864162445068359375" lon="-5.593876652419567108154296875">
        <ele>407.600006103515625</ele>
        <time>2022-06-04T10:52:15.000Z</time>
      </trkpt>
      <trkpt lat="43.4236013889312744140625" lon="-5.5939522571861743927001953125">
        <ele>408</ele>
        <time>2022-06-04T10:52:17.000Z</time>
      </trkpt>
      <trkpt lat="43.4236008860170841217041015625" lon="-5.59397849254310131072998046875">
        <ele>408.20001220703125</ele>
        <time>2022-06-04T10:52:19.000Z</time>
      </trkpt>
      <trkpt lat="43.42359778471291065216064453125" lon="-5.59405527077615261077880859375">
        <ele>408.600006103515625</ele>
        <time>2022-06-04T10:52:21.000Z</time>
      </trkpt>
      <trkpt lat="43.42359669506549835205078125" lon="-5.59408058412373065948486328125">
        <ele>408.79998779296875</ele>
        <time>2022-06-04T10:52:22.000Z</time>
      </trkpt>
      <trkpt lat="43.42359669506549835205078125" lon="-5.59408058412373065948486328125">
        <ele>408.79998779296875</ele>
        <time>2022-06-04T10:52:23.000Z</time>
      </trkpt>
      <trkpt lat="43.42359443195164203643798828125" lon="-5.59412852860987186431884765625">
        <ele>409.20001220703125</ele>
        <time>2022-06-04T10:52:25.000Z</time>
      </trkpt>
      <trkpt lat="43.42359242029488086700439453125" lon="-5.594152919948101043701171875">
        <ele>409.399993896484375</ele>
        <time>2022-06-04T10:52:26.000Z</time>
      </trkpt>
      <trkpt lat="43.42358998954296112060546875" lon="-5.59420111589133739471435546875">
        <ele>409.600006103515625</ele>
        <time>2022-06-04T10:52:27.000Z</time>
      </trkpt>
      <trkpt lat="43.423588313162326812744140625" lon="-5.59424956329166889190673828125">
        <ele>410</ele>
        <time>2022-06-04T10:52:29.000Z</time>
      </trkpt>
      <trkpt lat="43.4235874749720096588134765625" lon="-5.59427252970635890960693359375">
        <ele>410.399993896484375</ele>
        <time>2022-06-04T10:52:31.000Z</time>
      </trkpt>
      <trkpt lat="43.42358437366783618927001953125" lon="-5.5942962504923343658447265625">
        <ele>410.600006103515625</ele>
        <time>2022-06-04T10:52:32.000Z</time>
      </trkpt>
      <trkpt lat="43.42357934452593326568603515625" lon="-5.594319887459278106689453125">
        <ele>410.600006103515625</ele>
        <time>2022-06-04T10:52:33.000Z</time>
      </trkpt>
      <trkpt lat="43.42357389628887176513671875" lon="-5.59436791576445102691650390625">
        <ele>411</ele>
        <time>2022-06-04T10:52:35.000Z</time>
      </trkpt>
      <trkpt lat="43.42357213608920574188232421875" lon="-5.59441720135509967803955078125">
        <ele>411.399993896484375</ele>
        <time>2022-06-04T10:52:37.000Z</time>
      </trkpt>
      <trkpt lat="43.42357448302209377288818359375" lon="-5.5944410897791385650634765625">
        <ele>411.600006103515625</ele>
        <time>2022-06-04T10:52:38.000Z</time>
      </trkpt>
      <trkpt lat="43.4235774166882038116455078125" lon="-5.5944903753697872161865234375">
        <ele>411.600006103515625</ele>
        <time>2022-06-04T10:52:39.000Z</time>
      </trkpt>
      <trkpt lat="43.4235807694494724273681640625" lon="-5.5945141799747943878173828125">
        <ele>411.79998779296875</ele>
        <time>2022-06-04T10:52:40.000Z</time>
      </trkpt>
      <trkpt lat="43.4235807694494724273681640625" lon="-5.5945141799747943878173828125">
        <ele>412</ele>
        <time>2022-06-04T10:52:41.000Z</time>
      </trkpt>
      <trkpt lat="43.42358923517167568206787109375" lon="-5.59456120245158672332763671875">
        <ele>412.399993896484375</ele>
        <time>2022-06-04T10:52:43.000Z</time>
      </trkpt>
      <trkpt lat="43.4235973656177520751953125" lon="-5.59460780583322048187255859375">
        <ele>412.79998779296875</ele>
        <time>2022-06-04T10:52:45.000Z</time>
      </trkpt>
      <trkpt lat="43.4236054122447967529296875" lon="-5.59465575031936168670654296875">
        <ele>413</ele>
        <time>2022-06-04T10:52:47.000Z</time>
      </trkpt>
      <trkpt lat="43.4236203320324420928955078125" lon="-5.59472532011568546295166015625">
        <ele>413.399993896484375</ele>
        <time>2022-06-04T10:52:49.000Z</time>
      </trkpt>
      <trkpt lat="43.4236300550401210784912109375" lon="-5.59477292932569980621337890625">
        <ele>413.79998779296875</ele>
        <time>2022-06-04T10:52:51.000Z</time>
      </trkpt>
      <trkpt lat="43.4236349165439605712890625" lon="-5.5947969853878021240234375">
        <ele>413.79998779296875</ele>
        <time>2022-06-04T10:52:52.000Z</time>
      </trkpt>
      <trkpt lat="43.4236401133239269256591796875" lon="-5.5948206223547458648681640625">
        <ele>413.79998779296875</ele>
        <time>2022-06-04T10:52:53.000Z</time>
      </trkpt>
      <trkpt lat="43.42364656738936901092529296875" lon="-5.5948437564074993133544921875">
        <ele>413.79998779296875</ele>
        <time>2022-06-04T10:52:55.000Z</time>
      </trkpt>
      <trkpt lat="43.4236644208431243896484375" lon="-5.594909973442554473876953125">
        <ele>414.20001220703125</ele>
        <time>2022-06-04T10:52:57.000Z</time>
      </trkpt>
      <trkpt lat="43.42366903088986873626708984375" lon="-5.5949282459914684295654296875">
        <ele>414.79998779296875</ele>
        <time>2022-06-04T10:52:59.000Z</time>
      </trkpt>
      <trkpt lat="43.42368897981941699981689453125" lon="-5.59498381800949573516845703125">
        <ele>415.20001220703125</ele>
        <time>2022-06-04T10:53:01.000Z</time>
      </trkpt>
      <trkpt lat="43.42368897981941699981689453125" lon="-5.59498381800949573516845703125">
        <ele>415.399993896484375</ele>
        <time>2022-06-04T10:53:02.000Z</time>
      </trkpt>
      <trkpt lat="43.423698283731937408447265625" lon="-5.595002509653568267822265625">
        <ele>415.399993896484375</ele>
        <time>2022-06-04T10:53:03.000Z</time>
      </trkpt>
      <trkpt lat="43.42371311970055103302001953125" lon="-5.5950410664081573486328125">
        <ele>415.600006103515625</ele>
        <time>2022-06-04T10:53:05.000Z</time>
      </trkpt>
      <trkpt lat="43.4237396903336048126220703125" lon="-5.595082975924015045166015625">
        <ele>415.79998779296875</ele>
        <time>2022-06-04T10:53:06.000Z</time>
      </trkpt>
      <trkpt lat="43.4237396903336048126220703125" lon="-5.595082975924015045166015625">
        <ele>416</ele>
        <time>2022-06-04T10:53:07.000Z</time>
      </trkpt>
      <trkpt lat="43.42376659624278545379638671875" lon="-5.59511926956474781036376953125">
        <ele>416.20001220703125</ele>
        <time>2022-06-04T10:53:09.000Z</time>
      </trkpt>
      <trkpt lat="43.423792161047458648681640625" lon="-5.595151372253894805908203125">
        <ele>416.600006103515625</ele>
        <time>2022-06-04T10:53:11.000Z</time>
      </trkpt>
      <trkpt lat="43.42381856404244899749755859375" lon="-5.59518531896173954010009765625">
        <ele>416.79998779296875</ele>
        <time>2022-06-04T10:53:13.000Z</time>
      </trkpt>
      <trkpt lat="43.42385309748351573944091796875" lon="-5.59524047188460826873779296875">
        <ele>417.20001220703125</ele>
        <time>2022-06-04T10:53:15.000Z</time>
      </trkpt>
      <trkpt lat="43.423880003392696380615234375" lon="-5.5952752567827701568603515625">
        <ele>417.399993896484375</ele>
        <time>2022-06-04T10:53:17.000Z</time>
      </trkpt>
      <trkpt lat="43.423910848796367645263671875" lon="-5.595303587615489959716796875">
        <ele>417.600006103515625</ele>
        <time>2022-06-04T10:53:19.000Z</time>
      </trkpt>
      <trkpt lat="43.423910848796367645263671875" lon="-5.595303587615489959716796875">
        <ele>417.79998779296875</ele>
        <time>2022-06-04T10:53:20.000Z</time>
      </trkpt>
      <trkpt lat="43.42394026927649974822998046875" lon="-5.5953329242765903472900390625">
        <ele>418</ele>
        <time>2022-06-04T10:53:21.000Z</time>
      </trkpt>
      <trkpt lat="43.4239717014133930206298828125" lon="-5.5953624285757541656494140625">
        <ele>418.20001220703125</ele>
        <time>2022-06-04T10:53:23.000Z</time>
      </trkpt>
      <trkpt lat="43.4239857830107212066650390625" lon="-5.59538044966757297515869140625">
        <ele>418.600006103515625</ele>
        <time>2022-06-04T10:53:25.000Z</time>
      </trkpt>
      <trkpt lat="43.42401134781539440155029296875" lon="-5.59541565366089344024658203125">
        <ele>418.79998779296875</ele>
        <time>2022-06-04T10:53:27.000Z</time>
      </trkpt>
      <trkpt lat="43.42403733171522617340087890625" lon="-5.5954472534358501434326171875">
        <ele>419</ele>
        <time>2022-06-04T10:53:28.000Z</time>
      </trkpt>
      <trkpt lat="43.42403733171522617340087890625" lon="-5.5954472534358501434326171875">
        <ele>419.20001220703125</ele>
        <time>2022-06-04T10:53:29.000Z</time>
      </trkpt>
      <trkpt lat="43.424076475203037261962890625" lon="-5.595496036112308502197265625">
        <ele>419.600006103515625</ele>
        <time>2022-06-04T10:53:31.000Z</time>
      </trkpt>
      <trkpt lat="43.42410095036029815673828125" lon="-5.59552947990596294403076171875">
        <ele>420</ele>
        <time>2022-06-04T10:53:33.000Z</time>
      </trkpt>
      <trkpt lat="43.424114026129245758056640625" lon="-5.59554599225521087646484375">
        <ele>420</ele>
        <time>2022-06-04T10:53:34.000Z</time>
      </trkpt>
      <trkpt lat="43.424127101898193359375" lon="-5.59556267224252223968505859375">
        <ele>420.20001220703125</ele>
        <time>2022-06-04T10:53:35.000Z</time>
      </trkpt>
      <trkpt lat="43.42415434308350086212158203125" lon="-5.59559552930295467376708984375">
        <ele>420.600006103515625</ele>
        <time>2022-06-04T10:53:37.000Z</time>
      </trkpt>
      <trkpt lat="43.42418217100203037261962890625" lon="-5.59562243521213531494140625">
        <ele>421</ele>
        <time>2022-06-04T10:53:39.000Z</time>
      </trkpt>
      <trkpt lat="43.42419642023742198944091796875" lon="-5.595634169876575469970703125">
        <ele>421.20001220703125</ele>
        <time>2022-06-04T10:53:40.000Z</time>
      </trkpt>
      <trkpt lat="43.42420999892055988311767578125" lon="-5.5956464074552059173583984375">
        <ele>421.399993896484375</ele>
        <time>2022-06-04T10:53:41.000Z</time>
      </trkpt>
      <trkpt lat="43.4242385812103748321533203125" lon="-5.595670379698276519775390625">
        <ele>421.79998779296875</ele>
        <time>2022-06-04T10:53:43.000Z</time>
      </trkpt>
      <trkpt lat="43.4242667444050312042236328125" lon="-5.59569544158875942230224609375">
        <ele>422</ele>
        <time>2022-06-04T10:53:45.000Z</time>
      </trkpt>
      <trkpt lat="43.42428090982139110565185546875" lon="-5.595707930624485015869140625">
        <ele>422.20001220703125</ele>
        <time>2022-06-04T10:53:46.000Z</time>
      </trkpt>
      <trkpt lat="43.42428090982139110565185546875" lon="-5.595707930624485015869140625">
        <ele>422.399993896484375</ele>
        <time>2022-06-04T10:53:47.000Z</time>
      </trkpt>
      <trkpt lat="43.4243224002420902252197265625" lon="-5.59574673883616924285888671875">
        <ele>422.600006103515625</ele>
        <time>2022-06-04T10:53:49.000Z</time>
      </trkpt>
      <trkpt lat="43.4243441931903362274169921875" lon="-5.5957835353910923004150390625">
        <ele>422.79998779296875</ele>
        <time>2022-06-04T10:53:51.000Z</time>
      </trkpt>
      <trkpt lat="43.42435668222606182098388671875" lon="-5.59579837135970592498779296875">
        <ele>423</ele>
        <time>2022-06-04T10:53:52.000Z</time>
      </trkpt>
      <trkpt lat="43.424370847642421722412109375" lon="-5.5958123691380023956298828125">
        <ele>423.20001220703125</ele>
        <time>2022-06-04T10:53:53.000Z</time>
      </trkpt>
      <trkpt lat="43.42438484542071819305419921875" lon="-5.595825277268886566162109375">
        <ele>423.600006103515625</ele>
        <time>2022-06-04T10:53:54.000Z</time>
      </trkpt>
      <trkpt lat="43.4243995137512683868408203125" lon="-5.595838017761707305908203125">
        <ele>423.600006103515625</ele>
        <time>2022-06-04T10:53:55.000Z</time>
      </trkpt>
      <trkpt lat="43.4243995137512683868408203125" lon="-5.595838017761707305908203125">
        <ele>423.79998779296875</ele>
        <time>2022-06-04T10:53:56.000Z</time>
      </trkpt>
      <trkpt lat="43.4244261682033538818359375" lon="-5.59586810879409313201904296875">
        <ele>424</ele>
        <time>2022-06-04T10:53:57.000Z</time>
      </trkpt>
      <trkpt lat="43.42444770969450473785400390625" lon="-5.595904402434825897216796875">
        <ele>424.399993896484375</ele>
        <time>2022-06-04T10:53:59.000Z</time>
      </trkpt>
      <trkpt lat="43.42446162365376949310302734375" lon="-5.59591588564217090606689453125">
        <ele>424.600006103515625</ele>
        <time>2022-06-04T10:54:00.000Z</time>
      </trkpt>
      <trkpt lat="43.424478806555271148681640625" lon="-5.59591806493699550628662109375">
        <ele>424.79998779296875</ele>
        <time>2022-06-04T10:54:01.000Z</time>
      </trkpt>
      <trkpt lat="43.42450738884508609771728515625" lon="-5.59589593671262264251708984375">
        <ele>425</ele>
        <time>2022-06-04T10:54:03.000Z</time>
      </trkpt>
      <trkpt lat="43.4245091490447521209716796875" lon="-5.5958576314151287078857421875">
        <ele>425.600006103515625</ele>
        <time>2022-06-04T10:54:05.000Z</time>
      </trkpt>
      <trkpt lat="43.42450772412121295928955078125" lon="-5.595815889537334442138671875">
        <ele>426</ele>
        <time>2022-06-04T10:54:07.000Z</time>
      </trkpt>
      <trkpt lat="43.42450772412121295928955078125" lon="-5.595815889537334442138671875">
        <ele>426</ele>
        <time>2022-06-04T10:54:08.000Z</time>
      </trkpt>
      <trkpt lat="43.42450789175927639007568359375" lon="-5.59577289037406444549560546875">
        <ele>426.20001220703125</ele>
        <time>2022-06-04T10:54:09.000Z</time>
      </trkpt>
      <trkpt lat="43.42450638301670551300048828125" lon="-5.5957520194351673126220703125">
        <ele>426.399993896484375</ele>
        <time>2022-06-04T10:54:11.000Z</time>
      </trkpt>
      <trkpt lat="43.42450286261737346649169921875" lon="-5.5957116186618804931640625">
        <ele>426.399993896484375</ele>
        <time>2022-06-04T10:54:12.000Z</time>
      </trkpt>
      <trkpt lat="43.4245011024177074432373046875" lon="-5.59569158591330051422119140625">
        <ele>426.600006103515625</ele>
        <time>2022-06-04T10:54:13.000Z</time>
      </trkpt>
      <trkpt lat="43.424497582018375396728515625" lon="-5.5956537835299968719482421875">
        <ele>426.79998779296875</ele>
        <time>2022-06-04T10:54:15.000Z</time>
      </trkpt>
      <trkpt lat="43.424496911466121673583984375" lon="-5.59561564587056636810302734375">
        <ele>427.20001220703125</ele>
        <time>2022-06-04T10:54:17.000Z</time>
      </trkpt>
      <trkpt lat="43.4244947321712970733642578125" lon="-5.59557641856372356414794921875">
        <ele>427.20001220703125</ele>
        <time>2022-06-04T10:54:19.000Z</time>
      </trkpt>
      <trkpt lat="43.4244947321712970733642578125" lon="-5.59557641856372356414794921875">
        <ele>427.399993896484375</ele>
        <time>2022-06-04T10:54:20.000Z</time>
      </trkpt>
      <trkpt lat="43.4244930557906627655029296875" lon="-5.59554138220846652984619140625">
        <ele>428</ele>
        <time>2022-06-04T10:54:21.000Z</time>
      </trkpt>
      <trkpt lat="43.4244883619248867034912109375" lon="-5.5955065973103046417236328125">
        <ele>428.399993896484375</ele>
        <time>2022-06-04T10:54:23.000Z</time>
      </trkpt>
      <trkpt lat="43.42448609881103038787841796875" lon="-5.59548790566623210906982421875">
        <ele>428.600006103515625</ele>
        <time>2022-06-04T10:54:24.000Z</time>
      </trkpt>
      <trkpt lat="43.42448442243039608001708984375" lon="-5.59547030366957187652587890625">
        <ele>428.79998779296875</ele>
        <time>2022-06-04T10:54:25.000Z</time>
      </trkpt>
      <trkpt lat="43.424486182630062103271484375" lon="-5.595433674752712249755859375">
        <ele>429.399993896484375</ele>
        <time>2022-06-04T10:54:27.000Z</time>
      </trkpt>
      <trkpt lat="43.42448844574391841888427734375" lon="-5.5954157374799251556396484375">
        <ele>429.600006103515625</ele>
        <time>2022-06-04T10:54:28.000Z</time>
      </trkpt>
      <trkpt lat="43.42448844574391841888427734375" lon="-5.5954157374799251556396484375">
        <ele>430</ele>
        <time>2022-06-04T10:54:29.000Z</time>
      </trkpt>
      <trkpt lat="43.4244940616190433502197265625" lon="-5.59536217711865901947021484375">
        <ele>430.20001220703125</ele>
        <time>2022-06-04T10:54:31.000Z</time>
      </trkpt>
      <trkpt lat="43.42449791729450225830078125" lon="-5.5953242070972919464111328125">
        <ele>430.79998779296875</ele>
        <time>2022-06-04T10:54:33.000Z</time>
      </trkpt>
      <trkpt lat="43.42450101859867572784423828125" lon="-5.5953074432909488677978515625">
        <ele>431.20001220703125</ele>
        <time>2022-06-04T10:54:35.000Z</time>
      </trkpt>
      <trkpt lat="43.42450738884508609771728515625" lon="-5.5952594988048076629638671875">
        <ele>431.600006103515625</ele>
        <time>2022-06-04T10:54:37.000Z</time>
      </trkpt>
      <trkpt lat="43.42450738884508609771728515625" lon="-5.5952594988048076629638671875">
        <ele>431.79998779296875</ele>
        <time>2022-06-04T10:54:38.000Z</time>
      </trkpt>
      <trkpt lat="43.424512334167957305908203125" lon="-5.5952286534011363983154296875">
        <ele>432</ele>
        <time>2022-06-04T10:54:39.000Z</time>
      </trkpt>
      <trkpt lat="43.42451828531920909881591796875" lon="-5.59519328176975250244140625">
        <ele>432.399993896484375</ele>
        <time>2022-06-04T10:54:41.000Z</time>
      </trkpt>
      <trkpt lat="43.42452381737530231475830078125" lon="-5.59515631757676601409912109375">
        <ele>432.79998779296875</ele>
        <time>2022-06-04T10:54:43.000Z</time>
      </trkpt>
      <trkpt lat="43.42452381737530231475830078125" lon="-5.59515631757676601409912109375">
        <ele>433</ele>
        <time>2022-06-04T10:54:44.000Z</time>
      </trkpt>
      <trkpt lat="43.42453136108815670013427734375" lon="-5.595119185745716094970703125">
        <ele>433.20001220703125</ele>
        <time>2022-06-04T10:54:45.000Z</time>
      </trkpt>
      <trkpt lat="43.4245433472096920013427734375" lon="-5.59508465230464935302734375">
        <ele>433.600006103515625</ele>
        <time>2022-06-04T10:54:47.000Z</time>
      </trkpt>
      <trkpt lat="43.424547873437404632568359375" lon="-5.59506797231733798980712890625">
        <ele>433.79998779296875</ele>
        <time>2022-06-04T10:54:48.000Z</time>
      </trkpt>
      <trkpt lat="43.4245510585606098175048828125" lon="-5.5950502865016460418701171875">
        <ele>434.20001220703125</ele>
        <time>2022-06-04T10:54:49.000Z</time>
      </trkpt>
      <trkpt lat="43.424559272825717926025390625" lon="-5.59501751326024532318115234375">
        <ele>434.600006103515625</ele>
        <time>2022-06-04T10:54:51.000Z</time>
      </trkpt>
      <trkpt lat="43.424565307796001434326171875" lon="-5.59498499147593975067138671875">
        <ele>434.79998779296875</ele>
        <time>2022-06-04T10:54:53.000Z</time>
      </trkpt>
      <trkpt lat="43.4245778806507587432861328125" lon="-5.5949507094919681549072265625">
        <ele>435.20001220703125</ele>
        <time>2022-06-04T10:54:55.000Z</time>
      </trkpt>
      <trkpt lat="43.4245778806507587432861328125" lon="-5.5949507094919681549072265625">
        <ele>435.399993896484375</ele>
        <time>2022-06-04T10:54:56.000Z</time>
      </trkpt>
      <trkpt lat="43.42459447681903839111328125" lon="-5.5949252285063266754150390625">
        <ele>435.600006103515625</ele>
        <time>2022-06-04T10:54:57.000Z</time>
      </trkpt>
      <trkpt lat="43.42460713349282741546630859375" lon="-5.59490083716809749603271484375">
        <ele>436</ele>
        <time>2022-06-04T10:54:59.000Z</time>
      </trkpt>
      <trkpt lat="43.42462490312755107879638671875" lon="-5.59488005004823207855224609375">
        <ele>436.399993896484375</ele>
        <time>2022-06-04T10:55:01.000Z</time>
      </trkpt>
      <trkpt lat="43.42464367859065532684326171875" lon="-5.5948595143854618072509765625">
        <ele>436.600006103515625</ele>
        <time>2022-06-04T10:55:03.000Z</time>
      </trkpt>
      <trkpt lat="43.4246528148651123046875" lon="-5.59484886936843395233154296875">
        <ele>436.79998779296875</ele>
        <time>2022-06-04T10:55:04.000Z</time>
      </trkpt>
      <trkpt lat="43.42466027475893497467041015625" lon="-5.59483998455107212066650390625">
        <ele>437</ele>
        <time>2022-06-04T10:55:05.000Z</time>
      </trkpt>
      <trkpt lat="43.42467636801302433013916015625" lon="-5.5948155932128429412841796875">
        <ele>437.399993896484375</ele>
        <time>2022-06-04T10:55:07.000Z</time>
      </trkpt>
      <trkpt lat="43.42468827031552791595458984375" lon="-5.5947916209697723388671875">
        <ele>437.79998779296875</ele>
        <time>2022-06-04T10:55:09.000Z</time>
      </trkpt>
      <trkpt lat="43.424698077142238616943359375" lon="-5.5947803892195224761962890625">
        <ele>438.20001220703125</ele>
        <time>2022-06-04T10:55:10.000Z</time>
      </trkpt>
      <trkpt lat="43.42470855452120304107666015625" lon="-5.59476790018379688262939453125">
        <ele>438.399993896484375</ele>
        <time>2022-06-04T10:55:11.000Z</time>
      </trkpt>
      <trkpt lat="43.42472749762237071990966796875" lon="-5.59474074281752109527587890625">
        <ele>438.79998779296875</ele>
        <time>2022-06-04T10:55:13.000Z</time>
      </trkpt>
      <trkpt lat="43.42474459670484066009521484375" lon="-5.59472213499248027801513671875">
        <ele>439.20001220703125</ele>
        <time>2022-06-04T10:55:15.000Z</time>
      </trkpt>
      <trkpt lat="43.4247656352818012237548828125" lon="-5.594705455005168914794921875">
        <ele>439.79998779296875</ele>
        <time>2022-06-04T10:55:17.000Z</time>
      </trkpt>
      <trkpt lat="43.42477560974657535552978515625" lon="-5.5946982465684413909912109375">
        <ele>440</ele>
        <time>2022-06-04T10:55:18.000Z</time>
      </trkpt>
      <trkpt lat="43.42478667385876178741455078125" lon="-5.59469078667461872100830078125">
        <ele>440.20001220703125</ele>
        <time>2022-06-04T10:55:19.000Z</time>
      </trkpt>
      <trkpt lat="43.4248062036931514739990234375" lon="-5.59467419050633907318115234375">
        <ele>440.79998779296875</ele>
        <time>2022-06-04T10:55:21.000Z</time>
      </trkpt>
      <trkpt lat="43.4248165972530841827392578125" lon="-5.59466262347996234893798828125">
        <ele>441</ele>
        <time>2022-06-04T10:55:22.000Z</time>
      </trkpt>
      <trkpt lat="43.4248258173465728759765625" lon="-5.59465323574841022491455078125">
        <ele>441.20001220703125</ele>
        <time>2022-06-04T10:55:23.000Z</time>
      </trkpt>
      <trkpt lat="43.42484300024807453155517578125" lon="-5.59463697485625743865966796875">
        <ele>441.399993896484375</ele>
        <time>2022-06-04T10:55:25.000Z</time>
      </trkpt>
      <trkpt lat="43.42484300024807453155517578125" lon="-5.59463697485625743865966796875">
        <ele>441.600006103515625</ele>
        <time>2022-06-04T10:55:26.000Z</time>
      </trkpt>
      <trkpt lat="43.4248606860637664794921875" lon="-5.5946187861263751983642578125">
        <ele>441.600006103515625</ele>
        <time>2022-06-04T10:55:27.000Z</time>
      </trkpt>
      <trkpt lat="43.42487853951752185821533203125" lon="-5.594602525234222412109375">
        <ele>442</ele>
        <time>2022-06-04T10:55:29.000Z</time>
      </trkpt>
      <trkpt lat="43.42489664442837238311767578125" lon="-5.59458416886627674102783203125">
        <ele>442.399993896484375</ele>
        <time>2022-06-04T10:55:31.000Z</time>
      </trkpt>
      <trkpt lat="43.42489999718964099884033203125" lon="-5.594554580748081207275390625">
        <ele>442.79998779296875</ele>
        <time>2022-06-04T10:55:33.000Z</time>
      </trkpt>
      <trkpt lat="43.42490234412252902984619140625" lon="-5.5945386551320552825927734375">
        <ele>443</ele>
        <time>2022-06-04T10:55:34.000Z</time>
      </trkpt>
      <trkpt lat="43.4249044395983219146728515625" lon="-5.59451602399349212646484375">
        <ele>443.20001220703125</ele>
        <time>2022-06-04T10:55:35.000Z</time>
      </trkpt>
      <trkpt lat="43.424911312758922576904296875" lon="-5.59445726685225963592529296875">
        <ele>443.399993896484375</ele>
        <time>2022-06-04T10:55:37.000Z</time>
      </trkpt>
      <trkpt lat="43.42491776682436466217041015625" lon="-5.59438518248498439788818359375">
        <ele>443.399993896484375</ele>
        <time>2022-06-04T10:55:39.000Z</time>
      </trkpt>
      <trkpt lat="43.42492145486176013946533203125" lon="-5.594301111996173858642578125">
        <ele>443.600006103515625</ele>
        <time>2022-06-04T10:55:41.000Z</time>
      </trkpt>
      <trkpt lat="43.42492036521434783935546875" lon="-5.594208575785160064697265625">
        <ele>443.600006103515625</ele>
        <time>2022-06-04T10:55:43.000Z</time>
      </trkpt>
      <trkpt lat="43.4249411523342132568359375" lon="-5.5941232480108737945556640625">
        <ele>443.79998779296875</ele>
        <time>2022-06-04T10:55:45.000Z</time>
      </trkpt>
      <trkpt lat="43.42495615594089031219482421875" lon="-5.59406063519418239593505859375">
        <ele>443.79998779296875</ele>
        <time>2022-06-04T10:55:47.000Z</time>
      </trkpt>
      <trkpt lat="43.42496596276760101318359375" lon="-5.59400682337582111358642578125">
        <ele>443.600006103515625</ele>
        <time>2022-06-04T10:55:49.000Z</time>
      </trkpt>
      <trkpt lat="43.42497141100466251373291015625" lon="-5.5939485691487789154052734375">
        <ele>443.600006103515625</ele>
        <time>2022-06-04T10:55:51.000Z</time>
      </trkpt>
      <trkpt lat="43.4249755181372165679931640625" lon="-5.5938929133117198944091796875">
        <ele>443.600006103515625</ele>
        <time>2022-06-04T10:55:53.000Z</time>
      </trkpt>
      <trkpt lat="43.42497660778462886810302734375" lon="-5.59384169988334178924560546875">
        <ele>443.600006103515625</ele>
        <time>2022-06-04T10:55:55.000Z</time>
      </trkpt>
      <trkpt lat="43.42497660778462886810302734375" lon="-5.59384169988334178924560546875">
        <ele>443.600006103515625</ele>
        <time>2022-06-04T10:55:56.000Z</time>
      </trkpt>
      <trkpt lat="43.4249741770327091217041015625" lon="-5.59379291720688343048095703125">
        <ele>443.600006103515625</ele>
        <time>2022-06-04T10:55:57.000Z</time>
      </trkpt>
      <trkpt lat="43.4249688126146793365478515625" lon="-5.5937480740249156951904296875">
        <ele>444</ele>
        <time>2022-06-04T10:55:59.000Z</time>
      </trkpt>
      <trkpt lat="43.42496571131050586700439453125" lon="-5.59372368268668651580810546875">
        <ele>444</ele>
        <time>2022-06-04T10:56:00.000Z</time>
      </trkpt>
      <trkpt lat="43.4249631129205226898193359375" lon="-5.59369652532041072845458984375">
        <ele>444.20001220703125</ele>
        <time>2022-06-04T10:56:01.000Z</time>
      </trkpt>
      <trkpt lat="43.42495716176927089691162109375" lon="-5.5936364270746707916259765625">
        <ele>444.399993896484375</ele>
        <time>2022-06-04T10:56:03.000Z</time>
      </trkpt>
      <trkpt lat="43.42495062388479709625244140625" lon="-5.59358219616115093231201171875">
        <ele>445</ele>
        <time>2022-06-04T10:56:05.000Z</time>
      </trkpt>
      <trkpt lat="43.424946852028369903564453125" lon="-5.5935569666326045989990234375">
        <ele>445.20001220703125</ele>
        <time>2022-06-04T10:56:06.000Z</time>
      </trkpt>
      <trkpt lat="43.42494316399097442626953125" lon="-5.59353224001824855804443359375">
        <ele>445.20001220703125</ele>
        <time>2022-06-04T10:56:07.000Z</time>
      </trkpt>
      <trkpt lat="43.42493369244039058685302734375" lon="-5.59348144568502902984619140625">
        <ele>445.399993896484375</ele>
        <time>2022-06-04T10:56:09.000Z</time>
      </trkpt>
      <trkpt lat="43.4249232150614261627197265625" lon="-5.593434758484363555908203125">
        <ele>445.600006103515625</ele>
        <time>2022-06-04T10:56:11.000Z</time>
      </trkpt>
      <trkpt lat="43.4249178506433963775634765625" lon="-5.59341623447835445404052734375">
        <ele>445.79998779296875</ele>
        <time>2022-06-04T10:56:12.000Z</time>
      </trkpt>
      <trkpt lat="43.42491240240633487701416015625" lon="-5.5933997221291065216064453125">
        <ele>445.79998779296875</ele>
        <time>2022-06-04T10:56:13.000Z</time>
      </trkpt>
      <trkpt lat="43.4249071218073368072509765625" lon="-5.593369044363498687744140625">
        <ele>445.79998779296875</ele>
        <time>2022-06-04T10:56:15.000Z</time>
      </trkpt>
      <trkpt lat="43.42490301467478275299072265625" lon="-5.59333694167435169219970703125">
        <ele>446</ele>
        <time>2022-06-04T10:56:17.000Z</time>
      </trkpt>
      <trkpt lat="43.4249014221131801605224609375" lon="-5.59329821728169918060302734375">
        <ele>446.399993896484375</ele>
        <time>2022-06-04T10:56:19.000Z</time>
      </trkpt>
      <trkpt lat="43.42490536160767078399658203125" lon="-5.59326083399355411529541015625">
        <ele>446.79998779296875</ele>
        <time>2022-06-04T10:56:21.000Z</time>
      </trkpt>
      <trkpt lat="43.4249067865312099456787109375" lon="-5.593225546181201934814453125">
        <ele>447.20001220703125</ele>
        <time>2022-06-04T10:56:23.000Z</time>
      </trkpt>
      <trkpt lat="43.42490703798830509185791015625" lon="-5.59318791143596172332763671875">
        <ele>447.399993896484375</ele>
        <time>2022-06-04T10:56:25.000Z</time>
      </trkpt>
      <trkpt lat="43.42490318231284618377685546875" lon="-5.59314684011042118072509765625">
        <ele>448</ele>
        <time>2022-06-04T10:56:27.000Z</time>
      </trkpt>
      <trkpt lat="43.42490150593221187591552734375" lon="-5.59312588535249233245849609375">
        <ele>448.399993896484375</ele>
        <time>2022-06-04T10:56:28.000Z</time>
      </trkpt>
      <trkpt lat="43.424899913370609283447265625" lon="-5.59310493059456348419189453125">
        <ele>448.600006103515625</ele>
        <time>2022-06-04T10:56:29.000Z</time>
      </trkpt>
      <trkpt lat="43.42489630915224552154541015625" lon="-5.59306134469807147979736328125">
        <ele>449.399993896484375</ele>
        <time>2022-06-04T10:56:31.000Z</time>
      </trkpt>
      <trkpt lat="43.42489630915224552154541015625" lon="-5.59306134469807147979736328125">
        <ele>449.79998779296875</ele>
        <time>2022-06-04T10:56:32.000Z</time>
      </trkpt>
      <trkpt lat="43.42490435577929019927978515625" lon="-5.59302739799022674560546875">
        <ele>450</ele>
        <time>2022-06-04T10:56:33.000Z</time>
      </trkpt>
      <trkpt lat="43.42490904964506626129150390625" lon="-5.5929900147020816802978515625">
        <ele>450.399993896484375</ele>
        <time>2022-06-04T10:56:35.000Z</time>
      </trkpt>
      <trkpt lat="43.4249089658260345458984375" lon="-5.592969395220279693603515625">
        <ele>450.79998779296875</ele>
        <time>2022-06-04T10:56:36.000Z</time>
      </trkpt>
      <trkpt lat="43.42490821145474910736083984375" lon="-5.59295020066201686859130859375">
        <ele>451</ele>
        <time>2022-06-04T10:56:37.000Z</time>
      </trkpt>
      <trkpt lat="43.4249077923595905303955078125" lon="-5.5929100513458251953125">
        <ele>451.600006103515625</ele>
        <time>2022-06-04T10:56:39.000Z</time>
      </trkpt>
      <trkpt lat="43.424907624721527099609375" lon="-5.592891275882720947265625">
        <ele>452</ele>
        <time>2022-06-04T10:56:40.000Z</time>
      </trkpt>
      <trkpt lat="43.42490695416927337646484375" lon="-5.5928753502666950225830078125">
        <ele>452.20001220703125</ele>
        <time>2022-06-04T10:56:41.000Z</time>
      </trkpt>
      <trkpt lat="43.42489815317094326019287109375" lon="-5.59283620677888393402099609375">
        <ele>452.79998779296875</ele>
        <time>2022-06-04T10:56:43.000Z</time>
      </trkpt>
      <trkpt lat="43.42489421367645263671875" lon="-5.59279312379658222198486328125">
        <ele>453</ele>
        <time>2022-06-04T10:56:45.000Z</time>
      </trkpt>
      <trkpt lat="43.42489429749548435211181640625" lon="-5.59274786151945590972900390625">
        <ele>453</ele>
        <time>2022-06-04T10:56:47.000Z</time>
      </trkpt>
      <trkpt lat="43.424893207848072052001953125" lon="-5.592703185975551605224609375">
        <ele>453</ele>
        <time>2022-06-04T10:56:49.000Z</time>
      </trkpt>
      <trkpt lat="43.42489010654389858245849609375" lon="-5.5926644615828990936279296875">
        <ele>453</ele>
        <time>2022-06-04T10:56:51.000Z</time>
      </trkpt>
      <trkpt lat="43.4248890168964862823486328125" lon="-5.5926430039107799530029296875">
        <ele>453</ele>
        <time>2022-06-04T10:56:52.000Z</time>
      </trkpt>
      <trkpt lat="43.42488423921167850494384765625" lon="-5.5926188640296459197998046875">
        <ele>453</ele>
        <time>2022-06-04T10:56:53.000Z</time>
      </trkpt>
      <trkpt lat="43.42487610876560211181640625" lon="-5.59256329201161861419677734375">
        <ele>453</ele>
        <time>2022-06-04T10:56:55.000Z</time>
      </trkpt>
      <trkpt lat="43.4248715825378894805908203125" lon="-5.59249925427138805389404296875">
        <ele>453</ele>
        <time>2022-06-04T10:56:57.000Z</time>
      </trkpt>
      <trkpt lat="43.424869738519191741943359375" lon="-5.592422224581241607666015625">
        <ele>453</ele>
        <time>2022-06-04T10:56:59.000Z</time>
      </trkpt>
      <trkpt lat="43.4248665533959865570068359375" lon="-5.5923342145979404449462890625">
        <ele>453</ele>
        <time>2022-06-04T10:57:01.000Z</time>
      </trkpt>
      <trkpt lat="43.4248665533959865570068359375" lon="-5.5923342145979404449462890625">
        <ele>453</ele>
        <time>2022-06-04T10:57:02.000Z</time>
      </trkpt>
      <trkpt lat="43.4248668886721134185791015625" lon="-5.592251904308795928955078125">
        <ele>453</ele>
        <time>2022-06-04T10:57:03.000Z</time>
      </trkpt>
      <trkpt lat="43.42486730776727199554443359375" lon="-5.59221460483968257904052734375">
        <ele>453</ele>
        <time>2022-06-04T10:57:05.000Z</time>
      </trkpt>
      <trkpt lat="43.4248618595302104949951171875" lon="-5.59208954684436321258544921875">
        <ele>453.20001220703125</ele>
        <time>2022-06-04T10:57:07.000Z</time>
      </trkpt>
      <trkpt lat="43.4248598478734493255615234375" lon="-5.59200723655521869659423828125">
        <ele>453.399993896484375</ele>
        <time>2022-06-04T10:57:09.000Z</time>
      </trkpt>
      <trkpt lat="43.42485624365508556365966796875" lon="-5.5919338949024677276611328125">
        <ele>453.399993896484375</ele>
        <time>2022-06-04T10:57:11.000Z</time>
      </trkpt>
      <trkpt lat="43.424848616123199462890625" lon="-5.5918921530246734619140625">
        <ele>453.399993896484375</ele>
        <time>2022-06-04T10:57:13.000Z</time>
      </trkpt>
      <trkpt lat="43.42484526336193084716796875" lon="-5.5918872915208339691162109375">
        <ele>453.600006103515625</ele>
        <time>2022-06-04T10:57:15.000Z</time>
      </trkpt>
      <trkpt lat="43.42484149150550365447998046875" lon="-5.59188745915889739990234375">
        <ele>453.600006103515625</ele>
        <time>2022-06-04T10:57:16.000Z</time>
      </trkpt>
      <trkpt lat="43.424840904772281646728515625" lon="-5.5917494930326938629150390625">
        <ele>454.20001220703125</ele>
        <time>2022-06-04T10:58:04.000Z</time>
      </trkpt>
      <trkpt lat="43.42484300024807453155517578125" lon="-5.5917052365839481353759765625">
        <ele>454.20001220703125</ele>
        <time>2022-06-04T10:58:05.000Z</time>
      </trkpt>
      <trkpt lat="43.4248472750186920166015625" lon="-5.59161798097193241119384765625">
        <ele>454.399993896484375</ele>
        <time>2022-06-04T10:58:07.000Z</time>
      </trkpt>
      <trkpt lat="43.4248538129031658172607421875" lon="-5.59152510948479175567626953125">
        <ele>454.600006103515625</ele>
        <time>2022-06-04T10:58:09.000Z</time>
      </trkpt>
      <trkpt lat="43.42484903521835803985595703125" lon="-5.59148940257728099822998046875">
        <ele>454.79998779296875</ele>
        <time>2022-06-04T10:58:10.000Z</time>
      </trkpt>
      <trkpt lat="43.42484668828547000885009765625" lon="-5.5914762429893016815185546875">
        <ele>455</ele>
        <time>2022-06-04T10:58:11.000Z</time>
      </trkpt>
      <trkpt lat="43.42484928667545318603515625" lon="-5.5914749018847942352294921875">
        <ele>455.20001220703125</ele>
        <time>2022-06-04T10:58:13.000Z</time>
      </trkpt>
      <trkpt lat="43.424859344959259033203125" lon="-5.59138395823538303375244140625">
        <ele>455.20001220703125</ele>
        <time>2022-06-04T10:58:24.000Z</time>
      </trkpt>
      <trkpt lat="43.4248633682727813720703125" lon="-5.59134305454790592193603515625">
        <ele>455.20001220703125</ele>
        <time>2022-06-04T10:58:25.000Z</time>
      </trkpt>
      <trkpt lat="43.424867726862430572509765625" lon="-5.59123626910150051116943359375">
        <ele>455.20001220703125</ele>
        <time>2022-06-04T10:58:27.000Z</time>
      </trkpt>
      <trkpt lat="43.4248709119856357574462890625" lon="-5.59111900627613067626953125">
        <ele>455.399993896484375</ele>
        <time>2022-06-04T10:58:29.000Z</time>
      </trkpt>
      <trkpt lat="43.42487602494657039642333984375" lon="-5.59099704958498477935791015625">
        <ele>455.399993896484375</ele>
        <time>2022-06-04T10:58:31.000Z</time>
      </trkpt>
      <trkpt lat="43.4248732589185237884521484375" lon="-5.5908730812370777130126953125">
        <ele>455.399993896484375</ele>
        <time>2022-06-04T10:58:33.000Z</time>
      </trkpt>
      <trkpt lat="43.42487233690917491912841796875" lon="-5.59074726887047290802001953125">
        <ele>455.600006103515625</ele>
        <time>2022-06-04T10:58:35.000Z</time>
      </trkpt>
      <trkpt lat="43.424877114593982696533203125" lon="-5.59061667881906032562255859375">
        <ele>455.79998779296875</ele>
        <time>2022-06-04T10:58:37.000Z</time>
      </trkpt>
      <trkpt lat="43.424892537295818328857421875" lon="-5.5904855020344257354736328125">
        <ele>456.20001220703125</ele>
        <time>2022-06-04T10:58:39.000Z</time>
      </trkpt>
      <trkpt lat="43.4249051101505756378173828125" lon="-5.59035264886915683746337890625">
        <ele>456.399993896484375</ele>
        <time>2022-06-04T10:58:41.000Z</time>
      </trkpt>
      <trkpt lat="43.42490963637828826904296875" lon="-5.59028492309153079986572265625">
        <ele>456.600006103515625</ele>
        <time>2022-06-04T10:58:42.000Z</time>
      </trkpt>
      <trkpt lat="43.42491525225341320037841796875" lon="-5.5902172811329364776611328125">
        <ele>456.79998779296875</ele>
        <time>2022-06-04T10:58:43.000Z</time>
      </trkpt>
      <trkpt lat="43.42492581345140933990478515625" lon="-5.590085685253143310546875">
        <ele>457</ele>
        <time>2022-06-04T10:58:45.000Z</time>
      </trkpt>
      <trkpt lat="43.4249272383749485015869140625" lon="-5.58995383791625499725341796875">
        <ele>457.20001220703125</ele>
        <time>2022-06-04T10:58:47.000Z</time>
      </trkpt>
      <trkpt lat="43.4249317646026611328125" lon="-5.589819811284542083740234375">
        <ele>457.600006103515625</ele>
        <time>2022-06-04T10:58:49.000Z</time>
      </trkpt>
      <trkpt lat="43.4249317646026611328125" lon="-5.589819811284542083740234375">
        <ele>457.79998779296875</ele>
        <time>2022-06-04T10:58:50.000Z</time>
      </trkpt>
      <trkpt lat="43.424948193132877349853515625" lon="-5.58968913741409778594970703125">
        <ele>458</ele>
        <time>2022-06-04T10:58:51.000Z</time>
      </trkpt>
      <trkpt lat="43.42497275210916996002197265625" lon="-5.58956609107553958892822265625">
        <ele>458.399993896484375</ele>
        <time>2022-06-04T10:58:53.000Z</time>
      </trkpt>
      <trkpt lat="43.42499035410583019256591796875" lon="-5.5895081721246242523193359375">
        <ele>458.399993896484375</ele>
        <time>2022-06-04T10:58:54.000Z</time>
      </trkpt>
      <trkpt lat="43.42501214705407619476318359375" lon="-5.5894540250301361083984375">
        <ele>458.399993896484375</ele>
        <time>2022-06-04T10:58:55.000Z</time>
      </trkpt>
      <trkpt lat="43.42505824752151966094970703125" lon="-5.58934799395501613616943359375">
        <ele>458.600006103515625</ele>
        <time>2022-06-04T10:58:57.000Z</time>
      </trkpt>
      <trkpt lat="43.42510334216058254241943359375" lon="-5.58923902921378612518310546875">
        <ele>458.600006103515625</ele>
        <time>2022-06-04T10:58:59.000Z</time>
      </trkpt>
      <trkpt lat="43.42514776624739170074462890625" lon="-5.58913392014801502227783203125">
        <ele>458.79998779296875</ele>
        <time>2022-06-04T10:59:01.000Z</time>
      </trkpt>
      <trkpt lat="43.4251854009926319122314453125" lon="-5.58902428485453128814697265625">
        <ele>458.79998779296875</ele>
        <time>2022-06-04T10:59:03.000Z</time>
      </trkpt>
      <trkpt lat="43.425200991332530975341796875" lon="-5.5889700539410114288330078125">
        <ele>459</ele>
        <time>2022-06-04T10:59:04.000Z</time>
      </trkpt>
      <trkpt lat="43.42521951533854007720947265625" lon="-5.588916242122650146484375">
        <ele>459</ele>
        <time>2022-06-04T10:59:05.000Z</time>
      </trkpt>
      <trkpt lat="43.425271399319171905517578125" lon="-5.58881557546555995941162109375">
        <ele>459.399993896484375</ele>
        <time>2022-06-04T10:59:07.000Z</time>
      </trkpt>
      <trkpt lat="43.42532563023269176483154296875" lon="-5.58872421272099018096923828125">
        <ele>459.79998779296875</ele>
        <time>2022-06-04T10:59:09.000Z</time>
      </trkpt>
      <trkpt lat="43.4253798611462116241455078125" lon="-5.58864274062216281890869140625">
        <ele>459.79998779296875</ele>
        <time>2022-06-04T10:59:11.000Z</time>
      </trkpt>
      <trkpt lat="43.425441719591617584228515625" lon="-5.5885543115437030792236328125">
        <ele>460</ele>
        <time>2022-06-04T10:59:13.000Z</time>
      </trkpt>
      <trkpt lat="43.4254720620810985565185546875" lon="-5.5885125696659088134765625">
        <ele>460.20001220703125</ele>
        <time>2022-06-04T10:59:14.000Z</time>
      </trkpt>
      <trkpt lat="43.42550366185605525970458984375" lon="-5.58847242034971714019775390625">
        <ele>460.20001220703125</ele>
        <time>2022-06-04T10:59:15.000Z</time>
      </trkpt>
      <trkpt lat="43.42556434683501720428466796875" lon="-5.58838323689997196197509765625">
        <ele>460.399993896484375</ele>
        <time>2022-06-04T10:59:17.000Z</time>
      </trkpt>
      <trkpt lat="43.425629474222660064697265625" lon="-5.58829003013670444488525390625">
        <ele>460.600006103515625</ele>
        <time>2022-06-04T10:59:19.000Z</time>
      </trkpt>
      <trkpt lat="43.425629474222660064697265625" lon="-5.58829003013670444488525390625">
        <ele>460.600006103515625</ele>
        <time>2022-06-04T10:59:20.000Z</time>
      </trkpt>
      <trkpt lat="43.425696194171905517578125" lon="-5.5882012657821178436279296875">
        <ele>460.79998779296875</ele>
        <time>2022-06-04T10:59:21.000Z</time>
      </trkpt>
      <trkpt lat="43.42575914226472377777099609375" lon="-5.5881075561046600341796875">
        <ele>460.79998779296875</ele>
        <time>2022-06-04T10:59:23.000Z</time>
      </trkpt>
      <trkpt lat="43.425820581614971160888671875" lon="-5.588009655475616455078125">
        <ele>461</ele>
        <time>2022-06-04T10:59:25.000Z</time>
      </trkpt>
      <trkpt lat="43.425851762294769287109375" lon="-5.5879627168178558349609375">
        <ele>461</ele>
        <time>2022-06-04T10:59:26.000Z</time>
      </trkpt>
      <trkpt lat="43.4258826076984405517578125" lon="-5.58792072348296642303466796875">
        <ele>461.399993896484375</ele>
        <time>2022-06-04T10:59:27.000Z</time>
      </trkpt>
      <trkpt lat="43.425944633781909942626953125" lon="-5.58783824555575847625732421875">
        <ele>461.399993896484375</ele>
        <time>2022-06-04T10:59:29.000Z</time>
      </trkpt>
      <trkpt lat="43.42597455717623233795166015625" lon="-5.5877939052879810333251953125">
        <ele>461.600006103515625</ele>
        <time>2022-06-04T10:59:30.000Z</time>
      </trkpt>
      <trkpt lat="43.42600557021796703338623046875" lon="-5.58774872682988643646240234375">
        <ele>461.79998779296875</ele>
        <time>2022-06-04T10:59:31.000Z</time>
      </trkpt>
      <trkpt lat="43.42603825964033603668212890625" lon="-5.587708242237567901611328125">
        <ele>462</ele>
        <time>2022-06-04T10:59:32.000Z</time>
      </trkpt>
      <trkpt lat="43.4260730445384979248046875" lon="-5.5876722000539302825927734375">
        <ele>462</ele>
        <time>2022-06-04T10:59:33.000Z</time>
      </trkpt>
      <trkpt lat="43.426108248531818389892578125" lon="-5.58763892389833927154541015625">
        <ele>462.20001220703125</ele>
        <time>2022-06-04T10:59:34.000Z</time>
      </trkpt>
      <trkpt lat="43.42614320106804370880126953125" lon="-5.58760799467563629150390625">
        <ele>462.399993896484375</ele>
        <time>2022-06-04T10:59:35.000Z</time>
      </trkpt>
      <trkpt lat="43.42621109448373317718505859375" lon="-5.58755359612405300140380859375">
        <ele>463</ele>
        <time>2022-06-04T10:59:37.000Z</time>
      </trkpt>
      <trkpt lat="43.4262447059154510498046875" lon="-5.58752878569066524505615234375">
        <ele>463</ele>
        <time>2022-06-04T10:59:38.000Z</time>
      </trkpt>
      <trkpt lat="43.42627697624266147613525390625" lon="-5.58750162832438945770263671875">
        <ele>463.20001220703125</ele>
        <time>2022-06-04T10:59:39.000Z</time>
      </trkpt>
      <trkpt lat="43.42633514665067195892333984375" lon="-5.587444044649600982666015625">
        <ele>463.399993896484375</ele>
        <time>2022-06-04T10:59:41.000Z</time>
      </trkpt>
      <trkpt lat="43.42639482580125331878662109375" lon="-5.58739383704960346221923828125">
        <ele>463.600006103515625</ele>
        <time>2022-06-04T10:59:43.000Z</time>
      </trkpt>
      <trkpt lat="43.426458276808261871337890625" lon="-5.58733868412673473358154296875">
        <ele>463.79998779296875</ele>
        <time>2022-06-04T10:59:45.000Z</time>
      </trkpt>
      <trkpt lat="43.42651753686368465423583984375" lon="-5.58728470467031002044677734375">
        <ele>464.20001220703125</ele>
        <time>2022-06-04T10:59:47.000Z</time>
      </trkpt>
      <trkpt lat="43.42656992375850677490234375" lon="-5.58723508380353450775146484375">
        <ele>464.600006103515625</ele>
        <time>2022-06-04T10:59:49.000Z</time>
      </trkpt>
      <trkpt lat="43.42662633396685123443603515625" lon="-5.58718345127999782562255859375">
        <ele>464.79998779296875</ele>
        <time>2022-06-04T10:59:51.000Z</time>
      </trkpt>
      <trkpt lat="43.4266803972423076629638671875" lon="-5.58713768608868122100830078125">
        <ele>465.399993896484375</ele>
        <time>2022-06-04T10:59:53.000Z</time>
      </trkpt>
      <trkpt lat="43.4267360530793666839599609375" lon="-5.587101392447948455810546875">
        <ele>465.600006103515625</ele>
        <time>2022-06-04T10:59:55.000Z</time>
      </trkpt>
      <trkpt lat="43.42679246328771114349365234375" lon="-5.58707582764327526092529296875">
        <ele>466.20001220703125</ele>
        <time>2022-06-04T10:59:57.000Z</time>
      </trkpt>
      <trkpt lat="43.4268208779394626617431640625" lon="-5.5870606563985347747802734375">
        <ele>466.399993896484375</ele>
        <time>2022-06-04T10:59:58.000Z</time>
      </trkpt>
      <trkpt lat="43.42685063369572162628173828125" lon="-5.58704582042992115020751953125">
        <ele>466.600006103515625</ele>
        <time>2022-06-04T10:59:59.000Z</time>
      </trkpt>
      <trkpt lat="43.4269073791801929473876953125" lon="-5.587011538445949554443359375">
        <ele>466.79998779296875</ele>
        <time>2022-06-04T11:00:01.000Z</time>
      </trkpt>
      <trkpt lat="43.4269670583307743072509765625" lon="-5.58697977103292942047119140625">
        <ele>467.399993896484375</ele>
        <time>2022-06-04T11:00:03.000Z</time>
      </trkpt>
      <trkpt lat="43.42702497728168964385986328125" lon="-5.58695412240922451019287109375">
        <ele>467.600006103515625</ele>
        <time>2022-06-04T11:00:05.000Z</time>
      </trkpt>
      <trkpt lat="43.42708063311874866485595703125" lon="-5.5869335867464542388916015625">
        <ele>467.79998779296875</ele>
        <time>2022-06-04T11:00:07.000Z</time>
      </trkpt>
      <trkpt lat="43.42713561840355396270751953125" lon="-5.58691757731139659881591796875">
        <ele>468.20001220703125</ele>
        <time>2022-06-04T11:00:09.000Z</time>
      </trkpt>
      <trkpt lat="43.42718842439353466033935546875" lon="-5.58689595200121402740478515625">
        <ele>468.399993896484375</ele>
        <time>2022-06-04T11:00:11.000Z</time>
      </trkpt>
      <trkpt lat="43.4272386319935321807861328125" lon="-5.58687399141490459442138671875">
        <ele>468.600006103515625</ele>
        <time>2022-06-04T11:00:13.000Z</time>
      </trkpt>
      <trkpt lat="43.4272932820022106170654296875" lon="-5.586855970323085784912109375">
        <ele>469</ele>
        <time>2022-06-04T11:00:15.000Z</time>
      </trkpt>
      <trkpt lat="43.42734508216381072998046875" lon="-5.586836524307727813720703125">
        <ele>469.20001220703125</ele>
        <time>2022-06-04T11:00:17.000Z</time>
      </trkpt>
      <trkpt lat="43.42740015126764774322509765625" lon="-5.58682747185230255126953125">
        <ele>469.399993896484375</ele>
        <time>2022-06-04T11:00:19.000Z</time>
      </trkpt>
      <trkpt lat="43.4274223633110523223876953125" lon="-5.5868192575871944427490234375">
        <ele>469.79998779296875</ele>
        <time>2022-06-04T11:00:20.000Z</time>
      </trkpt>
      <trkpt lat="43.4274475090205669403076171875" lon="-5.586815066635608673095703125">
        <ele>470</ele>
        <time>2022-06-04T11:00:21.000Z</time>
      </trkpt>
      <trkpt lat="43.4274921007454395294189453125" lon="-5.58680525980889797210693359375">
        <ele>470.399993896484375</ele>
        <time>2022-06-04T11:00:23.000Z</time>
      </trkpt>
      <trkpt lat="43.4275373630225658416748046875" lon="-5.58680467307567596435546875">
        <ele>471.20001220703125</ele>
        <time>2022-06-04T11:00:25.000Z</time>
      </trkpt>
      <trkpt lat="43.4275608323514461517333984375" lon="-5.58680090121924877166748046875">
        <ele>471.399993896484375</ele>
        <time>2022-06-04T11:00:26.000Z</time>
      </trkpt>
      <trkpt lat="43.42758505605161190032958984375" lon="-5.58680593036115169525146484375">
        <ele>471.600006103515625</ele>
        <time>2022-06-04T11:00:27.000Z</time>
      </trkpt>
      <trkpt lat="43.427638113498687744140625" lon="-5.5868091993033885955810546875">
        <ele>471.79998779296875</ele>
        <time>2022-06-04T11:00:29.000Z</time>
      </trkpt>
      <trkpt lat="43.42769108712673187255859375" lon="-5.58681749738752841949462890625">
        <ele>472.20001220703125</ele>
        <time>2022-06-04T11:00:31.000Z</time>
      </trkpt>
      <trkpt lat="43.4277157299220561981201171875" lon="-5.586819760501384735107421875">
        <ele>472.399993896484375</ele>
        <time>2022-06-04T11:00:32.000Z</time>
      </trkpt>
      <trkpt lat="43.42773945070803165435791015625" lon="-5.58682051487267017364501953125">
        <ele>472.399993896484375</ele>
        <time>2022-06-04T11:00:33.000Z</time>
      </trkpt>
      <trkpt lat="43.42778655700385570526123046875" lon="-5.586816407740116119384765625">
        <ele>472.600006103515625</ele>
        <time>2022-06-04T11:00:35.000Z</time>
      </trkpt>
      <trkpt lat="43.42783299274742603302001953125" lon="-5.58682101778686046600341796875">
        <ele>472.79998779296875</ele>
        <time>2022-06-04T11:00:37.000Z</time>
      </trkpt>
      <trkpt lat="43.4278773330152034759521484375" lon="-5.58682587929069995880126953125">
        <ele>473.20001220703125</ele>
        <time>2022-06-04T11:00:39.000Z</time>
      </trkpt>
      <trkpt lat="43.42790222726762294769287109375" lon="-5.586830489337444305419921875">
        <ele>473.399993896484375</ele>
        <time>2022-06-04T11:00:40.000Z</time>
      </trkpt>
      <trkpt lat="43.42792712152004241943359375" lon="-5.58683610521256923675537109375">
        <ele>473.600006103515625</ele>
        <time>2022-06-04T11:00:41.000Z</time>
      </trkpt>
      <trkpt lat="43.42797682620584964752197265625" lon="-5.586847253143787384033203125">
        <ele>474</ele>
        <time>2022-06-04T11:00:43.000Z</time>
      </trkpt>
      <trkpt lat="43.42802627943456172943115234375" lon="-5.58685789816081523895263671875">
        <ele>474.600006103515625</ele>
        <time>2022-06-04T11:00:45.000Z</time>
      </trkpt>
      <trkpt lat="43.4280764870345592498779296875" lon="-5.5868692137300968170166015625">
        <ele>475</ele>
        <time>2022-06-04T11:00:47.000Z</time>
      </trkpt>
      <trkpt lat="43.42812418006360530853271484375" lon="-5.586876086890697479248046875">
        <ele>475.20001220703125</ele>
        <time>2022-06-04T11:00:49.000Z</time>
      </trkpt>
      <trkpt lat="43.4281475655734539031982421875" lon="-5.58687767945230007171630859375">
        <ele>475.399993896484375</ele>
        <time>2022-06-04T11:00:50.000Z</time>
      </trkpt>
      <trkpt lat="43.42817011289298534393310546875" lon="-5.58687935583293437957763671875">
        <ele>475.600006103515625</ele>
        <time>2022-06-04T11:00:51.000Z</time>
      </trkpt>
      <trkpt lat="43.42820883728563785552978515625" lon="-5.58688572607934474945068359375">
        <ele>476.20001220703125</ele>
        <time>2022-06-04T11:00:53.000Z</time>
      </trkpt>
      <trkpt lat="43.42824806459248065948486328125" lon="-5.58688857592642307281494140625">
        <ele>476.600006103515625</ele>
        <time>2022-06-04T11:00:55.000Z</time>
      </trkpt>
      <trkpt lat="43.42826642096042633056640625" lon="-5.586891509592533111572265625">
        <ele>476.79998779296875</ele>
        <time>2022-06-04T11:00:56.000Z</time>
      </trkpt>
      <trkpt lat="43.42828377149999141693115234375" lon="-5.58689586818218231201171875">
        <ele>477.20001220703125</ele>
        <time>2022-06-04T11:00:57.000Z</time>
      </trkpt>
      <trkpt lat="43.42832417227327823638916015625" lon="-5.58690399862825870513916015625">
        <ele>477.600006103515625</ele>
        <time>2022-06-04T11:00:59.000Z</time>
      </trkpt>
      <trkpt lat="43.4283520840108394622802734375" lon="-5.58690668083727359771728515625">
        <ele>477.79998779296875</ele>
        <time>2022-06-04T11:01:01.000Z</time>
      </trkpt>
      <trkpt lat="43.428368680179119110107421875" lon="-5.58690659701824188232421875">
        <ele>478</ele>
        <time>2022-06-04T11:01:02.000Z</time>
      </trkpt>
      <trkpt lat="43.42838519252836704254150390625" lon="-5.5869117937982082366943359375">
        <ele>478.20001220703125</ele>
        <time>2022-06-04T11:01:03.000Z</time>
      </trkpt>
      <trkpt lat="43.42841955833137035369873046875" lon="-5.58691724203526973724365234375">
        <ele>478.79998779296875</ele>
        <time>2022-06-04T11:01:05.000Z</time>
      </trkpt>
      <trkpt lat="43.42843548394739627838134765625" lon="-5.58691724203526973724365234375">
        <ele>479</ele>
        <time>2022-06-04T11:01:06.000Z</time>
      </trkpt>
      <trkpt lat="43.428452499210834503173828125" lon="-5.58691841550171375274658203125">
        <ele>479.20001220703125</ele>
        <time>2022-06-04T11:01:07.000Z</time>
      </trkpt>
      <trkpt lat="43.42846767045557498931884765625" lon="-5.5869184993207454681396484375">
        <ele>479.600006103515625</ele>
        <time>2022-06-04T11:01:08.000Z</time>
      </trkpt>
      <trkpt lat="43.4284838475286960601806640625" lon="-5.5869134701788425445556640625">
        <ele>479.79998779296875</ele>
        <time>2022-06-04T11:01:09.000Z</time>
      </trkpt>
      <trkpt lat="43.42851561494171619415283203125" lon="-5.5868990533053874969482421875">
        <ele>480</ele>
        <time>2022-06-04T11:01:11.000Z</time>
      </trkpt>
      <trkpt lat="43.4285455383360385894775390625" lon="-5.5868829600512981414794921875">
        <ele>480.399993896484375</ele>
        <time>2022-06-04T11:01:13.000Z</time>
      </trkpt>
      <trkpt lat="43.4285633079707622528076171875" lon="-5.58687038719654083251953125">
        <ele>480.600006103515625</ele>
        <time>2022-06-04T11:01:14.000Z</time>
      </trkpt>
      <trkpt lat="43.42857965268194675445556640625" lon="-5.586853958666324615478515625">
        <ele>480.79998779296875</ele>
        <time>2022-06-04T11:01:15.000Z</time>
      </trkpt>
      <trkpt lat="43.4286105819046497344970703125" lon="-5.5868266336619853973388671875">
        <ele>481</ele>
        <time>2022-06-04T11:01:17.000Z</time>
      </trkpt>
      <trkpt lat="43.42863681726157665252685546875" lon="-5.58680425398051738739013671875">
        <ele>481.399993896484375</ele>
        <time>2022-06-04T11:01:19.000Z</time>
      </trkpt>
      <trkpt lat="43.4286531619727611541748046875" lon="-5.58679796755313873291015625">
        <ele>481.600006103515625</ele>
        <time>2022-06-04T11:01:20.000Z</time>
      </trkpt>
      <trkpt lat="43.4286685846745967864990234375" lon="-5.58678983710706233978271484375">
        <ele>481.79998779296875</ele>
        <time>2022-06-04T11:01:21.000Z</time>
      </trkpt>
      <trkpt lat="43.428691215813159942626953125" lon="-5.5867612548172473907470703125">
        <ele>482.20001220703125</ele>
        <time>2022-06-04T11:01:23.000Z</time>
      </trkpt>
      <trkpt lat="43.4287141822278499603271484375" lon="-5.58672127313911914825439453125">
        <ele>482.20001220703125</ele>
        <time>2022-06-04T11:01:25.000Z</time>
      </trkpt>
      <trkpt lat="43.42872264795005321502685546875" lon="-5.5867119692265987396240234375">
        <ele>482.399993896484375</ele>
        <time>2022-06-04T11:01:26.000Z</time>
      </trkpt>
      <trkpt lat="43.4287356398999691009521484375" lon="-5.5866921879351139068603515625">
        <ele>482.600006103515625</ele>
        <time>2022-06-04T11:01:27.000Z</time>
      </trkpt>
      <trkpt lat="43.428760953247547149658203125" lon="-5.586652457714080810546875">
        <ele>483</ele>
        <time>2022-06-04T11:01:29.000Z</time>
      </trkpt>
      <trkpt lat="43.42878970317542552947998046875" lon="-5.58660828508436679840087890625">
        <ele>483.600006103515625</ele>
        <time>2022-06-04T11:01:31.000Z</time>
      </trkpt>
      <trkpt lat="43.428819961845874786376953125" lon="-5.58657341636717319488525390625">
        <ele>484</ele>
        <time>2022-06-04T11:01:33.000Z</time>
      </trkpt>
      <trkpt lat="43.428832702338695526123046875" lon="-5.5865545570850372314453125">
        <ele>484</ele>
        <time>2022-06-04T11:01:34.000Z</time>
      </trkpt>
      <trkpt lat="43.4288456104695796966552734375" lon="-5.5865369550883769989013671875">
        <ele>484.399993896484375</ele>
        <time>2022-06-04T11:01:35.000Z</time>
      </trkpt>
      <trkpt lat="43.42886815778911113739013671875" lon="-5.58650493621826171875">
        <ele>484.600006103515625</ele>
        <time>2022-06-04T11:01:37.000Z</time>
      </trkpt>
      <trkpt lat="43.42889263294637203216552734375" lon="-5.5864606797695159912109375">
        <ele>485</ele>
        <time>2022-06-04T11:01:39.000Z</time>
      </trkpt>
      <trkpt lat="43.42890679836273193359375" lon="-5.5864410661160945892333984375">
        <ele>485.20001220703125</ele>
        <time>2022-06-04T11:01:40.000Z</time>
      </trkpt>
      <trkpt lat="43.4289223887026309967041015625" lon="-5.586420781910419464111328125">
        <ele>485.399993896484375</ele>
        <time>2022-06-04T11:01:41.000Z</time>
      </trkpt>
      <trkpt lat="43.42895465902984142303466796875" lon="-5.586386583745479583740234375">
        <ele>485.79998779296875</ele>
        <time>2022-06-04T11:01:43.000Z</time>
      </trkpt>
      <trkpt lat="43.42898634262382984161376953125" lon="-5.58634727261960506439208984375">
        <ele>486.20001220703125</ele>
        <time>2022-06-04T11:01:45.000Z</time>
      </trkpt>
      <trkpt lat="43.4289991669356822967529296875" lon="-5.5863253958523273468017578125">
        <ele>486.20001220703125</ele>
        <time>2022-06-04T11:01:46.000Z</time>
      </trkpt>
      <trkpt lat="43.4290105663239955902099609375" lon="-5.58630871586501598358154296875">
        <ele>486.399993896484375</ele>
        <time>2022-06-04T11:01:47.000Z</time>
      </trkpt>
      <trkpt lat="43.42903495766222476959228515625" lon="-5.58626831509172916412353515625">
        <ele>486.79998779296875</ele>
        <time>2022-06-04T11:01:49.000Z</time>
      </trkpt>
      <trkpt lat="43.42905071564018726348876953125" lon="-5.58624668978154659271240234375">
        <ele>487</ele>
        <time>2022-06-04T11:01:50.000Z</time>
      </trkpt>
      <trkpt lat="43.429065048694610595703125" lon="-5.58622757904231548309326171875">
        <ele>487.20001220703125</ele>
        <time>2022-06-04T11:01:51.000Z</time>
      </trkpt>
      <trkpt lat="43.42909614555537700653076171875" lon="-5.5861870944499969482421875">
        <ele>487.600006103515625</ele>
        <time>2022-06-04T11:01:53.000Z</time>
      </trkpt>
      <trkpt lat="43.42913352884352207183837890625" lon="-5.58614225126802921295166015625">
        <ele>488</ele>
        <time>2022-06-04T11:01:55.000Z</time>
      </trkpt>
      <trkpt lat="43.42915917746722698211669921875" lon="-5.58609548024833202362060546875">
        <ele>488.399993896484375</ele>
        <time>2022-06-04T11:01:57.000Z</time>
      </trkpt>
      <trkpt lat="43.429174013435840606689453125" lon="-5.58604083023965358734130859375">
        <ele>488.79998779296875</ele>
        <time>2022-06-04T11:01:59.000Z</time>
      </trkpt>
      <trkpt lat="43.42917845584452152252197265625" lon="-5.585991628468036651611328125">
        <ele>489.20001220703125</ele>
        <time>2022-06-04T11:02:01.000Z</time>
      </trkpt>
      <trkpt lat="43.42917493544518947601318359375" lon="-5.5859351344406604766845703125">
        <ele>489.20001220703125</ele>
        <time>2022-06-04T11:02:03.000Z</time>
      </trkpt>
      <trkpt lat="43.4291701577603816986083984375" lon="-5.585904456675052642822265625">
        <ele>489.399993896484375</ele>
        <time>2022-06-04T11:02:04.000Z</time>
      </trkpt>
      <trkpt lat="43.42916353605687618255615234375" lon="-5.58587101288139820098876953125">
        <ele>489.600006103515625</ele>
        <time>2022-06-04T11:02:05.000Z</time>
      </trkpt>
      <trkpt lat="43.42914526350796222686767578125" lon="-5.58581091463565826416015625">
        <ele>490</ele>
        <time>2022-06-04T11:02:07.000Z</time>
      </trkpt>
      <trkpt lat="43.4291299246251583099365234375" lon="-5.585759617388248443603515625">
        <ele>490.20001220703125</ele>
        <time>2022-06-04T11:02:09.000Z</time>
      </trkpt>
      <trkpt lat="43.4291121549904346466064453125" lon="-5.58570538647472858428955078125">
        <ele>490.600006103515625</ele>
        <time>2022-06-04T11:02:11.000Z</time>
      </trkpt>
      <trkpt lat="43.42910268343985080718994140625" lon="-5.5856759659945964813232421875">
        <ele>490.600006103515625</ele>
        <time>2022-06-04T11:02:12.000Z</time>
      </trkpt>
      <trkpt lat="43.42909044586122035980224609375" lon="-5.5856488086283206939697265625">
        <ele>490.79998779296875</ele>
        <time>2022-06-04T11:02:13.000Z</time>
      </trkpt>
      <trkpt lat="43.42906077392399311065673828125" lon="-5.58560664765536785125732421875">
        <ele>491</ele>
        <time>2022-06-04T11:02:15.000Z</time>
      </trkpt>
      <trkpt lat="43.4290342032909393310546875" lon="-5.5855566076934337615966796875">
        <ele>491.600006103515625</ele>
        <time>2022-06-04T11:02:17.000Z</time>
      </trkpt>
      <trkpt lat="43.42901878058910369873046875" lon="-5.5855281092226505279541015625">
        <ele>491.79998779296875</ele>
        <time>2022-06-04T11:02:18.000Z</time>
      </trkpt>
      <trkpt lat="43.4290102310478687286376953125" lon="-5.58549843728542327880859375">
        <ele>492</ele>
        <time>2022-06-04T11:02:19.000Z</time>
      </trkpt>
      <trkpt lat="43.42900243587791919708251953125" lon="-5.58543398045003414154052734375">
        <ele>492.20001220703125</ele>
        <time>2022-06-04T11:02:21.000Z</time>
      </trkpt>
      <trkpt lat="43.42899656854569911956787109375" lon="-5.58535921387374401092529296875">
        <ele>492.600006103515625</ele>
        <time>2022-06-04T11:02:23.000Z</time>
      </trkpt>
      <trkpt lat="43.42899070121347904205322265625" lon="-5.585295595228672027587890625">
        <ele>493</ele>
        <time>2022-06-04T11:02:25.000Z</time>
      </trkpt>
      <trkpt lat="43.4289859235286712646484375" lon="-5.5852404423058032989501953125">
        <ele>493.20001220703125</ele>
        <time>2022-06-04T11:02:27.000Z</time>
      </trkpt>
      <trkpt lat="43.42898114584386348724365234375" lon="-5.5851800926029682159423828125">
        <ele>493.600006103515625</ele>
        <time>2022-06-04T11:02:29.000Z</time>
      </trkpt>
      <trkpt lat="43.428978212177753448486328125" lon="-5.58512519113719463348388671875">
        <ele>494</ele>
        <time>2022-06-04T11:02:31.000Z</time>
      </trkpt>
      <trkpt lat="43.4289676509797573089599609375" lon="-5.58507003821432590484619140625">
        <ele>494.399993896484375</ele>
        <time>2022-06-04T11:02:33.000Z</time>
      </trkpt>
      <trkpt lat="43.428960777819156646728515625" lon="-5.58501287363469600677490234375">
        <ele>494.600006103515625</ele>
        <time>2022-06-04T11:02:35.000Z</time>
      </trkpt>
      <trkpt lat="43.42895298264920711517333984375" lon="-5.58495998382568359375">
        <ele>495</ele>
        <time>2022-06-04T11:02:37.000Z</time>
      </trkpt>
      <trkpt lat="43.4289455227553844451904296875" lon="-5.584909021854400634765625">
        <ele>495.399993896484375</ele>
        <time>2022-06-04T11:02:39.000Z</time>
      </trkpt>
      <trkpt lat="43.42894175089895725250244140625" lon="-5.58484842069447040557861328125">
        <ele>495.79998779296875</ele>
        <time>2022-06-04T11:02:41.000Z</time>
      </trkpt>
      <trkpt lat="43.42894158326089382171630859375" lon="-5.5848163180053234100341796875">
        <ele>495.79998779296875</ele>
        <time>2022-06-04T11:02:42.000Z</time>
      </trkpt>
      <trkpt lat="43.42893839813768863677978515625" lon="-5.58478605933487415313720703125">
        <ele>496</ele>
        <time>2022-06-04T11:02:43.000Z</time>
      </trkpt>
      <trkpt lat="43.42893554829061031341552734375" lon="-5.58475923724472522735595703125">
        <ele>496.20001220703125</ele>
        <time>2022-06-04T11:02:44.000Z</time>
      </trkpt>
      <trkpt lat="43.428933955729007720947265625" lon="-5.58473174460232257843017578125">
        <ele>496.399993896484375</ele>
        <time>2022-06-04T11:02:45.000Z</time>
      </trkpt>
      <trkpt lat="43.428930602967739105224609375" lon="-5.5846716463565826416015625">
        <ele>496.79998779296875</ele>
        <time>2022-06-04T11:02:47.000Z</time>
      </trkpt>
      <trkpt lat="43.42891777865588665008544921875" lon="-5.5846054293215274810791015625">
        <ele>496.600006103515625</ele>
        <time>2022-06-04T11:02:49.000Z</time>
      </trkpt>
      <trkpt lat="43.42890755273401737213134765625" lon="-5.5845484323799610137939453125">
        <ele>497</ele>
        <time>2022-06-04T11:02:51.000Z</time>
      </trkpt>
      <trkpt lat="43.4288989193737506866455078125" lon="-5.584487579762935638427734375">
        <ele>497.20001220703125</ele>
        <time>2022-06-04T11:02:53.000Z</time>
      </trkpt>
      <trkpt lat="43.42888760380446910858154296875" lon="-5.58442329056560993194580078125">
        <ele>497.399993896484375</ele>
        <time>2022-06-04T11:02:55.000Z</time>
      </trkpt>
      <trkpt lat="43.42887721024453639984130859375" lon="-5.58435380458831787109375">
        <ele>497.600006103515625</ele>
        <time>2022-06-04T11:02:57.000Z</time>
      </trkpt>
      <trkpt lat="43.4288700856268405914306640625" lon="-5.58429370634257793426513671875">
        <ele>498</ele>
        <time>2022-06-04T11:02:59.000Z</time>
      </trkpt>
      <trkpt lat="43.4288687445223331451416015625" lon="-5.58423285372555255889892578125">
        <ele>498.20001220703125</ele>
        <time>2022-06-04T11:03:01.000Z</time>
      </trkpt>
      <trkpt lat="43.42885826714336872100830078125" lon="-5.58417937718331813812255859375">
        <ele>498.399993896484375</ele>
        <time>2022-06-04T11:03:03.000Z</time>
      </trkpt>
      <trkpt lat="43.428840078413486480712890625" lon="-5.584128163754940032958984375">
        <ele>498.600006103515625</ele>
        <time>2022-06-04T11:03:05.000Z</time>
      </trkpt>
      <trkpt lat="43.428820632398128509521484375" lon="-5.58407728560268878936767578125">
        <ele>499</ele>
        <time>2022-06-04T11:03:07.000Z</time>
      </trkpt>
      <trkpt lat="43.428820632398128509521484375" lon="-5.58407728560268878936767578125">
        <ele>499.20001220703125</ele>
        <time>2022-06-04T11:03:08.000Z</time>
      </trkpt>
      <trkpt lat="43.42879657633602619171142578125" lon="-5.58402447961270809173583984375">
        <ele>499.399993896484375</ele>
        <time>2022-06-04T11:03:09.000Z</time>
      </trkpt>
      <trkpt lat="43.42878215946257114410400390625" lon="-5.584002099931240081787109375">
        <ele>499.600006103515625</ele>
        <time>2022-06-04T11:03:10.000Z</time>
      </trkpt>
      <trkpt lat="43.42876665294170379638671875" lon="-5.58397829532623291015625">
        <ele>500</ele>
        <time>2022-06-04T11:03:11.000Z</time>
      </trkpt>
      <trkpt lat="43.4287349693477153778076171875" lon="-5.5839295126497745513916015625">
        <ele>500.399993896484375</ele>
        <time>2022-06-04T11:03:13.000Z</time>
      </trkpt>
      <trkpt lat="43.42870588414371013641357421875" lon="-5.5838845856487751007080078125">
        <ele>500.79998779296875</ele>
        <time>2022-06-04T11:03:15.000Z</time>
      </trkpt>
      <trkpt lat="43.42867805622518062591552734375" lon="-5.58383890427649021148681640625">
        <ele>501.20001220703125</ele>
        <time>2022-06-04T11:03:17.000Z</time>
      </trkpt>
      <trkpt lat="43.428646959364414215087890625" lon="-5.58380319736897945404052734375">
        <ele>501.399993896484375</ele>
        <time>2022-06-04T11:03:19.000Z</time>
      </trkpt>
      <trkpt lat="43.428646959364414215087890625" lon="-5.58380319736897945404052734375">
        <ele>501.600006103515625</ele>
        <time>2022-06-04T11:03:20.000Z</time>
      </trkpt>
      <trkpt lat="43.428617455065250396728515625" lon="-5.5837623775005340576171875">
        <ele>501.600006103515625</ele>
        <time>2022-06-04T11:03:21.000Z</time>
      </trkpt>
      <trkpt lat="43.42858828604221343994140625" lon="-5.5837221443653106689453125">
        <ele>502</ele>
        <time>2022-06-04T11:03:23.000Z</time>
      </trkpt>
      <trkpt lat="43.42856121249496936798095703125" lon="-5.58368115685880184173583984375">
        <ele>502.399993896484375</ele>
        <time>2022-06-04T11:03:25.000Z</time>
      </trkpt>
      <trkpt lat="43.42856121249496936798095703125" lon="-5.58368115685880184173583984375">
        <ele>502.600006103515625</ele>
        <time>2022-06-04T11:03:26.000Z</time>
      </trkpt>
      <trkpt lat="43.42853506095707416534423828125" lon="-5.58363656513392925262451171875">
        <ele>502.600006103515625</ele>
        <time>2022-06-04T11:03:27.000Z</time>
      </trkpt>
      <trkpt lat="43.42851092107594013214111328125" lon="-5.58358828537166118621826171875">
        <ele>502.79998779296875</ele>
        <time>2022-06-04T11:03:29.000Z</time>
      </trkpt>
      <trkpt lat="43.42848711647093296051025390625" lon="-5.58354017324745655059814453125">
        <ele>503</ele>
        <time>2022-06-04T11:03:31.000Z</time>
      </trkpt>
      <trkpt lat="43.42847160995006561279296875" lon="-5.58348937891423702239990234375">
        <ele>503.399993896484375</ele>
        <time>2022-06-04T11:03:33.000Z</time>
      </trkpt>
      <trkpt lat="43.42846691608428955078125" lon="-5.58345886878669261932373046875">
        <ele>503.399993896484375</ele>
        <time>2022-06-04T11:03:34.000Z</time>
      </trkpt>
      <trkpt lat="43.42846029438078403472900390625" lon="-5.58343037031590938568115234375">
        <ele>503.600006103515625</ele>
        <time>2022-06-04T11:03:35.000Z</time>
      </trkpt>
      <trkpt lat="43.42844855971634387969970703125" lon="-5.583373792469501495361328125">
        <ele>504</ele>
        <time>2022-06-04T11:03:37.000Z</time>
      </trkpt>
      <trkpt lat="43.42844855971634387969970703125" lon="-5.583373792469501495361328125">
        <ele>504.20001220703125</ele>
        <time>2022-06-04T11:03:38.000Z</time>
      </trkpt>
      <trkpt lat="43.428438417613506317138671875" lon="-5.58331822045147418975830078125">
        <ele>504.20001220703125</ele>
        <time>2022-06-04T11:03:39.000Z</time>
      </trkpt>
      <trkpt lat="43.428432382643222808837890625" lon="-5.5832619778811931610107421875">
        <ele>504.600006103515625</ele>
        <time>2022-06-04T11:03:41.000Z</time>
      </trkpt>
      <trkpt lat="43.42843431048095226287841796875" lon="-5.58320917189121246337890625">
        <ele>504.79998779296875</ele>
        <time>2022-06-04T11:03:43.000Z</time>
      </trkpt>
      <trkpt lat="43.4284395910799503326416015625" lon="-5.583159215748310089111328125">
        <ele>505.20001220703125</ele>
        <time>2022-06-04T11:03:45.000Z</time>
      </trkpt>
      <trkpt lat="43.42844353057444095611572265625" lon="-5.5831332318484783172607421875">
        <ele>505.399993896484375</ele>
        <time>2022-06-04T11:03:46.000Z</time>
      </trkpt>
      <trkpt lat="43.42844654805958271026611328125" lon="-5.583107583224773406982421875">
        <ele>505.600006103515625</ele>
        <time>2022-06-04T11:03:47.000Z</time>
      </trkpt>
      <trkpt lat="43.428451158106327056884765625" lon="-5.58308302424848079681396484375">
        <ele>505.79998779296875</ele>
        <time>2022-06-04T11:03:48.000Z</time>
      </trkpt>
      <trkpt lat="43.4284573607146739959716796875" lon="-5.58305972255766391754150390625">
        <ele>506</ele>
        <time>2022-06-04T11:03:49.000Z</time>
      </trkpt>
      <trkpt lat="43.4284704364836215972900390625" lon="-5.583016388118267059326171875">
        <ele>506.20001220703125</ele>
        <time>2022-06-04T11:03:51.000Z</time>
      </trkpt>
      <trkpt lat="43.4284808300435543060302734375" lon="-5.58297020383179187774658203125">
        <ele>506.600006103515625</ele>
        <time>2022-06-04T11:03:53.000Z</time>
      </trkpt>
      <trkpt lat="43.42849214561283588409423828125" lon="-5.58293181471526622772216796875">
        <ele>507</ele>
        <time>2022-06-04T11:03:55.000Z</time>
      </trkpt>
      <trkpt lat="43.42850522138178348541259765625" lon="-5.582894347608089447021484375">
        <ele>507.399993896484375</ele>
        <time>2022-06-04T11:03:57.000Z</time>
      </trkpt>
      <trkpt lat="43.42851745896041393280029296875" lon="-5.5828557908535003662109375">
        <ele>507.79998779296875</ele>
        <time>2022-06-04T11:03:59.000Z</time>
      </trkpt>
      <trkpt lat="43.4285247512161731719970703125" lon="-5.58283693157136440277099609375">
        <ele>508</ele>
        <time>2022-06-04T11:04:00.000Z</time>
      </trkpt>
      <trkpt lat="43.4285317920148372650146484375" lon="-5.58281765319406986236572265625">
        <ele>508.20001220703125</ele>
        <time>2022-06-04T11:04:01.000Z</time>
      </trkpt>
      <trkpt lat="43.4285317920148372650146484375" lon="-5.58281765319406986236572265625">
        <ele>508.399993896484375</ele>
        <time>2022-06-04T11:04:02.000Z</time>
      </trkpt>
      <trkpt lat="43.4285460412502288818359375" lon="-5.58277976699173450469970703125">
        <ele>508.600006103515625</ele>
        <time>2022-06-04T11:04:03.000Z</time>
      </trkpt>
      <trkpt lat="43.428563140332698822021484375" lon="-5.582746155560016632080078125">
        <ele>509</ele>
        <time>2022-06-04T11:04:05.000Z</time>
      </trkpt>
      <trkpt lat="43.4285820834338665008544921875" lon="-5.58271371759474277496337890625">
        <ele>509.399993896484375</ele>
        <time>2022-06-04T11:04:07.000Z</time>
      </trkpt>
      <trkpt lat="43.42860043980181217193603515625" lon="-5.5826787650585174560546875">
        <ele>509.79998779296875</ele>
        <time>2022-06-04T11:04:09.000Z</time>
      </trkpt>
      <trkpt lat="43.42861871235072612762451171875" lon="-5.5826417170464992523193359375">
        <ele>510.20001220703125</ele>
        <time>2022-06-04T11:04:11.000Z</time>
      </trkpt>
      <trkpt lat="43.4286290220916271209716796875" lon="-5.5826098658144474029541015625">
        <ele>510.600006103515625</ele>
        <time>2022-06-04T11:04:13.000Z</time>
      </trkpt>
      <trkpt lat="43.428638912737369537353515625" lon="-5.582578182220458984375">
        <ele>511</ele>
        <time>2022-06-04T11:04:15.000Z</time>
      </trkpt>
      <trkpt lat="43.42864327132701873779296875" lon="-5.5825602449476718902587890625">
        <ele>511.20001220703125</ele>
        <time>2022-06-04T11:04:16.000Z</time>
      </trkpt>
      <trkpt lat="43.42864620499312877655029296875" lon="-5.58254306204617023468017578125">
        <ele>511.600006103515625</ele>
        <time>2022-06-04T11:04:17.000Z</time>
      </trkpt>
      <trkpt lat="43.42865089885890483856201171875" lon="-5.58249847032129764556884765625">
        <ele>512</ele>
        <time>2022-06-04T11:04:19.000Z</time>
      </trkpt>
      <trkpt lat="43.428657017648220062255859375" lon="-5.58245438151061534881591796875">
        <ele>512.4000244140625</ele>
        <time>2022-06-04T11:04:21.000Z</time>
      </trkpt>
      <trkpt lat="43.4286558441817760467529296875" lon="-5.58240727521479129791259765625">
        <ele>512.79998779296875</ele>
        <time>2022-06-04T11:04:23.000Z</time>
      </trkpt>
      <trkpt lat="43.42865592800080776214599609375" lon="-5.5823617614805698394775390625">
        <ele>513.20001220703125</ele>
        <time>2022-06-04T11:04:25.000Z</time>
      </trkpt>
      <trkpt lat="43.42865358106791973114013671875" lon="-5.58231624774634838104248046875">
        <ele>513.4000244140625</ele>
        <time>2022-06-04T11:04:27.000Z</time>
      </trkpt>
      <trkpt lat="43.42865257523953914642333984375" lon="-5.58227098546922206878662109375">
        <ele>513.79998779296875</ele>
        <time>2022-06-04T11:04:29.000Z</time>
      </trkpt>
      <trkpt lat="43.42864989303052425384521484375" lon="-5.58222522027790546417236328125">
        <ele>514.20001220703125</ele>
        <time>2022-06-04T11:04:31.000Z</time>
      </trkpt>
      <trkpt lat="43.42864989303052425384521484375" lon="-5.58222522027790546417236328125">
        <ele>514.4000244140625</ele>
        <time>2022-06-04T11:04:32.000Z</time>
      </trkpt>
      <trkpt lat="43.4286426007747650146484375" lon="-5.58218054473400115966796875">
        <ele>514.4000244140625</ele>
        <time>2022-06-04T11:04:33.000Z</time>
      </trkpt>
      <trkpt lat="43.42863162048161029815673828125" lon="-5.582137964665889739990234375">
        <ele>514.79998779296875</ele>
        <time>2022-06-04T11:04:35.000Z</time>
      </trkpt>
      <trkpt lat="43.42861167155206203460693359375" lon="-5.5820975638926029205322265625">
        <ele>515</ele>
        <time>2022-06-04T11:04:37.000Z</time>
      </trkpt>
      <trkpt lat="43.42861167155206203460693359375" lon="-5.5820975638926029205322265625">
        <ele>515.4000244140625</ele>
        <time>2022-06-04T11:04:38.000Z</time>
      </trkpt>
      <trkpt lat="43.42858518473803997039794921875" lon="-5.58206043206155300140380859375">
        <ele>515.5999755859375</ele>
        <time>2022-06-04T11:04:39.000Z</time>
      </trkpt>
      <trkpt lat="43.42856389470398426055908203125" lon="-5.58202003128826618194580078125">
        <ele>515.79998779296875</ele>
        <time>2022-06-04T11:04:41.000Z</time>
      </trkpt>
      <trkpt lat="43.42854159884154796600341796875" lon="-5.581980384886264801025390625">
        <ele>516</ele>
        <time>2022-06-04T11:04:43.000Z</time>
      </trkpt>
      <trkpt lat="43.4285193867981433868408203125" lon="-5.58194157667458057403564453125">
        <ele>516.4000244140625</ele>
        <time>2022-06-04T11:04:45.000Z</time>
      </trkpt>
      <trkpt lat="43.4285069815814495086669921875" lon="-5.58192414231598377227783203125">
        <ele>516.5999755859375</ele>
        <time>2022-06-04T11:04:46.000Z</time>
      </trkpt>
      <trkpt lat="43.42849331907927989959716796875" lon="-5.581908635795116424560546875">
        <ele>516.79998779296875</ele>
        <time>2022-06-04T11:04:47.000Z</time>
      </trkpt>
      <trkpt lat="43.42846431769430637359619140625" lon="-5.58187653310596942901611328125">
        <ele>517.20001220703125</ele>
        <time>2022-06-04T11:04:49.000Z</time>
      </trkpt>
      <trkpt lat="43.42843330465257167816162109375" lon="-5.58184484951198101043701171875">
        <ele>517.5999755859375</ele>
        <time>2022-06-04T11:04:51.000Z</time>
      </trkpt>
      <trkpt lat="43.4284017048776149749755859375" lon="-5.58181433938443660736083984375">
        <ele>517.79998779296875</ele>
        <time>2022-06-04T11:04:53.000Z</time>
      </trkpt>
      <trkpt lat="43.4283711947500705718994140625" lon="-5.581783913075923919677734375">
        <ele>518.20001220703125</ele>
        <time>2022-06-04T11:04:55.000Z</time>
      </trkpt>
      <trkpt lat="43.42833590693771839141845703125" lon="-5.5817575938999652862548828125">
        <ele>518.4000244140625</ele>
        <time>2022-06-04T11:04:57.000Z</time>
      </trkpt>
      <trkpt lat="43.42830087058246135711669921875" lon="-5.581733621656894683837890625">
        <ele>518.5999755859375</ele>
        <time>2022-06-04T11:04:59.000Z</time>
      </trkpt>
      <trkpt lat="43.42828444205224514007568359375" lon="-5.581720881164073944091796875">
        <ele>518.79998779296875</ele>
        <time>2022-06-04T11:05:00.000Z</time>
      </trkpt>
      <trkpt lat="43.4282684326171875" lon="-5.58170839212834835052490234375">
        <ele>519</ele>
        <time>2022-06-04T11:05:01.000Z</time>
      </trkpt>
      <trkpt lat="43.42823683284223079681396484375" lon="-5.5816845037043094635009765625">
        <ele>519.20001220703125</ele>
        <time>2022-06-04T11:05:03.000Z</time>
      </trkpt>
      <trkpt lat="43.42820204794406890869140625" lon="-5.5816603638231754302978515625">
        <ele>519.5999755859375</ele>
        <time>2022-06-04T11:05:05.000Z</time>
      </trkpt>
      <trkpt lat="43.4281847812235355377197265625" lon="-5.5816499702632427215576171875">
        <ele>519.5999755859375</ele>
        <time>2022-06-04T11:05:06.000Z</time>
      </trkpt>
      <trkpt lat="43.42816776596009731292724609375" lon="-5.58163966052234172821044921875">
        <ele>519.79998779296875</ele>
        <time>2022-06-04T11:05:07.000Z</time>
      </trkpt>
      <trkpt lat="43.42813474126160144805908203125" lon="-5.58162155561149120330810546875">
        <ele>520.20001220703125</ele>
        <time>2022-06-04T11:05:09.000Z</time>
      </trkpt>
      <trkpt lat="43.42809735797345638275146484375" lon="-5.58160412125289440155029296875">
        <ele>520.4000244140625</ele>
        <time>2022-06-04T11:05:11.000Z</time>
      </trkpt>
      <trkpt lat="43.4280624054372310638427734375" lon="-5.5815889500081539154052734375">
        <ele>520.5999755859375</ele>
        <time>2022-06-04T11:05:13.000Z</time>
      </trkpt>
      <trkpt lat="43.4280624054372310638427734375" lon="-5.5815889500081539154052734375">
        <ele>520.79998779296875</ele>
        <time>2022-06-04T11:05:14.000Z</time>
      </trkpt>
      <trkpt lat="43.42803298495709896087646484375" lon="-5.58156489394605159759521484375">
        <ele>520.79998779296875</ele>
        <time>2022-06-04T11:05:15.000Z</time>
      </trkpt>
      <trkpt lat="43.42801739461719989776611328125" lon="-5.581553913652896881103515625">
        <ele>521</ele>
        <time>2022-06-04T11:05:16.000Z</time>
      </trkpt>
      <trkpt lat="43.4280010499060153961181640625" lon="-5.581545867025852203369140625">
        <ele>521.20001220703125</ele>
        <time>2022-06-04T11:05:17.000Z</time>
      </trkpt>
      <trkpt lat="43.42796743847429752349853515625" lon="-5.58153723366558551788330078125">
        <ele>521.4000244140625</ele>
        <time>2022-06-04T11:05:19.000Z</time>
      </trkpt>
      <trkpt lat="43.42793340794742107391357421875" lon="-5.58152482844889163970947265625">
        <ele>521.79998779296875</ele>
        <time>2022-06-04T11:05:21.000Z</time>
      </trkpt>
      <trkpt lat="43.42790189199149608612060546875" lon="-5.581504963338375091552734375">
        <ele>522</ele>
        <time>2022-06-04T11:05:23.000Z</time>
      </trkpt>
      <trkpt lat="43.42786945402622222900390625" lon="-5.58148426003754138946533203125">
        <ele>522.5999755859375</ele>
        <time>2022-06-04T11:05:25.000Z</time>
      </trkpt>
      <trkpt lat="43.427836932241916656494140625" lon="-5.5814665742218494415283203125">
        <ele>522.79998779296875</ele>
        <time>2022-06-04T11:05:27.000Z</time>
      </trkpt>
      <trkpt lat="43.427805416285991668701171875" lon="-5.58144838549196720123291015625">
        <ele>523</ele>
        <time>2022-06-04T11:05:29.000Z</time>
      </trkpt>
      <trkpt lat="43.42777415178716182708740234375" lon="-5.581427179276943206787109375">
        <ele>523.4000244140625</ele>
        <time>2022-06-04T11:05:31.000Z</time>
      </trkpt>
      <trkpt lat="43.42774330638349056243896484375" lon="-5.58140949346125125885009765625">
        <ele>524</ele>
        <time>2022-06-04T11:05:33.000Z</time>
      </trkpt>
      <trkpt lat="43.42771380208432674407958984375" lon="-5.5813861079514026641845703125">
        <ele>524.4000244140625</ele>
        <time>2022-06-04T11:05:35.000Z</time>
      </trkpt>
      <trkpt lat="43.427686728537082672119140625" lon="-5.58135836385190486907958984375">
        <ele>524.5999755859375</ele>
        <time>2022-06-04T11:05:37.000Z</time>
      </trkpt>
      <trkpt lat="43.42766082845628261566162109375" lon="-5.581325925886631011962890625">
        <ele>525</ele>
        <time>2022-06-04T11:05:39.000Z</time>
      </trkpt>
      <trkpt lat="43.4276476688683032989501953125" lon="-5.5813110060989856719970703125">
        <ele>525.20001220703125</ele>
        <time>2022-06-04T11:05:40.000Z</time>
      </trkpt>
      <trkpt lat="43.42763367109000682830810546875" lon="-5.581296421587467193603515625">
        <ele>525.20001220703125</ele>
        <time>2022-06-04T11:05:41.000Z</time>
      </trkpt>
      <trkpt lat="43.42760534025728702545166015625" lon="-5.5812679231166839599609375">
        <ele>525.4000244140625</ele>
        <time>2022-06-04T11:05:43.000Z</time>
      </trkpt>
      <trkpt lat="43.42758086510002613067626953125" lon="-5.5812342278659343719482421875">
        <ele>525.5999755859375</ele>
        <time>2022-06-04T11:05:45.000Z</time>
      </trkpt>
      <trkpt lat="43.427559323608875274658203125" lon="-5.58119927532970905303955078125">
        <ele>526</ele>
        <time>2022-06-04T11:05:47.000Z</time>
      </trkpt>
      <trkpt lat="43.42754893004894256591796875" lon="-5.581180416047573089599609375">
        <ele>526.20001220703125</ele>
        <time>2022-06-04T11:05:48.000Z</time>
      </trkpt>
      <trkpt lat="43.42753979377448558807373046875" lon="-5.58116021566092967987060546875">
        <ele>526.5999755859375</ele>
        <time>2022-06-04T11:05:49.000Z</time>
      </trkpt>
      <trkpt lat="43.4275256283581256866455078125" lon="-5.58111813850700855255126953125">
        <ele>526.79998779296875</ele>
        <time>2022-06-04T11:05:51.000Z</time>
      </trkpt>
      <trkpt lat="43.4275115467607975006103515625" lon="-5.58107874356210231781005859375">
        <ele>527.20001220703125</ele>
        <time>2022-06-04T11:05:53.000Z</time>
      </trkpt>
      <trkpt lat="43.42749536968767642974853515625" lon="-5.58104219846427440643310546875">
        <ele>527.4000244140625</ele>
        <time>2022-06-04T11:05:55.000Z</time>
      </trkpt>
      <trkpt lat="43.42748329974710941314697265625" lon="-5.58100447990000247955322265625">
        <ele>527.5999755859375</ele>
        <time>2022-06-04T11:05:57.000Z</time>
      </trkpt>
      <trkpt lat="43.42747743241488933563232421875" lon="-5.5809594690799713134765625">
        <ele>528</ele>
        <time>2022-06-04T11:05:59.000Z</time>
      </trkpt>
      <trkpt lat="43.4274703077971935272216796875" lon="-5.58091546408832073211669921875">
        <ele>528.4000244140625</ele>
        <time>2022-06-04T11:06:01.000Z</time>
      </trkpt>
      <trkpt lat="43.4274703077971935272216796875" lon="-5.58091546408832073211669921875">
        <ele>528.5999755859375</ele>
        <time>2022-06-04T11:06:02.000Z</time>
      </trkpt>
      <trkpt lat="43.4274558909237384796142578125" lon="-5.5808731354773044586181640625">
        <ele>528.5999755859375</ele>
        <time>2022-06-04T11:06:03.000Z</time>
      </trkpt>
      <trkpt lat="43.42744273133575916290283203125" lon="-5.58083181269466876983642578125">
        <ele>528.79998779296875</ele>
        <time>2022-06-04T11:06:05.000Z</time>
      </trkpt>
      <trkpt lat="43.427430577576160430908203125" lon="-5.5807893164455890655517578125">
        <ele>529.20001220703125</ele>
        <time>2022-06-04T11:06:07.000Z</time>
      </trkpt>
      <trkpt lat="43.4274223633110523223876953125" lon="-5.58074480853974819183349609375">
        <ele>529.4000244140625</ele>
        <time>2022-06-04T11:06:09.000Z</time>
      </trkpt>
      <trkpt lat="43.42741892673075199127197265625" lon="-5.58072184212505817413330078125">
        <ele>529.5999755859375</ele>
        <time>2022-06-04T11:06:10.000Z</time>
      </trkpt>
      <trkpt lat="43.4274149872362613677978515625" lon="-5.58069686405360698699951171875">
        <ele>529.79998779296875</ele>
        <time>2022-06-04T11:06:11.000Z</time>
      </trkpt>
      <trkpt lat="43.42740811407566070556640625" lon="-5.58064891956746578216552734375">
        <ele>530</ele>
        <time>2022-06-04T11:06:13.000Z</time>
      </trkpt>
      <trkpt lat="43.4274019114673137664794921875" lon="-5.58060013689100742340087890625">
        <ele>530.4000244140625</ele>
        <time>2022-06-04T11:06:15.000Z</time>
      </trkpt>
      <trkpt lat="43.42739126645028591156005859375" lon="-5.58055319823324680328369140625">
        <ele>530.5999755859375</ele>
        <time>2022-06-04T11:06:17.000Z</time>
      </trkpt>
      <trkpt lat="43.4273801185190677642822265625" lon="-5.580506511032581329345703125">
        <ele>531</ele>
        <time>2022-06-04T11:06:19.000Z</time>
      </trkpt>
      <trkpt lat="43.42737014405429363250732421875" lon="-5.580458901822566986083984375">
        <ele>531.4000244140625</ele>
        <time>2022-06-04T11:06:21.000Z</time>
      </trkpt>
      <trkpt lat="43.42736695893108844757080078125" lon="-5.58043568395078182220458984375">
        <ele>531.4000244140625</ele>
        <time>2022-06-04T11:06:22.000Z</time>
      </trkpt>
      <trkpt lat="43.42736360616981983184814453125" lon="-5.5804121308028697967529296875">
        <ele>531.5999755859375</ele>
        <time>2022-06-04T11:06:23.000Z</time>
      </trkpt>
      <trkpt lat="43.4273579902946949005126953125" lon="-5.5803608335554599761962890625">
        <ele>532</ele>
        <time>2022-06-04T11:06:25.000Z</time>
      </trkpt>
      <trkpt lat="43.42735388316214084625244140625" lon="-5.58031112886965274810791015625">
        <ele>532.4000244140625</ele>
        <time>2022-06-04T11:06:27.000Z</time>
      </trkpt>
      <trkpt lat="43.42734910547733306884765625" lon="-5.58028824627399444580078125">
        <ele>532.79998779296875</ele>
        <time>2022-06-04T11:06:28.000Z</time>
      </trkpt>
      <trkpt lat="43.42734265141189098358154296875" lon="-5.58026536367833614349365234375">
        <ele>533</ele>
        <time>2022-06-04T11:06:29.000Z</time>
      </trkpt>
      <trkpt lat="43.427329994738101959228515625" lon="-5.58022529818117618560791015625">
        <ele>533.20001220703125</ele>
        <time>2022-06-04T11:06:31.000Z</time>
      </trkpt>
      <trkpt lat="43.427329994738101959228515625" lon="-5.58022529818117618560791015625">
        <ele>533.4000244140625</ele>
        <time>2022-06-04T11:06:32.000Z</time>
      </trkpt>
      <trkpt lat="43.427315913140773773193359375" lon="-5.5801760964095592498779296875">
        <ele>533.4000244140625</ele>
        <time>2022-06-04T11:06:33.000Z</time>
      </trkpt>
      <trkpt lat="43.4273097105324268341064453125" lon="-5.58012505061924457550048828125">
        <ele>533.79998779296875</ele>
        <time>2022-06-04T11:06:35.000Z</time>
      </trkpt>
      <trkpt lat="43.4272959642112255096435546875" lon="-5.580072663724422454833984375">
        <ele>534.20001220703125</ele>
        <time>2022-06-04T11:06:37.000Z</time>
      </trkpt>
      <trkpt lat="43.4272959642112255096435546875" lon="-5.580072663724422454833984375">
        <ele>534.4000244140625</ele>
        <time>2022-06-04T11:06:38.000Z</time>
      </trkpt>
      <trkpt lat="43.4272718243300914764404296875" lon="-5.58002430014312267303466796875">
        <ele>534.5999755859375</ele>
        <time>2022-06-04T11:06:39.000Z</time>
      </trkpt>
      <trkpt lat="43.4272463433444499969482421875" lon="-5.5799766071140766143798828125">
        <ele>535</ele>
        <time>2022-06-04T11:06:41.000Z</time>
      </trkpt>
      <trkpt lat="43.42723016627132892608642578125" lon="-5.57992883026599884033203125">
        <ele>535.4000244140625</ele>
        <time>2022-06-04T11:06:43.000Z</time>
      </trkpt>
      <trkpt lat="43.42723016627132892608642578125" lon="-5.57992883026599884033203125">
        <ele>535.5999755859375</ele>
        <time>2022-06-04T11:06:44.000Z</time>
      </trkpt>
      <trkpt lat="43.4272129833698272705078125" lon="-5.57987946085631847381591796875">
        <ele>535.79998779296875</ele>
        <time>2022-06-04T11:06:45.000Z</time>
      </trkpt>
      <trkpt lat="43.4271997399628162384033203125" lon="-5.57985582388937473297119140625">
        <ele>536</ele>
        <time>2022-06-04T11:06:46.000Z</time>
      </trkpt>
      <trkpt lat="43.42718557454645633697509765625" lon="-5.5798329412937164306640625">
        <ele>536.20001220703125</ele>
        <time>2022-06-04T11:06:47.000Z</time>
      </trkpt>
      <trkpt lat="43.427167721092700958251953125" lon="-5.57977996766567230224609375">
        <ele>536.4000244140625</ele>
        <time>2022-06-04T11:06:49.000Z</time>
      </trkpt>
      <trkpt lat="43.4271380491554737091064453125" lon="-5.5797378905117511749267578125">
        <ele>536.79998779296875</ele>
        <time>2022-06-04T11:06:51.000Z</time>
      </trkpt>
      <trkpt lat="43.4271011687815189361572265625" lon="-5.5797026865184307098388671875">
        <ele>537.20001220703125</ele>
        <time>2022-06-04T11:06:53.000Z</time>
      </trkpt>
      <trkpt lat="43.4270877577364444732666015625" lon="-5.57968399487435817718505859375">
        <ele>537.4000244140625</ele>
        <time>2022-06-04T11:06:54.000Z</time>
      </trkpt>
      <trkpt lat="43.42707593925297260284423828125" lon="-5.5796604417264461517333984375">
        <ele>537.5999755859375</ele>
        <time>2022-06-04T11:06:55.000Z</time>
      </trkpt>
      <trkpt lat="43.42705397866666316986083984375" lon="-5.57961073704063892364501953125">
        <ele>538.20001220703125</ele>
        <time>2022-06-04T11:06:57.000Z</time>
      </trkpt>
      <trkpt lat="43.4270435012876987457275390625" lon="-5.57958626188337802886962890625">
        <ele>538.20001220703125</ele>
        <time>2022-06-04T11:06:58.000Z</time>
      </trkpt>
      <trkpt lat="43.427028916776180267333984375" lon="-5.57956664822995662689208984375">
        <ele>538.4000244140625</ele>
        <time>2022-06-04T11:06:59.000Z</time>
      </trkpt>
      <trkpt lat="43.42701391316950321197509765625" lon="-5.57955063879489898681640625">
        <ele>538.5999755859375</ele>
        <time>2022-06-04T11:07:00.000Z</time>
      </trkpt>
      <trkpt lat="43.4269989095628261566162109375" lon="-5.5795316956937313079833984375">
        <ele>538.79998779296875</ele>
        <time>2022-06-04T11:07:01.000Z</time>
      </trkpt>
      <trkpt lat="43.42697736807167530059814453125" lon="-5.57948953472077846527099609375">
        <ele>539.20001220703125</ele>
        <time>2022-06-04T11:07:03.000Z</time>
      </trkpt>
      <trkpt lat="43.42696781270205974578857421875" lon="-5.57946522720158100128173828125">
        <ele>539.4000244140625</ele>
        <time>2022-06-04T11:07:04.000Z</time>
      </trkpt>
      <trkpt lat="43.42695750296115875244140625" lon="-5.57944192551076412200927734375">
        <ele>539.5999755859375</ele>
        <time>2022-06-04T11:07:05.000Z</time>
      </trkpt>
      <trkpt lat="43.42694819904863834381103515625" lon="-5.57942030020058155059814453125">
        <ele>540</ele>
        <time>2022-06-04T11:07:06.000Z</time>
      </trkpt>
      <trkpt lat="43.42693730257451534271240234375" lon="-5.57939901016652584075927734375">
        <ele>540.20001220703125</ele>
        <time>2022-06-04T11:07:07.000Z</time>
      </trkpt>
      <trkpt lat="43.42690360732376575469970703125" lon="-5.57935760356485843658447265625">
        <ele>540.5999755859375</ele>
        <time>2022-06-04T11:07:09.000Z</time>
      </trkpt>
      <trkpt lat="43.426874019205570220947265625" lon="-5.57931753806769847869873046875">
        <ele>541</ele>
        <time>2022-06-04T11:07:11.000Z</time>
      </trkpt>
      <trkpt lat="43.4268480353057384490966796875" lon="-5.57927110232412815093994140625">
        <ele>541.4000244140625</ele>
        <time>2022-06-04T11:07:13.000Z</time>
      </trkpt>
      <trkpt lat="43.4268316067755222320556640625" lon="-5.57922449894249439239501953125">
        <ele>541.79998779296875</ele>
        <time>2022-06-04T11:07:15.000Z</time>
      </trkpt>
      <trkpt lat="43.42680704779922962188720703125" lon="-5.57918828912079334259033203125">
        <ele>542.20001220703125</ele>
        <time>2022-06-04T11:07:17.000Z</time>
      </trkpt>
      <trkpt lat="43.4267731010913848876953125" lon="-5.579166412353515625">
        <ele>542.79998779296875</ele>
        <time>2022-06-04T11:07:19.000Z</time>
      </trkpt>
      <trkpt lat="43.4267731010913848876953125" lon="-5.579166412353515625">
        <ele>543</ele>
        <time>2022-06-04T11:07:20.000Z</time>
      </trkpt>
      <trkpt lat="43.42675021849572658538818359375" lon="-5.57913011871278285980224609375">
        <ele>543.4000244140625</ele>
        <time>2022-06-04T11:07:21.000Z</time>
      </trkpt>
      <trkpt lat="43.426742590963840484619140625" lon="-5.579108409583568572998046875">
        <ele>543.5999755859375</ele>
        <time>2022-06-04T11:07:22.000Z</time>
      </trkpt>
      <trkpt lat="43.426735885441303253173828125" lon="-5.579088293015956878662109375">
        <ele>543.79998779296875</ele>
        <time>2022-06-04T11:07:23.000Z</time>
      </trkpt>
      <trkpt lat="43.42672842554748058319091796875" lon="-5.57906960137188434600830078125">
        <ele>544.20001220703125</ele>
        <time>2022-06-04T11:07:24.000Z</time>
      </trkpt>
      <trkpt lat="43.426718451082706451416015625" lon="-5.57905350811779499053955078125">
        <ele>544.4000244140625</ele>
        <time>2022-06-04T11:07:25.000Z</time>
      </trkpt>
      <trkpt lat="43.42669875361025333404541015625" lon="-5.5790207348763942718505859375">
        <ele>545</ele>
        <time>2022-06-04T11:07:27.000Z</time>
      </trkpt>
      <trkpt lat="43.4266847558319568634033203125" lon="-5.5789838545024394989013671875">
        <ele>545.4000244140625</ele>
        <time>2022-06-04T11:07:29.000Z</time>
      </trkpt>
      <trkpt lat="43.42667243443429470062255859375" lon="-5.57894772849977016448974609375">
        <ele>545.79998779296875</ele>
        <time>2022-06-04T11:07:31.000Z</time>
      </trkpt>
      <trkpt lat="43.42666019685566425323486328125" lon="-5.57890933938324451446533203125">
        <ele>546</ele>
        <time>2022-06-04T11:07:33.000Z</time>
      </trkpt>
      <trkpt lat="43.42665013857185840606689453125" lon="-5.57887245900928974151611328125">
        <ele>546.4000244140625</ele>
        <time>2022-06-04T11:07:35.000Z</time>
      </trkpt>
      <trkpt lat="43.42663840390741825103759765625" lon="-5.5788343213498592376708984375">
        <ele>546.79998779296875</ele>
        <time>2022-06-04T11:07:37.000Z</time>
      </trkpt>
      <trkpt lat="43.42663840390741825103759765625" lon="-5.5788343213498592376708984375">
        <ele>547</ele>
        <time>2022-06-04T11:07:38.000Z</time>
      </trkpt>
      <trkpt lat="43.4266254119575023651123046875" lon="-5.578793250024318695068359375">
        <ele>547.20001220703125</ele>
        <time>2022-06-04T11:07:39.000Z</time>
      </trkpt>
      <trkpt lat="43.42661418020725250244140625" lon="-5.578753687441349029541015625">
        <ele>547.4000244140625</ele>
        <time>2022-06-04T11:07:41.000Z</time>
      </trkpt>
      <trkpt lat="43.42660286463797092437744140625" lon="-5.57871378958225250244140625">
        <ele>547.79998779296875</ele>
        <time>2022-06-04T11:07:43.000Z</time>
      </trkpt>
      <trkpt lat="43.4266059659421443939208984375" lon="-5.5786720477044582366943359375">
        <ele>548</ele>
        <time>2022-06-04T11:07:45.000Z</time>
      </trkpt>
      <trkpt lat="43.42660923488438129425048828125" lon="-5.57865084148943424224853515625">
        <ele>548.20001220703125</ele>
        <time>2022-06-04T11:07:46.000Z</time>
      </trkpt>
      <trkpt lat="43.42660881578922271728515625" lon="-5.5786284618079662322998046875">
        <ele>548.4000244140625</ele>
        <time>2022-06-04T11:07:47.000Z</time>
      </trkpt>
      <trkpt lat="43.426606468856334686279296875" lon="-5.578605495393276214599609375">
        <ele>548.5999755859375</ele>
        <time>2022-06-04T11:07:48.000Z</time>
      </trkpt>
      <trkpt lat="43.42660185880959033966064453125" lon="-5.5785848759114742279052734375">
        <ele>548.79998779296875</ele>
        <time>2022-06-04T11:07:49.000Z</time>
      </trkpt>
      <trkpt lat="43.42660185880959033966064453125" lon="-5.5785848759114742279052734375">
        <ele>549</ele>
        <time>2022-06-04T11:07:50.000Z</time>
      </trkpt>
      <trkpt lat="43.4265880286693572998046875" lon="-5.57854556478559970855712890625">
        <ele>549</ele>
        <time>2022-06-04T11:07:51.000Z</time>
      </trkpt>
      <trkpt lat="43.4265794791281223297119140625" lon="-5.5785000510513782501220703125">
        <ele>549.4000244140625</ele>
        <time>2022-06-04T11:07:53.000Z</time>
      </trkpt>
      <trkpt lat="43.42657268978655338287353515625" lon="-5.57845369912683963775634765625">
        <ele>549.5999755859375</ele>
        <time>2022-06-04T11:07:55.000Z</time>
      </trkpt>
      <trkpt lat="43.42656732536852359771728515625" lon="-5.57841246016323566436767578125">
        <ele>550</ele>
        <time>2022-06-04T11:07:57.000Z</time>
      </trkpt>
      <trkpt lat="43.42655659653246402740478515625" lon="-5.57837071828544139862060546875">
        <ele>550.5999755859375</ele>
        <time>2022-06-04T11:07:59.000Z</time>
      </trkpt>
      <trkpt lat="43.42655156739056110382080078125" lon="-5.57834993116557598114013671875">
        <ele>550.79998779296875</ele>
        <time>2022-06-04T11:08:00.000Z</time>
      </trkpt>
      <trkpt lat="43.4265459515154361724853515625" lon="-5.5783243663609027862548828125">
        <ele>551</ele>
        <time>2022-06-04T11:08:01.000Z</time>
      </trkpt>
      <trkpt lat="43.42653782106935977935791015625" lon="-5.57827969081699848175048828125">
        <ele>551.4000244140625</ele>
        <time>2022-06-04T11:08:03.000Z</time>
      </trkpt>
      <trkpt lat="43.42652834951877593994140625" lon="-5.57823677547276020050048828125">
        <ele>551.79998779296875</ele>
        <time>2022-06-04T11:08:05.000Z</time>
      </trkpt>
      <trkpt lat="43.42651854269206523895263671875" lon="-5.578194446861743927001953125">
        <ele>552.20001220703125</ele>
        <time>2022-06-04T11:08:07.000Z</time>
      </trkpt>
      <trkpt lat="43.4265084005892276763916015625" lon="-5.57815228588879108428955078125">
        <ele>552.5999755859375</ele>
        <time>2022-06-04T11:08:09.000Z</time>
      </trkpt>
      <trkpt lat="43.42650311999022960662841796875" lon="-5.578129403293132781982421875">
        <ele>552.79998779296875</ele>
        <time>2022-06-04T11:08:10.000Z</time>
      </trkpt>
      <trkpt lat="43.4264976717531681060791015625" lon="-5.5781057663261890411376953125">
        <ele>552.79998779296875</ele>
        <time>2022-06-04T11:08:11.000Z</time>
      </trkpt>
      <trkpt lat="43.42648451216518878936767578125" lon="-5.578067041933536529541015625">
        <ele>553.20001220703125</ele>
        <time>2022-06-04T11:08:13.000Z</time>
      </trkpt>
      <trkpt lat="43.4264701791107654571533203125" lon="-5.57802756316959857940673828125">
        <ele>553.5999755859375</ele>
        <time>2022-06-04T11:08:15.000Z</time>
      </trkpt>
      <trkpt lat="43.42645467258989810943603515625" lon="-5.57798448018729686737060546875">
        <ele>553.79998779296875</ele>
        <time>2022-06-04T11:08:17.000Z</time>
      </trkpt>
      <trkpt lat="43.42644712887704372406005859375" lon="-5.577940978109836578369140625">
        <ele>554.20001220703125</ele>
        <time>2022-06-04T11:08:19.000Z</time>
      </trkpt>
      <trkpt lat="43.42643715441226959228515625" lon="-5.577903091907501220703125">
        <ele>554.5999755859375</ele>
        <time>2022-06-04T11:08:21.000Z</time>
      </trkpt>
      <trkpt lat="43.42642148025333881378173828125" lon="-5.57786914519965648651123046875">
        <ele>555</ele>
        <time>2022-06-04T11:08:23.000Z</time>
      </trkpt>
      <trkpt lat="43.42640723101794719696044921875" lon="-5.5778315104544162750244140625">
        <ele>555.20001220703125</ele>
        <time>2022-06-04T11:08:25.000Z</time>
      </trkpt>
      <trkpt lat="43.42640723101794719696044921875" lon="-5.5778315104544162750244140625">
        <ele>555.4000244140625</ele>
        <time>2022-06-04T11:08:26.000Z</time>
      </trkpt>
      <trkpt lat="43.4264041297137737274169921875" lon="-5.57781122624874114990234375">
        <ele>555.5999755859375</ele>
        <time>2022-06-04T11:08:27.000Z</time>
      </trkpt>
      <trkpt lat="43.42640630900859832763671875" lon="-5.57777107693254947662353515625">
        <ele>555.79998779296875</ele>
        <time>2022-06-04T11:08:28.000Z</time>
      </trkpt>
      <trkpt lat="43.4264108352363109588623046875" lon="-5.57775062508881092071533203125">
        <ele>556</ele>
        <time>2022-06-04T11:08:29.000Z</time>
      </trkpt>
      <trkpt lat="43.42642332427203655242919921875" lon="-5.5777138285338878631591796875">
        <ele>556.20001220703125</ele>
        <time>2022-06-04T11:08:31.000Z</time>
      </trkpt>
      <trkpt lat="43.4264373220503330230712890625" lon="-5.5776766128838062286376953125">
        <ele>556.4000244140625</ele>
        <time>2022-06-04T11:08:33.000Z</time>
      </trkpt>
      <trkpt lat="43.42645081691443920135498046875" lon="-5.57763780467212200164794921875">
        <ele>556.79998779296875</ele>
        <time>2022-06-04T11:08:35.000Z</time>
      </trkpt>
      <trkpt lat="43.4264581091701984405517578125" lon="-5.577619113028049468994140625">
        <ele>557</ele>
        <time>2022-06-04T11:08:36.000Z</time>
      </trkpt>
      <trkpt lat="43.42646573670208454132080078125" lon="-5.5776018463075160980224609375">
        <ele>557.20001220703125</ele>
        <time>2022-06-04T11:08:37.000Z</time>
      </trkpt>
      <trkpt lat="43.42648233287036418914794921875" lon="-5.5775663070380687713623046875">
        <ele>557.5999755859375</ele>
        <time>2022-06-04T11:08:39.000Z</time>
      </trkpt>
      <trkpt lat="43.42649926431477069854736328125" lon="-5.57753085158765316009521484375">
        <ele>558</ele>
        <time>2022-06-04T11:08:41.000Z</time>
      </trkpt>
      <trkpt lat="43.426510579884052276611328125" lon="-5.577512495219707489013671875">
        <ele>558</ele>
        <time>2022-06-04T11:08:42.000Z</time>
      </trkpt>
      <trkpt lat="43.426510579884052276611328125" lon="-5.577512495219707489013671875">
        <ele>558.20001220703125</ele>
        <time>2022-06-04T11:08:43.000Z</time>
      </trkpt>
      <trkpt lat="43.42654176056385040283203125" lon="-5.57746211998164653778076171875">
        <ele>558.5999755859375</ele>
        <time>2022-06-04T11:08:45.000Z</time>
      </trkpt>
      <trkpt lat="43.426562212407588958740234375" lon="-5.577425993978977203369140625">
        <ele>559.20001220703125</ele>
        <time>2022-06-04T11:08:47.000Z</time>
      </trkpt>
      <trkpt lat="43.4265798144042491912841796875" lon="-5.577389113605022430419921875">
        <ele>559.5999755859375</ele>
        <time>2022-06-04T11:08:49.000Z</time>
      </trkpt>
      <trkpt lat="43.4265888668596744537353515625" lon="-5.5773705057799816131591796875">
        <ele>560</ele>
        <time>2022-06-04T11:08:51.000Z</time>
      </trkpt>
      <trkpt lat="43.426615186035633087158203125" lon="-5.57731292210519313812255859375">
        <ele>560.4000244140625</ele>
        <time>2022-06-04T11:08:53.000Z</time>
      </trkpt>
      <trkpt lat="43.4266347996890544891357421875" lon="-5.57727478444576263427734375">
        <ele>560.79998779296875</ele>
        <time>2022-06-04T11:08:55.000Z</time>
      </trkpt>
      <trkpt lat="43.42665307223796844482421875" lon="-5.57723991572856903076171875">
        <ele>561.20001220703125</ele>
        <time>2022-06-04T11:08:57.000Z</time>
      </trkpt>
      <trkpt lat="43.42666153796017169952392578125" lon="-5.57722239755094051361083984375">
        <ele>561.4000244140625</ele>
        <time>2022-06-04T11:08:58.000Z</time>
      </trkpt>
      <trkpt lat="43.42666153796017169952392578125" lon="-5.57722239755094051361083984375">
        <ele>561.5999755859375</ele>
        <time>2022-06-04T11:08:59.000Z</time>
      </trkpt>
      <trkpt lat="43.42668467201292514801025390625" lon="-5.5771646462380886077880859375">
        <ele>562</ele>
        <time>2022-06-04T11:09:01.000Z</time>
      </trkpt>
      <trkpt lat="43.42669137753546237945556640625" lon="-5.57714628987014293670654296875">
        <ele>562.4000244140625</ele>
        <time>2022-06-04T11:09:03.000Z</time>
      </trkpt>
      <trkpt lat="43.4267021901905536651611328125" lon="-5.57710253633558750152587890625">
        <ele>562.5999755859375</ele>
        <time>2022-06-04T11:09:04.000Z</time>
      </trkpt>
      <trkpt lat="43.42670897953212261199951171875" lon="-5.57708208449184894561767578125">
        <ele>562.5999755859375</ele>
        <time>2022-06-04T11:09:05.000Z</time>
      </trkpt>
      <trkpt lat="43.42671685852110385894775390625" lon="-5.577062554657459259033203125">
        <ele>563</ele>
        <time>2022-06-04T11:09:07.000Z</time>
      </trkpt>
      <trkpt lat="43.42672339640557765960693359375" lon="-5.57704403065145015716552734375">
        <ele>563.20001220703125</ele>
        <time>2022-06-04T11:09:08.000Z</time>
      </trkpt>
      <trkpt lat="43.42673127539455890655517578125" lon="-5.57700228877365589141845703125">
        <ele>563.4000244140625</ele>
        <time>2022-06-04T11:09:09.000Z</time>
      </trkpt>
      <trkpt lat="43.42673353850841522216796875" lon="-5.57698099873960018157958984375">
        <ele>563.4000244140625</ele>
        <time>2022-06-04T11:09:10.000Z</time>
      </trkpt>
      <trkpt lat="43.42673353850841522216796875" lon="-5.57698099873960018157958984375">
        <ele>563.5999755859375</ele>
        <time>2022-06-04T11:09:11.000Z</time>
      </trkpt>
      <trkpt lat="43.42674334533512592315673828125" lon="-5.576921403408050537109375">
        <ele>564</ele>
        <time>2022-06-04T11:09:13.000Z</time>
      </trkpt>
      <trkpt lat="43.42674736864864826202392578125" lon="-5.57688410393893718719482421875">
        <ele>564.5999755859375</ele>
        <time>2022-06-04T11:09:15.000Z</time>
      </trkpt>
      <trkpt lat="43.426745273172855377197265625" lon="-5.576866753399372100830078125">
        <ele>564.5999755859375</ele>
        <time>2022-06-04T11:09:16.000Z</time>
      </trkpt>
      <trkpt lat="43.42674368061125278472900390625" lon="-5.57684806175529956817626953125">
        <ele>564.79998779296875</ele>
        <time>2022-06-04T11:09:17.000Z</time>
      </trkpt>
      <trkpt lat="43.42674418352544307708740234375" lon="-5.576827526092529296875">
        <ele>565</ele>
        <time>2022-06-04T11:09:19.000Z</time>
      </trkpt>
      <trkpt lat="43.4267556667327880859375" lon="-5.5767686851322650909423828125">
        <ele>565.5999755859375</ele>
        <time>2022-06-04T11:09:21.000Z</time>
      </trkpt>
      <trkpt lat="43.426758348941802978515625" lon="-5.5767484009265899658203125">
        <ele>566</ele>
        <time>2022-06-04T11:09:22.000Z</time>
      </trkpt>
      <trkpt lat="43.426758348941802978515625" lon="-5.5767484009265899658203125">
        <ele>566.20001220703125</ele>
        <time>2022-06-04T11:09:23.000Z</time>
      </trkpt>
      <trkpt lat="43.42676832340657711029052734375" lon="-5.57668469846248626708984375">
        <ele>566.5999755859375</ele>
        <time>2022-06-04T11:09:25.000Z</time>
      </trkpt>
      <trkpt lat="43.42679321765899658203125" lon="-5.5766406096518039703369140625">
        <ele>566.79998779296875</ele>
        <time>2022-06-04T11:09:27.000Z</time>
      </trkpt>
      <trkpt lat="43.42680805362761020660400390625" lon="-5.5766196548938751220703125">
        <ele>567</ele>
        <time>2022-06-04T11:09:28.000Z</time>
      </trkpt>
      <trkpt lat="43.42680805362761020660400390625" lon="-5.5766196548938751220703125">
        <ele>567.20001220703125</ele>
        <time>2022-06-04T11:09:29.000Z</time>
      </trkpt>
      <trkpt lat="43.42683236114680767059326171875" lon="-5.57657539844512939453125">
        <ele>567.20001220703125</ele>
        <time>2022-06-04T11:09:30.000Z</time>
      </trkpt>
      <trkpt lat="43.4268430061638355255126953125" lon="-5.57655335403978824615478515625">
        <ele>567.4000244140625</ele>
        <time>2022-06-04T11:09:31.000Z</time>
      </trkpt>
      <trkpt lat="43.42686362564563751220703125" lon="-5.576509349048137664794921875">
        <ele>567.4000244140625</ele>
        <time>2022-06-04T11:09:33.000Z</time>
      </trkpt>
      <trkpt lat="43.426884077489376068115234375" lon="-5.57646634988486766815185546875">
        <ele>567.5999755859375</ele>
        <time>2022-06-04T11:09:35.000Z</time>
      </trkpt>
      <trkpt lat="43.42689472250640392303466796875" lon="-5.57644841261208057403564453125">
        <ele>567.79998779296875</ele>
        <time>2022-06-04T11:09:37.000Z</time>
      </trkpt>
      <trkpt lat="43.4269157610833644866943359375" lon="-5.57641572318971157073974609375">
        <ele>568</ele>
        <time>2022-06-04T11:09:39.000Z</time>
      </trkpt>
      <trkpt lat="43.42693696729838848114013671875" lon="-5.576383285224437713623046875">
        <ele>568</ele>
        <time>2022-06-04T11:09:40.000Z</time>
      </trkpt>
      <trkpt lat="43.42694551683962345123291015625" lon="-5.57636777870357036590576171875">
        <ele>568.20001220703125</ele>
        <time>2022-06-04T11:09:41.000Z</time>
      </trkpt>
      <trkpt lat="43.42695347964763641357421875" lon="-5.57635436765849590301513671875">
        <ele>568.5999755859375</ele>
        <time>2022-06-04T11:09:43.000Z</time>
      </trkpt>
      <trkpt lat="43.42696865089237689971923828125" lon="-5.57632796466350555419921875">
        <ele>568.79998779296875</ele>
        <time>2022-06-04T11:09:45.000Z</time>
      </trkpt>
      <trkpt lat="43.4269848279654979705810546875" lon="-5.57629049755632877349853515625">
        <ele>569</ele>
        <time>2022-06-04T11:09:46.000Z</time>
      </trkpt>
      <trkpt lat="43.42699429951608180999755859375" lon="-5.5762741528451442718505859375">
        <ele>569.20001220703125</ele>
        <time>2022-06-04T11:09:47.000Z</time>
      </trkpt>
      <trkpt lat="43.42701558955013751983642578125" lon="-5.57624020613729953765869140625">
        <ele>569.4000244140625</ele>
        <time>2022-06-04T11:09:49.000Z</time>
      </trkpt>
      <trkpt lat="43.427031934261322021484375" lon="-5.5762039124965667724609375">
        <ele>569.79998779296875</ele>
        <time>2022-06-04T11:09:51.000Z</time>
      </trkpt>
      <trkpt lat="43.42703788541257381439208984375" lon="-5.57618555612862110137939453125">
        <ele>570</ele>
        <time>2022-06-04T11:09:52.000Z</time>
      </trkpt>
      <trkpt lat="43.42704609967768192291259765625" lon="-5.57616778649389743804931640625">
        <ele>570.20001220703125</ele>
        <time>2022-06-04T11:09:53.000Z</time>
      </trkpt>
      <trkpt lat="43.4270555712282657623291015625" lon="-5.57615152560174465179443359375">
        <ele>570.4000244140625</ele>
        <time>2022-06-04T11:09:54.000Z</time>
      </trkpt>
      <trkpt lat="43.4270555712282657623291015625" lon="-5.57615152560174465179443359375">
        <ele>570.5999755859375</ele>
        <time>2022-06-04T11:09:55.000Z</time>
      </trkpt>
      <trkpt lat="43.4270807169377803802490234375" lon="-5.57610240764915943145751953125">
        <ele>571</ele>
        <time>2022-06-04T11:09:57.000Z</time>
      </trkpt>
      <trkpt lat="43.42709563672542572021484375" lon="-5.5760696344077587127685546875">
        <ele>571.4000244140625</ele>
        <time>2022-06-04T11:09:59.000Z</time>
      </trkpt>
      <trkpt lat="43.4271038509905338287353515625" lon="-5.57605303823947906494140625">
        <ele>571.5999755859375</ele>
        <time>2022-06-04T11:10:01.000Z</time>
      </trkpt>
      <trkpt lat="43.42712874524295330047607421875" lon="-5.57600534521043300628662109375">
        <ele>571.79998779296875</ele>
        <time>2022-06-04T11:10:03.000Z</time>
      </trkpt>
      <trkpt lat="43.42713729478418827056884765625" lon="-5.5759928561747074127197265625">
        <ele>572</ele>
        <time>2022-06-04T11:10:04.000Z</time>
      </trkpt>
      <trkpt lat="43.4271460957825183868408203125" lon="-5.57597936131060123443603515625">
        <ele>572.20001220703125</ele>
        <time>2022-06-04T11:10:05.000Z</time>
      </trkpt>
      <trkpt lat="43.42716847546398639678955078125" lon="-5.575950443744659423828125">
        <ele>572.4000244140625</ele>
        <time>2022-06-04T11:10:07.000Z</time>
      </trkpt>
      <trkpt lat="43.42719278298318386077880859375" lon="-5.57593041099607944488525390625">
        <ele>572.79998779296875</ele>
        <time>2022-06-04T11:10:09.000Z</time>
      </trkpt>
      <trkpt lat="43.4272049367427825927734375" lon="-5.57592035271227359771728515625">
        <ele>573</ele>
        <time>2022-06-04T11:10:10.000Z</time>
      </trkpt>
      <trkpt lat="43.4272165037691593170166015625" lon="-5.57591096498072147369384765625">
        <ele>573.20001220703125</ele>
        <time>2022-06-04T11:10:11.000Z</time>
      </trkpt>
      <trkpt lat="43.42724089510738849639892578125" lon="-5.5758966319262981414794921875">
        <ele>573.5999755859375</ele>
        <time>2022-06-04T11:10:13.000Z</time>
      </trkpt>
      <trkpt lat="43.4272711537778377532958984375" lon="-5.5759035050868988037109375">
        <ele>574</ele>
        <time>2022-06-04T11:10:15.000Z</time>
      </trkpt>
      <trkpt lat="43.42728531919419765472412109375" lon="-5.5759113840758800506591796875">
        <ele>574.20001220703125</ele>
        <time>2022-06-04T11:10:16.000Z</time>
      </trkpt>
      <trkpt lat="43.42729856260120868682861328125" lon="-5.57592068798840045928955078125">
        <ele>574.4000244140625</ele>
        <time>2022-06-04T11:10:17.000Z</time>
      </trkpt>
      <trkpt lat="43.42732404358685016632080078125" lon="-5.57594281621277332305908203125">
        <ele>574.5999755859375</ele>
        <time>2022-06-04T11:10:19.000Z</time>
      </trkpt>
      <trkpt lat="43.42732404358685016632080078125" lon="-5.57594281621277332305908203125">
        <ele>574.79998779296875</ele>
        <time>2022-06-04T11:10:20.000Z</time>
      </trkpt>
      <trkpt lat="43.42734466306865215301513671875" lon="-5.5759740807116031646728515625">
        <ele>574.79998779296875</ele>
        <time>2022-06-04T11:10:21.000Z</time>
      </trkpt>
      <trkpt lat="43.42736519873142242431640625" lon="-5.576008446514606475830078125">
        <ele>575.20001220703125</ele>
        <time>2022-06-04T11:10:23.000Z</time>
      </trkpt>
      <trkpt lat="43.42737852595746517181396484375" lon="-5.576051361858844757080078125">
        <ele>575.5999755859375</ele>
        <time>2022-06-04T11:10:25.000Z</time>
      </trkpt>
      <trkpt lat="43.42738741077482700347900390625" lon="-5.57609369046986103057861328125">
        <ele>575.79998779296875</ele>
        <time>2022-06-04T11:10:27.000Z</time>
      </trkpt>
      <trkpt lat="43.42739596031606197357177734375" lon="-5.57613509707152843475341796875">
        <ele>576.4000244140625</ele>
        <time>2022-06-04T11:10:29.000Z</time>
      </trkpt>
      <trkpt lat="43.42740652151405811309814453125" lon="-5.5761739052832126617431640625">
        <ele>576.79998779296875</ele>
        <time>2022-06-04T11:10:31.000Z</time>
      </trkpt>
      <trkpt lat="43.42741020955145359039306640625" lon="-5.5762195028364658355712890625">
        <ele>577</ele>
        <time>2022-06-04T11:10:33.000Z</time>
      </trkpt>
      <trkpt lat="43.4274092875421047210693359375" lon="-5.57626350782811641693115234375">
        <ele>577.4000244140625</ele>
        <time>2022-06-04T11:10:35.000Z</time>
      </trkpt>
      <trkpt lat="43.42740836553275585174560546875" lon="-5.57630575262010097503662109375">
        <ele>577.79998779296875</ele>
        <time>2022-06-04T11:10:37.000Z</time>
      </trkpt>
      <trkpt lat="43.4274146519601345062255859375" lon="-5.5763447284698486328125">
        <ele>578.4000244140625</ele>
        <time>2022-06-04T11:10:39.000Z</time>
      </trkpt>
      <trkpt lat="43.42741942964494228363037109375" lon="-5.57636409066617488861083984375">
        <ele>578.5999755859375</ele>
        <time>2022-06-04T11:10:40.000Z</time>
      </trkpt>
      <trkpt lat="43.42742144130170345306396484375" lon="-5.5763863027095794677734375">
        <ele>578.79998779296875</ele>
        <time>2022-06-04T11:10:41.000Z</time>
      </trkpt>
      <trkpt lat="43.42742864973843097686767578125" lon="-5.57642460800707340240478515625">
        <ele>579</ele>
        <time>2022-06-04T11:10:43.000Z</time>
      </trkpt>
      <trkpt lat="43.42743669636547565460205078125" lon="-5.57646215893328189849853515625">
        <ele>579.4000244140625</ele>
        <time>2022-06-04T11:10:45.000Z</time>
      </trkpt>
      <trkpt lat="43.42744792811572551727294921875" lon="-5.57649903930723667144775390625">
        <ele>579.4000244140625</ele>
        <time>2022-06-04T11:10:47.000Z</time>
      </trkpt>
      <trkpt lat="43.427450694143772125244140625" lon="-5.57654120028018951416015625">
        <ele>579.5999755859375</ele>
        <time>2022-06-04T11:10:49.000Z</time>
      </trkpt>
      <trkpt lat="43.427450694143772125244140625" lon="-5.57654120028018951416015625">
        <ele>579.79998779296875</ele>
        <time>2022-06-04T11:10:50.000Z</time>
      </trkpt>
      <trkpt lat="43.42745413072407245635986328125" lon="-5.57658202014863491058349609375">
        <ele>580</ele>
        <time>2022-06-04T11:10:51.000Z</time>
      </trkpt>
      <trkpt lat="43.42745815403759479522705078125" lon="-5.57662158273160457611083984375">
        <ele>580.20001220703125</ele>
        <time>2022-06-04T11:10:53.000Z</time>
      </trkpt>
      <trkpt lat="43.4274565614759922027587890625" lon="-5.57666013948619365692138671875">
        <ele>580.5999755859375</ele>
        <time>2022-06-04T11:10:55.000Z</time>
      </trkpt>
      <trkpt lat="43.42745848931372165679931640625" lon="-5.57670079171657562255859375">
        <ele>580.79998779296875</ele>
        <time>2022-06-04T11:10:57.000Z</time>
      </trkpt>
      <trkpt lat="43.42747458256781101226806640625" lon="-5.57672702707350254058837890625">
        <ele>581.20001220703125</ele>
        <time>2022-06-04T11:10:59.000Z</time>
      </trkpt>
      <trkpt lat="43.42749000526964664459228515625" lon="-5.57675736956298351287841796875">
        <ele>581.4000244140625</ele>
        <time>2022-06-04T11:11:01.000Z</time>
      </trkpt>
      <trkpt lat="43.42749000526964664459228515625" lon="-5.57675736956298351287841796875">
        <ele>581.5999755859375</ele>
        <time>2022-06-04T11:11:02.000Z</time>
      </trkpt>
      <trkpt lat="43.42750693671405315399169921875" lon="-5.57678796350955963134765625">
        <ele>581.5999755859375</ele>
        <time>2022-06-04T11:11:03.000Z</time>
      </trkpt>
      <trkpt lat="43.4275125525891780853271484375" lon="-5.576805733144283294677734375">
        <ele>581.79998779296875</ele>
        <time>2022-06-04T11:11:04.000Z</time>
      </trkpt>
      <trkpt lat="43.42751649208366870880126953125" lon="-5.57682492770254611968994140625">
        <ele>582.20001220703125</ele>
        <time>2022-06-04T11:11:05.000Z</time>
      </trkpt>
      <trkpt lat="43.427524454891681671142578125" lon="-5.5768625624477863311767578125">
        <ele>582.5999755859375</ele>
        <time>2022-06-04T11:11:07.000Z</time>
      </trkpt>
      <trkpt lat="43.427524454891681671142578125" lon="-5.5768625624477863311767578125">
        <ele>582.79998779296875</ele>
        <time>2022-06-04T11:11:08.000Z</time>
      </trkpt>
      <trkpt lat="43.42752747237682342529296875" lon="-5.57689902372658252716064453125">
        <ele>583</ele>
        <time>2022-06-04T11:11:09.000Z</time>
      </trkpt>
      <trkpt lat="43.42752805911004543304443359375" lon="-5.57694084942340850830078125">
        <ele>583.20001220703125</ele>
        <time>2022-06-04T11:11:11.000Z</time>
      </trkpt>
      <trkpt lat="43.427535183727741241455078125" lon="-5.57697747834026813507080078125">
        <ele>583.4000244140625</ele>
        <time>2022-06-04T11:11:13.000Z</time>
      </trkpt>
      <trkpt lat="43.427535183727741241455078125" lon="-5.57697747834026813507080078125">
        <ele>583.5999755859375</ele>
        <time>2022-06-04T11:11:14.000Z</time>
      </trkpt>
      <trkpt lat="43.427558653056621551513671875" lon="-5.5769996903836727142333984375">
        <ele>583.79998779296875</ele>
        <time>2022-06-04T11:11:15.000Z</time>
      </trkpt>
      <trkpt lat="43.42756996862590312957763671875" lon="-5.57701184414327144622802734375">
        <ele>584</ele>
        <time>2022-06-04T11:11:16.000Z</time>
      </trkpt>
      <trkpt lat="43.4275806136429309844970703125" lon="-5.57702659629285335540771484375">
        <ele>584.20001220703125</ele>
        <time>2022-06-04T11:11:17.000Z</time>
      </trkpt>
      <trkpt lat="43.42759964056313037872314453125" lon="-5.577060878276824951171875">
        <ele>584.5999755859375</ele>
        <time>2022-06-04T11:11:19.000Z</time>
      </trkpt>
      <trkpt lat="43.4276171587407588958740234375" lon="-5.57709365151822566986083984375">
        <ele>585</ele>
        <time>2022-06-04T11:11:21.000Z</time>
      </trkpt>
      <trkpt lat="43.42762713320553302764892578125" lon="-5.57710756547749042510986328125">
        <ele>585.20001220703125</ele>
        <time>2022-06-04T11:11:22.000Z</time>
      </trkpt>
      <trkpt lat="43.4276372753083705902099609375" lon="-5.57712114416062831878662109375">
        <ele>585.4000244140625</ele>
        <time>2022-06-04T11:11:23.000Z</time>
      </trkpt>
      <trkpt lat="43.42765915207564830780029296875" lon="-5.577147044241428375244140625">
        <ele>585.79998779296875</ele>
        <time>2022-06-04T11:11:25.000Z</time>
      </trkpt>
      <trkpt lat="43.42768630944192409515380859375" lon="-5.57716456241905689239501953125">
        <ele>586</ele>
        <time>2022-06-04T11:11:27.000Z</time>
      </trkpt>
      <trkpt lat="43.42770139686763286590576171875" lon="-5.5771690048277378082275390625">
        <ele>586.20001220703125</ele>
        <time>2022-06-04T11:11:28.000Z</time>
      </trkpt>
      <trkpt lat="43.42771614901721477508544921875" lon="-5.5771706812083721160888671875">
        <ele>586.4000244140625</ele>
        <time>2022-06-04T11:11:29.000Z</time>
      </trkpt>
      <trkpt lat="43.42774297110736370086669921875" lon="-5.577184595167636871337890625">
        <ele>586.79998779296875</ele>
        <time>2022-06-04T11:11:31.000Z</time>
      </trkpt>
      <trkpt lat="43.4277562983334064483642578125" lon="-5.57719431817531585693359375">
        <ele>587.5999755859375</ele>
        <time>2022-06-04T11:11:33.000Z</time>
      </trkpt>
      <trkpt lat="43.42779359780251979827880859375" lon="-5.57722843252122402191162109375">
        <ele>588</ele>
        <time>2022-06-04T11:11:35.000Z</time>
      </trkpt>
      <trkpt lat="43.42782058753073215484619140625" lon="-5.57724385522305965423583984375">
        <ele>588.5999755859375</ele>
        <time>2022-06-04T11:11:37.000Z</time>
      </trkpt>
      <trkpt lat="43.42784590087831020355224609375" lon="-5.57724662125110626220703125">
        <ele>589.4000244140625</ele>
        <time>2022-06-04T11:11:39.000Z</time>
      </trkpt>
      <trkpt lat="43.427875153720378875732421875" lon="-5.57724519632756710052490234375">
        <ele>589.79998779296875</ele>
        <time>2022-06-04T11:11:41.000Z</time>
      </trkpt>
      <trkpt lat="43.4278889000415802001953125" lon="-5.57724125683307647705078125">
        <ele>590.20001220703125</ele>
        <time>2022-06-04T11:11:42.000Z</time>
      </trkpt>
      <trkpt lat="43.42789652757346630096435546875" lon="-5.5772427655756473541259765625">
        <ele>590.4000244140625</ele>
        <time>2022-06-04T11:11:43.000Z</time>
      </trkpt>
      <trkpt lat="43.42789652757346630096435546875" lon="-5.5772427655756473541259765625">
        <ele>590.5999755859375</ele>
        <time>2022-06-04T11:11:44.000Z</time>
      </trkpt>
      <trkpt lat="43.427923433482646942138671875" lon="-5.57724989019334316253662109375">
        <ele>590.5999755859375</ele>
        <time>2022-06-04T11:11:45.000Z</time>
      </trkpt>
      <trkpt lat="43.42795168049633502960205078125" lon="-5.57725860737264156341552734375">
        <ele>591</ele>
        <time>2022-06-04T11:11:47.000Z</time>
      </trkpt>
      <trkpt lat="43.427966348826885223388671875" lon="-5.5772591941058635711669921875">
        <ele>591.4000244140625</ele>
        <time>2022-06-04T11:11:48.000Z</time>
      </trkpt>
      <trkpt lat="43.42798152007162570953369140625" lon="-5.57726246304810047149658203125">
        <ele>591.5999755859375</ele>
        <time>2022-06-04T11:11:49.000Z</time>
      </trkpt>
      <trkpt lat="43.42801068909466266632080078125" lon="-5.577275119721889495849609375">
        <ele>592</ele>
        <time>2022-06-04T11:11:51.000Z</time>
      </trkpt>
      <trkpt lat="43.4280444681644439697265625" lon="-5.57729087769985198974609375">
        <ele>592.4000244140625</ele>
        <time>2022-06-04T11:11:53.000Z</time>
      </trkpt>
      <trkpt lat="43.42808243818581104278564453125" lon="-5.5773068033158779144287109375">
        <ele>593</ele>
        <time>2022-06-04T11:11:55.000Z</time>
      </trkpt>
      <trkpt lat="43.428118564188480377197265625" lon="-5.5773349665105342864990234375">
        <ele>593.20001220703125</ele>
        <time>2022-06-04T11:11:57.000Z</time>
      </trkpt>
      <trkpt lat="43.4281378425657749176025390625" lon="-5.57735214941203594207763671875">
        <ele>593.4000244140625</ele>
        <time>2022-06-04T11:11:59.000Z</time>
      </trkpt>
      <trkpt lat="43.428179584443569183349609375" lon="-5.57739120908081531524658203125">
        <ele>593.5999755859375</ele>
        <time>2022-06-04T11:12:01.000Z</time>
      </trkpt>
      <trkpt lat="43.428221158683300018310546875" lon="-5.57743915356695652008056640625">
        <ele>593.79998779296875</ele>
        <time>2022-06-04T11:12:03.000Z</time>
      </trkpt>
      <trkpt lat="43.42826298438012599945068359375" lon="-5.577491708099842071533203125">
        <ele>593.79998779296875</ele>
        <time>2022-06-04T11:12:05.000Z</time>
      </trkpt>
      <trkpt lat="43.4283038042485713958740234375" lon="-5.5775431729853153228759765625">
        <ele>593.79998779296875</ele>
        <time>2022-06-04T11:12:06.000Z</time>
      </trkpt>
      <trkpt lat="43.4283038042485713958740234375" lon="-5.5775431729853153228759765625">
        <ele>594</ele>
        <time>2022-06-04T11:12:07.000Z</time>
      </trkpt>
      <trkpt lat="43.42832517810165882110595703125" lon="-5.57756387628614902496337890625">
        <ele>594</ele>
        <time>2022-06-04T11:12:08.000Z</time>
      </trkpt>
      <trkpt lat="43.4283608011901378631591796875" lon="-5.5776093900203704833984375">
        <ele>594</ele>
        <time>2022-06-04T11:12:09.000Z</time>
      </trkpt>
      <trkpt lat="43.4283839352428913116455078125" lon="-5.57763428427278995513916015625">
        <ele>594</ele>
        <time>2022-06-04T11:12:11.000Z</time>
      </trkpt>
      <trkpt lat="43.42844151891767978668212890625" lon="-5.57769245468080043792724609375">
        <ele>594</ele>
        <time>2022-06-04T11:12:12.000Z</time>
      </trkpt>
      <trkpt lat="43.42844151891767978668212890625" lon="-5.57769245468080043792724609375">
        <ele>594</ele>
        <time>2022-06-04T11:12:13.000Z</time>
      </trkpt>
      <trkpt lat="43.42850404791533946990966796875" lon="-5.5777483619749546051025390625">
        <ele>594.20001220703125</ele>
        <time>2022-06-04T11:12:15.000Z</time>
      </trkpt>
      <trkpt lat="43.428559787571430206298828125" lon="-5.57779689319431781768798828125">
        <ele>594.20001220703125</ele>
        <time>2022-06-04T11:12:17.000Z</time>
      </trkpt>
      <trkpt lat="43.42861334793269634246826171875" lon="-5.57783729396760463714599609375">
        <ele>594.20001220703125</ele>
        <time>2022-06-04T11:12:19.000Z</time>
      </trkpt>
      <trkpt lat="43.428678475320339202880859375" lon="-5.57787819765508174896240234375">
        <ele>594.4000244140625</ele>
        <time>2022-06-04T11:12:21.000Z</time>
      </trkpt>
      <trkpt lat="43.42875567264854907989501953125" lon="-5.5779257230460643768310546875">
        <ele>594.5999755859375</ele>
        <time>2022-06-04T11:12:23.000Z</time>
      </trkpt>
      <trkpt lat="43.42879858799278736114501953125" lon="-5.5779512040317058563232421875">
        <ele>594.79998779296875</ele>
        <time>2022-06-04T11:12:24.000Z</time>
      </trkpt>
      <trkpt lat="43.42884569428861141204833984375" lon="-5.57797618210315704345703125">
        <ele>594.79998779296875</ele>
        <time>2022-06-04T11:12:25.000Z</time>
      </trkpt>
      <trkpt lat="43.42894644476473331451416015625" lon="-5.57802907191216945648193359375">
        <ele>594.79998779296875</ele>
        <time>2022-06-04T11:12:27.000Z</time>
      </trkpt>
      <trkpt lat="43.4290554933249950408935546875" lon="-5.578090511262416839599609375">
        <ele>594.79998779296875</ele>
        <time>2022-06-04T11:12:29.000Z</time>
      </trkpt>
      <trkpt lat="43.42911492101848125457763671875" lon="-5.57812009938061237335205078125">
        <ele>594.79998779296875</ele>
        <time>2022-06-04T11:12:30.000Z</time>
      </trkpt>
      <trkpt lat="43.42917837202548980712890625" lon="-5.5781463347375392913818359375">
        <ele>594.79998779296875</ele>
        <time>2022-06-04T11:12:31.000Z</time>
      </trkpt>
      <trkpt lat="43.4293146617710590362548828125" lon="-5.57818799279630184173583984375">
        <ele>594.79998779296875</ele>
        <time>2022-06-04T11:12:33.000Z</time>
      </trkpt>
      <trkpt lat="43.42945405282080173492431640625" lon="-5.5782190896570682525634765625">
        <ele>594.4000244140625</ele>
        <time>2022-06-04T11:12:35.000Z</time>
      </trkpt>
      <trkpt lat="43.42959101311862468719482421875" lon="-5.57823929004371166229248046875">
        <ele>594</ele>
        <time>2022-06-04T11:12:37.000Z</time>
      </trkpt>
      <trkpt lat="43.42972009442746639251708984375" lon="-5.57825135998427867889404296875">
        <ele>593.20001220703125</ele>
        <time>2022-06-04T11:12:39.000Z</time>
      </trkpt>
      <trkpt lat="43.429783545434474945068359375" lon="-5.57825253345072269439697265625">
        <ele>593.20001220703125</ele>
        <time>2022-06-04T11:12:40.000Z</time>
      </trkpt>
      <trkpt lat="43.4298442304134368896484375" lon="-5.57825588621199131011962890625">
        <ele>593</ele>
        <time>2022-06-04T11:12:41.000Z</time>
      </trkpt>
      <trkpt lat="43.42996166087687015533447265625" lon="-5.57827080599963665008544921875">
        <ele>593</ele>
        <time>2022-06-04T11:12:42.000Z</time>
      </trkpt>
      <trkpt lat="43.42996166087687015533447265625" lon="-5.57827080599963665008544921875">
        <ele>593</ele>
        <time>2022-06-04T11:12:43.000Z</time>
      </trkpt>
      <trkpt lat="43.43001790344715118408203125" lon="-5.5782884918153285980224609375">
        <ele>593</ele>
        <time>2022-06-04T11:12:44.000Z</time>
      </trkpt>
      <trkpt lat="43.43007246963679790496826171875" lon="-5.57831640355288982391357421875">
        <ele>593</ele>
        <time>2022-06-04T11:12:45.000Z</time>
      </trkpt>
      <trkpt lat="43.43017674051225185394287109375" lon="-5.5783930979669094085693359375">
        <ele>593</ele>
        <time>2022-06-04T11:12:47.000Z</time>
      </trkpt>
      <trkpt lat="43.4302728809416294097900390625" lon="-5.5784945189952850341796875">
        <ele>593</ele>
        <time>2022-06-04T11:12:48.000Z</time>
      </trkpt>
      <trkpt lat="43.4302728809416294097900390625" lon="-5.5784945189952850341796875">
        <ele>593</ele>
        <time>2022-06-04T11:12:49.000Z</time>
      </trkpt>
      <trkpt lat="43.43036969192326068878173828125" lon="-5.5786002986133098602294921875">
        <ele>593</ele>
        <time>2022-06-04T11:12:51.000Z</time>
      </trkpt>
      <trkpt lat="43.43046046793460845947265625" lon="-5.57870842516422271728515625">
        <ele>593.20001220703125</ele>
        <time>2022-06-04T11:12:53.000Z</time>
      </trkpt>
      <trkpt lat="43.43054051510989665985107421875" lon="-5.57881227694451808929443359375">
        <ele>593.20001220703125</ele>
        <time>2022-06-04T11:12:55.000Z</time>
      </trkpt>
      <trkpt lat="43.43061243183910846710205078125" lon="-5.57890464551746845245361328125">
        <ele>593.4000244140625</ele>
        <time>2022-06-04T11:12:57.000Z</time>
      </trkpt>
      <trkpt lat="43.4306765533983707427978515625" lon="-5.57898310013115406036376953125">
        <ele>593.4000244140625</ele>
        <time>2022-06-04T11:12:59.000Z</time>
      </trkpt>
      <trkpt lat="43.43073070049285888671875" lon="-5.57905283756554126739501953125">
        <ele>593.5999755859375</ele>
        <time>2022-06-04T11:13:01.000Z</time>
      </trkpt>
      <trkpt lat="43.4307749569416046142578125" lon="-5.579115115106105804443359375">
        <ele>594</ele>
        <time>2022-06-04T11:13:03.000Z</time>
      </trkpt>
      <trkpt lat="43.43081711791455745697021484375" lon="-5.579169429838657379150390625">
        <ele>594.4000244140625</ele>
        <time>2022-06-04T11:13:04.000Z</time>
      </trkpt>
      <trkpt lat="43.43081711791455745697021484375" lon="-5.579169429838657379150390625">
        <ele>594.5999755859375</ele>
        <time>2022-06-04T11:13:05.000Z</time>
      </trkpt>
      <trkpt lat="43.4308589436113834381103515625" lon="-5.57921695522964000701904296875">
        <ele>595.20001220703125</ele>
        <time>2022-06-04T11:13:07.000Z</time>
      </trkpt>
      <trkpt lat="43.4308804012835025787353515625" lon="-5.5792396701872348785400390625">
        <ele>595.5999755859375</ele>
        <time>2022-06-04T11:13:08.000Z</time>
      </trkpt>
      <trkpt lat="43.43090076930820941925048828125" lon="-5.5792628042399883270263671875">
        <ele>595.79998779296875</ele>
        <time>2022-06-04T11:13:09.000Z</time>
      </trkpt>
      <trkpt lat="43.4309400804340839385986328125" lon="-5.57930923998355865478515625">
        <ele>596.5999755859375</ele>
        <time>2022-06-04T11:13:11.000Z</time>
      </trkpt>
      <trkpt lat="43.4309776313602924346923828125" lon="-5.579358525574207305908203125">
        <ele>596.79998779296875</ele>
        <time>2022-06-04T11:13:12.000Z</time>
      </trkpt>
      <trkpt lat="43.4309776313602924346923828125" lon="-5.579358525574207305908203125">
        <ele>597</ele>
        <time>2022-06-04T11:13:13.000Z</time>
      </trkpt>
      <trkpt lat="43.43099716119468212127685546875" lon="-5.5793801508843898773193359375">
        <ele>597.20001220703125</ele>
        <time>2022-06-04T11:13:14.000Z</time>
      </trkpt>
      <trkpt lat="43.4310175292193889617919921875" lon="-5.57940236292779445648193359375">
        <ele>597.5999755859375</ele>
        <time>2022-06-04T11:13:15.000Z</time>
      </trkpt>
      <trkpt lat="43.43105725944042205810546875" lon="-5.5794515646994113922119140625">
        <ele>597.79998779296875</ele>
        <time>2022-06-04T11:13:16.000Z</time>
      </trkpt>
      <trkpt lat="43.43105725944042205810546875" lon="-5.5794515646994113922119140625">
        <ele>598</ele>
        <time>2022-06-04T11:13:17.000Z</time>
      </trkpt>
      <trkpt lat="43.4310933016240596771240234375" lon="-5.5795018561184406280517578125">
        <ele>598.5999755859375</ele>
        <time>2022-06-04T11:13:19.000Z</time>
      </trkpt>
      <trkpt lat="43.43111165799200534820556640625" lon="-5.5795259959995746612548828125">
        <ele>598.79998779296875</ele>
        <time>2022-06-04T11:13:20.000Z</time>
      </trkpt>
      <trkpt lat="43.431130014359951019287109375" lon="-5.5795486271381378173828125">
        <ele>599.20001220703125</ele>
        <time>2022-06-04T11:13:21.000Z</time>
      </trkpt>
      <trkpt lat="43.43116194941103458404541015625" lon="-5.57959917001426219940185546875">
        <ele>600</ele>
        <time>2022-06-04T11:13:22.000Z</time>
      </trkpt>
      <trkpt lat="43.43116194941103458404541015625" lon="-5.57959917001426219940185546875">
        <ele>600.4000244140625</ele>
        <time>2022-06-04T11:13:23.000Z</time>
      </trkpt>
      <trkpt lat="43.43119028024375438690185546875" lon="-5.57964761741459369659423828125">
        <ele>601.20001220703125</ele>
        <time>2022-06-04T11:13:25.000Z</time>
      </trkpt>
      <trkpt lat="43.431207798421382904052734375" lon="-5.5796882696449756622314453125">
        <ele>601.79998779296875</ele>
        <time>2022-06-04T11:13:27.000Z</time>
      </trkpt>
      <trkpt lat="43.4312197007238864898681640625" lon="-5.57972976006567478179931640625">
        <ele>602.5999755859375</ele>
        <time>2022-06-04T11:13:29.000Z</time>
      </trkpt>
      <trkpt lat="43.4312414936721324920654296875" lon="-5.57976680807769298553466796875">
        <ele>603.20001220703125</ele>
        <time>2022-06-04T11:13:31.000Z</time>
      </trkpt>
      <trkpt lat="43.43126454390585422515869140625" lon="-5.5798005871474742889404296875">
        <ele>603.5999755859375</ele>
        <time>2022-06-04T11:13:33.000Z</time>
      </trkpt>
      <trkpt lat="43.43128197826445102691650390625" lon="-5.5798408202826976776123046875">
        <ele>604</ele>
        <time>2022-06-04T11:13:35.000Z</time>
      </trkpt>
      <trkpt lat="43.43129932880401611328125" lon="-5.5798777006566524505615234375">
        <ele>604.4000244140625</ele>
        <time>2022-06-04T11:13:37.000Z</time>
      </trkpt>
      <trkpt lat="43.43131835572421550750732421875" lon="-5.57991483248770236968994140625">
        <ele>604.79998779296875</ele>
        <time>2022-06-04T11:13:39.000Z</time>
      </trkpt>
      <trkpt lat="43.4313333593308925628662109375" lon="-5.579955317080020904541015625">
        <ele>605.20001220703125</ele>
        <time>2022-06-04T11:13:41.000Z</time>
      </trkpt>
      <trkpt lat="43.4313410706818103790283203125" lon="-5.57997602038085460662841796875">
        <ele>605.5999755859375</ele>
        <time>2022-06-04T11:13:42.000Z</time>
      </trkpt>
      <trkpt lat="43.43134953640401363372802734375" lon="-5.5799940414726734161376953125">
        <ele>605.79998779296875</ele>
        <time>2022-06-04T11:13:43.000Z</time>
      </trkpt>
      <trkpt lat="43.43135900795459747314453125" lon="-5.5800111405551433563232421875">
        <ele>606</ele>
        <time>2022-06-04T11:13:44.000Z</time>
      </trkpt>
      <trkpt lat="43.43136864714324474334716796875" lon="-5.58002832345664501190185546875">
        <ele>606.20001220703125</ele>
        <time>2022-06-04T11:13:45.000Z</time>
      </trkpt>
      <trkpt lat="43.4313893504440784454345703125" lon="-5.58006118051707744598388671875">
        <ele>607.20001220703125</ele>
        <time>2022-06-04T11:13:47.000Z</time>
      </trkpt>
      <trkpt lat="43.43140921555459499359130859375" lon="-5.58009646832942962646484375">
        <ele>608</ele>
        <time>2022-06-04T11:13:49.000Z</time>
      </trkpt>
      <trkpt lat="43.43141826801002025604248046875" lon="-5.58011583052575588226318359375">
        <ele>608.4000244140625</ele>
        <time>2022-06-04T11:13:50.000Z</time>
      </trkpt>
      <trkpt lat="43.4314272366464138031005859375" lon="-5.58013460598886013031005859375">
        <ele>608.5999755859375</ele>
        <time>2022-06-04T11:13:51.000Z</time>
      </trkpt>
      <trkpt lat="43.43144743703305721282958984375" lon="-5.58017232455313205718994140625">
        <ele>608.79998779296875</ele>
        <time>2022-06-04T11:13:53.000Z</time>
      </trkpt>
      <trkpt lat="43.43146763741970062255859375" lon="-5.5802084505558013916015625">
        <ele>609.20001220703125</ele>
        <time>2022-06-04T11:13:55.000Z</time>
      </trkpt>
      <trkpt lat="43.43148062936961650848388671875" lon="-5.580247342586517333984375">
        <ele>609.4000244140625</ele>
        <time>2022-06-04T11:13:57.000Z</time>
      </trkpt>
      <trkpt lat="43.43148465268313884735107421875" lon="-5.58026720769703388214111328125">
        <ele>609.5999755859375</ele>
        <time>2022-06-04T11:13:58.000Z</time>
      </trkpt>
      <trkpt lat="43.43148817308247089385986328125" lon="-5.580288581550121307373046875">
        <ele>609.79998779296875</ele>
        <time>2022-06-04T11:13:59.000Z</time>
      </trkpt>
      <trkpt lat="43.43150041066110134124755859375" lon="-5.58032873086631298065185546875">
        <ele>610.20001220703125</ele>
        <time>2022-06-04T11:14:01.000Z</time>
      </trkpt>
      <trkpt lat="43.43151767738163471221923828125" lon="-5.58036678470671176910400390625">
        <ele>610.5999755859375</ele>
        <time>2022-06-04T11:14:03.000Z</time>
      </trkpt>
      <trkpt lat="43.43153963796794414520263671875" lon="-5.58039813302457332611083984375">
        <ele>611</ele>
        <time>2022-06-04T11:14:05.000Z</time>
      </trkpt>
      <trkpt lat="43.43155975453555583953857421875" lon="-5.58043031953275203704833984375">
        <ele>611.5999755859375</ele>
        <time>2022-06-04T11:14:07.000Z</time>
      </trkpt>
      <trkpt lat="43.43156822025775909423828125" lon="-5.58044892735779285430908203125">
        <ele>611.79998779296875</ele>
        <time>2022-06-04T11:14:08.000Z</time>
      </trkpt>
      <trkpt lat="43.43157433904707431793212890625" lon="-5.5804686248302459716796875">
        <ele>612</ele>
        <time>2022-06-04T11:14:09.000Z</time>
      </trkpt>
      <trkpt lat="43.43158087693154811859130859375" lon="-5.5805110372602939605712890625">
        <ele>612.4000244140625</ele>
        <time>2022-06-04T11:14:11.000Z</time>
      </trkpt>
      <trkpt lat="43.4315888397395610809326171875" lon="-5.580553449690341949462890625">
        <ele>612.79998779296875</ele>
        <time>2022-06-04T11:14:13.000Z</time>
      </trkpt>
      <trkpt lat="43.43159638345241546630859375" lon="-5.58057365007698535919189453125">
        <ele>613</ele>
        <time>2022-06-04T11:14:14.000Z</time>
      </trkpt>
      <trkpt lat="43.43160887248814105987548828125" lon="-5.58058991096913814544677734375">
        <ele>613.20001220703125</ele>
        <time>2022-06-04T11:14:15.000Z</time>
      </trkpt>
      <trkpt lat="43.4316361136734485626220703125" lon="-5.58061488904058933258056640625">
        <ele>613.79998779296875</ele>
        <time>2022-06-04T11:14:17.000Z</time>
      </trkpt>
      <trkpt lat="43.43164709396660327911376953125" lon="-5.58063156902790069580078125">
        <ele>614</ele>
        <time>2022-06-04T11:14:18.000Z</time>
      </trkpt>
      <trkpt lat="43.43165547586977481842041015625" lon="-5.58065034449100494384765625">
        <ele>614.20001220703125</ele>
        <time>2022-06-04T11:14:19.000Z</time>
      </trkpt>
      <trkpt lat="43.43167324550449848175048828125" lon="-5.58068781159818172454833984375">
        <ele>614.5999755859375</ele>
        <time>2022-06-04T11:14:21.000Z</time>
      </trkpt>
      <trkpt lat="43.4316897578537464141845703125" lon="-5.58072821237146854400634765625">
        <ele>615.20001220703125</ele>
        <time>2022-06-04T11:14:23.000Z</time>
      </trkpt>
      <trkpt lat="43.4317068569362163543701171875" lon="-5.580767691135406494140625">
        <ele>615.5999755859375</ele>
        <time>2022-06-04T11:14:25.000Z</time>
      </trkpt>
      <trkpt lat="43.43171280808746814727783203125" lon="-5.5807889811694622039794921875">
        <ele>615.79998779296875</ele>
        <time>2022-06-04T11:14:26.000Z</time>
      </trkpt>
      <trkpt lat="43.43171976506710052490234375" lon="-5.5808087624609470367431640625">
        <ele>615.79998779296875</ele>
        <time>2022-06-04T11:14:27.000Z</time>
      </trkpt>
      <trkpt lat="43.4317338466644287109375" lon="-5.58084882795810699462890625">
        <ele>616.20001220703125</ele>
        <time>2022-06-04T11:14:29.000Z</time>
      </trkpt>
      <trkpt lat="43.43174650333821773529052734375" lon="-5.58089249767363071441650390625">
        <ele>616.5999755859375</ele>
        <time>2022-06-04T11:14:31.000Z</time>
      </trkpt>
      <trkpt lat="43.4317605011165142059326171875" lon="-5.58093725703656673431396484375">
        <ele>617</ele>
        <time>2022-06-04T11:14:33.000Z</time>
      </trkpt>
      <trkpt lat="43.4317739121615886688232421875" lon="-5.58098134584724903106689453125">
        <ele>617.20001220703125</ele>
        <time>2022-06-04T11:14:35.000Z</time>
      </trkpt>
      <trkpt lat="43.43178950250148773193359375" lon="-5.58102317154407501220703125">
        <ele>617.20001220703125</ele>
        <time>2022-06-04T11:14:36.000Z</time>
      </trkpt>
      <trkpt lat="43.43178950250148773193359375" lon="-5.58102317154407501220703125">
        <ele>617.4000244140625</ele>
        <time>2022-06-04T11:14:37.000Z</time>
      </trkpt>
      <trkpt lat="43.43179696239531040191650390625" lon="-5.58107187040150165557861328125">
        <ele>617.5999755859375</ele>
        <time>2022-06-04T11:14:39.000Z</time>
      </trkpt>
      <trkpt lat="43.43180031515657901763916015625" lon="-5.58111947961151599884033203125">
        <ele>618</ele>
        <time>2022-06-04T11:14:41.000Z</time>
      </trkpt>
      <trkpt lat="43.4318129718303680419921875" lon="-5.58116507716476917266845703125">
        <ele>618.20001220703125</ele>
        <time>2022-06-04T11:14:43.000Z</time>
      </trkpt>
      <trkpt lat="43.43183535151183605194091796875" lon="-5.581204891204833984375">
        <ele>618.5999755859375</ele>
        <time>2022-06-04T11:14:45.000Z</time>
      </trkpt>
      <trkpt lat="43.431859575212001800537109375" lon="-5.581245459616184234619140625">
        <ele>619</ele>
        <time>2022-06-04T11:14:47.000Z</time>
      </trkpt>
      <trkpt lat="43.43187474645674228668212890625" lon="-5.58129533194005489349365234375">
        <ele>619.20001220703125</ele>
        <time>2022-06-04T11:14:49.000Z</time>
      </trkpt>
      <trkpt lat="43.431881032884120941162109375" lon="-5.5813215672969818115234375">
        <ele>619.4000244140625</ele>
        <time>2022-06-04T11:14:50.000Z</time>
      </trkpt>
      <trkpt lat="43.43188597820699214935302734375" lon="-5.58135065250098705291748046875">
        <ele>619.5999755859375</ele>
        <time>2022-06-04T11:14:51.000Z</time>
      </trkpt>
      <trkpt lat="43.4318969585001468658447265625" lon="-5.581409744918346405029296875">
        <ele>619.79998779296875</ele>
        <time>2022-06-04T11:14:53.000Z</time>
      </trkpt>
      <trkpt lat="43.4319231100380420684814453125" lon="-5.581463389098644256591796875">
        <ele>620</ele>
        <time>2022-06-04T11:14:55.000Z</time>
      </trkpt>
      <trkpt lat="43.43194666318595409393310546875" lon="-5.58152298443019390106201171875">
        <ele>620.20001220703125</ele>
        <time>2022-06-04T11:14:57.000Z</time>
      </trkpt>
      <trkpt lat="43.43196661211550235748291015625" lon="-5.58158869855105876922607421875">
        <ele>620.4000244140625</ele>
        <time>2022-06-04T11:14:59.000Z</time>
      </trkpt>
      <trkpt lat="43.4319891594350337982177734375" lon="-5.5816556699573993682861328125">
        <ele>620.4000244140625</ele>
        <time>2022-06-04T11:15:00.000Z</time>
      </trkpt>
      <trkpt lat="43.4319891594350337982177734375" lon="-5.5816556699573993682861328125">
        <ele>620.5999755859375</ele>
        <time>2022-06-04T11:15:01.000Z</time>
      </trkpt>
      <trkpt lat="43.43201891519129276275634765625" lon="-5.58172280900180339813232421875">
        <ele>620.5999755859375</ele>
        <time>2022-06-04T11:15:03.000Z</time>
      </trkpt>
      <trkpt lat="43.432047329843044281005859375" lon="-5.581798665225505828857421875">
        <ele>620.5999755859375</ele>
        <time>2022-06-04T11:15:04.000Z</time>
      </trkpt>
      <trkpt lat="43.432047329843044281005859375" lon="-5.581798665225505828857421875">
        <ele>620.5999755859375</ele>
        <time>2022-06-04T11:15:05.000Z</time>
      </trkpt>
      <trkpt lat="43.43208379112184047698974609375" lon="-5.58187544345855712890625">
        <ele>620.5999755859375</ele>
        <time>2022-06-04T11:15:07.000Z</time>
      </trkpt>
      <trkpt lat="43.43212704174220561981201171875" lon="-5.58195180259644985198974609375">
        <ele>620.5999755859375</ele>
        <time>2022-06-04T11:15:09.000Z</time>
      </trkpt>
      <trkpt lat="43.43216903507709503173828125" lon="-5.5820355378091335296630859375">
        <ele>620.5999755859375</ele>
        <time>2022-06-04T11:15:11.000Z</time>
      </trkpt>
      <trkpt lat="43.43221186660230159759521484375" lon="-5.58212547563016414642333984375">
        <ele>620.5999755859375</ele>
        <time>2022-06-04T11:15:12.000Z</time>
      </trkpt>
      <trkpt lat="43.43221186660230159759521484375" lon="-5.58212547563016414642333984375">
        <ele>620.5999755859375</ele>
        <time>2022-06-04T11:15:13.000Z</time>
      </trkpt>
      <trkpt lat="43.43225679360330104827880859375" lon="-5.5822335183620452880859375">
        <ele>620.4000244140625</ele>
        <time>2022-06-04T11:15:15.000Z</time>
      </trkpt>
      <trkpt lat="43.43230322934687137603759765625" lon="-5.58236318640410900115966796875">
        <ele>620.20001220703125</ele>
        <time>2022-06-04T11:15:17.000Z</time>
      </trkpt>
      <trkpt lat="43.432346396148204803466796875" lon="-5.58250852860510349273681640625">
        <ele>620.20001220703125</ele>
        <time>2022-06-04T11:15:18.000Z</time>
      </trkpt>
      <trkpt lat="43.432346396148204803466796875" lon="-5.58250852860510349273681640625">
        <ele>620</ele>
        <time>2022-06-04T11:15:19.000Z</time>
      </trkpt>
      <trkpt lat="43.43238855712115764617919921875" lon="-5.58266292326152324676513671875">
        <ele>620</ele>
        <time>2022-06-04T11:15:21.000Z</time>
      </trkpt>
      <trkpt lat="43.4324246831238269805908203125" lon="-5.58282385580241680145263671875">
        <ele>620</ele>
        <time>2022-06-04T11:15:22.000Z</time>
      </trkpt>
      <trkpt lat="43.4324246831238269805908203125" lon="-5.58282385580241680145263671875">
        <ele>619.79998779296875</ele>
        <time>2022-06-04T11:15:23.000Z</time>
      </trkpt>
      <trkpt lat="43.43245326541364192962646484375" lon="-5.58299048803746700286865234375">
        <ele>619.79998779296875</ele>
        <time>2022-06-04T11:15:25.000Z</time>
      </trkpt>
      <trkpt lat="43.43247774057090282440185546875" lon="-5.583157874643802642822265625">
        <ele>619.79998779296875</ele>
        <time>2022-06-04T11:15:27.000Z</time>
      </trkpt>
      <trkpt lat="43.43249819241464138031005859375" lon="-5.58331780135631561279296875">
        <ele>619.79998779296875</ele>
        <time>2022-06-04T11:15:29.000Z</time>
      </trkpt>
      <trkpt lat="43.4325135312974452972412109375" lon="-5.58347211219370365142822265625">
        <ele>619.79998779296875</ele>
        <time>2022-06-04T11:15:31.000Z</time>
      </trkpt>
      <trkpt lat="43.4325229190289974212646484375" lon="-5.58361678384244441986083984375">
        <ele>619.79998779296875</ele>
        <time>2022-06-04T11:15:33.000Z</time>
      </trkpt>
      <trkpt lat="43.43252618797123432159423828125" lon="-5.58374200947582721710205078125">
        <ele>620</ele>
        <time>2022-06-04T11:15:35.000Z</time>
      </trkpt>
      <trkpt lat="43.43252719379961490631103515625" lon="-5.58384753763675689697265625">
        <ele>620</ele>
        <time>2022-06-04T11:15:37.000Z</time>
      </trkpt>
      <trkpt lat="43.43252736143767833709716796875" lon="-5.58389657177031040191650390625">
        <ele>620.20001220703125</ele>
        <time>2022-06-04T11:15:38.000Z</time>
      </trkpt>
      <trkpt lat="43.43252954073250293731689453125" lon="-5.58394275605678558349609375">
        <ele>620.20001220703125</ele>
        <time>2022-06-04T11:15:39.000Z</time>
      </trkpt>
      <trkpt lat="43.4325356595218181610107421875" lon="-5.58403286151587963104248046875">
        <ele>620.5999755859375</ele>
        <time>2022-06-04T11:15:41.000Z</time>
      </trkpt>
      <trkpt lat="43.4325396828353404998779296875" lon="-5.5841209553182125091552734375">
        <ele>621.20001220703125</ele>
        <time>2022-06-04T11:15:43.000Z</time>
      </trkpt>
      <trkpt lat="43.43253976665437221527099609375" lon="-5.5841665528714656829833984375">
        <ele>621.5999755859375</ele>
        <time>2022-06-04T11:15:44.000Z</time>
      </trkpt>
      <trkpt lat="43.43253917992115020751953125" lon="-5.58421307243406772613525390625">
        <ele>621.79998779296875</ele>
        <time>2022-06-04T11:15:45.000Z</time>
      </trkpt>
      <trkpt lat="43.4325356595218181610107421875" lon="-5.58429957367479801177978515625">
        <ele>622.5999755859375</ele>
        <time>2022-06-04T11:15:47.000Z</time>
      </trkpt>
      <trkpt lat="43.43252568505704402923583984375" lon="-5.58438171632587909698486328125">
        <ele>623</ele>
        <time>2022-06-04T11:15:48.000Z</time>
      </trkpt>
      <trkpt lat="43.43252568505704402923583984375" lon="-5.58438171632587909698486328125">
        <ele>623.20001220703125</ele>
        <time>2022-06-04T11:15:49.000Z</time>
      </trkpt>
      <trkpt lat="43.4325158782303333282470703125" lon="-5.5844703130424022674560546875">
        <ele>624</ele>
        <time>2022-06-04T11:15:51.000Z</time>
      </trkpt>
      <trkpt lat="43.43251294456422328948974609375" lon="-5.58455455116927623748779296875">
        <ele>624.79998779296875</ele>
        <time>2022-06-04T11:15:53.000Z</time>
      </trkpt>
      <trkpt lat="43.43251428566873073577880859375" lon="-5.5845936946570873260498046875">
        <ele>625.20001220703125</ele>
        <time>2022-06-04T11:15:54.000Z</time>
      </trkpt>
      <trkpt lat="43.4325209073722362518310546875" lon="-5.58462982065975666046142578125">
        <ele>625.4000244140625</ele>
        <time>2022-06-04T11:15:55.000Z</time>
      </trkpt>
      <trkpt lat="43.4325398504734039306640625" lon="-5.58469134382903575897216796875">
        <ele>626</ele>
        <time>2022-06-04T11:15:57.000Z</time>
      </trkpt>
      <trkpt lat="43.43256105668842792510986328125" lon="-5.58474381454288959503173828125">
        <ele>626.20001220703125</ele>
        <time>2022-06-04T11:15:59.000Z</time>
      </trkpt>
      <trkpt lat="43.432581759989261627197265625" lon="-5.58479561470448970794677734375">
        <ele>626.5999755859375</ele>
        <time>2022-06-04T11:16:01.000Z</time>
      </trkpt>
      <trkpt lat="43.4325936622917652130126953125" lon="-5.58481983840465545654296875">
        <ele>626.79998779296875</ele>
        <time>2022-06-04T11:16:02.000Z</time>
      </trkpt>
      <trkpt lat="43.4326042234897613525390625" lon="-5.58484288863837718963623046875">
        <ele>627</ele>
        <time>2022-06-04T11:16:03.000Z</time>
      </trkpt>
      <trkpt lat="43.43262903392314910888671875" lon="-5.5848877318203449249267578125">
        <ele>627.20001220703125</ele>
        <time>2022-06-04T11:16:05.000Z</time>
      </trkpt>
      <trkpt lat="43.43264118768274784088134765625" lon="-5.58491111733019351959228515625">
        <ele>627.4000244140625</ele>
        <time>2022-06-04T11:16:06.000Z</time>
      </trkpt>
      <trkpt lat="43.43265074305236339569091796875" lon="-5.5849353410303592681884765625">
        <ele>627.79998779296875</ele>
        <time>2022-06-04T11:16:07.000Z</time>
      </trkpt>
      <trkpt lat="43.432658873498439788818359375" lon="-5.58495922945439815521240234375">
        <ele>628</ele>
        <time>2022-06-04T11:16:08.000Z</time>
      </trkpt>
      <trkpt lat="43.43266499228775501251220703125" lon="-5.584981776773929595947265625">
        <ele>628.20001220703125</ele>
        <time>2022-06-04T11:16:09.000Z</time>
      </trkpt>
      <trkpt lat="43.432676978409290313720703125" lon="-5.585021339356899261474609375">
        <ele>628.5999755859375</ele>
        <time>2022-06-04T11:16:11.000Z</time>
      </trkpt>
      <trkpt lat="43.43269550241529941558837890625" lon="-5.5850513465702533721923828125">
        <ele>629.20001220703125</ele>
        <time>2022-06-04T11:16:13.000Z</time>
      </trkpt>
      <trkpt lat="43.4327153675258159637451171875" lon="-5.5850825272500514984130859375">
        <ele>629.79998779296875</ele>
        <time>2022-06-04T11:16:15.000Z</time>
      </trkpt>
      <trkpt lat="43.43273338861763477325439453125" lon="-5.585113205015659332275390625">
        <ele>630.4000244140625</ele>
        <time>2022-06-04T11:16:17.000Z</time>
      </trkpt>
      <trkpt lat="43.432760126888751983642578125" lon="-5.5851626582443714141845703125">
        <ele>631</ele>
        <time>2022-06-04T11:16:19.000Z</time>
      </trkpt>
      <trkpt lat="43.43277798034250736236572265625" lon="-5.585190989077091217041015625">
        <ele>631.5999755859375</ele>
        <time>2022-06-04T11:16:21.000Z</time>
      </trkpt>
      <trkpt lat="43.43278837390244007110595703125" lon="-5.58522577397525310516357421875">
        <ele>632.20001220703125</ele>
        <time>2022-06-04T11:16:23.000Z</time>
      </trkpt>
      <trkpt lat="43.4327975101768970489501953125" lon="-5.5852622352540493011474609375">
        <ele>632.5999755859375</ele>
        <time>2022-06-04T11:16:25.000Z</time>
      </trkpt>
      <trkpt lat="43.4328136034309864044189453125" lon="-5.585294254124164581298828125">
        <ele>633</ele>
        <time>2022-06-04T11:16:27.000Z</time>
      </trkpt>
      <trkpt lat="43.43282458372414112091064453125" lon="-5.58530741371214389801025390625">
        <ele>633.20001220703125</ele>
        <time>2022-06-04T11:16:28.000Z</time>
      </trkpt>
      <trkpt lat="43.43283514492213726043701171875" lon="-5.58531998656690120697021484375">
        <ele>633.4000244140625</ele>
        <time>2022-06-04T11:16:29.000Z</time>
      </trkpt>
      <trkpt lat="43.4328483045101165771484375" lon="-5.58535301126539707183837890625">
        <ele>633.79998779296875</ele>
        <time>2022-06-04T11:16:31.000Z</time>
      </trkpt>
      <trkpt lat="43.4328483045101165771484375" lon="-5.58535301126539707183837890625">
        <ele>634.20001220703125</ele>
        <time>2022-06-04T11:16:32.000Z</time>
      </trkpt>
      <trkpt lat="43.43286112882196903228759765625" lon="-5.58538687415421009063720703125">
        <ele>634.4000244140625</ele>
        <time>2022-06-04T11:16:33.000Z</time>
      </trkpt>
      <trkpt lat="43.43286884017288684844970703125" lon="-5.58540313504636287689208984375">
        <ele>634.5999755859375</ele>
        <time>2022-06-04T11:16:34.000Z</time>
      </trkpt>
      <trkpt lat="43.432875461876392364501953125" lon="-5.585418641567230224609375">
        <ele>634.79998779296875</ele>
        <time>2022-06-04T11:16:35.000Z</time>
      </trkpt>
      <trkpt lat="43.432888202369213104248046875" lon="-5.5854530073702335357666015625">
        <ele>635.20001220703125</ele>
        <time>2022-06-04T11:16:37.000Z</time>
      </trkpt>
      <trkpt lat="43.432888202369213104248046875" lon="-5.5854530073702335357666015625">
        <ele>635.5999755859375</ele>
        <time>2022-06-04T11:16:38.000Z</time>
      </trkpt>
      <trkpt lat="43.43289851211011409759521484375" lon="-5.58548712171614170074462890625">
        <ele>635.5999755859375</ele>
        <time>2022-06-04T11:16:39.000Z</time>
      </trkpt>
      <trkpt lat="43.43290421180427074432373046875" lon="-5.58552282862365245819091796875">
        <ele>636.20001220703125</ele>
        <time>2022-06-04T11:16:41.000Z</time>
      </trkpt>
      <trkpt lat="43.43291058205068111419677734375" lon="-5.58555669151246547698974609375">
        <ele>636.5999755859375</ele>
        <time>2022-06-04T11:16:43.000Z</time>
      </trkpt>
      <trkpt lat="43.432919047772884368896484375" lon="-5.5855889618396759033203125">
        <ele>637</ele>
        <time>2022-06-04T11:16:45.000Z</time>
      </trkpt>
      <trkpt lat="43.4329265914857387542724609375" lon="-5.5856236629188060760498046875">
        <ele>637.4000244140625</ele>
        <time>2022-06-04T11:16:47.000Z</time>
      </trkpt>
      <trkpt lat="43.4329296089708805084228515625" lon="-5.58564118109643459320068359375">
        <ele>637.5999755859375</ele>
        <time>2022-06-04T11:16:48.000Z</time>
      </trkpt>
      <trkpt lat="43.4329296089708805084228515625" lon="-5.58564118109643459320068359375">
        <ele>637.79998779296875</ele>
        <time>2022-06-04T11:16:49.000Z</time>
      </trkpt>
      <trkpt lat="43.43293840996921062469482421875" lon="-5.58567387051880359649658203125">
        <ele>638.20001220703125</ele>
        <time>2022-06-04T11:16:51.000Z</time>
      </trkpt>
      <trkpt lat="43.4329490549862384796142578125" lon="-5.58570588938891887664794921875">
        <ele>638.5999755859375</ele>
        <time>2022-06-04T11:16:53.000Z</time>
      </trkpt>
      <trkpt lat="43.4329601190984249114990234375" lon="-5.585738830268383026123046875">
        <ele>638.79998779296875</ele>
        <time>2022-06-04T11:16:54.000Z</time>
      </trkpt>
      <trkpt lat="43.4329601190984249114990234375" lon="-5.585738830268383026123046875">
        <ele>639</ele>
        <time>2022-06-04T11:16:55.000Z</time>
      </trkpt>
      <trkpt lat="43.43297378160059452056884765625" lon="-5.58578836731612682342529296875">
        <ele>639.4000244140625</ele>
        <time>2022-06-04T11:16:57.000Z</time>
      </trkpt>
      <trkpt lat="43.43297369778156280517578125" lon="-5.58580580167472362518310546875">
        <ele>639.5999755859375</ele>
        <time>2022-06-04T11:16:58.000Z</time>
      </trkpt>
      <trkpt lat="43.432971350848674774169921875" lon="-5.58582306839525699615478515625">
        <ele>639.79998779296875</ele>
        <time>2022-06-04T11:16:59.000Z</time>
      </trkpt>
      <trkpt lat="43.43297176994383335113525390625" lon="-5.58585810475051403045654296875">
        <ele>640.20001220703125</ele>
        <time>2022-06-04T11:17:01.000Z</time>
      </trkpt>
      <trkpt lat="43.43297176994383335113525390625" lon="-5.58585810475051403045654296875">
        <ele>640.4000244140625</ele>
        <time>2022-06-04T11:17:02.000Z</time>
      </trkpt>
      <trkpt lat="43.432978726923465728759765625" lon="-5.5858732759952545166015625">
        <ele>640.79998779296875</ele>
        <time>2022-06-04T11:17:03.000Z</time>
      </trkpt>
      <trkpt lat="43.432988785207271575927734375" lon="-5.58590604923665523529052734375">
        <ele>641</ele>
        <time>2022-06-04T11:17:04.000Z</time>
      </trkpt>
      <trkpt lat="43.43299113214015960693359375" lon="-5.585922896862030029296875">
        <ele>641.5999755859375</ele>
        <time>2022-06-04T11:17:05.000Z</time>
      </trkpt>
      <trkpt lat="43.43299155123531818389892578125" lon="-5.5859384872019290924072265625">
        <ele>642</ele>
        <time>2022-06-04T11:17:07.000Z</time>
      </trkpt>
      <trkpt lat="43.4329892881214618682861328125" lon="-5.5859525687992572784423828125">
        <ele>642.20001220703125</ele>
        <time>2022-06-04T11:17:08.000Z</time>
      </trkpt>
      <trkpt lat="43.43298199586570262908935546875" lon="-5.585982911288738250732421875">
        <ele>642.4000244140625</ele>
        <time>2022-06-04T11:17:09.000Z</time>
      </trkpt>
      <trkpt lat="43.4329825825989246368408203125" lon="-5.58599942363798618316650390625">
        <ele>642.5999755859375</ele>
        <time>2022-06-04T11:17:10.000Z</time>
      </trkpt>
      <trkpt lat="43.4329879470169544219970703125" lon="-5.58601451106369495391845703125">
        <ele>642.79998779296875</ele>
        <time>2022-06-04T11:17:11.000Z</time>
      </trkpt>
      <trkpt lat="43.4330043755471706390380859375" lon="-5.5860390700399875640869140625">
        <ele>643.20001220703125</ele>
        <time>2022-06-04T11:17:13.000Z</time>
      </trkpt>
      <trkpt lat="43.4330043755471706390380859375" lon="-5.5860390700399875640869140625">
        <ele>643.5999755859375</ele>
        <time>2022-06-04T11:17:14.000Z</time>
      </trkpt>
      <trkpt lat="43.43300797976553440093994140625" lon="-5.5860561691224575042724609375">
        <ele>643.79998779296875</ele>
        <time>2022-06-04T11:17:15.000Z</time>
      </trkpt>
      <trkpt lat="43.4330026991665363311767578125" lon="-5.58608676306903362274169921875">
        <ele>644</ele>
        <time>2022-06-04T11:17:16.000Z</time>
      </trkpt>
      <trkpt lat="43.432997167110443115234375" lon="-5.586099922657012939453125">
        <ele>644.20001220703125</ele>
        <time>2022-06-04T11:17:17.000Z</time>
      </trkpt>
      <trkpt lat="43.43299339525401592254638671875" lon="-5.58611459098756313323974609375">
        <ele>644.4000244140625</ele>
        <time>2022-06-04T11:17:18.000Z</time>
      </trkpt>
      <trkpt lat="43.4329926408827304840087890625" lon="-5.586129762232303619384765625">
        <ele>644.79998779296875</ele>
        <time>2022-06-04T11:17:19.000Z</time>
      </trkpt>
      <trkpt lat="43.43300211243331432342529296875" lon="-5.58615750633180141448974609375">
        <ele>645.4000244140625</ele>
        <time>2022-06-04T11:17:21.000Z</time>
      </trkpt>
      <trkpt lat="43.4330065548419952392578125" lon="-5.58617209084331989288330078125">
        <ele>645.4000244140625</ele>
        <time>2022-06-04T11:17:22.000Z</time>
      </trkpt>
      <trkpt lat="43.43300848267972469329833984375" lon="-5.586187429726123809814453125">
        <ele>645.79998779296875</ele>
        <time>2022-06-04T11:17:23.000Z</time>
      </trkpt>
      <trkpt lat="43.43300814740359783172607421875" lon="-5.586202852427959442138671875">
        <ele>646.20001220703125</ele>
        <time>2022-06-04T11:17:25.000Z</time>
      </trkpt>
      <trkpt lat="43.43299255706369876861572265625" lon="-5.58624786324799060821533203125">
        <ele>646.5999755859375</ele>
        <time>2022-06-04T11:17:27.000Z</time>
      </trkpt>
      <trkpt lat="43.432985432446002960205078125" lon="-5.58628122322261333465576171875">
        <ele>647.20001220703125</ele>
        <time>2022-06-04T11:17:29.000Z</time>
      </trkpt>
      <trkpt lat="43.43298576772212982177734375" lon="-5.58629773557186126708984375">
        <ele>647.4000244140625</ele>
        <time>2022-06-04T11:17:30.000Z</time>
      </trkpt>
      <trkpt lat="43.43298576772212982177734375" lon="-5.58629773557186126708984375">
        <ele>647.5999755859375</ele>
        <time>2022-06-04T11:17:31.000Z</time>
      </trkpt>
      <trkpt lat="43.4329912997782230377197265625" lon="-5.58634391985833644866943359375">
        <ele>647.79998779296875</ele>
        <time>2022-06-04T11:17:33.000Z</time>
      </trkpt>
      <trkpt lat="43.4329842589795589447021484375" lon="-5.5863713286817073822021484375">
        <ele>648.4000244140625</ele>
        <time>2022-06-04T11:17:35.000Z</time>
      </trkpt>
      <trkpt lat="43.432984091341495513916015625" lon="-5.5863860808312892913818359375">
        <ele>648.79998779296875</ele>
        <time>2022-06-04T11:17:36.000Z</time>
      </trkpt>
      <trkpt lat="43.432984091341495513916015625" lon="-5.5863860808312892913818359375">
        <ele>649</ele>
        <time>2022-06-04T11:17:37.000Z</time>
      </trkpt>
      <trkpt lat="43.43299959786236286163330078125" lon="-5.5864243023097515106201171875">
        <ele>649.4000244140625</ele>
        <time>2022-06-04T11:17:39.000Z</time>
      </trkpt>
      <trkpt lat="43.4330211393535137176513671875" lon="-5.586434863507747650146484375">
        <ele>649.79998779296875</ele>
        <time>2022-06-04T11:17:41.000Z</time>
      </trkpt>
      <trkpt lat="43.43303161673247814178466796875" lon="-5.58644232340157032012939453125">
        <ele>650.20001220703125</ele>
        <time>2022-06-04T11:17:42.000Z</time>
      </trkpt>
      <trkpt lat="43.4330399148166179656982421875" lon="-5.5864528007805347442626953125">
        <ele>650.5999755859375</ele>
        <time>2022-06-04T11:17:43.000Z</time>
      </trkpt>
      <trkpt lat="43.4330399148166179656982421875" lon="-5.5864528007805347442626953125">
        <ele>650.5999755859375</ele>
        <time>2022-06-04T11:17:44.000Z</time>
      </trkpt>
      <trkpt lat="43.43305039219558238983154296875" lon="-5.5864829756319522857666015625">
        <ele>650.79998779296875</ele>
        <time>2022-06-04T11:17:45.000Z</time>
      </trkpt>
      <trkpt lat="43.43305843882262706756591796875" lon="-5.586512647569179534912109375">
        <ele>651.20001220703125</ele>
        <time>2022-06-04T11:17:47.000Z</time>
      </trkpt>
      <trkpt lat="43.433064557611942291259765625" lon="-5.5865265615284442901611328125">
        <ele>651.4000244140625</ele>
        <time>2022-06-04T11:17:48.000Z</time>
      </trkpt>
      <trkpt lat="43.43307184986770153045654296875" lon="-5.58653720654547214508056640625">
        <ele>651.4000244140625</ele>
        <time>2022-06-04T11:17:49.000Z</time>
      </trkpt>
      <trkpt lat="43.43308961950242519378662109375" lon="-5.58655246160924434661865234375">
        <ele>651.79998779296875</ele>
        <time>2022-06-04T11:17:51.000Z</time>
      </trkpt>
      <trkpt lat="43.433109819889068603515625" lon="-5.5865678004920482635498046875">
        <ele>652.20001220703125</ele>
        <time>2022-06-04T11:17:53.000Z</time>
      </trkpt>
      <trkpt lat="43.433122225105762481689453125" lon="-5.586569644510746002197265625">
        <ele>652.4000244140625</ele>
        <time>2022-06-04T11:17:54.000Z</time>
      </trkpt>
      <trkpt lat="43.433122225105762481689453125" lon="-5.586569644510746002197265625">
        <ele>652.5999755859375</ele>
        <time>2022-06-04T11:17:55.000Z</time>
      </trkpt>
      <trkpt lat="43.43313488177955150604248046875" lon="-5.586566291749477386474609375">
        <ele>652.79998779296875</ele>
        <time>2022-06-04T11:17:56.000Z</time>
      </trkpt>
      <trkpt lat="43.4331569261848926544189453125" lon="-5.5865733325481414794921875">
        <ele>653.20001220703125</ele>
        <time>2022-06-04T11:17:57.000Z</time>
      </trkpt>
      <trkpt lat="43.43316438607871532440185546875" lon="-5.58658448047935962677001953125">
        <ele>653.5999755859375</ele>
        <time>2022-06-04T11:17:59.000Z</time>
      </trkpt>
      <trkpt lat="43.433180563151836395263671875" lon="-5.5866076983511447906494140625">
        <ele>653.79998779296875</ele>
        <time>2022-06-04T11:18:01.000Z</time>
      </trkpt>
      <trkpt lat="43.43320009298622608184814453125" lon="-5.58662974275648593902587890625">
        <ele>654.5999755859375</ele>
        <time>2022-06-04T11:18:03.000Z</time>
      </trkpt>
      <trkpt lat="43.43321819789707660675048828125" lon="-5.586653463542461395263671875">
        <ele>654.79998779296875</ele>
        <time>2022-06-04T11:18:04.000Z</time>
      </trkpt>
      <trkpt lat="43.43322448432445526123046875" lon="-5.58666947297751903533935546875">
        <ele>655</ele>
        <time>2022-06-04T11:18:05.000Z</time>
      </trkpt>
      <trkpt lat="43.43323479406535625457763671875" lon="-5.5867047607898712158203125">
        <ele>655.20001220703125</ele>
        <time>2022-06-04T11:18:07.000Z</time>
      </trkpt>
      <trkpt lat="43.433236218988895416259765625" lon="-5.58672227896749973297119140625">
        <ele>655.4000244140625</ele>
        <time>2022-06-04T11:18:09.000Z</time>
      </trkpt>
      <trkpt lat="43.43322741799056529998779296875" lon="-5.5867729894816875457763671875">
        <ele>655.79998779296875</ele>
        <time>2022-06-04T11:18:11.000Z</time>
      </trkpt>
      <trkpt lat="43.43322322703897953033447265625" lon="-5.5867870710790157318115234375">
        <ele>656.20001220703125</ele>
        <time>2022-06-04T11:18:13.000Z</time>
      </trkpt>
      <trkpt lat="43.43320143409073352813720703125" lon="-5.58682437054812908172607421875">
        <ele>656.4000244140625</ele>
        <time>2022-06-04T11:18:15.000Z</time>
      </trkpt>
      <trkpt lat="43.43319087289273738861083984375" lon="-5.586833842098712921142578125">
        <ele>656.5999755859375</ele>
        <time>2022-06-04T11:18:16.000Z</time>
      </trkpt>
      <trkpt lat="43.43318047933280467987060546875" lon="-5.58684398420155048370361328125">
        <ele>656.5999755859375</ele>
        <time>2022-06-04T11:18:17.000Z</time>
      </trkpt>
      <trkpt lat="43.4331582672894001007080078125" lon="-5.58686359785497188568115234375">
        <ele>657</ele>
        <time>2022-06-04T11:18:19.000Z</time>
      </trkpt>
      <trkpt lat="43.4331582672894001007080078125" lon="-5.58686359785497188568115234375">
        <ele>657.20001220703125</ele>
        <time>2022-06-04T11:18:20.000Z</time>
      </trkpt>
      <trkpt lat="43.4331460297107696533203125" lon="-5.58687063865363597869873046875">
        <ele>657.4000244140625</ele>
        <time>2022-06-04T11:18:21.000Z</time>
      </trkpt>
      <trkpt lat="43.43312331475317478179931640625" lon="-5.58688807301223278045654296875">
        <ele>657.79998779296875</ele>
        <time>2022-06-04T11:18:23.000Z</time>
      </trkpt>
      <trkpt lat="43.433105461299419403076171875" lon="-5.58691003359854221343994140625">
        <ele>658</ele>
        <time>2022-06-04T11:18:24.000Z</time>
      </trkpt>
      <trkpt lat="43.43310018070042133331298828125" lon="-5.586926043033599853515625">
        <ele>658.20001220703125</ele>
        <time>2022-06-04T11:18:25.000Z</time>
      </trkpt>
      <trkpt lat="43.43308425508439540863037109375" lon="-5.58695630170404911041259765625">
        <ele>658.79998779296875</ele>
        <time>2022-06-04T11:18:27.000Z</time>
      </trkpt>
      <trkpt lat="43.43307293951511383056640625" lon="-5.58696451596915721893310546875">
        <ele>659</ele>
        <time>2022-06-04T11:18:28.000Z</time>
      </trkpt>
      <trkpt lat="43.4330607019364833831787109375" lon="-5.58697004802525043487548828125">
        <ele>659.20001220703125</ele>
        <time>2022-06-04T11:18:29.000Z</time>
      </trkpt>
      <trkpt lat="43.43304754234850406646728515625" lon="-5.586968623101711273193359375">
        <ele>659.79998779296875</ele>
        <time>2022-06-04T11:18:30.000Z</time>
      </trkpt>
      <trkpt lat="43.4330342151224613189697265625" lon="-5.5869649350643157958984375">
        <ele>660</ele>
        <time>2022-06-04T11:18:31.000Z</time>
      </trkpt>
      <trkpt lat="43.4330342151224613189697265625" lon="-5.5869649350643157958984375">
        <ele>660.20001220703125</ele>
        <time>2022-06-04T11:18:32.000Z</time>
      </trkpt>
      <trkpt lat="43.433008901774883270263671875" lon="-5.5869684554636478424072265625">
        <ele>660.4000244140625</ele>
        <time>2022-06-04T11:18:33.000Z</time>
      </trkpt>
      <trkpt lat="43.43299691565334796905517578125" lon="-5.5869770050048828125">
        <ele>660.5999755859375</ele>
        <time>2022-06-04T11:18:34.000Z</time>
      </trkpt>
      <trkpt lat="43.43298442661762237548828125" lon="-5.586987398564815521240234375">
        <ele>660.79998779296875</ele>
        <time>2022-06-04T11:18:35.000Z</time>
      </trkpt>
      <trkpt lat="43.432963304221630096435546875" lon="-5.58701178990304470062255859375">
        <ele>661.20001220703125</ele>
        <time>2022-06-04T11:18:37.000Z</time>
      </trkpt>
      <trkpt lat="43.432963304221630096435546875" lon="-5.58701178990304470062255859375">
        <ele>661.4000244140625</ele>
        <time>2022-06-04T11:18:38.000Z</time>
      </trkpt>
      <trkpt lat="43.4329448640346527099609375" lon="-5.58704112656414508819580078125">
        <ele>661.5999755859375</ele>
        <time>2022-06-04T11:18:39.000Z</time>
      </trkpt>
      <trkpt lat="43.43292801640927791595458984375" lon="-5.587071888148784637451171875">
        <ele>662</ele>
        <time>2022-06-04T11:18:41.000Z</time>
      </trkpt>
      <trkpt lat="43.43291963450610637664794921875" lon="-5.58708823285996913909912109375">
        <ele>662</ele>
        <time>2022-06-04T11:18:42.000Z</time>
      </trkpt>
      <trkpt lat="43.43291963450610637664794921875" lon="-5.58708823285996913909912109375">
        <ele>662.20001220703125</ele>
        <time>2022-06-04T11:18:43.000Z</time>
      </trkpt>
      <trkpt lat="43.432911336421966552734375" lon="-5.5871049128472805023193359375">
        <ele>662.4000244140625</ele>
        <time>2022-06-04T11:18:44.000Z</time>
      </trkpt>
      <trkpt lat="43.4328984282910823822021484375" lon="-5.58713869191706180572509765625">
        <ele>662.5999755859375</ele>
        <time>2022-06-04T11:18:45.000Z</time>
      </trkpt>
      <trkpt lat="43.432901613414287567138671875" lon="-5.58717138133943080902099609375">
        <ele>663</ele>
        <time>2022-06-04T11:18:47.000Z</time>
      </trkpt>
      <trkpt lat="43.4329017810523509979248046875" lon="-5.5872075073421001434326171875">
        <ele>663.4000244140625</ele>
        <time>2022-06-04T11:18:49.000Z</time>
      </trkpt>
      <trkpt lat="43.43289197422564029693603515625" lon="-5.58723961003124713897705078125">
        <ele>664</ele>
        <time>2022-06-04T11:18:51.000Z</time>
      </trkpt>
      <trkpt lat="43.43287043273448944091796875" lon="-5.58726274408400058746337890625">
        <ele>664.4000244140625</ele>
        <time>2022-06-04T11:18:53.000Z</time>
      </trkpt>
      <trkpt lat="43.432862721383571624755859375" lon="-5.5872762389481067657470703125">
        <ele>664.4000244140625</ele>
        <time>2022-06-04T11:18:54.000Z</time>
      </trkpt>
      <trkpt lat="43.4328588657081127166748046875" lon="-5.5872933380305767059326171875">
        <ele>664.5999755859375</ele>
        <time>2022-06-04T11:18:55.000Z</time>
      </trkpt>
      <trkpt lat="43.4328608773648738861083984375" lon="-5.587328039109706878662109375">
        <ele>665</ele>
        <time>2022-06-04T11:18:57.000Z</time>
      </trkpt>
      <trkpt lat="43.432866074144840240478515625" lon="-5.58734647929668426513671875">
        <ele>665.4000244140625</ele>
        <time>2022-06-04T11:18:58.000Z</time>
      </trkpt>
      <trkpt lat="43.43286833725869655609130859375" lon="-5.58736500330269336700439453125">
        <ele>665.5999755859375</ele>
        <time>2022-06-04T11:18:59.000Z</time>
      </trkpt>
      <trkpt lat="43.43286649323999881744384765625" lon="-5.5873825214803218841552734375">
        <ele>665.79998779296875</ele>
        <time>2022-06-04T11:19:00.000Z</time>
      </trkpt>
      <trkpt lat="43.432862721383571624755859375" lon="-5.58739869855344295501708984375">
        <ele>665.79998779296875</ele>
        <time>2022-06-04T11:19:01.000Z</time>
      </trkpt>
      <trkpt lat="43.432862721383571624755859375" lon="-5.58739869855344295501708984375">
        <ele>666</ele>
        <time>2022-06-04T11:19:02.000Z</time>
      </trkpt>
      <trkpt lat="43.43284226953983306884765625" lon="-5.5874234251677989959716796875">
        <ele>666.20001220703125</ele>
        <time>2022-06-04T11:19:03.000Z</time>
      </trkpt>
      <trkpt lat="43.43283145688474178314208984375" lon="-5.5874361656606197357177734375">
        <ele>666.5999755859375</ele>
        <time>2022-06-04T11:19:05.000Z</time>
      </trkpt>
      <trkpt lat="43.4328253380954265594482421875" lon="-5.58747430332005023956298828125">
        <ele>666.79998779296875</ele>
        <time>2022-06-04T11:19:06.000Z</time>
      </trkpt>
      <trkpt lat="43.4328290261328220367431640625" lon="-5.587494671344757080078125">
        <ele>666.79998779296875</ele>
        <time>2022-06-04T11:19:07.000Z</time>
      </trkpt>
      <trkpt lat="43.43283263035118579864501953125" lon="-5.58753850869834423065185546875">
        <ele>667.4000244140625</ele>
        <time>2022-06-04T11:19:09.000Z</time>
      </trkpt>
      <trkpt lat="43.43282910995185375213623046875" lon="-5.58755912818014621734619140625">
        <ele>667.5999755859375</ele>
        <time>2022-06-04T11:19:10.000Z</time>
      </trkpt>
      <trkpt lat="43.432823829352855682373046875" lon="-5.5875806696712970733642578125">
        <ele>668</ele>
        <time>2022-06-04T11:19:11.000Z</time>
      </trkpt>
      <trkpt lat="43.43281544744968414306640625" lon="-5.587596930563449859619140625">
        <ele>668</ele>
        <time>2022-06-04T11:19:12.000Z</time>
      </trkpt>
      <trkpt lat="43.4328032098710536956787109375" lon="-5.58761042542755603790283203125">
        <ele>668.20001220703125</ele>
        <time>2022-06-04T11:19:13.000Z</time>
      </trkpt>
      <trkpt lat="43.4328032098710536956787109375" lon="-5.58761042542755603790283203125">
        <ele>668.4000244140625</ele>
        <time>2022-06-04T11:19:14.000Z</time>
      </trkpt>
      <trkpt lat="43.43278569169342517852783203125" lon="-5.58764127083122730255126953125">
        <ele>668.5999755859375</ele>
        <time>2022-06-04T11:19:15.000Z</time>
      </trkpt>
      <trkpt lat="43.43278066255152225494384765625" lon="-5.58766054920852184295654296875">
        <ele>668.79998779296875</ele>
        <time>2022-06-04T11:19:16.000Z</time>
      </trkpt>
      <trkpt lat="43.432777225971221923828125" lon="-5.58768041431903839111328125">
        <ele>669</ele>
        <time>2022-06-04T11:19:17.000Z</time>
      </trkpt>
      <trkpt lat="43.4327767230570316314697265625" lon="-5.58770061470568180084228515625">
        <ele>669.20001220703125</ele>
        <time>2022-06-04T11:19:18.000Z</time>
      </trkpt>
      <trkpt lat="43.43277881853282451629638671875" lon="-5.58772064745426177978515625">
        <ele>669.4000244140625</ele>
        <time>2022-06-04T11:19:19.000Z</time>
      </trkpt>
      <trkpt lat="43.432787619531154632568359375" lon="-5.587761215865612030029296875">
        <ele>669.79998779296875</ele>
        <time>2022-06-04T11:19:21.000Z</time>
      </trkpt>
      <trkpt lat="43.43278686515986919403076171875" lon="-5.5877815000712871551513671875">
        <ele>670</ele>
        <time>2022-06-04T11:19:22.000Z</time>
      </trkpt>
      <trkpt lat="43.4327830933034420013427734375" lon="-5.58780170045793056488037109375">
        <ele>670.20001220703125</ele>
        <time>2022-06-04T11:19:23.000Z</time>
      </trkpt>
      <trkpt lat="43.43277730979025363922119140625" lon="-5.587821900844573974609375">
        <ele>670.4000244140625</ele>
        <time>2022-06-04T11:19:24.000Z</time>
      </trkpt>
      <trkpt lat="43.43276959843933582305908203125" lon="-5.587840341031551361083984375">
        <ele>670.4000244140625</ele>
        <time>2022-06-04T11:19:25.000Z</time>
      </trkpt>
      <trkpt lat="43.4327609650790691375732421875" lon="-5.5878581106662750244140625">
        <ele>671.20001220703125</ele>
        <time>2022-06-04T11:19:27.000Z</time>
      </trkpt>
      <trkpt lat="43.43275082297623157501220703125" lon="-5.58789432048797607421875">
        <ele>671.4000244140625</ele>
        <time>2022-06-04T11:19:28.000Z</time>
      </trkpt>
      <trkpt lat="43.43274981714785099029541015625" lon="-5.58791385032236576080322265625">
        <ele>671.5999755859375</ele>
        <time>2022-06-04T11:19:29.000Z</time>
      </trkpt>
      <trkpt lat="43.4327478893101215362548828125" lon="-5.5879533290863037109375">
        <ele>672.20001220703125</ele>
        <time>2022-06-04T11:19:31.000Z</time>
      </trkpt>
      <trkpt lat="43.4327478893101215362548828125" lon="-5.5879533290863037109375">
        <ele>672.4000244140625</ele>
        <time>2022-06-04T11:19:32.000Z</time>
      </trkpt>
      <trkpt lat="43.4327435307204723358154296875" lon="-5.58799213729798793792724609375">
        <ele>672.5999755859375</ele>
        <time>2022-06-04T11:19:33.000Z</time>
      </trkpt>
      <trkpt lat="43.43273757956922054290771484375" lon="-5.5880312807857990264892578125">
        <ele>672.79998779296875</ele>
        <time>2022-06-04T11:19:35.000Z</time>
      </trkpt>
      <trkpt lat="43.4327329695224761962890625" lon="-5.58807126246392726898193359375">
        <ele>673.20001220703125</ele>
        <time>2022-06-04T11:19:37.000Z</time>
      </trkpt>
      <trkpt lat="43.43272425234317779541015625" lon="-5.588106215000152587890625">
        <ele>673.5999755859375</ele>
        <time>2022-06-04T11:19:39.000Z</time>
      </trkpt>
      <trkpt lat="43.43271813355386257171630859375" lon="-5.588145442306995391845703125">
        <ele>673.79998779296875</ele>
        <time>2022-06-04T11:19:41.000Z</time>
      </trkpt>
      <trkpt lat="43.43271494843065738677978515625" lon="-5.5881851725280284881591796875">
        <ele>674</ele>
        <time>2022-06-04T11:19:43.000Z</time>
      </trkpt>
      <trkpt lat="43.4327190555632114410400390625" lon="-5.58822683058679103851318359375">
        <ele>674.20001220703125</ele>
        <time>2022-06-04T11:19:45.000Z</time>
      </trkpt>
      <trkpt lat="43.43272165395319461822509765625" lon="-5.58827024884521961212158203125">
        <ele>674.5999755859375</ele>
        <time>2022-06-04T11:19:47.000Z</time>
      </trkpt>
      <trkpt lat="43.4327230788767337799072265625" lon="-5.5882901139557361602783203125">
        <ele>675</ele>
        <time>2022-06-04T11:19:49.000Z</time>
      </trkpt>
      <trkpt lat="43.43271620571613311767578125" lon="-5.58835825882852077484130859375">
        <ele>675.20001220703125</ele>
        <time>2022-06-04T11:19:51.000Z</time>
      </trkpt>
      <trkpt lat="43.432711176574230194091796875" lon="-5.58840368874371051788330078125">
        <ele>675.79998779296875</ele>
        <time>2022-06-04T11:19:53.000Z</time>
      </trkpt>
      <trkpt lat="43.43270841054618358612060546875" lon="-5.58844760991632938385009765625">
        <ele>676</ele>
        <time>2022-06-04T11:19:55.000Z</time>
      </trkpt>
      <trkpt lat="43.43270841054618358612060546875" lon="-5.58844760991632938385009765625">
        <ele>676.20001220703125</ele>
        <time>2022-06-04T11:19:56.000Z</time>
      </trkpt>
      <trkpt lat="43.432705141603946685791015625" lon="-5.588492453098297119140625">
        <ele>676.4000244140625</ele>
        <time>2022-06-04T11:19:57.000Z</time>
      </trkpt>
      <trkpt lat="43.4326994419097900390625" lon="-5.588540397584438323974609375">
        <ele>676.79998779296875</ele>
        <time>2022-06-04T11:19:59.000Z</time>
      </trkpt>
      <trkpt lat="43.432692401111125946044921875" lon="-5.58858758769929409027099609375">
        <ele>677</ele>
        <time>2022-06-04T11:20:01.000Z</time>
      </trkpt>
      <trkpt lat="43.43268209137022495269775390625" lon="-5.58863234706223011016845703125">
        <ele>677.4000244140625</ele>
        <time>2022-06-04T11:20:03.000Z</time>
      </trkpt>
      <trkpt lat="43.4326747991144657135009765625" lon="-5.58867945335805416107177734375">
        <ele>677.5999755859375</ele>
        <time>2022-06-04T11:20:05.000Z</time>
      </trkpt>
      <trkpt lat="43.4326714463531970977783203125" lon="-5.58870141394436359405517578125">
        <ele>677.79998779296875</ele>
        <time>2022-06-04T11:20:06.000Z</time>
      </trkpt>
      <trkpt lat="43.43266834504902362823486328125" lon="-5.58872471563518047332763671875">
        <ele>677.79998779296875</ele>
        <time>2022-06-04T11:20:07.000Z</time>
      </trkpt>
      <trkpt lat="43.4326684288680553436279296875" lon="-5.5887702293694019317626953125">
        <ele>678.20001220703125</ele>
        <time>2022-06-04T11:20:09.000Z</time>
      </trkpt>
      <trkpt lat="43.43266951851546764373779296875" lon="-5.58879411779344081878662109375">
        <ele>678.79998779296875</ele>
        <time>2022-06-04T11:20:11.000Z</time>
      </trkpt>
      <trkpt lat="43.432674966752529144287109375" lon="-5.5888409726321697235107421875">
        <ele>679</ele>
        <time>2022-06-04T11:20:12.000Z</time>
      </trkpt>
      <trkpt lat="43.43267572112381458282470703125" lon="-5.58886385522782802581787109375">
        <ele>679.20001220703125</ele>
        <time>2022-06-04T11:20:13.000Z</time>
      </trkpt>
      <trkpt lat="43.43267572112381458282470703125" lon="-5.58886385522782802581787109375">
        <ele>679.20001220703125</ele>
        <time>2022-06-04T11:20:14.000Z</time>
      </trkpt>
      <trkpt lat="43.43267069198191165924072265625" lon="-5.5889117158949375152587890625">
        <ele>679.4000244140625</ele>
        <time>2022-06-04T11:20:15.000Z</time>
      </trkpt>
      <trkpt lat="43.43265895731747150421142578125" lon="-5.5889549665153026580810546875">
        <ele>679.79998779296875</ele>
        <time>2022-06-04T11:20:17.000Z</time>
      </trkpt>
      <trkpt lat="43.43265325762331485748291015625" lon="-5.58897583745419979095458984375">
        <ele>680</ele>
        <time>2022-06-04T11:20:18.000Z</time>
      </trkpt>
      <trkpt lat="43.43264772556722164154052734375" lon="-5.58899830095469951629638671875">
        <ele>680.20001220703125</ele>
        <time>2022-06-04T11:20:19.000Z</time>
      </trkpt>
      <trkpt lat="43.4326463006436824798583984375" lon="-5.5890434794127941131591796875">
        <ele>681</ele>
        <time>2022-06-04T11:20:21.000Z</time>
      </trkpt>
      <trkpt lat="43.43265191651880741119384765625" lon="-5.5890900827944278717041015625">
        <ele>681.20001220703125</ele>
        <time>2022-06-04T11:20:23.000Z</time>
      </trkpt>
      <trkpt lat="43.432649485766887664794921875" lon="-5.58913576416671276092529296875">
        <ele>681.5999755859375</ele>
        <time>2022-06-04T11:20:25.000Z</time>
      </trkpt>
      <trkpt lat="43.43264386989176273345947265625" lon="-5.589176751673221588134765625">
        <ele>681.79998779296875</ele>
        <time>2022-06-04T11:20:27.000Z</time>
      </trkpt>
      <trkpt lat="43.43264252878725528717041015625" lon="-5.58919946663081645965576171875">
        <ele>682</ele>
        <time>2022-06-04T11:20:28.000Z</time>
      </trkpt>
      <trkpt lat="43.43264244496822357177734375" lon="-5.5892215110361576080322265625">
        <ele>682.20001220703125</ele>
        <time>2022-06-04T11:20:29.000Z</time>
      </trkpt>
      <trkpt lat="43.43264370225369930267333984375" lon="-5.589242465794086456298828125">
        <ele>682.20001220703125</ele>
        <time>2022-06-04T11:20:30.000Z</time>
      </trkpt>
      <trkpt lat="43.43264386989176273345947265625" lon="-5.589264594018459320068359375">
        <ele>682.4000244140625</ele>
        <time>2022-06-04T11:20:31.000Z</time>
      </trkpt>
      <trkpt lat="43.432643450796604156494140625" lon="-5.58928730897605419158935546875">
        <ele>682.79998779296875</ele>
        <time>2022-06-04T11:20:33.000Z</time>
      </trkpt>
      <trkpt lat="43.43264085240662097930908203125" lon="-5.5893552862107753753662109375">
        <ele>683.20001220703125</ele>
        <time>2022-06-04T11:20:35.000Z</time>
      </trkpt>
      <trkpt lat="43.4326385892927646636962890625" lon="-5.589379258453845977783203125">
        <ele>683.4000244140625</ele>
        <time>2022-06-04T11:20:36.000Z</time>
      </trkpt>
      <trkpt lat="43.43263599090278148651123046875" lon="-5.589400716125965118408203125">
        <ele>683.4000244140625</ele>
        <time>2022-06-04T11:20:37.000Z</time>
      </trkpt>
      <trkpt lat="43.43263599090278148651123046875" lon="-5.589400716125965118408203125">
        <ele>683.5999755859375</ele>
        <time>2022-06-04T11:20:38.000Z</time>
      </trkpt>
      <trkpt lat="43.43263297341763973236083984375" lon="-5.58944421820342540740966796875">
        <ele>683.79998779296875</ele>
        <time>2022-06-04T11:20:39.000Z</time>
      </trkpt>
      <trkpt lat="43.432630710303783416748046875" lon="-5.5894917435944080352783203125">
        <ele>684</ele>
        <time>2022-06-04T11:20:41.000Z</time>
      </trkpt>
      <trkpt lat="43.43262710608541965484619140625" lon="-5.58953742496669292449951171875">
        <ele>684.4000244140625</ele>
        <time>2022-06-04T11:20:43.000Z</time>
      </trkpt>
      <trkpt lat="43.4326214902102947235107421875" lon="-5.58958168141543865203857421875">
        <ele>684.79998779296875</ele>
        <time>2022-06-04T11:20:45.000Z</time>
      </trkpt>
      <trkpt lat="43.432619310915470123291015625" lon="-5.5896043963730335235595703125">
        <ele>685</ele>
        <time>2022-06-04T11:20:46.000Z</time>
      </trkpt>
      <trkpt lat="43.43261755071580410003662109375" lon="-5.58962761424481868743896484375">
        <ele>685.20001220703125</ele>
        <time>2022-06-04T11:20:47.000Z</time>
      </trkpt>
      <trkpt lat="43.43261302448809146881103515625" lon="-5.58967103250324726104736328125">
        <ele>685.5999755859375</ele>
        <time>2022-06-04T11:20:49.000Z</time>
      </trkpt>
      <trkpt lat="43.43260916881263256072998046875" lon="-5.58970816433429718017578125">
        <ele>685.79998779296875</ele>
        <time>2022-06-04T11:20:51.000Z</time>
      </trkpt>
      <trkpt lat="43.4326050616800785064697265625" lon="-5.58974973857402801513671875">
        <ele>686.4000244140625</ele>
        <time>2022-06-04T11:20:53.000Z</time>
      </trkpt>
      <trkpt lat="43.4326027147471904754638671875" lon="-5.5897705256938934326171875">
        <ele>686.5999755859375</ele>
        <time>2022-06-04T11:20:54.000Z</time>
      </trkpt>
      <trkpt lat="43.4326027147471904754638671875" lon="-5.5897705256938934326171875">
        <ele>686.79998779296875</ele>
        <time>2022-06-04T11:20:55.000Z</time>
      </trkpt>
      <trkpt lat="43.43259173445403575897216796875" lon="-5.58983431197702884674072265625">
        <ele>687.20001220703125</ele>
        <time>2022-06-04T11:20:57.000Z</time>
      </trkpt>
      <trkpt lat="43.4325882978737354278564453125" lon="-5.5898776464164257049560546875">
        <ele>687.5999755859375</ele>
        <time>2022-06-04T11:20:59.000Z</time>
      </trkpt>
      <trkpt lat="43.4325903095304965972900390625" lon="-5.5899192206561565399169921875">
        <ele>688</ele>
        <time>2022-06-04T11:21:01.000Z</time>
      </trkpt>
      <trkpt lat="43.43259148299694061279296875" lon="-5.5899597890675067901611328125">
        <ele>688.4000244140625</ele>
        <time>2022-06-04T11:21:03.000Z</time>
      </trkpt>
      <trkpt lat="43.43258921988308429718017578125" lon="-5.58998082764446735382080078125">
        <ele>688.5999755859375</ele>
        <time>2022-06-04T11:21:04.000Z</time>
      </trkpt>
      <trkpt lat="43.432585112750530242919921875" lon="-5.59000295586884021759033203125">
        <ele>688.79998779296875</ele>
        <time>2022-06-04T11:21:05.000Z</time>
      </trkpt>
      <trkpt lat="43.43257094733417034149169921875" lon="-5.59004352428019046783447265625">
        <ele>689.20001220703125</ele>
        <time>2022-06-04T11:21:07.000Z</time>
      </trkpt>
      <trkpt lat="43.4325534291565418243408203125" lon="-5.59008141048252582550048828125">
        <ele>689.79998779296875</ele>
        <time>2022-06-04T11:21:09.000Z</time>
      </trkpt>
      <trkpt lat="43.43255133368074893951416015625" lon="-5.59012097306549549102783203125">
        <ele>690</ele>
        <time>2022-06-04T11:21:11.000Z</time>
      </trkpt>
      <trkpt lat="43.43255669809877872467041015625" lon="-5.59014008380472660064697265625">
        <ele>690.20001220703125</ele>
        <time>2022-06-04T11:21:12.000Z</time>
      </trkpt>
      <trkpt lat="43.43256072141230106353759765625" lon="-5.5901606194674968719482421875">
        <ele>690.4000244140625</ele>
        <time>2022-06-04T11:21:13.000Z</time>
      </trkpt>
      <trkpt lat="43.43255233950912952423095703125" lon="-5.59020177461206912994384765625">
        <ele>690.79998779296875</ele>
        <time>2022-06-04T11:21:15.000Z</time>
      </trkpt>
      <trkpt lat="43.43254412524402141571044921875" lon="-5.590219460427761077880859375">
        <ele>691.4000244140625</ele>
        <time>2022-06-04T11:21:17.000Z</time>
      </trkpt>
      <trkpt lat="43.4325343184173107147216796875" lon="-5.59025893919169902801513671875">
        <ele>691.5999755859375</ele>
        <time>2022-06-04T11:21:18.000Z</time>
      </trkpt>
      <trkpt lat="43.43253339640796184539794921875" lon="-5.590279810130596160888671875">
        <ele>691.79998779296875</ele>
        <time>2022-06-04T11:21:19.000Z</time>
      </trkpt>
      <trkpt lat="43.4325390122830867767333984375" lon="-5.590316019952297210693359375">
        <ele>692.20001220703125</ele>
        <time>2022-06-04T11:21:21.000Z</time>
      </trkpt>
      <trkpt lat="43.4325427003204822540283203125" lon="-5.59033655561506748199462890625">
        <ele>692.4000244140625</ele>
        <time>2022-06-04T11:21:22.000Z</time>
      </trkpt>
      <trkpt lat="43.4325443767011165618896484375" lon="-5.590356253087520599365234375">
        <ele>692.5999755859375</ele>
        <time>2022-06-04T11:21:23.000Z</time>
      </trkpt>
      <trkpt lat="43.43253976665437221527099609375" lon="-5.590397827327251434326171875">
        <ele>692.79998779296875</ele>
        <time>2022-06-04T11:21:25.000Z</time>
      </trkpt>
      <trkpt lat="43.43253976665437221527099609375" lon="-5.590397827327251434326171875">
        <ele>693</ele>
        <time>2022-06-04T11:21:26.000Z</time>
      </trkpt>
      <trkpt lat="43.4325291216373443603515625" lon="-5.5904382281005382537841796875">
        <ele>693.20001220703125</ele>
        <time>2022-06-04T11:21:27.000Z</time>
      </trkpt>
      <trkpt lat="43.432522080838680267333984375" lon="-5.5904479511082172393798828125">
        <ele>693.4000244140625</ele>
        <time>2022-06-04T11:21:28.000Z</time>
      </trkpt>
      <trkpt lat="43.432514369487762451171875" lon="-5.590456165373325347900390625">
        <ele>693.5999755859375</ele>
        <time>2022-06-04T11:21:29.000Z</time>
      </trkpt>
      <trkpt lat="43.43250875361263751983642578125" lon="-5.590470246970653533935546875">
        <ele>693.5999755859375</ele>
        <time>2022-06-04T11:21:30.000Z</time>
      </trkpt>
      <trkpt lat="43.432507328689098358154296875" lon="-5.59049095027148723602294921875">
        <ele>693.79998779296875</ele>
        <time>2022-06-04T11:21:31.000Z</time>
      </trkpt>
      <trkpt lat="43.43250540085136890411376953125" lon="-5.5905381403863430023193359375">
        <ele>694.20001220703125</ele>
        <time>2022-06-04T11:21:33.000Z</time>
      </trkpt>
      <trkpt lat="43.4325031377375125885009765625" lon="-5.590595304965972900390625">
        <ele>694.4000244140625</ele>
        <time>2022-06-04T11:21:35.000Z</time>
      </trkpt>
      <trkpt lat="43.43249886296689510345458984375" lon="-5.5906534753739833831787109375">
        <ele>694.79998779296875</ele>
        <time>2022-06-04T11:21:37.000Z</time>
      </trkpt>
      <trkpt lat="43.43249492347240447998046875" lon="-5.59071558527648448944091796875">
        <ele>695</ele>
        <time>2022-06-04T11:21:39.000Z</time>
      </trkpt>
      <trkpt lat="43.43249819241464138031005859375" lon="-5.590745843946933746337890625">
        <ele>695.20001220703125</ele>
        <time>2022-06-04T11:21:40.000Z</time>
      </trkpt>
      <trkpt lat="43.43250120989978313446044921875" lon="-5.59077794663608074188232421875">
        <ele>695.4000244140625</ele>
        <time>2022-06-04T11:21:41.000Z</time>
      </trkpt>
      <trkpt lat="43.4324977733194828033447265625" lon="-5.5908479355275630950927734375">
        <ele>695.79998779296875</ele>
        <time>2022-06-04T11:21:43.000Z</time>
      </trkpt>
      <trkpt lat="43.43249936588108539581298828125" lon="-5.59092144481837749481201171875">
        <ele>696.20001220703125</ele>
        <time>2022-06-04T11:21:45.000Z</time>
      </trkpt>
      <trkpt lat="43.43249986879527568817138671875" lon="-5.59095614589750766754150390625">
        <ele>696.5999755859375</ele>
        <time>2022-06-04T11:21:46.000Z</time>
      </trkpt>
      <trkpt lat="43.43249986879527568817138671875" lon="-5.59095614589750766754150390625">
        <ele>696.79998779296875</ele>
        <time>2022-06-04T11:21:47.000Z</time>
      </trkpt>
      <trkpt lat="43.43250104226171970367431640625" lon="-5.591054297983646392822265625">
        <ele>697.20001220703125</ele>
        <time>2022-06-04T11:21:49.000Z</time>
      </trkpt>
      <trkpt lat="43.4325054846704006195068359375" lon="-5.5911201797425746917724609375">
        <ele>697.4000244140625</ele>
        <time>2022-06-04T11:21:51.000Z</time>
      </trkpt>
      <trkpt lat="43.43250523321330547332763671875" lon="-5.59118497185409069061279296875">
        <ele>697.79998779296875</ele>
        <time>2022-06-04T11:21:53.000Z</time>
      </trkpt>
      <trkpt lat="43.4325022995471954345703125" lon="-5.59125311672687530517578125">
        <ele>698.20001220703125</ele>
        <time>2022-06-04T11:21:55.000Z</time>
      </trkpt>
      <trkpt lat="43.43249551020562648773193359375" lon="-5.59132042340934276580810546875">
        <ele>698.5999755859375</ele>
        <time>2022-06-04T11:21:57.000Z</time>
      </trkpt>
      <trkpt lat="43.43249450437724590301513671875" lon="-5.59135328046977519989013671875">
        <ele>698.79998779296875</ele>
        <time>2022-06-04T11:21:58.000Z</time>
      </trkpt>
      <trkpt lat="43.43249517492949962615966796875" lon="-5.5913847126066684722900390625">
        <ele>699</ele>
        <time>2022-06-04T11:21:59.000Z</time>
      </trkpt>
      <trkpt lat="43.4324971027672290802001953125" lon="-5.5914125405251979827880859375">
        <ele>699.4000244140625</ele>
        <time>2022-06-04T11:22:01.000Z</time>
      </trkpt>
      <trkpt lat="43.4325031377375125885009765625" lon="-5.591496527194976806640625">
        <ele>699.5999755859375</ele>
        <time>2022-06-04T11:22:03.000Z</time>
      </trkpt>
      <trkpt lat="43.43250204809010028839111328125" lon="-5.59152376838028430938720703125">
        <ele>699.79998779296875</ele>
        <time>2022-06-04T11:22:04.000Z</time>
      </trkpt>
      <trkpt lat="43.432495929300785064697265625" lon="-5.5915520153939723968505859375">
        <ele>700</ele>
        <time>2022-06-04T11:22:05.000Z</time>
      </trkpt>
      <trkpt lat="43.43248863704502582550048828125" lon="-5.5915781669318675994873046875">
        <ele>700.20001220703125</ele>
        <time>2022-06-04T11:22:07.000Z</time>
      </trkpt>
      <trkpt lat="43.43248042277991771697998046875" lon="-5.59162619523704051971435546875">
        <ele>700.5999755859375</ele>
        <time>2022-06-04T11:22:09.000Z</time>
      </trkpt>
      <trkpt lat="43.4324813447892665863037109375" lon="-5.5916767381131649017333984375">
        <ele>700.79998779296875</ele>
        <time>2022-06-04T11:22:10.000Z</time>
      </trkpt>
      <trkpt lat="43.4324813447892665863037109375" lon="-5.5916767381131649017333984375">
        <ele>701</ele>
        <time>2022-06-04T11:22:11.000Z</time>
      </trkpt>
      <trkpt lat="43.43248494900763034820556640625" lon="-5.59173054993152618408203125">
        <ele>701.20001220703125</ele>
        <time>2022-06-04T11:22:13.000Z</time>
      </trkpt>
      <trkpt lat="43.43248377554118633270263671875" lon="-5.59178561903536319732666015625">
        <ele>702.20001220703125</ele>
        <time>2022-06-04T11:22:15.000Z</time>
      </trkpt>
      <trkpt lat="43.43247187323868274688720703125" lon="-5.59184663929045200347900390625">
        <ele>702.5999755859375</ele>
        <time>2022-06-04T11:22:17.000Z</time>
      </trkpt>
      <trkpt lat="43.432461731135845184326171875" lon="-5.5919007025659084320068359375">
        <ele>703</ele>
        <time>2022-06-04T11:22:19.000Z</time>
      </trkpt>
      <trkpt lat="43.43246215023100376129150390625" lon="-5.5919281952083110809326171875">
        <ele>703.20001220703125</ele>
        <time>2022-06-04T11:22:20.000Z</time>
      </trkpt>
      <trkpt lat="43.4324642457067966461181640625" lon="-5.59195585548877716064453125">
        <ele>703.4000244140625</ele>
        <time>2022-06-04T11:22:21.000Z</time>
      </trkpt>
      <trkpt lat="43.43247120268642902374267578125" lon="-5.592012517154216766357421875">
        <ele>703.5999755859375</ele>
        <time>2022-06-04T11:22:22.000Z</time>
      </trkpt>
      <trkpt lat="43.43247120268642902374267578125" lon="-5.592012517154216766357421875">
        <ele>704</ele>
        <time>2022-06-04T11:22:23.000Z</time>
      </trkpt>
      <trkpt lat="43.43247036449611186981201171875" lon="-5.5920745432376861572265625">
        <ele>704.4000244140625</ele>
        <time>2022-06-04T11:22:25.000Z</time>
      </trkpt>
      <trkpt lat="43.4324639104306697845458984375" lon="-5.59213413856923580169677734375">
        <ele>704.5999755859375</ele>
        <time>2022-06-04T11:22:27.000Z</time>
      </trkpt>
      <trkpt lat="43.4324598871171474456787109375" lon="-5.59219054877758026123046875">
        <ele>705</ele>
        <time>2022-06-04T11:22:29.000Z</time>
      </trkpt>
      <trkpt lat="43.432469107210636138916015625" lon="-5.59224578551948070526123046875">
        <ele>705.20001220703125</ele>
        <time>2022-06-04T11:22:30.000Z</time>
      </trkpt>
      <trkpt lat="43.432469107210636138916015625" lon="-5.59224578551948070526123046875">
        <ele>705.4000244140625</ele>
        <time>2022-06-04T11:22:31.000Z</time>
      </trkpt>
      <trkpt lat="43.4324786625802516937255859375" lon="-5.5922711826860904693603515625">
        <ele>705.4000244140625</ele>
        <time>2022-06-04T11:22:32.000Z</time>
      </trkpt>
      <trkpt lat="43.43248880468308925628662109375" lon="-5.5922971665859222412109375">
        <ele>705.5999755859375</ele>
        <time>2022-06-04T11:22:33.000Z</time>
      </trkpt>
      <trkpt lat="43.43251042999327182769775390625" lon="-5.59234905056655406951904296875">
        <ele>705.79998779296875</ele>
        <time>2022-06-04T11:22:35.000Z</time>
      </trkpt>
      <trkpt lat="43.43253314495086669921875" lon="-5.59240378439426422119140625">
        <ele>706.20001220703125</ele>
        <time>2022-06-04T11:22:37.000Z</time>
      </trkpt>
      <trkpt lat="43.43254395760595798492431640625" lon="-5.59243203140795230865478515625">
        <ele>706.4000244140625</ele>
        <time>2022-06-04T11:22:38.000Z</time>
      </trkpt>
      <trkpt lat="43.43255502171814441680908203125" lon="-5.59246036224067211151123046875">
        <ele>706.5999755859375</ele>
        <time>2022-06-04T11:22:39.000Z</time>
      </trkpt>
      <trkpt lat="43.43258134089410305023193359375" lon="-5.59251165948808193206787109375">
        <ele>706.79998779296875</ele>
        <time>2022-06-04T11:22:40.000Z</time>
      </trkpt>
      <trkpt lat="43.43258134089410305023193359375" lon="-5.59251165948808193206787109375">
        <ele>707</ele>
        <time>2022-06-04T11:22:41.000Z</time>
      </trkpt>
      <trkpt lat="43.43261562287807464599609375" lon="-5.592554323375225067138671875">
        <ele>707.4000244140625</ele>
        <time>2022-06-04T11:22:43.000Z</time>
      </trkpt>
      <trkpt lat="43.432654179632663726806640625" lon="-5.59259514324367046356201171875">
        <ele>707.5999755859375</ele>
        <time>2022-06-04T11:22:45.000Z</time>
      </trkpt>
      <trkpt lat="43.4326908923685550689697265625" lon="-5.5926332809031009674072265625">
        <ele>707.79998779296875</ele>
        <time>2022-06-04T11:22:47.000Z</time>
      </trkpt>
      <trkpt lat="43.43272693455219268798828125" lon="-5.5926681496202945709228515625">
        <ele>708.20001220703125</ele>
        <time>2022-06-04T11:22:49.000Z</time>
      </trkpt>
      <trkpt lat="43.43275752849876880645751953125" lon="-5.592706203460693359375">
        <ele>708.5999755859375</ele>
        <time>2022-06-04T11:22:51.000Z</time>
      </trkpt>
      <trkpt lat="43.43278015963733196258544921875" lon="-5.59274232946336269378662109375">
        <ele>708.79998779296875</ele>
        <time>2022-06-04T11:22:53.000Z</time>
      </trkpt>
      <trkpt lat="43.43280379660427570343017578125" lon="-5.5927754379808902740478515625">
        <ele>709</ele>
        <time>2022-06-04T11:22:55.000Z</time>
      </trkpt>
      <trkpt lat="43.432809077203273773193359375" lon="-5.59278490953147411346435546875">
        <ele>709.20001220703125</ele>
        <time>2022-06-04T11:22:56.000Z</time>
      </trkpt>
      <trkpt lat="43.4328092448413372039794921875" lon="-5.592786334455013275146484375">
        <ele>709.20001220703125</ele>
        <time>2022-06-04T11:22:57.000Z</time>
      </trkpt>
      <trkpt lat="43.432857356965541839599609375" lon="-5.59281676076352596282958984375">
        <ele>709.79998779296875</ele>
        <time>2022-06-04T11:30:55.000Z</time>
      </trkpt>
      <trkpt lat="43.4328568540513515472412109375" lon="-5.5928776971995830535888671875">
        <ele>709.79998779296875</ele>
        <time>2022-06-04T11:30:57.000Z</time>
      </trkpt>
      <trkpt lat="43.4328347258269786834716796875" lon="-5.59291918762028217315673828125">
        <ele>709.79998779296875</ele>
        <time>2022-06-04T11:30:59.000Z</time>
      </trkpt>
      <trkpt lat="43.43281134031713008880615234375" lon="-5.592955984175205230712890625">
        <ele>709.79998779296875</ele>
        <time>2022-06-04T11:31:01.000Z</time>
      </trkpt>
      <trkpt lat="43.4327737055718898773193359375" lon="-5.5930024199187755584716796875">
        <ele>709.79998779296875</ele>
        <time>2022-06-04T11:31:03.000Z</time>
      </trkpt>
      <trkpt lat="43.43274914659559726715087890625" lon="-5.5930285714566707611083984375">
        <ele>709.5999755859375</ele>
        <time>2022-06-04T11:31:04.000Z</time>
      </trkpt>
      <trkpt lat="43.432725258171558380126953125" lon="-5.5930557288229465484619140625">
        <ele>709.4000244140625</ele>
        <time>2022-06-04T11:31:05.000Z</time>
      </trkpt>
      <trkpt lat="43.4326727874577045440673828125" lon="-5.59311381541192531585693359375">
        <ele>709</ele>
        <time>2022-06-04T11:31:07.000Z</time>
      </trkpt>
      <trkpt lat="43.43259542249143123626708984375" lon="-5.59319193474948406219482421875">
        <ele>708.79998779296875</ele>
        <time>2022-06-04T11:31:09.000Z</time>
      </trkpt>
      <trkpt lat="43.43249182216823101043701171875" lon="-5.59326586313545703887939453125">
        <ele>708.79998779296875</ele>
        <time>2022-06-04T11:31:10.000Z</time>
      </trkpt>
      <trkpt lat="43.43249182216823101043701171875" lon="-5.59326586313545703887939453125">
        <ele>708.5999755859375</ele>
        <time>2022-06-04T11:31:11.000Z</time>
      </trkpt>
      <trkpt lat="43.43236492015421390533447265625" lon="-5.5933056771755218505859375">
        <ele>708.4000244140625</ele>
        <time>2022-06-04T11:31:12.000Z</time>
      </trkpt>
      <trkpt lat="43.43236492015421390533447265625" lon="-5.5933056771755218505859375">
        <ele>708.20001220703125</ele>
        <time>2022-06-04T11:31:13.000Z</time>
      </trkpt>
      <trkpt lat="43.43222561292350292205810546875" lon="-5.593324787914752960205078125">
        <ele>707.5999755859375</ele>
        <time>2022-06-04T11:31:15.000Z</time>
      </trkpt>
      <trkpt lat="43.4321242757141590118408203125" lon="-5.59333945624530315399169921875">
        <ele>706.5999755859375</ele>
        <time>2022-06-04T11:31:17.000Z</time>
      </trkpt>
      <trkpt lat="43.43206484802067279815673828125" lon="-5.59335622005164623260498046875">
        <ele>706.20001220703125</ele>
        <time>2022-06-04T11:31:18.000Z</time>
      </trkpt>
      <trkpt lat="43.43206484802067279815673828125" lon="-5.59335622005164623260498046875">
        <ele>705.5999755859375</ele>
        <time>2022-06-04T11:31:19.000Z</time>
      </trkpt>
      <trkpt lat="43.432047329843044281005859375" lon="-5.59336401522159576416015625">
        <ele>705.20001220703125</ele>
        <time>2022-06-04T11:31:20.000Z</time>
      </trkpt>
      <trkpt lat="43.4320337511599063873291015625" lon="-5.5933700501918792724609375">
        <ele>704.79998779296875</ele>
        <time>2022-06-04T11:31:21.000Z</time>
      </trkpt>
      <trkpt lat="43.432005085051059722900390625" lon="-5.5933822877705097198486328125">
        <ele>703</ele>
        <time>2022-06-04T11:31:23.000Z</time>
      </trkpt>
      <trkpt lat="43.43195906840264797210693359375" lon="-5.5933968722820281982421875">
        <ele>701.20001220703125</ele>
        <time>2022-06-04T11:31:25.000Z</time>
      </trkpt>
      <trkpt lat="43.431887738406658172607421875" lon="-5.59342444874346256256103515625">
        <ele>699.79998779296875</ele>
        <time>2022-06-04T11:31:27.000Z</time>
      </trkpt>
      <trkpt lat="43.43178422190248966217041015625" lon="-5.5934585630893707275390625">
        <ele>698.79998779296875</ele>
        <time>2022-06-04T11:31:29.000Z</time>
      </trkpt>
      <trkpt lat="43.43168380670249462127685546875" lon="-5.59348681010305881500244140625">
        <ele>698.5999755859375</ele>
        <time>2022-06-04T11:31:30.000Z</time>
      </trkpt>
      <trkpt lat="43.43168380670249462127685546875" lon="-5.59348681010305881500244140625">
        <ele>698.4000244140625</ele>
        <time>2022-06-04T11:31:31.000Z</time>
      </trkpt>
      <trkpt lat="43.43165212310850620269775390625" lon="-5.59350810013711452484130859375">
        <ele>698</ele>
        <time>2022-06-04T11:31:32.000Z</time>
      </trkpt>
      <trkpt lat="43.43163334764540195465087890625" lon="-5.593534000217914581298828125">
        <ele>697.5999755859375</ele>
        <time>2022-06-04T11:31:33.000Z</time>
      </trkpt>
      <trkpt lat="43.4316253848373889923095703125" lon="-5.59358890168368816375732421875">
        <ele>697.4000244140625</ele>
        <time>2022-06-04T11:31:34.000Z</time>
      </trkpt>
      <trkpt lat="43.4316253848373889923095703125" lon="-5.59358890168368816375732421875">
        <ele>697</ele>
        <time>2022-06-04T11:31:35.000Z</time>
      </trkpt>
      <trkpt lat="43.4316545538604259490966796875" lon="-5.59363801963627338409423828125">
        <ele>696.5999755859375</ele>
        <time>2022-06-04T11:31:36.000Z</time>
      </trkpt>
      <trkpt lat="43.4316545538604259490966796875" lon="-5.59363801963627338409423828125">
        <ele>696.20001220703125</ele>
        <time>2022-06-04T11:31:37.000Z</time>
      </trkpt>
      <trkpt lat="43.4316957928240299224853515625" lon="-5.59369384311139583587646484375">
        <ele>694.5999755859375</ele>
        <time>2022-06-04T11:31:39.000Z</time>
      </trkpt>
      <trkpt lat="43.4317673742771148681640625" lon="-5.59377615340054035186767578125">
        <ele>693.4000244140625</ele>
        <time>2022-06-04T11:31:41.000Z</time>
      </trkpt>
      <trkpt lat="43.43179293908178806304931640625" lon="-5.5938077531754970550537109375">
        <ele>692.79998779296875</ele>
        <time>2022-06-04T11:31:43.000Z</time>
      </trkpt>
      <trkpt lat="43.431842140853404998779296875" lon="-5.59385661967098712921142578125">
        <ele>692.5999755859375</ele>
        <time>2022-06-04T11:31:45.000Z</time>
      </trkpt>
      <trkpt lat="43.43188027851283550262451171875" lon="-5.59390573762357234954833984375">
        <ele>692.5999755859375</ele>
        <time>2022-06-04T11:31:46.000Z</time>
      </trkpt>
      <trkpt lat="43.43190089799463748931884765625" lon="-5.59392820112407207489013671875">
        <ele>692.4000244140625</ele>
        <time>2022-06-04T11:31:47.000Z</time>
      </trkpt>
      <trkpt lat="43.4319214336574077606201171875" lon="-5.593950413167476654052734375">
        <ele>692.4000244140625</ele>
        <time>2022-06-04T11:31:49.000Z</time>
      </trkpt>
      <trkpt lat="43.4319626726210117340087890625" lon="-5.5939820967614650726318359375">
        <ele>692.20001220703125</ele>
        <time>2022-06-04T11:31:51.000Z</time>
      </trkpt>
      <trkpt lat="43.432013131678104400634765625" lon="-5.59400866739451885223388671875">
        <ele>692.20001220703125</ele>
        <time>2022-06-04T11:31:53.000Z</time>
      </trkpt>
      <trkpt lat="43.43207205645740032196044921875" lon="-5.59404906816780567169189453125">
        <ele>692.20001220703125</ele>
        <time>2022-06-04T11:31:55.000Z</time>
      </trkpt>
      <trkpt lat="43.43213994987308979034423828125" lon="-5.59408913366496562957763671875">
        <ele>692.20001220703125</ele>
        <time>2022-06-04T11:31:57.000Z</time>
      </trkpt>
      <trkpt lat="43.43221840448677539825439453125" lon="-5.594128780066967010498046875">
        <ele>692.20001220703125</ele>
        <time>2022-06-04T11:31:58.000Z</time>
      </trkpt>
      <trkpt lat="43.43221840448677539825439453125" lon="-5.594128780066967010498046875">
        <ele>692.20001220703125</ele>
        <time>2022-06-04T11:31:59.000Z</time>
      </trkpt>
      <trkpt lat="43.432336337864398956298828125" lon="-5.59415903873741626739501953125">
        <ele>692</ele>
        <time>2022-06-04T11:32:01.000Z</time>
      </trkpt>
      <trkpt lat="43.4323757328093051910400390625" lon="-5.59416339732706546783447265625">
        <ele>692</ele>
        <time>2022-06-04T11:32:03.000Z</time>
      </trkpt>
      <trkpt lat="43.43244488351047039031982421875" lon="-5.59416959993541240692138671875">
        <ele>691.79998779296875</ele>
        <time>2022-06-04T11:32:05.000Z</time>
      </trkpt>
      <trkpt lat="43.432520739734172821044921875" lon="-5.59417479671537876129150390625">
        <ele>691.79998779296875</ele>
        <time>2022-06-04T11:32:07.000Z</time>
      </trkpt>
      <trkpt lat="43.4325976856052875518798828125" lon="-5.59417664073407649993896484375">
        <ele>691.79998779296875</ele>
        <time>2022-06-04T11:32:09.000Z</time>
      </trkpt>
      <trkpt lat="43.4326721169054508209228515625" lon="-5.594165325164794921875">
        <ele>691.5999755859375</ele>
        <time>2022-06-04T11:32:11.000Z</time>
      </trkpt>
      <trkpt lat="43.43276239000260829925537109375" lon="-5.59414680115878582000732421875">
        <ele>691.4000244140625</ele>
        <time>2022-06-04T11:32:13.000Z</time>
      </trkpt>
      <trkpt lat="43.43280765227973461151123046875" lon="-5.59414277784526348114013671875">
        <ele>691.4000244140625</ele>
        <time>2022-06-04T11:32:14.000Z</time>
      </trkpt>
      <trkpt lat="43.4328548423945903778076171875" lon="-5.59414361603558063507080078125">
        <ele>691.20001220703125</ele>
        <time>2022-06-04T11:32:15.000Z</time>
      </trkpt>
      <trkpt lat="43.43296556733548641204833984375" lon="-5.59413422830402851104736328125">
        <ele>690.79998779296875</ele>
        <time>2022-06-04T11:32:17.000Z</time>
      </trkpt>
      <trkpt lat="43.43308207578957080841064453125" lon="-5.59413322247564792633056640625">
        <ele>690.4000244140625</ele>
        <time>2022-06-04T11:32:19.000Z</time>
      </trkpt>
      <trkpt lat="43.43314225785434246063232421875" lon="-5.59413573704659938812255859375">
        <ele>690.20001220703125</ele>
        <time>2022-06-04T11:32:20.000Z</time>
      </trkpt>
      <trkpt lat="43.4331996738910675048828125" lon="-5.59414227493107318878173828125">
        <ele>690</ele>
        <time>2022-06-04T11:32:21.000Z</time>
      </trkpt>
      <trkpt lat="43.43330629169940948486328125" lon="-5.59415970928966999053955078125">
        <ele>689.79998779296875</ele>
        <time>2022-06-04T11:32:22.000Z</time>
      </trkpt>
      <trkpt lat="43.43330629169940948486328125" lon="-5.59415970928966999053955078125">
        <ele>689.4000244140625</ele>
        <time>2022-06-04T11:32:23.000Z</time>
      </trkpt>
      <trkpt lat="43.43339723534882068634033203125" lon="-5.59417672455310821533203125">
        <ele>689</ele>
        <time>2022-06-04T11:32:24.000Z</time>
      </trkpt>
      <trkpt lat="43.43339723534882068634033203125" lon="-5.59417672455310821533203125">
        <ele>688.5999755859375</ele>
        <time>2022-06-04T11:32:25.000Z</time>
      </trkpt>
      <trkpt lat="43.4334881789982318878173828125" lon="-5.5941975116729736328125">
        <ele>687.79998779296875</ele>
        <time>2022-06-04T11:32:27.000Z</time>
      </trkpt>
      <trkpt lat="43.4335880912840366363525390625" lon="-5.59423950500786304473876953125">
        <ele>687</ele>
        <time>2022-06-04T11:32:29.000Z</time>
      </trkpt>
      <trkpt lat="43.433686830103397369384765625" lon="-5.5942825041711330413818359375">
        <ele>686.5999755859375</ele>
        <time>2022-06-04T11:32:30.000Z</time>
      </trkpt>
      <trkpt lat="43.433686830103397369384765625" lon="-5.5942825041711330413818359375">
        <ele>686.20001220703125</ele>
        <time>2022-06-04T11:32:31.000Z</time>
      </trkpt>
      <trkpt lat="43.43373267911374568939208984375" lon="-5.5943048000335693359375">
        <ele>685.79998779296875</ele>
        <time>2022-06-04T11:32:32.000Z</time>
      </trkpt>
      <trkpt lat="43.4337778575718402862548828125" lon="-5.5943287722766399383544921875">
        <ele>685.5999755859375</ele>
        <time>2022-06-04T11:32:33.000Z</time>
      </trkpt>
      <trkpt lat="43.43391205184161663055419921875" lon="-5.59440932236611843109130859375">
        <ele>685.20001220703125</ele>
        <time>2022-06-04T11:32:35.000Z</time>
      </trkpt>
      <trkpt lat="43.4339555539190769195556640625" lon="-5.59443019330501556396484375">
        <ele>685</ele>
        <time>2022-06-04T11:32:36.000Z</time>
      </trkpt>
      <trkpt lat="43.4339555539190769195556640625" lon="-5.59443019330501556396484375">
        <ele>684.79998779296875</ele>
        <time>2022-06-04T11:32:37.000Z</time>
      </trkpt>
      <trkpt lat="43.43404716812074184417724609375" lon="-5.594467408955097198486328125">
        <ele>684.5999755859375</ele>
        <time>2022-06-04T11:32:39.000Z</time>
      </trkpt>
      <trkpt lat="43.43412662856280803680419921875" lon="-5.59450370259582996368408203125">
        <ele>684.4000244140625</ele>
        <time>2022-06-04T11:32:40.000Z</time>
      </trkpt>
      <trkpt lat="43.43412662856280803680419921875" lon="-5.59450370259582996368408203125">
        <ele>684.4000244140625</ele>
        <time>2022-06-04T11:32:41.000Z</time>
      </trkpt>
      <trkpt lat="43.43419586308300495147705078125" lon="-5.59454016387462615966796875">
        <ele>684.20001220703125</ele>
        <time>2022-06-04T11:32:43.000Z</time>
      </trkpt>
      <trkpt lat="43.43425068072974681854248046875" lon="-5.5945715121924877166748046875">
        <ele>684.20001220703125</ele>
        <time>2022-06-04T11:32:45.000Z</time>
      </trkpt>
      <trkpt lat="43.434298038482666015625" lon="-5.5946038663387298583984375">
        <ele>684.20001220703125</ele>
        <time>2022-06-04T11:32:47.000Z</time>
      </trkpt>
      <trkpt lat="43.43433751724660396575927734375" lon="-5.59463328681886196136474609375">
        <ele>684.20001220703125</ele>
        <time>2022-06-04T11:32:49.000Z</time>
      </trkpt>
      <trkpt lat="43.434360735118389129638671875" lon="-5.59465910308063030242919921875">
        <ele>684</ele>
        <time>2022-06-04T11:32:51.000Z</time>
      </trkpt>
      <trkpt lat="43.4344008006155490875244140625" lon="-5.59469128958880901336669921875">
        <ele>684</ele>
        <time>2022-06-04T11:32:53.000Z</time>
      </trkpt>
      <trkpt lat="43.4344463981688022613525390625" lon="-5.59472716413438320159912109375">
        <ele>684</ele>
        <time>2022-06-04T11:32:54.000Z</time>
      </trkpt>
      <trkpt lat="43.4344463981688022613525390625" lon="-5.59472716413438320159912109375">
        <ele>684</ele>
        <time>2022-06-04T11:32:55.000Z</time>
      </trkpt>
      <trkpt lat="43.434497527778148651123046875" lon="-5.59474392794072628021240234375">
        <ele>683.79998779296875</ele>
        <time>2022-06-04T11:32:57.000Z</time>
      </trkpt>
      <trkpt lat="43.43453901819884777069091796875" lon="-5.5947579257190227508544921875">
        <ele>683.5999755859375</ele>
        <time>2022-06-04T11:32:59.000Z</time>
      </trkpt>
      <trkpt lat="43.43458235263824462890625" lon="-5.59477712027728557586669921875">
        <ele>683.4000244140625</ele>
        <time>2022-06-04T11:33:00.000Z</time>
      </trkpt>
      <trkpt lat="43.43458235263824462890625" lon="-5.59477712027728557586669921875">
        <ele>683.4000244140625</ele>
        <time>2022-06-04T11:33:01.000Z</time>
      </trkpt>
      <trkpt lat="43.434631638228893280029296875" lon="-5.594813413918018341064453125">
        <ele>683</ele>
        <time>2022-06-04T11:33:03.000Z</time>
      </trkpt>
      <trkpt lat="43.434687294065952301025390625" lon="-5.5948648788034915924072265625">
        <ele>683</ele>
        <time>2022-06-04T11:33:05.000Z</time>
      </trkpt>
      <trkpt lat="43.43475275672972202301025390625" lon="-5.5949336104094982147216796875">
        <ele>682.79998779296875</ele>
        <time>2022-06-04T11:33:07.000Z</time>
      </trkpt>
      <trkpt lat="43.4348209016025066375732421875" lon="-5.5949912779033184051513671875">
        <ele>682.79998779296875</ele>
        <time>2022-06-04T11:33:09.000Z</time>
      </trkpt>
      <trkpt lat="43.43490379862487316131591796875" lon="-5.59505607001483440399169921875">
        <ele>682.5999755859375</ele>
        <time>2022-06-04T11:33:11.000Z</time>
      </trkpt>
      <trkpt lat="43.43498761765658855438232421875" lon="-5.595128238201141357421875">
        <ele>682.5999755859375</ele>
        <time>2022-06-04T11:33:12.000Z</time>
      </trkpt>
      <trkpt lat="43.43498761765658855438232421875" lon="-5.595128238201141357421875">
        <ele>682.4000244140625</ele>
        <time>2022-06-04T11:33:13.000Z</time>
      </trkpt>
      <trkpt lat="43.43505618162453174591064453125" lon="-5.59521071612834930419921875">
        <ele>682.4000244140625</ele>
        <time>2022-06-04T11:33:15.000Z</time>
      </trkpt>
      <trkpt lat="43.43512457795441150665283203125" lon="-5.595290847122669219970703125">
        <ele>682.20001220703125</ele>
        <time>2022-06-04T11:33:17.000Z</time>
      </trkpt>
      <trkpt lat="43.43520806171000003814697265625" lon="-5.59537944383919239044189453125">
        <ele>682</ele>
        <time>2022-06-04T11:33:18.000Z</time>
      </trkpt>
      <trkpt lat="43.43520806171000003814697265625" lon="-5.59537944383919239044189453125">
        <ele>682</ele>
        <time>2022-06-04T11:33:19.000Z</time>
      </trkpt>
      <trkpt lat="43.4352969937026500701904296875" lon="-5.595479942858219146728515625">
        <ele>681.79998779296875</ele>
        <time>2022-06-04T11:33:21.000Z</time>
      </trkpt>
      <trkpt lat="43.4353875182569026947021484375" lon="-5.5955800227820873260498046875">
        <ele>681.5999755859375</ele>
        <time>2022-06-04T11:33:23.000Z</time>
      </trkpt>
      <trkpt lat="43.435474522411823272705078125" lon="-5.59566677547991275787353515625">
        <ele>681.5999755859375</ele>
        <time>2022-06-04T11:33:25.000Z</time>
      </trkpt>
      <trkpt lat="43.43556043691933155059814453125" lon="-5.59576383791863918304443359375">
        <ele>681.20001220703125</ele>
        <time>2022-06-04T11:33:27.000Z</time>
      </trkpt>
      <trkpt lat="43.43565179966390132904052734375" lon="-5.59586995281279087066650390625">
        <ele>680.79998779296875</ele>
        <time>2022-06-04T11:33:29.000Z</time>
      </trkpt>
      <trkpt lat="43.435736037790775299072265625" lon="-5.595959387719631195068359375">
        <ele>680.5999755859375</ele>
        <time>2022-06-04T11:33:31.000Z</time>
      </trkpt>
      <trkpt lat="43.43577082268893718719482421875" lon="-5.59600255452096462249755859375">
        <ele>680.20001220703125</ele>
        <time>2022-06-04T11:33:32.000Z</time>
      </trkpt>
      <trkpt lat="43.4358143247663974761962890625" lon="-5.59604312293231487274169921875">
        <ele>679.79998779296875</ele>
        <time>2022-06-04T11:33:33.000Z</time>
      </trkpt>
      <trkpt lat="43.43590895645320415496826171875" lon="-5.59614622034132480621337890625">
        <ele>678.5999755859375</ele>
        <time>2022-06-04T11:33:35.000Z</time>
      </trkpt>
      <trkpt lat="43.43599696643650531768798828125" lon="-5.59623892419040203094482421875">
        <ele>678.20001220703125</ele>
        <time>2022-06-04T11:33:36.000Z</time>
      </trkpt>
      <trkpt lat="43.436044156551361083984375" lon="-5.59627748094499111175537109375">
        <ele>678</ele>
        <time>2022-06-04T11:33:37.000Z</time>
      </trkpt>
      <trkpt lat="43.436044156551361083984375" lon="-5.59627748094499111175537109375">
        <ele>677</ele>
        <time>2022-06-04T11:33:38.000Z</time>
      </trkpt>
      <trkpt lat="43.4360889159142971038818359375" lon="-5.59631067328155040740966796875">
        <ele>676.5999755859375</ele>
        <time>2022-06-04T11:33:39.000Z</time>
      </trkpt>
      <trkpt lat="43.436173908412456512451171875" lon="-5.59635576792061328887939453125">
        <ele>676.4000244140625</ele>
        <time>2022-06-04T11:33:40.000Z</time>
      </trkpt>
      <trkpt lat="43.436173908412456512451171875" lon="-5.59635576792061328887939453125">
        <ele>676</ele>
        <time>2022-06-04T11:33:41.000Z</time>
      </trkpt>
      <trkpt lat="43.4362552128732204437255859375" lon="-5.59640337713062763214111328125">
        <ele>675.20001220703125</ele>
        <time>2022-06-04T11:33:43.000Z</time>
      </trkpt>
      <trkpt lat="43.43629754148423671722412109375" lon="-5.59641930274665355682373046875">
        <ele>674.4000244140625</ele>
        <time>2022-06-04T11:33:44.000Z</time>
      </trkpt>
      <trkpt lat="43.43634062446653842926025390625" lon="-5.59643070213496685028076171875">
        <ele>674</ele>
        <time>2022-06-04T11:33:45.000Z</time>
      </trkpt>
      <trkpt lat="43.4364317357540130615234375" lon="-5.5964379943907260894775390625">
        <ele>673</ele>
        <time>2022-06-04T11:33:47.000Z</time>
      </trkpt>
      <trkpt lat="43.43652888201177120208740234375" lon="-5.59642081148922443389892578125">
        <ele>672.20001220703125</ele>
        <time>2022-06-04T11:33:48.000Z</time>
      </trkpt>
      <trkpt lat="43.43652888201177120208740234375" lon="-5.59642081148922443389892578125">
        <ele>671.5999755859375</ele>
        <time>2022-06-04T11:33:49.000Z</time>
      </trkpt>
      <trkpt lat="43.43662175349891185760498046875" lon="-5.59640161693096160888671875">
        <ele>670.79998779296875</ele>
        <time>2022-06-04T11:33:51.000Z</time>
      </trkpt>
      <trkpt lat="43.4366739727556705474853515625" lon="-5.59638082981109619140625">
        <ele>670.79998779296875</ele>
        <time>2022-06-04T11:33:52.000Z</time>
      </trkpt>
      <trkpt lat="43.43672451563179492950439453125" lon="-5.5963471345603466033935546875">
        <ele>670.5999755859375</ele>
        <time>2022-06-04T11:33:53.000Z</time>
      </trkpt>
      <trkpt lat="43.43680548481643199920654296875" lon="-5.5962663330137729644775390625">
        <ele>670.4000244140625</ele>
        <time>2022-06-04T11:33:55.000Z</time>
      </trkpt>
      <trkpt lat="43.43688159249722957611083984375" lon="-5.5961982719600200653076171875">
        <ele>670</ele>
        <time>2022-06-04T11:33:57.000Z</time>
      </trkpt>
      <trkpt lat="43.436922915279865264892578125" lon="-5.59616415761411190032958984375">
        <ele>669.79998779296875</ele>
        <time>2022-06-04T11:33:58.000Z</time>
      </trkpt>
      <trkpt lat="43.43696692027151584625244140625" lon="-5.59612928889691829681396484375">
        <ele>669.5999755859375</ele>
        <time>2022-06-04T11:33:59.000Z</time>
      </trkpt>
      <trkpt lat="43.43705023638904094696044921875" lon="-5.59607966803014278411865234375">
        <ele>669.4000244140625</ele>
        <time>2022-06-04T11:34:00.000Z</time>
      </trkpt>
      <trkpt lat="43.43705023638904094696044921875" lon="-5.59607966803014278411865234375">
        <ele>669.20001220703125</ele>
        <time>2022-06-04T11:34:01.000Z</time>
      </trkpt>
      <trkpt lat="43.43714260496199131011962890625" lon="-5.59604194946587085723876953125">
        <ele>669</ele>
        <time>2022-06-04T11:34:03.000Z</time>
      </trkpt>
      <trkpt lat="43.437237404286861419677734375" lon="-5.596015714108943939208984375">
        <ele>668.5999755859375</ele>
        <time>2022-06-04T11:34:04.000Z</time>
      </trkpt>
      <trkpt lat="43.437237404286861419677734375" lon="-5.596015714108943939208984375">
        <ele>668.4000244140625</ele>
        <time>2022-06-04T11:34:05.000Z</time>
      </trkpt>
      <trkpt lat="43.43731594271957874298095703125" lon="-5.59596349485218524932861328125">
        <ele>668.4000244140625</ele>
        <time>2022-06-04T11:34:06.000Z</time>
      </trkpt>
      <trkpt lat="43.43731594271957874298095703125" lon="-5.59596349485218524932861328125">
        <ele>668.20001220703125</ele>
        <time>2022-06-04T11:34:07.000Z</time>
      </trkpt>
      <trkpt lat="43.4373482130467891693115234375" lon="-5.59592879377305507659912109375">
        <ele>668.20001220703125</ele>
        <time>2022-06-04T11:34:08.000Z</time>
      </trkpt>
      <trkpt lat="43.43737930990755558013916015625" lon="-5.5958925001323223114013671875">
        <ele>668</ele>
        <time>2022-06-04T11:34:09.000Z</time>
      </trkpt>
      <trkpt lat="43.437447287142276763916015625" lon="-5.59580256231129169464111328125">
        <ele>667.79998779296875</ele>
        <time>2022-06-04T11:34:11.000Z</time>
      </trkpt>
      <trkpt lat="43.43751375563442707061767578125" lon="-5.59571689926087856292724609375">
        <ele>667.79998779296875</ele>
        <time>2022-06-04T11:34:12.000Z</time>
      </trkpt>
      <trkpt lat="43.43751375563442707061767578125" lon="-5.59571689926087856292724609375">
        <ele>667.5999755859375</ele>
        <time>2022-06-04T11:34:13.000Z</time>
      </trkpt>
      <trkpt lat="43.4375782124698162078857421875" lon="-5.5956635065376758575439453125">
        <ele>667.4000244140625</ele>
        <time>2022-06-04T11:34:15.000Z</time>
      </trkpt>
      <trkpt lat="43.43762858770787715911865234375" lon="-5.59564867056906223297119140625">
        <ele>667.20001220703125</ele>
        <time>2022-06-04T11:34:16.000Z</time>
      </trkpt>
      <trkpt lat="43.43762858770787715911865234375" lon="-5.59564867056906223297119140625">
        <ele>667</ele>
        <time>2022-06-04T11:34:17.000Z</time>
      </trkpt>
      <trkpt lat="43.43766898848116397857666015625" lon="-5.59562285430729389190673828125">
        <ele>666.4000244140625</ele>
        <time>2022-06-04T11:34:18.000Z</time>
      </trkpt>
      <trkpt lat="43.43766898848116397857666015625" lon="-5.59562285430729389190673828125">
        <ele>666.20001220703125</ele>
        <time>2022-06-04T11:34:19.000Z</time>
      </trkpt>
      <trkpt lat="43.437680639326572418212890625" lon="-5.59560365974903106689453125">
        <ele>666</ele>
        <time>2022-06-04T11:34:20.000Z</time>
      </trkpt>
      <trkpt lat="43.43769430182874202728271484375" lon="-5.59558488428592681884765625">
        <ele>665.79998779296875</ele>
        <time>2022-06-04T11:34:21.000Z</time>
      </trkpt>
      <trkpt lat="43.43776705674827098846435546875" lon="-5.59552210383117198944091796875">
        <ele>665.20001220703125</ele>
        <time>2022-06-04T11:34:23.000Z</time>
      </trkpt>
      <trkpt lat="43.43779689632356166839599609375" lon="-5.59549679048359394073486328125">
        <ele>664.79998779296875</ele>
        <time>2022-06-04T11:34:24.000Z</time>
      </trkpt>
      <trkpt lat="43.43779689632356166839599609375" lon="-5.59549679048359394073486328125">
        <ele>664.79998779296875</ele>
        <time>2022-06-04T11:34:25.000Z</time>
      </trkpt>
      <trkpt lat="43.43791457824409008026123046875" lon="-5.595445074141025543212890625">
        <ele>664.4000244140625</ele>
        <time>2022-06-04T11:34:27.000Z</time>
      </trkpt>
      <trkpt lat="43.437986411154270172119140625" lon="-5.59539310634136199951171875">
        <ele>664.20001220703125</ele>
        <time>2022-06-04T11:34:29.000Z</time>
      </trkpt>
      <trkpt lat="43.4380526281893253326416015625" lon="-5.59532781131565570831298828125">
        <ele>664</ele>
        <time>2022-06-04T11:34:31.000Z</time>
      </trkpt>
      <trkpt lat="43.438109457492828369140625" lon="-5.5952675454318523406982421875">
        <ele>663.79998779296875</ele>
        <time>2022-06-04T11:34:33.000Z</time>
      </trkpt>
      <trkpt lat="43.43815438449382781982421875" lon="-5.59519269503653049468994140625">
        <ele>663.4000244140625</ele>
        <time>2022-06-04T11:34:35.000Z</time>
      </trkpt>
      <trkpt lat="43.43816720880568027496337890625" lon="-5.5951575748622417449951171875">
        <ele>663.20001220703125</ele>
        <time>2022-06-04T11:34:36.000Z</time>
      </trkpt>
      <trkpt lat="43.43817726708948612213134765625" lon="-5.59512111358344554901123046875">
        <ele>663.20001220703125</ele>
        <time>2022-06-04T11:34:37.000Z</time>
      </trkpt>
      <trkpt lat="43.43817726708948612213134765625" lon="-5.59512111358344554901123046875">
        <ele>663</ele>
        <time>2022-06-04T11:34:38.000Z</time>
      </trkpt>
      <trkpt lat="43.4382019937038421630859375" lon="-5.5950506217777729034423828125">
        <ele>663</ele>
        <time>2022-06-04T11:34:39.000Z</time>
      </trkpt>
      <trkpt lat="43.43821682967245578765869140625" lon="-5.59501483105123043060302734375">
        <ele>663</ele>
        <time>2022-06-04T11:34:41.000Z</time>
      </trkpt>
      <trkpt lat="43.43823543749749660491943359375" lon="-5.59494517743587493896484375">
        <ele>662.79998779296875</ele>
        <time>2022-06-04T11:34:43.000Z</time>
      </trkpt>
      <trkpt lat="43.438260667026042938232421875" lon="-5.594870746135711669921875">
        <ele>662.5999755859375</ele>
        <time>2022-06-04T11:34:45.000Z</time>
      </trkpt>
      <trkpt lat="43.43828723765909671783447265625" lon="-5.5948001705110073089599609375">
        <ele>662.5999755859375</ele>
        <time>2022-06-04T11:34:47.000Z</time>
      </trkpt>
      <trkpt lat="43.438316322863101959228515625" lon="-5.594730265438556671142578125">
        <ele>662.5999755859375</ele>
        <time>2022-06-04T11:34:49.000Z</time>
      </trkpt>
      <trkpt lat="43.43835613690316677093505859375" lon="-5.594663210213184356689453125">
        <ele>662.5999755859375</ele>
        <time>2022-06-04T11:34:51.000Z</time>
      </trkpt>
      <trkpt lat="43.4383999742567539215087890625" lon="-5.5945859290659427642822265625">
        <ele>662.5999755859375</ele>
        <time>2022-06-04T11:34:52.000Z</time>
      </trkpt>
      <trkpt lat="43.4383999742567539215087890625" lon="-5.5945859290659427642822265625">
        <ele>662.5999755859375</ele>
        <time>2022-06-04T11:34:53.000Z</time>
      </trkpt>
      <trkpt lat="43.438467867672443389892578125" lon="-5.59449884109199047088623046875">
        <ele>662.79998779296875</ele>
        <time>2022-06-04T11:34:55.000Z</time>
      </trkpt>
      <trkpt lat="43.43849644996225833892822265625" lon="-5.594473779201507568359375">
        <ele>663</ele>
        <time>2022-06-04T11:34:57.000Z</time>
      </trkpt>
      <trkpt lat="43.43855763785541057586669921875" lon="-5.59443664737045764923095703125">
        <ele>663.5999755859375</ele>
        <time>2022-06-04T11:34:59.000Z</time>
      </trkpt>
      <trkpt lat="43.43862117268145084381103515625" lon="-5.5944089032709598541259765625">
        <ele>664</ele>
        <time>2022-06-04T11:35:01.000Z</time>
      </trkpt>
      <trkpt lat="43.43871421180665493011474609375" lon="-5.594383589923381805419921875">
        <ele>664.20001220703125</ele>
        <time>2022-06-04T11:35:03.000Z</time>
      </trkpt>
      <trkpt lat="43.4387446381151676177978515625" lon="-5.59437244199216365814208984375">
        <ele>664.20001220703125</ele>
        <time>2022-06-04T11:35:05.000Z</time>
      </trkpt>
      <trkpt lat="43.43879417516291141510009765625" lon="-5.59435081668198108673095703125">
        <ele>664.20001220703125</ele>
        <time>2022-06-04T11:35:07.000Z</time>
      </trkpt>
      <trkpt lat="43.43884916044771671295166015625" lon="-5.5943126790225505828857421875">
        <ele>664.20001220703125</ele>
        <time>2022-06-04T11:35:09.000Z</time>
      </trkpt>
      <trkpt lat="43.4389209933578968048095703125" lon="-5.5942506529390811920166015625">
        <ele>664.4000244140625</ele>
        <time>2022-06-04T11:35:11.000Z</time>
      </trkpt>
      <trkpt lat="43.43899265863001346588134765625" lon="-5.59421360492706298828125">
        <ele>664.4000244140625</ele>
        <time>2022-06-04T11:35:13.000Z</time>
      </trkpt>
      <trkpt lat="43.43907169997692108154296875" lon="-5.59418619610369205474853515625">
        <ele>664.4000244140625</ele>
        <time>2022-06-04T11:35:15.000Z</time>
      </trkpt>
      <trkpt lat="43.43916800804436206817626953125" lon="-5.5941416881978511810302734375">
        <ele>664.4000244140625</ele>
        <time>2022-06-04T11:35:16.000Z</time>
      </trkpt>
      <trkpt lat="43.43916800804436206817626953125" lon="-5.5941416881978511810302734375">
        <ele>664.4000244140625</ele>
        <time>2022-06-04T11:35:17.000Z</time>
      </trkpt>
      <trkpt lat="43.4392673335969448089599609375" lon="-5.59410120360553264617919921875">
        <ele>664.4000244140625</ele>
        <time>2022-06-04T11:35:18.000Z</time>
      </trkpt>
      <trkpt lat="43.4392673335969448089599609375" lon="-5.59410120360553264617919921875">
        <ele>664.4000244140625</ele>
        <time>2022-06-04T11:35:19.000Z</time>
      </trkpt>
      <trkpt lat="43.43937269411981105804443359375" lon="-5.5940867029130458831787109375">
        <ele>664.4000244140625</ele>
        <time>2022-06-04T11:35:21.000Z</time>
      </trkpt>
      <trkpt lat="43.4394648112356662750244140625" lon="-5.5940863676369190216064453125">
        <ele>664.4000244140625</ele>
        <time>2022-06-04T11:35:22.000Z</time>
      </trkpt>
      <trkpt lat="43.4394648112356662750244140625" lon="-5.5940863676369190216064453125">
        <ele>664.4000244140625</ele>
        <time>2022-06-04T11:35:23.000Z</time>
      </trkpt>
      <trkpt lat="43.439540751278400421142578125" lon="-5.594097264111042022705078125">
        <ele>664.4000244140625</ele>
        <time>2022-06-04T11:35:25.000Z</time>
      </trkpt>
      <trkpt lat="43.43959481455385684967041015625" lon="-5.59411369264125823974609375">
        <ele>664</ele>
        <time>2022-06-04T11:35:27.000Z</time>
      </trkpt>
      <trkpt lat="43.43963353894650936126708984375" lon="-5.59412852860987186431884765625">
        <ele>664</ele>
        <time>2022-06-04T11:35:28.000Z</time>
      </trkpt>
      <trkpt lat="43.43963353894650936126708984375" lon="-5.59412852860987186431884765625">
        <ele>663.79998779296875</ele>
        <time>2022-06-04T11:35:29.000Z</time>
      </trkpt>
      <trkpt lat="43.43969556502997875213623046875" lon="-5.59415451250970363616943359375">
        <ele>662.5999755859375</ele>
        <time>2022-06-04T11:35:31.000Z</time>
      </trkpt>
      <trkpt lat="43.4397804737091064453125" lon="-5.59419139288365840911865234375">
        <ele>661.5999755859375</ele>
        <time>2022-06-04T11:35:33.000Z</time>
      </trkpt>
      <trkpt lat="43.439880721271038055419921875" lon="-5.59422424994409084320068359375">
        <ele>660.5999755859375</ele>
        <time>2022-06-04T11:35:35.000Z</time>
      </trkpt>
      <trkpt lat="43.43997803516685962677001953125" lon="-5.59428459964692592620849609375">
        <ele>660.4000244140625</ele>
        <time>2022-06-04T11:35:36.000Z</time>
      </trkpt>
      <trkpt lat="43.43997803516685962677001953125" lon="-5.59428459964692592620849609375">
        <ele>660.20001220703125</ele>
        <time>2022-06-04T11:35:37.000Z</time>
      </trkpt>
      <trkpt lat="43.440023548901081085205078125" lon="-5.594318546354770660400390625">
        <ele>660</ele>
        <time>2022-06-04T11:35:38.000Z</time>
      </trkpt>
      <trkpt lat="43.440059758722782135009765625" lon="-5.59435483999550342559814453125">
        <ele>660</ele>
        <time>2022-06-04T11:35:39.000Z</time>
      </trkpt>
      <trkpt lat="43.440112732350826263427734375" lon="-5.59441384859383106231689453125">
        <ele>659.5999755859375</ele>
        <time>2022-06-04T11:35:40.000Z</time>
      </trkpt>
      <trkpt lat="43.440112732350826263427734375" lon="-5.59441384859383106231689453125">
        <ele>659.4000244140625</ele>
        <time>2022-06-04T11:35:41.000Z</time>
      </trkpt>
      <trkpt lat="43.44016059301793575286865234375" lon="-5.59445433318614959716796875">
        <ele>658.79998779296875</ele>
        <time>2022-06-04T11:35:43.000Z</time>
      </trkpt>
      <trkpt lat="43.44021474011242389678955078125" lon="-5.59449724853038787841796875">
        <ele>658.4000244140625</ele>
        <time>2022-06-04T11:35:45.000Z</time>
      </trkpt>
      <trkpt lat="43.440244160592555999755859375" lon="-5.5945188738405704498291015625">
        <ele>658.20001220703125</ele>
        <time>2022-06-04T11:35:46.000Z</time>
      </trkpt>
      <trkpt lat="43.4402822144329547882080078125" lon="-5.59453689493238925933837890625">
        <ele>658</ele>
        <time>2022-06-04T11:35:47.000Z</time>
      </trkpt>
      <trkpt lat="43.44036611728370189666748046875" lon="-5.59458450414240360260009765625">
        <ele>658</ele>
        <time>2022-06-04T11:35:49.000Z</time>
      </trkpt>
      <trkpt lat="43.440435938537120819091796875" lon="-5.59462331235408782958984375">
        <ele>657.79998779296875</ele>
        <time>2022-06-04T11:35:51.000Z</time>
      </trkpt>
      <trkpt lat="43.44049989245831966400146484375" lon="-5.5946660600602626800537109375">
        <ele>657.79998779296875</ele>
        <time>2022-06-04T11:35:53.000Z</time>
      </trkpt>
      <trkpt lat="43.44056300818920135498046875" lon="-5.594709813594818115234375">
        <ele>657.79998779296875</ele>
        <time>2022-06-04T11:35:54.000Z</time>
      </trkpt>
      <trkpt lat="43.44056300818920135498046875" lon="-5.594709813594818115234375">
        <ele>657.79998779296875</ele>
        <time>2022-06-04T11:35:55.000Z</time>
      </trkpt>
      <trkpt lat="43.4406352601945400238037109375" lon="-5.5947552435100078582763671875">
        <ele>658</ele>
        <time>2022-06-04T11:35:57.000Z</time>
      </trkpt>
      <trkpt lat="43.440713547170162200927734375" lon="-5.594826824963092803955078125">
        <ele>658</ele>
        <time>2022-06-04T11:35:59.000Z</time>
      </trkpt>
      <trkpt lat="43.4407834522426128387451171875" lon="-5.5948792956769466400146484375">
        <ele>658</ele>
        <time>2022-06-04T11:36:00.000Z</time>
      </trkpt>
      <trkpt lat="43.4407834522426128387451171875" lon="-5.5948792956769466400146484375">
        <ele>658</ele>
        <time>2022-06-04T11:36:01.000Z</time>
      </trkpt>
      <trkpt lat="43.44085696153342723846435546875" lon="-5.5949198640882968902587890625">
        <ele>658</ele>
        <time>2022-06-04T11:36:03.000Z</time>
      </trkpt>
      <trkpt lat="43.44094765372574329376220703125" lon="-5.59496521018445491790771484375">
        <ele>658</ele>
        <time>2022-06-04T11:36:05.000Z</time>
      </trkpt>
      <trkpt lat="43.4409873001277446746826171875" lon="-5.5949896015226840972900390625">
        <ele>658</ele>
        <time>2022-06-04T11:36:06.000Z</time>
      </trkpt>
      <trkpt lat="43.44103247858583927154541015625" lon="-5.5950177647173404693603515625">
        <ele>657.79998779296875</ele>
        <time>2022-06-04T11:36:07.000Z</time>
      </trkpt>
      <trkpt lat="43.44111554324626922607421875" lon="-5.595091693103313446044921875">
        <ele>657.4000244140625</ele>
        <time>2022-06-04T11:36:09.000Z</time>
      </trkpt>
      <trkpt lat="43.44119592569768428802490234375" lon="-5.59517341665923595428466796875">
        <ele>657.4000244140625</ele>
        <time>2022-06-04T11:36:10.000Z</time>
      </trkpt>
      <trkpt lat="43.44119592569768428802490234375" lon="-5.59517341665923595428466796875">
        <ele>657.20001220703125</ele>
        <time>2022-06-04T11:36:11.000Z</time>
      </trkpt>
      <trkpt lat="43.4412784874439239501953125" lon="-5.5952578224241733551025390625">
        <ele>657.20001220703125</ele>
        <time>2022-06-04T11:36:12.000Z</time>
      </trkpt>
      <trkpt lat="43.4412784874439239501953125" lon="-5.5952578224241733551025390625">
        <ele>657.20001220703125</ele>
        <time>2022-06-04T11:36:13.000Z</time>
      </trkpt>
      <trkpt lat="43.4413574449717998504638671875" lon="-5.59533066116273403167724609375">
        <ele>657</ele>
        <time>2022-06-04T11:36:15.000Z</time>
      </trkpt>
      <trkpt lat="43.4414415992796421051025390625" lon="-5.59540450572967529296875">
        <ele>657</ele>
        <time>2022-06-04T11:36:17.000Z</time>
      </trkpt>
      <trkpt lat="43.44151510857045650482177734375" lon="-5.59547466225922107696533203125">
        <ele>657</ele>
        <time>2022-06-04T11:36:18.000Z</time>
      </trkpt>
      <trkpt lat="43.44151510857045650482177734375" lon="-5.59547466225922107696533203125">
        <ele>657</ele>
        <time>2022-06-04T11:36:19.000Z</time>
      </trkpt>
      <trkpt lat="43.4415891207754611968994140625" lon="-5.59554439969360828399658203125">
        <ele>657</ele>
        <time>2022-06-04T11:36:21.000Z</time>
      </trkpt>
      <trkpt lat="43.441661708056926727294921875" lon="-5.59562436304986476898193359375">
        <ele>657</ele>
        <time>2022-06-04T11:36:23.000Z</time>
      </trkpt>
      <trkpt lat="43.4417416714131832122802734375" lon="-5.59570231474936008453369140625">
        <ele>657</ele>
        <time>2022-06-04T11:36:24.000Z</time>
      </trkpt>
      <trkpt lat="43.4417416714131832122802734375" lon="-5.59570231474936008453369140625">
        <ele>657</ele>
        <time>2022-06-04T11:36:25.000Z</time>
      </trkpt>
      <trkpt lat="43.44182373024523258209228515625" lon="-5.59577590785920619964599609375">
        <ele>657</ele>
        <time>2022-06-04T11:36:27.000Z</time>
      </trkpt>
      <trkpt lat="43.4419089742004871368408203125" lon="-5.59585737995803356170654296875">
        <ele>657</ele>
        <time>2022-06-04T11:36:28.000Z</time>
      </trkpt>
      <trkpt lat="43.4419089742004871368408203125" lon="-5.59585737995803356170654296875">
        <ele>657</ele>
        <time>2022-06-04T11:36:29.000Z</time>
      </trkpt>
      <trkpt lat="43.4419589303433895111083984375" lon="-5.59589803218841552734375">
        <ele>657.20001220703125</ele>
        <time>2022-06-04T11:36:30.000Z</time>
      </trkpt>
      <trkpt lat="43.4420172683894634246826171875" lon="-5.59593759477138519287109375">
        <ele>657.20001220703125</ele>
        <time>2022-06-04T11:36:31.000Z</time>
      </trkpt>
      <trkpt lat="43.44213612377643585205078125" lon="-5.5960041470825672149658203125">
        <ele>657</ele>
        <time>2022-06-04T11:36:33.000Z</time>
      </trkpt>
      <trkpt lat="43.4422573260962963104248046875" lon="-5.5960517562925815582275390625">
        <ele>657</ele>
        <time>2022-06-04T11:36:34.000Z</time>
      </trkpt>
      <trkpt lat="43.4422573260962963104248046875" lon="-5.5960517562925815582275390625">
        <ele>656.79998779296875</ele>
        <time>2022-06-04T11:36:35.000Z</time>
      </trkpt>
      <trkpt lat="43.4423683024942874908447265625" lon="-5.59609341435134410858154296875">
        <ele>656.79998779296875</ele>
        <time>2022-06-04T11:36:37.000Z</time>
      </trkpt>
      <trkpt lat="43.4424169175326824188232421875" lon="-5.596118979156017303466796875">
        <ele>656.4000244140625</ele>
        <time>2022-06-04T11:36:38.000Z</time>
      </trkpt>
      <trkpt lat="43.4424688853323459625244140625" lon="-5.59614622034132480621337890625">
        <ele>656</ele>
        <time>2022-06-04T11:36:39.000Z</time>
      </trkpt>
      <trkpt lat="43.4425543807446956634521484375" lon="-5.59619600884616374969482421875">
        <ele>655.79998779296875</ele>
        <time>2022-06-04T11:36:40.000Z</time>
      </trkpt>
      <trkpt lat="43.4425543807446956634521484375" lon="-5.59619600884616374969482421875">
        <ele>655.20001220703125</ele>
        <time>2022-06-04T11:36:41.000Z</time>
      </trkpt>
      <trkpt lat="43.4426298178732395172119140625" lon="-5.59624780900776386260986328125">
        <ele>654</ele>
        <time>2022-06-04T11:36:43.000Z</time>
      </trkpt>
      <trkpt lat="43.44266041181981563568115234375" lon="-5.596271194517612457275390625">
        <ele>652.4000244140625</ele>
        <time>2022-06-04T11:36:44.000Z</time>
      </trkpt>
      <trkpt lat="43.4426920115947723388671875" lon="-5.59629189781844615936279296875">
        <ele>651.5999755859375</ele>
        <time>2022-06-04T11:36:45.000Z</time>
      </trkpt>
      <trkpt lat="43.44276149757206439971923828125" lon="-5.59632408432662487030029296875">
        <ele>650.79998779296875</ele>
        <time>2022-06-04T11:36:46.000Z</time>
      </trkpt>
      <trkpt lat="43.44276149757206439971923828125" lon="-5.59632408432662487030029296875">
        <ele>650.20001220703125</ele>
        <time>2022-06-04T11:36:47.000Z</time>
      </trkpt>
      <trkpt lat="43.4428336657583713531494140625" lon="-5.59633615426719188690185546875">
        <ele>649.5999755859375</ele>
        <time>2022-06-04T11:36:48.000Z</time>
      </trkpt>
      <trkpt lat="43.4428336657583713531494140625" lon="-5.59633615426719188690185546875">
        <ele>648.4000244140625</ele>
        <time>2022-06-04T11:36:49.000Z</time>
      </trkpt>
      <trkpt lat="43.44288839958608150482177734375" lon="-5.5963193066418170928955078125">
        <ele>647.4000244140625</ele>
        <time>2022-06-04T11:36:51.000Z</time>
      </trkpt>
      <trkpt lat="43.44294824637472629547119140625" lon="-5.5962958373129367828369140625">
        <ele>646.4000244140625</ele>
        <time>2022-06-04T11:36:53.000Z</time>
      </trkpt>
      <trkpt lat="43.4429892338812351226806640625" lon="-5.59627312235534191131591796875">
        <ele>645.79998779296875</ele>
        <time>2022-06-04T11:36:54.000Z</time>
      </trkpt>
      <trkpt lat="43.4429892338812351226806640625" lon="-5.59627312235534191131591796875">
        <ele>644.79998779296875</ele>
        <time>2022-06-04T11:36:55.000Z</time>
      </trkpt>
      <trkpt lat="43.4430039860308170318603515625" lon="-5.5962686799466609954833984375">
        <ele>644</ele>
        <time>2022-06-04T11:36:56.000Z</time>
      </trkpt>
      <trkpt lat="43.443016223609447479248046875" lon="-5.5962643213570117950439453125">
        <ele>643.20001220703125</ele>
        <time>2022-06-04T11:36:57.000Z</time>
      </trkpt>
      <trkpt lat="43.44304497353732585906982421875" lon="-5.5962574481964111328125">
        <ele>642.20001220703125</ele>
        <time>2022-06-04T11:36:58.000Z</time>
      </trkpt>
      <trkpt lat="43.44304497353732585906982421875" lon="-5.5962574481964111328125">
        <ele>641.4000244140625</ele>
        <time>2022-06-04T11:36:59.000Z</time>
      </trkpt>
      <trkpt lat="43.44309174455702304840087890625" lon="-5.5962561070919036865234375">
        <ele>640.5999755859375</ele>
        <time>2022-06-04T11:37:00.000Z</time>
      </trkpt>
      <trkpt lat="43.44309174455702304840087890625" lon="-5.5962561070919036865234375">
        <ele>640.20001220703125</ele>
        <time>2022-06-04T11:37:01.000Z</time>
      </trkpt>
      <trkpt lat="43.44311186112463474273681640625" lon="-5.5962599627673625946044921875">
        <ele>639</ele>
        <time>2022-06-04T11:37:02.000Z</time>
      </trkpt>
      <trkpt lat="43.44313398934900760650634765625" lon="-5.5962730385363101959228515625">
        <ele>638.4000244140625</ele>
        <time>2022-06-04T11:37:03.000Z</time>
      </trkpt>
      <trkpt lat="43.44318159855902194976806640625" lon="-5.59629642404615879058837890625">
        <ele>638</ele>
        <time>2022-06-04T11:37:04.000Z</time>
      </trkpt>
      <trkpt lat="43.44318159855902194976806640625" lon="-5.59629642404615879058837890625">
        <ele>637.5999755859375</ele>
        <time>2022-06-04T11:37:05.000Z</time>
      </trkpt>
      <trkpt lat="43.44323876313865184783935546875" lon="-5.59633263386785984039306640625">
        <ele>636.4000244140625</ele>
        <time>2022-06-04T11:37:07.000Z</time>
      </trkpt>
      <trkpt lat="43.4432939998805522918701171875" lon="-5.5963712744414806365966796875">
        <ele>635.20001220703125</ele>
        <time>2022-06-04T11:37:09.000Z</time>
      </trkpt>
      <trkpt lat="43.443363569676876068115234375" lon="-5.59641695581376552581787109375">
        <ele>633.5999755859375</ele>
        <time>2022-06-04T11:37:11.000Z</time>
      </trkpt>
      <trkpt lat="43.4434301219880580902099609375" lon="-5.59645953588187694549560546875">
        <ele>632.4000244140625</ele>
        <time>2022-06-04T11:37:13.000Z</time>
      </trkpt>
      <trkpt lat="43.44349927268922328948974609375" lon="-5.596501529216766357421875">
        <ele>631.4000244140625</ele>
        <time>2022-06-04T11:37:15.000Z</time>
      </trkpt>
      <trkpt lat="43.4435702674090862274169921875" lon="-5.59653648175299167633056640625">
        <ele>631.20001220703125</ele>
        <time>2022-06-04T11:37:16.000Z</time>
      </trkpt>
      <trkpt lat="43.4435702674090862274169921875" lon="-5.59653648175299167633056640625">
        <ele>630</ele>
        <time>2022-06-04T11:37:17.000Z</time>
      </trkpt>
      <trkpt lat="43.44365014694631099700927734375" lon="-5.59658492915332317352294921875">
        <ele>628.79998779296875</ele>
        <time>2022-06-04T11:37:18.000Z</time>
      </trkpt>
      <trkpt lat="43.44365014694631099700927734375" lon="-5.59658492915332317352294921875">
        <ele>627.79998779296875</ele>
        <time>2022-06-04T11:37:19.000Z</time>
      </trkpt>
      <trkpt lat="43.4437161125242710113525390625" lon="-5.59662784449756145477294921875">
        <ele>626.4000244140625</ele>
        <time>2022-06-04T11:37:21.000Z</time>
      </trkpt>
      <trkpt lat="43.4437818266451358795166015625" lon="-5.59666288085281848907470703125">
        <ele>625</ele>
        <time>2022-06-04T11:37:23.000Z</time>
      </trkpt>
      <trkpt lat="43.443872518837451934814453125" lon="-5.5966991744935512542724609375">
        <ele>624</ele>
        <time>2022-06-04T11:37:24.000Z</time>
      </trkpt>
      <trkpt lat="43.443872518837451934814453125" lon="-5.5966991744935512542724609375">
        <ele>623.20001220703125</ele>
        <time>2022-06-04T11:37:25.000Z</time>
      </trkpt>
      <trkpt lat="43.4439420886337757110595703125" lon="-5.59670881368219852447509765625">
        <ele>622.20001220703125</ele>
        <time>2022-06-04T11:37:27.000Z</time>
      </trkpt>
      <trkpt lat="43.443989865481853485107421875" lon="-5.59669724665582180023193359375">
        <ele>621.5999755859375</ele>
        <time>2022-06-04T11:37:28.000Z</time>
      </trkpt>
      <trkpt lat="43.443989865481853485107421875" lon="-5.59669724665582180023193359375">
        <ele>619.5999755859375</ele>
        <time>2022-06-04T11:37:29.000Z</time>
      </trkpt>
      <trkpt lat="43.444029428064823150634765625" lon="-5.596670173108577728271484375">
        <ele>618</ele>
        <time>2022-06-04T11:37:31.000Z</time>
      </trkpt>
      <trkpt lat="43.44408600591123104095458984375" lon="-5.596654415130615234375">
        <ele>617</ele>
        <time>2022-06-04T11:37:33.000Z</time>
      </trkpt>
      <trkpt lat="43.4441301785409450531005859375" lon="-5.59664167463779449462890625">
        <ele>615.5999755859375</ele>
        <time>2022-06-04T11:37:35.000Z</time>
      </trkpt>
      <trkpt lat="43.44416663981974124908447265625" lon="-5.59662281535565853118896484375">
        <ele>614.5999755859375</ele>
        <time>2022-06-04T11:37:37.000Z</time>
      </trkpt>
      <trkpt lat="43.44420502893626689910888671875" lon="-5.59660068713128566741943359375">
        <ele>613</ele>
        <time>2022-06-04T11:37:39.000Z</time>
      </trkpt>
      <trkpt lat="43.4442525543272495269775390625" lon="-5.59658140875399112701416015625">
        <ele>612</ele>
        <time>2022-06-04T11:37:41.000Z</time>
      </trkpt>
      <trkpt lat="43.44429421238601207733154296875" lon="-5.59657998383045196533203125">
        <ele>610.4000244140625</ele>
        <time>2022-06-04T11:37:43.000Z</time>
      </trkpt>
      <trkpt lat="43.44431282021105289459228515625" lon="-5.59657855890691280364990234375">
        <ele>609.5999755859375</ele>
        <time>2022-06-04T11:37:44.000Z</time>
      </trkpt>
      <trkpt lat="43.44433763064444065093994140625" lon="-5.59657788835465908050537109375">
        <ele>609.20001220703125</ele>
        <time>2022-06-04T11:37:45.000Z</time>
      </trkpt>
      <trkpt lat="43.44438976608216762542724609375" lon="-5.5965664051473140716552734375">
        <ele>608</ele>
        <time>2022-06-04T11:37:47.000Z</time>
      </trkpt>
      <trkpt lat="43.44444341026246547698974609375" lon="-5.596565566956996917724609375">
        <ele>606.79998779296875</ele>
        <time>2022-06-04T11:37:49.000Z</time>
      </trkpt>
      <trkpt lat="43.44447224400937557220458984375" lon="-5.59656883589923381805419921875">
        <ele>606.20001220703125</ele>
        <time>2022-06-04T11:37:50.000Z</time>
      </trkpt>
      <trkpt lat="43.44450987875461578369140625" lon="-5.59657587669789791107177734375">
        <ele>605.4000244140625</ele>
        <time>2022-06-04T11:37:51.000Z</time>
      </trkpt>
      <trkpt lat="43.4445794485509395599365234375" lon="-5.59658660553395748138427734375">
        <ele>604</ele>
        <time>2022-06-04T11:37:53.000Z</time>
      </trkpt>
      <trkpt lat="43.4446580708026885986328125" lon="-5.596601106226444244384765625">
        <ele>602.4000244140625</ele>
        <time>2022-06-04T11:37:55.000Z</time>
      </trkpt>
      <trkpt lat="43.44470106996595859527587890625" lon="-5.5966128408908843994140625">
        <ele>601.20001220703125</ele>
        <time>2022-06-04T11:37:56.000Z</time>
      </trkpt>
      <trkpt lat="43.4447400458157062530517578125" lon="-5.5966235697269439697265625">
        <ele>599.20001220703125</ele>
        <time>2022-06-04T11:37:57.000Z</time>
      </trkpt>
      <trkpt lat="43.4447799436748027801513671875" lon="-5.59663220308721065521240234375">
        <ele>597.5999755859375</ele>
        <time>2022-06-04T11:37:58.000Z</time>
      </trkpt>
      <trkpt lat="43.44482160173356533050537109375" lon="-5.59664628468453884124755859375">
        <ele>596.4000244140625</ele>
        <time>2022-06-04T11:37:59.000Z</time>
      </trkpt>
      <trkpt lat="43.444900475442409515380859375" lon="-5.59668316505849361419677734375">
        <ele>594.5999755859375</ele>
        <time>2022-06-04T11:38:01.000Z</time>
      </trkpt>
      <trkpt lat="43.44493660144507884979248046875" lon="-5.5966995097696781158447265625">
        <ele>593.4000244140625</ele>
        <time>2022-06-04T11:38:02.000Z</time>
      </trkpt>
      <trkpt lat="43.4449690394103527069091796875" lon="-5.59671342372894287109375">
        <ele>591.79998779296875</ele>
        <time>2022-06-04T11:38:03.000Z</time>
      </trkpt>
      <trkpt lat="43.44503265805542469024658203125" lon="-5.59673915617167949676513671875">
        <ele>590.5999755859375</ele>
        <time>2022-06-04T11:38:04.000Z</time>
      </trkpt>
      <trkpt lat="43.44503265805542469024658203125" lon="-5.59673915617167949676513671875">
        <ele>589.5999755859375</ele>
        <time>2022-06-04T11:38:05.000Z</time>
      </trkpt>
      <trkpt lat="43.4451158903539180755615234375" lon="-5.596768073737621307373046875">
        <ele>588.79998779296875</ele>
        <time>2022-06-04T11:38:06.000Z</time>
      </trkpt>
      <trkpt lat="43.4451158903539180755615234375" lon="-5.596768073737621307373046875">
        <ele>588.20001220703125</ele>
        <time>2022-06-04T11:38:07.000Z</time>
      </trkpt>
      <trkpt lat="43.44514690339565277099609375" lon="-5.59678190387785434722900390625">
        <ele>587.79998779296875</ele>
        <time>2022-06-04T11:38:08.000Z</time>
      </trkpt>
      <trkpt lat="43.44518135301768779754638671875" lon="-5.5967970751225948333740234375">
        <ele>587</ele>
        <time>2022-06-04T11:38:09.000Z</time>
      </trkpt>
      <trkpt lat="43.4452483244240283966064453125" lon="-5.5968215502798557281494140625">
        <ele>586.20001220703125</ele>
        <time>2022-06-04T11:38:10.000Z</time>
      </trkpt>
      <trkpt lat="43.4452483244240283966064453125" lon="-5.5968215502798557281494140625">
        <ele>585.20001220703125</ele>
        <time>2022-06-04T11:38:11.000Z</time>
      </trkpt>
      <trkpt lat="43.4453234262764453887939453125" lon="-5.596837811172008514404296875">
        <ele>584.4000244140625</ele>
        <time>2022-06-04T11:38:12.000Z</time>
      </trkpt>
      <trkpt lat="43.4453234262764453887939453125" lon="-5.596837811172008514404296875">
        <ele>583.5999755859375</ele>
        <time>2022-06-04T11:38:13.000Z</time>
      </trkpt>
      <trkpt lat="43.4453462250530719757080078125" lon="-5.59684460051357746124267578125">
        <ele>582.79998779296875</ele>
        <time>2022-06-04T11:38:14.000Z</time>
      </trkpt>
      <trkpt lat="43.445388637483119964599609375" lon="-5.596847198903560638427734375">
        <ele>582.4000244140625</ele>
        <time>2022-06-04T11:38:15.000Z</time>
      </trkpt>
      <trkpt lat="43.44545544125139713287353515625" lon="-5.5968547426164150238037109375">
        <ele>581.79998779296875</ele>
        <time>2022-06-04T11:38:16.000Z</time>
      </trkpt>
      <trkpt lat="43.44545544125139713287353515625" lon="-5.5968547426164150238037109375">
        <ele>580.79998779296875</ele>
        <time>2022-06-04T11:38:17.000Z</time>
      </trkpt>
      <trkpt lat="43.44553188420832157135009765625" lon="-5.59682951308786869049072265625">
        <ele>579.79998779296875</ele>
        <time>2022-06-04T11:38:19.000Z</time>
      </trkpt>
      <trkpt lat="43.445565663278102874755859375" lon="-5.59681677259504795074462890625">
        <ele>579.4000244140625</ele>
        <time>2022-06-04T11:38:20.000Z</time>
      </trkpt>
      <trkpt lat="43.445594497025012969970703125" lon="-5.59681325219571590423583984375">
        <ele>579.20001220703125</ele>
        <time>2022-06-04T11:38:21.000Z</time>
      </trkpt>
      <trkpt lat="43.44566649757325649261474609375" lon="-5.59680973179638385772705078125">
        <ele>578.4000244140625</ele>
        <time>2022-06-04T11:38:23.000Z</time>
      </trkpt>
      <trkpt lat="43.44575601629912853240966796875" lon="-5.59681979008018970489501953125">
        <ele>577.20001220703125</ele>
        <time>2022-06-04T11:38:24.000Z</time>
      </trkpt>
      <trkpt lat="43.44575601629912853240966796875" lon="-5.59681979008018970489501953125">
        <ele>576.4000244140625</ele>
        <time>2022-06-04T11:38:25.000Z</time>
      </trkpt>
      <trkpt lat="43.4458100795745849609375" lon="-5.59682347811758518218994140625">
        <ele>575.79998779296875</ele>
        <time>2022-06-04T11:38:26.000Z</time>
      </trkpt>
      <trkpt lat="43.445859365165233612060546875" lon="-5.59682917781174182891845703125">
        <ele>575.20001220703125</ele>
        <time>2022-06-04T11:38:27.000Z</time>
      </trkpt>
      <trkpt lat="43.44595827162265777587890625" lon="-5.59684284031391143798828125">
        <ele>574.5999755859375</ele>
        <time>2022-06-04T11:38:29.000Z</time>
      </trkpt>
      <trkpt lat="43.4460492990911006927490234375" lon="-5.59684946201741695404052734375">
        <ele>573.5999755859375</ele>
        <time>2022-06-04T11:38:31.000Z</time>
      </trkpt>
      <trkpt lat="43.44614326022565364837646484375" lon="-5.59685432352125644683837890625">
        <ele>572.4000244140625</ele>
        <time>2022-06-04T11:38:33.000Z</time>
      </trkpt>
      <trkpt lat="43.44624417833983898162841796875" lon="-5.5968336202204227447509765625">
        <ele>571.4000244140625</ele>
        <time>2022-06-04T11:38:35.000Z</time>
      </trkpt>
      <trkpt lat="43.4463423304259777069091796875" lon="-5.5968269146978855133056640625">
        <ele>570.20001220703125</ele>
        <time>2022-06-04T11:38:37.000Z</time>
      </trkpt>
      <trkpt lat="43.44644241034984588623046875" lon="-5.596819706261157989501953125">
        <ele>569.5999755859375</ele>
        <time>2022-06-04T11:38:39.000Z</time>
      </trkpt>
      <trkpt lat="43.44653972424566745758056640625" lon="-5.5968218855559825897216796875">
        <ele>569</ele>
        <time>2022-06-04T11:38:41.000Z</time>
      </trkpt>
      <trkpt lat="43.4466249682009220123291015625" lon="-5.59683839790523052215576171875">
        <ele>568.20001220703125</ele>
        <time>2022-06-04T11:38:43.000Z</time>
      </trkpt>
      <trkpt lat="43.44666243530809879302978515625" lon="-5.59685180895030498504638671875">
        <ele>567.5999755859375</ele>
        <time>2022-06-04T11:38:44.000Z</time>
      </trkpt>
      <trkpt lat="43.44671255908906459808349609375" lon="-5.5968698300421237945556640625">
        <ele>567.20001220703125</ele>
        <time>2022-06-04T11:38:45.000Z</time>
      </trkpt>
      <trkpt lat="43.446813561022281646728515625" lon="-5.596910230815410614013671875">
        <ele>566.20001220703125</ele>
        <time>2022-06-04T11:38:47.000Z</time>
      </trkpt>
      <trkpt lat="43.44692177139222621917724609375" lon="-5.5969402380287647247314453125">
        <ele>565.4000244140625</ele>
        <time>2022-06-04T11:38:48.000Z</time>
      </trkpt>
      <trkpt lat="43.44692177139222621917724609375" lon="-5.5969402380287647247314453125">
        <ele>564.79998779296875</ele>
        <time>2022-06-04T11:38:49.000Z</time>
      </trkpt>
      <trkpt lat="43.44700542278587818145751953125" lon="-5.59697736985981464385986328125">
        <ele>563.5999755859375</ele>
        <time>2022-06-04T11:38:51.000Z</time>
      </trkpt>
      <trkpt lat="43.44709418714046478271484375" lon="-5.59699765406548976898193359375">
        <ele>562.5999755859375</ele>
        <time>2022-06-04T11:38:52.000Z</time>
      </trkpt>
      <trkpt lat="43.44709418714046478271484375" lon="-5.59699765406548976898193359375">
        <ele>561.79998779296875</ele>
        <time>2022-06-04T11:38:53.000Z</time>
      </trkpt>
      <trkpt lat="43.44716434367001056671142578125" lon="-5.596984326839447021484375">
        <ele>560.79998779296875</ele>
        <time>2022-06-04T11:38:54.000Z</time>
      </trkpt>
      <trkpt lat="43.44716434367001056671142578125" lon="-5.596984326839447021484375">
        <ele>559.79998779296875</ele>
        <time>2022-06-04T11:38:55.000Z</time>
      </trkpt>
      <trkpt lat="43.44721882604062557220458984375" lon="-5.59695473872125148773193359375">
        <ele>559.20001220703125</ele>
        <time>2022-06-04T11:38:56.000Z</time>
      </trkpt>
      <trkpt lat="43.44724849797785282135009765625" lon="-5.596949793398380279541015625">
        <ele>558.4000244140625</ele>
        <time>2022-06-04T11:38:57.000Z</time>
      </trkpt>
      <trkpt lat="43.44731018878519535064697265625" lon="-5.5969285033643245697021484375">
        <ele>557.5999755859375</ele>
        <time>2022-06-04T11:38:58.000Z</time>
      </trkpt>
      <trkpt lat="43.44731018878519535064697265625" lon="-5.5969285033643245697021484375">
        <ele>556.79998779296875</ele>
        <time>2022-06-04T11:38:59.000Z</time>
      </trkpt>
      <trkpt lat="43.44736819155514240264892578125" lon="-5.59691819362342357635498046875">
        <ele>556.20001220703125</ele>
        <time>2022-06-04T11:39:00.000Z</time>
      </trkpt>
      <trkpt lat="43.44736819155514240264892578125" lon="-5.59691819362342357635498046875">
        <ele>555.79998779296875</ele>
        <time>2022-06-04T11:39:01.000Z</time>
      </trkpt>
      <trkpt lat="43.4473917447030544281005859375" lon="-5.596910230815410614013671875">
        <ele>555.20001220703125</ele>
        <time>2022-06-04T11:39:02.000Z</time>
      </trkpt>
      <trkpt lat="43.44742183573544025421142578125" lon="-5.5969046987593173980712890625">
        <ele>554.5999755859375</ele>
        <time>2022-06-04T11:39:03.000Z</time>
      </trkpt>
      <trkpt lat="43.44745502807199954986572265625" lon="-5.5969026871025562286376953125">
        <ele>554.20001220703125</ele>
        <time>2022-06-04T11:39:04.000Z</time>
      </trkpt>
      <trkpt lat="43.44745502807199954986572265625" lon="-5.5969026871025562286376953125">
        <ele>553.79998779296875</ele>
        <time>2022-06-04T11:39:05.000Z</time>
      </trkpt>
      <trkpt lat="43.44748537056148052215576171875" lon="-5.59690863825380802154541015625">
        <ele>552.4000244140625</ele>
        <time>2022-06-04T11:39:07.000Z</time>
      </trkpt>
      <trkpt lat="43.44753650017082691192626953125" lon="-5.5969271622598171234130859375">
        <ele>551.20001220703125</ele>
        <time>2022-06-04T11:39:09.000Z</time>
      </trkpt>
      <trkpt lat="43.44759467057883739471435546875" lon="-5.5969496257603168487548828125">
        <ele>550.5999755859375</ele>
        <time>2022-06-04T11:39:10.000Z</time>
      </trkpt>
      <trkpt lat="43.44759467057883739471435546875" lon="-5.5969496257603168487548828125">
        <ele>550.20001220703125</ele>
        <time>2022-06-04T11:39:11.000Z</time>
      </trkpt>
      <trkpt lat="43.447653092443943023681640625" lon="-5.5969747714698314666748046875">
        <ele>549.20001220703125</ele>
        <time>2022-06-04T11:39:13.000Z</time>
      </trkpt>
      <trkpt lat="43.4476924873888492584228515625" lon="-5.5969870090484619140625">
        <ele>548.79998779296875</ele>
        <time>2022-06-04T11:39:14.000Z</time>
      </trkpt>
      <trkpt lat="43.44773531891405582427978515625" lon="-5.59699195437133312225341796875">
        <ele>548.4000244140625</ele>
        <time>2022-06-04T11:39:15.000Z</time>
      </trkpt>
      <trkpt lat="43.44781880266964435577392578125" lon="-5.59699061326682567596435546875">
        <ele>547.20001220703125</ele>
        <time>2022-06-04T11:39:17.000Z</time>
      </trkpt>
      <trkpt lat="43.44790689647197723388671875" lon="-5.59695675037801265716552734375">
        <ele>545</ele>
        <time>2022-06-04T11:39:19.000Z</time>
      </trkpt>
      <trkpt lat="43.447987698018550872802734375" lon="-5.59692238457500934600830078125">
        <ele>543.79998779296875</ele>
        <time>2022-06-04T11:39:21.000Z</time>
      </trkpt>
      <trkpt lat="43.4480871073901653289794921875" lon="-5.5968917906284332275390625">
        <ele>543.4000244140625</ele>
        <time>2022-06-04T11:39:22.000Z</time>
      </trkpt>
      <trkpt lat="43.4480871073901653289794921875" lon="-5.5968917906284332275390625">
        <ele>542.79998779296875</ele>
        <time>2022-06-04T11:39:23.000Z</time>
      </trkpt>
      <trkpt lat="43.44819724559783935546875" lon="-5.59686237014830112457275390625">
        <ele>542.4000244140625</ele>
        <time>2022-06-04T11:39:24.000Z</time>
      </trkpt>
      <trkpt lat="43.44819724559783935546875" lon="-5.59686237014830112457275390625">
        <ele>542</ele>
        <time>2022-06-04T11:39:25.000Z</time>
      </trkpt>
      <trkpt lat="43.44825231470167636871337890625" lon="-5.5968560837209224700927734375">
        <ele>541.5999755859375</ele>
        <time>2022-06-04T11:39:26.000Z</time>
      </trkpt>
      <trkpt lat="43.4483013488352298736572265625" lon="-5.596858598291873931884765625">
        <ele>541.20001220703125</ele>
        <time>2022-06-04T11:39:27.000Z</time>
      </trkpt>
      <trkpt lat="43.448404110968112945556640625" lon="-5.59686857275664806365966796875">
        <ele>541</ele>
        <time>2022-06-04T11:39:28.000Z</time>
      </trkpt>
      <trkpt lat="43.448404110968112945556640625" lon="-5.59686857275664806365966796875">
        <ele>540.79998779296875</ele>
        <time>2022-06-04T11:39:29.000Z</time>
      </trkpt>
      <trkpt lat="43.44851148314774036407470703125" lon="-5.5968611128628253936767578125">
        <ele>540.4000244140625</ele>
        <time>2022-06-04T11:39:30.000Z</time>
      </trkpt>
      <trkpt lat="43.44851148314774036407470703125" lon="-5.5968611128628253936767578125">
        <ele>540.20001220703125</ele>
        <time>2022-06-04T11:39:31.000Z</time>
      </trkpt>
      <trkpt lat="43.44862748868763446807861328125" lon="-5.59686739929020404815673828125">
        <ele>540</ele>
        <time>2022-06-04T11:39:33.000Z</time>
      </trkpt>
      <trkpt lat="43.44872237183153629302978515625" lon="-5.596878714859485626220703125">
        <ele>539.79998779296875</ele>
        <time>2022-06-04T11:39:35.000Z</time>
      </trkpt>
      <trkpt lat="43.4487484395503997802734375" lon="-5.59688441455364227294921875">
        <ele>539.4000244140625</ele>
        <time>2022-06-04T11:39:36.000Z</time>
      </trkpt>
      <trkpt lat="43.4487672150135040283203125" lon="-5.59688298963010311126708984375">
        <ele>539.20001220703125</ele>
        <time>2022-06-04T11:39:37.000Z</time>
      </trkpt>
      <trkpt lat="43.44878657720983028411865234375" lon="-5.59689019806683063507080078125">
        <ele>539</ele>
        <time>2022-06-04T11:39:38.000Z</time>
      </trkpt>
      <trkpt lat="43.448803089559078216552734375" lon="-5.59689824469387531280517578125">
        <ele>538.79998779296875</ele>
        <time>2022-06-04T11:39:39.000Z</time>
      </trkpt>
      <trkpt lat="43.44884164631366729736328125" lon="-5.596911907196044921875">
        <ele>538.20001220703125</ele>
        <time>2022-06-04T11:39:40.000Z</time>
      </trkpt>
      <trkpt lat="43.44884164631366729736328125" lon="-5.596911907196044921875">
        <ele>537.5999755859375</ele>
        <time>2022-06-04T11:39:41.000Z</time>
      </trkpt>
      <trkpt lat="43.44890526495873928070068359375" lon="-5.59692288748919963836669921875">
        <ele>537</ele>
        <time>2022-06-04T11:39:43.000Z</time>
      </trkpt>
      <trkpt lat="43.44897986389696598052978515625" lon="-5.59694954194128513336181640625">
        <ele>536.5999755859375</ele>
        <time>2022-06-04T11:39:45.000Z</time>
      </trkpt>
      <trkpt lat="43.44907457940280437469482421875" lon="-5.5969647131860256195068359375">
        <ele>536.20001220703125</ele>
        <time>2022-06-04T11:39:46.000Z</time>
      </trkpt>
      <trkpt lat="43.44907457940280437469482421875" lon="-5.5969647131860256195068359375">
        <ele>536</ele>
        <time>2022-06-04T11:39:47.000Z</time>
      </trkpt>
      <trkpt lat="43.44913274981081485748291015625" lon="-5.5969580076634883880615234375">
        <ele>535.79998779296875</ele>
        <time>2022-06-04T11:39:49.000Z</time>
      </trkpt>
      <trkpt lat="43.449169881641864776611328125" lon="-5.5969429202377796173095703125">
        <ele>535.79998779296875</ele>
        <time>2022-06-04T11:39:51.000Z</time>
      </trkpt>
      <trkpt lat="43.44916887581348419189453125" lon="-5.59686186723411083221435546875">
        <ele>534</ele>
        <time>2022-06-04T11:40:05.000Z</time>
      </trkpt>
      <trkpt lat="43.44916661269962787628173828125" lon="-5.5968544073402881622314453125">
        <ele>534.20001220703125</ele>
        <time>2022-06-04T11:40:06.000Z</time>
      </trkpt>
      <trkpt lat="43.44917130656540393829345703125" lon="-5.59685147367417812347412109375">
        <ele>534.20001220703125</ele>
        <time>2022-06-04T11:40:07.000Z</time>
      </trkpt>
      <trkpt lat="43.449180610477924346923828125" lon="-5.5968368053436279296875">
        <ele>534.4000244140625</ele>
        <time>2022-06-04T11:40:09.000Z</time>
      </trkpt>
      <trkpt lat="43.44917817972600460052490234375" lon="-5.59680922888219356536865234375">
        <ele>535</ele>
        <time>2022-06-04T11:40:11.000Z</time>
      </trkpt>
      <trkpt lat="43.44915789552032947540283203125" lon="-5.59678542427718639373779296875">
        <ele>535.20001220703125</ele>
        <time>2022-06-04T11:40:13.000Z</time>
      </trkpt>
      <trkpt lat="43.44913492910563945770263671875" lon="-5.5967630445957183837890625">
        <ele>535.4000244140625</ele>
        <time>2022-06-04T11:40:15.000Z</time>
      </trkpt>
      <trkpt lat="43.44909989275038242340087890625" lon="-5.59675692580640316009521484375">
        <ele>535.5999755859375</ele>
        <time>2022-06-04T11:40:16.000Z</time>
      </trkpt>
      <trkpt lat="43.44909989275038242340087890625" lon="-5.59675692580640316009521484375">
        <ele>535.5999755859375</ele>
        <time>2022-06-04T11:40:17.000Z</time>
      </trkpt>
      <trkpt lat="43.44909084029495716094970703125" lon="-5.596725828945636749267578125">
        <ele>535.5999755859375</ele>
        <time>2022-06-04T11:40:18.000Z</time>
      </trkpt>
      <trkpt lat="43.44909084029495716094970703125" lon="-5.596725828945636749267578125">
        <ele>535.79998779296875</ele>
        <time>2022-06-04T11:40:19.000Z</time>
      </trkpt>
      <trkpt lat="43.449096791446208953857421875" lon="-5.5967099033296108245849609375">
        <ele>535.79998779296875</ele>
        <time>2022-06-04T11:40:20.000Z</time>
      </trkpt>
      <trkpt lat="43.44910659827291965484619140625" lon="-5.596694983541965484619140625">
        <ele>535.79998779296875</ele>
        <time>2022-06-04T11:40:21.000Z</time>
      </trkpt>
      <trkpt lat="43.4491241164505481719970703125" lon="-5.59668215923011302947998046875">
        <ele>535.79998779296875</ele>
        <time>2022-06-04T11:40:23.000Z</time>
      </trkpt>
      <trkpt lat="43.4491428919136524200439453125" lon="-5.59668123722076416015625">
        <ele>535.79998779296875</ele>
        <time>2022-06-04T11:40:25.000Z</time>
      </trkpt>
      <trkpt lat="43.4491703845560550689697265625" lon="-5.5966743640601634979248046875">
        <ele>535.79998779296875</ele>
        <time>2022-06-04T11:40:27.000Z</time>
      </trkpt>
      <trkpt lat="43.44917834736406803131103515625" lon="-5.59667252004146575927734375">
        <ele>535.79998779296875</ele>
        <time>2022-06-04T11:40:29.000Z</time>
      </trkpt>
      <trkpt lat="43.44920231960713863372802734375" lon="-5.5966651439666748046875">
        <ele>535.4000244140625</ele>
        <time>2022-06-04T11:40:31.000Z</time>
      </trkpt>
      <trkpt lat="43.44921304844319820404052734375" lon="-5.59666086919605731964111328125">
        <ele>535.20001220703125</ele>
        <time>2022-06-04T11:40:32.000Z</time>
      </trkpt>
      <trkpt lat="43.4492270462214946746826171875" lon="-5.5966602824628353118896484375">
        <ele>535</ele>
        <time>2022-06-04T11:40:33.000Z</time>
      </trkpt>
      <trkpt lat="43.44925613142549991607666015625" lon="-5.5966539122164249420166015625">
        <ele>534.5999755859375</ele>
        <time>2022-06-04T11:40:35.000Z</time>
      </trkpt>
      <trkpt lat="43.44928982667624950408935546875" lon="-5.5966522358357906341552734375">
        <ele>534.4000244140625</ele>
        <time>2022-06-04T11:40:37.000Z</time>
      </trkpt>
      <trkpt lat="43.44933240674436092376708984375" lon="-5.5966254137456417083740234375">
        <ele>533.79998779296875</ele>
        <time>2022-06-04T11:40:39.000Z</time>
      </trkpt>
      <trkpt lat="43.44937766902148723602294921875" lon="-5.59660169295966625213623046875">
        <ele>533.4000244140625</ele>
        <time>2022-06-04T11:40:41.000Z</time>
      </trkpt>
      <trkpt lat="43.44941161572933197021484375" lon="-5.59658660553395748138427734375">
        <ele>532.4000244140625</ele>
        <time>2022-06-04T11:40:43.000Z</time>
      </trkpt>
      <trkpt lat="43.4494297206401824951171875" lon="-5.5965793132781982421875">
        <ele>532</ele>
        <time>2022-06-04T11:40:44.000Z</time>
      </trkpt>
      <trkpt lat="43.44944371841847896575927734375" lon="-5.5965717695653438568115234375">
        <ele>531.5999755859375</ele>
        <time>2022-06-04T11:40:45.000Z</time>
      </trkpt>
      <trkpt lat="43.44948294572532176971435546875" lon="-5.5965563468635082244873046875">
        <ele>531</ele>
        <time>2022-06-04T11:40:47.000Z</time>
      </trkpt>
      <trkpt lat="43.449519574642181396484375" lon="-5.59654134325683116912841796875">
        <ele>529.5999755859375</ele>
        <time>2022-06-04T11:40:49.000Z</time>
      </trkpt>
      <trkpt lat="43.44954497180879116058349609375" lon="-5.59651988558471202850341796875">
        <ele>528.4000244140625</ele>
        <time>2022-06-04T11:40:51.000Z</time>
      </trkpt>
      <trkpt lat="43.4495703689754009246826171875" lon="-5.59649541042745113372802734375">
        <ele>528</ele>
        <time>2022-06-04T11:40:52.000Z</time>
      </trkpt>
      <trkpt lat="43.4495703689754009246826171875" lon="-5.59649541042745113372802734375">
        <ele>527.4000244140625</ele>
        <time>2022-06-04T11:40:53.000Z</time>
      </trkpt>
      <trkpt lat="43.44958352856338024139404296875" lon="-5.5964758805930614471435546875">
        <ele>526.79998779296875</ele>
        <time>2022-06-04T11:40:54.000Z</time>
      </trkpt>
      <trkpt lat="43.44960062764585018157958984375" lon="-5.59645433910191059112548828125">
        <ele>526.4000244140625</ele>
        <time>2022-06-04T11:40:55.000Z</time>
      </trkpt>
      <trkpt lat="43.44961303286254405975341796875" lon="-5.59644210152328014373779296875">
        <ele>525.5999755859375</ele>
        <time>2022-06-04T11:40:56.000Z</time>
      </trkpt>
      <trkpt lat="43.4496226720511913299560546875" lon="-5.59643103741109371185302734375">
        <ele>525.20001220703125</ele>
        <time>2022-06-04T11:40:57.000Z</time>
      </trkpt>
      <trkpt lat="43.449649997055530548095703125" lon="-5.59641963802278041839599609375">
        <ele>524.5999755859375</ele>
        <time>2022-06-04T11:40:58.000Z</time>
      </trkpt>
      <trkpt lat="43.449649997055530548095703125" lon="-5.59641963802278041839599609375">
        <ele>524</ele>
        <time>2022-06-04T11:40:59.000Z</time>
      </trkpt>
      <trkpt lat="43.449689559638500213623046875" lon="-5.59639918617904186248779296875">
        <ele>523.4000244140625</ele>
        <time>2022-06-04T11:41:00.000Z</time>
      </trkpt>
      <trkpt lat="43.449689559638500213623046875" lon="-5.59639918617904186248779296875">
        <ele>522.79998779296875</ele>
        <time>2022-06-04T11:41:01.000Z</time>
      </trkpt>
      <trkpt lat="43.4497235901653766632080078125" lon="-5.59637538157403469085693359375">
        <ele>522.4000244140625</ele>
        <time>2022-06-04T11:41:02.000Z</time>
      </trkpt>
      <trkpt lat="43.44975435175001621246337890625" lon="-5.5963473021984100341796875">
        <ele>521.79998779296875</ele>
        <time>2022-06-04T11:41:03.000Z</time>
      </trkpt>
      <trkpt lat="43.449834398925304412841796875" lon="-5.59628167189657688140869140625">
        <ele>521.20001220703125</ele>
        <time>2022-06-04T11:41:04.000Z</time>
      </trkpt>
      <trkpt lat="43.449834398925304412841796875" lon="-5.59628167189657688140869140625">
        <ele>520.5999755859375</ele>
        <time>2022-06-04T11:41:05.000Z</time>
      </trkpt>
      <trkpt lat="43.44990556128323078155517578125" lon="-5.59624428860843181610107421875">
        <ele>520</ele>
        <time>2022-06-04T11:41:06.000Z</time>
      </trkpt>
      <trkpt lat="43.44990556128323078155517578125" lon="-5.59624428860843181610107421875">
        <ele>519.5999755859375</ele>
        <time>2022-06-04T11:41:07.000Z</time>
      </trkpt>
      <trkpt lat="43.44994763843715190887451171875" lon="-5.59621696360409259796142578125">
        <ele>519</ele>
        <time>2022-06-04T11:41:08.000Z</time>
      </trkpt>
      <trkpt lat="43.4499822556972503662109375" lon="-5.59620053507387638092041015625">
        <ele>517.79998779296875</ele>
        <time>2022-06-04T11:41:09.000Z</time>
      </trkpt>
      <trkpt lat="43.45006934367120265960693359375" lon="-5.59615711681544780731201171875">
        <ele>515.5999755859375</ele>
        <time>2022-06-04T11:41:11.000Z</time>
      </trkpt>
      <trkpt lat="43.45014092512428760528564453125" lon="-5.5961201526224613189697265625">
        <ele>514</ele>
        <time>2022-06-04T11:41:13.000Z</time>
      </trkpt>
      <trkpt lat="43.45014092512428760528564453125" lon="-5.5961201526224613189697265625">
        <ele>513.5999755859375</ele>
        <time>2022-06-04T11:41:14.000Z</time>
      </trkpt>
      <trkpt lat="43.4501861035823822021484375" lon="-5.59610632248222827911376953125">
        <ele>513</ele>
        <time>2022-06-04T11:41:15.000Z</time>
      </trkpt>
      <trkpt lat="43.45032784156501293182373046875" lon="-5.59608385898172855377197265625">
        <ele>511.600006103515625</ele>
        <time>2022-06-04T11:41:17.000Z</time>
      </trkpt>
      <trkpt lat="43.450368829071521759033203125" lon="-5.5960790812969207763671875">
        <ele>510.399993896484375</ele>
        <time>2022-06-04T11:41:19.000Z</time>
      </trkpt>
      <trkpt lat="43.450399674475193023681640625" lon="-5.5960725434124469757080078125">
        <ele>510</ele>
        <time>2022-06-04T11:41:20.000Z</time>
      </trkpt>
      <trkpt lat="43.45046128146350383758544921875" lon="-5.59603591449558734893798828125">
        <ele>509.600006103515625</ele>
        <time>2022-06-04T11:41:21.000Z</time>
      </trkpt>
      <trkpt lat="43.45048793591558933258056640625" lon="-5.59602971188724040985107421875">
        <ele>509.20001220703125</ele>
        <time>2022-06-04T11:41:22.000Z</time>
      </trkpt>
      <trkpt lat="43.45051224343478679656982421875" lon="-5.5960215814411640167236328125">
        <ele>508.79998779296875</ele>
        <time>2022-06-04T11:41:23.000Z</time>
      </trkpt>
      <trkpt lat="43.4505644626915454864501953125" lon="-5.59601361863315105438232421875">
        <ele>508.20001220703125</ele>
        <time>2022-06-04T11:41:25.000Z</time>
      </trkpt>
      <trkpt lat="43.45061592757701873779296875" lon="-5.5960039794445037841796875">
        <ele>507.600006103515625</ele>
        <time>2022-06-04T11:41:27.000Z</time>
      </trkpt>
      <trkpt lat="43.450638391077518463134765625" lon="-5.59599802829325199127197265625">
        <ele>507</ele>
        <time>2022-06-04T11:41:28.000Z</time>
      </trkpt>
      <trkpt lat="43.4506777860224246978759765625" lon="-5.59599014930427074432373046875">
        <ele>506.399993896484375</ele>
        <time>2022-06-04T11:41:29.000Z</time>
      </trkpt>
      <trkpt lat="43.45071290619671344757080078125" lon="-5.5959776602685451507568359375">
        <ele>505.79998779296875</ele>
        <time>2022-06-04T11:41:30.000Z</time>
      </trkpt>
      <trkpt lat="43.450738973915576934814453125" lon="-5.595979504287242889404296875">
        <ele>505.20001220703125</ele>
        <time>2022-06-04T11:41:31.000Z</time>
      </trkpt>
      <trkpt lat="43.450738973915576934814453125" lon="-5.595979504287242889404296875">
        <ele>504.79998779296875</ele>
        <time>2022-06-04T11:41:32.000Z</time>
      </trkpt>
      <trkpt lat="43.45080393366515636444091796875" lon="-5.59594564139842987060546875">
        <ele>504.20001220703125</ele>
        <time>2022-06-04T11:41:33.000Z</time>
      </trkpt>
      <trkpt lat="43.45084215514361858367919921875" lon="-5.59591923840343952178955078125">
        <ele>503.399993896484375</ele>
        <time>2022-06-04T11:41:34.000Z</time>
      </trkpt>
      <trkpt lat="43.45087903551757335662841796875" lon="-5.59588872827589511871337890625">
        <ele>502.600006103515625</ele>
        <time>2022-06-04T11:41:35.000Z</time>
      </trkpt>
      <trkpt lat="43.4509131498634815216064453125" lon="-5.595862828195095062255859375">
        <ele>501.399993896484375</ele>
        <time>2022-06-04T11:41:36.000Z</time>
      </trkpt>
      <trkpt lat="43.4509131498634815216064453125" lon="-5.595862828195095062255859375">
        <ele>500.399993896484375</ele>
        <time>2022-06-04T11:41:37.000Z</time>
      </trkpt>
      <trkpt lat="43.451059162616729736328125" lon="-5.59572712518274784088134765625">
        <ele>499.20001220703125</ele>
        <time>2022-06-04T11:41:39.000Z</time>
      </trkpt>
      <trkpt lat="43.45110350288450717926025390625" lon="-5.595675408840179443359375">
        <ele>499</ele>
        <time>2022-06-04T11:41:40.000Z</time>
      </trkpt>
      <trkpt lat="43.4511330910027027130126953125" lon="-5.59563693590462207794189453125">
        <ele>498.600006103515625</ele>
        <time>2022-06-04T11:41:41.000Z</time>
      </trkpt>
      <trkpt lat="43.45117986202239990234375" lon="-5.5956051684916019439697265625">
        <ele>498.399993896484375</ele>
        <time>2022-06-04T11:41:42.000Z</time>
      </trkpt>
      <trkpt lat="43.45117986202239990234375" lon="-5.5956051684916019439697265625">
        <ele>497.79998779296875</ele>
        <time>2022-06-04T11:41:43.000Z</time>
      </trkpt>
      <trkpt lat="43.45125135965645313262939453125" lon="-5.59552562423050403594970703125">
        <ele>496.79998779296875</ele>
        <time>2022-06-04T11:41:45.000Z</time>
      </trkpt>
      <trkpt lat="43.45132059417665004730224609375" lon="-5.59545337222516536712646484375">
        <ele>495</ele>
        <time>2022-06-04T11:41:47.000Z</time>
      </trkpt>
      <trkpt lat="43.45140139572322368621826171875" lon="-5.595385394990444183349609375">
        <ele>493.600006103515625</ele>
        <time>2022-06-04T11:41:49.000Z</time>
      </trkpt>
      <trkpt lat="43.4515136294066905975341796875" lon="-5.5953081138432025909423828125">
        <ele>492.600006103515625</ele>
        <time>2022-06-04T11:41:51.000Z</time>
      </trkpt>
      <trkpt lat="43.4515635855495929718017578125" lon="-5.595279447734355926513671875">
        <ele>491.79998779296875</ele>
        <time>2022-06-04T11:41:52.000Z</time>
      </trkpt>
      <trkpt lat="43.45161681063473224639892578125" lon="-5.59524667449295520782470703125">
        <ele>491</ele>
        <time>2022-06-04T11:41:53.000Z</time>
      </trkpt>
      <trkpt lat="43.45165637321770191192626953125" lon="-5.59522521682083606719970703125">
        <ele>490</ele>
        <time>2022-06-04T11:41:55.000Z</time>
      </trkpt>
      <trkpt lat="43.45177254639565944671630859375" lon="-5.59514558874070644378662109375">
        <ele>488.600006103515625</ele>
        <time>2022-06-04T11:41:57.000Z</time>
      </trkpt>
      <trkpt lat="43.45180439762771129608154296875" lon="-5.59512128122150897979736328125">
        <ele>487.399993896484375</ele>
        <time>2022-06-04T11:41:59.000Z</time>
      </trkpt>
      <trkpt lat="43.45186793245375156402587890625" lon="-5.59509144164621829986572265625">
        <ele>486.600006103515625</ele>
        <time>2022-06-04T11:42:01.000Z</time>
      </trkpt>
      <trkpt lat="43.4519000351428985595703125" lon="-5.59507652185857295989990234375">
        <ele>485.79998779296875</ele>
        <time>2022-06-04T11:42:02.000Z</time>
      </trkpt>
      <trkpt lat="43.45195393078029155731201171875" lon="-5.59504366479814052581787109375">
        <ele>484.20001220703125</ele>
        <time>2022-06-04T11:42:03.000Z</time>
      </trkpt>
      <trkpt lat="43.4519853629171848297119140625" lon="-5.59502296149730682373046875">
        <ele>483.600006103515625</ele>
        <time>2022-06-04T11:42:04.000Z</time>
      </trkpt>
      <trkpt lat="43.45201763324439525604248046875" lon="-5.59500443749129772186279296875">
        <ele>483.20001220703125</ele>
        <time>2022-06-04T11:42:05.000Z</time>
      </trkpt>
      <trkpt lat="43.452047891914844512939453125" lon="-5.59498147107660770416259765625">
        <ele>482.600006103515625</ele>
        <time>2022-06-04T11:42:06.000Z</time>
      </trkpt>
      <trkpt lat="43.45208535902202129364013671875" lon="-5.59496956877410411834716796875">
        <ele>482</ele>
        <time>2022-06-04T11:42:07.000Z</time>
      </trkpt>
      <trkpt lat="43.45208535902202129364013671875" lon="-5.59496956877410411834716796875">
        <ele>481.20001220703125</ele>
        <time>2022-06-04T11:42:08.000Z</time>
      </trkpt>
      <trkpt lat="43.452126346528530120849609375" lon="-5.59494878165423870086669921875">
        <ele>480.600006103515625</ele>
        <time>2022-06-04T11:42:09.000Z</time>
      </trkpt>
      <trkpt lat="43.45218812115490436553955078125" lon="-5.59489379636943340301513671875">
        <ele>480.20001220703125</ele>
        <time>2022-06-04T11:42:10.000Z</time>
      </trkpt>
      <trkpt lat="43.45218812115490436553955078125" lon="-5.59489379636943340301513671875">
        <ele>480</ele>
        <time>2022-06-04T11:42:11.000Z</time>
      </trkpt>
      <trkpt lat="43.4523425996303558349609375" lon="-5.59477225877344608306884765625">
        <ele>479.399993896484375</ele>
        <time>2022-06-04T11:42:13.000Z</time>
      </trkpt>
      <trkpt lat="43.4523425996303558349609375" lon="-5.59477225877344608306884765625">
        <ele>479</ele>
        <time>2022-06-04T11:42:14.000Z</time>
      </trkpt>
      <trkpt lat="43.452420048415660858154296875" lon="-5.59471962042152881622314453125">
        <ele>478.399993896484375</ele>
        <time>2022-06-04T11:42:15.000Z</time>
      </trkpt>
      <trkpt lat="43.452446870505809783935546875" lon="-5.59470905922353267669677734375">
        <ele>477.600006103515625</ele>
        <time>2022-06-04T11:42:16.000Z</time>
      </trkpt>
      <trkpt lat="43.45248182304203510284423828125" lon="-5.5946969054639339447021484375">
        <ele>476.79998779296875</ele>
        <time>2022-06-04T11:42:17.000Z</time>
      </trkpt>
      <trkpt lat="43.45251903869211673736572265625" lon="-5.59468709863722324371337890625">
        <ele>476.20001220703125</ele>
        <time>2022-06-04T11:42:18.000Z</time>
      </trkpt>
      <trkpt lat="43.45255742780864238739013671875" lon="-5.59467067010700702667236328125">
        <ele>475.600006103515625</ele>
        <time>2022-06-04T11:42:19.000Z</time>
      </trkpt>
      <trkpt lat="43.45255742780864238739013671875" lon="-5.59467067010700702667236328125">
        <ele>474.79998779296875</ele>
        <time>2022-06-04T11:42:20.000Z</time>
      </trkpt>
      <trkpt lat="43.45262381248176097869873046875" lon="-5.5946573428809642791748046875">
        <ele>474.20001220703125</ele>
        <time>2022-06-04T11:42:21.000Z</time>
      </trkpt>
      <trkpt lat="43.45265734009444713592529296875" lon="-5.59465977363288402557373046875">
        <ele>473.600006103515625</ele>
        <time>2022-06-04T11:42:22.000Z</time>
      </trkpt>
      <trkpt lat="43.452685587108135223388671875" lon="-5.59466614387929439544677734375">
        <ele>473.20001220703125</ele>
        <time>2022-06-04T11:42:23.000Z</time>
      </trkpt>
      <trkpt lat="43.45275088213384151458740234375" lon="-5.59466312639415264129638671875">
        <ele>472.600006103515625</ele>
        <time>2022-06-04T11:42:25.000Z</time>
      </trkpt>
      <trkpt lat="43.45275088213384151458740234375" lon="-5.59466312639415264129638671875">
        <ele>472</ele>
        <time>2022-06-04T11:42:26.000Z</time>
      </trkpt>
      <trkpt lat="43.45281944610178470611572265625" lon="-5.5946556665003299713134765625">
        <ele>471.600006103515625</ele>
        <time>2022-06-04T11:42:27.000Z</time>
      </trkpt>
      <trkpt lat="43.4528926201164722442626953125" lon="-5.5946593545377254486083984375">
        <ele>471</ele>
        <time>2022-06-04T11:42:29.000Z</time>
      </trkpt>
      <trkpt lat="43.45296084880828857421875" lon="-5.59465390630066394805908203125">
        <ele>469.79998779296875</ele>
        <time>2022-06-04T11:42:31.000Z</time>
      </trkpt>
      <trkpt lat="43.45299127511680126190185546875" lon="-5.594647116959095001220703125">
        <ele>468.600006103515625</ele>
        <time>2022-06-04T11:42:33.000Z</time>
      </trkpt>
      <trkpt lat="43.45308163203299045562744140625" lon="-5.59463412500917911529541015625">
        <ele>467.600006103515625</ele>
        <time>2022-06-04T11:42:35.000Z</time>
      </trkpt>
      <trkpt lat="43.45311381854116916656494140625" lon="-5.59463127516210079193115234375">
        <ele>467.399993896484375</ele>
        <time>2022-06-04T11:42:36.000Z</time>
      </trkpt>
      <trkpt lat="43.4531377069652080535888671875" lon="-5.5946298502385616302490234375">
        <ele>467</ele>
        <time>2022-06-04T11:42:37.000Z</time>
      </trkpt>
      <trkpt lat="43.4531377069652080535888671875" lon="-5.5946298502385616302490234375">
        <ele>466.399993896484375</ele>
        <time>2022-06-04T11:42:38.000Z</time>
      </trkpt>
      <trkpt lat="43.45317919738590717315673828125" lon="-5.59463077224791049957275390625">
        <ele>466</ele>
        <time>2022-06-04T11:42:39.000Z</time>
      </trkpt>
      <trkpt lat="43.45323569141328334808349609375" lon="-5.59462540782988071441650390625">
        <ele>465</ele>
        <time>2022-06-04T11:42:41.000Z</time>
      </trkpt>
      <trkpt lat="43.4533189237117767333984375" lon="-5.59462205506861209869384765625">
        <ele>464.20001220703125</ele>
        <time>2022-06-04T11:42:43.000Z</time>
      </trkpt>
      <trkpt lat="43.4533189237117767333984375" lon="-5.59462205506861209869384765625">
        <ele>463.600006103515625</ele>
        <time>2022-06-04T11:42:44.000Z</time>
      </trkpt>
      <trkpt lat="43.45336644910275936126708984375" lon="-5.59462465345859527587890625">
        <ele>463.20001220703125</ele>
        <time>2022-06-04T11:42:45.000Z</time>
      </trkpt>
      <trkpt lat="43.4534047544002532958984375" lon="-5.59461702592670917510986328125">
        <ele>462.399993896484375</ele>
        <time>2022-06-04T11:42:47.000Z</time>
      </trkpt>
      <trkpt lat="43.4534176625311374664306640625" lon="-5.5946145951747894287109375">
        <ele>461.79998779296875</ele>
        <time>2022-06-04T11:42:48.000Z</time>
      </trkpt>
      <trkpt lat="43.45343350432813167572021484375" lon="-5.59461149387061595916748046875">
        <ele>461.399993896484375</ele>
        <time>2022-06-04T11:42:49.000Z</time>
      </trkpt>
      <trkpt lat="43.45343350432813167572021484375" lon="-5.59461149387061595916748046875">
        <ele>461.20001220703125</ele>
        <time>2022-06-04T11:42:50.000Z</time>
      </trkpt>
      <trkpt lat="43.45345437526702880859375" lon="-5.5946104042232036590576171875">
        <ele>461.20001220703125</ele>
        <time>2022-06-04T11:42:51.000Z</time>
      </trkpt>
      <trkpt lat="43.45346719957888126373291015625" lon="-5.59460411779582500457763671875">
        <ele>460.20001220703125</ele>
        <time>2022-06-04T11:42:53.000Z</time>
      </trkpt>
      <trkpt lat="43.453763164579868316650390625" lon="-5.59454695321619510650634765625">
        <ele>457.399993896484375</ele>
        <time>2022-06-04T11:43:10.000Z</time>
      </trkpt>
      <trkpt lat="43.4537965245544910430908203125" lon="-5.59453370980918407440185546875">
        <ele>457.399993896484375</ele>
        <time>2022-06-04T11:43:11.000Z</time>
      </trkpt>
      <trkpt lat="43.45387238077819347381591796875" lon="-5.5945299379527568817138671875">
        <ele>457.20001220703125</ele>
        <time>2022-06-04T11:43:13.000Z</time>
      </trkpt>
      <trkpt lat="43.45395703800022602081298828125" lon="-5.59452935121953487396240234375">
        <ele>457.20001220703125</ele>
        <time>2022-06-04T11:43:15.000Z</time>
      </trkpt>
      <trkpt lat="43.45399475656449794769287109375" lon="-5.59452968649566173553466796875">
        <ele>457</ele>
        <time>2022-06-04T11:43:17.000Z</time>
      </trkpt>
      <trkpt lat="43.45406214706599712371826171875" lon="-5.594538487493991851806640625">
        <ele>456.600006103515625</ele>
        <time>2022-06-04T11:43:18.000Z</time>
      </trkpt>
      <trkpt lat="43.45409600995481014251708984375" lon="-5.59454410336911678314208984375">
        <ele>456.399993896484375</ele>
        <time>2022-06-04T11:43:19.000Z</time>
      </trkpt>
      <trkpt lat="43.45416390337049961090087890625" lon="-5.59454997070133686065673828125">
        <ele>456</ele>
        <time>2022-06-04T11:43:21.000Z</time>
      </trkpt>
      <trkpt lat="43.454231880605220794677734375" lon="-5.59455784969031810760498046875">
        <ele>455.399993896484375</ele>
        <time>2022-06-04T11:43:23.000Z</time>
      </trkpt>
      <trkpt lat="43.45427940599620342254638671875" lon="-5.59456069953739643096923828125">
        <ele>454.79998779296875</ele>
        <time>2022-06-04T11:43:24.000Z</time>
      </trkpt>
      <trkpt lat="43.45431930385529994964599609375" lon="-5.5945785529911518096923828125">
        <ele>454.399993896484375</ele>
        <time>2022-06-04T11:43:25.000Z</time>
      </trkpt>
      <trkpt lat="43.45431930385529994964599609375" lon="-5.5945785529911518096923828125">
        <ele>453.600006103515625</ele>
        <time>2022-06-04T11:43:26.000Z</time>
      </trkpt>
      <trkpt lat="43.4544043801724910736083984375" lon="-5.59462306089699268341064453125">
        <ele>453.20001220703125</ele>
        <time>2022-06-04T11:43:27.000Z</time>
      </trkpt>
      <trkpt lat="43.454446457326412200927734375" lon="-5.59463848359882831573486328125">
        <ele>452.20001220703125</ele>
        <time>2022-06-04T11:43:28.000Z</time>
      </trkpt>
      <trkpt lat="43.45448811538517475128173828125" lon="-5.59464720077812671661376953125">
        <ele>451.399993896484375</ele>
        <time>2022-06-04T11:43:29.000Z</time>
      </trkpt>
      <trkpt lat="43.45453002490103244781494140625" lon="-5.59465675614774227142333984375">
        <ele>450.79998779296875</ele>
        <time>2022-06-04T11:43:30.000Z</time>
      </trkpt>
      <trkpt lat="43.4545710124075412750244140625" lon="-5.59467016719281673431396484375">
        <ele>450.600006103515625</ele>
        <time>2022-06-04T11:43:31.000Z</time>
      </trkpt>
      <trkpt lat="43.45464854501187801361083984375" lon="-5.59468106366693973541259765625">
        <ele>450</ele>
        <time>2022-06-04T11:43:33.000Z</time>
      </trkpt>
      <trkpt lat="43.4546900354325771331787109375" lon="-5.59466916136443614959716796875">
        <ele>449</ele>
        <time>2022-06-04T11:43:34.000Z</time>
      </trkpt>
      <trkpt lat="43.45472197048366069793701171875" lon="-5.5946606956422328948974609375">
        <ele>448.20001220703125</ele>
        <time>2022-06-04T11:43:35.000Z</time>
      </trkpt>
      <trkpt lat="43.4547584317624568939208984375" lon="-5.59465222992002964019775390625">
        <ele>447.399993896484375</ele>
        <time>2022-06-04T11:43:36.000Z</time>
      </trkpt>
      <trkpt lat="43.4547584317624568939208984375" lon="-5.59465222992002964019775390625">
        <ele>447</ele>
        <time>2022-06-04T11:43:37.000Z</time>
      </trkpt>
      <trkpt lat="43.454794473946094512939453125" lon="-5.5946482904255390167236328125">
        <ele>446.20001220703125</ele>
        <time>2022-06-04T11:43:38.000Z</time>
      </trkpt>
      <trkpt lat="43.45486479811370372772216796875" lon="-5.59463948942720890045166015625">
        <ele>445.399993896484375</ele>
        <time>2022-06-04T11:43:39.000Z</time>
      </trkpt>
      <trkpt lat="43.45491458661854267120361328125" lon="-5.59461937285959720611572265625">
        <ele>445</ele>
        <time>2022-06-04T11:43:40.000Z</time>
      </trkpt>
      <trkpt lat="43.45495766960084438323974609375" lon="-5.594601519405841827392578125">
        <ele>444.600006103515625</ele>
        <time>2022-06-04T11:43:41.000Z</time>
      </trkpt>
      <trkpt lat="43.45504148863255977630615234375" lon="-5.59456162154674530029296875">
        <ele>444.20001220703125</ele>
        <time>2022-06-04T11:43:43.000Z</time>
      </trkpt>
      <trkpt lat="43.45504148863255977630615234375" lon="-5.59456162154674530029296875">
        <ele>443.79998779296875</ele>
        <time>2022-06-04T11:43:44.000Z</time>
      </trkpt>
      <trkpt lat="43.45512178726494312286376953125" lon="-5.59452247805893421173095703125">
        <ele>443.399993896484375</ele>
        <time>2022-06-04T11:43:45.000Z</time>
      </trkpt>
      <trkpt lat="43.45525120384991168975830078125" lon="-5.59447553940117359161376953125">
        <ele>443.20001220703125</ele>
        <time>2022-06-04T11:43:47.000Z</time>
      </trkpt>
      <trkpt lat="43.455375172197818756103515625" lon="-5.59445542283356189727783203125">
        <ele>442.79998779296875</ele>
        <time>2022-06-04T11:43:49.000Z</time>
      </trkpt>
      <trkpt lat="43.455375172197818756103515625" lon="-5.59445542283356189727783203125">
        <ele>442.600006103515625</ele>
        <time>2022-06-04T11:43:50.000Z</time>
      </trkpt>
      <trkpt lat="43.45547600649297237396240234375" lon="-5.59445827268064022064208984375">
        <ele>442.399993896484375</ele>
        <time>2022-06-04T11:43:51.000Z</time>
      </trkpt>
      <trkpt lat="43.45558363012969493865966796875" lon="-5.594470091164112091064453125">
        <ele>442</ele>
        <time>2022-06-04T11:43:53.000Z</time>
      </trkpt>
      <trkpt lat="43.455629646778106689453125" lon="-5.59449431486427783966064453125">
        <ele>441.79998779296875</ele>
        <time>2022-06-04T11:43:54.000Z</time>
      </trkpt>
      <trkpt lat="43.45567448996007442474365234375" lon="-5.594523064792156219482421875">
        <ele>441.79998779296875</ele>
        <time>2022-06-04T11:43:55.000Z</time>
      </trkpt>
      <trkpt lat="43.455763421952724456787109375" lon="-5.594595484435558319091796875">
        <ele>441.600006103515625</ele>
        <time>2022-06-04T11:43:57.000Z</time>
      </trkpt>
      <trkpt lat="43.45585352741181850433349609375" lon="-5.5946694128215312957763671875">
        <ele>441.600006103515625</ele>
        <time>2022-06-04T11:43:59.000Z</time>
      </trkpt>
      <trkpt lat="43.455894179642200469970703125" lon="-5.594721548259258270263671875">
        <ele>441.600006103515625</ele>
        <time>2022-06-04T11:44:00.000Z</time>
      </trkpt>
      <trkpt lat="43.455894179642200469970703125" lon="-5.594721548259258270263671875">
        <ele>441.600006103515625</ele>
        <time>2022-06-04T11:44:01.000Z</time>
      </trkpt>
      <trkpt lat="43.45598881132900714874267578125" lon="-5.5948238074779510498046875">
        <ele>441.600006103515625</ele>
        <time>2022-06-04T11:44:03.000Z</time>
      </trkpt>
      <trkpt lat="43.45602284185588359832763671875" lon="-5.594852305948734283447265625">
        <ele>441.600006103515625</ele>
        <time>2022-06-04T11:44:04.000Z</time>
      </trkpt>
      <trkpt lat="43.45602284185588359832763671875" lon="-5.594852305948734283447265625">
        <ele>441.600006103515625</ele>
        <time>2022-06-04T11:44:05.000Z</time>
      </trkpt>
      <trkpt lat="43.4561156295239925384521484375" lon="-5.59490620158612728118896484375">
        <ele>441.600006103515625</ele>
        <time>2022-06-04T11:44:06.000Z</time>
      </trkpt>
      <trkpt lat="43.4561156295239925384521484375" lon="-5.59490620158612728118896484375">
        <ele>441.600006103515625</ele>
        <time>2022-06-04T11:44:07.000Z</time>
      </trkpt>
      <trkpt lat="43.456165082752704620361328125" lon="-5.5949295870959758758544921875">
        <ele>441.600006103515625</ele>
        <time>2022-06-04T11:44:08.000Z</time>
      </trkpt>
      <trkpt lat="43.4562950022518634796142578125" lon="-5.5949704907834529876708984375">
        <ele>441.399993896484375</ele>
        <time>2022-06-04T11:44:09.000Z</time>
      </trkpt>
      <trkpt lat="43.45644528977572917938232421875" lon="-5.5950073711574077606201171875">
        <ele>441.399993896484375</ele>
        <time>2022-06-04T11:44:11.000Z</time>
      </trkpt>
      <trkpt lat="43.456618376076221466064453125" lon="-5.59505523182451725006103515625">
        <ele>441.399993896484375</ele>
        <time>2022-06-04T11:44:13.000Z</time>
      </trkpt>
      <trkpt lat="43.456618376076221466064453125" lon="-5.59505523182451725006103515625">
        <ele>441.399993896484375</ele>
        <time>2022-06-04T11:44:14.000Z</time>
      </trkpt>
      <trkpt lat="43.45678609795868396759033203125" lon="-5.59511876665055751800537109375">
        <ele>441.399993896484375</ele>
        <time>2022-06-04T11:44:15.000Z</time>
      </trkpt>
      <trkpt lat="43.4568676538765430450439453125" lon="-5.59515967033803462982177734375">
        <ele>440.399993896484375</ele>
        <time>2022-06-04T11:44:16.000Z</time>
      </trkpt>
      <trkpt lat="43.45694459974765777587890625" lon="-5.59519805945456027984619140625">
        <ele>439.79998779296875</ele>
        <time>2022-06-04T11:44:17.000Z</time>
      </trkpt>
      <trkpt lat="43.45701995305716991424560546875" lon="-5.5952316708862781524658203125">
        <ele>439.20001220703125</ele>
        <time>2022-06-04T11:44:18.000Z</time>
      </trkpt>
      <trkpt lat="43.45709438435733318328857421875" lon="-5.5952698923647403717041015625">
        <ele>438.79998779296875</ele>
        <time>2022-06-04T11:44:19.000Z</time>
      </trkpt>
      <trkpt lat="43.45724995248019695281982421875" lon="-5.5953335948288440704345703125">
        <ele>438</ele>
        <time>2022-06-04T11:44:21.000Z</time>
      </trkpt>
      <trkpt lat="43.45732773654162883758544921875" lon="-5.59535563923418521881103515625">
        <ele>437.79998779296875</ele>
        <time>2022-06-04T11:44:22.000Z</time>
      </trkpt>
      <trkpt lat="43.45732773654162883758544921875" lon="-5.59535563923418521881103515625">
        <ele>437.399993896484375</ele>
        <time>2022-06-04T11:44:23.000Z</time>
      </trkpt>
      <trkpt lat="43.4574969671666622161865234375" lon="-5.595386736094951629638671875">
        <ele>436.600006103515625</ele>
        <time>2022-06-04T11:44:24.000Z</time>
      </trkpt>
      <trkpt lat="43.45757718198001384735107421875" lon="-5.59540810994803905487060546875">
        <ele>436</ele>
        <time>2022-06-04T11:44:25.000Z</time>
      </trkpt>
      <trkpt lat="43.45757718198001384735107421875" lon="-5.59540810994803905487060546875">
        <ele>435</ele>
        <time>2022-06-04T11:44:26.000Z</time>
      </trkpt>
      <trkpt lat="43.45774146728217601776123046875" lon="-5.59545270167291164398193359375">
        <ele>434.399993896484375</ele>
        <time>2022-06-04T11:44:27.000Z</time>
      </trkpt>
      <trkpt lat="43.45784179866313934326171875" lon="-5.59547315351665019989013671875">
        <ele>433.79998779296875</ele>
        <time>2022-06-04T11:44:28.000Z</time>
      </trkpt>
      <trkpt lat="43.457938693463802337646484375" lon="-5.595492683351039886474609375">
        <ele>432.79998779296875</ele>
        <time>2022-06-04T11:44:29.000Z</time>
      </trkpt>
      <trkpt lat="43.45803785137832164764404296875" lon="-5.59550249017775058746337890625">
        <ele>432.20001220703125</ele>
        <time>2022-06-04T11:44:30.000Z</time>
      </trkpt>
      <trkpt lat="43.45813256688416004180908203125" lon="-5.5955126322805881500244140625">
        <ele>431.79998779296875</ele>
        <time>2022-06-04T11:44:31.000Z</time>
      </trkpt>
      <trkpt lat="43.45829333178699016571044921875" lon="-5.59553266502916812896728515625">
        <ele>431</ele>
        <time>2022-06-04T11:44:33.000Z</time>
      </trkpt>
      <trkpt lat="43.458369858562946319580078125" lon="-5.59553819708526134490966796875">
        <ele>429.79998779296875</ele>
        <time>2022-06-04T11:44:35.000Z</time>
      </trkpt>
      <trkpt lat="43.4585145302116870880126953125" lon="-5.59552185237407684326171875">
        <ele>428.79998779296875</ele>
        <time>2022-06-04T11:44:36.000Z</time>
      </trkpt>
      <trkpt lat="43.4585145302116870880126953125" lon="-5.59552185237407684326171875">
        <ele>428.20001220703125</ele>
        <time>2022-06-04T11:44:37.000Z</time>
      </trkpt>
      <trkpt lat="43.4585666656494140625" lon="-5.59551782906055450439453125">
        <ele>427.79998779296875</ele>
        <time>2022-06-04T11:44:38.000Z</time>
      </trkpt>
      <trkpt lat="43.4586117602884769439697265625" lon="-5.59549846686422824859619140625">
        <ele>427.399993896484375</ele>
        <time>2022-06-04T11:44:39.000Z</time>
      </trkpt>
      <trkpt lat="43.4587059728801250457763671875" lon="-5.5954402126371860504150390625">
        <ele>427</ele>
        <time>2022-06-04T11:44:41.000Z</time>
      </trkpt>
      <trkpt lat="43.458862714469432830810546875" lon="-5.59533946216106414794921875">
        <ele>426.79998779296875</ele>
        <time>2022-06-04T11:44:43.000Z</time>
      </trkpt>
      <trkpt lat="43.45891074277460575103759765625" lon="-5.59531205333769321441650390625">
        <ele>426.600006103515625</ele>
        <time>2022-06-04T11:44:45.000Z</time>
      </trkpt>
      <trkpt lat="43.45899221487343311309814453125" lon="-5.595279447734355926513671875">
        <ele>426.600006103515625</ele>
        <time>2022-06-04T11:44:46.000Z</time>
      </trkpt>
      <trkpt lat="43.45903160981833934783935546875" lon="-5.5952655337750911712646484375">
        <ele>426.399993896484375</ele>
        <time>2022-06-04T11:44:47.000Z</time>
      </trkpt>
      <trkpt lat="43.45910754986107349395751953125" lon="-5.59523351490497589111328125">
        <ele>426</ele>
        <time>2022-06-04T11:44:49.000Z</time>
      </trkpt>
      <trkpt lat="43.45919019542634487152099609375" lon="-5.5952142365276813507080078125">
        <ele>425.600006103515625</ele>
        <time>2022-06-04T11:44:51.000Z</time>
      </trkpt>
      <trkpt lat="43.45927418209612369537353515625" lon="-5.595203340053558349609375">
        <ele>424.600006103515625</ele>
        <time>2022-06-04T11:44:53.000Z</time>
      </trkpt>
      <trkpt lat="43.45937375910580158233642578125" lon="-5.59521297924220561981201171875">
        <ele>423.399993896484375</ele>
        <time>2022-06-04T11:44:55.000Z</time>
      </trkpt>
      <trkpt lat="43.4594692289829254150390625" lon="-5.59523577801883220672607421875">
        <ele>421.600006103515625</ele>
        <time>2022-06-04T11:44:57.000Z</time>
      </trkpt>
      <trkpt lat="43.45951591618359088897705078125" lon="-5.59524424374103546142578125">
        <ele>420.600006103515625</ele>
        <time>2022-06-04T11:44:58.000Z</time>
      </trkpt>
      <trkpt lat="43.45951591618359088897705078125" lon="-5.59524424374103546142578125">
        <ele>419.79998779296875</ele>
        <time>2022-06-04T11:44:59.000Z</time>
      </trkpt>
      <trkpt lat="43.4595988132059574127197265625" lon="-5.59527852572500705718994140625">
        <ele>419</ele>
        <time>2022-06-04T11:45:00.000Z</time>
      </trkpt>
      <trkpt lat="43.4595988132059574127197265625" lon="-5.59527852572500705718994140625">
        <ele>418</ele>
        <time>2022-06-04T11:45:01.000Z</time>
      </trkpt>
      <trkpt lat="43.4596799500286579132080078125" lon="-5.59530165977776050567626953125">
        <ele>416.79998779296875</ele>
        <time>2022-06-04T11:45:02.000Z</time>
      </trkpt>
      <trkpt lat="43.4596799500286579132080078125" lon="-5.59530165977776050567626953125">
        <ele>415.399993896484375</ele>
        <time>2022-06-04T11:45:03.000Z</time>
      </trkpt>
      <trkpt lat="43.459722362458705902099609375" lon="-5.595321021974086761474609375">
        <ele>414.20001220703125</ele>
        <time>2022-06-04T11:45:04.000Z</time>
      </trkpt>
      <trkpt lat="43.45976804383099079132080078125" lon="-5.59533837251365184783935546875">
        <ele>413.20001220703125</ele>
        <time>2022-06-04T11:45:05.000Z</time>
      </trkpt>
      <trkpt lat="43.4598433971405029296875" lon="-5.595371313393115997314453125">
        <ele>411.600006103515625</ele>
        <time>2022-06-04T11:45:07.000Z</time>
      </trkpt>
      <trkpt lat="43.4599179960787296295166015625" lon="-5.59541163034737110137939453125">
        <ele>409.79998779296875</ele>
        <time>2022-06-04T11:45:09.000Z</time>
      </trkpt>
      <trkpt lat="43.4599552117288112640380859375" lon="-5.5954298190772533416748046875">
        <ele>408.600006103515625</ele>
        <time>2022-06-04T11:45:10.000Z</time>
      </trkpt>
      <trkpt lat="43.459992595016956329345703125" lon="-5.59544230811297893524169921875">
        <ele>407.79998779296875</ele>
        <time>2022-06-04T11:45:11.000Z</time>
      </trkpt>
      <trkpt lat="43.46008571796119213104248046875" lon="-5.59546762146055698394775390625">
        <ele>406.79998779296875</ele>
        <time>2022-06-04T11:45:12.000Z</time>
      </trkpt>
      <trkpt lat="43.46008571796119213104248046875" lon="-5.59546762146055698394775390625">
        <ele>405.600006103515625</ele>
        <time>2022-06-04T11:45:13.000Z</time>
      </trkpt>
      <trkpt lat="43.46012125723063945770263671875" lon="-5.59547918848693370819091796875">
        <ele>404.20001220703125</ele>
        <time>2022-06-04T11:45:14.000Z</time>
      </trkpt>
      <trkpt lat="43.46016936935484409332275390625" lon="-5.595493018627166748046875">
        <ele>403</ele>
        <time>2022-06-04T11:45:15.000Z</time>
      </trkpt>
      <trkpt lat="43.4602539427578449249267578125" lon="-5.5955206789076328277587890625">
        <ele>401</ele>
        <time>2022-06-04T11:45:17.000Z</time>
      </trkpt>
      <trkpt lat="43.4603154659271240234375" lon="-5.59552378021180629730224609375">
        <ele>399.79998779296875</ele>
        <time>2022-06-04T11:45:18.000Z</time>
      </trkpt>
      <trkpt lat="43.460354693233966827392578125" lon="-5.5955263786017894744873046875">
        <ele>398.79998779296875</ele>
        <time>2022-06-04T11:45:19.000Z</time>
      </trkpt>
      <trkpt lat="43.4604031406342983245849609375" lon="-5.59553325176239013671875">
        <ele>397.600006103515625</ele>
        <time>2022-06-04T11:45:20.000Z</time>
      </trkpt>
      <trkpt lat="43.46043960191309452056884765625" lon="-5.59554222039878368377685546875">
        <ele>396.79998779296875</ele>
        <time>2022-06-04T11:45:21.000Z</time>
      </trkpt>
      <trkpt lat="43.46047681756317615509033203125" lon="-5.59555403888225555419921875">
        <ele>396</ele>
        <time>2022-06-04T11:45:22.000Z</time>
      </trkpt>
      <trkpt lat="43.4605322219431400299072265625" lon="-5.5955609120428562164306640625">
        <ele>395.20001220703125</ele>
        <time>2022-06-04T11:45:23.000Z</time>
      </trkpt>
      <trkpt lat="43.46057832241058349609375" lon="-5.595568455755710601806640625">
        <ele>394.399993896484375</ele>
        <time>2022-06-04T11:45:24.000Z</time>
      </trkpt>
      <trkpt lat="43.46068234182894229888916015625" lon="-5.5955867283046245574951171875">
        <ele>393.79998779296875</ele>
        <time>2022-06-04T11:45:25.000Z</time>
      </trkpt>
      <trkpt lat="43.46068234182894229888916015625" lon="-5.5955867283046245574951171875">
        <ele>392.79998779296875</ele>
        <time>2022-06-04T11:45:26.000Z</time>
      </trkpt>
      <trkpt lat="43.4608131833374500274658203125" lon="-5.59562469832599163055419921875">
        <ele>391.79998779296875</ele>
        <time>2022-06-04T11:45:27.000Z</time>
      </trkpt>
      <trkpt lat="43.4608872793614864349365234375" lon="-5.59564196504652500152587890625">
        <ele>390.600006103515625</ele>
        <time>2022-06-04T11:45:28.000Z</time>
      </trkpt>
      <trkpt lat="43.460965566337108612060546875" lon="-5.59566375799477100372314453125">
        <ele>389.600006103515625</ele>
        <time>2022-06-04T11:45:29.000Z</time>
      </trkpt>
      <trkpt lat="43.4610436856746673583984375" lon="-5.595685131847858428955078125">
        <ele>388.600006103515625</ele>
        <time>2022-06-04T11:45:30.000Z</time>
      </trkpt>
      <trkpt lat="43.461129181087017059326171875" lon="-5.59569753706455230712890625">
        <ele>387.79998779296875</ele>
        <time>2022-06-04T11:45:31.000Z</time>
      </trkpt>
      <trkpt lat="43.461129181087017059326171875" lon="-5.59569753706455230712890625">
        <ele>386.600006103515625</ele>
        <time>2022-06-04T11:45:32.000Z</time>
      </trkpt>
      <trkpt lat="43.46129623241722583770751953125" lon="-5.59572913683950901031494140625">
        <ele>385.79998779296875</ele>
        <time>2022-06-04T11:45:33.000Z</time>
      </trkpt>
      <trkpt lat="43.4613881818950176239013671875" lon="-5.595752857625484466552734375">
        <ele>384.600006103515625</ele>
        <time>2022-06-04T11:45:34.000Z</time>
      </trkpt>
      <trkpt lat="43.46149655990302562713623046875" lon="-5.59577724896371364593505859375">
        <ele>383.20001220703125</ele>
        <time>2022-06-04T11:45:35.000Z</time>
      </trkpt>
      <trkpt lat="43.46168414689600467681884765625" lon="-5.5958331562578678131103515625">
        <ele>381.20001220703125</ele>
        <time>2022-06-04T11:45:37.000Z</time>
      </trkpt>
      <trkpt lat="43.46176293678581714630126953125" lon="-5.59586676768958568572998046875">
        <ele>380.20001220703125</ele>
        <time>2022-06-04T11:45:38.000Z</time>
      </trkpt>
      <trkpt lat="43.46183300949633121490478515625" lon="-5.59590431861579418182373046875">
        <ele>379</ele>
        <time>2022-06-04T11:45:39.000Z</time>
      </trkpt>
      <trkpt lat="43.4618993103504180908203125" lon="-5.59593935497105121612548828125">
        <ele>377.79998779296875</ele>
        <time>2022-06-04T11:45:40.000Z</time>
      </trkpt>
      <trkpt lat="43.46196309663355350494384765625" lon="-5.595971457660198211669921875">
        <ele>376.600006103515625</ele>
        <time>2022-06-04T11:45:41.000Z</time>
      </trkpt>
      <trkpt lat="43.46207625232636928558349609375" lon="-5.596023090183734893798828125">
        <ele>375.20001220703125</ele>
        <time>2022-06-04T11:45:43.000Z</time>
      </trkpt>
      <trkpt lat="43.46213609911501407623291015625" lon="-5.59603675268590450286865234375">
        <ele>375</ele>
        <time>2022-06-04T11:45:44.000Z</time>
      </trkpt>
      <trkpt lat="43.46219477243721485137939453125" lon="-5.5960544385015964508056640625">
        <ele>374.600006103515625</ele>
        <time>2022-06-04T11:45:45.000Z</time>
      </trkpt>
      <trkpt lat="43.46230273135006427764892578125" lon="-5.5960769020020961761474609375">
        <ele>374.600006103515625</ele>
        <time>2022-06-04T11:45:47.000Z</time>
      </trkpt>
      <trkpt lat="43.4624131210148334503173828125" lon="-5.59610079042613506317138671875">
        <ele>374.600006103515625</ele>
        <time>2022-06-04T11:45:49.000Z</time>
      </trkpt>
      <trkpt lat="43.46246718429028987884521484375" lon="-5.5961194820702075958251953125">
        <ele>374.600006103515625</ele>
        <time>2022-06-04T11:45:50.000Z</time>
      </trkpt>
      <trkpt lat="43.46246718429028987884521484375" lon="-5.5961194820702075958251953125">
        <ele>374.600006103515625</ele>
        <time>2022-06-04T11:45:51.000Z</time>
      </trkpt>
      <trkpt lat="43.46251362003386020660400390625" lon="-5.59614454396069049835205078125">
        <ele>374.79998779296875</ele>
        <time>2022-06-04T11:45:52.000Z</time>
      </trkpt>
      <trkpt lat="43.4625572897493839263916015625" lon="-5.5961788259446620941162109375">
        <ele>375</ele>
        <time>2022-06-04T11:45:53.000Z</time>
      </trkpt>
      <trkpt lat="43.46264437772333621978759765625" lon="-5.5962592922151088714599609375">
        <ele>375.600006103515625</ele>
        <time>2022-06-04T11:45:55.000Z</time>
      </trkpt>
      <trkpt lat="43.4626851975917816162109375" lon="-5.59629525057971477508544921875">
        <ele>375.600006103515625</ele>
        <time>2022-06-04T11:45:56.000Z</time>
      </trkpt>
      <trkpt lat="43.462763316929340362548828125" lon="-5.59636398218572139739990234375">
        <ele>375.79998779296875</ele>
        <time>2022-06-04T11:45:57.000Z</time>
      </trkpt>
      <trkpt lat="43.46280648373067378997802734375" lon="-5.59639130719006061553955078125">
        <ele>375.79998779296875</ele>
        <time>2022-06-04T11:45:58.000Z</time>
      </trkpt>
      <trkpt lat="43.46285241656005382537841796875" lon="-5.5964229069650173187255859375">
        <ele>376</ele>
        <time>2022-06-04T11:45:59.000Z</time>
      </trkpt>
      <trkpt lat="43.46290371380746364593505859375" lon="-5.59645165689289569854736328125">
        <ele>376</ele>
        <time>2022-06-04T11:46:00.000Z</time>
      </trkpt>
      <trkpt lat="43.4629507362842559814453125" lon="-5.5964762158691883087158203125">
        <ele>376.20001220703125</ele>
        <time>2022-06-04T11:46:01.000Z</time>
      </trkpt>
      <trkpt lat="43.4629507362842559814453125" lon="-5.5964762158691883087158203125">
        <ele>376.20001220703125</ele>
        <time>2022-06-04T11:46:02.000Z</time>
      </trkpt>
      <trkpt lat="43.463038243353366851806640625" lon="-5.5965117551386356353759765625">
        <ele>376.600006103515625</ele>
        <time>2022-06-04T11:46:03.000Z</time>
      </trkpt>
      <trkpt lat="43.463124074041843414306640625" lon="-5.5965446121990680694580078125">
        <ele>376.600006103515625</ele>
        <time>2022-06-04T11:46:05.000Z</time>
      </trkpt>
      <trkpt lat="43.463218621909618377685546875" lon="-5.59658492915332317352294921875">
        <ele>377</ele>
        <time>2022-06-04T11:46:07.000Z</time>
      </trkpt>
      <trkpt lat="43.4632674045860767364501953125" lon="-5.59660236351191997528076171875">
        <ele>377</ele>
        <time>2022-06-04T11:46:09.000Z</time>
      </trkpt>
      <trkpt lat="43.46335918642580509185791015625" lon="-5.59664192609488964080810546875">
        <ele>377.600006103515625</ele>
        <time>2022-06-04T11:46:10.000Z</time>
      </trkpt>
      <trkpt lat="43.4634038619697093963623046875" lon="-5.596663467586040496826171875">
        <ele>377.79998779296875</ele>
        <time>2022-06-04T11:46:11.000Z</time>
      </trkpt>
      <trkpt lat="43.46345339901745319366455078125" lon="-5.5966798961162567138671875">
        <ele>378</ele>
        <time>2022-06-04T11:46:13.000Z</time>
      </trkpt>
      <trkpt lat="43.46355632878839969635009765625" lon="-5.59673144482076168060302734375">
        <ele>378.20001220703125</ele>
        <time>2022-06-04T11:46:14.000Z</time>
      </trkpt>
      <trkpt lat="43.46362061798572540283203125" lon="-5.5967601947486400604248046875">
        <ele>378.20001220703125</ele>
        <time>2022-06-04T11:46:15.000Z</time>
      </trkpt>
      <trkpt lat="43.463748358190059661865234375" lon="-5.59681006707251071929931640625">
        <ele>378.20001220703125</ele>
        <time>2022-06-04T11:46:17.000Z</time>
      </trkpt>
      <trkpt lat="43.4638806246221065521240234375" lon="-5.59685214422643184661865234375">
        <ele>378.20001220703125</ele>
        <time>2022-06-04T11:46:19.000Z</time>
      </trkpt>
      <trkpt lat="43.46394441090524196624755859375" lon="-5.596867315471172332763671875">
        <ele>378.20001220703125</ele>
        <time>2022-06-04T11:46:20.000Z</time>
      </trkpt>
      <trkpt lat="43.46401146613061428070068359375" lon="-5.596877373754978179931640625">
        <ele>378</ele>
        <time>2022-06-04T11:46:21.000Z</time>
      </trkpt>
      <trkpt lat="43.46413752995431423187255859375" lon="-5.5969331972301006317138671875">
        <ele>377.79998779296875</ele>
        <time>2022-06-04T11:46:23.000Z</time>
      </trkpt>
      <trkpt lat="43.464266695082187652587890625" lon="-5.59706286527216434478759765625">
        <ele>377.20001220703125</ele>
        <time>2022-06-04T11:46:25.000Z</time>
      </trkpt>
      <trkpt lat="43.46442637033760547637939453125" lon="-5.59723041951656341552734375">
        <ele>377</ele>
        <time>2022-06-04T11:46:27.000Z</time>
      </trkpt>
      <trkpt lat="43.4645573794841766357421875" lon="-5.59740099124610424041748046875">
        <ele>376.600006103515625</ele>
        <time>2022-06-04T11:46:29.000Z</time>
      </trkpt>
      <trkpt lat="43.46459560096263885498046875" lon="-5.597515739500522613525390625">
        <ele>376.399993896484375</ele>
        <time>2022-06-04T11:46:30.000Z</time>
      </trkpt>
      <trkpt lat="43.46463524736464023590087890625" lon="-5.59762260876595973968505859375">
        <ele>376</ele>
        <time>2022-06-04T11:46:31.000Z</time>
      </trkpt>
      <trkpt lat="43.464675061404705047607421875" lon="-5.5977231077849864959716796875">
        <ele>375.600006103515625</ele>
        <time>2022-06-04T11:46:32.000Z</time>
      </trkpt>
      <trkpt lat="43.46471604891121387481689453125" lon="-5.59781790710985660552978515625">
        <ele>375.20001220703125</ele>
        <time>2022-06-04T11:46:33.000Z</time>
      </trkpt>
      <trkpt lat="43.46481126733124256134033203125" lon="-5.598001889884471893310546875">
        <ele>374.20001220703125</ele>
        <time>2022-06-04T11:46:35.000Z</time>
      </trkpt>
      <trkpt lat="43.46484445966780185699462890625" lon="-5.59809735976159572601318359375">
        <ele>374</ele>
        <time>2022-06-04T11:46:36.000Z</time>
      </trkpt>
      <trkpt lat="43.46486675553023815155029296875" lon="-5.598192997276782989501953125">
        <ele>373.600006103515625</ele>
        <time>2022-06-04T11:46:37.000Z</time>
      </trkpt>
      <trkpt lat="43.4649266861379146575927734375" lon="-5.5983750522136688232421875">
        <ele>373.399993896484375</ele>
        <time>2022-06-04T11:46:39.000Z</time>
      </trkpt>
      <trkpt lat="43.46498477272689342498779296875" lon="-5.5985468812286853790283203125">
        <ele>373</ele>
        <time>2022-06-04T11:46:41.000Z</time>
      </trkpt>
      <trkpt lat="43.4650326333940029144287109375" lon="-5.59872684068977832794189453125">
        <ele>373</ele>
        <time>2022-06-04T11:46:43.000Z</time>
      </trkpt>
      <trkpt lat="43.46509055234491825103759765625" lon="-5.59890143573284149169921875">
        <ele>373</ele>
        <time>2022-06-04T11:46:45.000Z</time>
      </trkpt>
      <trkpt lat="43.46515073440968990325927734375" lon="-5.59908223338425159454345703125">
        <ele>372.79998779296875</ele>
        <time>2022-06-04T11:46:47.000Z</time>
      </trkpt>
      <trkpt lat="43.46520521678030490875244140625" lon="-5.59926579706370830535888671875">
        <ele>372.79998779296875</ele>
        <time>2022-06-04T11:46:49.000Z</time>
      </trkpt>
      <trkpt lat="43.46520521678030490875244140625" lon="-5.59926579706370830535888671875">
        <ele>372.79998779296875</ele>
        <time>2022-06-04T11:46:50.000Z</time>
      </trkpt>
      <trkpt lat="43.465245030820369720458984375" lon="-5.59945489279925823211669921875">
        <ele>372.79998779296875</ele>
        <time>2022-06-04T11:46:51.000Z</time>
      </trkpt>
      <trkpt lat="43.46525735221803188323974609375" lon="-5.59954759664833545684814453125">
        <ele>372.79998779296875</ele>
        <time>2022-06-04T11:46:52.000Z</time>
      </trkpt>
      <trkpt lat="43.465269170701503753662109375" lon="-5.599638707935810089111328125">
        <ele>372.79998779296875</ele>
        <time>2022-06-04T11:46:53.000Z</time>
      </trkpt>
      <trkpt lat="43.46529004164040088653564453125" lon="-5.59980860911309719085693359375">
        <ele>372.600006103515625</ele>
        <time>2022-06-04T11:46:55.000Z</time>
      </trkpt>
      <trkpt lat="43.46529574133455753326416015625" lon="-5.5999758280813694000244140625">
        <ele>372.399993896484375</ele>
        <time>2022-06-04T11:46:57.000Z</time>
      </trkpt>
      <trkpt lat="43.4652978368103504180908203125" lon="-5.6001211702823638916015625">
        <ele>372.399993896484375</ele>
        <time>2022-06-04T11:46:59.000Z</time>
      </trkpt>
      <trkpt lat="43.46529708243906497955322265625" lon="-5.600192584097385406494140625">
        <ele>372.399993896484375</ele>
        <time>2022-06-04T11:47:00.000Z</time>
      </trkpt>
      <trkpt lat="43.465294651687145233154296875" lon="-5.6002638302743434906005859375">
        <ele>372.399993896484375</ele>
        <time>2022-06-04T11:47:01.000Z</time>
      </trkpt>
      <trkpt lat="43.46529624424874782562255859375" lon="-5.60039182193577289581298828125">
        <ele>372.399993896484375</ele>
        <time>2022-06-04T11:47:03.000Z</time>
      </trkpt>
      <trkpt lat="43.4653189592063426971435546875" lon="-5.600542612373828887939453125">
        <ele>372.399993896484375</ele>
        <time>2022-06-04T11:47:05.000Z</time>
      </trkpt>
      <trkpt lat="43.46538458950817584991455078125" lon="-5.6006929837167263031005859375">
        <ele>372.399993896484375</ele>
        <time>2022-06-04T11:47:07.000Z</time>
      </trkpt>
      <trkpt lat="43.46538458950817584991455078125" lon="-5.6006929837167263031005859375">
        <ele>372.399993896484375</ele>
        <time>2022-06-04T11:47:08.000Z</time>
      </trkpt>
      <trkpt lat="43.46547913737595081329345703125" lon="-5.60083455406129360198974609375">
        <ele>372.399993896484375</ele>
        <time>2022-06-04T11:47:09.000Z</time>
      </trkpt>
      <trkpt lat="43.46560402773320674896240234375" lon="-5.60094058513641357421875">
        <ele>372.399993896484375</ele>
        <time>2022-06-04T11:47:11.000Z</time>
      </trkpt>
      <trkpt lat="43.4657360427081584930419921875" lon="-5.6010041199624538421630859375">
        <ele>372.399993896484375</ele>
        <time>2022-06-04T11:47:13.000Z</time>
      </trkpt>
      <trkpt lat="43.4658587537705898284912109375" lon="-5.60105524957180023193359375">
        <ele>372.399993896484375</ele>
        <time>2022-06-04T11:47:15.000Z</time>
      </trkpt>
      <trkpt lat="43.46596796996891498565673828125" lon="-5.60110042802989482879638671875">
        <ele>372.20001220703125</ele>
        <time>2022-06-04T11:47:17.000Z</time>
      </trkpt>
      <trkpt lat="43.4660237096250057220458984375" lon="-5.60111819766461849212646484375">
        <ele>372</ele>
        <time>2022-06-04T11:47:18.000Z</time>
      </trkpt>
      <trkpt lat="43.4660800360143184661865234375" lon="-5.60113781131803989410400390625">
        <ele>372</ele>
        <time>2022-06-04T11:47:19.000Z</time>
      </trkpt>
      <trkpt lat="43.46619629301130771636962890625" lon="-5.60118843801319599151611328125">
        <ele>372</ele>
        <time>2022-06-04T11:47:21.000Z</time>
      </trkpt>
      <trkpt lat="43.4663090296089649200439453125" lon="-5.60125448741018772125244140625">
        <ele>372</ele>
        <time>2022-06-04T11:47:23.000Z</time>
      </trkpt>
      <trkpt lat="43.46641522832214832305908203125" lon="-5.60133696533739566802978515625">
        <ele>371.79998779296875</ele>
        <time>2022-06-04T11:47:25.000Z</time>
      </trkpt>
      <trkpt lat="43.466529808938503265380859375" lon="-5.60141810216009616851806640625">
        <ele>371.79998779296875</ele>
        <time>2022-06-04T11:47:27.000Z</time>
      </trkpt>
      <trkpt lat="43.46666148863732814788818359375" lon="-5.601510889828205108642578125">
        <ele>371.79998779296875</ele>
        <time>2022-06-04T11:47:29.000Z</time>
      </trkpt>
      <trkpt lat="43.46673290245234966278076171875" lon="-5.60156361199915409088134765625">
        <ele>371.79998779296875</ele>
        <time>2022-06-04T11:47:30.000Z</time>
      </trkpt>
      <trkpt lat="43.46680884249508380889892578125" lon="-5.60162094421684741973876953125">
        <ele>371.79998779296875</ele>
        <time>2022-06-04T11:47:31.000Z</time>
      </trkpt>
      <trkpt lat="43.46697396598756313323974609375" lon="-5.60173527337610721588134765625">
        <ele>371.600006103515625</ele>
        <time>2022-06-04T11:47:33.000Z</time>
      </trkpt>
      <trkpt lat="43.46717186272144317626953125" lon="-5.6018557213246822357177734375">
        <ele>371.20001220703125</ele>
        <time>2022-06-04T11:47:35.000Z</time>
      </trkpt>
      <trkpt lat="43.467378057539463043212890625" lon="-5.60198639519512653350830078125">
        <ele>370.399993896484375</ele>
        <time>2022-06-04T11:47:37.000Z</time>
      </trkpt>
      <trkpt lat="43.467378057539463043212890625" lon="-5.60198639519512653350830078125">
        <ele>370</ele>
        <time>2022-06-04T11:47:38.000Z</time>
      </trkpt>
      <trkpt lat="43.467576205730438232421875" lon="-5.60211069881916046142578125">
        <ele>369.399993896484375</ele>
        <time>2022-06-04T11:47:39.000Z</time>
      </trkpt>
      <trkpt lat="43.4676689095795154571533203125" lon="-5.6021757423877716064453125">
        <ele>369</ele>
        <time>2022-06-04T11:47:40.000Z</time>
      </trkpt>
      <trkpt lat="43.46775792539119720458984375" lon="-5.60224053449928760528564453125">
        <ele>368.20001220703125</ele>
        <time>2022-06-04T11:47:41.000Z</time>
      </trkpt>
      <trkpt lat="43.4678452648222446441650390625" lon="-5.60230038128793239593505859375">
        <ele>367</ele>
        <time>2022-06-04T11:47:42.000Z</time>
      </trkpt>
      <trkpt lat="43.46793687902390956878662109375" lon="-5.60234782285988330841064453125">
        <ele>366</ele>
        <time>2022-06-04T11:47:43.000Z</time>
      </trkpt>
      <trkpt lat="43.46811725758016109466552734375" lon="-5.60241588391363620758056640625">
        <ele>364.79998779296875</ele>
        <time>2022-06-04T11:47:45.000Z</time>
      </trkpt>
      <trkpt lat="43.46827332861721515655517578125" lon="-5.6024541892111301422119140625">
        <ele>363.20001220703125</ele>
        <time>2022-06-04T11:47:47.000Z</time>
      </trkpt>
      <trkpt lat="43.46835203468799591064453125" lon="-5.60246868990361690521240234375">
        <ele>361.79998779296875</ele>
        <time>2022-06-04T11:47:48.000Z</time>
      </trkpt>
      <trkpt lat="43.468431495130062103271484375" lon="-5.60248930938541889190673828125">
        <ele>361</ele>
        <time>2022-06-04T11:47:49.000Z</time>
      </trkpt>
      <trkpt lat="43.468431495130062103271484375" lon="-5.60248930938541889190673828125">
        <ele>360.20001220703125</ele>
        <time>2022-06-04T11:47:50.000Z</time>
      </trkpt>
      <trkpt lat="43.468609191477298736572265625" lon="-5.60255435295403003692626953125">
        <ele>359.20001220703125</ele>
        <time>2022-06-04T11:47:51.000Z</time>
      </trkpt>
      <trkpt lat="43.46878462471067905426025390625" lon="-5.60264001600444316864013671875">
        <ele>357.79998779296875</ele>
        <time>2022-06-04T11:47:53.000Z</time>
      </trkpt>
      <trkpt lat="43.4688663482666015625" lon="-5.602687709033489227294921875">
        <ele>356.399993896484375</ele>
        <time>2022-06-04T11:47:54.000Z</time>
      </trkpt>
      <trkpt lat="43.4689386002719402313232421875" lon="-5.60274613089859485626220703125">
        <ele>355.20001220703125</ele>
        <time>2022-06-04T11:47:55.000Z</time>
      </trkpt>
      <trkpt lat="43.4690381772816181182861328125" lon="-5.60287387110292911529541015625">
        <ele>353.79998779296875</ele>
        <time>2022-06-04T11:47:57.000Z</time>
      </trkpt>
      <trkpt lat="43.46909391693770885467529296875" lon="-5.6029856018722057342529296875">
        <ele>352</ele>
        <time>2022-06-04T11:47:59.000Z</time>
      </trkpt>
      <trkpt lat="43.4691270254552364349365234375" lon="-5.6030198000371456146240234375">
        <ele>351</ele>
        <time>2022-06-04T11:48:00.000Z</time>
      </trkpt>
      <trkpt lat="43.46917170099914073944091796875" lon="-5.60303832404315471649169921875">
        <ele>350</ele>
        <time>2022-06-04T11:48:01.000Z</time>
      </trkpt>
      <trkpt lat="43.46917170099914073944091796875" lon="-5.60303832404315471649169921875">
        <ele>348.79998779296875</ele>
        <time>2022-06-04T11:48:02.000Z</time>
      </trkpt>
      <trkpt lat="43.46928234212100505828857421875" lon="-5.603062547743320465087890625">
        <ele>346.20001220703125</ele>
        <time>2022-06-04T11:48:03.000Z</time>
      </trkpt>
      <trkpt lat="43.469345457851886749267578125" lon="-5.603075958788394927978515625">
        <ele>345.20001220703125</ele>
        <time>2022-06-04T11:48:04.000Z</time>
      </trkpt>
      <trkpt lat="43.469412513077259063720703125" lon="-5.60310571454465389251708984375">
        <ele>344.20001220703125</ele>
        <time>2022-06-04T11:48:05.000Z</time>
      </trkpt>
      <trkpt lat="43.4694819152355194091796875" lon="-5.603148043155670166015625">
        <ele>343.399993896484375</ele>
        <time>2022-06-04T11:48:06.000Z</time>
      </trkpt>
      <trkpt lat="43.469546623528003692626953125" lon="-5.60320344753563404083251953125">
        <ele>342.79998779296875</ele>
        <time>2022-06-04T11:48:07.000Z</time>
      </trkpt>
      <trkpt lat="43.469546623528003692626953125" lon="-5.60320344753563404083251953125">
        <ele>342.20001220703125</ele>
        <time>2022-06-04T11:48:08.000Z</time>
      </trkpt>
      <trkpt lat="43.469663299620151519775390625" lon="-5.60332800261676311492919921875">
        <ele>342</ele>
        <time>2022-06-04T11:48:09.000Z</time>
      </trkpt>
      <trkpt lat="43.46977100707590579986572265625" lon="-5.6034600175917148590087890625">
        <ele>341.399993896484375</ele>
        <time>2022-06-04T11:48:11.000Z</time>
      </trkpt>
      <trkpt lat="43.4698247350752353668212890625" lon="-5.60352288186550140380859375">
        <ele>341.20001220703125</ele>
        <time>2022-06-04T11:48:12.000Z</time>
      </trkpt>
      <trkpt lat="43.46987343393266201019287109375" lon="-5.6035760231316089630126953125">
        <ele>340</ele>
        <time>2022-06-04T11:48:14.000Z</time>
      </trkpt>
      <trkpt lat="43.46995138563215732574462890625" lon="-5.60366344638168811798095703125">
        <ele>339.399993896484375</ele>
        <time>2022-06-04T11:48:16.000Z</time>
      </trkpt>
      <trkpt lat="43.4699518047273159027099609375" lon="-5.60368389822542667388916015625">
        <ele>339.20001220703125</ele>
        <time>2022-06-04T11:48:17.000Z</time>
      </trkpt>
      <trkpt lat="43.4699474461376667022705078125" lon="-5.6036938726902008056640625">
        <ele>339</ele>
        <time>2022-06-04T11:48:18.000Z</time>
      </trkpt>
      <trkpt lat="43.4699417464435100555419921875" lon="-5.6036913581192493438720703125">
        <ele>338.79998779296875</ele>
        <time>2022-06-04T11:48:19.000Z</time>
      </trkpt>
      <trkpt lat="43.46993445418775081634521484375" lon="-5.60367970727384090423583984375">
        <ele>338.399993896484375</ele>
        <time>2022-06-04T11:48:20.000Z</time>
      </trkpt>
      <trkpt lat="43.46991970203816890716552734375" lon="-5.6036652065813541412353515625">
        <ele>337.79998779296875</ele>
        <time>2022-06-04T11:48:21.000Z</time>
      </trkpt>
      <trkpt lat="43.46990109421312808990478515625" lon="-5.6036536395549774169921875">
        <ele>337.20001220703125</ele>
        <time>2022-06-04T11:48:22.000Z</time>
      </trkpt>
      <trkpt lat="43.46987846307456493377685546875" lon="-5.60362908057868480682373046875">
        <ele>336.600006103515625</ele>
        <time>2022-06-04T11:48:23.000Z</time>
      </trkpt>
      <trkpt lat="43.46985583193600177764892578125" lon="-5.60359773226082324981689453125">
        <ele>336.399993896484375</ele>
        <time>2022-06-04T11:48:24.000Z</time>
      </trkpt>
      <trkpt lat="43.46983102150261402130126953125" lon="-5.603565461933612823486328125">
        <ele>336</ele>
        <time>2022-06-04T11:48:26.000Z</time>
      </trkpt>
      <trkpt lat="43.469761870801448822021484375" lon="-5.60345993377268314361572265625">
        <ele>336</ele>
        <time>2022-06-04T11:48:28.000Z</time>
      </trkpt>
      <trkpt lat="43.46971635706722736358642578125" lon="-5.60339547693729400634765625">
        <ele>336</ele>
        <time>2022-06-04T11:48:30.000Z</time>
      </trkpt>
      <trkpt lat="43.46969137899577617645263671875" lon="-5.603359602391719818115234375">
        <ele>336</ele>
        <time>2022-06-04T11:48:32.000Z</time>
      </trkpt>
      <trkpt lat="43.46962398849427700042724609375" lon="-5.6032789684832096099853515625">
        <ele>336.399993896484375</ele>
        <time>2022-06-04T11:48:34.000Z</time>
      </trkpt>
      <trkpt lat="43.4695784747600555419921875" lon="-5.60325373895466327667236328125">
        <ele>336.600006103515625</ele>
        <time>2022-06-04T11:48:36.000Z</time>
      </trkpt>
      <trkpt lat="43.46955232322216033935546875" lon="-5.60325508005917072296142578125">
        <ele>337</ele>
        <time>2022-06-04T11:48:38.000Z</time>
      </trkpt>
      <trkpt lat="43.46951586194336414337158203125" lon="-5.603281818330287933349609375">
        <ele>337.20001220703125</ele>
        <time>2022-06-04T11:48:39.000Z</time>
      </trkpt>
      <trkpt lat="43.46950865350663661956787109375" lon="-5.60329891741275787353515625">
        <ele>337.20001220703125</ele>
        <time>2022-06-04T11:48:40.000Z</time>
      </trkpt>
      <trkpt lat="43.46950127743184566497802734375" lon="-5.60333705507218837738037109375">
        <ele>337.399993896484375</ele>
        <time>2022-06-04T11:48:42.000Z</time>
      </trkpt>
      <trkpt lat="43.4694953262805938720703125" lon="-5.6033881008625030517578125">
        <ele>337.399993896484375</ele>
        <time>2022-06-04T11:48:44.000Z</time>
      </trkpt>
      <trkpt lat="43.46948635764420032501220703125" lon="-5.6034295074641704559326171875">
        <ele>337.399993896484375</ele>
        <time>2022-06-04T11:48:46.000Z</time>
      </trkpt>
      <trkpt lat="43.46948082558810710906982421875" lon="-5.60345456935465335845947265625">
        <ele>337.399993896484375</ele>
        <time>2022-06-04T11:48:47.000Z</time>
      </trkpt>
      <trkpt lat="43.46947646699845790863037109375" lon="-5.6034928746521472930908203125">
        <ele>337.399993896484375</ele>
        <time>2022-06-04T11:48:48.000Z</time>
      </trkpt>
      <trkpt lat="43.4694726951420307159423828125" lon="-5.60354140587151050567626953125">
        <ele>337.399993896484375</ele>
        <time>2022-06-04T11:48:50.000Z</time>
      </trkpt>
      <trkpt lat="43.4694639779627323150634765625" lon="-5.60364534147083759307861328125">
        <ele>337.399993896484375</ele>
        <time>2022-06-04T11:48:51.000Z</time>
      </trkpt>
      <trkpt lat="43.46946489997208118438720703125" lon="-5.60369160957634449005126953125">
        <ele>337.20001220703125</ele>
        <time>2022-06-04T11:48:52.000Z</time>
      </trkpt>
      <trkpt lat="43.46949524246156215667724609375" lon="-5.60377593152225017547607421875">
        <ele>337.20001220703125</ele>
        <time>2022-06-04T11:48:54.000Z</time>
      </trkpt>
      <trkpt lat="43.46952407620847225189208984375" lon="-5.60382731258869171142578125">
        <ele>336.79998779296875</ele>
        <time>2022-06-04T11:48:56.000Z</time>
      </trkpt>
      <trkpt lat="43.469598591327667236328125" lon="-5.6039352715015411376953125">
        <ele>336.399993896484375</ele>
        <time>2022-06-04T11:48:57.000Z</time>
      </trkpt>
      <trkpt lat="43.4696401655673980712890625" lon="-5.60399402864277362823486328125">
        <ele>335.399993896484375</ele>
        <time>2022-06-04T11:48:58.000Z</time>
      </trkpt>
      <trkpt lat="43.46968316473066806793212890625" lon="-5.60405261814594268798828125">
        <ele>335</ele>
        <time>2022-06-04T11:48:59.000Z</time>
      </trkpt>
      <trkpt lat="43.4697288461029529571533203125" lon="-5.60411154292523860931396484375">
        <ele>334.399993896484375</ele>
        <time>2022-06-04T11:49:00.000Z</time>
      </trkpt>
      <trkpt lat="43.46982800401747226715087890625" lon="-5.60423660092055797576904296875">
        <ele>333.20001220703125</ele>
        <time>2022-06-04T11:49:02.000Z</time>
      </trkpt>
      <trkpt lat="43.46991668455302715301513671875" lon="-5.60437154956161975860595703125">
        <ele>331.79998779296875</ele>
        <time>2022-06-04T11:49:04.000Z</time>
      </trkpt>
      <trkpt lat="43.46995658241212368011474609375" lon="-5.60443818569183349609375">
        <ele>331.399993896484375</ele>
        <time>2022-06-04T11:49:05.000Z</time>
      </trkpt>
      <trkpt lat="43.46999430097639560699462890625" lon="-5.6045003794133663177490234375">
        <ele>330.399993896484375</ele>
        <time>2022-06-04T11:49:06.000Z</time>
      </trkpt>
      <trkpt lat="43.47002682276070117950439453125" lon="-5.604555197060108184814453125">
        <ele>329.20001220703125</ele>
        <time>2022-06-04T11:49:07.000Z</time>
      </trkpt>
      <trkpt lat="43.470055572688579559326171875" lon="-5.60460708104074001312255859375">
        <ele>327.79998779296875</ele>
        <time>2022-06-04T11:49:08.000Z</time>
      </trkpt>
      <trkpt lat="43.47008474171161651611328125" lon="-5.60465653426945209503173828125">
        <ele>326.399993896484375</ele>
        <time>2022-06-04T11:49:09.000Z</time>
      </trkpt>
      <trkpt lat="43.47011181525886058807373046875" lon="-5.60470833443105220794677734375">
        <ele>325</ele>
        <time>2022-06-04T11:49:10.000Z</time>
      </trkpt>
      <trkpt lat="43.47014131955802440643310546875" lon="-5.60476097278296947479248046875">
        <ele>323.20001220703125</ele>
        <time>2022-06-04T11:49:11.000Z</time>
      </trkpt>
      <trkpt lat="43.470172584056854248046875" lon="-5.604816377162933349609375">
        <ele>322</ele>
        <time>2022-06-04T11:49:12.000Z</time>
      </trkpt>
      <trkpt lat="43.47020703367888927459716796875" lon="-5.604872368276119232177734375">
        <ele>320.79998779296875</ele>
        <time>2022-06-04T11:49:13.000Z</time>
      </trkpt>
      <trkpt lat="43.47024274058640003204345703125" lon="-5.60492609627544879913330078125">
        <ele>320.20001220703125</ele>
        <time>2022-06-04T11:49:14.000Z</time>
      </trkpt>
      <trkpt lat="43.4702773578464984893798828125" lon="-5.6049781478941440582275390625">
        <ele>319</ele>
        <time>2022-06-04T11:49:15.000Z</time>
      </trkpt>
      <trkpt lat="43.47031247802078723907470703125" lon="-5.60502483509480953216552734375">
        <ele>318</ele>
        <time>2022-06-04T11:49:16.000Z</time>
      </trkpt>
      <trkpt lat="43.470350615680217742919921875" lon="-5.605069510638713836669921875">
        <ele>316.79998779296875</ele>
        <time>2022-06-04T11:49:17.000Z</time>
      </trkpt>
      <trkpt lat="43.47038975916802883148193359375" lon="-5.60511670075356960296630859375">
        <ele>316.20001220703125</ele>
        <time>2022-06-04T11:49:18.000Z</time>
      </trkpt>
      <trkpt lat="43.4704305790364742279052734375" lon="-5.6051662378013134002685546875">
        <ele>315.600006103515625</ele>
        <time>2022-06-04T11:49:19.000Z</time>
      </trkpt>
      <trkpt lat="43.47047609277069568634033203125" lon="-5.60521845705807209014892578125">
        <ele>315</ele>
        <time>2022-06-04T11:49:20.000Z</time>
      </trkpt>
      <trkpt lat="43.47052169032394886016845703125" lon="-5.605272687971591949462890625">
        <ele>314</ele>
        <time>2022-06-04T11:49:21.000Z</time>
      </trkpt>
      <trkpt lat="43.4705653600394725799560546875" lon="-5.6053241528570652008056640625">
        <ele>312.79998779296875</ele>
        <time>2022-06-04T11:49:22.000Z</time>
      </trkpt>
      <trkpt lat="43.47061187960207462310791015625" lon="-5.6053684093058109283447265625">
        <ele>312</ele>
        <time>2022-06-04T11:49:23.000Z</time>
      </trkpt>
      <trkpt lat="43.47066518850624561309814453125" lon="-5.6054160185158252716064453125">
        <ele>311</ele>
        <time>2022-06-04T11:49:24.000Z</time>
      </trkpt>
      <trkpt lat="43.47072838805615901947021484375" lon="-5.60545968823134899139404296875">
        <ele>309.20001220703125</ele>
        <time>2022-06-04T11:49:25.000Z</time>
      </trkpt>
      <trkpt lat="43.470800556242465972900390625" lon="-5.605495311319828033447265625">
        <ele>308</ele>
        <time>2022-06-04T11:49:26.000Z</time>
      </trkpt>
      <trkpt lat="43.4709479101002216339111328125" lon="-5.60557611286640167236328125">
        <ele>306.600006103515625</ele>
        <time>2022-06-04T11:49:28.000Z</time>
      </trkpt>
      <trkpt lat="43.47100951708853244781494140625" lon="-5.60561768710613250732421875">
        <ele>305.399993896484375</ele>
        <time>2022-06-04T11:49:29.000Z</time>
      </trkpt>
      <trkpt lat="43.47106031142175197601318359375" lon="-5.60566185973584651947021484375">
        <ele>304.600006103515625</ele>
        <time>2022-06-04T11:49:30.000Z</time>
      </trkpt>
      <trkpt lat="43.47110222093760967254638671875" lon="-5.6057140789926052093505859375">
        <ele>303.399993896484375</ele>
        <time>2022-06-04T11:49:31.000Z</time>
      </trkpt>
      <trkpt lat="43.47113792784512042999267578125" lon="-5.60576814226806163787841796875">
        <ele>302.399993896484375</ele>
        <time>2022-06-04T11:49:32.000Z</time>
      </trkpt>
      <trkpt lat="43.47119173966348171234130859375" lon="-5.6058877520263195037841796875">
        <ele>300.79998779296875</ele>
        <time>2022-06-04T11:49:34.000Z</time>
      </trkpt>
      <trkpt lat="43.47122677601873874664306640625" lon="-5.60600836761295795440673828125">
        <ele>299.20001220703125</ele>
        <time>2022-06-04T11:49:36.000Z</time>
      </trkpt>
      <trkpt lat="43.47125359810888767242431640625" lon="-5.606089420616626739501953125">
        <ele>297.600006103515625</ele>
        <time>2022-06-04T11:49:38.000Z</time>
      </trkpt>
      <trkpt lat="43.4712682664394378662109375" lon="-5.6061241216957569122314453125">
        <ele>296.399993896484375</ele>
        <time>2022-06-04T11:49:39.000Z</time>
      </trkpt>
      <trkpt lat="43.471269272267818450927734375" lon="-5.6061650253832340240478515625">
        <ele>295.399993896484375</ele>
        <time>2022-06-04T11:49:40.000Z</time>
      </trkpt>
      <trkpt lat="43.47122577019035816192626953125" lon="-5.60623400844633579254150390625">
        <ele>294.600006103515625</ele>
        <time>2022-06-04T11:49:42.000Z</time>
      </trkpt>
      <trkpt lat="43.47119023092091083526611328125" lon="-5.6062656082212924957275390625">
        <ele>294.20001220703125</ele>
        <time>2022-06-04T11:49:43.000Z</time>
      </trkpt>
      <trkpt lat="43.47115737386047840118408203125" lon="-5.60629494488239288330078125">
        <ele>293.20001220703125</ele>
        <time>2022-06-04T11:49:44.000Z</time>
      </trkpt>
      <trkpt lat="43.4711269475519657135009765625" lon="-5.60632118023931980133056640625">
        <ele>292.399993896484375</ele>
        <time>2022-06-04T11:49:45.000Z</time>
      </trkpt>
      <trkpt lat="43.4710991196334362030029296875" lon="-5.60634699650108814239501953125">
        <ele>291.79998779296875</ele>
        <time>2022-06-04T11:49:46.000Z</time>
      </trkpt>
      <trkpt lat="43.47104690037667751312255859375" lon="-5.60640080831944942474365234375">
        <ele>290.79998779296875</ele>
        <time>2022-06-04T11:49:48.000Z</time>
      </trkpt>
      <trkpt lat="43.47101747989654541015625" lon="-5.60642662458121776580810546875">
        <ele>290.20001220703125</ele>
        <time>2022-06-04T11:49:49.000Z</time>
      </trkpt>
      <trkpt lat="43.47098235972225666046142578125" lon="-5.6064449809491634368896484375">
        <ele>289.600006103515625</ele>
        <time>2022-06-04T11:49:50.000Z</time>
      </trkpt>
      <trkpt lat="43.470892421901226043701171875" lon="-5.6064832024276256561279296875">
        <ele>287</ele>
        <time>2022-06-04T11:49:52.000Z</time>
      </trkpt>
      <trkpt lat="43.4708511829376220703125" lon="-5.6064979545772075653076171875">
        <ele>286.399993896484375</ele>
        <time>2022-06-04T11:49:53.000Z</time>
      </trkpt>
      <trkpt lat="43.470811955630779266357421875" lon="-5.60651865787804126739501953125">
        <ele>285.79998779296875</ele>
        <time>2022-06-04T11:49:54.000Z</time>
      </trkpt>
      <trkpt lat="43.47077809274196624755859375" lon="-5.60654212720692157745361328125">
        <ele>284.79998779296875</ele>
        <time>2022-06-04T11:49:56.000Z</time>
      </trkpt>
      <trkpt lat="43.47069360315799713134765625" lon="-5.60661303810775279998779296875">
        <ele>284.399993896484375</ele>
        <time>2022-06-04T11:49:57.000Z</time>
      </trkpt>
      <trkpt lat="43.47065160982310771942138671875" lon="-5.6066414527595043182373046875">
        <ele>283.79998779296875</ele>
        <time>2022-06-04T11:49:58.000Z</time>
      </trkpt>
      <trkpt lat="43.47060819156467914581298828125" lon="-5.6066550314426422119140625">
        <ele>283.20001220703125</ele>
        <time>2022-06-04T11:49:59.000Z</time>
      </trkpt>
      <trkpt lat="43.4705656953155994415283203125" lon="-5.6066562049090862274169921875">
        <ele>282.399993896484375</ele>
        <time>2022-06-04T11:50:00.000Z</time>
      </trkpt>
      <trkpt lat="43.47052219323813915252685546875" lon="-5.60664354823529720306396484375">
        <ele>281.399993896484375</ele>
        <time>2022-06-04T11:50:01.000Z</time>
      </trkpt>
      <trkpt lat="43.4704822115600109100341796875" lon="-5.6066156364977359771728515625">
        <ele>280.399993896484375</ele>
        <time>2022-06-04T11:50:02.000Z</time>
      </trkpt>
      <trkpt lat="43.470412306487560272216796875" lon="-5.6065884791314601898193359375">
        <ele>278.399993896484375</ele>
        <time>2022-06-04T11:50:04.000Z</time>
      </trkpt>
      <trkpt lat="43.47038506530225276947021484375" lon="-5.60661412775516510009765625">
        <ele>277.600006103515625</ele>
        <time>2022-06-04T11:50:05.000Z</time>
      </trkpt>
      <trkpt lat="43.470372743904590606689453125" lon="-5.6066642515361309051513671875">
        <ele>276.600006103515625</ele>
        <time>2022-06-04T11:50:06.000Z</time>
      </trkpt>
      <trkpt lat="43.47038607113063335418701171875" lon="-5.60680330730974674224853515625">
        <ele>274.600006103515625</ele>
        <time>2022-06-04T11:50:08.000Z</time>
      </trkpt>
      <trkpt lat="43.4704161621630191802978515625" lon="-5.60696281492710113525390625">
        <ele>273</ele>
        <time>2022-06-04T11:50:10.000Z</time>
      </trkpt>
      <trkpt lat="43.4704594127833843231201171875" lon="-5.6071322970092296600341796875">
        <ele>271.20001220703125</ele>
        <time>2022-06-04T11:50:12.000Z</time>
      </trkpt>
      <trkpt lat="43.47049084492027759552001953125" lon="-5.6072137691080570220947265625">
        <ele>270.600006103515625</ele>
        <time>2022-06-04T11:50:13.000Z</time>
      </trkpt>
      <trkpt lat="43.47049084492027759552001953125" lon="-5.6072137691080570220947265625">
        <ele>269.600006103515625</ele>
        <time>2022-06-04T11:50:14.000Z</time>
      </trkpt>
      <trkpt lat="43.47056494094431400299072265625" lon="-5.60735651291906833648681640625">
        <ele>268.399993896484375</ele>
        <time>2022-06-04T11:50:15.000Z</time>
      </trkpt>
      <trkpt lat="43.47061137668788433074951171875" lon="-5.60741568915545940399169921875">
        <ele>267.20001220703125</ele>
        <time>2022-06-04T11:50:16.000Z</time>
      </trkpt>
      <trkpt lat="43.47066099755465984344482421875" lon="-5.60746036469936370849609375">
        <ele>266</ele>
        <time>2022-06-04T11:50:17.000Z</time>
      </trkpt>
      <trkpt lat="43.4707132168114185333251953125" lon="-5.6074923835694789886474609375">
        <ele>264.79998779296875</ele>
        <time>2022-06-04T11:50:18.000Z</time>
      </trkpt>
      <trkpt lat="43.47076334059238433837890625" lon="-5.60750990174710750579833984375">
        <ele>263.79998779296875</ele>
        <time>2022-06-04T11:50:19.000Z</time>
      </trkpt>
      <trkpt lat="43.470809273421764373779296875" lon="-5.60752297751605510711669921875">
        <ele>261.600006103515625</ele>
        <time>2022-06-04T11:50:20.000Z</time>
      </trkpt>
      <trkpt lat="43.4708483330905437469482421875" lon="-5.6075326167047023773193359375">
        <ele>260</ele>
        <time>2022-06-04T11:50:21.000Z</time>
      </trkpt>
      <trkpt lat="43.47088965587317943572998046875" lon="-5.607548542320728302001953125">
        <ele>258.399993896484375</ele>
        <time>2022-06-04T11:50:22.000Z</time>
      </trkpt>
      <trkpt lat="43.47092921845614910125732421875" lon="-5.6075728498399257659912109375">
        <ele>256.79998779296875</ele>
        <time>2022-06-04T11:50:23.000Z</time>
      </trkpt>
      <trkpt lat="43.47096190787851810455322265625" lon="-5.6076043657958507537841796875">
        <ele>255.600006103515625</ele>
        <time>2022-06-04T11:50:24.000Z</time>
      </trkpt>
      <trkpt lat="43.47102820873260498046875" lon="-5.60766823589801788330078125">
        <ele>253.600006103515625</ele>
        <time>2022-06-04T11:50:26.000Z</time>
      </trkpt>
      <trkpt lat="43.4710608981549739837646484375" lon="-5.6077049486339092254638671875">
        <ele>252.399993896484375</ele>
        <time>2022-06-04T11:50:27.000Z</time>
      </trkpt>
      <trkpt lat="43.4710937552154064178466796875" lon="-5.6077493727207183837890625">
        <ele>251.399993896484375</ele>
        <time>2022-06-04T11:50:28.000Z</time>
      </trkpt>
      <trkpt lat="43.47113440744578838348388671875" lon="-5.607789941132068634033203125">
        <ele>250.600006103515625</ele>
        <time>2022-06-04T11:50:29.000Z</time>
      </trkpt>
      <trkpt lat="43.47118654288351535797119140625" lon="-5.607821457087993621826171875">
        <ele>250</ele>
        <time>2022-06-04T11:50:30.000Z</time>
      </trkpt>
      <trkpt lat="43.47130673937499523162841796875" lon="-5.60786345042288303375244140625">
        <ele>248.1999969482421875</ele>
        <time>2022-06-04T11:50:32.000Z</time>
      </trkpt>
      <trkpt lat="43.47144286148250102996826171875" lon="-5.60788038186728954315185546875">
        <ele>246.1999969482421875</ele>
        <time>2022-06-04T11:50:34.000Z</time>
      </trkpt>
      <trkpt lat="43.47157211042940616607666015625" lon="-5.60791709460318088531494140625">
        <ele>244.399993896484375</ele>
        <time>2022-06-04T11:50:36.000Z</time>
      </trkpt>
      <trkpt lat="43.47169700078666210174560546875" lon="-5.60797409154474735260009765625">
        <ele>243.1999969482421875</ele>
        <time>2022-06-04T11:50:38.000Z</time>
      </trkpt>
      <trkpt lat="43.4717579372227191925048828125" lon="-5.608016587793827056884765625">
        <ele>243</ele>
        <time>2022-06-04T11:50:39.000Z</time>
      </trkpt>
      <trkpt lat="43.47181837074458599090576171875" lon="-5.60805908404290676116943359375">
        <ele>242.600006103515625</ele>
        <time>2022-06-04T11:50:40.000Z</time>
      </trkpt>
      <trkpt lat="43.47193278372287750244140625" lon="-5.6081327609717845916748046875">
        <ele>242.1999969482421875</ele>
        <time>2022-06-04T11:50:42.000Z</time>
      </trkpt>
      <trkpt lat="43.472039401531219482421875" lon="-5.60820912010967731475830078125">
        <ele>242.1999969482421875</ele>
        <time>2022-06-04T11:50:44.000Z</time>
      </trkpt>
      <trkpt lat="43.4721408225595951080322265625" lon="-5.6082816235721111297607421875">
        <ele>242</ele>
        <time>2022-06-04T11:50:46.000Z</time>
      </trkpt>
      <trkpt lat="43.47223428077995777130126953125" lon="-5.60832646675407886505126953125">
        <ele>242</ele>
        <time>2022-06-04T11:50:48.000Z</time>
      </trkpt>
      <trkpt lat="43.47232346422970294952392578125" lon="-5.60835848562419414520263671875">
        <ele>242.1999969482421875</ele>
        <time>2022-06-04T11:50:50.000Z</time>
      </trkpt>
      <trkpt lat="43.4723664633929729461669921875" lon="-5.6083664484322071075439453125">
        <ele>242.1999969482421875</ele>
        <time>2022-06-04T11:50:51.000Z</time>
      </trkpt>
      <trkpt lat="43.47241155803203582763671875" lon="-5.60838161967694759368896484375">
        <ele>242.399993896484375</ele>
        <time>2022-06-04T11:50:52.000Z</time>
      </trkpt>
      <trkpt lat="43.47245908342301845550537109375" lon="-5.60840324498713016510009765625">
        <ele>242.399993896484375</ele>
        <time>2022-06-04T11:50:53.000Z</time>
      </trkpt>
      <trkpt lat="43.4725076146423816680908203125" lon="-5.60841397382318973541259765625">
        <ele>242.8000030517578125</ele>
        <time>2022-06-04T11:50:54.000Z</time>
      </trkpt>
      <trkpt lat="43.4726014919579029083251953125" lon="-5.608431659638881683349609375">
        <ele>243.1999969482421875</ele>
        <time>2022-06-04T11:50:56.000Z</time>
      </trkpt>
      <trkpt lat="43.47264549694955348968505859375" lon="-5.6084469147026538848876953125">
        <ele>243.399993896484375</ele>
        <time>2022-06-04T11:50:57.000Z</time>
      </trkpt>
      <trkpt lat="43.472687490284442901611328125" lon="-5.60846409760415554046630859375">
        <ele>243.600006103515625</ele>
        <time>2022-06-04T11:50:58.000Z</time>
      </trkpt>
      <trkpt lat="43.47276502288877964019775390625" lon="-5.608496032655239105224609375">
        <ele>244</ele>
        <time>2022-06-04T11:51:00.000Z</time>
      </trkpt>
      <trkpt lat="43.4728029929101467132568359375" lon="-5.6085176579654216766357421875">
        <ele>244.399993896484375</ele>
        <time>2022-06-04T11:51:01.000Z</time>
      </trkpt>
      <trkpt lat="43.47284263931214809417724609375" lon="-5.60853601433336734771728515625">
        <ele>245</ele>
        <time>2022-06-04T11:51:02.000Z</time>
      </trkpt>
      <trkpt lat="43.47287817858159542083740234375" lon="-5.60856350697576999664306640625">
        <ele>245.399993896484375</ele>
        <time>2022-06-04T11:51:03.000Z</time>
      </trkpt>
      <trkpt lat="43.4729102812707424163818359375" lon="-5.6085944361984729766845703125">
        <ele>245.8000030517578125</ele>
        <time>2022-06-04T11:51:04.000Z</time>
      </trkpt>
      <trkpt lat="43.4729696251451969146728515625" lon="-5.608668029308319091796875">
        <ele>246.600006103515625</ele>
        <time>2022-06-04T11:51:06.000Z</time>
      </trkpt>
      <trkpt lat="43.4730024822056293487548828125" lon="-5.608714632689952850341796875">
        <ele>247</ele>
        <time>2022-06-04T11:51:07.000Z</time>
      </trkpt>
      <trkpt lat="43.4730024822056293487548828125" lon="-5.608714632689952850341796875">
        <ele>247.1999969482421875</ele>
        <time>2022-06-04T11:51:08.000Z</time>
      </trkpt>
      <trkpt lat="43.47312326543033123016357421875" lon="-5.608875565230846405029296875">
        <ele>247.1999969482421875</ele>
        <time>2022-06-04T11:51:10.000Z</time>
      </trkpt>
      <trkpt lat="43.473165929317474365234375" lon="-5.60893281362950801849365234375">
        <ele>247.399993896484375</ele>
        <time>2022-06-04T11:51:11.000Z</time>
      </trkpt>
      <trkpt lat="43.473207168281078338623046875" lon="-5.6089927442371845245361328125">
        <ele>247.399993896484375</ele>
        <time>2022-06-04T11:51:12.000Z</time>
      </trkpt>
      <trkpt lat="43.47328637726604938507080078125" lon="-5.60909709893167018890380859375">
        <ele>247.600006103515625</ele>
        <time>2022-06-04T11:51:14.000Z</time>
      </trkpt>
      <trkpt lat="43.47335829399526119232177734375" lon="-5.609175302088260650634765625">
        <ele>247.600006103515625</ele>
        <time>2022-06-04T11:51:16.000Z</time>
      </trkpt>
      <trkpt lat="43.4733930788934230804443359375" lon="-5.6092093326151371002197265625">
        <ele>247.8000030517578125</ele>
        <time>2022-06-04T11:51:17.000Z</time>
      </trkpt>
      <trkpt lat="43.47342736087739467620849609375" lon="-5.60923657380044460296630859375">
        <ele>247.8000030517578125</ele>
        <time>2022-06-04T11:51:18.000Z</time>
      </trkpt>
      <trkpt lat="43.4734939970076084136962890625" lon="-5.609286613762378692626953125">
        <ele>247.8000030517578125</ele>
        <time>2022-06-04T11:51:20.000Z</time>
      </trkpt>
      <trkpt lat="43.47355811856687068939208984375" lon="-5.6093394197523593902587890625">
        <ele>248</ele>
        <time>2022-06-04T11:51:22.000Z</time>
      </trkpt>
      <trkpt lat="43.47358980216085910797119140625" lon="-5.60936314053833484649658203125">
        <ele>248</ele>
        <time>2022-06-04T11:51:23.000Z</time>
      </trkpt>
      <trkpt lat="43.4736210666596889495849609375" lon="-5.60938577167689800262451171875">
        <ele>248.399993896484375</ele>
        <time>2022-06-04T11:51:24.000Z</time>
      </trkpt>
      <trkpt lat="43.47368116490542888641357421875" lon="-5.6094391644001007080078125">
        <ele>249.1999969482421875</ele>
        <time>2022-06-04T11:51:26.000Z</time>
      </trkpt>
      <trkpt lat="43.47374469973146915435791015625" lon="-5.6094966642558574676513671875">
        <ele>249.600006103515625</ele>
        <time>2022-06-04T11:51:28.000Z</time>
      </trkpt>
      <trkpt lat="43.4737779758870601654052734375" lon="-5.6095223128795623779296875">
        <ele>249.8000030517578125</ele>
        <time>2022-06-04T11:51:29.000Z</time>
      </trkpt>
      <trkpt lat="43.47380924038589000701904296875" lon="-5.60954846441745758056640625">
        <ele>250</ele>
        <time>2022-06-04T11:51:30.000Z</time>
      </trkpt>
      <trkpt lat="43.47383715212345123291015625" lon="-5.60957754962146282196044921875">
        <ele>250.1999969482421875</ele>
        <time>2022-06-04T11:51:31.000Z</time>
      </trkpt>
      <trkpt lat="43.47386389039456844329833984375" lon="-5.60959984548389911651611328125">
        <ele>250.399993896484375</ele>
        <time>2022-06-04T11:51:32.000Z</time>
      </trkpt>
      <trkpt lat="43.47391049377620220184326171875" lon="-5.60965835116803646087646484375">
        <ele>250.8000030517578125</ele>
        <time>2022-06-04T11:51:34.000Z</time>
      </trkpt>
      <trkpt lat="43.4739345498383045196533203125" lon="-5.60969506390392780303955078125">
        <ele>251</ele>
        <time>2022-06-04T11:51:35.000Z</time>
      </trkpt>
      <trkpt lat="43.47395793534815311431884765625" lon="-5.60973663814365863800048828125">
        <ele>251.1999969482421875</ele>
        <time>2022-06-04T11:51:36.000Z</time>
      </trkpt>
      <trkpt lat="43.47398106940090656280517578125" lon="-5.6097776256501674652099609375">
        <ele>251.399993896484375</ele>
        <time>2022-06-04T11:51:37.000Z</time>
      </trkpt>
      <trkpt lat="43.474003784358501434326171875" lon="-5.609819702804088592529296875">
        <ele>251.399993896484375</ele>
        <time>2022-06-04T11:51:38.000Z</time>
      </trkpt>
      <trkpt lat="43.47404510714113712310791015625" lon="-5.60990645550191402435302734375">
        <ele>251.600006103515625</ele>
        <time>2022-06-04T11:51:40.000Z</time>
      </trkpt>
      <trkpt lat="43.4740872681140899658203125" lon="-5.60999044217169284820556640625">
        <ele>252</ele>
        <time>2022-06-04T11:51:42.000Z</time>
      </trkpt>
      <trkpt lat="43.47410998307168483734130859375" lon="-5.6100319325923919677734375">
        <ele>252.399993896484375</ele>
        <time>2022-06-04T11:51:44.000Z</time>
      </trkpt>
      <trkpt lat="43.4741823188960552215576171875" lon="-5.61013779602944850921630859375">
        <ele>252.600006103515625</ele>
        <time>2022-06-04T11:51:46.000Z</time>
      </trkpt>
      <trkpt lat="43.47422364167869091033935546875" lon="-5.610209293663501739501953125">
        <ele>253</ele>
        <time>2022-06-04T11:51:48.000Z</time>
      </trkpt>
      <trkpt lat="43.4742644615471363067626953125" lon="-5.6102637760341167449951171875">
        <ele>253.1999969482421875</ele>
        <time>2022-06-04T11:51:50.000Z</time>
      </trkpt>
      <trkpt lat="43.47431148402392864227294921875" lon="-5.610305182635784149169921875">
        <ele>253.1999969482421875</ele>
        <time>2022-06-04T11:51:52.000Z</time>
      </trkpt>
      <trkpt lat="43.47433411516249179840087890625" lon="-5.6103217788040637969970703125">
        <ele>253.399993896484375</ele>
        <time>2022-06-04T11:51:53.000Z</time>
      </trkpt>
      <trkpt lat="43.4743526391685009002685546875" lon="-5.61033762060105800628662109375">
        <ele>253.600006103515625</ele>
        <time>2022-06-04T11:51:54.000Z</time>
      </trkpt>
      <trkpt lat="43.4743700735270977020263671875" lon="-5.61035589314997196197509765625">
        <ele>254</ele>
        <time>2022-06-04T11:51:56.000Z</time>
      </trkpt>
      <trkpt lat="43.47442883066833019256591796875" lon="-5.6104166619479656219482421875">
        <ele>254.399993896484375</ele>
        <time>2022-06-04T11:51:58.000Z</time>
      </trkpt>
      <trkpt lat="43.4744466841220855712890625" lon="-5.61044038273394107818603515625">
        <ele>254.600006103515625</ele>
        <time>2022-06-04T11:51:59.000Z</time>
      </trkpt>
      <trkpt lat="43.474465794861316680908203125" lon="-5.610466785728931427001953125">
        <ele>255</ele>
        <time>2022-06-04T11:52:00.000Z</time>
      </trkpt>
      <trkpt lat="43.4744823910295963287353515625" lon="-5.61049369163811206817626953125">
        <ele>255.1999969482421875</ele>
        <time>2022-06-04T11:52:01.000Z</time>
      </trkpt>
      <trkpt lat="43.4744823910295963287353515625" lon="-5.61049369163811206817626953125">
        <ele>255.399993896484375</ele>
        <time>2022-06-04T11:52:02.000Z</time>
      </trkpt>
      <trkpt lat="43.4745152480900287628173828125" lon="-5.61055102385580539703369140625">
        <ele>256</ele>
        <time>2022-06-04T11:52:03.000Z</time>
      </trkpt>
      <trkpt lat="43.47453276626765727996826171875" lon="-5.610578767955303192138671875">
        <ele>256.399993896484375</ele>
        <time>2022-06-04T11:52:04.000Z</time>
      </trkpt>
      <trkpt lat="43.4745652042329311370849609375" lon="-5.6106355972588062286376953125">
        <ele>256.79998779296875</ele>
        <time>2022-06-04T11:52:06.000Z</time>
      </trkpt>
      <trkpt lat="43.474580459296703338623046875" lon="-5.61066552065312862396240234375">
        <ele>257.20001220703125</ele>
        <time>2022-06-04T11:52:07.000Z</time>
      </trkpt>
      <trkpt lat="43.474580459296703338623046875" lon="-5.61066552065312862396240234375">
        <ele>257.399993896484375</ele>
        <time>2022-06-04T11:52:08.000Z</time>
      </trkpt>
      <trkpt lat="43.474622704088687896728515625" lon="-5.6107526086270809173583984375">
        <ele>258</ele>
        <time>2022-06-04T11:52:10.000Z</time>
      </trkpt>
      <trkpt lat="43.47463787533342838287353515625" lon="-5.61078471131622791290283203125">
        <ele>258.20001220703125</ele>
        <time>2022-06-04T11:52:11.000Z</time>
      </trkpt>
      <trkpt lat="43.4746523760259151458740234375" lon="-5.610816143453121185302734375">
        <ele>258.20001220703125</ele>
        <time>2022-06-04T11:52:12.000Z</time>
      </trkpt>
      <trkpt lat="43.47466637380421161651611328125" lon="-5.61084606684744358062744140625">
        <ele>258.399993896484375</ele>
        <time>2022-06-04T11:52:14.000Z</time>
      </trkpt>
      <trkpt lat="43.47469219006597995758056640625" lon="-5.61091060750186443328857421875">
        <ele>258.399993896484375</ele>
        <time>2022-06-04T11:52:15.000Z</time>
      </trkpt>
      <trkpt lat="43.47470375709235668182373046875" lon="-5.6109457276761531829833984375">
        <ele>258.399993896484375</ele>
        <time>2022-06-04T11:52:16.000Z</time>
      </trkpt>
      <trkpt lat="43.474726974964141845703125" lon="-5.61101823113858699798583984375">
        <ele>258.600006103515625</ele>
        <time>2022-06-04T11:52:18.000Z</time>
      </trkpt>
      <trkpt lat="43.4747388772666454315185546875" lon="-5.61105092056095600128173828125">
        <ele>258.79998779296875</ele>
        <time>2022-06-04T11:52:20.000Z</time>
      </trkpt>
      <trkpt lat="43.47478288225829601287841796875" lon="-5.61116206459701061248779296875">
        <ele>258.79998779296875</ele>
        <time>2022-06-04T11:52:22.000Z</time>
      </trkpt>
      <trkpt lat="43.4748123027384281158447265625" lon="-5.61123113147914409637451171875">
        <ele>258.79998779296875</ele>
        <time>2022-06-04T11:52:24.000Z</time>
      </trkpt>
      <trkpt lat="43.474827893078327178955078125" lon="-5.61126633547246456146240234375">
        <ele>259.20001220703125</ele>
        <time>2022-06-04T11:52:26.000Z</time>
      </trkpt>
      <trkpt lat="43.474884219467639923095703125" lon="-5.6113668344914913177490234375">
        <ele>259.399993896484375</ele>
        <time>2022-06-04T11:52:28.000Z</time>
      </trkpt>
      <trkpt lat="43.474921770393848419189453125" lon="-5.61143028549849987030029296875">
        <ele>259.600006103515625</ele>
        <time>2022-06-04T11:52:30.000Z</time>
      </trkpt>
      <trkpt lat="43.4749387018382549285888671875" lon="-5.61146062798798084259033203125">
        <ele>259.600006103515625</ele>
        <time>2022-06-04T11:52:32.000Z</time>
      </trkpt>
      <trkpt lat="43.47499025054275989532470703125" lon="-5.611549727618694305419921875">
        <ele>259.79998779296875</ele>
        <time>2022-06-04T11:52:34.000Z</time>
      </trkpt>
      <trkpt lat="43.47502495162189006805419921875" lon="-5.61161368153989315032958984375">
        <ele>260.20001220703125</ele>
        <time>2022-06-04T11:52:36.000Z</time>
      </trkpt>
      <trkpt lat="43.47504146397113800048828125" lon="-5.6116531603038311004638671875">
        <ele>260.600006103515625</ele>
        <time>2022-06-04T11:52:37.000Z</time>
      </trkpt>
      <trkpt lat="43.47504146397113800048828125" lon="-5.6116531603038311004638671875">
        <ele>261</ele>
        <time>2022-06-04T11:52:38.000Z</time>
      </trkpt>
      <trkpt lat="43.47509150393307209014892578125" lon="-5.6117638014256954193115234375">
        <ele>261.79998779296875</ele>
        <time>2022-06-04T11:52:40.000Z</time>
      </trkpt>
      <trkpt lat="43.47510675899684429168701171875" lon="-5.6117993406951427459716796875">
        <ele>262.20001220703125</ele>
        <time>2022-06-04T11:52:41.000Z</time>
      </trkpt>
      <trkpt lat="43.4751220978796482086181640625" lon="-5.61183362267911434173583984375">
        <ele>262.399993896484375</ele>
        <time>2022-06-04T11:52:42.000Z</time>
      </trkpt>
      <trkpt lat="43.47515151835978031158447265625" lon="-5.61189967207610607147216796875">
        <ele>262.79998779296875</ele>
        <time>2022-06-04T11:52:44.000Z</time>
      </trkpt>
      <trkpt lat="43.47516576759517192840576171875" lon="-5.611934959888458251953125">
        <ele>263.20001220703125</ele>
        <time>2022-06-04T11:52:45.000Z</time>
      </trkpt>
      <trkpt lat="43.47518303431570529937744140625" lon="-5.61197292990982532501220703125">
        <ele>263.399993896484375</ele>
        <time>2022-06-04T11:52:46.000Z</time>
      </trkpt>
      <trkpt lat="43.47522293217480182647705078125" lon="-5.61205423437058925628662109375">
        <ele>264</ele>
        <time>2022-06-04T11:52:48.000Z</time>
      </trkpt>
      <trkpt lat="43.475243635475635528564453125" lon="-5.61209790408611297607421875">
        <ele>264.20001220703125</ele>
        <time>2022-06-04T11:52:49.000Z</time>
      </trkpt>
      <trkpt lat="43.47526467405259609222412109375" lon="-5.61214576475322246551513671875">
        <ele>264.20001220703125</ele>
        <time>2022-06-04T11:52:50.000Z</time>
      </trkpt>
      <trkpt lat="43.4753049910068511962890625" lon="-5.6122526340186595916748046875">
        <ele>264.600006103515625</ele>
        <time>2022-06-04T11:52:52.000Z</time>
      </trkpt>
      <trkpt lat="43.475327454507350921630859375" lon="-5.6123082898557186126708984375">
        <ele>264.79998779296875</ele>
        <time>2022-06-04T11:52:53.000Z</time>
      </trkpt>
      <trkpt lat="43.4753544442355632781982421875" lon="-5.612361431121826171875">
        <ele>264.79998779296875</ele>
        <time>2022-06-04T11:52:54.000Z</time>
      </trkpt>
      <trkpt lat="43.47541286610066890716552734375" lon="-5.6124700605869293212890625">
        <ele>265</ele>
        <time>2022-06-04T11:52:56.000Z</time>
      </trkpt>
      <trkpt lat="43.47547841258347034454345703125" lon="-5.612582378089427947998046875">
        <ele>265</ele>
        <time>2022-06-04T11:52:58.000Z</time>
      </trkpt>
      <trkpt lat="43.475546054542064666748046875" lon="-5.6127008982002735137939453125">
        <ele>265</ele>
        <time>2022-06-04T11:53:00.000Z</time>
      </trkpt>
      <trkpt lat="43.4756045602262020111083984375" lon="-5.612829141318798065185546875">
        <ele>265</ele>
        <time>2022-06-04T11:53:02.000Z</time>
      </trkpt>
      <trkpt lat="43.4756521694362163543701171875" lon="-5.61296082101762294769287109375">
        <ele>265</ele>
        <time>2022-06-04T11:53:04.000Z</time>
      </trkpt>
      <trkpt lat="43.4756910614669322967529296875" lon="-5.61309107579290866851806640625">
        <ele>265</ele>
        <time>2022-06-04T11:53:06.000Z</time>
      </trkpt>
      <trkpt lat="43.47571335732936859130859375" lon="-5.6131515093147754669189453125">
        <ele>265</ele>
        <time>2022-06-04T11:53:07.000Z</time>
      </trkpt>
      <trkpt lat="43.475735485553741455078125" lon="-5.613211691379547119140625">
        <ele>265</ele>
        <time>2022-06-04T11:53:08.000Z</time>
      </trkpt>
      <trkpt lat="43.47577110864222049713134765625" lon="-5.61333146877586841583251953125">
        <ele>265.20001220703125</ele>
        <time>2022-06-04T11:53:10.000Z</time>
      </trkpt>
      <trkpt lat="43.47578284330666065216064453125" lon="-5.613396428525447845458984375">
        <ele>265.20001220703125</ele>
        <time>2022-06-04T11:53:11.000Z</time>
      </trkpt>
      <trkpt lat="43.47579156048595905303955078125" lon="-5.61345669440925121307373046875">
        <ele>265.20001220703125</ele>
        <time>2022-06-04T11:53:12.000Z</time>
      </trkpt>
      <trkpt lat="43.47579960711300373077392578125" lon="-5.61351285316050052642822265625">
        <ele>265.20001220703125</ele>
        <time>2022-06-04T11:53:14.000Z</time>
      </trkpt>
      <trkpt lat="43.4758352302014827728271484375" lon="-5.61367998830974102020263671875">
        <ele>265.399993896484375</ele>
        <time>2022-06-04T11:53:16.000Z</time>
      </trkpt>
      <trkpt lat="43.4758623875677585601806640625" lon="-5.61380336992442607879638671875">
        <ele>265.399993896484375</ele>
        <time>2022-06-04T11:53:18.000Z</time>
      </trkpt>
      <trkpt lat="43.47588392905890941619873046875" lon="-5.61387411318719387054443359375">
        <ele>265.399993896484375</ele>
        <time>2022-06-04T11:53:19.000Z</time>
      </trkpt>
      <trkpt lat="43.47588392905890941619873046875" lon="-5.61387411318719387054443359375">
        <ele>265.399993896484375</ele>
        <time>2022-06-04T11:53:20.000Z</time>
      </trkpt>
      <trkpt lat="43.4759653173387050628662109375" lon="-5.6141147576272487640380859375">
        <ele>265.399993896484375</ele>
        <time>2022-06-04T11:53:22.000Z</time>
      </trkpt>
      <trkpt lat="43.47603413276374340057373046875" lon="-5.6142914481461048126220703125">
        <ele>265.399993896484375</ele>
        <time>2022-06-04T11:53:24.000Z</time>
      </trkpt>
      <trkpt lat="43.47607411444187164306640625" lon="-5.6143829785287380218505859375">
        <ele>265.399993896484375</ele>
        <time>2022-06-04T11:53:26.000Z</time>
      </trkpt>
      <trkpt lat="43.47621895372867584228515625" lon="-5.614665113389492034912109375">
        <ele>265</ele>
        <time>2022-06-04T11:53:28.000Z</time>
      </trkpt>
      <trkpt lat="43.4762759506702423095703125" lon="-5.6147568114101886749267578125">
        <ele>264.600006103515625</ele>
        <time>2022-06-04T11:53:29.000Z</time>
      </trkpt>
      <trkpt lat="43.4763357974588871002197265625" lon="-5.614844150841236114501953125">
        <ele>264.399993896484375</ele>
        <time>2022-06-04T11:53:30.000Z</time>
      </trkpt>
      <trkpt lat="43.47639866173267364501953125" lon="-5.614925958216190338134765625">
        <ele>264</ele>
        <time>2022-06-04T11:53:31.000Z</time>
      </trkpt>
      <trkpt lat="43.47639866173267364501953125" lon="-5.614925958216190338134765625">
        <ele>263.600006103515625</ele>
        <time>2022-06-04T11:53:32.000Z</time>
      </trkpt>
      <trkpt lat="43.47658247686922550201416015625" lon="-5.615149252116680145263671875">
        <ele>262.399993896484375</ele>
        <time>2022-06-04T11:53:34.000Z</time>
      </trkpt>
      <trkpt lat="43.476697392761707305908203125" lon="-5.6152771599590778350830078125">
        <ele>261</ele>
        <time>2022-06-04T11:53:36.000Z</time>
      </trkpt>
      <trkpt lat="43.4767508693039417266845703125" lon="-5.6153301335871219635009765625">
        <ele>260.20001220703125</ele>
        <time>2022-06-04T11:53:38.000Z</time>
      </trkpt>
      <trkpt lat="43.47689210437238216400146484375" lon="-5.615467764437198638916015625">
        <ele>260</ele>
        <time>2022-06-04T11:53:40.000Z</time>
      </trkpt>
      <trkpt lat="43.47693569026887416839599609375" lon="-5.61550757847726345062255859375">
        <ele>260</ele>
        <time>2022-06-04T11:53:41.000Z</time>
      </trkpt>
      <trkpt lat="43.476975001394748687744140625" lon="-5.61554579995572566986083984375">
        <ele>259.79998779296875</ele>
        <time>2022-06-04T11:53:42.000Z</time>
      </trkpt>
      <trkpt lat="43.47701489925384521484375" lon="-5.61558519490063190460205078125">
        <ele>259.79998779296875</ele>
        <time>2022-06-04T11:53:44.000Z</time>
      </trkpt>
      <trkpt lat="43.47713501192629337310791015625" lon="-5.61570421792566776275634765625">
        <ele>259.79998779296875</ele>
        <time>2022-06-04T11:53:46.000Z</time>
      </trkpt>
      <trkpt lat="43.47720592282712459564208984375" lon="-5.61579641886055469512939453125">
        <ele>260.20001220703125</ele>
        <time>2022-06-04T11:53:48.000Z</time>
      </trkpt>
      <trkpt lat="43.4772380255162715911865234375" lon="-5.61585391871631145477294921875">
        <ele>260.600006103515625</ele>
        <time>2022-06-04T11:53:49.000Z</time>
      </trkpt>
      <trkpt lat="43.4772380255162715911865234375" lon="-5.61585391871631145477294921875">
        <ele>260.79998779296875</ele>
        <time>2022-06-04T11:53:50.000Z</time>
      </trkpt>
      <trkpt lat="43.4772859700024127960205078125" lon="-5.61598987318575382232666015625">
        <ele>261.20001220703125</ele>
        <time>2022-06-04T11:53:51.000Z</time>
      </trkpt>
      <trkpt lat="43.47730650566518306732177734375" lon="-5.616058520972728729248046875">
        <ele>261.399993896484375</ele>
        <time>2022-06-04T11:53:52.000Z</time>
      </trkpt>
      <trkpt lat="43.47734321840107440948486328125" lon="-5.61619640327990055084228515625">
        <ele>261.600006103515625</ele>
        <time>2022-06-04T11:53:54.000Z</time>
      </trkpt>
      <trkpt lat="43.4773604013025760650634765625" lon="-5.616269409656524658203125">
        <ele>261.600006103515625</ele>
        <time>2022-06-04T11:53:55.000Z</time>
      </trkpt>
      <trkpt lat="43.4773604013025760650634765625" lon="-5.616269409656524658203125">
        <ele>261.600006103515625</ele>
        <time>2022-06-04T11:53:56.000Z</time>
      </trkpt>
      <trkpt lat="43.47740340046584606170654296875" lon="-5.61640947125852108001708984375">
        <ele>261.79998779296875</ele>
        <time>2022-06-04T11:53:57.000Z</time>
      </trkpt>
      <trkpt lat="43.47742804326117038726806640625" lon="-5.61647250317037105560302734375">
        <ele>261.79998779296875</ele>
        <time>2022-06-04T11:53:58.000Z</time>
      </trkpt>
      <trkpt lat="43.4774707071483135223388671875" lon="-5.61658297665417194366455078125">
        <ele>262</ele>
        <time>2022-06-04T11:54:00.000Z</time>
      </trkpt>
      <trkpt lat="43.47749208100140094757080078125" lon="-5.61663595028221607208251953125">
        <ele>262</ele>
        <time>2022-06-04T11:54:02.000Z</time>
      </trkpt>
      <trkpt lat="43.47755762748420238494873046875" lon="-5.616819597780704498291015625">
        <ele>262</ele>
        <time>2022-06-04T11:54:04.000Z</time>
      </trkpt>
      <trkpt lat="43.47763247787952423095703125" lon="-5.61697642318904399871826171875">
        <ele>262</ele>
        <time>2022-06-04T11:54:06.000Z</time>
      </trkpt>
      <trkpt lat="43.47767396830022335052490234375" lon="-5.61706460081040859222412109375">
        <ele>261.79998779296875</ele>
        <time>2022-06-04T11:54:08.000Z</time>
      </trkpt>
      <trkpt lat="43.4778120182454586029052734375" lon="-5.61734707094728946685791015625">
        <ele>261.79998779296875</ele>
        <time>2022-06-04T11:54:10.000Z</time>
      </trkpt>
      <trkpt lat="43.4778623096644878387451171875" lon="-5.61744765378534793853759765625">
        <ele>261.79998779296875</ele>
        <time>2022-06-04T11:54:11.000Z</time>
      </trkpt>
      <trkpt lat="43.47791670821607112884521484375" lon="-5.61754957772791385650634765625">
        <ele>261.79998779296875</ele>
        <time>2022-06-04T11:54:12.000Z</time>
      </trkpt>
      <trkpt lat="43.47797580063343048095703125" lon="-5.61765301041305065155029296875">
        <ele>261.600006103515625</ele>
        <time>2022-06-04T11:54:14.000Z</time>
      </trkpt>
      <trkpt lat="43.4781687520444393157958984375" lon="-5.61798811890184879302978515625">
        <ele>260.79998779296875</ele>
        <time>2022-06-04T11:54:16.000Z</time>
      </trkpt>
      <trkpt lat="43.4781687520444393157958984375" lon="-5.61798811890184879302978515625">
        <ele>260.20001220703125</ele>
        <time>2022-06-04T11:54:17.000Z</time>
      </trkpt>
      <trkpt lat="43.47831618972122669219970703125" lon="-5.61823479831218719482421875">
        <ele>259.600006103515625</ele>
        <time>2022-06-04T11:54:18.000Z</time>
      </trkpt>
      <trkpt lat="43.47839313559234142303466796875" lon="-5.61836429871618747711181640625">
        <ele>259.20001220703125</ele>
        <time>2022-06-04T11:54:19.000Z</time>
      </trkpt>
      <trkpt lat="43.47839313559234142303466796875" lon="-5.61836429871618747711181640625">
        <ele>258.600006103515625</ele>
        <time>2022-06-04T11:54:20.000Z</time>
      </trkpt>
      <trkpt lat="43.478542082011699676513671875" lon="-5.6186230480670928955078125">
        <ele>257.79998779296875</ele>
        <time>2022-06-04T11:54:21.000Z</time>
      </trkpt>
      <trkpt lat="43.47860704176127910614013671875" lon="-5.6187563203275203704833984375">
        <ele>257.20001220703125</ele>
        <time>2022-06-04T11:54:22.000Z</time>
      </trkpt>
      <trkpt lat="43.47860704176127910614013671875" lon="-5.6187563203275203704833984375">
        <ele>256.20001220703125</ele>
        <time>2022-06-04T11:54:23.000Z</time>
      </trkpt>
      <trkpt lat="43.47871340811252593994140625" lon="-5.619016997516155242919921875">
        <ele>255.1999969482421875</ele>
        <time>2022-06-04T11:54:24.000Z</time>
      </trkpt>
      <trkpt lat="43.47871340811252593994140625" lon="-5.619016997516155242919921875">
        <ele>254.1999969482421875</ele>
        <time>2022-06-04T11:54:25.000Z</time>
      </trkpt>
      <trkpt lat="43.4787611849606037139892578125" lon="-5.61913509853184223175048828125">
        <ele>253.399993896484375</ele>
        <time>2022-06-04T11:54:26.000Z</time>
      </trkpt>
      <trkpt lat="43.47880569286644458770751953125" lon="-5.61924205161631107330322265625">
        <ele>252.600006103515625</ele>
        <time>2022-06-04T11:54:27.000Z</time>
      </trkpt>
      <trkpt lat="43.47886570729315280914306640625" lon="-5.619436092674732208251953125">
        <ele>250.1999969482421875</ele>
        <time>2022-06-04T11:54:28.000Z</time>
      </trkpt>
      <trkpt lat="43.47886570729315280914306640625" lon="-5.619436092674732208251953125">
        <ele>249.399993896484375</ele>
        <time>2022-06-04T11:54:29.000Z</time>
      </trkpt>
      <trkpt lat="43.4788932837545871734619140625" lon="-5.61959509737789630889892578125">
        <ele>248.399993896484375</ele>
        <time>2022-06-04T11:54:30.000Z</time>
      </trkpt>
      <trkpt lat="43.4788996540009975433349609375" lon="-5.619661398231983184814453125">
        <ele>247.1999969482421875</ele>
        <time>2022-06-04T11:54:31.000Z</time>
      </trkpt>
      <trkpt lat="43.4788996540009975433349609375" lon="-5.619661398231983184814453125">
        <ele>246</ele>
        <time>2022-06-04T11:54:32.000Z</time>
      </trkpt>
      <trkpt lat="43.47890845499932765960693359375" lon="-5.6198017112910747528076171875">
        <ele>244.399993896484375</ele>
        <time>2022-06-04T11:54:33.000Z</time>
      </trkpt>
      <trkpt lat="43.478921949863433837890625" lon="-5.6198691017925739288330078125">
        <ele>243.399993896484375</ele>
        <time>2022-06-04T11:54:34.000Z</time>
      </trkpt>
      <trkpt lat="43.4789529629051685333251953125" lon="-5.6200042180716991424560546875">
        <ele>242</ele>
        <time>2022-06-04T11:54:36.000Z</time>
      </trkpt>
      <trkpt lat="43.4789653681218624114990234375" lon="-5.620076470077037811279296875">
        <ele>241</ele>
        <time>2022-06-04T11:54:38.000Z</time>
      </trkpt>
      <trkpt lat="43.47897685132920742034912109375" lon="-5.62019675038754940032958984375">
        <ele>240.600006103515625</ele>
        <time>2022-06-04T11:54:39.000Z</time>
      </trkpt>
      <trkpt lat="43.47897970117628574371337890625" lon="-5.62023581005632877349853515625">
        <ele>240.1999969482421875</ele>
        <time>2022-06-04T11:54:40.000Z</time>
      </trkpt>
      <trkpt lat="43.47898003645241260528564453125" lon="-5.62026900239288806915283203125">
        <ele>239.399993896484375</ele>
        <time>2022-06-04T11:54:41.000Z</time>
      </trkpt>
      <trkpt lat="43.47898162901401519775390625" lon="-5.62029666267335414886474609375">
        <ele>239</ele>
        <time>2022-06-04T11:54:42.000Z</time>
      </trkpt>
      <trkpt lat="43.47898640669882297515869140625" lon="-5.6203234009444713592529296875">
        <ele>238.399993896484375</ele>
        <time>2022-06-04T11:54:44.000Z</time>
      </trkpt>
      <trkpt lat="43.4789942018687725067138671875" lon="-5.62039959244430065155029296875">
        <ele>237.8000030517578125</ele>
        <time>2022-06-04T11:54:45.000Z</time>
      </trkpt>
      <trkpt lat="43.47899529151618480682373046875" lon="-5.6204457767307758331298828125">
        <ele>237.399993896484375</ele>
        <time>2022-06-04T11:54:46.000Z</time>
      </trkpt>
      <trkpt lat="43.47900065593421459197998046875" lon="-5.620528422296047210693359375">
        <ele>236.399993896484375</ele>
        <time>2022-06-04T11:54:48.000Z</time>
      </trkpt>
      <trkpt lat="43.4790064394474029541015625" lon="-5.620566308498382568359375">
        <ele>235.600006103515625</ele>
        <time>2022-06-04T11:54:50.000Z</time>
      </trkpt>
      <trkpt lat="43.47901959903538227081298828125" lon="-5.62061970122158527374267578125">
        <ele>235</ele>
        <time>2022-06-04T11:54:51.000Z</time>
      </trkpt>
      <trkpt lat="43.47902848385274410247802734375" lon="-5.62064467929303646087646484375">
        <ele>234.399993896484375</ele>
        <time>2022-06-04T11:54:52.000Z</time>
      </trkpt>
      <trkpt lat="43.47903870977461338043212890625" lon="-5.6206757761538028717041015625">
        <ele>234</ele>
        <time>2022-06-04T11:54:53.000Z</time>
      </trkpt>
      <trkpt lat="43.47904759459197521209716796875" lon="-5.62070720829069614410400390625">
        <ele>233.399993896484375</ele>
        <time>2022-06-04T11:54:54.000Z</time>
      </trkpt>
      <trkpt lat="43.4790574014186859130859375" lon="-5.620738305151462554931640625">
        <ele>232.1999969482421875</ele>
        <time>2022-06-04T11:54:56.000Z</time>
      </trkpt>
      <trkpt lat="43.47908489406108856201171875" lon="-5.62081667594611644744873046875">
        <ele>231.1999969482421875</ele>
        <time>2022-06-04T11:54:58.000Z</time>
      </trkpt>
      <trkpt lat="43.47909419797360897064208984375" lon="-5.6208880059421062469482421875">
        <ele>230.1999969482421875</ele>
        <time>2022-06-04T11:55:00.000Z</time>
      </trkpt>
      <trkpt lat="43.47909654490649700164794921875" lon="-5.62093033455312252044677734375">
        <ele>229.600006103515625</ele>
        <time>2022-06-04T11:55:01.000Z</time>
      </trkpt>
      <trkpt lat="43.47909654490649700164794921875" lon="-5.62093033455312252044677734375">
        <ele>229.399993896484375</ele>
        <time>2022-06-04T11:55:02.000Z</time>
      </trkpt>
      <trkpt lat="43.47912311553955078125" lon="-5.621049441397190093994140625">
        <ele>229</ele>
        <time>2022-06-04T11:55:04.000Z</time>
      </trkpt>
      <trkpt lat="43.47914700396358966827392578125" lon="-5.6210988946259021759033203125">
        <ele>228.600006103515625</ele>
        <time>2022-06-04T11:55:05.000Z</time>
      </trkpt>
      <trkpt lat="43.47916779108345508575439453125" lon="-5.62115061096847057342529296875">
        <ele>228.1999969482421875</ele>
        <time>2022-06-04T11:55:06.000Z</time>
      </trkpt>
      <trkpt lat="43.47918639890849590301513671875" lon="-5.62119637615978717803955078125">
        <ele>227.600006103515625</ele>
        <time>2022-06-04T11:55:08.000Z</time>
      </trkpt>
      <trkpt lat="43.4792423062026500701904296875" lon="-5.621320344507694244384765625">
        <ele>227</ele>
        <time>2022-06-04T11:55:10.000Z</time>
      </trkpt>
      <trkpt lat="43.47925521433353424072265625" lon="-5.62135697342455387115478515625">
        <ele>226.600006103515625</ele>
        <time>2022-06-04T11:55:11.000Z</time>
      </trkpt>
      <trkpt lat="43.47926988266408443450927734375" lon="-5.621393434703350067138671875">
        <ele>226.399993896484375</ele>
        <time>2022-06-04T11:55:12.000Z</time>
      </trkpt>
      <trkpt lat="43.47928161732852458953857421875" lon="-5.6214257888495922088623046875">
        <ele>225.8000030517578125</ele>
        <time>2022-06-04T11:55:14.000Z</time>
      </trkpt>
      <trkpt lat="43.47931145690381526947021484375" lon="-5.62150306999683380126953125">
        <ele>224.8000030517578125</ele>
        <time>2022-06-04T11:55:16.000Z</time>
      </trkpt>
      <trkpt lat="43.479325957596302032470703125" lon="-5.62154196202754974365234375">
        <ele>224</ele>
        <time>2022-06-04T11:55:18.000Z</time>
      </trkpt>
      <trkpt lat="43.4793274663388729095458984375" lon="-5.62154958955943584442138671875">
        <ele>223.8000030517578125</ele>
        <time>2022-06-04T11:55:20.000Z</time>
      </trkpt>
      <trkpt lat="43.47925010137259960174560546875" lon="-5.62178201973438262939453125">
        <ele>220</ele>
        <time>2022-06-04T11:56:18.000Z</time>
      </trkpt>
      <trkpt lat="43.47925697453320026397705078125" lon="-5.6218026392161846160888671875">
        <ele>220</ele>
        <time>2022-06-04T11:56:20.000Z</time>
      </trkpt>
      <trkpt lat="43.4792905859649181365966796875" lon="-5.621897019445896148681640625">
        <ele>220</ele>
        <time>2022-06-04T11:56:22.000Z</time>
      </trkpt>
      <trkpt lat="43.4793055057525634765625" lon="-5.621927864849567413330078125">
        <ele>219.8000030517578125</ele>
        <time>2022-06-04T11:56:23.000Z</time>
      </trkpt>
      <trkpt lat="43.4793229401111602783203125" lon="-5.62195946462452411651611328125">
        <ele>219.600006103515625</ele>
        <time>2022-06-04T11:56:24.000Z</time>
      </trkpt>
      <trkpt lat="43.4793442301452159881591796875" lon="-5.62200556509196758270263671875">
        <ele>219.600006103515625</ele>
        <time>2022-06-04T11:56:25.000Z</time>
      </trkpt>
      <trkpt lat="43.4793442301452159881591796875" lon="-5.62200556509196758270263671875">
        <ele>219.399993896484375</ele>
        <time>2022-06-04T11:56:26.000Z</time>
      </trkpt>
      <trkpt lat="43.4794136323034763336181640625" lon="-5.6221662461757659912109375">
        <ele>218.600006103515625</ele>
        <time>2022-06-04T11:56:28.000Z</time>
      </trkpt>
      <trkpt lat="43.4794324077665805816650390625" lon="-5.6222049705684185028076171875">
        <ele>218.399993896484375</ele>
        <time>2022-06-04T11:56:29.000Z</time>
      </trkpt>
      <trkpt lat="43.47945311106741428375244140625" lon="-5.622240006923675537109375">
        <ele>217.8000030517578125</ele>
        <time>2022-06-04T11:56:30.000Z</time>
      </trkpt>
      <trkpt lat="43.47945311106741428375244140625" lon="-5.622240006923675537109375">
        <ele>217</ele>
        <time>2022-06-04T11:56:31.000Z</time>
      </trkpt>
      <trkpt lat="43.47947842441499233245849609375" lon="-5.6222797371447086334228515625">
        <ele>216.600006103515625</ele>
        <time>2022-06-04T11:56:32.000Z</time>
      </trkpt>
      <trkpt lat="43.47952955402433872222900390625" lon="-5.62238761223852634429931640625">
        <ele>216.1999969482421875</ele>
        <time>2022-06-04T11:56:33.000Z</time>
      </trkpt>
      <trkpt lat="43.479549251496791839599609375" lon="-5.62244075350463390350341796875">
        <ele>215.8000030517578125</ele>
        <time>2022-06-04T11:56:34.000Z</time>
      </trkpt>
      <trkpt lat="43.47958990372717380523681640625" lon="-5.6225258298218250274658203125">
        <ele>214.600006103515625</ele>
        <time>2022-06-04T11:56:36.000Z</time>
      </trkpt>
      <trkpt lat="43.479608260095119476318359375" lon="-5.62256949953734874725341796875">
        <ele>213.399993896484375</ele>
        <time>2022-06-04T11:56:38.000Z</time>
      </trkpt>
      <trkpt lat="43.479646481573581695556640625" lon="-5.62266312539577484130859375">
        <ele>212.8000030517578125</ele>
        <time>2022-06-04T11:56:40.000Z</time>
      </trkpt>
      <trkpt lat="43.479659557342529296875" lon="-5.62269472517073154449462890625">
        <ele>212.1999969482421875</ele>
        <time>2022-06-04T11:56:41.000Z</time>
      </trkpt>
      <trkpt lat="43.47967271693050861358642578125" lon="-5.6227226369082927703857421875">
        <ele>211.1999969482421875</ele>
        <time>2022-06-04T11:56:42.000Z</time>
      </trkpt>
      <trkpt lat="43.47968302667140960693359375" lon="-5.62274836935102939605712890625">
        <ele>210.399993896484375</ele>
        <time>2022-06-04T11:56:43.000Z</time>
      </trkpt>
      <trkpt lat="43.47968302667140960693359375" lon="-5.62274836935102939605712890625">
        <ele>210</ele>
        <time>2022-06-04T11:56:44.000Z</time>
      </trkpt>
      <trkpt lat="43.47969300113618373870849609375" lon="-5.62277703545987606048583984375">
        <ele>209.1999969482421875</ele>
        <time>2022-06-04T11:56:45.000Z</time>
      </trkpt>
      <trkpt lat="43.47972351126372814178466796875" lon="-5.62284476123750209808349609375">
        <ele>208.8000030517578125</ele>
        <time>2022-06-04T11:56:46.000Z</time>
      </trkpt>
      <trkpt lat="43.47975620068609714508056640625" lon="-5.6229311786592006683349609375">
        <ele>207.8000030517578125</ele>
        <time>2022-06-04T11:56:48.000Z</time>
      </trkpt>
      <trkpt lat="43.47975620068609714508056640625" lon="-5.6229311786592006683349609375">
        <ele>207.1999969482421875</ele>
        <time>2022-06-04T11:56:49.000Z</time>
      </trkpt>
      <trkpt lat="43.479764163494110107421875" lon="-5.62296881340444087982177734375">
        <ele>207</ele>
        <time>2022-06-04T11:56:50.000Z</time>
      </trkpt>
      <trkpt lat="43.4797747246921062469482421875" lon="-5.62300770543515682220458984375">
        <ele>206.600006103515625</ele>
        <time>2022-06-04T11:56:51.000Z</time>
      </trkpt>
      <trkpt lat="43.47979106940329074859619140625" lon="-5.6230817176401615142822265625">
        <ele>206.1999969482421875</ele>
        <time>2022-06-04T11:56:52.000Z</time>
      </trkpt>
      <trkpt lat="43.479816801846027374267578125" lon="-5.623140223324298858642578125">
        <ele>205.600006103515625</ele>
        <time>2022-06-04T11:56:54.000Z</time>
      </trkpt>
      <trkpt lat="43.47983750514686107635498046875" lon="-5.62317417003214359283447265625">
        <ele>205</ele>
        <time>2022-06-04T11:56:55.000Z</time>
      </trkpt>
      <trkpt lat="43.47983750514686107635498046875" lon="-5.62317417003214359283447265625">
        <ele>204</ele>
        <time>2022-06-04T11:56:56.000Z</time>
      </trkpt>
      <trkpt lat="43.4798712842166423797607421875" lon="-5.62323753722012042999267578125">
        <ele>203.600006103515625</ele>
        <time>2022-06-04T11:56:57.000Z</time>
      </trkpt>
      <trkpt lat="43.479890562593936920166015625" lon="-5.62326368875801563262939453125">
        <ele>203.1999969482421875</ele>
        <time>2022-06-04T11:56:58.000Z</time>
      </trkpt>
      <trkpt lat="43.4799276106059551239013671875" lon="-5.6233244575560092926025390625">
        <ele>202</ele>
        <time>2022-06-04T11:57:00.000Z</time>
      </trkpt>
      <trkpt lat="43.47995384596288204193115234375" lon="-5.6233553029596805572509765625">
        <ele>201.600006103515625</ele>
        <time>2022-06-04T11:57:01.000Z</time>
      </trkpt>
      <trkpt lat="43.4799768961966037750244140625" lon="-5.62338639982044696807861328125">
        <ele>201</ele>
        <time>2022-06-04T11:57:02.000Z</time>
      </trkpt>
      <trkpt lat="43.480028696358203887939453125" lon="-5.62344507314264774322509765625">
        <ele>200</ele>
        <time>2022-06-04T11:57:04.000Z</time>
      </trkpt>
      <trkpt lat="43.4800553508102893829345703125" lon="-5.62347072176635265350341796875">
        <ele>199.600006103515625</ele>
        <time>2022-06-04T11:57:05.000Z</time>
      </trkpt>
      <trkpt lat="43.48008041270077228546142578125" lon="-5.62349553219974040985107421875">
        <ele>199.399993896484375</ele>
        <time>2022-06-04T11:57:06.000Z</time>
      </trkpt>
      <trkpt lat="43.4801034629344940185546875" lon="-5.62351916916668415069580078125">
        <ele>198.399993896484375</ele>
        <time>2022-06-04T11:57:08.000Z</time>
      </trkpt>
      <trkpt lat="43.4801589511334896087646484375" lon="-5.6235993839800357818603515625">
        <ele>197.8000030517578125</ele>
        <time>2022-06-04T11:57:10.000Z</time>
      </trkpt>
      <trkpt lat="43.48018149845302104949951171875" lon="-5.6236235238611698150634765625">
        <ele>197.600006103515625</ele>
        <time>2022-06-04T11:57:11.000Z</time>
      </trkpt>
      <trkpt lat="43.48020312376320362091064453125" lon="-5.62365093268454074859619140625">
        <ele>196.1999969482421875</ele>
        <time>2022-06-04T11:57:12.000Z</time>
      </trkpt>
      <trkpt lat="43.48022273741662502288818359375" lon="-5.62368161045014858245849609375">
        <ele>195.600006103515625</ele>
        <time>2022-06-04T11:57:13.000Z</time>
      </trkpt>
      <trkpt lat="43.48022273741662502288818359375" lon="-5.62368161045014858245849609375">
        <ele>194.8000030517578125</ele>
        <time>2022-06-04T11:57:14.000Z</time>
      </trkpt>
      <trkpt lat="43.4802746213972568511962890625" lon="-5.623752437531948089599609375">
        <ele>193.8000030517578125</ele>
        <time>2022-06-04T11:57:16.000Z</time>
      </trkpt>
      <trkpt lat="43.48029918037354946136474609375" lon="-5.6237931735813617706298828125">
        <ele>192.8000030517578125</ele>
        <time>2022-06-04T11:57:18.000Z</time>
      </trkpt>
      <trkpt lat="43.48030856810510158538818359375" lon="-5.62380901537835597991943359375">
        <ele>192.1999969482421875</ele>
        <time>2022-06-04T11:57:19.000Z</time>
      </trkpt>
      <trkpt lat="43.48030856810510158538818359375" lon="-5.62380901537835597991943359375">
        <ele>191.8000030517578125</ele>
        <time>2022-06-04T11:57:20.000Z</time>
      </trkpt>
      <trkpt lat="43.4803287684917449951171875" lon="-5.62384220771491527557373046875">
        <ele>191.1999969482421875</ele>
        <time>2022-06-04T11:57:21.000Z</time>
      </trkpt>
      <trkpt lat="43.48033212125301361083984375" lon="-5.62384891323745250701904296875">
        <ele>190.399993896484375</ele>
        <time>2022-06-04T11:57:22.000Z</time>
      </trkpt>
      <trkpt lat="43.4803314507007598876953125" lon="-5.623865090310573577880859375">
        <ele>189.600006103515625</ele>
        <time>2022-06-04T11:57:23.000Z</time>
      </trkpt>
      <trkpt lat="43.4804261662065982818603515625" lon="-5.624081678688526153564453125">
        <ele>185.600006103515625</ele>
        <time>2022-06-04T11:57:41.000Z</time>
      </trkpt>
      <trkpt lat="43.48043915815651416778564453125" lon="-5.62409408390522003173828125">
        <ele>185.399993896484375</ele>
        <time>2022-06-04T11:57:42.000Z</time>
      </trkpt>
      <trkpt lat="43.480453826487064361572265625" lon="-5.62410757876932621002197265625">
        <ele>185.1999969482421875</ele>
        <time>2022-06-04T11:57:43.000Z</time>
      </trkpt>
      <trkpt lat="43.4804674051702022552490234375" lon="-5.624120570719242095947265625">
        <ele>185</ele>
        <time>2022-06-04T11:57:44.000Z</time>
      </trkpt>
      <trkpt lat="43.4804989211261272430419921875" lon="-5.62414797954261302947998046875">
        <ele>184.8000030517578125</ele>
        <time>2022-06-04T11:57:46.000Z</time>
      </trkpt>
      <trkpt lat="43.48051987588405609130859375" lon="-5.6241817586123943328857421875">
        <ele>184.399993896484375</ele>
        <time>2022-06-04T11:57:48.000Z</time>
      </trkpt>
      <trkpt lat="43.4805327840149402618408203125" lon="-5.6241938285529613494873046875">
        <ele>184</ele>
        <time>2022-06-04T11:57:49.000Z</time>
      </trkpt>
      <trkpt lat="43.4805438481271266937255859375" lon="-5.6242058984935283660888671875">
        <ele>183.8000030517578125</ele>
        <time>2022-06-04T11:57:50.000Z</time>
      </trkpt>
      <trkpt lat="43.4805669821798801422119140625" lon="-5.6242290325462818145751953125">
        <ele>183.399993896484375</ele>
        <time>2022-06-04T11:57:52.000Z</time>
      </trkpt>
      <trkpt lat="43.48057444207370281219482421875" lon="-5.6242395937442779541015625">
        <ele>183</ele>
        <time>2022-06-04T11:57:53.000Z</time>
      </trkpt>
      <trkpt lat="43.4805854223668575286865234375" lon="-5.62425510026514530181884765625">
        <ele>182.399993896484375</ele>
        <time>2022-06-04T11:57:54.000Z</time>
      </trkpt>
      <trkpt lat="43.4805998392403125762939453125" lon="-5.62426800839602947235107421875">
        <ele>182</ele>
        <time>2022-06-04T11:57:55.000Z</time>
      </trkpt>
      <trkpt lat="43.4806142561137676239013671875" lon="-5.62428158707916736602783203125">
        <ele>181.600006103515625</ele>
        <time>2022-06-04T11:57:56.000Z</time>
      </trkpt>
      <trkpt lat="43.4806345403194427490234375" lon="-5.6243108399212360382080078125">
        <ele>180.8000030517578125</ele>
        <time>2022-06-04T11:57:58.000Z</time>
      </trkpt>
      <trkpt lat="43.4806451015174388885498046875" lon="-5.6243262626230716705322265625">
        <ele>180.1999969482421875</ele>
        <time>2022-06-04T11:57:59.000Z</time>
      </trkpt>
      <trkpt lat="43.480650298297405242919921875" lon="-5.6243440322577953338623046875">
        <ele>180</ele>
        <time>2022-06-04T11:58:00.000Z</time>
      </trkpt>
      <trkpt lat="43.4806528128683567047119140625" lon="-5.624362640082836151123046875">
        <ele>179.600006103515625</ele>
        <time>2022-06-04T11:58:01.000Z</time>
      </trkpt>
      <trkpt lat="43.48064954392611980438232421875" lon="-5.62437999062240123748779296875">
        <ele>179.1999969482421875</ele>
        <time>2022-06-04T11:58:02.000Z</time>
      </trkpt>
      <trkpt lat="43.48063730634748935699462890625" lon="-5.624403543770313262939453125">
        <ele>178.399993896484375</ele>
        <time>2022-06-04T11:58:04.000Z</time>
      </trkpt>
      <trkpt lat="43.48062976263463497161865234375" lon="-5.62441460788249969482421875">
        <ele>178</ele>
        <time>2022-06-04T11:58:05.000Z</time>
      </trkpt>
      <trkpt lat="43.4806206263601779937744140625" lon="-5.62442265450954437255859375">
        <ele>177.8000030517578125</ele>
        <time>2022-06-04T11:58:06.000Z</time>
      </trkpt>
      <trkpt lat="43.48059522919356822967529296875" lon="-5.62443799339234828948974609375">
        <ele>177.1999969482421875</ele>
        <time>2022-06-04T11:58:08.000Z</time>
      </trkpt>
      <trkpt lat="43.48058215342462062835693359375" lon="-5.62444503419101238250732421875">
        <ele>176.8000030517578125</ele>
        <time>2022-06-04T11:58:09.000Z</time>
      </trkpt>
      <trkpt lat="43.4805689938366413116455078125" lon="-5.62445207498967647552490234375">
        <ele>176.399993896484375</ele>
        <time>2022-06-04T11:58:10.000Z</time>
      </trkpt>
      <trkpt lat="43.4805435128509998321533203125" lon="-5.624464564025402069091796875">
        <ele>175.8000030517578125</ele>
        <time>2022-06-04T11:58:12.000Z</time>
      </trkpt>
      <trkpt lat="43.48053471185266971588134765625" lon="-5.62446716241538524627685546875">
        <ele>175.399993896484375</ele>
        <time>2022-06-04T11:58:13.000Z</time>
      </trkpt>
      <trkpt lat="43.4805260784924030303955078125" lon="-5.6244694255292415618896484375">
        <ele>175.1999969482421875</ele>
        <time>2022-06-04T11:58:14.000Z</time>
      </trkpt>
      <trkpt lat="43.4805036149919033050537109375" lon="-5.624474622309207916259765625">
        <ele>174.399993896484375</ele>
        <time>2022-06-04T11:58:16.000Z</time>
      </trkpt>
      <trkpt lat="43.48049095831811428070068359375" lon="-5.6244774721562862396240234375">
        <ele>174.1999969482421875</ele>
        <time>2022-06-04T11:58:17.000Z</time>
      </trkpt>
      <trkpt lat="43.48048031330108642578125" lon="-5.62447638250887393951416015625">
        <ele>173.8000030517578125</ele>
        <time>2022-06-04T11:58:18.000Z</time>
      </trkpt>
      <trkpt lat="43.4804560057818889617919921875" lon="-5.62448744662106037139892578125">
        <ele>172.8000030517578125</ele>
        <time>2022-06-04T11:58:20.000Z</time>
      </trkpt>
      <trkpt lat="43.4804362244904041290283203125" lon="-5.62449373304843902587890625">
        <ele>172.399993896484375</ele>
        <time>2022-06-04T11:58:22.000Z</time>
      </trkpt>
      <trkpt lat="43.48042574711143970489501953125" lon="-5.62450638972222805023193359375">
        <ele>172.1999969482421875</ele>
        <time>2022-06-04T11:58:23.000Z</time>
      </trkpt>
      <trkpt lat="43.48041418008506298065185546875" lon="-5.62451443634927272796630859375">
        <ele>171.8000030517578125</ele>
        <time>2022-06-04T11:58:24.000Z</time>
      </trkpt>
      <trkpt lat="43.4803904592990875244140625" lon="-5.62453036196529865264892578125">
        <ele>171.1999969482421875</ele>
        <time>2022-06-04T11:58:26.000Z</time>
      </trkpt>
      <trkpt lat="43.48037612624466419219970703125" lon="-5.624539665877819061279296875">
        <ele>171.1999969482421875</ele>
        <time>2022-06-04T11:58:27.000Z</time>
      </trkpt>
      <trkpt lat="43.4803607873618602752685546875" lon="-5.624546706676483154296875">
        <ele>171</ele>
        <time>2022-06-04T11:58:28.000Z</time>
      </trkpt>
      <trkpt lat="43.4803529083728790283203125" lon="-5.62454880215227603912353515625">
        <ele>170.8000030517578125</ele>
        <time>2022-06-04T11:58:29.000Z</time>
      </trkpt>
      <trkpt lat="43.480343185365200042724609375" lon="-5.62455475330352783203125">
        <ele>170.399993896484375</ele>
        <time>2022-06-04T11:58:30.000Z</time>
      </trkpt>
      <trkpt lat="43.4803312830626964569091796875" lon="-5.62457285821437835693359375">
        <ele>170</ele>
        <time>2022-06-04T11:58:32.000Z</time>
      </trkpt>
      <trkpt lat="43.48032952286303043365478515625" lon="-5.62459372915327548980712890625">
        <ele>169.600006103515625</ele>
        <time>2022-06-04T11:58:34.000Z</time>
      </trkpt>
      <trkpt lat="43.48033522255718708038330078125" lon="-5.624594986438751220703125">
        <ele>169.1999969482421875</ele>
        <time>2022-06-04T11:58:35.000Z</time>
      </trkpt>
      <trkpt lat="43.4803376533091068267822265625" lon="-5.62460529617965221405029296875">
        <ele>169</ele>
        <time>2022-06-04T11:58:36.000Z</time>
      </trkpt>
      <trkpt lat="43.48034611903131008148193359375" lon="-5.624642260372638702392578125">
        <ele>168.399993896484375</ele>
        <time>2022-06-04T11:58:38.000Z</time>
      </trkpt>
      <trkpt lat="43.480357937514781951904296875" lon="-5.6246799789369106292724609375">
        <ele>168</ele>
        <time>2022-06-04T11:58:40.000Z</time>
      </trkpt>
      <trkpt lat="43.48036657087504863739013671875" lon="-5.624722726643085479736328125">
        <ele>167.600006103515625</ele>
        <time>2022-06-04T11:58:42.000Z</time>
      </trkpt>
      <trkpt lat="43.48037646152079105377197265625" lon="-5.62474661506712436676025390625">
        <ele>167.1999969482421875</ele>
        <time>2022-06-04T11:58:44.000Z</time>
      </trkpt>
      <trkpt lat="43.48037947900593280792236328125" lon="-5.6247470341622829437255859375">
        <ele>167</ele>
        <time>2022-06-04T11:58:45.000Z</time>
      </trkpt>
      <trkpt lat="43.48043940961360931396484375" lon="-5.62484149821102619171142578125">
        <ele>163.600006103515625</ele>
        <time>2022-06-04T11:59:10.000Z</time>
      </trkpt>
      <trkpt lat="43.48047235049307346343994140625" lon="-5.6249066255986690521240234375">
        <ele>163.600006103515625</ele>
        <time>2022-06-04T11:59:12.000Z</time>
      </trkpt>
      <trkpt lat="43.48049079068005084991455078125" lon="-5.62494358979165554046630859375">
        <ele>163.600006103515625</ele>
        <time>2022-06-04T11:59:13.000Z</time>
      </trkpt>
      <trkpt lat="43.48051694221794605255126953125" lon="-5.62497921288013458251953125">
        <ele>163.600006103515625</ele>
        <time>2022-06-04T11:59:14.000Z</time>
      </trkpt>
      <trkpt lat="43.48054594360291957855224609375" lon="-5.62500947155058383941650390625">
        <ele>163</ele>
        <time>2022-06-04T11:59:15.000Z</time>
      </trkpt>
      <trkpt lat="43.48057377152144908905029296875" lon="-5.6250367127358913421630859375">
        <ele>162.8000030517578125</ele>
        <time>2022-06-04T11:59:16.000Z</time>
      </trkpt>
      <trkpt lat="43.48060579039156436920166015625" lon="-5.62506345100700855255126953125">
        <ele>162.600006103515625</ele>
        <time>2022-06-04T11:59:17.000Z</time>
      </trkpt>
      <trkpt lat="43.48063998855650424957275390625" lon="-5.62509588897228240966796875">
        <ele>162.1999969482421875</ele>
        <time>2022-06-04T11:59:18.000Z</time>
      </trkpt>
      <trkpt lat="43.48070561885833740234375" lon="-5.62516269274055957794189453125">
        <ele>160.600006103515625</ele>
        <time>2022-06-04T11:59:20.000Z</time>
      </trkpt>
      <trkpt lat="43.48076538182795047760009765625" lon="-5.62521390616893768310546875">
        <ele>159.600006103515625</ele>
        <time>2022-06-04T11:59:22.000Z</time>
      </trkpt>
      <trkpt lat="43.48079522140324115753173828125" lon="-5.6252351962029933929443359375">
        <ele>159.1999969482421875</ele>
        <time>2022-06-04T11:59:23.000Z</time>
      </trkpt>
      <trkpt lat="43.48083076067268848419189453125" lon="-5.6252529658377170562744140625">
        <ele>158.1999969482421875</ele>
        <time>2022-06-04T11:59:24.000Z</time>
      </trkpt>
      <trkpt lat="43.48087065853178501129150390625" lon="-5.62527182511985301971435546875">
        <ele>157.600006103515625</ele>
        <time>2022-06-04T11:59:25.000Z</time>
      </trkpt>
      <trkpt lat="43.48087065853178501129150390625" lon="-5.62527182511985301971435546875">
        <ele>157.1999969482421875</ele>
        <time>2022-06-04T11:59:26.000Z</time>
      </trkpt>
      <trkpt lat="43.48095707595348358154296875" lon="-5.62530686147511005401611328125">
        <ele>156.600006103515625</ele>
        <time>2022-06-04T11:59:27.000Z</time>
      </trkpt>
      <trkpt lat="43.4810075350105762481689453125" lon="-5.6253294087946414947509765625">
        <ele>155.1999969482421875</ele>
        <time>2022-06-04T11:59:28.000Z</time>
      </trkpt>
      <trkpt lat="43.481110967695713043212890625" lon="-5.62538078986108303070068359375">
        <ele>154</ele>
        <time>2022-06-04T11:59:30.000Z</time>
      </trkpt>
      <trkpt lat="43.48116033710539340972900390625" lon="-5.62540375627577304840087890625">
        <ele>153.399993896484375</ele>
        <time>2022-06-04T11:59:31.000Z</time>
      </trkpt>
      <trkpt lat="43.48116033710539340972900390625" lon="-5.62540375627577304840087890625">
        <ele>152.399993896484375</ele>
        <time>2022-06-04T11:59:32.000Z</time>
      </trkpt>
      <trkpt lat="43.48131305538117885589599609375" lon="-5.62550333328545093536376953125">
        <ele>151.1999969482421875</ele>
        <time>2022-06-04T11:59:34.000Z</time>
      </trkpt>
      <trkpt lat="43.48136384971439838409423828125" lon="-5.62554490752518177032470703125">
        <ele>150.1999969482421875</ele>
        <time>2022-06-04T11:59:35.000Z</time>
      </trkpt>
      <trkpt lat="43.4814135544002056121826171875" lon="-5.62558463774621486663818359375">
        <ele>149.8000030517578125</ele>
        <time>2022-06-04T11:59:36.000Z</time>
      </trkpt>
      <trkpt lat="43.4814668633043766021728515625" lon="-5.625620596110820770263671875">
        <ele>149.399993896484375</ele>
        <time>2022-06-04T11:59:37.000Z</time>
      </trkpt>
      <trkpt lat="43.48152109421789646148681640625" lon="-5.62565286643803119659423828125">
        <ele>148.8000030517578125</ele>
        <time>2022-06-04T11:59:38.000Z</time>
      </trkpt>
      <trkpt lat="43.48157390020787715911865234375" lon="-5.625681616365909576416015625">
        <ele>148.1999969482421875</ele>
        <time>2022-06-04T11:59:39.000Z</time>
      </trkpt>
      <trkpt lat="43.4816247783601284027099609375" lon="-5.6257072649896144866943359375">
        <ele>148</ele>
        <time>2022-06-04T11:59:40.000Z</time>
      </trkpt>
      <trkpt lat="43.48172913305461406707763671875" lon="-5.625733919441699981689453125">
        <ele>147.600006103515625</ele>
        <time>2022-06-04T11:59:42.000Z</time>
      </trkpt>
      <trkpt lat="43.48177942447364330291748046875" lon="-5.62574942596256732940673828125">
        <ele>147.1999969482421875</ele>
        <time>2022-06-04T11:59:43.000Z</time>
      </trkpt>
      <trkpt lat="43.48183013498783111572265625" lon="-5.62575914897024631500244140625">
        <ele>147</ele>
        <time>2022-06-04T11:59:44.000Z</time>
      </trkpt>
      <trkpt lat="43.48193935118615627288818359375" lon="-5.625781528651714324951171875">
        <ele>146.600006103515625</ele>
        <time>2022-06-04T11:59:46.000Z</time>
      </trkpt>
      <trkpt lat="43.482057787477970123291015625" lon="-5.625800974667072296142578125">
        <ele>146</ele>
        <time>2022-06-04T11:59:48.000Z</time>
      </trkpt>
      <trkpt lat="43.48212107084691524505615234375" lon="-5.6258135475218296051025390625">
        <ele>146</ele>
        <time>2022-06-04T11:59:49.000Z</time>
      </trkpt>
      <trkpt lat="43.4821836836636066436767578125" lon="-5.62582771293818950653076171875">
        <ele>145.8000030517578125</ele>
        <time>2022-06-04T11:59:50.000Z</time>
      </trkpt>
      <trkpt lat="43.48231787793338298797607421875" lon="-5.62584598548710346221923828125">
        <ele>145.1999969482421875</ele>
        <time>2022-06-04T11:59:52.000Z</time>
      </trkpt>
      <trkpt lat="43.48245718516409397125244140625" lon="-5.62586023472249507904052734375">
        <ele>144.600006103515625</ele>
        <time>2022-06-04T11:59:54.000Z</time>
      </trkpt>
      <trkpt lat="43.48251619376242160797119140625" lon="-5.62587783671915531158447265625">
        <ele>144.399993896484375</ele>
        <time>2022-06-04T11:59:55.000Z</time>
      </trkpt>
      <trkpt lat="43.4825726039707660675048828125" lon="-5.6258883140981197357177734375">
        <ele>144.1999969482421875</ele>
        <time>2022-06-04T11:59:56.000Z</time>
      </trkpt>
      <trkpt lat="43.48268383182585239410400390625" lon="-5.62591488473117351531982421875">
        <ele>142.600006103515625</ele>
        <time>2022-06-04T11:59:58.000Z</time>
      </trkpt>
      <trkpt lat="43.4827429242432117462158203125" lon="-5.6259339116513729095458984375">
        <ele>141.600006103515625</ele>
        <time>2022-06-04T11:59:59.000Z</time>
      </trkpt>
      <trkpt lat="43.4828031063079833984375" lon="-5.62595553696155548095703125">
        <ele>140.8000030517578125</ele>
        <time>2022-06-04T12:00:00.000Z</time>
      </trkpt>
      <trkpt lat="43.48292120732367038726806640625" lon="-5.6259986199438571929931640625">
        <ele>139.1999969482421875</ele>
        <time>2022-06-04T12:00:02.000Z</time>
      </trkpt>
      <trkpt lat="43.4830336086452007293701171875" lon="-5.62604832462966442108154296875">
        <ele>137.399993896484375</ele>
        <time>2022-06-04T12:00:04.000Z</time>
      </trkpt>
      <trkpt lat="43.4831388853490352630615234375" lon="-5.62609375454485416412353515625">
        <ele>135.600006103515625</ele>
        <time>2022-06-04T12:00:06.000Z</time>
      </trkpt>
      <trkpt lat="43.4831875003874301910400390625" lon="-5.62613214366137981414794921875">
        <ele>134.600006103515625</ele>
        <time>2022-06-04T12:00:07.000Z</time>
      </trkpt>
      <trkpt lat="43.48323854617774486541748046875" lon="-5.626172125339508056640625">
        <ele>133.600006103515625</ele>
        <time>2022-06-04T12:00:08.000Z</time>
      </trkpt>
      <trkpt lat="43.48334491252899169921875" lon="-5.6262443773448467254638671875">
        <ele>131.8000030517578125</ele>
        <time>2022-06-04T12:00:10.000Z</time>
      </trkpt>
      <trkpt lat="43.483467288315296173095703125" lon="-5.62631654553115367889404296875">
        <ele>129.8000030517578125</ele>
        <time>2022-06-04T12:00:12.000Z</time>
      </trkpt>
      <trkpt lat="43.4835288114845752716064453125" lon="-5.62635594047605991363525390625">
        <ele>128.600006103515625</ele>
        <time>2022-06-04T12:00:13.000Z</time>
      </trkpt>
      <trkpt lat="43.4835288114845752716064453125" lon="-5.62635594047605991363525390625">
        <ele>127.40000152587890625</ele>
        <time>2022-06-04T12:00:14.000Z</time>
      </trkpt>
      <trkpt lat="43.48365009762346744537353515625" lon="-5.6264133565127849578857421875">
        <ele>126.40000152587890625</ele>
        <time>2022-06-04T12:00:15.000Z</time>
      </trkpt>
      <trkpt lat="43.4837044961750507354736328125" lon="-5.62642651610076427459716796875">
        <ele>125</ele>
        <time>2022-06-04T12:00:16.000Z</time>
      </trkpt>
      <trkpt lat="43.483752273023128509521484375" lon="-5.62643556855618953704833984375">
        <ele>123.8000030517578125</ele>
        <time>2022-06-04T12:00:17.000Z</time>
      </trkpt>
      <trkpt lat="43.48379485309123992919921875" lon="-5.62644545920193195343017578125">
        <ele>122.59999847412109375</ele>
        <time>2022-06-04T12:00:18.000Z</time>
      </trkpt>
      <trkpt lat="43.48382678814232349395751953125" lon="-5.62647546641528606414794921875">
        <ele>121.8000030517578125</ele>
        <time>2022-06-04T12:00:19.000Z</time>
      </trkpt>
      <trkpt lat="43.48382678814232349395751953125" lon="-5.62647546641528606414794921875">
        <ele>121.1999969482421875</ele>
        <time>2022-06-04T12:00:20.000Z</time>
      </trkpt>
      <trkpt lat="43.4839173965156078338623046875" lon="-5.6265623867511749267578125">
        <ele>120.40000152587890625</ele>
        <time>2022-06-04T12:00:22.000Z</time>
      </trkpt>
      <trkpt lat="43.48398260772228240966796875" lon="-5.6266071461141109466552734375">
        <ele>120.40000152587890625</ele>
        <time>2022-06-04T12:00:24.000Z</time>
      </trkpt>
      <trkpt lat="43.48401546478271484375" lon="-5.6266252510249614715576171875">
        <ele>120.40000152587890625</ele>
        <time>2022-06-04T12:00:25.000Z</time>
      </trkpt>
      <trkpt lat="43.48401546478271484375" lon="-5.6266252510249614715576171875">
        <ele>120.40000152587890625</ele>
        <time>2022-06-04T12:00:26.000Z</time>
      </trkpt>
      <trkpt lat="43.48409391939640045166015625" lon="-5.6266658194363117218017578125">
        <ele>120.40000152587890625</ele>
        <time>2022-06-04T12:00:28.000Z</time>
      </trkpt>
      <trkpt lat="43.4841095097362995147705078125" lon="-5.626681409776210784912109375">
        <ele>120.40000152587890625</ele>
        <time>2022-06-04T12:00:29.000Z</time>
      </trkpt>
      <trkpt lat="43.48411738872528076171875" lon="-5.626701526343822479248046875">
        <ele>120.59999847412109375</ele>
        <time>2022-06-04T12:00:30.000Z</time>
      </trkpt>
      <trkpt lat="43.48412618972361087799072265625" lon="-5.62672021798789501190185546875">
        <ele>121</ele>
        <time>2022-06-04T12:00:32.000Z</time>
      </trkpt>
      <trkpt lat="43.48417011089622974395751953125" lon="-5.62676413916051387786865234375">
        <ele>121.1999969482421875</ele>
        <time>2022-06-04T12:00:34.000Z</time>
      </trkpt>
      <trkpt lat="43.48419458605349063873291015625" lon="-5.62678140588104724884033203125">
        <ele>121.1999969482421875</ele>
        <time>2022-06-04T12:00:35.000Z</time>
      </trkpt>
      <trkpt lat="43.484222330152988433837890625" lon="-5.62679515220224857330322265625">
        <ele>121.1999969482421875</ele>
        <time>2022-06-04T12:00:36.000Z</time>
      </trkpt>
      <trkpt lat="43.48424806259572505950927734375" lon="-5.626811496913433074951171875">
        <ele>121.40000152587890625</ele>
        <time>2022-06-04T12:00:38.000Z</time>
      </trkpt>
      <trkpt lat="43.4843341447412967681884765625" lon="-5.6268911249935626983642578125">
        <ele>121.40000152587890625</ele>
        <time>2022-06-04T12:00:40.000Z</time>
      </trkpt>
      <trkpt lat="43.4843341447412967681884765625" lon="-5.6268911249935626983642578125">
        <ele>121.59999847412109375</ele>
        <time>2022-06-04T12:00:41.000Z</time>
      </trkpt>
      <trkpt lat="43.48440103232860565185546875" lon="-5.62695658765733242034912109375">
        <ele>121.59999847412109375</ele>
        <time>2022-06-04T12:00:42.000Z</time>
      </trkpt>
      <trkpt lat="43.484435565769672393798828125" lon="-5.6269839964807033538818359375">
        <ele>121.8000030517578125</ele>
        <time>2022-06-04T12:00:44.000Z</time>
      </trkpt>
      <trkpt lat="43.4845054708421230316162109375" lon="-5.6270597688853740692138671875">
        <ele>122</ele>
        <time>2022-06-04T12:00:45.000Z</time>
      </trkpt>
      <trkpt lat="43.4845450334250926971435546875" lon="-5.62710109166800975799560546875">
        <ele>122.1999969482421875</ele>
        <time>2022-06-04T12:00:46.000Z</time>
      </trkpt>
      <trkpt lat="43.4846270084381103515625" lon="-5.6271754391491413116455078125">
        <ele>122.59999847412109375</ele>
        <time>2022-06-04T12:00:48.000Z</time>
      </trkpt>
      <trkpt lat="43.48466397263109683990478515625" lon="-5.6272052787244319915771484375">
        <ele>122.59999847412109375</ele>
        <time>2022-06-04T12:00:50.000Z</time>
      </trkpt>
      <trkpt lat="43.4846851788461208343505859375" lon="-5.62722614966332912445068359375">
        <ele>122.59999847412109375</ele>
        <time>2022-06-04T12:00:51.000Z</time>
      </trkpt>
      <trkpt lat="43.48470018245279788970947265625" lon="-5.62724006362259387969970703125">
        <ele>122.59999847412109375</ele>
        <time>2022-06-04T12:00:52.000Z</time>
      </trkpt>
      <trkpt lat="43.48470906727015972137451171875" lon="-5.6272445060312747955322265625">
        <ele>122.59999847412109375</ele>
        <time>2022-06-04T12:00:54.000Z</time>
      </trkpt>
      <trkpt lat="43.48470571450889110565185546875" lon="-5.6272445060312747955322265625">
        <ele>122.59999847412109375</ele>
        <time>2022-06-04T12:00:56.000Z</time>
      </trkpt>
      <trkpt lat="43.48474008031189441680908203125" lon="-5.62729219906032085418701171875">
        <ele>121.40000152587890625</ele>
        <time>2022-06-04T12:00:59.000Z</time>
      </trkpt>
      <trkpt lat="43.484784252941608428955078125" lon="-5.62734215520322322845458984375">
        <ele>121</ele>
        <time>2022-06-04T12:01:00.000Z</time>
      </trkpt>
      <trkpt lat="43.484784252941608428955078125" lon="-5.62734215520322322845458984375">
        <ele>120.8000030517578125</ele>
        <time>2022-06-04T12:01:01.000Z</time>
      </trkpt>
      <trkpt lat="43.484817780554294586181640625" lon="-5.62736327759921550750732421875">
        <ele>120.59999847412109375</ele>
        <time>2022-06-04T12:01:02.000Z</time>
      </trkpt>
      <trkpt lat="43.48489665426313877105712890625" lon="-5.6273967213928699493408203125">
        <ele>120.59999847412109375</ele>
        <time>2022-06-04T12:01:03.000Z</time>
      </trkpt>
      <trkpt lat="43.4849394857883453369140625" lon="-5.62741734087467193603515625">
        <ele>120.40000152587890625</ele>
        <time>2022-06-04T12:01:04.000Z</time>
      </trkpt>
      <trkpt lat="43.4849802218377590179443359375" lon="-5.62744013965129852294921875">
        <ele>120.40000152587890625</ele>
        <time>2022-06-04T12:01:05.000Z</time>
      </trkpt>
      <trkpt lat="43.4850174374878406524658203125" lon="-5.62746293842792510986328125">
        <ele>120.40000152587890625</ele>
        <time>2022-06-04T12:01:06.000Z</time>
      </trkpt>
      <trkpt lat="43.4850479476153850555419921875" lon="-5.6274879164993762969970703125">
        <ele>120.1999969482421875</ele>
        <time>2022-06-04T12:01:08.000Z</time>
      </trkpt>
      <trkpt lat="43.48506714217364788055419921875" lon="-5.62751926481723785400390625">
        <ele>120</ele>
        <time>2022-06-04T12:01:09.000Z</time>
      </trkpt>
      <trkpt lat="43.48507694900035858154296875" lon="-5.627616159617900848388671875">
        <ele>120</ele>
        <time>2022-06-04T12:01:10.000Z</time>
      </trkpt>
      <trkpt lat="43.4850727580487728118896484375" lon="-5.62770777381956577301025390625">
        <ele>119.8000030517578125</ele>
        <time>2022-06-04T12:01:12.000Z</time>
      </trkpt>
      <trkpt lat="43.48506714217364788055419921875" lon="-5.6277430616319179534912109375">
        <ele>119.40000152587890625</ele>
        <time>2022-06-04T12:01:14.000Z</time>
      </trkpt>
      <trkpt lat="43.485061861574649810791015625" lon="-5.6277729012072086334228515625">
        <ele>119.1999969482421875</ele>
        <time>2022-06-04T12:01:15.000Z</time>
      </trkpt>
      <trkpt lat="43.485053814947605133056640625" lon="-5.62782092951238155364990234375">
        <ele>119</ele>
        <time>2022-06-04T12:01:16.000Z</time>
      </trkpt>
      <trkpt lat="43.485053814947605133056640625" lon="-5.62782092951238155364990234375">
        <ele>118.59999847412109375</ele>
        <time>2022-06-04T12:01:17.000Z</time>
      </trkpt>
      <trkpt lat="43.48503914661705493927001953125" lon="-5.627893097698688507080078125">
        <ele>118.1999969482421875</ele>
        <time>2022-06-04T12:01:18.000Z</time>
      </trkpt>
      <trkpt lat="43.485031686723232269287109375" lon="-5.62793727032840251922607421875">
        <ele>117.40000152587890625</ele>
        <time>2022-06-04T12:01:20.000Z</time>
      </trkpt>
      <trkpt lat="43.48499421961605548858642578125" lon="-5.62807708047330379486083984375">
        <ele>116.1999969482421875</ele>
        <time>2022-06-04T12:01:22.000Z</time>
      </trkpt>
      <trkpt lat="43.48495767451822757720947265625" lon="-5.62817640602588653564453125">
        <ele>115.1999969482421875</ele>
        <time>2022-06-04T12:01:24.000Z</time>
      </trkpt>
      <trkpt lat="43.484943173825740814208984375" lon="-5.6282285414636135101318359375">
        <ele>114.59999847412109375</ele>
        <time>2022-06-04T12:01:25.000Z</time>
      </trkpt>
      <trkpt lat="43.484943173825740814208984375" lon="-5.6282285414636135101318359375">
        <ele>114.1999969482421875</ele>
        <time>2022-06-04T12:01:26.000Z</time>
      </trkpt>
      <trkpt lat="43.48492431454360485076904296875" lon="-5.6283462233841419219970703125">
        <ele>113.40000152587890625</ele>
        <time>2022-06-04T12:01:27.000Z</time>
      </trkpt>
      <trkpt lat="43.48492481745779514312744140625" lon="-5.6284109316766262054443359375">
        <ele>112.59999847412109375</ele>
        <time>2022-06-04T12:01:28.000Z</time>
      </trkpt>
      <trkpt lat="43.484940491616725921630859375" lon="-5.62847354449331760406494140625">
        <ele>111.8000030517578125</ele>
        <time>2022-06-04T12:01:29.000Z</time>
      </trkpt>
      <trkpt lat="43.48496806807816028594970703125" lon="-5.62853070907294750213623046875">
        <ele>111</ele>
        <time>2022-06-04T12:01:30.000Z</time>
      </trkpt>
      <trkpt lat="43.4850040264427661895751953125" lon="-5.6285772286355495452880859375">
        <ele>110.1999969482421875</ele>
        <time>2022-06-04T12:01:31.000Z</time>
      </trkpt>
      <trkpt lat="43.4850040264427661895751953125" lon="-5.6285772286355495452880859375">
        <ele>109.59999847412109375</ele>
        <time>2022-06-04T12:01:32.000Z</time>
      </trkpt>
      <trkpt lat="43.48509480245411396026611328125" lon="-5.628600530326366424560546875">
        <ele>108.59999847412109375</ele>
        <time>2022-06-04T12:01:33.000Z</time>
      </trkpt>
      <trkpt lat="43.48514576442539691925048828125" lon="-5.628591477870941162109375">
        <ele>107.8000030517578125</ele>
        <time>2022-06-04T12:01:34.000Z</time>
      </trkpt>
      <trkpt lat="43.48519806750118732452392578125" lon="-5.62857664190232753753662109375">
        <ele>106.8000030517578125</ele>
        <time>2022-06-04T12:01:35.000Z</time>
      </trkpt>
      <trkpt lat="43.4852528013288974761962890625" lon="-5.62855468131601810455322265625">
        <ele>105.8000030517578125</ele>
        <time>2022-06-04T12:01:36.000Z</time>
      </trkpt>
      <trkpt lat="43.48530569113790988922119140625" lon="-5.62853313982486724853515625">
        <ele>104.8000030517578125</ele>
        <time>2022-06-04T12:01:37.000Z</time>
      </trkpt>
      <trkpt lat="43.48530569113790988922119140625" lon="-5.62853313982486724853515625">
        <ele>104.1999969482421875</ele>
        <time>2022-06-04T12:01:38.000Z</time>
      </trkpt>
      <trkpt lat="43.48542722873389720916748046875" lon="-5.628503970801830291748046875">
        <ele>103.40000152587890625</ele>
        <time>2022-06-04T12:01:39.000Z</time>
      </trkpt>
      <trkpt lat="43.48549160175025463104248046875" lon="-5.62851981259882450103759765625">
        <ele>102.8000030517578125</ele>
        <time>2022-06-04T12:01:40.000Z</time>
      </trkpt>
      <trkpt lat="43.4855552203953266143798828125" lon="-5.62854923307895660400390625">
        <ele>102.1999969482421875</ele>
        <time>2022-06-04T12:01:41.000Z</time>
      </trkpt>
      <trkpt lat="43.48562856204807758331298828125" lon="-5.62857580371201038360595703125">
        <ele>101.59999847412109375</ele>
        <time>2022-06-04T12:01:42.000Z</time>
      </trkpt>
      <trkpt lat="43.48570366390049457550048828125" lon="-5.62858703546226024627685546875">
        <ele>101</ele>
        <time>2022-06-04T12:01:43.000Z</time>
      </trkpt>
      <trkpt lat="43.48570366390049457550048828125" lon="-5.62858703546226024627685546875">
        <ele>100.59999847412109375</ele>
        <time>2022-06-04T12:01:44.000Z</time>
      </trkpt>
      <trkpt lat="43.48586417734622955322265625" lon="-5.62858670018613338470458984375">
        <ele>100.59999847412109375</ele>
        <time>2022-06-04T12:01:45.000Z</time>
      </trkpt>
      <trkpt lat="43.48592964000999927520751953125" lon="-5.6285832636058330535888671875">
        <ele>100.40000152587890625</ele>
        <time>2022-06-04T12:01:46.000Z</time>
      </trkpt>
      <trkpt lat="43.4860256128013134002685546875" lon="-5.62859592027962207794189453125">
        <ele>100.40000152587890625</ele>
        <time>2022-06-04T12:01:48.000Z</time>
      </trkpt>
      <trkpt lat="43.48605017177760601043701171875" lon="-5.62864000909030437469482421875">
        <ele>99.8000030517578125</ele>
        <time>2022-06-04T12:01:50.000Z</time>
      </trkpt>
      <trkpt lat="43.4860423766076564788818359375" lon="-5.62878719530999660491943359375">
        <ele>99</ele>
        <time>2022-06-04T12:01:51.000Z</time>
      </trkpt>
      <trkpt lat="43.486029468476772308349609375" lon="-5.6288655661046504974365234375">
        <ele>98</ele>
        <time>2022-06-04T12:01:52.000Z</time>
      </trkpt>
      <trkpt lat="43.48599954508244991302490234375" lon="-5.629035718739032745361328125">
        <ele>96.1999969482421875</ele>
        <time>2022-06-04T12:01:54.000Z</time>
      </trkpt>
      <trkpt lat="43.48597138188779354095458984375" lon="-5.62911995686590671539306640625">
        <ele>94.59999847412109375</ele>
        <time>2022-06-04T12:01:56.000Z</time>
      </trkpt>
      <trkpt lat="43.48593986593186855316162109375" lon="-5.6292018480598926544189453125">
        <ele>93.8000030517578125</ele>
        <time>2022-06-04T12:01:57.000Z</time>
      </trkpt>
      <trkpt lat="43.48586845211684703826904296875" lon="-5.62934719026088714599609375">
        <ele>93.1999969482421875</ele>
        <time>2022-06-04T12:01:58.000Z</time>
      </trkpt>
      <trkpt lat="43.4857879020273685455322265625" lon="-5.62950300984084606170654296875">
        <ele>92</ele>
        <time>2022-06-04T12:02:00.000Z</time>
      </trkpt>
      <trkpt lat="43.4857879020273685455322265625" lon="-5.62950300984084606170654296875">
        <ele>91</ele>
        <time>2022-06-04T12:02:01.000Z</time>
      </trkpt>
      <trkpt lat="43.4857526980340480804443359375" lon="-5.62958565540611743927001953125">
        <ele>89.8000030517578125</ele>
        <time>2022-06-04T12:02:02.000Z</time>
      </trkpt>
      <trkpt lat="43.485719002783298492431640625" lon="-5.62966729514300823211669921875">
        <ele>88.59999847412109375</ele>
        <time>2022-06-04T12:02:03.000Z</time>
      </trkpt>
      <trkpt lat="43.4856625087559223175048828125" lon="-5.62981188297271728515625">
        <ele>87.59999847412109375</ele>
        <time>2022-06-04T12:02:04.000Z</time>
      </trkpt>
      <trkpt lat="43.48564021289348602294921875" lon="-5.62987298704683780670166015625">
        <ele>86.59999847412109375</ele>
        <time>2022-06-04T12:02:05.000Z</time>
      </trkpt>
      <trkpt lat="43.48561649210751056671142578125" lon="-5.629927553236484527587890625">
        <ele>85.1999969482421875</ele>
        <time>2022-06-04T12:02:06.000Z</time>
      </trkpt>
      <trkpt lat="43.48561649210751056671142578125" lon="-5.629927553236484527587890625">
        <ele>84.1999969482421875</ele>
        <time>2022-06-04T12:02:07.000Z</time>
      </trkpt>
      <trkpt lat="43.48558883182704448699951171875" lon="-5.62997759319841861724853515625">
        <ele>83</ele>
        <time>2022-06-04T12:02:08.000Z</time>
      </trkpt>
      <trkpt lat="43.485554717481136322021484375" lon="-5.6300246156752109527587890625">
        <ele>82</ele>
        <time>2022-06-04T12:02:09.000Z</time>
      </trkpt>
      <trkpt lat="43.48551808856427669525146484375" lon="-5.6300765834748744964599609375">
        <ele>80.59999847412109375</ele>
        <time>2022-06-04T12:02:10.000Z</time>
      </trkpt>
      <trkpt lat="43.48548908717930316925048828125" lon="-5.6301298923790454864501953125">
        <ele>78.40000152587890625</ele>
        <time>2022-06-04T12:02:11.000Z</time>
      </trkpt>
      <trkpt lat="43.48547383211553096771240234375" lon="-5.63023768365383148193359375">
        <ele>77</ele>
        <time>2022-06-04T12:02:12.000Z</time>
      </trkpt>
      <trkpt lat="43.48547383211553096771240234375" lon="-5.63023768365383148193359375">
        <ele>75.8000030517578125</ele>
        <time>2022-06-04T12:02:13.000Z</time>
      </trkpt>
      <trkpt lat="43.48549210466444492340087890625" lon="-5.63028939999639987945556640625">
        <ele>74.8000030517578125</ele>
        <time>2022-06-04T12:02:14.000Z</time>
      </trkpt>
      <trkpt lat="43.4855277277529239654541015625" lon="-5.6303347460925579071044921875">
        <ele>73.8000030517578125</ele>
        <time>2022-06-04T12:02:15.000Z</time>
      </trkpt>
      <trkpt lat="43.48562185652554035186767578125" lon="-5.6304199062287807464599609375">
        <ele>72.8000030517578125</ele>
        <time>2022-06-04T12:02:16.000Z</time>
      </trkpt>
      <trkpt lat="43.48562185652554035186767578125" lon="-5.6304199062287807464599609375">
        <ele>72</ele>
        <time>2022-06-04T12:02:17.000Z</time>
      </trkpt>
      <trkpt lat="43.48572310991585254669189453125" lon="-5.6304621510207653045654296875">
        <ele>71.1999969482421875</ele>
        <time>2022-06-04T12:02:18.000Z</time>
      </trkpt>
      <trkpt lat="43.48572310991585254669189453125" lon="-5.6304621510207653045654296875">
        <ele>70.1999969482421875</ele>
        <time>2022-06-04T12:02:19.000Z</time>
      </trkpt>
      <trkpt lat="43.4857811965048313140869140625" lon="-5.63045184127986431121826171875">
        <ele>69.40000152587890625</ele>
        <time>2022-06-04T12:02:20.000Z</time>
      </trkpt>
      <trkpt lat="43.48583710379898548126220703125" lon="-5.63042183406651020050048828125">
        <ele>68.40000152587890625</ele>
        <time>2022-06-04T12:02:21.000Z</time>
      </trkpt>
      <trkpt lat="43.48592980764806270599365234375" lon="-5.6303146295249462127685546875">
        <ele>67.59999847412109375</ele>
        <time>2022-06-04T12:02:22.000Z</time>
      </trkpt>
      <trkpt lat="43.48592980764806270599365234375" lon="-5.6303146295249462127685546875">
        <ele>66.59999847412109375</ele>
        <time>2022-06-04T12:02:23.000Z</time>
      </trkpt>
      <trkpt lat="43.48600474186241626739501953125" lon="-5.63017708249390125274658203125">
        <ele>65.1999969482421875</ele>
        <time>2022-06-04T12:02:24.000Z</time>
      </trkpt>
      <trkpt lat="43.48600474186241626739501953125" lon="-5.63017708249390125274658203125">
        <ele>64</ele>
        <time>2022-06-04T12:02:25.000Z</time>
      </trkpt>
      <trkpt lat="43.48603810183703899383544921875" lon="-5.63010114245116710662841796875">
        <ele>62.59999847412109375</ele>
        <time>2022-06-04T12:02:26.000Z</time>
      </trkpt>
      <trkpt lat="43.48610213957726955413818359375" lon="-5.62994934618473052978515625">
        <ele>61.799999237060546875</ele>
        <time>2022-06-04T12:02:27.000Z</time>
      </trkpt>
      <trkpt lat="43.486137427389621734619140625" lon="-5.62987416051328182220458984375">
        <ele>61.200000762939453125</ele>
        <time>2022-06-04T12:02:28.000Z</time>
      </trkpt>
      <trkpt lat="43.486227951943874359130859375" lon="-5.6297738291323184967041015625">
        <ele>60.200000762939453125</ele>
        <time>2022-06-04T12:02:30.000Z</time>
      </trkpt>
      <trkpt lat="43.486227951943874359130859375" lon="-5.6297738291323184967041015625">
        <ele>59.799999237060546875</ele>
        <time>2022-06-04T12:02:31.000Z</time>
      </trkpt>
      <trkpt lat="43.48627547733485698699951171875" lon="-5.6297543831169605255126953125">
        <ele>59.59999847412109375</ele>
        <time>2022-06-04T12:02:32.000Z</time>
      </trkpt>
      <trkpt lat="43.48640740849077701568603515625" lon="-5.629873238503932952880859375">
        <ele>59</ele>
        <time>2022-06-04T12:02:34.000Z</time>
      </trkpt>
      <trkpt lat="43.48641562275588512420654296875" lon="-5.629959069192409515380859375">
        <ele>58.799999237060546875</ele>
        <time>2022-06-04T12:02:35.000Z</time>
      </trkpt>
      <trkpt lat="43.48639986477792263031005859375" lon="-5.630044899880886077880859375">
        <ele>58.200000762939453125</ele>
        <time>2022-06-04T12:02:36.000Z</time>
      </trkpt>
      <trkpt lat="43.48639986477792263031005859375" lon="-5.630044899880886077880859375">
        <ele>57.799999237060546875</ele>
        <time>2022-06-04T12:02:37.000Z</time>
      </trkpt>
      <trkpt lat="43.48636667244136333465576171875" lon="-5.6301352567970752716064453125">
        <ele>57.40000152587890625</ele>
        <time>2022-06-04T12:02:38.000Z</time>
      </trkpt>
      <trkpt lat="43.48624295555055141448974609375" lon="-5.6304470635950565338134765625">
        <ele>56.40000152587890625</ele>
        <time>2022-06-04T12:02:40.000Z</time>
      </trkpt>
      <trkpt lat="43.48615662194788455963134765625" lon="-5.63067127950489521026611328125">
        <ele>55.59999847412109375</ele>
        <time>2022-06-04T12:02:42.000Z</time>
      </trkpt>
      <trkpt lat="43.486130051314830780029296875" lon="-5.63078912906348705291748046875">
        <ele>55</ele>
        <time>2022-06-04T12:02:43.000Z</time>
      </trkpt>
      <trkpt lat="43.486130051314830780029296875" lon="-5.63078912906348705291748046875">
        <ele>54.40000152587890625</ele>
        <time>2022-06-04T12:02:44.000Z</time>
      </trkpt>
      <trkpt lat="43.48612141795456409454345703125" lon="-5.631037317216396331787109375">
        <ele>53.799999237060546875</ele>
        <time>2022-06-04T12:02:45.000Z</time>
      </trkpt>
      <trkpt lat="43.486139774322509765625" lon="-5.6311615370213985443115234375">
        <ele>53.200000762939453125</ele>
        <time>2022-06-04T12:02:46.000Z</time>
      </trkpt>
      <trkpt lat="43.4861630760133266448974609375" lon="-5.631290115416049957275390625">
        <ele>52.59999847412109375</ele>
        <time>2022-06-04T12:02:47.000Z</time>
      </trkpt>
      <trkpt lat="43.486189059913158416748046875" lon="-5.63142322003841400146484375">
        <ele>51.799999237060546875</ele>
        <time>2022-06-04T12:02:48.000Z</time>
      </trkpt>
      <trkpt lat="43.486189059913158416748046875" lon="-5.63142322003841400146484375">
        <ele>51</ele>
        <time>2022-06-04T12:02:49.000Z</time>
      </trkpt>
      <trkpt lat="43.4862150438129901885986328125" lon="-5.63156001269817352294921875">
        <ele>50.59999847412109375</ele>
        <time>2022-06-04T12:02:50.000Z</time>
      </trkpt>
      <trkpt lat="43.48623163998126983642578125" lon="-5.63169789500534534454345703125">
        <ele>50</ele>
        <time>2022-06-04T12:02:51.000Z</time>
      </trkpt>
      <trkpt lat="43.48622987978160381317138671875" lon="-5.63195832073688507080078125">
        <ele>49.59999847412109375</ele>
        <time>2022-06-04T12:02:52.000Z</time>
      </trkpt>
      <trkpt lat="43.48621244542300701141357421875" lon="-5.6322116218507289886474609375">
        <ele>48.59999847412109375</ele>
        <time>2022-06-04T12:02:54.000Z</time>
      </trkpt>
      <trkpt lat="43.48620506934821605682373046875" lon="-5.63233106397092342376708984375">
        <ele>47.59999847412109375</ele>
        <time>2022-06-04T12:02:56.000Z</time>
      </trkpt>
      <trkpt lat="43.48618595860898494720458984375" lon="-5.6325676850974559783935546875">
        <ele>47.200000762939453125</ele>
        <time>2022-06-04T12:02:57.000Z</time>
      </trkpt>
      <trkpt lat="43.486176989972591400146484375" lon="-5.63267338089644908905029296875">
        <ele>46.799999237060546875</ele>
        <time>2022-06-04T12:02:58.000Z</time>
      </trkpt>
      <trkpt lat="43.486176989972591400146484375" lon="-5.63267338089644908905029296875">
        <ele>46</ele>
        <time>2022-06-04T12:02:59.000Z</time>
      </trkpt>
      <trkpt lat="43.48616030998528003692626953125" lon="-5.6328694336116313934326171875">
        <ele>45.40000152587890625</ele>
        <time>2022-06-04T12:03:00.000Z</time>
      </trkpt>
      <trkpt lat="43.486153520643711090087890625" lon="-5.6329589523375034332275390625">
        <ele>44.799999237060546875</ele>
        <time>2022-06-04T12:03:02.000Z</time>
      </trkpt>
      <trkpt lat="43.4861322306096553802490234375" lon="-5.6332090683281421661376953125">
        <ele>44.40000152587890625</ele>
        <time>2022-06-04T12:03:04.000Z</time>
      </trkpt>
      <trkpt lat="43.48611228168010711669921875" lon="-5.63335231505334377288818359375">
        <ele>44.200000762939453125</ele>
        <time>2022-06-04T12:03:06.000Z</time>
      </trkpt>
      <trkpt lat="43.48611228168010711669921875" lon="-5.63335231505334377288818359375">
        <ele>44.200000762939453125</ele>
        <time>2022-06-04T12:03:07.000Z</time>
      </trkpt>
      <trkpt lat="43.4860997088253498077392578125" lon="-5.63341367058455944061279296875">
        <ele>44.200000762939453125</ele>
        <time>2022-06-04T12:03:08.000Z</time>
      </trkpt>
      <trkpt lat="43.48605033941566944122314453125" lon="-5.6335959769785404205322265625">
        <ele>44.200000762939453125</ele>
        <time>2022-06-04T12:03:10.000Z</time>
      </trkpt>
      <trkpt lat="43.4860400296747684478759765625" lon="-5.63371810130774974822998046875">
        <ele>44.40000152587890625</ele>
        <time>2022-06-04T12:03:12.000Z</time>
      </trkpt>
      <trkpt lat="43.4860400296747684478759765625" lon="-5.63371810130774974822998046875">
        <ele>44.59999847412109375</ele>
        <time>2022-06-04T12:03:13.000Z</time>
      </trkpt>
      <trkpt lat="43.4860499203205108642578125" lon="-5.63377593643963336944580078125">
        <ele>44.799999237060546875</ele>
        <time>2022-06-04T12:03:14.000Z</time>
      </trkpt>
      <trkpt lat="43.48609761334955692291259765625" lon="-5.63387685455381870269775390625">
        <ele>45.200000762939453125</ele>
        <time>2022-06-04T12:03:16.000Z</time>
      </trkpt>
      <trkpt lat="43.48613114096224308013916015625" lon="-5.6339196860790252685546875">
        <ele>45.200000762939453125</ele>
        <time>2022-06-04T12:03:17.000Z</time>
      </trkpt>
      <trkpt lat="43.48616835661232471466064453125" lon="-5.63395346514880657196044921875">
        <ele>45.59999847412109375</ele>
        <time>2022-06-04T12:03:18.000Z</time>
      </trkpt>
      <trkpt lat="43.486207835376262664794921875" lon="-5.63397743739187717437744140625">
        <ele>45.799999237060546875</ele>
        <time>2022-06-04T12:03:19.000Z</time>
      </trkpt>
      <trkpt lat="43.48625033162534236907958984375" lon="-5.63400140963494777679443359375">
        <ele>46.200000762939453125</ele>
        <time>2022-06-04T12:03:20.000Z</time>
      </trkpt>
      <trkpt lat="43.48629559390246868133544921875" lon="-5.634028650820255279541015625">
        <ele>46.59999847412109375</ele>
        <time>2022-06-04T12:03:21.000Z</time>
      </trkpt>
      <trkpt lat="43.48633985035121440887451171875" lon="-5.63405337743461132049560546875">
        <ele>46.799999237060546875</ele>
        <time>2022-06-04T12:03:22.000Z</time>
      </trkpt>
      <trkpt lat="43.4864728711545467376708984375" lon="-5.63411808572709560394287109375">
        <ele>47.799999237060546875</ele>
        <time>2022-06-04T12:03:24.000Z</time>
      </trkpt>
      <trkpt lat="43.4864728711545467376708984375" lon="-5.63411808572709560394287109375">
        <ele>48.200000762939453125</ele>
        <time>2022-06-04T12:03:25.000Z</time>
      </trkpt>
      <trkpt lat="43.48651687614619731903076171875" lon="-5.6341431476175785064697265625">
        <ele>49</ele>
        <time>2022-06-04T12:03:26.000Z</time>
      </trkpt>
      <trkpt lat="43.48656213842332363128662109375" lon="-5.6341666169464588165283203125">
        <ele>49.40000152587890625</ele>
        <time>2022-06-04T12:03:27.000Z</time>
      </trkpt>
      <trkpt lat="43.4866512380540370941162109375" lon="-5.6342172436416149139404296875">
        <ele>49.799999237060546875</ele>
        <time>2022-06-04T12:03:28.000Z</time>
      </trkpt>
      <trkpt lat="43.4867330454289913177490234375" lon="-5.6342819519340991973876953125">
        <ele>50.200000762939453125</ele>
        <time>2022-06-04T12:03:30.000Z</time>
      </trkpt>
      <trkpt lat="43.48677185364067554473876953125" lon="-5.6343139708042144775390625">
        <ele>50.40000152587890625</ele>
        <time>2022-06-04T12:03:32.000Z</time>
      </trkpt>
      <trkpt lat="43.48681158386170864105224609375" lon="-5.63434389419853687286376953125">
        <ele>50.59999847412109375</ele>
        <time>2022-06-04T12:03:33.000Z</time>
      </trkpt>
      <trkpt lat="43.48689146339893341064453125" lon="-5.63439376652240753173828125">
        <ele>50.59999847412109375</ele>
        <time>2022-06-04T12:03:34.000Z</time>
      </trkpt>
      <trkpt lat="43.48696983419358730316162109375" lon="-5.63444615341722965240478515625">
        <ele>50.59999847412109375</ele>
        <time>2022-06-04T12:03:36.000Z</time>
      </trkpt>
      <trkpt lat="43.4870089776813983917236328125" lon="-5.63447582535445690155029296875">
        <ele>50.799999237060546875</ele>
        <time>2022-06-04T12:03:38.000Z</time>
      </trkpt>
      <trkpt lat="43.4871276654303073883056640625" lon="-5.634556710720062255859375">
        <ele>51</ele>
        <time>2022-06-04T12:03:40.000Z</time>
      </trkpt>
      <trkpt lat="43.4871276654303073883056640625" lon="-5.634556710720062255859375">
        <ele>51.59999847412109375</ele>
        <time>2022-06-04T12:03:41.000Z</time>
      </trkpt>
      <trkpt lat="43.4872114844620227813720703125" lon="-5.6346143782138824462890625">
        <ele>52</ele>
        <time>2022-06-04T12:03:42.000Z</time>
      </trkpt>
      <trkpt lat="43.48725364543497562408447265625" lon="-5.63464430160820484161376953125">
        <ele>52.40000152587890625</ele>
        <time>2022-06-04T12:03:44.000Z</time>
      </trkpt>
      <trkpt lat="43.48738691769540309906005859375" lon="-5.634734071791172027587890625">
        <ele>52.59999847412109375</ele>
        <time>2022-06-04T12:03:46.000Z</time>
      </trkpt>
      <trkpt lat="43.4874817170202732086181640625" lon="-5.6348049826920032501220703125">
        <ele>52.799999237060546875</ele>
        <time>2022-06-04T12:03:48.000Z</time>
      </trkpt>
      <trkpt lat="43.4874817170202732086181640625" lon="-5.6348049826920032501220703125">
        <ele>52.799999237060546875</ele>
        <time>2022-06-04T12:03:49.000Z</time>
      </trkpt>
      <trkpt lat="43.4875310026109218597412109375" lon="-5.6348442099988460540771484375">
        <ele>53</ele>
        <time>2022-06-04T12:03:50.000Z</time>
      </trkpt>
      <trkpt lat="43.48763443529605865478515625" lon="-5.63492241315543651580810546875">
        <ele>53</ele>
        <time>2022-06-04T12:03:52.000Z</time>
      </trkpt>
      <trkpt lat="43.48779461346566677093505859375" lon="-5.63503615558147430419921875">
        <ele>53</ele>
        <time>2022-06-04T12:03:54.000Z</time>
      </trkpt>
      <trkpt lat="43.48784926347434520721435546875" lon="-5.635072700679302215576171875">
        <ele>53</ele>
        <time>2022-06-04T12:03:56.000Z</time>
      </trkpt>
      <trkpt lat="43.48790399730205535888671875" lon="-5.635108239948749542236328125">
        <ele>53</ele>
        <time>2022-06-04T12:03:57.000Z</time>
      </trkpt>
      <trkpt lat="43.4880194999277591705322265625" lon="-5.63517588190734386444091796875">
        <ele>53</ele>
        <time>2022-06-04T12:03:58.000Z</time>
      </trkpt>
      <trkpt lat="43.48807859234511852264404296875" lon="-5.6352069787681102752685546875">
        <ele>53</ele>
        <time>2022-06-04T12:04:00.000Z</time>
      </trkpt>
      <trkpt lat="43.4881995432078838348388671875" lon="-5.63526741228997707366943359375">
        <ele>52.799999237060546875</ele>
        <time>2022-06-04T12:04:02.000Z</time>
      </trkpt>
      <trkpt lat="43.488385789096355438232421875" lon="-5.63535978086292743682861328125">
        <ele>52.59999847412109375</ele>
        <time>2022-06-04T12:04:04.000Z</time>
      </trkpt>
      <trkpt lat="43.48851151764392852783203125" lon="-5.6354252435266971588134765625">
        <ele>52.40000152587890625</ele>
        <time>2022-06-04T12:04:06.000Z</time>
      </trkpt>
      <trkpt lat="43.48857345990836620330810546875" lon="-5.63545784913003444671630859375">
        <ele>52.40000152587890625</ele>
        <time>2022-06-04T12:04:08.000Z</time>
      </trkpt>
      <trkpt lat="43.488767333328723907470703125" lon="-5.635536052286624908447265625">
        <ele>52.40000152587890625</ele>
        <time>2022-06-04T12:04:10.000Z</time>
      </trkpt>
      <trkpt lat="43.48888778127729892730712890625" lon="-5.63559807837009429931640625">
        <ele>52.200000762939453125</ele>
        <time>2022-06-04T12:04:12.000Z</time>
      </trkpt>
      <trkpt lat="43.48894595168530941009521484375" lon="-5.6356247328221797943115234375">
        <ele>52.200000762939453125</ele>
        <time>2022-06-04T12:04:14.000Z</time>
      </trkpt>
      <trkpt lat="43.48899926058948040008544921875" lon="-5.63565918244421482086181640625">
        <ele>52</ele>
        <time>2022-06-04T12:04:15.000Z</time>
      </trkpt>
      <trkpt lat="43.4890233166515827178955078125" lon="-5.6357222981750965118408203125">
        <ele>51.799999237060546875</ele>
        <time>2022-06-04T12:04:16.000Z</time>
      </trkpt>
      <trkpt lat="43.4889850951731204986572265625" lon="-5.63584643416106700897216796875">
        <ele>51.40000152587890625</ele>
        <time>2022-06-04T12:04:18.000Z</time>
      </trkpt>
      <trkpt lat="43.48889331333339214324951171875" lon="-5.6359157525002956390380859375">
        <ele>51</ele>
        <time>2022-06-04T12:04:20.000Z</time>
      </trkpt>
      <trkpt lat="43.48884503357112407684326171875" lon="-5.6359439156949520111083984375">
        <ele>50.799999237060546875</ele>
        <time>2022-06-04T12:04:21.000Z</time>
      </trkpt>
      <trkpt lat="43.4887973405420780181884765625" lon="-5.63597233034670352935791015625">
        <ele>50.799999237060546875</ele>
        <time>2022-06-04T12:04:22.000Z</time>
      </trkpt>
      <trkpt lat="43.48870773799717426300048828125" lon="-5.63601918518543243408203125">
        <ele>50.799999237060546875</ele>
        <time>2022-06-04T12:04:24.000Z</time>
      </trkpt>
      <trkpt lat="43.48866448737680912017822265625" lon="-5.6360294111073017120361328125">
        <ele>50.799999237060546875</ele>
        <time>2022-06-04T12:04:25.000Z</time>
      </trkpt>
      <trkpt lat="43.488624505698680877685546875" lon="-5.63603837974369525909423828125">
        <ele>50.799999237060546875</ele>
        <time>2022-06-04T12:04:26.000Z</time>
      </trkpt>
      <trkpt lat="43.48860279656946659088134765625" lon="-5.63606251962482929229736328125">
        <ele>50.799999237060546875</ele>
        <time>2022-06-04T12:04:27.000Z</time>
      </trkpt>
      <trkpt lat="43.48860313184559345245361328125" lon="-5.63608230091631412506103515625">
        <ele>50.799999237060546875</ele>
        <time>2022-06-04T12:04:28.000Z</time>
      </trkpt>
      <trkpt lat="43.48864621482789516448974609375" lon="-5.636053383350372314453125">
        <ele>50.799999237060546875</ele>
        <time>2022-06-04T12:04:30.000Z</time>
      </trkpt>
      <trkpt lat="43.48871670663356781005859375" lon="-5.63599110580980777740478515625">
        <ele>51</ele>
        <time>2022-06-04T12:04:32.000Z</time>
      </trkpt>
      <trkpt lat="43.4888047166168689727783203125" lon="-5.63593737781047821044921875">
        <ele>51.200000762939453125</ele>
        <time>2022-06-04T12:04:34.000Z</time>
      </trkpt>
      <trkpt lat="43.48890773020684719085693359375" lon="-5.6359581649303436279296875">
        <ele>51.200000762939453125</ele>
        <time>2022-06-04T12:04:36.000Z</time>
      </trkpt>
      <trkpt lat="43.48895349539816379547119140625" lon="-5.63600175082683563232421875">
        <ele>51.200000762939453125</ele>
        <time>2022-06-04T12:04:37.000Z</time>
      </trkpt>
      <trkpt lat="43.48899372853338718414306640625" lon="-5.6360579095780849456787109375">
        <ele>51.200000762939453125</ele>
        <time>2022-06-04T12:04:38.000Z</time>
      </trkpt>
      <trkpt lat="43.4890337102115154266357421875" lon="-5.63611834309995174407958984375">
        <ele>51.200000762939453125</ele>
        <time>2022-06-04T12:04:39.000Z</time>
      </trkpt>
      <trkpt lat="43.48911141045391559600830078125" lon="-5.63624205999076366424560546875">
        <ele>51.200000762939453125</ele>
        <time>2022-06-04T12:04:40.000Z</time>
      </trkpt>
      <trkpt lat="43.48918667994439601898193359375" lon="-5.63636762090027332305908203125">
        <ele>51.200000762939453125</ele>
        <time>2022-06-04T12:04:42.000Z</time>
      </trkpt>
      <trkpt lat="43.48918667994439601898193359375" lon="-5.63636762090027332305908203125">
        <ele>51.40000152587890625</ele>
        <time>2022-06-04T12:04:43.000Z</time>
      </trkpt>
      <trkpt lat="43.48922188393771648406982421875" lon="-5.6364314071834087371826171875">
        <ele>51.40000152587890625</ele>
        <time>2022-06-04T12:04:44.000Z</time>
      </trkpt>
      <trkpt lat="43.48932556807994842529296875" lon="-5.63661857508122920989990234375">
        <ele>51.40000152587890625</ele>
        <time>2022-06-04T12:04:46.000Z</time>
      </trkpt>
      <trkpt lat="43.48939941264688968658447265625" lon="-5.63675067387521266937255859375">
        <ele>51.59999847412109375</ele>
        <time>2022-06-04T12:04:48.000Z</time>
      </trkpt>
      <trkpt lat="43.4894363768398761749267578125" lon="-5.6368189863860607147216796875">
        <ele>51.59999847412109375</ele>
        <time>2022-06-04T12:04:50.000Z</time>
      </trkpt>
      <trkpt lat="43.4894729219377040863037109375" lon="-5.6368887238204479217529296875">
        <ele>51.59999847412109375</ele>
        <time>2022-06-04T12:04:51.000Z</time>
      </trkpt>
      <trkpt lat="43.489541821181774139404296875" lon="-5.6370375864207744598388671875">
        <ele>51.59999847412109375</ele>
        <time>2022-06-04T12:04:52.000Z</time>
      </trkpt>
      <trkpt lat="43.489610888063907623291015625" lon="-5.63718326389789581298828125">
        <ele>51.59999847412109375</ele>
        <time>2022-06-04T12:04:54.000Z</time>
      </trkpt>
      <trkpt lat="43.4896455891430377960205078125" lon="-5.637256689369678497314453125">
        <ele>51.59999847412109375</ele>
        <time>2022-06-04T12:04:56.000Z</time>
      </trkpt>
      <trkpt lat="43.4897512011229991912841796875" lon="-5.63747185282409191131591796875">
        <ele>51.59999847412109375</ele>
        <time>2022-06-04T12:04:58.000Z</time>
      </trkpt>
      <trkpt lat="43.48982521332800388336181640625" lon="-5.63760973513126373291015625">
        <ele>51.59999847412109375</ele>
        <time>2022-06-04T12:05:00.000Z</time>
      </trkpt>
      <trkpt lat="43.4898655302822589874267578125" lon="-5.6376796402037143707275390625">
        <ele>51.59999847412109375</ele>
        <time>2022-06-04T12:05:02.000Z</time>
      </trkpt>
      <trkpt lat="43.48995060659945011138916015625" lon="-5.63782724551856517791748046875">
        <ele>51.40000152587890625</ele>
        <time>2022-06-04T12:05:04.000Z</time>
      </trkpt>
      <trkpt lat="43.4900365211069583892822265625" lon="-5.63798784278333187103271484375">
        <ele>51.40000152587890625</ele>
        <time>2022-06-04T12:05:06.000Z</time>
      </trkpt>
      <trkpt lat="43.4900794364511966705322265625" lon="-5.63807132653892040252685546875">
        <ele>51.40000152587890625</ele>
        <time>2022-06-04T12:05:07.000Z</time>
      </trkpt>
      <trkpt lat="43.49012310616672039031982421875" lon="-5.6381584145128726959228515625">
        <ele>51.40000152587890625</ele>
        <time>2022-06-04T12:05:08.000Z</time>
      </trkpt>
      <trkpt lat="43.4902588091790676116943359375" lon="-5.63842453993856906890869140625">
        <ele>51</ele>
        <time>2022-06-04T12:05:10.000Z</time>
      </trkpt>
      <trkpt lat="43.49033935926854610443115234375" lon="-5.63858882524073123931884765625">
        <ele>50.59999847412109375</ele>
        <time>2022-06-04T12:05:12.000Z</time>
      </trkpt>
      <trkpt lat="43.49033935926854610443115234375" lon="-5.63858882524073123931884765625">
        <ele>50.59999847412109375</ele>
        <time>2022-06-04T12:05:13.000Z</time>
      </trkpt>
      <trkpt lat="43.49037640728056430816650390625" lon="-5.63866359181702136993408203125">
        <ele>50.59999847412109375</ele>
        <time>2022-06-04T12:05:14.000Z</time>
      </trkpt>
      <trkpt lat="43.49044178612530231475830078125" lon="-5.63881731592118740081787109375">
        <ele>50.40000152587890625</ele>
        <time>2022-06-04T12:05:16.000Z</time>
      </trkpt>
      <trkpt lat="43.490503728389739990234375" lon="-5.63906072638928890228271484375">
        <ele>50.40000152587890625</ele>
        <time>2022-06-04T12:05:18.000Z</time>
      </trkpt>
      <trkpt lat="43.490520827472209930419921875" lon="-5.63914404250681400299072265625">
        <ele>50.40000152587890625</ele>
        <time>2022-06-04T12:05:20.000Z</time>
      </trkpt>
      <trkpt lat="43.4905712865293025970458984375" lon="-5.639391727745532989501953125">
        <ele>50.40000152587890625</ele>
        <time>2022-06-04T12:05:22.000Z</time>
      </trkpt>
      <trkpt lat="43.49059014581143856048583984375" lon="-5.63955609686672687530517578125">
        <ele>50.799999237060546875</ele>
        <time>2022-06-04T12:05:24.000Z</time>
      </trkpt>
      <trkpt lat="43.49059014581143856048583984375" lon="-5.63955609686672687530517578125">
        <ele>51.200000762939453125</ele>
        <time>2022-06-04T12:05:25.000Z</time>
      </trkpt>
      <trkpt lat="43.49059752188622951507568359375" lon="-5.63963823951780796051025390625">
        <ele>51.200000762939453125</ele>
        <time>2022-06-04T12:05:26.000Z</time>
      </trkpt>
      <trkpt lat="43.4906108491122722625732421875" lon="-5.63979648984968662261962890625">
        <ele>52</ele>
        <time>2022-06-04T12:05:28.000Z</time>
      </trkpt>
      <trkpt lat="43.4906386770308017730712890625" lon="-5.64003285951912403106689453125">
        <ele>52.799999237060546875</ele>
        <time>2022-06-04T12:05:30.000Z</time>
      </trkpt>
      <trkpt lat="43.49064915440976619720458984375" lon="-5.6401150859892368316650390625">
        <ele>53</ele>
        <time>2022-06-04T12:05:32.000Z</time>
      </trkpt>
      <trkpt lat="43.49065921269357204437255859375" lon="-5.6401972286403179168701171875">
        <ele>53</ele>
        <time>2022-06-04T12:05:33.000Z</time>
      </trkpt>
      <trkpt lat="43.49068050272762775421142578125" lon="-5.64036344178020954132080078125">
        <ele>53</ele>
        <time>2022-06-04T12:05:34.000Z</time>
      </trkpt>
      <trkpt lat="43.490696847438812255859375" lon="-5.6405294872820377349853515625">
        <ele>53.200000762939453125</ele>
        <time>2022-06-04T12:05:36.000Z</time>
      </trkpt>
      <trkpt lat="43.4907087497413158416748046875" lon="-5.6406102888286113739013671875">
        <ele>53.200000762939453125</ele>
        <time>2022-06-04T12:05:38.000Z</time>
      </trkpt>
      <trkpt lat="43.49074202589690685272216796875" lon="-5.64085344783961772918701171875">
        <ele>53.200000762939453125</ele>
        <time>2022-06-04T12:05:40.000Z</time>
      </trkpt>
      <trkpt lat="43.49074454046785831451416015625" lon="-5.64101488329470157623291015625">
        <ele>53.200000762939453125</ele>
        <time>2022-06-04T12:05:42.000Z</time>
      </trkpt>
      <trkpt lat="43.490746803581714630126953125" lon="-5.64109736122190952301025390625">
        <ele>53.40000152587890625</ele>
        <time>2022-06-04T12:05:44.000Z</time>
      </trkpt>
      <trkpt lat="43.49080882966518402099609375" lon="-5.6413375027477741241455078125">
        <ele>53.40000152587890625</ele>
        <time>2022-06-04T12:05:46.000Z</time>
      </trkpt>
      <trkpt lat="43.4908730350434780120849609375" lon="-5.64150120131671428680419921875">
        <ele>53.200000762939453125</ele>
        <time>2022-06-04T12:05:48.000Z</time>
      </trkpt>
      <trkpt lat="43.4909042157232761383056640625" lon="-5.6415876187384128570556640625">
        <ele>53.200000762939453125</ele>
        <time>2022-06-04T12:05:50.000Z</time>
      </trkpt>
      <trkpt lat="43.490984179079532623291015625" lon="-5.64185458235442638397216796875">
        <ele>53.200000762939453125</ele>
        <time>2022-06-04T12:05:52.000Z</time>
      </trkpt>
      <trkpt lat="43.491050563752651214599609375" lon="-5.64201124012470245361328125">
        <ele>53.200000762939453125</ele>
        <time>2022-06-04T12:05:54.000Z</time>
      </trkpt>
      <trkpt lat="43.49109406583011150360107421875" lon="-5.64207938499748706817626953125">
        <ele>53.200000762939453125</ele>
        <time>2022-06-04T12:05:56.000Z</time>
      </trkpt>
      <trkpt lat="43.49123370833694934844970703125" lon="-5.6422950513660907745361328125">
        <ele>52.799999237060546875</ele>
        <time>2022-06-04T12:05:58.000Z</time>
      </trkpt>
      <trkpt lat="43.4912757016718387603759765625" lon="-5.6423631124198436737060546875">
        <ele>52.59999847412109375</ele>
        <time>2022-06-04T12:06:00.000Z</time>
      </trkpt>
      <trkpt lat="43.491330854594707489013671875" lon="-5.64253636635839939117431640625">
        <ele>52.40000152587890625</ele>
        <time>2022-06-04T12:06:02.000Z</time>
      </trkpt>
      <trkpt lat="43.49134200252592563629150390625" lon="-5.64263485372066497802734375">
        <ele>52.40000152587890625</ele>
        <time>2022-06-04T12:06:03.000Z</time>
      </trkpt>
      <trkpt lat="43.4913430921733379364013671875" lon="-5.64273199997842311859130859375">
        <ele>52</ele>
        <time>2022-06-04T12:06:04.000Z</time>
      </trkpt>
      <trkpt lat="43.491286933422088623046875" lon="-5.64302838407456874847412109375">
        <ele>50.200000762939453125</ele>
        <time>2022-06-04T12:06:06.000Z</time>
      </trkpt>
      <trkpt lat="43.491286933422088623046875" lon="-5.64302838407456874847412109375">
        <ele>49.200000762939453125</ele>
        <time>2022-06-04T12:06:07.000Z</time>
      </trkpt>
      <trkpt lat="43.4912534058094024658203125" lon="-5.64312972128391265869140625">
        <ele>48.200000762939453125</ele>
        <time>2022-06-04T12:06:08.000Z</time>
      </trkpt>
      <trkpt lat="43.491216190159320831298828125" lon="-5.6432271189987659454345703125">
        <ele>47.40000152587890625</ele>
        <time>2022-06-04T12:06:09.000Z</time>
      </trkpt>
      <trkpt lat="43.4911788068711757659912109375" lon="-5.64331253059208393096923828125">
        <ele>46.59999847412109375</ele>
        <time>2022-06-04T12:06:10.000Z</time>
      </trkpt>
      <trkpt lat="43.49114234559237957000732421875" lon="-5.6433800049126148223876953125">
        <ele>45.799999237060546875</ele>
        <time>2022-06-04T12:06:11.000Z</time>
      </trkpt>
      <trkpt lat="43.49110999144613742828369140625" lon="-5.64342744648456573486328125">
        <ele>45</ele>
        <time>2022-06-04T12:06:12.000Z</time>
      </trkpt>
      <trkpt lat="43.49108199588954448699951171875" lon="-5.6434618122875690460205078125">
        <ele>44</ele>
        <time>2022-06-04T12:06:13.000Z</time>
      </trkpt>
      <trkpt lat="43.49105886183679103851318359375" lon="-5.6434929929673671722412109375">
        <ele>43.40000152587890625</ele>
        <time>2022-06-04T12:06:14.000Z</time>
      </trkpt>
      <trkpt lat="43.4910376556217670440673828125" lon="-5.64352006651461124420166015625">
        <ele>42.799999237060546875</ele>
        <time>2022-06-04T12:06:15.000Z</time>
      </trkpt>
      <trkpt lat="43.49099163897335529327392578125" lon="-5.64357521943747997283935546875">
        <ele>42</ele>
        <time>2022-06-04T12:06:16.000Z</time>
      </trkpt>
      <trkpt lat="43.49099163897335529327392578125" lon="-5.64357521943747997283935546875">
        <ele>41</ele>
        <time>2022-06-04T12:06:17.000Z</time>
      </trkpt>
      <trkpt lat="43.49097252823412418365478515625" lon="-5.6436063162982463836669921875">
        <ele>38.59999847412109375</ele>
        <time>2022-06-04T12:06:18.000Z</time>
      </trkpt>
      <trkpt lat="43.49096238613128662109375" lon="-5.64363271929323673248291015625">
        <ele>37.59999847412109375</ele>
        <time>2022-06-04T12:06:19.000Z</time>
      </trkpt>
      <trkpt lat="43.4909649007022380828857421875" lon="-5.6436535902321338653564453125">
        <ele>37</ele>
        <time>2022-06-04T12:06:20.000Z</time>
      </trkpt>
      <trkpt lat="43.49096833728253841400146484375" lon="-5.6436606310307979583740234375">
        <ele>36.40000152587890625</ele>
        <time>2022-06-04T12:06:21.000Z</time>
      </trkpt>
      <trkpt lat="43.49096951074898242950439453125" lon="-5.64365484751760959625244140625">
        <ele>36.200000762939453125</ele>
        <time>2022-06-04T12:06:22.000Z</time>
      </trkpt>
      <trkpt lat="43.49099582992494106292724609375" lon="-5.64359483309090137481689453125">
        <ele>35.40000152587890625</ele>
        <time>2022-06-04T12:06:28.000Z</time>
      </trkpt>
      <trkpt lat="43.49102281965315341949462890625" lon="-5.6435245089232921600341796875">
        <ele>35.40000152587890625</ele>
        <time>2022-06-04T12:06:30.000Z</time>
      </trkpt>
      <trkpt lat="43.49103572778403759002685546875" lon="-5.64350045286118984222412109375">
        <ele>35.40000152587890625</ele>
        <time>2022-06-04T12:06:32.000Z</time>
      </trkpt>
      <trkpt lat="43.4910715185105800628662109375" lon="-5.6434520892798900604248046875">
        <ele>35.40000152587890625</ele>
        <time>2022-06-04T12:06:34.000Z</time>
      </trkpt>
      <trkpt lat="43.4911191277205944061279296875" lon="-5.6433959305286407470703125">
        <ele>35.40000152587890625</ele>
        <time>2022-06-04T12:06:36.000Z</time>
      </trkpt>
      <trkpt lat="43.4911459498107433319091796875" lon="-5.64337908290326595306396484375">
        <ele>35.40000152587890625</ele>
        <time>2022-06-04T12:06:37.000Z</time>
      </trkpt>
      <trkpt lat="43.49117704667150974273681640625" lon="-5.64337137155234813690185546875">
        <ele>35.40000152587890625</ele>
        <time>2022-06-04T12:06:38.000Z</time>
      </trkpt>
      <trkpt lat="43.49125717766582965850830078125" lon="-5.6433682702481746673583984375">
        <ele>35.59999847412109375</ele>
        <time>2022-06-04T12:06:40.000Z</time>
      </trkpt>
      <trkpt lat="43.49130176939070224761962890625" lon="-5.64338964410126209259033203125">
        <ele>35.59999847412109375</ele>
        <time>2022-06-04T12:06:41.000Z</time>
      </trkpt>
      <trkpt lat="43.49140025675296783447265625" lon="-5.64343574456870555877685546875">
        <ele>35.59999847412109375</ele>
        <time>2022-06-04T12:06:42.000Z</time>
      </trkpt>
      <trkpt lat="43.4914594329893589019775390625" lon="-5.64343138597905635833740234375">
        <ele>35.59999847412109375</ele>
        <time>2022-06-04T12:06:44.000Z</time>
      </trkpt>
      <trkpt lat="43.4916062839329242706298828125" lon="-5.6433127820491790771484375">
        <ele>35.59999847412109375</ele>
        <time>2022-06-04T12:06:46.000Z</time>
      </trkpt>
      <trkpt lat="43.4916062839329242706298828125" lon="-5.6433127820491790771484375">
        <ele>35.59999847412109375</ele>
        <time>2022-06-04T12:06:47.000Z</time>
      </trkpt>
      <trkpt lat="43.4917004965245723724365234375" lon="-5.6432054936885833740234375">
        <ele>35.200000762939453125</ele>
        <time>2022-06-04T12:06:48.000Z</time>
      </trkpt>
      <trkpt lat="43.49174735136330127716064453125" lon="-5.64314556308090686798095703125">
        <ele>35</ele>
        <time>2022-06-04T12:06:50.000Z</time>
      </trkpt>
      <trkpt lat="43.491877354681491851806640625" lon="-5.64296551980078220367431640625">
        <ele>34.799999237060546875</ele>
        <time>2022-06-04T12:06:52.000Z</time>
      </trkpt>
      <trkpt lat="43.491877354681491851806640625" lon="-5.64296551980078220367431640625">
        <ele>34.799999237060546875</ele>
        <time>2022-06-04T12:06:53.000Z</time>
      </trkpt>
      <trkpt lat="43.49192856810986995697021484375" lon="-5.6429196707904338836669921875">
        <ele>34.799999237060546875</ele>
        <time>2022-06-04T12:06:54.000Z</time>
      </trkpt>
      <trkpt lat="43.492030911147594451904296875" lon="-5.642850100994110107421875">
        <ele>34.59999847412109375</ele>
        <time>2022-06-04T12:06:56.000Z</time>
      </trkpt>
      <trkpt lat="43.4920820407569408416748046875" lon="-5.6428348459303379058837890625">
        <ele>34.59999847412109375</ele>
        <time>2022-06-04T12:06:57.000Z</time>
      </trkpt>
      <trkpt lat="43.49217667244374752044677734375" lon="-5.6428449042141437530517578125">
        <ele>34.59999847412109375</ele>
        <time>2022-06-04T12:06:58.000Z</time>
      </trkpt>
      <trkpt lat="43.49227004684507846832275390625" lon="-5.64289527945220470428466796875">
        <ele>34.200000762939453125</ele>
        <time>2022-06-04T12:07:00.000Z</time>
      </trkpt>
      <trkpt lat="43.49232318811118602752685546875" lon="-5.64292059279978275299072265625">
        <ele>34.200000762939453125</ele>
        <time>2022-06-04T12:07:02.000Z</time>
      </trkpt>
      <trkpt lat="43.4924676083028316497802734375" lon="-5.64298965968191623687744140625">
        <ele>34.200000762939453125</ele>
        <time>2022-06-04T12:07:04.000Z</time>
      </trkpt>
      <trkpt lat="43.49257414229214191436767578125" lon="-5.6430283002555370330810546875">
        <ele>34</ele>
        <time>2022-06-04T12:07:06.000Z</time>
      </trkpt>
      <trkpt lat="43.49257414229214191436767578125" lon="-5.6430283002555370330810546875">
        <ele>33.799999237060546875</ele>
        <time>2022-06-04T12:07:07.000Z</time>
      </trkpt>
      <trkpt lat="43.49263667128980159759521484375" lon="-5.643031485378742218017578125">
        <ele>33.59999847412109375</ele>
        <time>2022-06-04T12:07:08.000Z</time>
      </trkpt>
      <trkpt lat="43.49275720305740833282470703125" lon="-5.64302335493266582489013671875">
        <ele>33.40000152587890625</ele>
        <time>2022-06-04T12:07:10.000Z</time>
      </trkpt>
      <trkpt lat="43.49281101487576961517333984375" lon="-5.643010698258876800537109375">
        <ele>33.40000152587890625</ele>
        <time>2022-06-04T12:07:11.000Z</time>
      </trkpt>
      <trkpt lat="43.4928598813712596893310546875" lon="-5.64297960139811038970947265625">
        <ele>33.200000762939453125</ele>
        <time>2022-06-04T12:07:12.000Z</time>
      </trkpt>
      <trkpt lat="43.49290095269680023193359375" lon="-5.6429399549961090087890625">
        <ele>33</ele>
        <time>2022-06-04T12:07:13.000Z</time>
      </trkpt>
      <trkpt lat="43.49294847808778285980224609375" lon="-5.64289812929928302764892578125">
        <ele>33</ele>
        <time>2022-06-04T12:07:14.000Z</time>
      </trkpt>
      <trkpt lat="43.4930384159088134765625" lon="-5.6428090296685695648193359375">
        <ele>32.799999237060546875</ele>
        <time>2022-06-04T12:07:16.000Z</time>
      </trkpt>
      <trkpt lat="43.4931240789592266082763671875" lon="-5.6427030824124813079833984375">
        <ele>32.799999237060546875</ele>
        <time>2022-06-04T12:07:18.000Z</time>
      </trkpt>
      <trkpt lat="43.49315936677157878875732421875" lon="-5.64266008324921131134033203125">
        <ele>32.40000152587890625</ele>
        <time>2022-06-04T12:07:19.000Z</time>
      </trkpt>
      <trkpt lat="43.49319457076489925384521484375" lon="-5.64262152649462223052978515625">
        <ele>32.200000762939453125</ele>
        <time>2022-06-04T12:07:20.000Z</time>
      </trkpt>
      <trkpt lat="43.4932736121118068695068359375" lon="-5.64255748875439167022705078125">
        <ele>32</ele>
        <time>2022-06-04T12:07:22.000Z</time>
      </trkpt>
      <trkpt lat="43.49328727461397647857666015625" lon="-5.642512142658233642578125">
        <ele>31.799999237060546875</ele>
        <time>2022-06-04T12:07:23.000Z</time>
      </trkpt>
      <trkpt lat="43.49329230375587940216064453125" lon="-5.642447434365749359130859375">
        <ele>31.799999237060546875</ele>
        <time>2022-06-04T12:07:24.000Z</time>
      </trkpt>
      <trkpt lat="43.49327503703534603118896484375" lon="-5.6423185206949710845947265625">
        <ele>31.6000003814697265625</ele>
        <time>2022-06-04T12:07:26.000Z</time>
      </trkpt>
      <trkpt lat="43.4933443553745746612548828125" lon="-5.64210109412670135498046875">
        <ele>31.3999996185302734375</ele>
        <time>2022-06-04T12:07:28.000Z</time>
      </trkpt>
      <trkpt lat="43.4933443553745746612548828125" lon="-5.64210109412670135498046875">
        <ele>31.200000762939453125</ele>
        <time>2022-06-04T12:07:29.000Z</time>
      </trkpt>
      <trkpt lat="43.49343412555754184722900390625" lon="-5.6419225595891475677490234375">
        <ele>31</ele>
        <time>2022-06-04T12:07:30.000Z</time>
      </trkpt>
      <trkpt lat="43.49343412555754184722900390625" lon="-5.6419225595891475677490234375">
        <ele>31</ele>
        <time>2022-06-04T12:07:31.000Z</time>
      </trkpt>
      <trkpt lat="43.4934841655194759368896484375" lon="-5.6418327055871486663818359375">
        <ele>31</ele>
        <time>2022-06-04T12:07:32.000Z</time>
      </trkpt>
      <trkpt lat="43.493634872138500213623046875" lon="-5.641607902944087982177734375">
        <ele>30.799999237060546875</ele>
        <time>2022-06-04T12:07:34.000Z</time>
      </trkpt>
      <trkpt lat="43.49376328289508819580078125" lon="-5.64148410223424434661865234375">
        <ele>30.799999237060546875</ele>
        <time>2022-06-04T12:07:36.000Z</time>
      </trkpt>
      <trkpt lat="43.49382388405501842498779296875" lon="-5.6414330564439296722412109375">
        <ele>30.799999237060546875</ele>
        <time>2022-06-04T12:07:38.000Z</time>
      </trkpt>
      <trkpt lat="43.49388825707137584686279296875" lon="-5.641374550759792327880859375">
        <ele>30.6000003814697265625</ele>
        <time>2022-06-04T12:07:39.000Z</time>
      </trkpt>
      <trkpt lat="43.4939394704997539520263671875" lon="-5.64130741171538829803466796875">
        <ele>30.6000003814697265625</ele>
        <time>2022-06-04T12:07:40.000Z</time>
      </trkpt>
      <trkpt lat="43.494055308401584625244140625" lon="-5.641205571591854095458984375">
        <ele>30.6000003814697265625</ele>
        <time>2022-06-04T12:07:42.000Z</time>
      </trkpt>
      <trkpt lat="43.49411658011376857757568359375" lon="-5.6411815993487834930419921875">
        <ele>30.3999996185302734375</ele>
        <time>2022-06-04T12:07:43.000Z</time>
      </trkpt>
      <trkpt lat="43.49418036639690399169921875" lon="-5.6411584652960300445556640625">
        <ele>30.3999996185302734375</ele>
        <time>2022-06-04T12:07:44.000Z</time>
      </trkpt>
      <trkpt lat="43.49431313574314117431640625" lon="-5.64113222993910312652587890625">
        <ele>30</ele>
        <time>2022-06-04T12:07:46.000Z</time>
      </trkpt>
      <trkpt lat="43.49437105469405651092529296875" lon="-5.641149580478668212890625">
        <ele>29.6000003814697265625</ele>
        <time>2022-06-04T12:07:47.000Z</time>
      </trkpt>
      <trkpt lat="43.49442620761692523956298828125" lon="-5.64117707312107086181640625">
        <ele>29.6000003814697265625</ele>
        <time>2022-06-04T12:07:48.000Z</time>
      </trkpt>
      <trkpt lat="43.49448253400623798370361328125" lon="-5.64119987189769744873046875">
        <ele>29.3999996185302734375</ele>
        <time>2022-06-04T12:07:49.000Z</time>
      </trkpt>
      <trkpt lat="43.49454171024262905120849609375" lon="-5.6412057392299175262451171875">
        <ele>29.3999996185302734375</ele>
        <time>2022-06-04T12:07:50.000Z</time>
      </trkpt>
      <trkpt lat="43.49459946155548095703125" lon="-5.641190819442272186279296875">
        <ele>29.200000762939453125</ele>
        <time>2022-06-04T12:07:51.000Z</time>
      </trkpt>
      <trkpt lat="43.49465779960155487060546875" lon="-5.6411631591618061065673828125">
        <ele>29.200000762939453125</ele>
        <time>2022-06-04T12:07:52.000Z</time>
      </trkpt>
      <trkpt lat="43.4947645850479602813720703125" lon="-5.64108495600521564483642578125">
        <ele>29</ele>
        <time>2022-06-04T12:07:54.000Z</time>
      </trkpt>
      <trkpt lat="43.494807668030261993408203125" lon="-5.641033239662647247314453125">
        <ele>29</ele>
        <time>2022-06-04T12:07:55.000Z</time>
      </trkpt>
      <trkpt lat="43.49485091865062713623046875" lon="-5.640993006527423858642578125">
        <ele>28.799999237060546875</ele>
        <time>2022-06-04T12:07:56.000Z</time>
      </trkpt>
      <trkpt lat="43.4949369169771671295166015625" lon="-5.6409743987023830413818359375">
        <ele>28.6000003814697265625</ele>
        <time>2022-06-04T12:07:58.000Z</time>
      </trkpt>
      <trkpt lat="43.495052419602870941162109375" lon="-5.6409819424152374267578125">
        <ele>28.6000003814697265625</ele>
        <time>2022-06-04T12:08:00.000Z</time>
      </trkpt>
      <trkpt lat="43.4950847737491130828857421875" lon="-5.64097858965396881103515625">
        <ele>28.6000003814697265625</ele>
        <time>2022-06-04T12:08:02.000Z</time>
      </trkpt>
      <trkpt lat="43.4951142780482769012451171875" lon="-5.64097967930138111114501953125">
        <ele>28.6000003814697265625</ele>
        <time>2022-06-04T12:08:03.000Z</time>
      </trkpt>
      <trkpt lat="43.4951840154826641082763671875" lon="-5.64098604954779148101806640625">
        <ele>28.6000003814697265625</ele>
        <time>2022-06-04T12:08:04.000Z</time>
      </trkpt>
      <trkpt lat="43.4952611289918422698974609375" lon="-5.64099577255547046661376953125">
        <ele>28.799999237060546875</ele>
        <time>2022-06-04T12:08:06.000Z</time>
      </trkpt>
      <trkpt lat="43.4952611289918422698974609375" lon="-5.64099577255547046661376953125">
        <ele>29</ele>
        <time>2022-06-04T12:08:07.000Z</time>
      </trkpt>
      <trkpt lat="43.49529675208032131195068359375" lon="-5.6409971974790096282958984375">
        <ele>29.6000003814697265625</ele>
        <time>2022-06-04T12:08:08.000Z</time>
      </trkpt>
      <trkpt lat="43.49533178843557834625244140625" lon="-5.6409988738596439361572265625">
        <ele>30.200000762939453125</ele>
        <time>2022-06-04T12:08:09.000Z</time>
      </trkpt>
      <trkpt lat="43.49539834074676036834716796875" lon="-5.64100138843059539794921875">
        <ele>30.3999996185302734375</ele>
        <time>2022-06-04T12:08:10.000Z</time>
      </trkpt>
      <trkpt lat="43.49546036683022975921630859375" lon="-5.64101136289536952972412109375">
        <ele>30.799999237060546875</ele>
        <time>2022-06-04T12:08:12.000Z</time>
      </trkpt>
      <trkpt lat="43.49549464881420135498046875" lon="-5.64101521857082843780517578125">
        <ele>31.200000762939453125</ele>
        <time>2022-06-04T12:08:14.000Z</time>
      </trkpt>
      <trkpt lat="43.49560000933706760406494140625" lon="-5.6410236842930316925048828125">
        <ele>32</ele>
        <time>2022-06-04T12:08:16.000Z</time>
      </trkpt>
      <trkpt lat="43.49560000933706760406494140625" lon="-5.6410236842930316925048828125">
        <ele>32.40000152587890625</ele>
        <time>2022-06-04T12:08:17.000Z</time>
      </trkpt>
      <trkpt lat="43.4956819005310535430908203125" lon="-5.6410270370543003082275390625">
        <ele>32.799999237060546875</ele>
        <time>2022-06-04T12:08:18.000Z</time>
      </trkpt>
      <trkpt lat="43.495729677379131317138671875" lon="-5.64102510921657085418701171875">
        <ele>33</ele>
        <time>2022-06-04T12:08:20.000Z</time>
      </trkpt>
      <trkpt lat="43.4959043562412261962890625" lon="-5.6410199962556362152099609375">
        <ele>33</ele>
        <time>2022-06-04T12:08:22.000Z</time>
      </trkpt>
      <trkpt lat="43.4960225410759449005126953125" lon="-5.64102443866431713104248046875">
        <ele>33</ele>
        <time>2022-06-04T12:08:24.000Z</time>
      </trkpt>
      <trkpt lat="43.49608364515006542205810546875" lon="-5.64103030599653720855712890625">
        <ele>33</ele>
        <time>2022-06-04T12:08:26.000Z</time>
      </trkpt>
      <trkpt lat="43.49626469425857067108154296875" lon="-5.64108629710972309112548828125">
        <ele>32.799999237060546875</ele>
        <time>2022-06-04T12:08:28.000Z</time>
      </trkpt>
      <trkpt lat="43.49626469425857067108154296875" lon="-5.64108629710972309112548828125">
        <ele>32.59999847412109375</ele>
        <time>2022-06-04T12:08:29.000Z</time>
      </trkpt>
      <trkpt lat="43.49639327265322208404541015625" lon="-5.641186125576496124267578125">
        <ele>32.200000762939453125</ele>
        <time>2022-06-04T12:08:30.000Z</time>
      </trkpt>
      <trkpt lat="43.49645496346056461334228515625" lon="-5.64123935066163539886474609375">
        <ele>31.3999996185302734375</ele>
        <time>2022-06-04T12:08:32.000Z</time>
      </trkpt>
      <trkpt lat="43.49651598371565341949462890625" lon="-5.6412882171571254730224609375">
        <ele>30.799999237060546875</ele>
        <time>2022-06-04T12:08:33.000Z</time>
      </trkpt>
      <trkpt lat="43.4966397844254970550537109375" lon="-5.641360469162464141845703125">
        <ele>30.3999996185302734375</ele>
        <time>2022-06-04T12:08:34.000Z</time>
      </trkpt>
      <trkpt lat="43.49675687961280345916748046875" lon="-5.64137597568333148956298828125">
        <ele>28.3999996185302734375</ele>
        <time>2022-06-04T12:08:36.000Z</time>
      </trkpt>
      <trkpt lat="43.49681027233600616455078125" lon="-5.6413730420172214508056640625">
        <ele>27.799999237060546875</ele>
        <time>2022-06-04T12:08:38.000Z</time>
      </trkpt>
      <trkpt lat="43.496957458555698394775390625" lon="-5.64141386188566684722900390625">
        <ele>27.200000762939453125</ele>
        <time>2022-06-04T12:08:40.000Z</time>
      </trkpt>
      <trkpt lat="43.4970454685389995574951171875" lon="-5.64146272838115692138671875">
        <ele>27</ele>
        <time>2022-06-04T12:08:42.000Z</time>
      </trkpt>
      <trkpt lat="43.4970917366445064544677734375" lon="-5.641483180224895477294921875">
        <ele>26.799999237060546875</ele>
        <time>2022-06-04T12:08:44.000Z</time>
      </trkpt>
      <trkpt lat="43.49719005636870861053466796875" lon="-5.641524754464626312255859375">
        <ele>26.799999237060546875</ele>
        <time>2022-06-04T12:08:46.000Z</time>
      </trkpt>
      <trkpt lat="43.4973401762545108795166015625" lon="-5.64167319796979427337646484375">
        <ele>26.6000003814697265625</ele>
        <time>2022-06-04T12:08:48.000Z</time>
      </trkpt>
      <trkpt lat="43.49739608354866504669189453125" lon="-5.64173421822488307952880859375">
        <ele>26.6000003814697265625</ele>
        <time>2022-06-04T12:08:50.000Z</time>
      </trkpt>
      <trkpt lat="43.49750052206218242645263671875" lon="-5.64184184186160564422607421875">
        <ele>26.6000003814697265625</ele>
        <time>2022-06-04T12:08:52.000Z</time>
      </trkpt>
      <trkpt lat="43.49768064916133880615234375" lon="-5.64193605445325374603271484375">
        <ele>26.3999996185302734375</ele>
        <time>2022-06-04T12:08:54.000Z</time>
      </trkpt>
      <trkpt lat="43.49774695001542568206787109375" lon="-5.641961954534053802490234375">
        <ele>26.3999996185302734375</ele>
        <time>2022-06-04T12:08:56.000Z</time>
      </trkpt>
      <trkpt lat="43.49793503992259502410888671875" lon="-5.6420734338462352752685546875">
        <ele>26.3999996185302734375</ele>
        <time>2022-06-04T12:08:58.000Z</time>
      </trkpt>
      <trkpt lat="43.49793503992259502410888671875" lon="-5.6420734338462352752685546875">
        <ele>26.200000762939453125</ele>
        <time>2022-06-04T12:08:59.000Z</time>
      </trkpt>
      <trkpt lat="43.498046100139617919921875" lon="-5.64216018654406070709228515625">
        <ele>26.200000762939453125</ele>
        <time>2022-06-04T12:09:00.000Z</time>
      </trkpt>
      <trkpt lat="43.49810083396732807159423828125" lon="-5.64220963977277278900146484375">
        <ele>26</ele>
        <time>2022-06-04T12:09:02.000Z</time>
      </trkpt>
      <trkpt lat="43.49819806404411792755126953125" lon="-5.64232480712234973907470703125">
        <ele>26</ele>
        <time>2022-06-04T12:09:03.000Z</time>
      </trkpt>
      <trkpt lat="43.49823880009353160858154296875" lon="-5.64238666556775569915771484375">
        <ele>26</ele>
        <time>2022-06-04T12:09:04.000Z</time>
      </trkpt>
      <trkpt lat="43.49823880009353160858154296875" lon="-5.64238666556775569915771484375">
        <ele>26</ele>
        <time>2022-06-04T12:09:05.000Z</time>
      </trkpt>
      <trkpt lat="43.4983359463512897491455078125" lon="-5.64251272939145565032958984375">
        <ele>26</ele>
        <time>2022-06-04T12:09:06.000Z</time>
      </trkpt>
      <trkpt lat="43.49838674068450927734375" lon="-5.64256804995238780975341796875">
        <ele>25.799999237060546875</ele>
        <time>2022-06-04T12:09:08.000Z</time>
      </trkpt>
      <trkpt lat="43.4984754212200641632080078125" lon="-5.64269595779478549957275390625">
        <ele>25.799999237060546875</ele>
        <time>2022-06-04T12:09:09.000Z</time>
      </trkpt>
      <trkpt lat="43.49850920028984546661376953125" lon="-5.64277072437107563018798828125">
        <ele>25.799999237060546875</ele>
        <time>2022-06-04T12:09:10.000Z</time>
      </trkpt>
      <trkpt lat="43.49857139401137828826904296875" lon="-5.6429112888872623443603515625">
        <ele>25.6000003814697265625</ele>
        <time>2022-06-04T12:09:12.000Z</time>
      </trkpt>
      <trkpt lat="43.49861598573625087738037109375" lon="-5.64296719618141651153564453125">
        <ele>25.3999996185302734375</ele>
        <time>2022-06-04T12:09:13.000Z</time>
      </trkpt>
      <trkpt lat="43.49861598573625087738037109375" lon="-5.64296719618141651153564453125">
        <ele>25.3999996185302734375</ele>
        <time>2022-06-04T12:09:14.000Z</time>
      </trkpt>
      <trkpt lat="43.49872126244008541107177734375" lon="-5.6430303119122982025146484375">
        <ele>25.3999996185302734375</ele>
        <time>2022-06-04T12:09:15.000Z</time>
      </trkpt>
      <trkpt lat="43.49877675063908100128173828125" lon="-5.64304213039577007293701171875">
        <ele>25.3999996185302734375</ele>
        <time>2022-06-04T12:09:16.000Z</time>
      </trkpt>
      <trkpt lat="43.49877675063908100128173828125" lon="-5.64304213039577007293701171875">
        <ele>25.200000762939453125</ele>
        <time>2022-06-04T12:09:17.000Z</time>
      </trkpt>
      <trkpt lat="43.4988884814083576202392578125" lon="-5.6430226005613803863525390625">
        <ele>25.200000762939453125</ele>
        <time>2022-06-04T12:09:18.000Z</time>
      </trkpt>
      <trkpt lat="43.49893567152321338653564453125" lon="-5.64298479817807674407958984375">
        <ele>25.200000762939453125</ele>
        <time>2022-06-04T12:09:19.000Z</time>
      </trkpt>
      <trkpt lat="43.49893567152321338653564453125" lon="-5.64298479817807674407958984375">
        <ele>25.200000762939453125</ele>
        <time>2022-06-04T12:09:20.000Z</time>
      </trkpt>
      <trkpt lat="43.49908612668514251708984375" lon="-5.64283174462616443634033203125">
        <ele>25</ele>
        <time>2022-06-04T12:09:22.000Z</time>
      </trkpt>
      <trkpt lat="43.49914186634123325347900390625" lon="-5.6427966244518756866455078125">
        <ele>25</ele>
        <time>2022-06-04T12:09:23.000Z</time>
      </trkpt>
      <trkpt lat="43.49919903092086315155029296875" lon="-5.642767958343029022216796875">
        <ele>25</ele>
        <time>2022-06-04T12:09:24.000Z</time>
      </trkpt>
      <trkpt lat="43.4992596320807933807373046875" lon="-5.6427468359470367431640625">
        <ele>25</ele>
        <time>2022-06-04T12:09:25.000Z</time>
      </trkpt>
      <trkpt lat="43.4992596320807933807373046875" lon="-5.6427468359470367431640625">
        <ele>25</ele>
        <time>2022-06-04T12:09:26.000Z</time>
      </trkpt>
      <trkpt lat="43.49937823601067066192626953125" lon="-5.64272764138877391815185546875">
        <ele>25</ele>
        <time>2022-06-04T12:09:27.000Z</time>
      </trkpt>
      <trkpt lat="43.4994379989802837371826171875" lon="-5.64273099415004253387451171875">
        <ele>25</ele>
        <time>2022-06-04T12:09:28.000Z</time>
      </trkpt>
      <trkpt lat="43.4995523281395435333251953125" lon="-5.64275630749762058258056640625">
        <ele>24.799999237060546875</ele>
        <time>2022-06-04T12:09:30.000Z</time>
      </trkpt>
      <trkpt lat="43.49960823543369770050048828125" lon="-5.6427812017500400543212890625">
        <ele>25</ele>
        <time>2022-06-04T12:09:32.000Z</time>
      </trkpt>
      <trkpt lat="43.4997032023966312408447265625" lon="-5.642851106822490692138671875">
        <ele>25</ele>
        <time>2022-06-04T12:09:33.000Z</time>
      </trkpt>
      <trkpt lat="43.49974569864571094512939453125" lon="-5.64289041794836521148681640625">
        <ele>25</ele>
        <time>2022-06-04T12:09:34.000Z</time>
      </trkpt>
      <trkpt lat="43.49983354099094867706298828125" lon="-5.64297943376004695892333984375">
        <ele>25</ele>
        <time>2022-06-04T12:09:36.000Z</time>
      </trkpt>
      <trkpt lat="43.49987779743969440460205078125" lon="-5.6430311501026153564453125">
        <ele>25</ele>
        <time>2022-06-04T12:09:37.000Z</time>
      </trkpt>
      <trkpt lat="43.49987779743969440460205078125" lon="-5.6430311501026153564453125">
        <ele>25</ele>
        <time>2022-06-04T12:09:38.000Z</time>
      </trkpt>
      <trkpt lat="43.49991492927074432373046875" lon="-5.64317741431295871734619140625">
        <ele>25</ele>
        <time>2022-06-04T12:09:39.000Z</time>
      </trkpt>
      <trkpt lat="43.4999097324907779693603515625" lon="-5.64326919615268707275390625">
        <ele>25</ele>
        <time>2022-06-04T12:09:40.000Z</time>
      </trkpt>
      <trkpt lat="43.499899841845035552978515625" lon="-5.6434738822281360626220703125">
        <ele>25</ele>
        <time>2022-06-04T12:09:42.000Z</time>
      </trkpt>
      <trkpt lat="43.49991249851882457733154296875" lon="-5.64357102848589420318603515625">
        <ele>25</ele>
        <time>2022-06-04T12:09:44.000Z</time>
      </trkpt>
      <trkpt lat="43.4999437630176544189453125" lon="-5.6437575258314609527587890625">
        <ele>25</ele>
        <time>2022-06-04T12:09:45.000Z</time>
      </trkpt>
      <trkpt lat="43.49996010772883892059326171875" lon="-5.64385525882244110107421875">
        <ele>25</ele>
        <time>2022-06-04T12:09:46.000Z</time>
      </trkpt>
      <trkpt lat="43.499996401369571685791015625" lon="-5.6440316140651702880859375">
        <ele>24.3999996185302734375</ele>
        <time>2022-06-04T12:09:48.000Z</time>
      </trkpt>
      <trkpt lat="43.50001978687942028045654296875" lon="-5.6441139243543148040771484375">
        <ele>23.799999237060546875</ele>
        <time>2022-06-04T12:09:49.000Z</time>
      </trkpt>
      <trkpt lat="43.50001978687942028045654296875" lon="-5.6441139243543148040771484375">
        <ele>23.3999996185302734375</ele>
        <time>2022-06-04T12:09:50.000Z</time>
      </trkpt>
      <trkpt lat="43.5000750236213207244873046875" lon="-5.644269324839115142822265625">
        <ele>23.200000762939453125</ele>
        <time>2022-06-04T12:09:51.000Z</time>
      </trkpt>
      <trkpt lat="43.50010729394853115081787109375" lon="-5.64433671534061431884765625">
        <ele>22.799999237060546875</ele>
        <time>2022-06-04T12:09:52.000Z</time>
      </trkpt>
      <trkpt lat="43.50014819763600826263427734375" lon="-5.6443962268531322479248046875">
        <ele>22.3999996185302734375</ele>
        <time>2022-06-04T12:09:53.000Z</time>
      </trkpt>
      <trkpt lat="43.500196225941181182861328125" lon="-5.64445129595696926116943359375">
        <ele>22.200000762939453125</ele>
        <time>2022-06-04T12:09:54.000Z</time>
      </trkpt>
      <trkpt lat="43.5002510435879230499267578125" lon="-5.64449605531990528106689453125">
        <ele>21.799999237060546875</ele>
        <time>2022-06-04T12:09:56.000Z</time>
      </trkpt>
      <trkpt lat="43.50037157535552978515625" lon="-5.64456948079168796539306640625">
        <ele>21.6000003814697265625</ele>
        <time>2022-06-04T12:09:57.000Z</time>
      </trkpt>
      <trkpt lat="43.50042982958257198333740234375" lon="-5.644603259861469268798828125">
        <ele>21.6000003814697265625</ele>
        <time>2022-06-04T12:09:58.000Z</time>
      </trkpt>
      <trkpt lat="43.50048758089542388916015625" lon="-5.64464516937732696533203125">
        <ele>21.6000003814697265625</ele>
        <time>2022-06-04T12:09:59.000Z</time>
      </trkpt>
      <trkpt lat="43.50054248236119747161865234375" lon="-5.64468900673091411590576171875">
        <ele>21.3999996185302734375</ele>
        <time>2022-06-04T12:10:00.000Z</time>
      </trkpt>
      <trkpt lat="43.500595204532146453857421875" lon="-5.6447291560471057891845703125">
        <ele>21.3999996185302734375</ele>
        <time>2022-06-04T12:10:02.000Z</time>
      </trkpt>
      <trkpt lat="43.500631749629974365234375" lon="-5.64478875137865543365478515625">
        <ele>21.3999996185302734375</ele>
        <time>2022-06-04T12:10:03.000Z</time>
      </trkpt>
      <trkpt lat="43.5006885789334774017333984375" lon="-5.644947253167629241943359375">
        <ele>21.3999996185302734375</ele>
        <time>2022-06-04T12:10:04.000Z</time>
      </trkpt>
      <trkpt lat="43.5006885789334774017333984375" lon="-5.644947253167629241943359375">
        <ele>21.3999996185302734375</ele>
        <time>2022-06-04T12:10:05.000Z</time>
      </trkpt>
      <trkpt lat="43.50076192058622837066650390625" lon="-5.645105838775634765625">
        <ele>21.200000762939453125</ele>
        <time>2022-06-04T12:10:06.000Z</time>
      </trkpt>
      <trkpt lat="43.50079947151243686676025390625" lon="-5.6451824493706226348876953125">
        <ele>21.200000762939453125</ele>
        <time>2022-06-04T12:10:08.000Z</time>
      </trkpt>
      <trkpt lat="43.50089536048471927642822265625" lon="-5.645409263670444488525390625">
        <ele>21.200000762939453125</ele>
        <time>2022-06-04T12:10:10.000Z</time>
      </trkpt>
      <trkpt lat="43.50089536048471927642822265625" lon="-5.645409263670444488525390625">
        <ele>21.200000762939453125</ele>
        <time>2022-06-04T12:10:11.000Z</time>
      </trkpt>
      <trkpt lat="43.5009601525962352752685546875" lon="-5.64555334858596324920654296875">
        <ele>21.200000762939453125</ele>
        <time>2022-06-04T12:10:12.000Z</time>
      </trkpt>
      <trkpt lat="43.50099309347569942474365234375" lon="-5.64562208019196987152099609375">
        <ele>21</ele>
        <time>2022-06-04T12:10:14.000Z</time>
      </trkpt>
      <trkpt lat="43.50108378566801548004150390625" lon="-5.64582224003970623016357421875">
        <ele>21</ele>
        <time>2022-06-04T12:10:16.000Z</time>
      </trkpt>
      <trkpt lat="43.50114329718053340911865234375" lon="-5.64595165662467479705810546875">
        <ele>21</ele>
        <time>2022-06-04T12:10:18.000Z</time>
      </trkpt>
      <trkpt lat="43.501173891127109527587890625" lon="-5.64601787365972995758056640625">
        <ele>20.799999237060546875</ele>
        <time>2022-06-04T12:10:20.000Z</time>
      </trkpt>
      <trkpt lat="43.50127807818353176116943359375" lon="-5.64621585421264171600341796875">
        <ele>20.6000003814697265625</ele>
        <time>2022-06-04T12:10:22.000Z</time>
      </trkpt>
      <trkpt lat="43.501310683786869049072265625" lon="-5.6462752819061279296875">
        <ele>20.6000003814697265625</ele>
        <time>2022-06-04T12:10:24.000Z</time>
      </trkpt>
      <trkpt lat="43.5013983584940433502197265625" lon="-5.64635281451046466827392578125">
        <ele>20.3999996185302734375</ele>
        <time>2022-06-04T12:10:26.000Z</time>
      </trkpt>
      <trkpt lat="43.50144781172275543212890625" lon="-5.6463803909718990325927734375">
        <ele>20.3999996185302734375</ele>
        <time>2022-06-04T12:10:27.000Z</time>
      </trkpt>
      <trkpt lat="43.5015341453254222869873046875" lon="-5.64646714366972446441650390625">
        <ele>20.3999996185302734375</ele>
        <time>2022-06-04T12:10:28.000Z</time>
      </trkpt>
      <trkpt lat="43.50156775675714015960693359375" lon="-5.646594464778900146484375">
        <ele>20.200000762939453125</ele>
        <time>2022-06-04T12:10:30.000Z</time>
      </trkpt>
      <trkpt lat="43.5015572793781757354736328125" lon="-5.6466613523662090301513671875">
        <ele>20.200000762939453125</ele>
        <time>2022-06-04T12:10:32.000Z</time>
      </trkpt>
      <trkpt lat="43.50148946978151798248291015625" lon="-5.64685170538723468780517578125">
        <ele>20</ele>
        <time>2022-06-04T12:10:34.000Z</time>
      </trkpt>
      <trkpt lat="43.50143062882125377655029296875" lon="-5.6469587422907352447509765625">
        <ele>20</ele>
        <time>2022-06-04T12:10:36.000Z</time>
      </trkpt>
      <trkpt lat="43.501398526132106781005859375" lon="-5.6470154039561748504638671875">
        <ele>19.799999237060546875</ele>
        <time>2022-06-04T12:10:38.000Z</time>
      </trkpt>
      <trkpt lat="43.501288890838623046875" lon="-5.6471773423254489898681640625">
        <ele>19.799999237060546875</ele>
        <time>2022-06-04T12:10:40.000Z</time>
      </trkpt>
      <trkpt lat="43.5012488253414630889892578125" lon="-5.64723241142928600311279296875">
        <ele>19.799999237060546875</ele>
        <time>2022-06-04T12:10:41.000Z</time>
      </trkpt>
      <trkpt lat="43.501208089292049407958984375" lon="-5.6472889892756938934326171875">
        <ele>19.799999237060546875</ele>
        <time>2022-06-04T12:10:42.000Z</time>
      </trkpt>
      <trkpt lat="43.5011668503284454345703125" lon="-5.64734707586467266082763671875">
        <ele>19.6000003814697265625</ele>
        <time>2022-06-04T12:10:44.000Z</time>
      </trkpt>
      <trkpt lat="43.501053862273693084716796875" lon="-5.64750348217785358428955078125">
        <ele>19.6000003814697265625</ele>
        <time>2022-06-04T12:10:46.000Z</time>
      </trkpt>
      <trkpt lat="43.501053862273693084716796875" lon="-5.64750348217785358428955078125">
        <ele>19.6000003814697265625</ele>
        <time>2022-06-04T12:10:47.000Z</time>
      </trkpt>
      <trkpt lat="43.5010426305234432220458984375" lon="-5.6475850380957126617431640625">
        <ele>19.3999996185302734375</ele>
        <time>2022-06-04T12:10:48.000Z</time>
      </trkpt>
      <trkpt lat="43.5010426305234432220458984375" lon="-5.6475850380957126617431640625">
        <ele>19.3999996185302734375</ele>
        <time>2022-06-04T12:10:49.000Z</time>
      </trkpt>
      <trkpt lat="43.50106618367135524749755859375" lon="-5.64760624431073665618896484375">
        <ele>19.3999996185302734375</ele>
        <time>2022-06-04T12:10:50.000Z</time>
      </trkpt>
      <trkpt lat="43.50109166465699672698974609375" lon="-5.64761839807033538818359375">
        <ele>19.200000762939453125</ele>
        <time>2022-06-04T12:10:51.000Z</time>
      </trkpt>
      <trkpt lat="43.50113374181091785430908203125" lon="-5.64764144830405712127685546875">
        <ele>19.200000762939453125</ele>
        <time>2022-06-04T12:10:52.000Z</time>
      </trkpt>
      <trkpt lat="43.50114413537085056304931640625" lon="-5.64770825207233428955078125">
        <ele>19.200000762939453125</ele>
        <time>2022-06-04T12:10:54.000Z</time>
      </trkpt>
      <trkpt lat="43.50114027969539165496826171875" lon="-5.64774387516081333160400390625">
        <ele>19</ele>
        <time>2022-06-04T12:10:56.000Z</time>
      </trkpt>
      <trkpt lat="43.5011334903538227081298828125" lon="-5.64780020155012607574462890625">
        <ele>19</ele>
        <time>2022-06-04T12:10:58.000Z</time>
      </trkpt>
      <trkpt lat="43.50113072432577610015869140625" lon="-5.64781947992742061614990234375">
        <ele>19</ele>
        <time>2022-06-04T12:11:00.000Z</time>
      </trkpt>
      <trkpt lat="43.50113072432577610015869140625" lon="-5.64781947992742061614990234375">
        <ele>19.200000762939453125</ele>
        <time>2022-06-04T12:11:01.000Z</time>
      </trkpt>
      <trkpt lat="43.5010971128940582275390625" lon="-5.64795962534844875335693359375">
        <ele>20</ele>
        <time>2022-06-04T12:11:23.000Z</time>
      </trkpt>
      <trkpt lat="43.50107339210808277130126953125" lon="-5.6480537541210651397705078125">
        <ele>20</ele>
        <time>2022-06-04T12:11:24.000Z</time>
      </trkpt>
      <trkpt lat="43.5010536946356296539306640625" lon="-5.64809323288500308990478515625">
        <ele>20</ele>
        <time>2022-06-04T12:11:26.000Z</time>
      </trkpt>
      <trkpt lat="43.50099041126668453216552734375" lon="-5.64820420928299427032470703125">
        <ele>20.200000762939453125</ele>
        <time>2022-06-04T12:11:28.000Z</time>
      </trkpt>
      <trkpt lat="43.50095135159790515899658203125" lon="-5.64828719012439250946044921875">
        <ele>20.200000762939453125</ele>
        <time>2022-06-04T12:11:30.000Z</time>
      </trkpt>
      <trkpt lat="43.50095135159790515899658203125" lon="-5.64828719012439250946044921875">
        <ele>20.3999996185302734375</ele>
        <time>2022-06-04T12:11:31.000Z</time>
      </trkpt>
      <trkpt lat="43.50094548426568508148193359375" lon="-5.64832909964025020599365234375">
        <ele>20.6000003814697265625</ele>
        <time>2022-06-04T12:11:32.000Z</time>
      </trkpt>
      <trkpt lat="43.500910364091396331787109375" lon="-5.64844309352338314056396484375">
        <ele>21</ele>
        <time>2022-06-04T12:11:34.000Z</time>
      </trkpt>
      <trkpt lat="43.500910364091396331787109375" lon="-5.64844309352338314056396484375">
        <ele>21</ele>
        <time>2022-06-04T12:11:35.000Z</time>
      </trkpt>
      <trkpt lat="43.50087943486869335174560546875" lon="-5.6484637968242168426513671875">
        <ele>21.200000762939453125</ele>
        <time>2022-06-04T12:11:36.000Z</time>
      </trkpt>
      <trkpt lat="43.5008049197494983673095703125" lon="-5.648499168455600738525390625">
        <ele>21.200000762939453125</ele>
        <time>2022-06-04T12:11:38.000Z</time>
      </trkpt>
      <trkpt lat="43.50076527334749698638916015625" lon="-5.6485228054225444793701171875">
        <ele>21.200000762939453125</ele>
        <time>2022-06-04T12:11:39.000Z</time>
      </trkpt>
      <trkpt lat="43.500687070190906524658203125" lon="-5.64857519231736660003662109375">
        <ele>21.200000762939453125</ele>
        <time>2022-06-04T12:11:40.000Z</time>
      </trkpt>
      <trkpt lat="43.50064742378890514373779296875" lon="-5.6486002542078495025634765625">
        <ele>21.200000762939453125</ele>
        <time>2022-06-04T12:11:42.000Z</time>
      </trkpt>
      <trkpt lat="43.500569723546504974365234375" lon="-5.6486512161791324615478515625">
        <ele>21.3999996185302734375</ele>
        <time>2022-06-04T12:11:44.000Z</time>
      </trkpt>
      <trkpt lat="43.5005306638777256011962890625" lon="-5.6486810557544231414794921875">
        <ele>21.3999996185302734375</ele>
        <time>2022-06-04T12:11:45.000Z</time>
      </trkpt>
      <trkpt lat="43.50049369968473911285400390625" lon="-5.64871667884290218353271484375">
        <ele>21.3999996185302734375</ele>
        <time>2022-06-04T12:11:46.000Z</time>
      </trkpt>
      <trkpt lat="43.50045137107372283935546875" lon="-5.64875339157879352569580078125">
        <ele>21.3999996185302734375</ele>
        <time>2022-06-04T12:11:47.000Z</time>
      </trkpt>
      <trkpt lat="43.5004069469869136810302734375" lon="-5.64878725446760654449462890625">
        <ele>21.3999996185302734375</ele>
        <time>2022-06-04T12:11:48.000Z</time>
      </trkpt>
      <trkpt lat="43.50031097419559955596923828125" lon="-5.64883318729698657989501953125">
        <ele>21.6000003814697265625</ele>
        <time>2022-06-04T12:11:50.000Z</time>
      </trkpt>
      <trkpt lat="43.50016127340495586395263671875" lon="-5.648872666060924530029296875">
        <ele>21.799999237060546875</ele>
        <time>2022-06-04T12:11:52.000Z</time>
      </trkpt>
      <trkpt lat="43.50016127340495586395263671875" lon="-5.648872666060924530029296875">
        <ele>22</ele>
        <time>2022-06-04T12:11:53.000Z</time>
      </trkpt>
      <trkpt lat="43.5000629536807537078857421875" lon="-5.64890577457845211029052734375">
        <ele>22</ele>
        <time>2022-06-04T12:11:54.000Z</time>
      </trkpt>
      <trkpt lat="43.50001559592783451080322265625" lon="-5.64892287366092205047607421875">
        <ele>22</ele>
        <time>2022-06-04T12:11:56.000Z</time>
      </trkpt>
      <trkpt lat="43.4999207966029644012451171875" lon="-5.64895522780716419219970703125">
        <ele>22</ele>
        <time>2022-06-04T12:11:58.000Z</time>
      </trkpt>
      <trkpt lat="43.4997828304767608642578125" lon="-5.64898741431534290313720703125">
        <ele>22.200000762939453125</ele>
        <time>2022-06-04T12:12:00.000Z</time>
      </trkpt>
      <trkpt lat="43.49973798729479312896728515625" lon="-5.6489844806492328643798828125">
        <ele>22.200000762939453125</ele>
        <time>2022-06-04T12:12:02.000Z</time>
      </trkpt>
      <trkpt lat="43.49965048022568225860595703125" lon="-5.64897769130766391754150390625">
        <ele>22.200000762939453125</ele>
        <time>2022-06-04T12:12:04.000Z</time>
      </trkpt>
      <trkpt lat="43.499605469405651092529296875" lon="-5.6489824689924716949462890625">
        <ele>22.200000762939453125</ele>
        <time>2022-06-04T12:12:05.000Z</time>
      </trkpt>
      <trkpt lat="43.49956163205206394195556640625" lon="-5.64899571239948272705078125">
        <ele>22.200000762939453125</ele>
        <time>2022-06-04T12:12:06.000Z</time>
      </trkpt>
      <trkpt lat="43.4994866140186786651611328125" lon="-5.64900971017777919769287109375">
        <ele>22.200000762939453125</ele>
        <time>2022-06-04T12:12:08.000Z</time>
      </trkpt>
      <trkpt lat="43.49942299537360668182373046875" lon="-5.64899948425590991973876953125">
        <ele>22.200000762939453125</ele>
        <time>2022-06-04T12:12:10.000Z</time>
      </trkpt>
      <trkpt lat="43.49933833815157413482666015625" lon="-5.648914910852909088134765625">
        <ele>22.3999996185302734375</ele>
        <time>2022-06-04T12:12:12.000Z</time>
      </trkpt>
      <trkpt lat="43.49933833815157413482666015625" lon="-5.648914910852909088134765625">
        <ele>22.3999996185302734375</ele>
        <time>2022-06-04T12:12:13.000Z</time>
      </trkpt>
      <trkpt lat="43.499314449727535247802734375" lon="-5.64888414926826953887939453125">
        <ele>22.3999996185302734375</ele>
        <time>2022-06-04T12:12:14.000Z</time>
      </trkpt>
      <trkpt lat="43.49926910363137722015380859375" lon="-5.64884576015174388885498046875">
        <ele>22.3999996185302734375</ele>
        <time>2022-06-04T12:12:16.000Z</time>
      </trkpt>
      <trkpt lat="43.4992490708827972412109375" lon="-5.648842155933380126953125">
        <ele>22.200000762939453125</ele>
        <time>2022-06-04T12:12:17.000Z</time>
      </trkpt>
      <trkpt lat="43.49923574365675449371337890625" lon="-5.64889186061918735504150390625">
        <ele>22.200000762939453125</ele>
        <time>2022-06-04T12:12:18.000Z</time>
      </trkpt>
      <trkpt lat="43.49924596957862377166748046875" lon="-5.648927651345729827880859375">
        <ele>22.3999996185302734375</ele>
        <time>2022-06-04T12:12:20.000Z</time>
      </trkpt>
      <trkpt lat="43.49926541559398174285888671875" lon="-5.64901222474873065948486328125">
        <ele>22.6000003814697265625</ele>
        <time>2022-06-04T12:12:22.000Z</time>
      </trkpt>
      <trkpt lat="43.4992643259465694427490234375" lon="-5.6490515358746051788330078125">
        <ele>22.6000003814697265625</ele>
        <time>2022-06-04T12:12:23.000Z</time>
      </trkpt>
      <trkpt lat="43.499256111681461334228515625" lon="-5.6490894220769405364990234375">
        <ele>22.6000003814697265625</ele>
        <time>2022-06-04T12:12:24.000Z</time>
      </trkpt>
      <trkpt lat="43.49923155270516872406005859375" lon="-5.64916226081550121307373046875">
        <ele>22.799999237060546875</ele>
        <time>2022-06-04T12:12:26.000Z</time>
      </trkpt>
      <trkpt lat="43.49919349886476993560791015625" lon="-5.6492426432669162750244140625">
        <ele>22.799999237060546875</ele>
        <time>2022-06-04T12:12:28.000Z</time>
      </trkpt>
      <trkpt lat="43.4991605579853057861328125" lon="-5.6492979638278484344482421875">
        <ele>22.799999237060546875</ele>
        <time>2022-06-04T12:12:29.000Z</time>
      </trkpt>
      <trkpt lat="43.49911722354590892791748046875" lon="-5.64935638569295406341552734375">
        <ele>22.799999237060546875</ele>
        <time>2022-06-04T12:12:30.000Z</time>
      </trkpt>
      <trkpt lat="43.499033153057098388671875" lon="-5.64942444674670696258544921875">
        <ele>22.799999237060546875</ele>
        <time>2022-06-04T12:12:32.000Z</time>
      </trkpt>
      <trkpt lat="43.4989459812641143798828125" lon="-5.64945009537041187286376953125">
        <ele>23</ele>
        <time>2022-06-04T12:12:34.000Z</time>
      </trkpt>
      <trkpt lat="43.4988492541015148162841796875" lon="-5.64949351362884044647216796875">
        <ele>23</ele>
        <time>2022-06-04T12:12:36.000Z</time>
      </trkpt>
      <trkpt lat="43.49879644811153411865234375" lon="-5.64951027743518352508544921875">
        <ele>23</ele>
        <time>2022-06-04T12:12:37.000Z</time>
      </trkpt>
      <trkpt lat="43.49874439649283885955810546875" lon="-5.6495232693850994110107421875">
        <ele>23</ele>
        <time>2022-06-04T12:12:38.000Z</time>
      </trkpt>
      <trkpt lat="43.4986447356641292572021484375" lon="-5.64954984001815319061279296875">
        <ele>23.200000762939453125</ele>
        <time>2022-06-04T12:12:40.000Z</time>
      </trkpt>
      <trkpt lat="43.4985102899372577667236328125" lon="-5.64962510950863361358642578125">
        <ele>23.200000762939453125</ele>
        <time>2022-06-04T12:12:42.000Z</time>
      </trkpt>
      <trkpt lat="43.49846653640270233154296875" lon="-5.64965377561748027801513671875">
        <ele>23.3999996185302734375</ele>
        <time>2022-06-04T12:12:44.000Z</time>
      </trkpt>
      <trkpt lat="43.49833779036998748779296875" lon="-5.6497170589864253997802734375">
        <ele>23.3999996185302734375</ele>
        <time>2022-06-04T12:12:46.000Z</time>
      </trkpt>
      <trkpt lat="43.4982504509389400482177734375" lon="-5.64975821413099765777587890625">
        <ele>23.3999996185302734375</ele>
        <time>2022-06-04T12:12:48.000Z</time>
      </trkpt>
      <trkpt lat="43.4982504509389400482177734375" lon="-5.64975821413099765777587890625">
        <ele>23.6000003814697265625</ele>
        <time>2022-06-04T12:12:49.000Z</time>
      </trkpt>
      <trkpt lat="43.49819554947316646575927734375" lon="-5.649791657924652099609375">
        <ele>23.6000003814697265625</ele>
        <time>2022-06-04T12:12:50.000Z</time>
      </trkpt>
      <trkpt lat="43.4980563260614871978759765625" lon="-5.64992534928023815155029296875">
        <ele>24</ele>
        <time>2022-06-04T12:12:52.000Z</time>
      </trkpt>
      <trkpt lat="43.4980563260614871978759765625" lon="-5.64992534928023815155029296875">
        <ele>24</ele>
        <time>2022-06-04T12:12:53.000Z</time>
      </trkpt>
      <trkpt lat="43.4979830682277679443359375" lon="-5.65000548027455806732177734375">
        <ele>24</ele>
        <time>2022-06-04T12:12:54.000Z</time>
      </trkpt>
      <trkpt lat="43.4979433380067348480224609375" lon="-5.650040768086910247802734375">
        <ele>24.200000762939453125</ele>
        <time>2022-06-04T12:12:56.000Z</time>
      </trkpt>
      <trkpt lat="43.4978179447352886199951171875" lon="-5.6501612998545169830322265625">
        <ele>24.200000762939453125</ele>
        <time>2022-06-04T12:12:58.000Z</time>
      </trkpt>
      <trkpt lat="43.4978179447352886199951171875" lon="-5.6501612998545169830322265625">
        <ele>24.200000762939453125</ele>
        <time>2022-06-04T12:12:59.000Z</time>
      </trkpt>
      <trkpt lat="43.49772096611559391021728515625" lon="-5.6502266786992549896240234375">
        <ele>24.3999996185302734375</ele>
        <time>2022-06-04T12:13:00.000Z</time>
      </trkpt>
      <trkpt lat="43.49767453037202358245849609375" lon="-5.6502595357596874237060546875">
        <ele>24.3999996185302734375</ele>
        <time>2022-06-04T12:13:02.000Z</time>
      </trkpt>
      <trkpt lat="43.4975483827292919158935546875" lon="-5.65036053769290447235107421875">
        <ele>24.6000003814697265625</ele>
        <time>2022-06-04T12:13:04.000Z</time>
      </trkpt>
      <trkpt lat="43.49751326255500316619873046875" lon="-5.65040026791393756866455078125">
        <ele>24.6000003814697265625</ele>
        <time>2022-06-04T12:13:06.000Z</time>
      </trkpt>
      <trkpt lat="43.49743715487420558929443359375" lon="-5.65047788433730602264404296875">
        <ele>24.799999237060546875</ele>
        <time>2022-06-04T12:13:08.000Z</time>
      </trkpt>
      <trkpt lat="43.4973743744194507598876953125" lon="-5.650585591793060302734375">
        <ele>24.799999237060546875</ele>
        <time>2022-06-04T12:13:10.000Z</time>
      </trkpt>
      <trkpt lat="43.49735048599541187286376953125" lon="-5.65064133144915103912353515625">
        <ele>24.799999237060546875</ele>
        <time>2022-06-04T12:13:11.000Z</time>
      </trkpt>
      <trkpt lat="43.49731092341244220733642578125" lon="-5.6507627852261066436767578125">
        <ele>24.799999237060546875</ele>
        <time>2022-06-04T12:13:12.000Z</time>
      </trkpt>
      <trkpt lat="43.49728929810225963592529296875" lon="-5.65082271583378314971923828125">
        <ele>24.799999237060546875</ele>
        <time>2022-06-04T12:13:14.000Z</time>
      </trkpt>
      <trkpt lat="43.4972441196441650390625" lon="-5.65095095895230770111083984375">
        <ele>25</ele>
        <time>2022-06-04T12:13:16.000Z</time>
      </trkpt>
      <trkpt lat="43.497203551232814788818359375" lon="-5.651177354156970977783203125">
        <ele>25</ele>
        <time>2022-06-04T12:13:18.000Z</time>
      </trkpt>
      <trkpt lat="43.497203551232814788818359375" lon="-5.651177354156970977783203125">
        <ele>25</ele>
        <time>2022-06-04T12:13:19.000Z</time>
      </trkpt>
      <trkpt lat="43.49720698781311511993408203125" lon="-5.65124742686748504638671875">
        <ele>25</ele>
        <time>2022-06-04T12:13:20.000Z</time>
      </trkpt>
      <trkpt lat="43.49719927646219730377197265625" lon="-5.65146334469318389892578125">
        <ele>25</ele>
        <time>2022-06-04T12:13:22.000Z</time>
      </trkpt>
      <trkpt lat="43.49720061756670475006103515625" lon="-5.65159603022038936614990234375">
        <ele>25</ele>
        <time>2022-06-04T12:13:24.000Z</time>
      </trkpt>
      <trkpt lat="43.49720899946987628936767578125" lon="-5.6516544520854949951171875">
        <ele>25</ele>
        <time>2022-06-04T12:13:26.000Z</time>
      </trkpt>
      <trkpt lat="43.497218303382396697998046875" lon="-5.65171756781637668609619140625">
        <ele>25.200000762939453125</ele>
        <time>2022-06-04T12:13:27.000Z</time>
      </trkpt>
      <trkpt lat="43.497232384979724884033203125" lon="-5.6518534384667873382568359375">
        <ele>25.200000762939453125</ele>
        <time>2022-06-04T12:13:28.000Z</time>
      </trkpt>
      <trkpt lat="43.497232384979724884033203125" lon="-5.6518534384667873382568359375">
        <ele>25.200000762939453125</ele>
        <time>2022-06-04T12:13:29.000Z</time>
      </trkpt>
      <trkpt lat="43.497271947562694549560546875" lon="-5.65198394469916820526123046875">
        <ele>25.3999996185302734375</ele>
        <time>2022-06-04T12:13:30.000Z</time>
      </trkpt>
      <trkpt lat="43.4972925670444965362548828125" lon="-5.65204211510717868804931640625">
        <ele>25.6000003814697265625</ele>
        <time>2022-06-04T12:13:32.000Z</time>
      </trkpt>
      <trkpt lat="43.497310839593410491943359375" lon="-5.65209911204874515533447265625">
        <ele>25.799999237060546875</ele>
        <time>2022-06-04T12:13:33.000Z</time>
      </trkpt>
      <trkpt lat="43.4973232448101043701171875" lon="-5.65221570432186126708984375">
        <ele>25.799999237060546875</ele>
        <time>2022-06-04T12:13:34.000Z</time>
      </trkpt>
      <trkpt lat="43.49733053706586360931396484375" lon="-5.65233414061367511749267578125">
        <ele>26</ele>
        <time>2022-06-04T12:13:36.000Z</time>
      </trkpt>
      <trkpt lat="43.49733053706586360931396484375" lon="-5.65233414061367511749267578125">
        <ele>26</ele>
        <time>2022-06-04T12:13:37.000Z</time>
      </trkpt>
      <trkpt lat="43.49734000861644744873046875" lon="-5.65238275565207004547119140625">
        <ele>26</ele>
        <time>2022-06-04T12:13:38.000Z</time>
      </trkpt>
      <trkpt lat="43.497354425489902496337890625" lon="-5.65246808342635631561279296875">
        <ele>26.200000762939453125</ele>
        <time>2022-06-04T12:13:40.000Z</time>
      </trkpt>
      <trkpt lat="43.49734713323414325714111328125" lon="-5.65250295214354991912841796875">
        <ele>26.200000762939453125</ele>
        <time>2022-06-04T12:13:41.000Z</time>
      </trkpt>
      <trkpt lat="43.49731612019240856170654296875" lon="-5.6525824964046478271484375">
        <ele>26.200000762939453125</ele>
        <time>2022-06-04T12:13:42.000Z</time>
      </trkpt>
      <trkpt lat="43.49730505608022212982177734375" lon="-5.65264008007943630218505859375">
        <ele>26.200000762939453125</ele>
        <time>2022-06-04T12:13:44.000Z</time>
      </trkpt>
      <trkpt lat="43.49729013629257678985595703125" lon="-5.65271384082734584808349609375">
        <ele>26.200000762939453125</ele>
        <time>2022-06-04T12:13:45.000Z</time>
      </trkpt>
      <trkpt lat="43.497271277010440826416015625" lon="-5.6527831591665744781494140625">
        <ele>26.200000762939453125</ele>
        <time>2022-06-04T12:13:46.000Z</time>
      </trkpt>
      <trkpt lat="43.49717597477138042449951171875" lon="-5.652960352599620819091796875">
        <ele>26.3999996185302734375</ele>
        <time>2022-06-04T12:13:48.000Z</time>
      </trkpt>
      <trkpt lat="43.49717597477138042449951171875" lon="-5.652960352599620819091796875">
        <ele>26.3999996185302734375</ele>
        <time>2022-06-04T12:13:49.000Z</time>
      </trkpt>
      <trkpt lat="43.4971376694738864898681640625" lon="-5.6529910303652286529541015625">
        <ele>26.3999996185302734375</ele>
        <time>2022-06-04T12:13:50.000Z</time>
      </trkpt>
      <trkpt lat="43.49705745466053485870361328125" lon="-5.65303335897624492645263671875">
        <ele>26.6000003814697265625</ele>
        <time>2022-06-04T12:13:52.000Z</time>
      </trkpt>
      <trkpt lat="43.49697078578174114227294921875" lon="-5.653090439736843109130859375">
        <ele>26.799999237060546875</ele>
        <time>2022-06-04T12:13:54.000Z</time>
      </trkpt>
      <trkpt lat="43.496903479099273681640625" lon="-5.6531918607652187347412109375">
        <ele>27</ele>
        <time>2022-06-04T12:13:56.000Z</time>
      </trkpt>
      <trkpt lat="43.496878333389759063720703125" lon="-5.6532495282590389251708984375">
        <ele>27</ele>
        <time>2022-06-04T12:13:57.000Z</time>
      </trkpt>
      <trkpt lat="43.49682209081947803497314453125" lon="-5.6533548049628734588623046875">
        <ele>27</ele>
        <time>2022-06-04T12:13:58.000Z</time>
      </trkpt>
      <trkpt lat="43.4967921674251556396484375" lon="-5.6534131430089473724365234375">
        <ele>27</ele>
        <time>2022-06-04T12:14:00.000Z</time>
      </trkpt>
      <trkpt lat="43.49674112163484096527099609375" lon="-5.653542391955852508544921875">
        <ele>27.200000762939453125</ele>
        <time>2022-06-04T12:14:02.000Z</time>
      </trkpt>
      <trkpt lat="43.49672368727624416351318359375" lon="-5.65361707471311092376708984375">
        <ele>27</ele>
        <time>2022-06-04T12:14:03.000Z</time>
      </trkpt>
      <trkpt lat="43.49671027623116970062255859375" lon="-5.65368647687137126922607421875">
        <ele>27.200000762939453125</ele>
        <time>2022-06-04T12:14:04.000Z</time>
      </trkpt>
      <trkpt lat="43.4967014752328395843505859375" lon="-5.65375604666769504547119140625">
        <ele>27.200000762939453125</ele>
        <time>2022-06-04T12:14:05.000Z</time>
      </trkpt>
      <trkpt lat="43.49669032730162143707275390625" lon="-5.65389283932745456695556640625">
        <ele>27.3999996185302734375</ele>
        <time>2022-06-04T12:14:06.000Z</time>
      </trkpt>
      <trkpt lat="43.4966897405683994293212890625" lon="-5.6539611518383026123046875">
        <ele>27.6000003814697265625</ele>
        <time>2022-06-04T12:14:08.000Z</time>
      </trkpt>
      <trkpt lat="43.49669384770095348358154296875" lon="-5.65403063781559467315673828125">
        <ele>27.6000003814697265625</ele>
        <time>2022-06-04T12:14:09.000Z</time>
      </trkpt>
      <trkpt lat="43.4967197477817535400390625" lon="-5.654163323342800140380859375">
        <ele>27.3999996185302734375</ele>
        <time>2022-06-04T12:14:10.000Z</time>
      </trkpt>
      <trkpt lat="43.4967477433383464813232421875" lon="-5.65428444184362888336181640625">
        <ele>27.3999996185302734375</ele>
        <time>2022-06-04T12:14:12.000Z</time>
      </trkpt>
      <trkpt lat="43.4967477433383464813232421875" lon="-5.65428444184362888336181640625">
        <ele>27.6000003814697265625</ele>
        <time>2022-06-04T12:14:13.000Z</time>
      </trkpt>
      <trkpt lat="43.496762998402118682861328125" lon="-5.65434579737484455108642578125">
        <ele>27.6000003814697265625</ele>
        <time>2022-06-04T12:14:14.000Z</time>
      </trkpt>
      <trkpt lat="43.49680415354669094085693359375" lon="-5.6545269303023815155029296875">
        <ele>27.6000003814697265625</ele>
        <time>2022-06-04T12:14:16.000Z</time>
      </trkpt>
      <trkpt lat="43.49683231674134731292724609375" lon="-5.654611922800540924072265625">
        <ele>27.799999237060546875</ele>
        <time>2022-06-04T12:14:18.000Z</time>
      </trkpt>
      <trkpt lat="43.49683231674134731292724609375" lon="-5.654611922800540924072265625">
        <ele>27.799999237060546875</ele>
        <time>2022-06-04T12:14:19.000Z</time>
      </trkpt>
      <trkpt lat="43.49684924818575382232666015625" lon="-5.6546607054769992828369140625">
        <ele>27.799999237060546875</ele>
        <time>2022-06-04T12:14:20.000Z</time>
      </trkpt>
      <trkpt lat="43.4968996234238147735595703125" lon="-5.6548087298870086669921875">
        <ele>28</ele>
        <time>2022-06-04T12:14:22.000Z</time>
      </trkpt>
      <trkpt lat="43.496917895972728729248046875" lon="-5.65491073764860630035400390625">
        <ele>28.3999996185302734375</ele>
        <time>2022-06-04T12:14:24.000Z</time>
      </trkpt>
      <trkpt lat="43.49692485295236110687255859375" lon="-5.654963962733745574951171875">
        <ele>28.799999237060546875</ele>
        <time>2022-06-04T12:14:26.000Z</time>
      </trkpt>
      <trkpt lat="43.49692300893366336822509765625" lon="-5.65512782894074916839599609375">
        <ele>29</ele>
        <time>2022-06-04T12:14:28.000Z</time>
      </trkpt>
      <trkpt lat="43.496890403330326080322265625" lon="-5.65524986945092678070068359375">
        <ele>29</ele>
        <time>2022-06-04T12:14:30.000Z</time>
      </trkpt>
      <trkpt lat="43.496871627867221832275390625" lon="-5.6553027592599391937255859375">
        <ele>29</ele>
        <time>2022-06-04T12:14:32.000Z</time>
      </trkpt>
      <trkpt lat="43.4967980347573757171630859375" lon="-5.65547525882720947265625">
        <ele>28.799999237060546875</ele>
        <time>2022-06-04T12:14:34.000Z</time>
      </trkpt>
      <trkpt lat="43.4967323206365108489990234375" lon="-5.65558229573071002960205078125">
        <ele>28.6000003814697265625</ele>
        <time>2022-06-04T12:14:36.000Z</time>
      </trkpt>
      <trkpt lat="43.49670491181313991546630859375" lon="-5.6556340120732784271240234375">
        <ele>28.6000003814697265625</ele>
        <time>2022-06-04T12:14:37.000Z</time>
      </trkpt>
      <trkpt lat="43.49670491181313991546630859375" lon="-5.6556340120732784271240234375">
        <ele>28.6000003814697265625</ele>
        <time>2022-06-04T12:14:38.000Z</time>
      </trkpt>
      <trkpt lat="43.4966062568128108978271484375" lon="-5.65576552413403987884521484375">
        <ele>28.6000003814697265625</ele>
        <time>2022-06-04T12:14:40.000Z</time>
      </trkpt>
      <trkpt lat="43.49653610028326511383056640625" lon="-5.65581330098211765289306640625">
        <ele>28.6000003814697265625</ele>
        <time>2022-06-04T12:14:42.000Z</time>
      </trkpt>
      <trkpt lat="43.4965107031166553497314453125" lon="-5.65584112890064716339111328125">
        <ele>28.6000003814697265625</ele>
        <time>2022-06-04T12:14:44.000Z</time>
      </trkpt>
      <trkpt lat="43.4964409656822681427001953125" lon="-5.65594196319580078125">
        <ele>28.6000003814697265625</ele>
        <time>2022-06-04T12:14:46.000Z</time>
      </trkpt>
      <trkpt lat="43.4964409656822681427001953125" lon="-5.65594196319580078125">
        <ele>28.6000003814697265625</ele>
        <time>2022-06-04T12:14:47.000Z</time>
      </trkpt>
      <trkpt lat="43.49639075808227062225341796875" lon="-5.65600273199379444122314453125">
        <ele>28.6000003814697265625</ele>
        <time>2022-06-04T12:14:48.000Z</time>
      </trkpt>
      <trkpt lat="43.49636041559278964996337890625" lon="-5.65602955408394336700439453125">
        <ele>28.799999237060546875</ele>
        <time>2022-06-04T12:14:50.000Z</time>
      </trkpt>
      <trkpt lat="43.49628464318811893463134765625" lon="-5.65613080747425556182861328125">
        <ele>29</ele>
        <time>2022-06-04T12:14:52.000Z</time>
      </trkpt>
      <trkpt lat="43.49628464318811893463134765625" lon="-5.65613080747425556182861328125">
        <ele>29</ele>
        <time>2022-06-04T12:14:53.000Z</time>
      </trkpt>
      <trkpt lat="43.49626519717276096343994140625" lon="-5.65621898509562015533447265625">
        <ele>29</ele>
        <time>2022-06-04T12:14:54.000Z</time>
      </trkpt>
      <trkpt lat="43.49625731818377971649169921875" lon="-5.65626894123852252960205078125">
        <ele>29</ele>
        <time>2022-06-04T12:14:56.000Z</time>
      </trkpt>
      <trkpt lat="43.4962423145771026611328125" lon="-5.65631168894469738006591796875">
        <ele>29.200000762939453125</ele>
        <time>2022-06-04T12:14:57.000Z</time>
      </trkpt>
      <trkpt lat="43.49619998596608638763427734375" lon="-5.65640506334602832794189453125">
        <ele>29.200000762939453125</ele>
        <time>2022-06-04T12:14:58.000Z</time>
      </trkpt>
      <trkpt lat="43.49619998596608638763427734375" lon="-5.65640506334602832794189453125">
        <ele>29.3999996185302734375</ele>
        <time>2022-06-04T12:14:59.000Z</time>
      </trkpt>
      <trkpt lat="43.49617416970431804656982421875" lon="-5.65644764341413974761962890625">
        <ele>29.6000003814697265625</ele>
        <time>2022-06-04T12:15:00.000Z</time>
      </trkpt>
      <trkpt lat="43.49611298181116580963134765625" lon="-5.65652995370328426361083984375">
        <ele>29.799999237060546875</ele>
        <time>2022-06-04T12:15:02.000Z</time>
      </trkpt>
      <trkpt lat="43.4960124827921390533447265625" lon="-5.6566458754241466522216796875">
        <ele>30</ele>
        <time>2022-06-04T12:15:04.000Z</time>
      </trkpt>
      <trkpt lat="43.49599295295774936676025390625" lon="-5.6567015312612056732177734375">
        <ele>30.200000762939453125</ele>
        <time>2022-06-04T12:15:06.000Z</time>
      </trkpt>
      <trkpt lat="43.49593746475875377655029296875" lon="-5.6568111665546894073486328125">
        <ele>30.3999996185302734375</ele>
        <time>2022-06-04T12:15:08.000Z</time>
      </trkpt>
      <trkpt lat="43.4958166815340518951416015625" lon="-5.65688584931194782257080078125">
        <ele>30.3999996185302734375</ele>
        <time>2022-06-04T12:15:10.000Z</time>
      </trkpt>
      <trkpt lat="43.4958166815340518951416015625" lon="-5.65688584931194782257080078125">
        <ele>30.3999996185302734375</ele>
        <time>2022-06-04T12:15:11.000Z</time>
      </trkpt>
      <trkpt lat="43.49571987055242061614990234375" lon="-5.6568686664104461669921875">
        <ele>30.3999996185302734375</ele>
        <time>2022-06-04T12:15:12.000Z</time>
      </trkpt>
      <trkpt lat="43.49567301571369171142578125" lon="-5.6568755395710468292236328125">
        <ele>30.3999996185302734375</ele>
        <time>2022-06-04T12:15:14.000Z</time>
      </trkpt>
      <trkpt lat="43.49563219584524631500244140625" lon="-5.65689775161445140838623046875">
        <ele>30.3999996185302734375</ele>
        <time>2022-06-04T12:15:15.000Z</time>
      </trkpt>
      <trkpt lat="43.49559011869132518768310546875" lon="-5.65696480683982372283935546875">
        <ele>30.3999996185302734375</ele>
        <time>2022-06-04T12:15:16.000Z</time>
      </trkpt>
      <trkpt lat="43.49555575288832187652587890625" lon="-5.6570703350007534027099609375">
        <ele>30.3999996185302734375</ele>
        <time>2022-06-04T12:15:18.000Z</time>
      </trkpt>
      <trkpt lat="43.4955414198338985443115234375" lon="-5.65713495947420597076416015625">
        <ele>30.3999996185302734375</ele>
        <time>2022-06-04T12:15:20.000Z</time>
      </trkpt>
      <trkpt lat="43.49551971070468425750732421875" lon="-5.6572627834975719451904296875">
        <ele>30.3999996185302734375</ele>
        <time>2022-06-04T12:15:22.000Z</time>
      </trkpt>
      <trkpt lat="43.495476879179477691650390625" lon="-5.65744710154831409454345703125">
        <ele>30.3999996185302734375</ele>
        <time>2022-06-04T12:15:24.000Z</time>
      </trkpt>
      <trkpt lat="43.49545064382255077362060546875" lon="-5.65750476904213428497314453125">
        <ele>30.3999996185302734375</ele>
        <time>2022-06-04T12:15:26.000Z</time>
      </trkpt>
      <trkpt lat="43.49536045454442501068115234375" lon="-5.657688416540622711181640625">
        <ele>30.6000003814697265625</ele>
        <time>2022-06-04T12:15:28.000Z</time>
      </trkpt>
      <trkpt lat="43.49529792554676532745361328125" lon="-5.65781573764979839324951171875">
        <ele>30.6000003814697265625</ele>
        <time>2022-06-04T12:15:30.000Z</time>
      </trkpt>
      <trkpt lat="43.4952688403427600860595703125" lon="-5.65787826664745807647705078125">
        <ele>30.6000003814697265625</ele>
        <time>2022-06-04T12:15:31.000Z</time>
      </trkpt>
      <trkpt lat="43.4952688403427600860595703125" lon="-5.65787826664745807647705078125">
        <ele>30.6000003814697265625</ele>
        <time>2022-06-04T12:15:32.000Z</time>
      </trkpt>
      <trkpt lat="43.495197929441928863525390625" lon="-5.65804808400571346282958984375">
        <ele>30.6000003814697265625</ele>
        <time>2022-06-04T12:15:34.000Z</time>
      </trkpt>
      <trkpt lat="43.49517135880887508392333984375" lon="-5.65816660411655902862548828125">
        <ele>30.6000003814697265625</ele>
        <time>2022-06-04T12:15:36.000Z</time>
      </trkpt>
      <trkpt lat="43.49515928886830806732177734375" lon="-5.65822385251522064208984375">
        <ele>30.6000003814697265625</ele>
        <time>2022-06-04T12:15:38.000Z</time>
      </trkpt>
      <trkpt lat="43.49514470435678958892822265625" lon="-5.65828043036162853240966796875">
        <ele>30.6000003814697265625</ele>
        <time>2022-06-04T12:15:39.000Z</time>
      </trkpt>
      <trkpt lat="43.4951162897050380706787109375" lon="-5.6583988666534423828125">
        <ele>30.6000003814697265625</ele>
        <time>2022-06-04T12:15:40.000Z</time>
      </trkpt>
      <trkpt lat="43.495091311633586883544921875" lon="-5.65852224826812744140625">
        <ele>30.799999237060546875</ele>
        <time>2022-06-04T12:15:42.000Z</time>
      </trkpt>
      <trkpt lat="43.49507831968367099761962890625" lon="-5.6585784070193767547607421875">
        <ele>30.799999237060546875</ele>
        <time>2022-06-04T12:15:44.000Z</time>
      </trkpt>
      <trkpt lat="43.4949977695941925048828125" lon="-5.6587219052016735076904296875">
        <ele>30.799999237060546875</ele>
        <time>2022-06-04T12:15:46.000Z</time>
      </trkpt>
      <trkpt lat="43.49496466107666492462158203125" lon="-5.65876507200300693511962890625">
        <ele>30.799999237060546875</ele>
        <time>2022-06-04T12:15:47.000Z</time>
      </trkpt>
      <trkpt lat="43.49493398331105709075927734375" lon="-5.65880849026143550872802734375">
        <ele>30.799999237060546875</ele>
        <time>2022-06-04T12:15:48.000Z</time>
      </trkpt>
      <trkpt lat="43.4949064068496227264404296875" lon="-5.658851154148578643798828125">
        <ele>30.799999237060546875</ele>
        <time>2022-06-04T12:15:50.000Z</time>
      </trkpt>
      <trkpt lat="43.4948222525417804718017578125" lon="-5.6589790619909763336181640625">
        <ele>30.799999237060546875</ele>
        <time>2022-06-04T12:15:52.000Z</time>
      </trkpt>
      <trkpt lat="43.49479056894779205322265625" lon="-5.65901912748813629150390625">
        <ele>30.799999237060546875</ele>
        <time>2022-06-04T12:15:53.000Z</time>
      </trkpt>
      <trkpt lat="43.4947642497718334197998046875" lon="-5.65905424766242504119873046875">
        <ele>30.799999237060546875</ele>
        <time>2022-06-04T12:15:54.000Z</time>
      </trkpt>
      <trkpt lat="43.4947642497718334197998046875" lon="-5.65905424766242504119873046875">
        <ele>30.799999237060546875</ele>
        <time>2022-06-04T12:15:55.000Z</time>
      </trkpt>
      <trkpt lat="43.494737930595874786376953125" lon="-5.6590860150754451751708984375">
        <ele>30.799999237060546875</ele>
        <time>2022-06-04T12:15:56.000Z</time>
      </trkpt>
      <trkpt lat="43.49465050734579563140869140625" lon="-5.65920629538595676422119140625">
        <ele>30.799999237060546875</ele>
        <time>2022-06-04T12:15:58.000Z</time>
      </trkpt>
      <trkpt lat="43.49465050734579563140869140625" lon="-5.65920629538595676422119140625">
        <ele>30.799999237060546875</ele>
        <time>2022-06-04T12:15:59.000Z</time>
      </trkpt>
      <trkpt lat="43.494621925055980682373046875" lon="-5.65929673612117767333984375">
        <ele>30.799999237060546875</ele>
        <time>2022-06-04T12:16:00.000Z</time>
      </trkpt>
      <trkpt lat="43.4946303069591522216796875" lon="-5.65934275276958942413330078125">
        <ele>30.799999237060546875</ele>
        <time>2022-06-04T12:16:02.000Z</time>
      </trkpt>
      <trkpt lat="43.4946262836456298828125" lon="-5.65951173193752765655517578125">
        <ele>31</ele>
        <time>2022-06-04T12:16:04.000Z</time>
      </trkpt>
      <trkpt lat="43.4946262836456298828125" lon="-5.65951173193752765655517578125">
        <ele>31.200000762939453125</ele>
        <time>2022-06-04T12:16:05.000Z</time>
      </trkpt>
      <trkpt lat="43.4945954382419586181640625" lon="-5.6596274860203266143798828125">
        <ele>31.3999996185302734375</ele>
        <time>2022-06-04T12:16:06.000Z</time>
      </trkpt>
      <trkpt lat="43.49457490257918834686279296875" lon="-5.65968825481832027435302734375">
        <ele>31.6000003814697265625</ele>
        <time>2022-06-04T12:16:08.000Z</time>
      </trkpt>
      <trkpt lat="43.49452595226466655731201171875" lon="-5.65985069610178470611572265625">
        <ele>31.6000003814697265625</ele>
        <time>2022-06-04T12:16:10.000Z</time>
      </trkpt>
      <trkpt lat="43.49452595226466655731201171875" lon="-5.65985069610178470611572265625">
        <ele>31.799999237060546875</ele>
        <time>2022-06-04T12:16:11.000Z</time>
      </trkpt>
      <trkpt lat="43.49449460394680500030517578125" lon="-5.65995991230010986328125">
        <ele>31.799999237060546875</ele>
        <time>2022-06-04T12:16:12.000Z</time>
      </trkpt>
      <trkpt lat="43.49447465501725673675537109375" lon="-5.6600133888423442840576171875">
        <ele>31.799999237060546875</ele>
        <time>2022-06-04T12:16:14.000Z</time>
      </trkpt>
      <trkpt lat="43.494379520416259765625" lon="-5.66014825366437435150146484375">
        <ele>31.799999237060546875</ele>
        <time>2022-06-04T12:16:16.000Z</time>
      </trkpt>
      <trkpt lat="43.494379520416259765625" lon="-5.66014825366437435150146484375">
        <ele>31.799999237060546875</ele>
        <time>2022-06-04T12:16:17.000Z</time>
      </trkpt>
      <trkpt lat="43.49432143382728099822998046875" lon="-5.660186894237995147705078125">
        <ele>32</ele>
        <time>2022-06-04T12:16:18.000Z</time>
      </trkpt>
      <trkpt lat="43.49429930560290813446044921875" lon="-5.66021447069942951202392578125">
        <ele>32</ele>
        <time>2022-06-04T12:16:20.000Z</time>
      </trkpt>
      <trkpt lat="43.49429712630808353424072265625" lon="-5.6602527759969234466552734375">
        <ele>32</ele>
        <time>2022-06-04T12:16:21.000Z</time>
      </trkpt>
      <trkpt lat="43.4943179972469806671142578125" lon="-5.6603486649692058563232421875">
        <ele>32.200000762939453125</ele>
        <time>2022-06-04T12:16:22.000Z</time>
      </trkpt>
      <trkpt lat="43.49430098198354244232177734375" lon="-5.6604408659040927886962890625">
        <ele>32.40000152587890625</ele>
        <time>2022-06-04T12:16:24.000Z</time>
      </trkpt>
      <trkpt lat="43.49427667446434497833251953125" lon="-5.66047380678355693817138671875">
        <ele>32.59999847412109375</ele>
        <time>2022-06-04T12:16:26.000Z</time>
      </trkpt>
      <trkpt lat="43.49420676939189434051513671875" lon="-5.6604861281812191009521484375">
        <ele>32.59999847412109375</ele>
        <time>2022-06-04T12:16:28.000Z</time>
      </trkpt>
      <trkpt lat="43.49416368640959262847900390625" lon="-5.6604847870767116546630859375">
        <ele>32.799999237060546875</ele>
        <time>2022-06-04T12:16:29.000Z</time>
      </trkpt>
      <trkpt lat="43.49407986737787723541259765625" lon="-5.66049643792212009429931640625">
        <ele>33</ele>
        <time>2022-06-04T12:16:30.000Z</time>
      </trkpt>
      <trkpt lat="43.49403955042362213134765625" lon="-5.6605209968984127044677734375">
        <ele>33.200000762939453125</ele>
        <time>2022-06-04T12:16:32.000Z</time>
      </trkpt>
      <trkpt lat="43.49400325678288936614990234375" lon="-5.660555697977542877197265625">
        <ele>33.40000152587890625</ele>
        <time>2022-06-04T12:16:33.000Z</time>
      </trkpt>
      <trkpt lat="43.49393871612846851348876953125" lon="-5.6606371700763702392578125">
        <ele>33.40000152587890625</ele>
        <time>2022-06-04T12:16:34.000Z</time>
      </trkpt>
      <trkpt lat="43.493886329233646392822265625" lon="-5.6607275269925594329833984375">
        <ele>33.40000152587890625</ele>
        <time>2022-06-04T12:16:36.000Z</time>
      </trkpt>
      <trkpt lat="43.49386252462863922119140625" lon="-5.66077639348804950714111328125">
        <ele>33.59999847412109375</ele>
        <time>2022-06-04T12:16:38.000Z</time>
      </trkpt>
      <trkpt lat="43.4937711618840694427490234375" lon="-5.6608597934246063232421875">
        <ele>33.799999237060546875</ele>
        <time>2022-06-04T12:16:40.000Z</time>
      </trkpt>
      <trkpt lat="43.4937711618840694427490234375" lon="-5.6608597934246063232421875">
        <ele>34</ele>
        <time>2022-06-04T12:16:41.000Z</time>
      </trkpt>
      <trkpt lat="43.49370083771646022796630859375" lon="-5.66081897355616092681884765625">
        <ele>34</ele>
        <time>2022-06-04T12:16:42.000Z</time>
      </trkpt>
      <trkpt lat="43.49366270005702972412109375" lon="-5.6607882119715213775634765625">
        <ele>34.200000762939453125</ele>
        <time>2022-06-04T12:16:44.000Z</time>
      </trkpt>
      <trkpt lat="43.49362305365502834320068359375" lon="-5.66077371127903461456298828125">
        <ele>34.200000762939453125</ele>
        <time>2022-06-04T12:16:45.000Z</time>
      </trkpt>
      <trkpt lat="43.49355231039226055145263671875" lon="-5.66082232631742954254150390625">
        <ele>34.200000762939453125</ele>
        <time>2022-06-04T12:16:46.000Z</time>
      </trkpt>
      <trkpt lat="43.49355231039226055145263671875" lon="-5.66082232631742954254150390625">
        <ele>34.200000762939453125</ele>
        <time>2022-06-04T12:16:47.000Z</time>
      </trkpt>
      <trkpt lat="43.49347838200628757476806640625" lon="-5.6609095819294452667236328125">
        <ele>34.40000152587890625</ele>
        <time>2022-06-04T12:16:48.000Z</time>
      </trkpt>
      <trkpt lat="43.49345038644969463348388671875" lon="-5.660946629941463470458984375">
        <ele>34.59999847412109375</ele>
        <time>2022-06-04T12:16:50.000Z</time>
      </trkpt>
      <trkpt lat="43.4933731891214847564697265625" lon="-5.66107864491641521453857421875">
        <ele>34.59999847412109375</ele>
        <time>2022-06-04T12:16:52.000Z</time>
      </trkpt>
      <trkpt lat="43.49331342615187168121337890625" lon="-5.66116766072809696197509765625">
        <ele>34.799999237060546875</ele>
        <time>2022-06-04T12:16:54.000Z</time>
      </trkpt>
      <trkpt lat="43.49327738396823406219482421875" lon="-5.6612066365778446197509765625">
        <ele>34.799999237060546875</ele>
        <time>2022-06-04T12:16:56.000Z</time>
      </trkpt>
      <trkpt lat="43.49315978586673736572265625" lon="-5.66129875369369983673095703125">
        <ele>34.799999237060546875</ele>
        <time>2022-06-04T12:16:58.000Z</time>
      </trkpt>
      <trkpt lat="43.4930714406073093414306640625" lon="-5.66135927103459835052490234375">
        <ele>34.799999237060546875</ele>
        <time>2022-06-04T12:17:00.000Z</time>
      </trkpt>
      <trkpt lat="43.49303246475756168365478515625" lon="-5.66138877533376216888427734375">
        <ele>35</ele>
        <time>2022-06-04T12:17:02.000Z</time>
      </trkpt>
      <trkpt lat="43.49292433820664882659912109375" lon="-5.66146454773843288421630859375">
        <ele>35</ele>
        <time>2022-06-04T12:17:04.000Z</time>
      </trkpt>
      <trkpt lat="43.49292433820664882659912109375" lon="-5.66146454773843288421630859375">
        <ele>35.200000762939453125</ele>
        <time>2022-06-04T12:17:05.000Z</time>
      </trkpt>
      <trkpt lat="43.492843620479106903076171875" lon="-5.66150763072073459625244140625">
        <ele>35.200000762939453125</ele>
        <time>2022-06-04T12:17:06.000Z</time>
      </trkpt>
      <trkpt lat="43.4928025491535663604736328125" lon="-5.661535374820232391357421875">
        <ele>35.40000152587890625</ele>
        <time>2022-06-04T12:17:08.000Z</time>
      </trkpt>
      <trkpt lat="43.49270774982869625091552734375" lon="-5.6616237200796604156494140625">
        <ele>35.40000152587890625</ele>
        <time>2022-06-04T12:17:10.000Z</time>
      </trkpt>
      <trkpt lat="43.49270774982869625091552734375" lon="-5.6616237200796604156494140625">
        <ele>35.59999847412109375</ele>
        <time>2022-06-04T12:17:11.000Z</time>
      </trkpt>
      <trkpt lat="43.49262694828212261199951171875" lon="-5.6616602651774883270263671875">
        <ele>35.59999847412109375</ele>
        <time>2022-06-04T12:17:12.000Z</time>
      </trkpt>
      <trkpt lat="43.49257665686309337615966796875" lon="-5.66168163903057575225830078125">
        <ele>35.59999847412109375</ele>
        <time>2022-06-04T12:17:14.000Z</time>
      </trkpt>
      <trkpt lat="43.49244874902069568634033203125" lon="-5.66166990436613559722900390625">
        <ele>35.799999237060546875</ele>
        <time>2022-06-04T12:17:16.000Z</time>
      </trkpt>
      <trkpt lat="43.4923717193305492401123046875" lon="-5.6616297550499439239501953125">
        <ele>35.799999237060546875</ele>
        <time>2022-06-04T12:17:18.000Z</time>
      </trkpt>
      <trkpt lat="43.49233157001435756683349609375" lon="-5.661618523299694061279296875">
        <ele>36</ele>
        <time>2022-06-04T12:17:20.000Z</time>
      </trkpt>
      <trkpt lat="43.4922942705452442169189453125" lon="-5.661623887717723846435546875">
        <ele>36</ele>
        <time>2022-06-04T12:17:21.000Z</time>
      </trkpt>
      <trkpt lat="43.49222277291119098663330078125" lon="-5.66168482415378093719482421875">
        <ele>36</ele>
        <time>2022-06-04T12:17:22.000Z</time>
      </trkpt>
      <trkpt lat="43.49215798079967498779296875" lon="-5.6617797911167144775390625">
        <ele>36</ele>
        <time>2022-06-04T12:17:24.000Z</time>
      </trkpt>
      <trkpt lat="43.49213518202304840087890625" lon="-5.661833770573139190673828125">
        <ele>36</ele>
        <time>2022-06-04T12:17:26.000Z</time>
      </trkpt>
      <trkpt lat="43.4921169094741344451904296875" lon="-5.66188775002956390380859375">
        <ele>36</ele>
        <time>2022-06-04T12:17:27.000Z</time>
      </trkpt>
      <trkpt lat="43.492072485387325286865234375" lon="-5.66199101507663726806640625">
        <ele>36</ele>
        <time>2022-06-04T12:17:28.000Z</time>
      </trkpt>
      <trkpt lat="43.492016494274139404296875" lon="-5.66209788434207439422607421875">
        <ele>36.200000762939453125</ele>
        <time>2022-06-04T12:17:30.000Z</time>
      </trkpt>
      <trkpt lat="43.49198439158499240875244140625" lon="-5.6621521152555942535400390625">
        <ele>36.200000762939453125</ele>
        <time>2022-06-04T12:17:32.000Z</time>
      </trkpt>
      <trkpt lat="43.4919261373579502105712890625" lon="-5.66225563175976276397705078125">
        <ele>36.40000152587890625</ele>
        <time>2022-06-04T12:17:34.000Z</time>
      </trkpt>
      <trkpt lat="43.49186469800770282745361328125" lon="-5.662407763302326202392578125">
        <ele>36.200000762939453125</ele>
        <time>2022-06-04T12:17:36.000Z</time>
      </trkpt>
      <trkpt lat="43.49184022285044193267822265625" lon="-5.66245746798813343048095703125">
        <ele>36.40000152587890625</ele>
        <time>2022-06-04T12:17:38.000Z</time>
      </trkpt>
      <trkpt lat="43.4917481057345867156982421875" lon="-5.66257171332836151123046875">
        <ele>36.59999847412109375</ele>
        <time>2022-06-04T12:17:40.000Z</time>
      </trkpt>
      <trkpt lat="43.4916864149272441864013671875" lon="-5.6626278720796108245849609375">
        <ele>36.59999847412109375</ele>
        <time>2022-06-04T12:17:42.000Z</time>
      </trkpt>
      <trkpt lat="43.4916864149272441864013671875" lon="-5.6626278720796108245849609375">
        <ele>36.799999237060546875</ele>
        <time>2022-06-04T12:17:43.000Z</time>
      </trkpt>
      <trkpt lat="43.49165598861873149871826171875" lon="-5.662655867636203765869140625">
        <ele>36.59999847412109375</ele>
        <time>2022-06-04T12:17:44.000Z</time>
      </trkpt>
      <trkpt lat="43.49155272357165813446044921875" lon="-5.6627287901937961578369140625">
        <ele>36.799999237060546875</ele>
        <time>2022-06-04T12:17:46.000Z</time>
      </trkpt>
      <trkpt lat="43.49151282571256160736083984375" lon="-5.662821829319000244140625">
        <ele>36.59999847412109375</ele>
        <time>2022-06-04T12:17:48.000Z</time>
      </trkpt>
      <trkpt lat="43.4915177710354328155517578125" lon="-5.662872791290283203125">
        <ele>36.59999847412109375</ele>
        <time>2022-06-04T12:17:50.000Z</time>
      </trkpt>
      <trkpt lat="43.4915432520210742950439453125" lon="-5.6630308739840984344482421875">
        <ele>36.59999847412109375</ele>
        <time>2022-06-04T12:17:52.000Z</time>
      </trkpt>
      <trkpt lat="43.4915432520210742950439453125" lon="-5.6631284393370151519775390625">
        <ele>36.799999237060546875</ele>
        <time>2022-06-04T12:17:54.000Z</time>
      </trkpt>
      <trkpt lat="43.49153428338468074798583984375" lon="-5.66317646764218807220458984375">
        <ele>36.799999237060546875</ele>
        <time>2022-06-04T12:17:56.000Z</time>
      </trkpt>
      <trkpt lat="43.4915194474160671234130859375" lon="-5.6632256694138050079345703125">
        <ele>37</ele>
        <time>2022-06-04T12:17:57.000Z</time>
      </trkpt>
      <trkpt lat="43.49148809909820556640625" lon="-5.66332415677607059478759765625">
        <ele>37</ele>
        <time>2022-06-04T12:17:58.000Z</time>
      </trkpt>
      <trkpt lat="43.491467647254467010498046875" lon="-5.66342465579509735107421875">
        <ele>37.200000762939453125</ele>
        <time>2022-06-04T12:18:00.000Z</time>
      </trkpt>
      <trkpt lat="43.49146052263677120208740234375" lon="-5.663476288318634033203125">
        <ele>37.200000762939453125</ele>
        <time>2022-06-04T12:18:02.000Z</time>
      </trkpt>
      <trkpt lat="43.4914574213325977325439453125" lon="-5.6635297648608684539794921875">
        <ele>37.40000152587890625</ele>
        <time>2022-06-04T12:18:03.000Z</time>
      </trkpt>
      <trkpt lat="43.4914560802280902862548828125" lon="-5.66364065743982791900634765625">
        <ele>37.59999847412109375</ele>
        <time>2022-06-04T12:18:04.000Z</time>
      </trkpt>
      <trkpt lat="43.4914560802280902862548828125" lon="-5.66364065743982791900634765625">
        <ele>37.59999847412109375</ele>
        <time>2022-06-04T12:18:05.000Z</time>
      </trkpt>
      <trkpt lat="43.4914540685713291168212890625" lon="-5.66375263966619968414306640625">
        <ele>37.59999847412109375</ele>
        <time>2022-06-04T12:18:06.000Z</time>
      </trkpt>
      <trkpt lat="43.491453230381011962890625" lon="-5.663808882236480712890625">
        <ele>38</ele>
        <time>2022-06-04T12:18:08.000Z</time>
      </trkpt>
      <trkpt lat="43.491442166268825531005859375" lon="-5.6639921106398105621337890625">
        <ele>38.200000762939453125</ele>
        <time>2022-06-04T12:18:10.000Z</time>
      </trkpt>
      <trkpt lat="43.491442166268825531005859375" lon="-5.6639921106398105621337890625">
        <ele>38.40000152587890625</ele>
        <time>2022-06-04T12:18:11.000Z</time>
      </trkpt>
      <trkpt lat="43.49143110215663909912109375" lon="-5.66404667682945728302001953125">
        <ele>38.40000152587890625</ele>
        <time>2022-06-04T12:18:12.000Z</time>
      </trkpt>
      <trkpt lat="43.49138592369854450225830078125" lon="-5.66412949003279209136962890625">
        <ele>38.40000152587890625</ele>
        <time>2022-06-04T12:18:14.000Z</time>
      </trkpt>
      <trkpt lat="43.49131233058869838714599609375" lon="-5.664218254387378692626953125">
        <ele>38.59999847412109375</ele>
        <time>2022-06-04T12:18:16.000Z</time>
      </trkpt>
      <trkpt lat="43.49131233058869838714599609375" lon="-5.664218254387378692626953125">
        <ele>38.59999847412109375</ele>
        <time>2022-06-04T12:18:17.000Z</time>
      </trkpt>
      <trkpt lat="43.49131786264479160308837890625" lon="-5.66426326520740985870361328125">
        <ele>38.59999847412109375</ele>
        <time>2022-06-04T12:18:18.000Z</time>
      </trkpt>
      <trkpt lat="43.49134317599236965179443359375" lon="-5.6643632613122463226318359375">
        <ele>38.59999847412109375</ele>
        <time>2022-06-04T12:18:20.000Z</time>
      </trkpt>
      <trkpt lat="43.4913575090467929840087890625" lon="-5.66441782750189304351806640625">
        <ele>38.59999847412109375</ele>
        <time>2022-06-04T12:18:21.000Z</time>
      </trkpt>
      <trkpt lat="43.491384498775005340576171875" lon="-5.6645201705396175384521484375">
        <ele>38.799999237060546875</ele>
        <time>2022-06-04T12:18:22.000Z</time>
      </trkpt>
      <trkpt lat="43.49142816849052906036376953125" lon="-5.6646224297583103179931640625">
        <ele>38.799999237060546875</ele>
        <time>2022-06-04T12:18:24.000Z</time>
      </trkpt>
      <trkpt lat="43.4914430044591426849365234375" lon="-5.664676241576671600341796875">
        <ele>39</ele>
        <time>2022-06-04T12:18:26.000Z</time>
      </trkpt>
      <trkpt lat="43.4914590977132320404052734375" lon="-5.66484815441071987152099609375">
        <ele>39</ele>
        <time>2022-06-04T12:18:28.000Z</time>
      </trkpt>
      <trkpt lat="43.49143512547016143798828125" lon="-5.664947144687175750732421875">
        <ele>39</ele>
        <time>2022-06-04T12:18:30.000Z</time>
      </trkpt>
      <trkpt lat="43.4914114885032176971435546875" lon="-5.66498930566012859344482421875">
        <ele>39</ele>
        <time>2022-06-04T12:18:32.000Z</time>
      </trkpt>
      <trkpt lat="43.49131400696933269500732421875" lon="-5.6650696881115436553955078125">
        <ele>39</ele>
        <time>2022-06-04T12:18:34.000Z</time>
      </trkpt>
      <trkpt lat="43.49131400696933269500732421875" lon="-5.6650696881115436553955078125">
        <ele>39</ele>
        <time>2022-06-04T12:18:35.000Z</time>
      </trkpt>
      <trkpt lat="43.491286933422088623046875" lon="-5.6651005335152149200439453125">
        <ele>39</ele>
        <time>2022-06-04T12:18:36.000Z</time>
      </trkpt>
      <trkpt lat="43.49126790650188922882080078125" lon="-5.66518896259367465972900390625">
        <ele>39</ele>
        <time>2022-06-04T12:18:38.000Z</time>
      </trkpt>
      <trkpt lat="43.49126254208385944366455078125" lon="-5.66527714021503925323486328125">
        <ele>39.200000762939453125</ele>
        <time>2022-06-04T12:18:40.000Z</time>
      </trkpt>
      <trkpt lat="43.491230942308902740478515625" lon="-5.66541083157062530517578125">
        <ele>39.40000152587890625</ele>
        <time>2022-06-04T12:18:42.000Z</time>
      </trkpt>
      <trkpt lat="43.491217531263828277587890625" lon="-5.6654555909335613250732421875">
        <ele>39.59999847412109375</ele>
        <time>2022-06-04T12:18:44.000Z</time>
      </trkpt>
      <trkpt lat="43.4911405853927135467529296875" lon="-5.66556581296026706695556640625">
        <ele>39.799999237060546875</ele>
        <time>2022-06-04T12:18:46.000Z</time>
      </trkpt>
      <trkpt lat="43.4910772182047367095947265625" lon="-5.66562113352119922637939453125">
        <ele>39.799999237060546875</ele>
        <time>2022-06-04T12:18:48.000Z</time>
      </trkpt>
      <trkpt lat="43.491041176021099090576171875" lon="-5.6656443513929843902587890625">
        <ele>40</ele>
        <time>2022-06-04T12:18:50.000Z</time>
      </trkpt>
      <trkpt lat="43.4909343905746936798095703125" lon="-5.66570176742970943450927734375">
        <ele>40.200000762939453125</ele>
        <time>2022-06-04T12:18:52.000Z</time>
      </trkpt>
      <trkpt lat="43.490870185196399688720703125" lon="-5.66573009826242923736572265625">
        <ele>40.200000762939453125</ele>
        <time>2022-06-04T12:18:54.000Z</time>
      </trkpt>
      <trkpt lat="43.490870185196399688720703125" lon="-5.66573009826242923736572265625">
        <ele>40.200000762939453125</ele>
        <time>2022-06-04T12:18:55.000Z</time>
      </trkpt>
      <trkpt lat="43.49083489738404750823974609375" lon="-5.66574652679264545440673828125">
        <ele>40.40000152587890625</ele>
        <time>2022-06-04T12:18:56.000Z</time>
      </trkpt>
      <trkpt lat="43.49076918326318264007568359375" lon="-5.66578106023371219635009765625">
        <ele>40.40000152587890625</ele>
        <time>2022-06-04T12:18:58.000Z</time>
      </trkpt>
      <trkpt lat="43.49069760181009769439697265625" lon="-5.66582028754055500030517578125">
        <ele>40.40000152587890625</ele>
        <time>2022-06-04T12:19:00.000Z</time>
      </trkpt>
      <trkpt lat="43.49062534980475902557373046875" lon="-5.665840990841388702392578125">
        <ele>40.40000152587890625</ele>
        <time>2022-06-04T12:19:02.000Z</time>
      </trkpt>
      <trkpt lat="43.49051722325384616851806640625" lon="-5.66582925617694854736328125">
        <ele>40.40000152587890625</ele>
        <time>2022-06-04T12:19:04.000Z</time>
      </trkpt>
      <trkpt lat="43.49051722325384616851806640625" lon="-5.66582925617694854736328125">
        <ele>40.40000152587890625</ele>
        <time>2022-06-04T12:19:05.000Z</time>
      </trkpt>
      <trkpt lat="43.4904522635042667388916015625" lon="-5.6658213771879673004150390625">
        <ele>40.59999847412109375</ele>
        <time>2022-06-04T12:19:06.000Z</time>
      </trkpt>
      <trkpt lat="43.49042468704283237457275390625" lon="-5.66583998501300811767578125">
        <ele>40.799999237060546875</ele>
        <time>2022-06-04T12:19:08.000Z</time>
      </trkpt>
      <trkpt lat="43.49037322215735912322998046875" lon="-5.6659336946904659271240234375">
        <ele>40.799999237060546875</ele>
        <time>2022-06-04T12:19:10.000Z</time>
      </trkpt>
      <trkpt lat="43.49037322215735912322998046875" lon="-5.6659336946904659271240234375">
        <ele>40.799999237060546875</ele>
        <time>2022-06-04T12:19:11.000Z</time>
      </trkpt>
      <trkpt lat="43.490345813333988189697265625" lon="-5.66601055674254894256591796875">
        <ele>41</ele>
        <time>2022-06-04T12:19:12.000Z</time>
      </trkpt>
      <trkpt lat="43.49033131264150142669677734375" lon="-5.66605246625840663909912109375">
        <ele>41</ele>
        <time>2022-06-04T12:19:14.000Z</time>
      </trkpt>
      <trkpt lat="43.49028236232697963714599609375" lon="-5.66617517732083797454833984375">
        <ele>41</ele>
        <time>2022-06-04T12:19:16.000Z</time>
      </trkpt>
      <trkpt lat="43.4902457334101200103759765625" lon="-5.6662528775632381439208984375">
        <ele>41</ele>
        <time>2022-06-04T12:19:18.000Z</time>
      </trkpt>
      <trkpt lat="43.49022838287055492401123046875" lon="-5.6662857346236705780029296875">
        <ele>41.200000762939453125</ele>
        <time>2022-06-04T12:19:20.000Z</time>
      </trkpt>
      <trkpt lat="43.4901793487370014190673828125" lon="-5.6664007343351840972900390625">
        <ele>41.200000762939453125</ele>
        <time>2022-06-04T12:19:22.000Z</time>
      </trkpt>
      <trkpt lat="43.49016241729259490966796875" lon="-5.6664399616420269012451171875">
        <ele>41.200000762939453125</ele>
        <time>2022-06-04T12:19:24.000Z</time>
      </trkpt>
      <trkpt lat="43.4901478327810764312744140625" lon="-5.66649067215621471405029296875">
        <ele>41.200000762939453125</ele>
        <time>2022-06-04T12:19:25.000Z</time>
      </trkpt>
      <trkpt lat="43.49013316445052623748779296875" lon="-5.66653761081397533416748046875">
        <ele>41.40000152587890625</ele>
        <time>2022-06-04T12:19:26.000Z</time>
      </trkpt>
      <trkpt lat="43.4900955297052860260009765625" lon="-5.6666203401982784271240234375">
        <ele>41.40000152587890625</ele>
        <time>2022-06-04T12:19:28.000Z</time>
      </trkpt>
      <trkpt lat="43.4900772571563720703125" lon="-5.66665596328675746917724609375">
        <ele>41.59999847412109375</ele>
        <time>2022-06-04T12:19:29.000Z</time>
      </trkpt>
      <trkpt lat="43.4900703839957714080810546875" lon="-5.66669695079326629638671875">
        <ele>41.59999847412109375</ele>
        <time>2022-06-04T12:19:30.000Z</time>
      </trkpt>
      <trkpt lat="43.49008538760244846343994140625" lon="-5.66677968017756938934326171875">
        <ele>41.59999847412109375</ele>
        <time>2022-06-04T12:19:32.000Z</time>
      </trkpt>
      <trkpt lat="43.4901498444378376007080078125" lon="-5.66688965074717998504638671875">
        <ele>41.799999237060546875</ele>
        <time>2022-06-04T12:19:34.000Z</time>
      </trkpt>
      <trkpt lat="43.4901498444378376007080078125" lon="-5.66688965074717998504638671875">
        <ele>41.799999237060546875</ele>
        <time>2022-06-04T12:19:35.000Z</time>
      </trkpt>
      <trkpt lat="43.4901724755764007568359375" lon="-5.6669341586530208587646484375">
        <ele>42</ele>
        <time>2022-06-04T12:19:36.000Z</time>
      </trkpt>
      <trkpt lat="43.49020801484584808349609375" lon="-5.66702510230243206024169921875">
        <ele>42</ele>
        <time>2022-06-04T12:19:38.000Z</time>
      </trkpt>
      <trkpt lat="43.49022234790027141571044921875" lon="-5.6671138666570186614990234375">
        <ele>42.200000762939453125</ele>
        <time>2022-06-04T12:19:40.000Z</time>
      </trkpt>
      <trkpt lat="43.49024933762848377227783203125" lon="-5.66725124605000019073486328125">
        <ele>42.200000762939453125</ele>
        <time>2022-06-04T12:19:42.000Z</time>
      </trkpt>
      <trkpt lat="43.4902608208358287811279296875" lon="-5.6672986038029193878173828125">
        <ele>42.200000762939453125</ele>
        <time>2022-06-04T12:19:44.000Z</time>
      </trkpt>
      <trkpt lat="43.4902852959930896759033203125" lon="-5.66739457659423351287841796875">
        <ele>42.200000762939453125</ele>
        <time>2022-06-04T12:19:46.000Z</time>
      </trkpt>
      <trkpt lat="43.49029644392430782318115234375" lon="-5.6674902141094207763671875">
        <ele>42.40000152587890625</ele>
        <time>2022-06-04T12:19:48.000Z</time>
      </trkpt>
      <trkpt lat="43.4902958571910858154296875" lon="-5.667538158595561981201171875">
        <ele>42.59999847412109375</ele>
        <time>2022-06-04T12:19:49.000Z</time>
      </trkpt>
      <trkpt lat="43.4902889840304851531982421875" lon="-5.6675862707197666168212890625">
        <ele>42.59999847412109375</ele>
        <time>2022-06-04T12:19:50.000Z</time>
      </trkpt>
      <trkpt lat="43.49027582444250583648681640625" lon="-5.66768844611942768096923828125">
        <ele>42.59999847412109375</ele>
        <time>2022-06-04T12:19:52.000Z</time>
      </trkpt>
      <trkpt lat="43.49026928655803203582763671875" lon="-5.6677398271858692169189453125">
        <ele>42.59999847412109375</ele>
        <time>2022-06-04T12:19:53.000Z</time>
      </trkpt>
      <trkpt lat="43.49025956355035305023193359375" lon="-5.66778969950973987579345703125">
        <ele>42.59999847412109375</ele>
        <time>2022-06-04T12:19:54.000Z</time>
      </trkpt>
      <trkpt lat="43.4902299754321575164794921875" lon="-5.66787779331207275390625">
        <ele>42.799999237060546875</ele>
        <time>2022-06-04T12:19:56.000Z</time>
      </trkpt>
      <trkpt lat="43.49018714390695095062255859375" lon="-5.66795599646866321563720703125">
        <ele>42.799999237060546875</ele>
        <time>2022-06-04T12:19:58.000Z</time>
      </trkpt>
      <trkpt lat="43.49013517610728740692138671875" lon="-5.66803277470171451568603515625">
        <ele>43</ele>
        <time>2022-06-04T12:20:00.000Z</time>
      </trkpt>
      <trkpt lat="43.49008287303149700164794921875" lon="-5.668106786906719207763671875">
        <ele>43</ele>
        <time>2022-06-04T12:20:02.000Z</time>
      </trkpt>
      <trkpt lat="43.489998467266559600830078125" lon="-5.6682015024125576019287109375">
        <ele>43</ele>
        <time>2022-06-04T12:20:04.000Z</time>
      </trkpt>
      <trkpt lat="43.48994138650596141815185546875" lon="-5.6682507880032062530517578125">
        <ele>43.200000762939453125</ele>
        <time>2022-06-04T12:20:06.000Z</time>
      </trkpt>
      <trkpt lat="43.48991154693067073822021484375" lon="-5.66827316768467426300048828125">
        <ele>43.200000762939453125</ele>
        <time>2022-06-04T12:20:08.000Z</time>
      </trkpt>
      <trkpt lat="43.48985128104686737060546875" lon="-5.66830351017415523529052734375">
        <ele>43.40000152587890625</ele>
        <time>2022-06-04T12:20:10.000Z</time>
      </trkpt>
      <trkpt lat="43.48975472152233123779296875" lon="-5.6683436594903469085693359375">
        <ele>43.40000152587890625</ele>
        <time>2022-06-04T12:20:12.000Z</time>
      </trkpt>
      <trkpt lat="43.48975472152233123779296875" lon="-5.6683436594903469085693359375">
        <ele>43.59999847412109375</ele>
        <time>2022-06-04T12:20:13.000Z</time>
      </trkpt>
      <trkpt lat="43.489722870290279388427734375" lon="-5.66836235113441944122314453125">
        <ele>43.59999847412109375</ele>
        <time>2022-06-04T12:20:14.000Z</time>
      </trkpt>
      <trkpt lat="43.489658497273921966552734375" lon="-5.66840375773608684539794921875">
        <ele>43.59999847412109375</ele>
        <time>2022-06-04T12:20:16.000Z</time>
      </trkpt>
      <trkpt lat="43.4895634464919567108154296875" lon="-5.66846695728600025177001953125">
        <ele>43.799999237060546875</ele>
        <time>2022-06-04T12:20:18.000Z</time>
      </trkpt>
      <trkpt lat="43.48953268490731716156005859375" lon="-5.66848740912973880767822265625">
        <ele>43.799999237060546875</ele>
        <time>2022-06-04T12:20:20.000Z</time>
      </trkpt>
      <trkpt lat="43.48950368352234363555908203125" lon="-5.6685076095163822174072265625">
        <ele>43.799999237060546875</ele>
        <time>2022-06-04T12:20:21.000Z</time>
      </trkpt>
      <trkpt lat="43.489473424851894378662109375" lon="-5.66853049211204051971435546875">
        <ele>43.799999237060546875</ele>
        <time>2022-06-04T12:20:22.000Z</time>
      </trkpt>
      <trkpt lat="43.48941248841583728790283203125" lon="-5.6685738265514373779296875">
        <ele>44</ele>
        <time>2022-06-04T12:20:24.000Z</time>
      </trkpt>
      <trkpt lat="43.489352725446224212646484375" lon="-5.66862277686595916748046875">
        <ele>44.40000152587890625</ele>
        <time>2022-06-04T12:20:26.000Z</time>
      </trkpt>
      <trkpt lat="43.48932146094739437103271484375" lon="-5.6686490960419178009033203125">
        <ele>44.59999847412109375</ele>
        <time>2022-06-04T12:20:27.000Z</time>
      </trkpt>
      <trkpt lat="43.48929313011467456817626953125" lon="-5.6686799414455890655517578125">
        <ele>44.59999847412109375</ele>
        <time>2022-06-04T12:20:28.000Z</time>
      </trkpt>
      <trkpt lat="43.48926329053938388824462890625" lon="-5.6687144748866558074951171875">
        <ele>44.59999847412109375</ele>
        <time>2022-06-04T12:20:29.000Z</time>
      </trkpt>
      <trkpt lat="43.48923093639314174652099609375" lon="-5.6687490083277225494384765625">
        <ele>44.799999237060546875</ele>
        <time>2022-06-04T12:20:30.000Z</time>
      </trkpt>
      <trkpt lat="43.48916991613805294036865234375" lon="-5.66881614737212657928466796875">
        <ele>44.799999237060546875</ele>
        <time>2022-06-04T12:20:32.000Z</time>
      </trkpt>
      <trkpt lat="43.48910101689398288726806640625" lon="-5.66890348680317401885986328125">
        <ele>44.799999237060546875</ele>
        <time>2022-06-04T12:20:34.000Z</time>
      </trkpt>
      <trkpt lat="43.48906950093805789947509765625" lon="-5.6689555384218692779541015625">
        <ele>45</ele>
        <time>2022-06-04T12:20:35.000Z</time>
      </trkpt>
      <trkpt lat="43.48902138881385326385498046875" lon="-5.66906676627695560455322265625">
        <ele>45</ele>
        <time>2022-06-04T12:20:36.000Z</time>
      </trkpt>
      <trkpt lat="43.48900906741619110107421875" lon="-5.6691218353807926177978515625">
        <ele>45</ele>
        <time>2022-06-04T12:20:38.000Z</time>
      </trkpt>
      <trkpt lat="43.489001691341400146484375" lon="-5.6691724620759487152099609375">
        <ele>45</ele>
        <time>2022-06-04T12:20:39.000Z</time>
      </trkpt>
      <trkpt lat="43.48899926058948040008544921875" lon="-5.6692247651517391204833984375">
        <ele>45</ele>
        <time>2022-06-04T12:20:40.000Z</time>
      </trkpt>
      <trkpt lat="43.48899020813405513763427734375" lon="-5.66928637214004993438720703125">
        <ele>45.200000762939453125</ele>
        <time>2022-06-04T12:20:41.000Z</time>
      </trkpt>
      <trkpt lat="43.4889743663370609283447265625" lon="-5.66935627721250057220458984375">
        <ele>45.200000762939453125</ele>
        <time>2022-06-04T12:20:42.000Z</time>
      </trkpt>
      <trkpt lat="43.48894176073372364044189453125" lon="-5.66950228996574878692626953125">
        <ele>45.200000762939453125</ele>
        <time>2022-06-04T12:20:44.000Z</time>
      </trkpt>
      <trkpt lat="43.48890471272170543670654296875" lon="-5.66964603960514068603515625">
        <ele>45.40000152587890625</ele>
        <time>2022-06-04T12:20:46.000Z</time>
      </trkpt>
      <trkpt lat="43.488884679973125457763671875" lon="-5.66971099935472011566162109375">
        <ele>45.40000152587890625</ele>
        <time>2022-06-04T12:20:47.000Z</time>
      </trkpt>
      <trkpt lat="43.4888640604913234710693359375" lon="-5.66977478563785552978515625">
        <ele>45.40000152587890625</ele>
        <time>2022-06-04T12:20:48.000Z</time>
      </trkpt>
      <trkpt lat="43.48881150595843791961669921875" lon="-5.66990847699344158172607421875">
        <ele>45.59999847412109375</ele>
        <time>2022-06-04T12:20:50.000Z</time>
      </trkpt>
      <trkpt lat="43.48874528892338275909423828125" lon="-5.67004702985286712646484375">
        <ele>45.59999847412109375</ele>
        <time>2022-06-04T12:20:52.000Z</time>
      </trkpt>
      <trkpt lat="43.48866884596645832061767578125" lon="-5.6701796315610408782958984375">
        <ele>45.59999847412109375</ele>
        <time>2022-06-04T12:20:54.000Z</time>
      </trkpt>
      <trkpt lat="43.4886327199637889862060546875" lon="-5.670242495834827423095703125">
        <ele>45.59999847412109375</ele>
        <time>2022-06-04T12:20:55.000Z</time>
      </trkpt>
      <trkpt lat="43.488602377474308013916015625" lon="-5.6703043542802333831787109375">
        <ele>45.59999847412109375</ele>
        <time>2022-06-04T12:20:56.000Z</time>
      </trkpt>
      <trkpt lat="43.48857312463223934173583984375" lon="-5.6703655421733856201171875">
        <ele>45.59999847412109375</ele>
        <time>2022-06-04T12:20:57.000Z</time>
      </trkpt>
      <trkpt lat="43.48854563198983669281005859375" lon="-5.67042765207588672637939453125">
        <ele>45.799999237060546875</ele>
        <time>2022-06-04T12:20:58.000Z</time>
      </trkpt>
      <trkpt lat="43.488460220396518707275390625" lon="-5.670606605708599090576171875">
        <ele>45.799999237060546875</ele>
        <time>2022-06-04T12:21:00.000Z</time>
      </trkpt>
      <trkpt lat="43.4884238429367542266845703125" lon="-5.67066033370792865753173828125">
        <ele>45.799999237060546875</ele>
        <time>2022-06-04T12:21:02.000Z</time>
      </trkpt>
      <trkpt lat="43.48831035196781158447265625" lon="-5.670786313712596893310546875">
        <ele>45.799999237060546875</ele>
        <time>2022-06-04T12:21:04.000Z</time>
      </trkpt>
      <trkpt lat="43.4882303886115550994873046875" lon="-5.670854710042476654052734375">
        <ele>45.799999237060546875</ele>
        <time>2022-06-04T12:21:06.000Z</time>
      </trkpt>
      <trkpt lat="43.4882303886115550994873046875" lon="-5.670854710042476654052734375">
        <ele>46</ele>
        <time>2022-06-04T12:21:07.000Z</time>
      </trkpt>
      <trkpt lat="43.4881975315511226654052734375" lon="-5.6709034927189350128173828125">
        <ele>46</ele>
        <time>2022-06-04T12:21:08.000Z</time>
      </trkpt>
      <trkpt lat="43.488103486597537994384765625" lon="-5.67102134227752685546875">
        <ele>46.200000762939453125</ele>
        <time>2022-06-04T12:21:10.000Z</time>
      </trkpt>
      <trkpt lat="43.48806618712842464447021484375" lon="-5.6710272096097469329833984375">
        <ele>46.40000152587890625</ele>
        <time>2022-06-04T12:21:12.000Z</time>
      </trkpt>
      <trkpt lat="43.48799921572208404541015625" lon="-5.67100994288921356201171875">
        <ele>46.59999847412109375</ele>
        <time>2022-06-04T12:21:14.000Z</time>
      </trkpt>
      <trkpt lat="43.48794263787567615509033203125" lon="-5.6709906645119190216064453125">
        <ele>46.799999237060546875</ele>
        <time>2022-06-04T12:21:16.000Z</time>
      </trkpt>
      <trkpt lat="43.48787709139287471771240234375" lon="-5.67097297869622707366943359375">
        <ele>46.799999237060546875</ele>
        <time>2022-06-04T12:21:18.000Z</time>
      </trkpt>
      <trkpt lat="43.4878582321107387542724609375" lon="-5.67096979357302188873291015625">
        <ele>47.200000762939453125</ele>
        <time>2022-06-04T12:21:20.000Z</time>
      </trkpt>
      <trkpt lat="43.48782763816416263580322265625" lon="-5.67098219878971576690673828125">
        <ele>47.59999847412109375</ele>
        <time>2022-06-04T12:21:22.000Z</time>
      </trkpt>
      <trkpt lat="43.48779628984630107879638671875" lon="-5.67100650630891323089599609375">
        <ele>48.59999847412109375</ele>
        <time>2022-06-04T12:21:24.000Z</time>
      </trkpt>
      <trkpt lat="43.48777919076383113861083984375" lon="-5.6710225157439708709716796875">
        <ele>48.59999847412109375</ele>
        <time>2022-06-04T12:21:25.000Z</time>
      </trkpt>
      <trkpt lat="43.48776318132877349853515625" lon="-5.67104204557836055755615234375">
        <ele>48.799999237060546875</ele>
        <time>2022-06-04T12:21:26.000Z</time>
      </trkpt>
      <trkpt lat="43.487721271812915802001953125" lon="-5.671106167137622833251953125">
        <ele>49.59999847412109375</ele>
        <time>2022-06-04T12:21:28.000Z</time>
      </trkpt>
      <trkpt lat="43.487721271812915802001953125" lon="-5.671106167137622833251953125">
        <ele>49.59999847412109375</ele>
        <time>2022-06-04T12:21:29.000Z</time>
      </trkpt>
      <trkpt lat="43.48770006559789180755615234375" lon="-5.6711542792618274688720703125">
        <ele>50</ele>
        <time>2022-06-04T12:21:30.000Z</time>
      </trkpt>
      <trkpt lat="43.4876932762563228607177734375" lon="-5.6711782515048980712890625">
        <ele>50.40000152587890625</ele>
        <time>2022-06-04T12:21:32.000Z</time>
      </trkpt>
      <trkpt lat="43.48767659626901149749755859375" lon="-5.6712277047336101531982421875">
        <ele>50.799999237060546875</ele>
        <time>2022-06-04T12:21:34.000Z</time>
      </trkpt>
      <trkpt lat="43.48765321075916290283203125" lon="-5.67127372138202190399169921875">
        <ele>51.200000762939453125</ele>
        <time>2022-06-04T12:21:36.000Z</time>
      </trkpt>
      <trkpt lat="43.48763468675315380096435546875" lon="-5.6713155470788478851318359375">
        <ele>51.799999237060546875</ele>
        <time>2022-06-04T12:21:38.000Z</time>
      </trkpt>
      <trkpt lat="43.48762580193579196929931640625" lon="-5.6713378429412841796875">
        <ele>52</ele>
        <time>2022-06-04T12:21:39.000Z</time>
      </trkpt>
      <trkpt lat="43.48760266788303852081298828125" lon="-5.67138251848518848419189453125">
        <ele>52.200000762939453125</ele>
        <time>2022-06-04T12:21:40.000Z</time>
      </trkpt>
      <trkpt lat="43.48757483996450901031494140625" lon="-5.67142409272491931915283203125">
        <ele>52.40000152587890625</ele>
        <time>2022-06-04T12:21:42.000Z</time>
      </trkpt>
      <trkpt lat="43.487562350928783416748046875" lon="-5.67144286818802356719970703125">
        <ele>52.799999237060546875</ele>
        <time>2022-06-04T12:21:44.000Z</time>
      </trkpt>
      <trkpt lat="43.4875340200960636138916015625" lon="-5.67147396504878997802734375">
        <ele>53</ele>
        <time>2022-06-04T12:21:46.000Z</time>
      </trkpt>
      <trkpt lat="43.48752044141292572021484375" lon="-5.671486370265483856201171875">
        <ele>53</ele>
        <time>2022-06-04T12:21:47.000Z</time>
      </trkpt>
      <trkpt lat="43.48749496042728424072265625" lon="-5.671502463519573211669921875">
        <ele>53.200000762939453125</ele>
        <time>2022-06-04T12:21:48.000Z</time>
      </trkpt>
      <trkpt lat="43.48748381249606609344482421875" lon="-5.67150590009987354278564453125">
        <ele>53.40000152587890625</ele>
        <time>2022-06-04T12:21:50.000Z</time>
      </trkpt>
      <trkpt lat="43.48743804730474948883056640625" lon="-5.67149902693927288055419921875">
        <ele>53.40000152587890625</ele>
        <time>2022-06-04T12:21:52.000Z</time>
      </trkpt>
      <trkpt lat="43.48740804009139537811279296875" lon="-5.67148259840905666351318359375">
        <ele>53.799999237060546875</ele>
        <time>2022-06-04T12:21:54.000Z</time>
      </trkpt>
      <trkpt lat="43.4873937070369720458984375" lon="-5.67147606052458286285400390625">
        <ele>54</ele>
        <time>2022-06-04T12:21:56.000Z</time>
      </trkpt>
      <trkpt lat="43.48737970925867557525634765625" lon="-5.67146784625947475433349609375">
        <ele>54.200000762939453125</ele>
        <time>2022-06-04T12:21:57.000Z</time>
      </trkpt>
      <trkpt lat="43.48736629821360111236572265625" lon="-5.67145996727049350738525390625">
        <ele>54.200000762939453125</ele>
        <time>2022-06-04T12:21:58.000Z</time>
      </trkpt>
      <trkpt lat="43.4873395599424839019775390625" lon="-5.671436078846454620361328125">
        <ele>54.59999847412109375</ele>
        <time>2022-06-04T12:22:00.000Z</time>
      </trkpt>
      <trkpt lat="43.48732807673513889312744140625" lon="-5.67142342217266559600830078125">
        <ele>54.799999237060546875</ele>
        <time>2022-06-04T12:22:01.000Z</time>
      </trkpt>
      <trkpt lat="43.487317264080047607421875" lon="-5.67140758037567138671875">
        <ele>55.200000762939453125</ele>
        <time>2022-06-04T12:22:02.000Z</time>
      </trkpt>
      <trkpt lat="43.4872872568666934967041015625" lon="-5.67138000391423702239990234375">
        <ele>55.59999847412109375</ele>
        <time>2022-06-04T12:22:04.000Z</time>
      </trkpt>
      <trkpt lat="43.4872329421341419219970703125" lon="-5.6713410280644893646240234375">
        <ele>56</ele>
        <time>2022-06-04T12:22:06.000Z</time>
      </trkpt>
      <trkpt lat="43.4872329421341419219970703125" lon="-5.6713410280644893646240234375">
        <ele>56.200000762939453125</ele>
        <time>2022-06-04T12:22:07.000Z</time>
      </trkpt>
      <trkpt lat="43.48721760325133800506591796875" lon="-5.67132652737200260162353515625">
        <ele>56.40000152587890625</ele>
        <time>2022-06-04T12:22:08.000Z</time>
      </trkpt>
      <trkpt lat="43.48719078116118907928466796875" lon="-5.67130423150956630706787109375">
        <ele>56.799999237060546875</ele>
        <time>2022-06-04T12:22:10.000Z</time>
      </trkpt>
      <trkpt lat="43.48716580308973789215087890625" lon="-5.6712853722274303436279296875">
        <ele>57.200000762939453125</ele>
        <time>2022-06-04T12:22:12.000Z</time>
      </trkpt>
      <trkpt lat="43.48715105094015598297119140625" lon="-5.671279169619083404541015625">
        <ele>57.200000762939453125</ele>
        <time>2022-06-04T12:22:13.000Z</time>
      </trkpt>
      <trkpt lat="43.4871362149715423583984375" lon="-5.671272464096546173095703125">
        <ele>57.40000152587890625</ele>
        <time>2022-06-04T12:22:14.000Z</time>
      </trkpt>
      <trkpt lat="43.48710495047271251678466796875" lon="-5.671248324215412139892578125">
        <ele>57.59999847412109375</ele>
        <time>2022-06-04T12:22:16.000Z</time>
      </trkpt>
      <trkpt lat="43.48704728297889232635498046875" lon="-5.67122854292392730712890625">
        <ele>58.200000762939453125</ele>
        <time>2022-06-04T12:22:18.000Z</time>
      </trkpt>
      <trkpt lat="43.48702632822096347808837890625" lon="-5.67122426815330982208251953125">
        <ele>58.40000152587890625</ele>
        <time>2022-06-04T12:22:20.000Z</time>
      </trkpt>
      <trkpt lat="43.48698173649609088897705078125" lon="-5.67121521569788455963134765625">
        <ele>58.799999237060546875</ele>
        <time>2022-06-04T12:22:22.000Z</time>
      </trkpt>
      <trkpt lat="43.48693580366671085357666015625" lon="-5.671196021139621734619140625">
        <ele>59</ele>
        <time>2022-06-04T12:22:24.000Z</time>
      </trkpt>
      <trkpt lat="43.48689439706504344940185546875" lon="-5.67117665894329547882080078125">
        <ele>59.40000152587890625</ele>
        <time>2022-06-04T12:22:26.000Z</time>
      </trkpt>
      <trkpt lat="43.48687444813549518585205078125" lon="-5.67116877995431423187255859375">
        <ele>59.40000152587890625</ele>
        <time>2022-06-04T12:22:27.000Z</time>
      </trkpt>
      <trkpt lat="43.486853577196598052978515625" lon="-5.67116140387952327728271484375">
        <ele>59.59999847412109375</ele>
        <time>2022-06-04T12:22:28.000Z</time>
      </trkpt>
      <trkpt lat="43.48681694827973842620849609375" lon="-5.67115134559571743011474609375">
        <ele>59.799999237060546875</ele>
        <time>2022-06-04T12:22:30.000Z</time>
      </trkpt>
      <trkpt lat="43.48678140901029109954833984375" lon="-5.67114279605448246002197265625">
        <ele>60</ele>
        <time>2022-06-04T12:22:32.000Z</time>
      </trkpt>
      <trkpt lat="43.486744947731494903564453125" lon="-5.6711311452090740203857421875">
        <ele>60.200000762939453125</ele>
        <time>2022-06-04T12:22:34.000Z</time>
      </trkpt>
      <trkpt lat="43.4867084026336669921875" lon="-5.67112452350556850433349609375">
        <ele>60.40000152587890625</ele>
        <time>2022-06-04T12:22:36.000Z</time>
      </trkpt>
      <trkpt lat="43.48666976206004619598388671875" lon="-5.67112536169588565826416015625">
        <ele>60.40000152587890625</ele>
        <time>2022-06-04T12:22:38.000Z</time>
      </trkpt>
      <trkpt lat="43.48663170821964740753173828125" lon="-5.671125613152980804443359375">
        <ele>60.59999847412109375</ele>
        <time>2022-06-04T12:22:40.000Z</time>
      </trkpt>
      <trkpt lat="43.4865714423358440399169921875" lon="-5.67112796008586883544921875">
        <ele>60.799999237060546875</ele>
        <time>2022-06-04T12:22:42.000Z</time>
      </trkpt>
      <trkpt lat="43.48655023612082004547119140625" lon="-5.67112670280039310455322265625">
        <ele>61.40000152587890625</ele>
        <time>2022-06-04T12:22:44.000Z</time>
      </trkpt>
      <trkpt lat="43.48648779094219207763671875" lon="-5.67112502641975879669189453125">
        <ele>61.40000152587890625</ele>
        <time>2022-06-04T12:22:46.000Z</time>
      </trkpt>
      <trkpt lat="43.48648779094219207763671875" lon="-5.67112502641975879669189453125">
        <ele>61.59999847412109375</ele>
        <time>2022-06-04T12:22:47.000Z</time>
      </trkpt>
      <trkpt lat="43.48646775819361209869384765625" lon="-5.6711237691342830657958984375">
        <ele>61.799999237060546875</ele>
        <time>2022-06-04T12:22:48.000Z</time>
      </trkpt>
      <trkpt lat="43.48642316646873950958251953125" lon="-5.671120248734951019287109375">
        <ele>62</ele>
        <time>2022-06-04T12:22:50.000Z</time>
      </trkpt>
      <trkpt lat="43.4863810054957866668701171875" lon="-5.671116225421428680419921875">
        <ele>62.40000152587890625</ele>
        <time>2022-06-04T12:22:52.000Z</time>
      </trkpt>
      <trkpt lat="43.48635946400463581085205078125" lon="-5.67111589014530181884765625">
        <ele>62.59999847412109375</ele>
        <time>2022-06-04T12:22:53.000Z</time>
      </trkpt>
      <trkpt lat="43.48633767105638980865478515625" lon="-5.67111790180206298828125">
        <ele>62.799999237060546875</ele>
        <time>2022-06-04T12:22:54.000Z</time>
      </trkpt>
      <trkpt lat="43.4862965159118175506591796875" lon="-5.67111681215465068817138671875">
        <ele>62.799999237060546875</ele>
        <time>2022-06-04T12:22:56.000Z</time>
      </trkpt>
      <trkpt lat="43.4862556122243404388427734375" lon="-5.67111052572727203369140625">
        <ele>63.200000762939453125</ele>
        <time>2022-06-04T12:22:58.000Z</time>
      </trkpt>
      <trkpt lat="43.4862148761749267578125" lon="-5.6711080111563205718994140625">
        <ele>63.200000762939453125</ele>
        <time>2022-06-04T12:23:00.000Z</time>
      </trkpt>
      <trkpt lat="43.4861734695732593536376953125" lon="-5.6711165606975555419921875">
        <ele>63.40000152587890625</ele>
        <time>2022-06-04T12:23:02.000Z</time>
      </trkpt>
      <trkpt lat="43.48613399080932140350341796875" lon="-5.6711251102387905120849609375">
        <ele>63.799999237060546875</ele>
        <time>2022-06-04T12:23:04.000Z</time>
      </trkpt>
      <trkpt lat="43.48611320368945598602294921875" lon="-5.67112720571458339691162109375">
        <ele>63.799999237060546875</ele>
        <time>2022-06-04T12:23:05.000Z</time>
      </trkpt>
      <trkpt lat="43.4860926680266857147216796875" lon="-5.6711267866194248199462890625">
        <ele>64</ele>
        <time>2022-06-04T12:23:06.000Z</time>
      </trkpt>
      <trkpt lat="43.48604883067309856414794921875" lon="-5.6711180694401264190673828125">
        <ele>64.1999969482421875</ele>
        <time>2022-06-04T12:23:08.000Z</time>
      </trkpt>
      <trkpt lat="43.48602837882936000823974609375" lon="-5.6711090169847011566162109375">
        <ele>64.40000152587890625</ele>
        <time>2022-06-04T12:23:09.000Z</time>
      </trkpt>
      <trkpt lat="43.48600977100431919097900390625" lon="-5.671094097197055816650390625">
        <ele>64.59999847412109375</ele>
        <time>2022-06-04T12:23:10.000Z</time>
      </trkpt>
      <trkpt lat="43.485992252826690673828125" lon="-5.67107825540006160736083984375">
        <ele>64.8000030517578125</ele>
        <time>2022-06-04T12:23:11.000Z</time>
      </trkpt>
      <trkpt lat="43.48597473464906215667724609375" lon="-5.67106216214597225189208984375">
        <ele>65</ele>
        <time>2022-06-04T12:23:12.000Z</time>
      </trkpt>
      <trkpt lat="43.48594388924539089202880859375" lon="-5.6710329093039035797119140625">
        <ele>65.59999847412109375</ele>
        <time>2022-06-04T12:23:14.000Z</time>
      </trkpt>
      <trkpt lat="43.48591354675590991973876953125" lon="-5.671002902090549468994140625">
        <ele>65.8000030517578125</ele>
        <time>2022-06-04T12:23:16.000Z</time>
      </trkpt>
      <trkpt lat="43.48588286899030208587646484375" lon="-5.6709708832204341888427734375">
        <ele>66.1999969482421875</ele>
        <time>2022-06-04T12:23:18.000Z</time>
      </trkpt>
      <trkpt lat="43.4858616627752780914306640625" lon="-5.670930482447147369384765625">
        <ele>66.1999969482421875</ele>
        <time>2022-06-04T12:23:20.000Z</time>
      </trkpt>
      <trkpt lat="43.485841713845729827880859375" lon="-5.6708786822855472564697265625">
        <ele>66.59999847412109375</ele>
        <time>2022-06-04T12:23:22.000Z</time>
      </trkpt>
      <trkpt lat="43.48583157174289226531982421875" lon="-5.67085093818604946136474609375">
        <ele>66.59999847412109375</ele>
        <time>2022-06-04T12:23:23.000Z</time>
      </trkpt>
      <trkpt lat="43.4858221001923084259033203125" lon="-5.6708226911723613739013671875">
        <ele>67</ele>
        <time>2022-06-04T12:23:24.000Z</time>
      </trkpt>
      <trkpt lat="43.4858120419085025787353515625" lon="-5.67079427652060985565185546875">
        <ele>67.1999969482421875</ele>
        <time>2022-06-04T12:23:25.000Z</time>
      </trkpt>
      <trkpt lat="43.48580139689147472381591796875" lon="-5.67076862789690494537353515625">
        <ele>67.1999969482421875</ele>
        <time>2022-06-04T12:23:26.000Z</time>
      </trkpt>
      <trkpt lat="43.4857781790196895599365234375" lon="-5.67071917466819286346435546875">
        <ele>67.40000152587890625</ele>
        <time>2022-06-04T12:23:28.000Z</time>
      </trkpt>
      <trkpt lat="43.4857563860714435577392578125" lon="-5.6706694699823856353759765625">
        <ele>67.59999847412109375</ele>
        <time>2022-06-04T12:23:30.000Z</time>
      </trkpt>
      <trkpt lat="43.485745824873447418212890625" lon="-5.6706473417580127716064453125">
        <ele>67.8000030517578125</ele>
        <time>2022-06-04T12:23:31.000Z</time>
      </trkpt>
      <trkpt lat="43.48573132418096065521240234375" lon="-5.67062772810459136962890625">
        <ele>67.8000030517578125</ele>
        <time>2022-06-04T12:23:32.000Z</time>
      </trkpt>
      <trkpt lat="43.48571338690817356109619140625" lon="-5.67061423324048519134521484375">
        <ele>68</ele>
        <time>2022-06-04T12:23:33.000Z</time>
      </trkpt>
      <trkpt lat="43.4856958687305450439453125" lon="-5.67061255685985088348388671875">
        <ele>68</ele>
        <time>2022-06-04T12:23:34.000Z</time>
      </trkpt>
      <trkpt lat="43.4856829605996608734130859375" lon="-5.67062378861010074615478515625">
        <ele>68</ele>
        <time>2022-06-04T12:23:35.000Z</time>
      </trkpt>
      <trkpt lat="43.485674075782299041748046875" lon="-5.67064457572996616363525390625">
        <ele>68.1999969482421875</ele>
        <time>2022-06-04T12:23:36.000Z</time>
      </trkpt>
      <trkpt lat="43.4856490977108478546142578125" lon="-5.6707035005092620849609375">
        <ele>68.40000152587890625</ele>
        <time>2022-06-04T12:23:38.000Z</time>
      </trkpt>
      <trkpt lat="43.4856234490871429443359375" lon="-5.67078673280775547027587890625">
        <ele>68.40000152587890625</ele>
        <time>2022-06-04T12:23:40.000Z</time>
      </trkpt>
      <trkpt lat="43.48559503443539142608642578125" lon="-5.67088882438838481903076171875">
        <ele>68.40000152587890625</ele>
        <time>2022-06-04T12:23:42.000Z</time>
      </trkpt>
      <trkpt lat="43.4855652786791324615478515625" lon="-5.6710161454975605010986328125">
        <ele>68.40000152587890625</ele>
        <time>2022-06-04T12:23:44.000Z</time>
      </trkpt>
      <trkpt lat="43.4855485148727893829345703125" lon="-5.67108429037034511566162109375">
        <ele>68.40000152587890625</ele>
        <time>2022-06-04T12:23:45.000Z</time>
      </trkpt>
      <trkpt lat="43.4855250455439090728759765625" lon="-5.671149753034114837646484375">
        <ele>68.40000152587890625</ele>
        <time>2022-06-04T12:23:46.000Z</time>
      </trkpt>
      <trkpt lat="43.48543862812221050262451171875" lon="-5.67122460342943668365478515625">
        <ele>68.1999969482421875</ele>
        <time>2022-06-04T12:23:48.000Z</time>
      </trkpt>
      <trkpt lat="43.4853543899953365325927734375" lon="-5.67116257734596729278564453125">
        <ele>67.8000030517578125</ele>
        <time>2022-06-04T12:23:50.000Z</time>
      </trkpt>
      <trkpt lat="43.48532103002071380615234375" lon="-5.67112083546817302703857421875">
        <ele>67.59999847412109375</ele>
        <time>2022-06-04T12:23:51.000Z</time>
      </trkpt>
      <trkpt lat="43.485289514064788818359375" lon="-5.6710825301706790924072265625">
        <ele>67.40000152587890625</ele>
        <time>2022-06-04T12:23:52.000Z</time>
      </trkpt>
      <trkpt lat="43.4852377139031887054443359375" lon="-5.67102335393428802490234375">
        <ele>67</ele>
        <time>2022-06-04T12:23:54.000Z</time>
      </trkpt>
      <trkpt lat="43.48521634005010128021240234375" lon="-5.6709990464150905609130859375">
        <ele>67</ele>
        <time>2022-06-04T12:23:55.000Z</time>
      </trkpt>
      <trkpt lat="43.485197313129901885986328125" lon="-5.67097549326717853546142578125">
        <ele>66.8000030517578125</ele>
        <time>2022-06-04T12:23:56.000Z</time>
      </trkpt>
      <trkpt lat="43.4851572476327419281005859375" lon="-5.670938193798065185546875">
        <ele>66.8000030517578125</ele>
        <time>2022-06-04T12:23:58.000Z</time>
      </trkpt>
      <trkpt lat="43.4851106442511081695556640625" lon="-5.6709341704845428466796875">
        <ele>66.8000030517578125</ele>
        <time>2022-06-04T12:24:00.000Z</time>
      </trkpt>
      <trkpt lat="43.48506881855428218841552734375" lon="-5.67096392624080181121826171875">
        <ele>66.59999847412109375</ele>
        <time>2022-06-04T12:24:02.000Z</time>
      </trkpt>
      <trkpt lat="43.48503847606480121612548828125" lon="-5.6710117869079113006591796875">
        <ele>66.8000030517578125</ele>
        <time>2022-06-04T12:24:04.000Z</time>
      </trkpt>
      <trkpt lat="43.4850251488387584686279296875" lon="-5.67104020155966281890869140625">
        <ele>67</ele>
        <time>2022-06-04T12:24:05.000Z</time>
      </trkpt>
      <trkpt lat="43.48501433618366718292236328125" lon="-5.6710681132972240447998046875">
        <ele>67.1999969482421875</ele>
        <time>2022-06-04T12:24:06.000Z</time>
      </trkpt>
      <trkpt lat="43.48500243388116359710693359375" lon="-5.6711314804852008819580078125">
        <ele>67.8000030517578125</ele>
        <time>2022-06-04T12:24:08.000Z</time>
      </trkpt>
      <trkpt lat="43.48500209860503673553466796875" lon="-5.67116559483110904693603515625">
        <ele>68.59999847412109375</ele>
        <time>2022-06-04T12:24:09.000Z</time>
      </trkpt>
      <trkpt lat="43.48500394262373447418212890625" lon="-5.67120172083377838134765625">
        <ele>69</ele>
        <time>2022-06-04T12:24:10.000Z</time>
      </trkpt>
      <trkpt lat="43.48500679247081279754638671875" lon="-5.671276487410068511962890625">
        <ele>69.59999847412109375</ele>
        <time>2022-06-04T12:24:12.000Z</time>
      </trkpt>
      <trkpt lat="43.48500997759401798248291015625" lon="-5.67131546325981616973876953125">
        <ele>69.8000030517578125</ele>
        <time>2022-06-04T12:24:13.000Z</time>
      </trkpt>
      <trkpt lat="43.4850145876407623291015625" lon="-5.67135569639503955841064453125">
        <ele>70</ele>
        <time>2022-06-04T12:24:14.000Z</time>
      </trkpt>
      <trkpt lat="43.48501970060169696807861328125" lon="-5.6714416109025478363037109375">
        <ele>70.1999969482421875</ele>
        <time>2022-06-04T12:24:16.000Z</time>
      </trkpt>
      <trkpt lat="43.48502053879201412200927734375" lon="-5.671487711369991302490234375">
        <ele>70.1999969482421875</ele>
        <time>2022-06-04T12:24:17.000Z</time>
      </trkpt>
      <trkpt lat="43.48502238281071186065673828125" lon="-5.67153557203710079193115234375">
        <ele>70.1999969482421875</ele>
        <time>2022-06-04T12:24:18.000Z</time>
      </trkpt>
      <trkpt lat="43.48502405919134616851806640625" lon="-5.67163749597966670989990234375">
        <ele>70.1999969482421875</ele>
        <time>2022-06-04T12:24:20.000Z</time>
      </trkpt>
      <trkpt lat="43.48503210581839084625244140625" lon="-5.6717460416257381439208984375">
        <ele>70.1999969482421875</ele>
        <time>2022-06-04T12:24:22.000Z</time>
      </trkpt>
      <trkpt lat="43.4850395657122135162353515625" lon="-5.67186196334660053253173828125">
        <ele>70.1999969482421875</ele>
        <time>2022-06-04T12:24:24.000Z</time>
      </trkpt>
      <trkpt lat="43.4850494563579559326171875" lon="-5.67198215983808040618896484375">
        <ele>70.1999969482421875</ele>
        <time>2022-06-04T12:24:26.000Z</time>
      </trkpt>
      <trkpt lat="43.485059849917888641357421875" lon="-5.6721054576337337493896484375">
        <ele>70.40000152587890625</ele>
        <time>2022-06-04T12:24:28.000Z</time>
      </trkpt>
      <trkpt lat="43.4850787930190563201904296875" lon="-5.67223076708614826202392578125">
        <ele>70.59999847412109375</ele>
        <time>2022-06-04T12:24:30.000Z</time>
      </trkpt>
      <trkpt lat="43.48509295843541622161865234375" lon="-5.6723579205572605133056640625">
        <ele>70.59999847412109375</ele>
        <time>2022-06-04T12:24:32.000Z</time>
      </trkpt>
      <trkpt lat="43.48509706556797027587890625" lon="-5.67242070101201534271240234375">
        <ele>70.59999847412109375</ele>
        <time>2022-06-04T12:24:33.000Z</time>
      </trkpt>
      <trkpt lat="43.48510251380503177642822265625" lon="-5.67248339764773845672607421875">
        <ele>70.59999847412109375</ele>
        <time>2022-06-04T12:24:34.000Z</time>
      </trkpt>
      <trkpt lat="43.48510871641337871551513671875" lon="-5.672547183930873870849609375">
        <ele>70.59999847412109375</ele>
        <time>2022-06-04T12:24:35.000Z</time>
      </trkpt>
      <trkpt lat="43.48511517047882080078125" lon="-5.672611892223358154296875">
        <ele>70.40000152587890625</ele>
        <time>2022-06-04T12:24:36.000Z</time>
      </trkpt>
      <trkpt lat="43.4851247258484363555908203125" lon="-5.6727418117225170135498046875">
        <ele>70.59999847412109375</ele>
        <time>2022-06-04T12:24:38.000Z</time>
      </trkpt>
      <trkpt lat="43.48513402976095676422119140625" lon="-5.67286661826074123382568359375">
        <ele>70.59999847412109375</ele>
        <time>2022-06-04T12:24:40.000Z</time>
      </trkpt>
      <trkpt lat="43.4851433336734771728515625" lon="-5.6729887425899505615234375">
        <ele>70.59999847412109375</ele>
        <time>2022-06-04T12:24:42.000Z</time>
      </trkpt>
      <trkpt lat="43.48515062592923641204833984375" lon="-5.6731179915368556976318359375">
        <ele>70.59999847412109375</ele>
        <time>2022-06-04T12:24:44.000Z</time>
      </trkpt>
      <trkpt lat="43.4851609356701374053955078125" lon="-5.67323810420930385589599609375">
        <ele>70.8000030517578125</ele>
        <time>2022-06-04T12:24:46.000Z</time>
      </trkpt>
      <trkpt lat="43.4851683117449283599853515625" lon="-5.673296861350536346435546875">
        <ele>70.8000030517578125</ele>
        <time>2022-06-04T12:24:47.000Z</time>
      </trkpt>
      <trkpt lat="43.48517325706779956817626953125" lon="-5.6733580492436885833740234375">
        <ele>70.8000030517578125</ele>
        <time>2022-06-04T12:24:48.000Z</time>
      </trkpt>
      <trkpt lat="43.48518465645611286163330078125" lon="-5.673492662608623504638671875">
        <ele>71</ele>
        <time>2022-06-04T12:24:50.000Z</time>
      </trkpt>
      <trkpt lat="43.4851880930364131927490234375" lon="-5.67355879582464694976806640625">
        <ele>71</ele>
        <time>2022-06-04T12:24:51.000Z</time>
      </trkpt>
      <trkpt lat="43.485193960368633270263671875" lon="-5.673626773059368133544921875">
        <ele>71</ele>
        <time>2022-06-04T12:24:52.000Z</time>
      </trkpt>
      <trkpt lat="43.48520058207213878631591796875" lon="-5.673693157732486724853515625">
        <ele>71</ele>
        <time>2022-06-04T12:24:53.000Z</time>
      </trkpt>
      <trkpt lat="43.48520963452756404876708984375" lon="-5.67375786602497100830078125">
        <ele>71</ele>
        <time>2022-06-04T12:24:54.000Z</time>
      </trkpt>
      <trkpt lat="43.48522354848682880401611328125" lon="-5.6738924793899059295654296875">
        <ele>71.1999969482421875</ele>
        <time>2022-06-04T12:24:56.000Z</time>
      </trkpt>
      <trkpt lat="43.48523276858031749725341796875" lon="-5.6740316189825534820556640625">
        <ele>71.1999969482421875</ele>
        <time>2022-06-04T12:24:58.000Z</time>
      </trkpt>
      <trkpt lat="43.48524265922605991363525390625" lon="-5.674178637564182281494140625">
        <ele>71.1999969482421875</ele>
        <time>2022-06-04T12:25:00.000Z</time>
      </trkpt>
      <trkpt lat="43.48525908775627613067626953125" lon="-5.67432121373713016510009765625">
        <ele>71.40000152587890625</ele>
        <time>2022-06-04T12:25:02.000Z</time>
      </trkpt>
      <trkpt lat="43.48527853377163410186767578125" lon="-5.6744590960443019866943359375">
        <ele>71.40000152587890625</ele>
        <time>2022-06-04T12:25:04.000Z</time>
      </trkpt>
      <trkpt lat="43.4852935373783111572265625" lon="-5.6745935417711734771728515625">
        <ele>71.40000152587890625</ele>
        <time>2022-06-04T12:25:06.000Z</time>
      </trkpt>
      <trkpt lat="43.48529865033924579620361328125" lon="-5.674660094082355499267578125">
        <ele>71.40000152587890625</ele>
        <time>2022-06-04T12:25:07.000Z</time>
      </trkpt>
      <trkpt lat="43.48530359566211700439453125" lon="-5.674725472927093505859375">
        <ele>71.40000152587890625</ele>
        <time>2022-06-04T12:25:08.000Z</time>
      </trkpt>
      <trkpt lat="43.48531700670719146728515625" lon="-5.67485799081623554229736328125">
        <ele>71.40000152587890625</ele>
        <time>2022-06-04T12:25:10.000Z</time>
      </trkpt>
      <trkpt lat="43.4853302501142024993896484375" lon="-5.67499109543859958648681640625">
        <ele>71.40000152587890625</ele>
        <time>2022-06-04T12:25:12.000Z</time>
      </trkpt>
      <trkpt lat="43.48533955402672290802001953125" lon="-5.67511581815779209136962890625">
        <ele>71.40000152587890625</ele>
        <time>2022-06-04T12:25:14.000Z</time>
      </trkpt>
      <trkpt lat="43.4853443317115306854248046875" lon="-5.67517465911805629730224609375">
        <ele>71.40000152587890625</ele>
        <time>2022-06-04T12:25:15.000Z</time>
      </trkpt>
      <trkpt lat="43.4853490255773067474365234375" lon="-5.67523132078349590301513671875">
        <ele>71.40000152587890625</ele>
        <time>2022-06-04T12:25:16.000Z</time>
      </trkpt>
      <trkpt lat="43.4853567369282245635986328125" lon="-5.67534011788666248321533203125">
        <ele>71.40000152587890625</ele>
        <time>2022-06-04T12:25:18.000Z</time>
      </trkpt>
      <trkpt lat="43.4853605926036834716796875" lon="-5.6754186563193798065185546875">
        <ele>71.40000152587890625</ele>
        <time>2022-06-04T12:25:20.000Z</time>
      </trkpt>
      <trkpt lat="43.48536453209817409515380859375" lon="-5.67542946897447109222412109375">
        <ele>71.40000152587890625</ele>
        <time>2022-06-04T12:25:21.000Z</time>
      </trkpt>
      <trkpt lat="43.48536469973623752593994140625" lon="-5.67543198354542255401611328125">
        <ele>71.40000152587890625</ele>
        <time>2022-06-04T12:25:22.000Z</time>
      </trkpt>
      <trkpt lat="43.4853654541075229644775390625" lon="-5.675433240830898284912109375">
        <ele>71.1999969482421875</ele>
        <time>2022-06-04T12:25:23.000Z</time>
      </trkpt>
      <trkpt lat="43.4853748418390750885009765625" lon="-5.6755212508141994476318359375">
        <ele>70</ele>
        <time>2022-06-04T12:30:02.000Z</time>
      </trkpt>
      <trkpt lat="43.48539303056895732879638671875" lon="-5.67557916976511478424072265625">
        <ele>70</ele>
        <time>2022-06-04T12:30:04.000Z</time>
      </trkpt>
      <trkpt lat="43.485406525433063507080078125" lon="-5.67567908205091953277587890625">
        <ele>70</ele>
        <time>2022-06-04T12:30:06.000Z</time>
      </trkpt>
      <trkpt lat="43.48541515879333019256591796875" lon="-5.67580397240817546844482421875">
        <ele>70.1999969482421875</ele>
        <time>2022-06-04T12:30:08.000Z</time>
      </trkpt>
      <trkpt lat="43.485428653657436370849609375" lon="-5.67594294436275959014892578125">
        <ele>70.1999969482421875</ele>
        <time>2022-06-04T12:30:10.000Z</time>
      </trkpt>
      <trkpt lat="43.4854410588741302490234375" lon="-5.67609348334372043609619140625">
        <ele>70.40000152587890625</ele>
        <time>2022-06-04T12:30:12.000Z</time>
      </trkpt>
      <trkpt lat="43.485454805195331573486328125" lon="-5.67624905146658420562744140625">
        <ele>70.40000152587890625</ele>
        <time>2022-06-04T12:30:14.000Z</time>
      </trkpt>
      <trkpt lat="43.4854687191545963287353515625" lon="-5.6764073856174945831298828125">
        <ele>70.59999847412109375</ele>
        <time>2022-06-04T12:30:16.000Z</time>
      </trkpt>
      <trkpt lat="43.4854794479906558990478515625" lon="-5.67656605504453182220458984375">
        <ele>70.59999847412109375</ele>
        <time>2022-06-04T12:30:18.000Z</time>
      </trkpt>
      <trkpt lat="43.485490344464778900146484375" lon="-5.676727406680583953857421875">
        <ele>70.8000030517578125</ele>
        <time>2022-06-04T12:30:20.000Z</time>
      </trkpt>
      <trkpt lat="43.4854973852634429931640625" lon="-5.6768095493316650390625">
        <ele>70.8000030517578125</ele>
        <time>2022-06-04T12:30:21.000Z</time>
      </trkpt>
      <trkpt lat="43.48550635389983654022216796875" lon="-5.67688959650695323944091796875">
        <ele>70.8000030517578125</ele>
        <time>2022-06-04T12:30:22.000Z</time>
      </trkpt>
      <trkpt lat="43.48552261479198932647705078125" lon="-5.67705019377171993255615234375">
        <ele>71</ele>
        <time>2022-06-04T12:30:24.000Z</time>
      </trkpt>
      <trkpt lat="43.48553719930350780487060546875" lon="-5.67720743827521800994873046875">
        <ele>71</ele>
        <time>2022-06-04T12:30:26.000Z</time>
      </trkpt>
      <trkpt lat="43.4855448268353939056396484375" lon="-5.67728606052696704864501953125">
        <ele>71.1999969482421875</ele>
        <time>2022-06-04T12:30:27.000Z</time>
      </trkpt>
      <trkpt lat="43.48555144853889942169189453125" lon="-5.67736409604549407958984375">
        <ele>71.1999969482421875</ele>
        <time>2022-06-04T12:30:28.000Z</time>
      </trkpt>
      <trkpt lat="43.48556335084140300750732421875" lon="-5.677517987787723541259765625">
        <ele>71.40000152587890625</ele>
        <time>2022-06-04T12:30:30.000Z</time>
      </trkpt>
      <trkpt lat="43.48557340912520885467529296875" lon="-5.67767028696835041046142578125">
        <ele>71.59999847412109375</ele>
        <time>2022-06-04T12:30:32.000Z</time>
      </trkpt>
      <trkpt lat="43.4855840541422367095947265625" lon="-5.67782342433929443359375">
        <ele>71.8000030517578125</ele>
        <time>2022-06-04T12:30:34.000Z</time>
      </trkpt>
      <trkpt lat="43.48559059202671051025390625" lon="-5.67789785563945770263671875">
        <ele>71.8000030517578125</ele>
        <time>2022-06-04T12:30:35.000Z</time>
      </trkpt>
      <trkpt lat="43.485599644482135772705078125" lon="-5.6779721193015575408935546875">
        <ele>72</ele>
        <time>2022-06-04T12:30:36.000Z</time>
      </trkpt>
      <trkpt lat="43.48562143743038177490234375" lon="-5.6781224906444549560546875">
        <ele>72</ele>
        <time>2022-06-04T12:30:38.000Z</time>
      </trkpt>
      <trkpt lat="43.485643230378627777099609375" lon="-5.6782758794724941253662109375">
        <ele>72.1999969482421875</ele>
        <time>2022-06-04T12:30:40.000Z</time>
      </trkpt>
      <trkpt lat="43.4856712259352207183837890625" lon="-5.678429938852787017822265625">
        <ele>72.1999969482421875</ele>
        <time>2022-06-04T12:30:42.000Z</time>
      </trkpt>
      <trkpt lat="43.48570651374757289886474609375" lon="-5.678582824766635894775390625">
        <ele>72.1999969482421875</ele>
        <time>2022-06-04T12:30:44.000Z</time>
      </trkpt>
      <trkpt lat="43.4857221879065036773681640625" lon="-5.67865801043808460235595703125">
        <ele>72.1999969482421875</ele>
        <time>2022-06-04T12:30:45.000Z</time>
      </trkpt>
      <trkpt lat="43.4857369400560855865478515625" lon="-5.67873445339500904083251953125">
        <ele>72.1999969482421875</ele>
        <time>2022-06-04T12:30:46.000Z</time>
      </trkpt>
      <trkpt lat="43.48576988093554973602294921875" lon="-5.6788877584040164947509765625">
        <ele>72.1999969482421875</ele>
        <time>2022-06-04T12:30:48.000Z</time>
      </trkpt>
      <trkpt lat="43.48580726422369480133056640625" lon="-5.67903234623372554779052734375">
        <ele>72.40000152587890625</ele>
        <time>2022-06-04T12:30:50.000Z</time>
      </trkpt>
      <trkpt lat="43.48584783263504505157470703125" lon="-5.67917265929281711578369140625">
        <ele>72.40000152587890625</ele>
        <time>2022-06-04T12:30:52.000Z</time>
      </trkpt>
      <trkpt lat="43.48588588647544384002685546875" lon="-5.67931129597127437591552734375">
        <ele>72.59999847412109375</ele>
        <time>2022-06-04T12:30:54.000Z</time>
      </trkpt>
      <trkpt lat="43.48590382374823093414306640625" lon="-5.679376088082790374755859375">
        <ele>72.59999847412109375</ele>
        <time>2022-06-04T12:30:55.000Z</time>
      </trkpt>
      <trkpt lat="43.48592452704906463623046875" lon="-5.67943702451884746551513671875">
        <ele>72.59999847412109375</ele>
        <time>2022-06-04T12:30:56.000Z</time>
      </trkpt>
      <trkpt lat="43.4859592281281948089599609375" lon="-5.67955386824905872344970703125">
        <ele>73</ele>
        <time>2022-06-04T12:30:58.000Z</time>
      </trkpt>
      <trkpt lat="43.485982529819011688232421875" lon="-5.67961438558995723724365234375">
        <ele>73</ele>
        <time>2022-06-04T12:30:59.000Z</time>
      </trkpt>
      <trkpt lat="43.486011028289794921875" lon="-5.67967792041599750518798828125">
        <ele>73</ele>
        <time>2022-06-04T12:31:00.000Z</time>
      </trkpt>
      <trkpt lat="43.48607028834521770477294921875" lon="-5.6798096001148223876953125">
        <ele>73.1999969482421875</ele>
        <time>2022-06-04T12:31:02.000Z</time>
      </trkpt>
      <trkpt lat="43.4861330687999725341796875" lon="-5.6799435429275035858154296875">
        <ele>73.1999969482421875</ele>
        <time>2022-06-04T12:31:04.000Z</time>
      </trkpt>
      <trkpt lat="43.48619635216891765594482421875" lon="-5.68007773719727993011474609375">
        <ele>73.40000152587890625</ele>
        <time>2022-06-04T12:31:06.000Z</time>
      </trkpt>
      <trkpt lat="43.48626357503235340118408203125" lon="-5.68020832724869251251220703125">
        <ele>73.40000152587890625</ele>
        <time>2022-06-04T12:31:08.000Z</time>
      </trkpt>
      <trkpt lat="43.4863240085542201995849609375" lon="-5.68033774383366107940673828125">
        <ele>73.40000152587890625</ele>
        <time>2022-06-04T12:31:10.000Z</time>
      </trkpt>
      <trkpt lat="43.4863825142383575439453125" lon="-5.68046271800994873046875">
        <ele>73.59999847412109375</ele>
        <time>2022-06-04T12:31:12.000Z</time>
      </trkpt>
      <trkpt lat="43.4864148683845996856689453125" lon="-5.68051745183765888214111328125">
        <ele>73.59999847412109375</ele>
        <time>2022-06-04T12:31:13.000Z</time>
      </trkpt>
      <trkpt lat="43.48644311539828777313232421875" lon="-5.6805688329041004180908203125">
        <ele>73.59999847412109375</ele>
        <time>2022-06-04T12:31:14.000Z</time>
      </trkpt>
      <trkpt lat="43.4864779002964496612548828125" lon="-5.68061853758990764617919921875">
        <ele>73.59999847412109375</ele>
        <time>2022-06-04T12:31:15.000Z</time>
      </trkpt>
      <trkpt lat="43.48651452921330928802490234375" lon="-5.6806643866002559661865234375">
        <ele>73.59999847412109375</ele>
        <time>2022-06-04T12:31:16.000Z</time>
      </trkpt>
      <trkpt lat="43.4865828417241573333740234375" lon="-5.68076513707637786865234375">
        <ele>73.59999847412109375</ele>
        <time>2022-06-04T12:31:18.000Z</time>
      </trkpt>
      <trkpt lat="43.4866173751652240753173828125" lon="-5.68081609904766082763671875">
        <ele>73.59999847412109375</ele>
        <time>2022-06-04T12:31:19.000Z</time>
      </trkpt>
      <trkpt lat="43.48665383644402027130126953125" lon="-5.68087510764598846435546875">
        <ele>73.59999847412109375</ele>
        <time>2022-06-04T12:31:20.000Z</time>
      </trkpt>
      <trkpt lat="43.48673312924802303314208984375" lon="-5.68100628443062305450439453125">
        <ele>73.59999847412109375</ele>
        <time>2022-06-04T12:31:22.000Z</time>
      </trkpt>
      <trkpt lat="43.486801274120807647705078125" lon="-5.68113855086266994476318359375">
        <ele>73.59999847412109375</ele>
        <time>2022-06-04T12:31:24.000Z</time>
      </trkpt>
      <trkpt lat="43.48686338402330875396728515625" lon="-5.681275092065334320068359375">
        <ele>73.59999847412109375</ele>
        <time>2022-06-04T12:31:26.000Z</time>
      </trkpt>
      <trkpt lat="43.48691786639392375946044921875" lon="-5.68140593357384204864501953125">
        <ele>73.8000030517578125</ele>
        <time>2022-06-04T12:31:28.000Z</time>
      </trkpt>
      <trkpt lat="43.48697503097355365753173828125" lon="-5.68153384141623973846435546875">
        <ele>73.8000030517578125</ele>
        <time>2022-06-04T12:31:30.000Z</time>
      </trkpt>
      <trkpt lat="43.4870059601962566375732421875" lon="-5.6815920956432819366455078125">
        <ele>74</ele>
        <time>2022-06-04T12:31:31.000Z</time>
      </trkpt>
      <trkpt lat="43.48704325966536998748779296875" lon="-5.68165454082190990447998046875">
        <ele>74</ele>
        <time>2022-06-04T12:31:32.000Z</time>
      </trkpt>
      <trkpt lat="43.4871544875204563140869140625" lon="-5.6817882321774959564208984375">
        <ele>74</ele>
        <time>2022-06-04T12:31:34.000Z</time>
      </trkpt>
      <trkpt lat="43.487239815294742584228515625" lon="-5.681904740631580352783203125">
        <ele>74.1999969482421875</ele>
        <time>2022-06-04T12:31:36.000Z</time>
      </trkpt>
      <trkpt lat="43.48728164099156856536865234375" lon="-5.68196819163858890533447265625">
        <ele>74.40000152587890625</ele>
        <time>2022-06-04T12:31:37.000Z</time>
      </trkpt>
      <trkpt lat="43.487320952117443084716796875" lon="-5.68203072063624858856201171875">
        <ele>74.40000152587890625</ele>
        <time>2022-06-04T12:31:38.000Z</time>
      </trkpt>
      <trkpt lat="43.48738926462829113006591796875" lon="-5.68215644918382167816162109375">
        <ele>74.59999847412109375</ele>
        <time>2022-06-04T12:31:40.000Z</time>
      </trkpt>
      <trkpt lat="43.487466461956501007080078125" lon="-5.68228603340685367584228515625">
        <ele>74.59999847412109375</ele>
        <time>2022-06-04T12:31:42.000Z</time>
      </trkpt>
      <trkpt lat="43.4875668771564960479736328125" lon="-5.68241494707763195037841796875">
        <ele>74.59999847412109375</ele>
        <time>2022-06-04T12:31:44.000Z</time>
      </trkpt>
      <trkpt lat="43.48766268230974674224853515625" lon="-5.6825415976345539093017578125">
        <ele>74.59999847412109375</ele>
        <time>2022-06-04T12:31:46.000Z</time>
      </trkpt>
      <trkpt lat="43.48770174197852611541748046875" lon="-5.68260513246059417724609375">
        <ele>74.59999847412109375</ele>
        <time>2022-06-04T12:31:47.000Z</time>
      </trkpt>
      <trkpt lat="43.4877365268766880035400390625" lon="-5.682671181857585906982421875">
        <ele>74.59999847412109375</ele>
        <time>2022-06-04T12:31:48.000Z</time>
      </trkpt>
      <trkpt lat="43.48781154491007328033447265625" lon="-5.6827927194535732269287109375">
        <ele>74.8000030517578125</ele>
        <time>2022-06-04T12:31:50.000Z</time>
      </trkpt>
      <trkpt lat="43.4878924302756786346435546875" lon="-5.68292029201984405517578125">
        <ele>74.8000030517578125</ele>
        <time>2022-06-04T12:31:52.000Z</time>
      </trkpt>
      <trkpt lat="43.48797985352575778961181640625" lon="-5.683042667806148529052734375">
        <ele>74.8000030517578125</ele>
        <time>2022-06-04T12:31:54.000Z</time>
      </trkpt>
      <trkpt lat="43.48808160983026027679443359375" lon="-5.68315766751766204833984375">
        <ele>74.8000030517578125</ele>
        <time>2022-06-04T12:31:56.000Z</time>
      </trkpt>
      <trkpt lat="43.4881291352212429046630859375" lon="-5.683217681944370269775390625">
        <ele>74.8000030517578125</ele>
        <time>2022-06-04T12:31:57.000Z</time>
      </trkpt>
      <trkpt lat="43.488178588449954986572265625" lon="-5.6832741759717464447021484375">
        <ele>74.8000030517578125</ele>
        <time>2022-06-04T12:31:58.000Z</time>
      </trkpt>
      <trkpt lat="43.48827405832707881927490234375" lon="-5.68338188342750072479248046875">
        <ele>74.8000030517578125</ele>
        <time>2022-06-04T12:32:00.000Z</time>
      </trkpt>
      <trkpt lat="43.48836801946163177490234375" lon="-5.68347953259944915771484375">
        <ele>74.8000030517578125</ele>
        <time>2022-06-04T12:32:02.000Z</time>
      </trkpt>
      <trkpt lat="43.48846726119518280029296875" lon="-5.6835695542395114898681640625">
        <ele>74.8000030517578125</ele>
        <time>2022-06-04T12:32:04.000Z</time>
      </trkpt>
      <trkpt lat="43.48856985569000244140625" lon="-5.68365144543349742889404296875">
        <ele>74.8000030517578125</ele>
        <time>2022-06-04T12:32:06.000Z</time>
      </trkpt>
      <trkpt lat="43.488674461841583251953125" lon="-5.6837271340191364288330078125">
        <ele>74.8000030517578125</ele>
        <time>2022-06-04T12:32:08.000Z</time>
      </trkpt>
      <trkpt lat="43.48877915181219577789306640625" lon="-5.683802403509616851806640625">
        <ele>74.59999847412109375</ele>
        <time>2022-06-04T12:32:10.000Z</time>
      </trkpt>
      <trkpt lat="43.4888835065066814422607421875" lon="-5.6838723085820674896240234375">
        <ele>74.59999847412109375</ele>
        <time>2022-06-04T12:32:12.000Z</time>
      </trkpt>
      <trkpt lat="43.48899188451468944549560546875" lon="-5.6839326582849025726318359375">
        <ele>74.8000030517578125</ele>
        <time>2022-06-04T12:32:14.000Z</time>
      </trkpt>
      <trkpt lat="43.4890997596085071563720703125" lon="-5.68398806266486644744873046875">
        <ele>74.8000030517578125</ele>
        <time>2022-06-04T12:32:16.000Z</time>
      </trkpt>
      <trkpt lat="43.489208221435546875" lon="-5.6840382702648639678955078125">
        <ele>74.8000030517578125</ele>
        <time>2022-06-04T12:32:18.000Z</time>
      </trkpt>
      <trkpt lat="43.48932020366191864013671875" lon="-5.68408646620810031890869140625">
        <ele>74.8000030517578125</ele>
        <time>2022-06-04T12:32:20.000Z</time>
      </trkpt>
      <trkpt lat="43.4893783740699291229248046875" lon="-5.684108175337314605712890625">
        <ele>74.8000030517578125</ele>
        <time>2022-06-04T12:32:21.000Z</time>
      </trkpt>
      <trkpt lat="43.4894363768398761749267578125" lon="-5.68412602879106998443603515625">
        <ele>74.8000030517578125</ele>
        <time>2022-06-04T12:32:22.000Z</time>
      </trkpt>
      <trkpt lat="43.489554561674594879150390625" lon="-5.68415905348956584930419921875">
        <ele>75</ele>
        <time>2022-06-04T12:32:24.000Z</time>
      </trkpt>
      <trkpt lat="43.48961365409195423126220703125" lon="-5.6841720454394817352294921875">
        <ele>75</ele>
        <time>2022-06-04T12:32:25.000Z</time>
      </trkpt>
      <trkpt lat="43.48967182449996471405029296875" lon="-5.684185288846492767333984375">
        <ele>75</ele>
        <time>2022-06-04T12:32:26.000Z</time>
      </trkpt>
      <trkpt lat="43.48978690803050994873046875" lon="-5.68421579897403717041015625">
        <ele>75.1999969482421875</ele>
        <time>2022-06-04T12:32:28.000Z</time>
      </trkpt>
      <trkpt lat="43.48989713005721569061279296875" lon="-5.684246309101581573486328125">
        <ele>75.40000152587890625</ele>
        <time>2022-06-04T12:32:30.000Z</time>
      </trkpt>
      <trkpt lat="43.4900026582181453704833984375" lon="-5.684275142848491668701171875">
        <ele>75.40000152587890625</ele>
        <time>2022-06-04T12:32:32.000Z</time>
      </trkpt>
      <trkpt lat="43.49005387164652347564697265625" lon="-5.6842857040464878082275390625">
        <ele>75.59999847412109375</ele>
        <time>2022-06-04T12:32:33.000Z</time>
      </trkpt>
      <trkpt lat="43.49010500125586986541748046875" lon="-5.68429819308221340179443359375">
        <ele>75.59999847412109375</ele>
        <time>2022-06-04T12:32:34.000Z</time>
      </trkpt>
      <trkpt lat="43.49020876921713352203369140625" lon="-5.6843329779803752899169921875">
        <ele>75.8000030517578125</ele>
        <time>2022-06-04T12:32:36.000Z</time>
      </trkpt>
      <trkpt lat="43.4903137944638729095458984375" lon="-5.6843613088130950927734375">
        <ele>75.8000030517578125</ele>
        <time>2022-06-04T12:32:38.000Z</time>
      </trkpt>
      <trkpt lat="43.49037297070026397705078125" lon="-5.684375725686550140380859375">
        <ele>75.8000030517578125</ele>
        <time>2022-06-04T12:32:39.000Z</time>
      </trkpt>
      <trkpt lat="43.490432985126972198486328125" lon="-5.6843903101980686187744140625">
        <ele>75.8000030517578125</ele>
        <time>2022-06-04T12:32:40.000Z</time>
      </trkpt>
      <trkpt lat="43.49053851328790187835693359375" lon="-5.68442769348621368408203125">
        <ele>75.8000030517578125</ele>
        <time>2022-06-04T12:32:42.000Z</time>
      </trkpt>
      <trkpt lat="43.49064429290592670440673828125" lon="-5.6844577006995677947998046875">
        <ele>75.8000030517578125</ele>
        <time>2022-06-04T12:32:44.000Z</time>
      </trkpt>
      <trkpt lat="43.490699194371700286865234375" lon="-5.68447060883045196533203125">
        <ele>75.8000030517578125</ele>
        <time>2022-06-04T12:32:45.000Z</time>
      </trkpt>
      <trkpt lat="43.490753173828125" lon="-5.68448536098003387451171875">
        <ele>76</ele>
        <time>2022-06-04T12:32:46.000Z</time>
      </trkpt>
      <trkpt lat="43.490866832435131072998046875" lon="-5.684514530003070831298828125">
        <ele>76</ele>
        <time>2022-06-04T12:32:48.000Z</time>
      </trkpt>
      <trkpt lat="43.49092709831893444061279296875" lon="-5.68452651612460613250732421875">
        <ele>76</ele>
        <time>2022-06-04T12:32:49.000Z</time>
      </trkpt>
      <trkpt lat="43.49098761565983295440673828125" lon="-5.68454043008387088775634765625">
        <ele>76</ele>
        <time>2022-06-04T12:32:50.000Z</time>
      </trkpt>
      <trkpt lat="43.4910433553159236907958984375" lon="-5.6845586188137531280517578125">
        <ele>76</ele>
        <time>2022-06-04T12:32:51.000Z</time>
      </trkpt>
      <trkpt lat="43.49110194481909275054931640625" lon="-5.68458326160907745361328125">
        <ele>76</ele>
        <time>2022-06-04T12:32:52.000Z</time>
      </trkpt>
      <trkpt lat="43.491159863770008087158203125" lon="-5.68461016751825809478759765625">
        <ele>76</ele>
        <time>2022-06-04T12:32:53.000Z</time>
      </trkpt>
      <trkpt lat="43.491216190159320831298828125" lon="-5.684638917446136474609375">
        <ele>76.1999969482421875</ele>
        <time>2022-06-04T12:32:54.000Z</time>
      </trkpt>
      <trkpt lat="43.4913259930908679962158203125" lon="-5.68470773287117481231689453125">
        <ele>76.1999969482421875</ele>
        <time>2022-06-04T12:32:56.000Z</time>
      </trkpt>
      <trkpt lat="43.49143923260271549224853515625" lon="-5.68478736095130443572998046875">
        <ele>76.1999969482421875</ele>
        <time>2022-06-04T12:32:58.000Z</time>
      </trkpt>
      <trkpt lat="43.49155020900070667266845703125" lon="-5.6848657317459583282470703125">
        <ele>76.1999969482421875</ele>
        <time>2022-06-04T12:33:00.000Z</time>
      </trkpt>
      <trkpt lat="43.49165917374193668365478515625" lon="-5.684943012893199920654296875">
        <ele>76</ele>
        <time>2022-06-04T12:33:02.000Z</time>
      </trkpt>
      <trkpt lat="43.49176277406513690948486328125" lon="-5.68502775393426418304443359375">
        <ele>76</ele>
        <time>2022-06-04T12:33:04.000Z</time>
      </trkpt>
      <trkpt lat="43.49186084233224391937255859375" lon="-5.6851118244230747222900390625">
        <ele>76.1999969482421875</ele>
        <time>2022-06-04T12:33:06.000Z</time>
      </trkpt>
      <trkpt lat="43.49195706658065319061279296875" lon="-5.685205198824405670166015625">
        <ele>76.1999969482421875</ele>
        <time>2022-06-04T12:33:08.000Z</time>
      </trkpt>
      <trkpt lat="43.49204792641103267669677734375" lon="-5.68531240336596965789794921875">
        <ele>76.1999969482421875</ele>
        <time>2022-06-04T12:33:10.000Z</time>
      </trkpt>
      <trkpt lat="43.4921376965939998626708984375" lon="-5.685428492724895477294921875">
        <ele>76.1999969482421875</ele>
        <time>2022-06-04T12:33:12.000Z</time>
      </trkpt>
      <trkpt lat="43.492223359644412994384765625" lon="-5.685552544891834259033203125">
        <ele>76.1999969482421875</ele>
        <time>2022-06-04T12:33:14.000Z</time>
      </trkpt>
      <trkpt lat="43.4922979585826396942138671875" lon="-5.685674250125885009765625">
        <ele>76.40000152587890625</ele>
        <time>2022-06-04T12:33:16.000Z</time>
      </trkpt>
      <trkpt lat="43.492378927767276763916015625" lon="-5.6857934407889842987060546875">
        <ele>76.59999847412109375</ele>
        <time>2022-06-04T12:33:18.000Z</time>
      </trkpt>
      <trkpt lat="43.49241723306477069854736328125" lon="-5.6858544610440731048583984375">
        <ele>76.59999847412109375</ele>
        <time>2022-06-04T12:33:19.000Z</time>
      </trkpt>
      <trkpt lat="43.49245344288647174835205078125" lon="-5.685918331146240234375">
        <ele>76.59999847412109375</ele>
        <time>2022-06-04T12:33:20.000Z</time>
      </trkpt>
      <trkpt lat="43.49252049811184406280517578125" lon="-5.68605286069214344024658203125">
        <ele>76.8000030517578125</ele>
        <time>2022-06-04T12:33:22.000Z</time>
      </trkpt>
      <trkpt lat="43.492581434547901153564453125" lon="-5.68619887344539165496826171875">
        <ele>77</ele>
        <time>2022-06-04T12:33:24.000Z</time>
      </trkpt>
      <trkpt lat="43.49261169321835041046142578125" lon="-5.68627229891717433929443359375">
        <ele>77</ele>
        <time>2022-06-04T12:33:25.000Z</time>
      </trkpt>
      <trkpt lat="43.492641784250736236572265625" lon="-5.6863466463983058929443359375">
        <ele>77</ele>
        <time>2022-06-04T12:33:26.000Z</time>
      </trkpt>
      <trkpt lat="43.49266827106475830078125" lon="-5.68642199970781803131103515625">
        <ele>77</ele>
        <time>2022-06-04T12:33:27.000Z</time>
      </trkpt>
      <trkpt lat="43.4926919080317020416259765625" lon="-5.68649861030280590057373046875">
        <ele>77</ele>
        <time>2022-06-04T12:33:28.000Z</time>
      </trkpt>
      <trkpt lat="43.4927405230700969696044921875" lon="-5.6866551004350185394287109375">
        <ele>77</ele>
        <time>2022-06-04T12:33:30.000Z</time>
      </trkpt>
      <trkpt lat="43.49279190413653850555419921875" lon="-5.68680907599627971649169921875">
        <ele>77</ele>
        <time>2022-06-04T12:33:32.000Z</time>
      </trkpt>
      <trkpt lat="43.49283414892852306365966796875" lon="-5.68696665577590465545654296875">
        <ele>77</ele>
        <time>2022-06-04T12:33:34.000Z</time>
      </trkpt>
      <trkpt lat="43.492880500853061676025390625" lon="-5.68712557666003704071044921875">
        <ele>77</ele>
        <time>2022-06-04T12:33:36.000Z</time>
      </trkpt>
      <trkpt lat="43.4929292835295200347900390625" lon="-5.687273852527141571044921875">
        <ele>77</ele>
        <time>2022-06-04T12:33:38.000Z</time>
      </trkpt>
      <trkpt lat="43.4929644875228404998779296875" lon="-5.6874222122132778167724609375">
        <ele>77</ele>
        <time>2022-06-04T12:33:40.000Z</time>
      </trkpt>
      <trkpt lat="43.49299491383135318756103515625" lon="-5.68757618777453899383544921875">
        <ele>77</ele>
        <time>2022-06-04T12:33:42.000Z</time>
      </trkpt>
      <trkpt lat="43.49301301874220371246337890625" lon="-5.6876488588750362396240234375">
        <ele>77</ele>
        <time>2022-06-04T12:33:43.000Z</time>
      </trkpt>
      <trkpt lat="43.49303766153752803802490234375" lon="-5.687717758119106292724609375">
        <ele>77</ele>
        <time>2022-06-04T12:33:44.000Z</time>
      </trkpt>
      <trkpt lat="43.4930737875401973724365234375" lon="-5.687856562435626983642578125">
        <ele>77.1999969482421875</ele>
        <time>2022-06-04T12:33:46.000Z</time>
      </trkpt>
      <trkpt lat="43.49309247918426990509033203125" lon="-5.68793007172644138336181640625">
        <ele>77.1999969482421875</ele>
        <time>2022-06-04T12:33:47.000Z</time>
      </trkpt>
      <trkpt lat="43.49310957826673984527587890625" lon="-5.6880059279501438140869140625">
        <ele>77.40000152587890625</ele>
        <time>2022-06-04T12:33:48.000Z</time>
      </trkpt>
      <trkpt lat="43.493146039545536041259765625" lon="-5.688152946531772613525390625">
        <ele>77.40000152587890625</ele>
        <time>2022-06-04T12:33:50.000Z</time>
      </trkpt>
      <trkpt lat="43.49317847751080989837646484375" lon="-5.6882961094379425048828125">
        <ele>77.59999847412109375</ele>
        <time>2022-06-04T12:33:52.000Z</time>
      </trkpt>
      <trkpt lat="43.4932216443121433258056640625" lon="-5.68843617103993892669677734375">
        <ele>77.59999847412109375</ele>
        <time>2022-06-04T12:33:54.000Z</time>
      </trkpt>
      <trkpt lat="43.49325835704803466796875" lon="-5.68857036530971527099609375">
        <ele>77.59999847412109375</ele>
        <time>2022-06-04T12:33:56.000Z</time>
      </trkpt>
      <trkpt lat="43.4933160245418548583984375" lon="-5.688777901232242584228515625">
        <ele>77.59999847412109375</ele>
        <time>2022-06-04T12:33:58.000Z</time>
      </trkpt>
      <trkpt lat="43.49333823658525943756103515625" lon="-5.688861049711704254150390625">
        <ele>77.40000152587890625</ele>
        <time>2022-06-04T12:33:59.000Z</time>
      </trkpt>
      <trkpt lat="43.4948594681918621063232421875" lon="-5.69270431995391845703125">
        <ele>77.1999969482421875</ele>
        <time>2022-06-04T12:34:50.000Z</time>
      </trkpt>
      <trkpt lat="43.4947813488543033599853515625" lon="-5.69277095608413219451904296875">
        <ele>77.1999969482421875</ele>
        <time>2022-06-04T12:34:51.000Z</time>
      </trkpt>
      <trkpt lat="43.49480104632675647735595703125" lon="-5.6928660906851291656494140625">
        <ele>77.1999969482421875</ele>
        <time>2022-06-04T12:34:52.000Z</time>
      </trkpt>
      <trkpt lat="43.49478528834879398345947265625" lon="-5.69294680841267108917236328125">
        <ele>77.1999969482421875</ele>
        <time>2022-06-04T12:34:53.000Z</time>
      </trkpt>
      <trkpt lat="43.494800627231597900390625" lon="-5.693002045154571533203125">
        <ele>77.40000152587890625</ele>
        <time>2022-06-04T12:34:54.000Z</time>
      </trkpt>
      <trkpt lat="43.494857288897037506103515625" lon="-5.69314361549913883209228515625">
        <ele>77.1999969482421875</ele>
        <time>2022-06-04T12:34:56.000Z</time>
      </trkpt>
      <trkpt lat="43.4949012100696563720703125" lon="-5.6932878680527210235595703125">
        <ele>77.40000152587890625</ele>
        <time>2022-06-04T12:34:58.000Z</time>
      </trkpt>
      <trkpt lat="43.4949307143688201904296875" lon="-5.69335383363068103790283203125">
        <ele>77.1999969482421875</ele>
        <time>2022-06-04T12:34:59.000Z</time>
      </trkpt>
      <trkpt lat="43.494994081556797027587890625" lon="-5.69350319914519786834716796875">
        <ele>77.1999969482421875</ele>
        <time>2022-06-04T12:35:00.000Z</time>
      </trkpt>
      <trkpt lat="43.49502601660788059234619140625" lon="-5.69357712753117084503173828125">
        <ele>77</ele>
        <time>2022-06-04T12:35:02.000Z</time>
      </trkpt>
      <trkpt lat="43.4950579516589641571044921875" lon="-5.69365558214485645294189453125">
        <ele>77</ele>
        <time>2022-06-04T12:35:03.000Z</time>
      </trkpt>
      <trkpt lat="43.49508938379585742950439453125" lon="-5.6937324441969394683837890625">
        <ele>77</ele>
        <time>2022-06-04T12:35:04.000Z</time>
      </trkpt>
      <trkpt lat="43.49515224806964397430419921875" lon="-5.69388206116855144500732421875">
        <ele>77</ele>
        <time>2022-06-04T12:35:06.000Z</time>
      </trkpt>
      <trkpt lat="43.49521695636212825775146484375" lon="-5.6940221227705478668212890625">
        <ele>77</ele>
        <time>2022-06-04T12:35:08.000Z</time>
      </trkpt>
      <trkpt lat="43.49528350867331027984619140625" lon="-5.69416201673448085784912109375">
        <ele>77</ele>
        <time>2022-06-04T12:35:10.000Z</time>
      </trkpt>
      <trkpt lat="43.4953523240983486175537109375" lon="-5.6943037547171115875244140625">
        <ele>77</ele>
        <time>2022-06-04T12:35:12.000Z</time>
      </trkpt>
      <trkpt lat="43.49542600102722644805908203125" lon="-5.69444498978555202484130859375">
        <ele>77</ele>
        <time>2022-06-04T12:35:14.000Z</time>
      </trkpt>
      <trkpt lat="43.4955011866986751556396484375" lon="-5.69458253681659698486328125">
        <ele>77</ele>
        <time>2022-06-04T12:35:16.000Z</time>
      </trkpt>
      <trkpt lat="43.49557955749332904815673828125" lon="-5.69471572525799274444580078125">
        <ele>77</ele>
        <time>2022-06-04T12:35:18.000Z</time>
      </trkpt>
      <trkpt lat="43.49566119723021984100341796875" lon="-5.69484463892877101898193359375">
        <ele>77</ele>
        <time>2022-06-04T12:35:20.000Z</time>
      </trkpt>
      <trkpt lat="43.49574618972837924957275390625" lon="-5.694967769086360931396484375">
        <ele>77</ele>
        <time>2022-06-04T12:35:22.000Z</time>
      </trkpt>
      <trkpt lat="43.49583235569298267364501953125" lon="-5.69508838467299938201904296875">
        <ele>77</ele>
        <time>2022-06-04T12:35:24.000Z</time>
      </trkpt>
      <trkpt lat="43.495918102562427520751953125" lon="-5.695210509002208709716796875">
        <ele>77</ele>
        <time>2022-06-04T12:35:26.000Z</time>
      </trkpt>
      <trkpt lat="43.4959615208208560943603515625" lon="-5.6952706910669803619384765625">
        <ele>77</ele>
        <time>2022-06-04T12:35:27.000Z</time>
      </trkpt>
      <trkpt lat="43.4960061125457286834716796875" lon="-5.6953307054936885833740234375">
        <ele>77</ele>
        <time>2022-06-04T12:35:28.000Z</time>
      </trkpt>
      <trkpt lat="43.49609856493771076202392578125" lon="-5.6954549252986907958984375">
        <ele>77</ele>
        <time>2022-06-04T12:35:30.000Z</time>
      </trkpt>
      <trkpt lat="43.4961955435574054718017578125" lon="-5.6955865211784839630126953125">
        <ele>77</ele>
        <time>2022-06-04T12:35:32.000Z</time>
      </trkpt>
      <trkpt lat="43.49629218690097332000732421875" lon="-5.695721469819545745849609375">
        <ele>77</ele>
        <time>2022-06-04T12:35:34.000Z</time>
      </trkpt>
      <trkpt lat="43.496388159692287445068359375" lon="-5.69585516117513179779052734375">
        <ele>77</ele>
        <time>2022-06-04T12:35:36.000Z</time>
      </trkpt>
      <trkpt lat="43.49648178555071353912353515625" lon="-5.69598709233105182647705078125">
        <ele>77</ele>
        <time>2022-06-04T12:35:38.000Z</time>
      </trkpt>
      <trkpt lat="43.4965775907039642333984375" lon="-5.696119107306003570556640625">
        <ele>76.8000030517578125</ele>
        <time>2022-06-04T12:35:40.000Z</time>
      </trkpt>
      <trkpt lat="43.4966263733804225921630859375" lon="-5.69618406705558300018310546875">
        <ele>76.8000030517578125</ele>
        <time>2022-06-04T12:35:41.000Z</time>
      </trkpt>
      <trkpt lat="43.49667171947658061981201171875" lon="-5.6962503679096698760986328125">
        <ele>76.59999847412109375</ele>
        <time>2022-06-04T12:35:42.000Z</time>
      </trkpt>
      <trkpt lat="43.496762998402118682861328125" lon="-5.69638087414205074310302734375">
        <ele>76.40000152587890625</ele>
        <time>2022-06-04T12:35:44.000Z</time>
      </trkpt>
      <trkpt lat="43.496857546269893646240234375" lon="-5.69650626741349697113037109375">
        <ele>76.1999969482421875</ele>
        <time>2022-06-04T12:35:46.000Z</time>
      </trkpt>
      <trkpt lat="43.49690607748925685882568359375" lon="-5.6965655274689197540283203125">
        <ele>76.1999969482421875</ele>
        <time>2022-06-04T12:35:47.000Z</time>
      </trkpt>
      <trkpt lat="43.49695335142314434051513671875" lon="-5.69662277586758136749267578125">
        <ele>76</ele>
        <time>2022-06-04T12:35:48.000Z</time>
      </trkpt>
      <trkpt lat="43.49705141969025135040283203125" lon="-5.696737356483936309814453125">
        <ele>76</ele>
        <time>2022-06-04T12:35:50.000Z</time>
      </trkpt>
      <trkpt lat="43.49715753458440303802490234375" lon="-5.69685260765254497528076171875">
        <ele>76</ele>
        <time>2022-06-04T12:35:52.000Z</time>
      </trkpt>
      <trkpt lat="43.49727471359074115753173828125" lon="-5.69696056656539440155029296875">
        <ele>75.8000030517578125</ele>
        <time>2022-06-04T12:35:54.000Z</time>
      </trkpt>
      <trkpt lat="43.49740312434732913970947265625" lon="-5.697067268192768096923828125">
        <ele>75.59999847412109375</ele>
        <time>2022-06-04T12:35:56.000Z</time>
      </trkpt>
      <trkpt lat="43.49754662252962589263916015625" lon="-5.6971525959670543670654296875">
        <ele>75</ele>
        <time>2022-06-04T12:35:58.000Z</time>
      </trkpt>
      <trkpt lat="43.49769146181643009185791015625" lon="-5.697236917912960052490234375">
        <ele>74.59999847412109375</ele>
        <time>2022-06-04T12:36:00.000Z</time>
      </trkpt>
      <trkpt lat="43.49783713929355144500732421875" lon="-5.69731394760310649871826171875">
        <ele>74.40000152587890625</ele>
        <time>2022-06-04T12:36:02.000Z</time>
      </trkpt>
      <trkpt lat="43.49798633717000484466552734375" lon="-5.6973815895617008209228515625">
        <ele>74.40000152587890625</ele>
        <time>2022-06-04T12:36:04.000Z</time>
      </trkpt>
      <trkpt lat="43.498061187565326690673828125" lon="-5.69741369225084781646728515625">
        <ele>74.1999969482421875</ele>
        <time>2022-06-04T12:36:05.000Z</time>
      </trkpt>
      <trkpt lat="43.4981332719326019287109375" lon="-5.6974405981600284576416015625">
        <ele>74.1999969482421875</ele>
        <time>2022-06-04T12:36:06.000Z</time>
      </trkpt>
      <trkpt lat="43.49826595745980739593505859375" lon="-5.69747370667755603790283203125">
        <ele>74</ele>
        <time>2022-06-04T12:36:08.000Z</time>
      </trkpt>
      <trkpt lat="43.4984056837856769561767578125" lon="-5.69750237278640270233154296875">
        <ele>73.59999847412109375</ele>
        <time>2022-06-04T12:36:10.000Z</time>
      </trkpt>
      <trkpt lat="43.49853820167481899261474609375" lon="-5.6975200586020946502685546875">
        <ele>73.1999969482421875</ele>
        <time>2022-06-04T12:36:12.000Z</time>
      </trkpt>
      <trkpt lat="43.4986735694110393524169921875" lon="-5.69751544855535030364990234375">
        <ele>73</ele>
        <time>2022-06-04T12:36:14.000Z</time>
      </trkpt>
      <trkpt lat="43.49874137900769710540771484375" lon="-5.69750857539474964141845703125">
        <ele>72.8000030517578125</ele>
        <time>2022-06-04T12:36:15.000Z</time>
      </trkpt>
      <trkpt lat="43.49880742840468883514404296875" lon="-5.6975041329860687255859375">
        <ele>72.8000030517578125</ele>
        <time>2022-06-04T12:36:16.000Z</time>
      </trkpt>
      <trkpt lat="43.49893852137029170989990234375" lon="-5.697485022246837615966796875">
        <ele>72.8000030517578125</ele>
        <time>2022-06-04T12:36:18.000Z</time>
      </trkpt>
      <trkpt lat="43.4990608133375644683837890625" lon="-5.69745912216603755950927734375">
        <ele>72.59999847412109375</ele>
        <time>2022-06-04T12:36:20.000Z</time>
      </trkpt>
      <trkpt lat="43.49912661127746105194091796875" lon="-5.6974355690181255340576171875">
        <ele>72.59999847412109375</ele>
        <time>2022-06-04T12:36:21.000Z</time>
      </trkpt>
      <trkpt lat="43.49918763153254985809326171875" lon="-5.6974147818982601165771484375">
        <ele>72.59999847412109375</ele>
        <time>2022-06-04T12:36:22.000Z</time>
      </trkpt>
      <trkpt lat="43.49930782802402973175048828125" lon="-5.69737547077238559722900390625">
        <ele>72.40000152587890625</ele>
        <time>2022-06-04T12:36:24.000Z</time>
      </trkpt>
      <trkpt lat="43.4993749670684337615966796875" lon="-5.69734110496938228607177734375">
        <ele>72.40000152587890625</ele>
        <time>2022-06-04T12:36:25.000Z</time>
      </trkpt>
      <trkpt lat="43.4994497336447238922119140625" lon="-5.69730036891996860504150390625">
        <ele>72.1999969482421875</ele>
        <time>2022-06-04T12:36:26.000Z</time>
      </trkpt>
      <trkpt lat="43.4995935671031475067138671875" lon="-5.69721839390695095062255859375">
        <ele>72</ele>
        <time>2022-06-04T12:36:28.000Z</time>
      </trkpt>
      <trkpt lat="43.49973815493285655975341796875" lon="-5.6971368379890918731689453125">
        <ele>71.8000030517578125</ele>
        <time>2022-06-04T12:36:30.000Z</time>
      </trkpt>
      <trkpt lat="43.4998034499585628509521484375" lon="-5.6971002928912639617919921875">
        <ele>71.59999847412109375</ele>
        <time>2022-06-04T12:36:31.000Z</time>
      </trkpt>
      <trkpt lat="43.4998587705194950103759765625" lon="-5.69706022739410400390625">
        <ele>71.40000152587890625</ele>
        <time>2022-06-04T12:36:32.000Z</time>
      </trkpt>
      <trkpt lat="43.499911241233348846435546875" lon="-5.69701370783150196075439453125">
        <ele>71.1999969482421875</ele>
        <time>2022-06-04T12:36:33.000Z</time>
      </trkpt>
      <trkpt lat="43.4999647177755832672119140625" lon="-5.6969678588211536407470703125">
        <ele>71</ele>
        <time>2022-06-04T12:36:34.000Z</time>
      </trkpt>
      <trkpt lat="43.50001928396522998809814453125" lon="-5.6969105266034603118896484375">
        <ele>70.8000030517578125</ele>
        <time>2022-06-04T12:36:35.000Z</time>
      </trkpt>
      <trkpt lat="43.50007376633584499359130859375" lon="-5.696852691471576690673828125">
        <ele>70.8000030517578125</ele>
        <time>2022-06-04T12:36:36.000Z</time>
      </trkpt>
      <trkpt lat="43.50019061006605625152587890625" lon="-5.6967231072485446929931640625">
        <ele>70.1999969482421875</ele>
        <time>2022-06-04T12:36:38.000Z</time>
      </trkpt>
      <trkpt lat="43.5002527199685573577880859375" lon="-5.69665211252868175506591796875">
        <ele>70</ele>
        <time>2022-06-04T12:36:39.000Z</time>
      </trkpt>
      <trkpt lat="43.50032069720327854156494140625" lon="-5.69657466374337673187255859375">
        <ele>69.8000030517578125</ele>
        <time>2022-06-04T12:36:40.000Z</time>
      </trkpt>
      <trkpt lat="43.50045447237789630889892578125" lon="-5.6964240409433841705322265625">
        <ele>69.40000152587890625</ele>
        <time>2022-06-04T12:36:42.000Z</time>
      </trkpt>
      <trkpt lat="43.50051817484200000762939453125" lon="-5.69634282030165195465087890625">
        <ele>69</ele>
        <time>2022-06-04T12:36:43.000Z</time>
      </trkpt>
      <trkpt lat="43.5005796141922473907470703125" lon="-5.69626319222152233123779296875">
        <ele>68.8000030517578125</ele>
        <time>2022-06-04T12:36:44.000Z</time>
      </trkpt>
      <trkpt lat="43.50070224143564701080322265625" lon="-5.69610510952770709991455078125">
        <ele>68.59999847412109375</ele>
        <time>2022-06-04T12:36:46.000Z</time>
      </trkpt>
      <trkpt lat="43.50076678209006786346435546875" lon="-5.6960280798375606536865234375">
        <ele>68.40000152587890625</ele>
        <time>2022-06-04T12:36:47.000Z</time>
      </trkpt>
      <trkpt lat="43.50083316676318645477294921875" lon="-5.6959516368806362152099609375">
        <ele>68.1999969482421875</ele>
        <time>2022-06-04T12:36:48.000Z</time>
      </trkpt>
      <trkpt lat="43.50089251063764095306396484375" lon="-5.69587427191436290740966796875">
        <ele>68</ele>
        <time>2022-06-04T12:36:49.000Z</time>
      </trkpt>
      <trkpt lat="43.50095294415950775146484375" lon="-5.6957947276532649993896484375">
        <ele>67.8000030517578125</ele>
        <time>2022-06-04T12:36:50.000Z</time>
      </trkpt>
      <trkpt lat="43.5010694526135921478271484375" lon="-5.6956346333026885986328125">
        <ele>67.59999847412109375</ele>
        <time>2022-06-04T12:36:52.000Z</time>
      </trkpt>
      <trkpt lat="43.5011266171932220458984375" lon="-5.6955514848232269287109375">
        <ele>67.59999847412109375</ele>
        <time>2022-06-04T12:36:53.000Z</time>
      </trkpt>
      <trkpt lat="43.50117950700223445892333984375" lon="-5.6954698450863361358642578125">
        <ele>67.59999847412109375</ele>
        <time>2022-06-04T12:36:54.000Z</time>
      </trkpt>
      <trkpt lat="43.50128017365932464599609375" lon="-5.69531117565929889678955078125">
        <ele>67.40000152587890625</ele>
        <time>2022-06-04T12:36:56.000Z</time>
      </trkpt>
      <trkpt lat="43.50139416754245758056640625" lon="-5.6951372511684894561767578125">
        <ele>67</ele>
        <time>2022-06-04T12:36:58.000Z</time>
      </trkpt>
      <trkpt lat="43.5014476440846920013427734375" lon="-5.69505217485129833221435546875">
        <ele>67</ele>
        <time>2022-06-04T12:36:59.000Z</time>
      </trkpt>
      <trkpt lat="43.50149667821824550628662109375" lon="-5.6949679367244243621826171875">
        <ele>66.8000030517578125</ele>
        <time>2022-06-04T12:37:00.000Z</time>
      </trkpt>
      <trkpt lat="43.50159575231373310089111328125" lon="-5.69480004720389842987060546875">
        <ele>66.59999847412109375</ele>
        <time>2022-06-04T12:37:02.000Z</time>
      </trkpt>
      <trkpt lat="43.50164361298084259033203125" lon="-5.69471388123929500579833984375">
        <ele>66.59999847412109375</ele>
        <time>2022-06-04T12:37:03.000Z</time>
      </trkpt>
      <trkpt lat="43.50168912671506404876708984375" lon="-5.69463207386434078216552734375">
        <ele>66.1999969482421875</ele>
        <time>2022-06-04T12:37:04.000Z</time>
      </trkpt>
      <trkpt lat="43.5017369873821735382080078125" lon="-5.69454708136618137359619140625">
        <ele>65.40000152587890625</ele>
        <time>2022-06-04T12:37:05.000Z</time>
      </trkpt>
      <trkpt lat="43.50178635679185390472412109375" lon="-5.69446292705833911895751953125">
        <ele>65.1999969482421875</ele>
        <time>2022-06-04T12:37:06.000Z</time>
      </trkpt>
      <trkpt lat="43.50187755189836025238037109375" lon="-5.69429864175617694854736328125">
        <ele>65</ele>
        <time>2022-06-04T12:37:08.000Z</time>
      </trkpt>
      <trkpt lat="43.5019285976886749267578125" lon="-5.6942112185060977935791015625">
        <ele>64.8000030517578125</ele>
        <time>2022-06-04T12:37:09.000Z</time>
      </trkpt>
      <trkpt lat="43.5019760392606258392333984375" lon="-5.6941240467131137847900390625">
        <ele>64.59999847412109375</ele>
        <time>2022-06-04T12:37:10.000Z</time>
      </trkpt>
      <trkpt lat="43.5020253248512744903564453125" lon="-5.69404165260493755340576171875">
        <ele>64.40000152587890625</ele>
        <time>2022-06-04T12:37:11.000Z</time>
      </trkpt>
      <trkpt lat="43.502076454460620880126953125" lon="-5.69395900703966617584228515625">
        <ele>64.1999969482421875</ele>
        <time>2022-06-04T12:37:12.000Z</time>
      </trkpt>
      <trkpt lat="43.50217041559517383575439453125" lon="-5.69378726184368133544921875">
        <ele>63.799999237060546875</ele>
        <time>2022-06-04T12:37:14.000Z</time>
      </trkpt>
      <trkpt lat="43.50224887020885944366455078125" lon="-5.693603195250034332275390625">
        <ele>63.59999847412109375</ele>
        <time>2022-06-04T12:37:16.000Z</time>
      </trkpt>
      <trkpt lat="43.50233285687863826751708984375" lon="-5.69341787137091159820556640625">
        <ele>63.40000152587890625</ele>
        <time>2022-06-04T12:37:18.000Z</time>
      </trkpt>
      <trkpt lat="43.502374850213527679443359375" lon="-5.69332416169345378875732421875">
        <ele>63.40000152587890625</ele>
        <time>2022-06-04T12:37:19.000Z</time>
      </trkpt>
      <trkpt lat="43.50241743028163909912109375" lon="-5.693233050405979156494140625">
        <ele>63.200000762939453125</ele>
        <time>2022-06-04T12:37:20.000Z</time>
      </trkpt>
      <trkpt lat="43.5024994052946567535400390625" lon="-5.69304839707911014556884765625">
        <ele>63</ele>
        <time>2022-06-04T12:37:22.000Z</time>
      </trkpt>
      <trkpt lat="43.502575345337390899658203125" lon="-5.69286081008613109588623046875">
        <ele>62.40000152587890625</ele>
        <time>2022-06-04T12:37:24.000Z</time>
      </trkpt>
      <trkpt lat="43.50261390209197998046875" lon="-5.6927665136754512786865234375">
        <ele>62.40000152587890625</ele>
        <time>2022-06-04T12:37:25.000Z</time>
      </trkpt>
      <trkpt lat="43.50265304557979106903076171875" lon="-5.6926723010838031768798828125">
        <ele>62.200000762939453125</ele>
        <time>2022-06-04T12:37:26.000Z</time>
      </trkpt>
      <trkpt lat="43.502729237079620361328125" lon="-5.692484378814697265625">
        <ele>62</ele>
        <time>2022-06-04T12:37:28.000Z</time>
      </trkpt>
      <trkpt lat="43.5028083622455596923828125" lon="-5.69230039604008197784423828125">
        <ele>62</ele>
        <time>2022-06-04T12:37:30.000Z</time>
      </trkpt>
      <trkpt lat="43.50284683518111705780029296875" lon="-5.692210458219051361083984375">
        <ele>62</ele>
        <time>2022-06-04T12:37:31.000Z</time>
      </trkpt>
      <trkpt lat="43.5028863139450550079345703125" lon="-5.69211968220770359039306640625">
        <ele>62</ele>
        <time>2022-06-04T12:37:32.000Z</time>
      </trkpt>
      <trkpt lat="43.502962253987789154052734375" lon="-5.69193712435662746429443359375">
        <ele>61.799999237060546875</ele>
        <time>2022-06-04T12:37:34.000Z</time>
      </trkpt>
      <trkpt lat="43.5030402056872844696044921875" lon="-5.69176378659904003143310546875">
        <ele>61.200000762939453125</ele>
        <time>2022-06-04T12:37:36.000Z</time>
      </trkpt>
      <trkpt lat="43.50308127701282501220703125" lon="-5.69168030284345149993896484375">
        <ele>61</ele>
        <time>2022-06-04T12:37:37.000Z</time>
      </trkpt>
      <trkpt lat="43.5031203366816043853759765625" lon="-5.69160218350589275360107421875">
        <ele>60.799999237060546875</ele>
        <time>2022-06-04T12:37:38.000Z</time>
      </trkpt>
      <trkpt lat="43.5031946003437042236328125" lon="-5.6914575956761837005615234375">
        <ele>60.40000152587890625</ele>
        <time>2022-06-04T12:37:40.000Z</time>
      </trkpt>
      <trkpt lat="43.503269366919994354248046875" lon="-5.69130714051425457000732421875">
        <ele>60.200000762939453125</ele>
        <time>2022-06-04T12:37:42.000Z</time>
      </trkpt>
      <trkpt lat="43.50335486233234405517578125" lon="-5.69114285521209239959716796875">
        <ele>59.799999237060546875</ele>
        <time>2022-06-04T12:37:44.000Z</time>
      </trkpt>
      <trkpt lat="43.503449074923992156982421875" lon="-5.69097370840609073638916015625">
        <ele>59.40000152587890625</ele>
        <time>2022-06-04T12:37:46.000Z</time>
      </trkpt>
      <trkpt lat="43.5035558603703975677490234375" lon="-5.6908145360648632049560546875">
        <ele>59.200000762939453125</ele>
        <time>2022-06-04T12:37:48.000Z</time>
      </trkpt>
      <trkpt lat="43.5036742128431797027587890625" lon="-5.690665505826473236083984375">
        <ele>59</ele>
        <time>2022-06-04T12:37:50.000Z</time>
      </trkpt>
      <trkpt lat="43.503734059631824493408203125" lon="-5.690596438944339752197265625">
        <ele>59</ele>
        <time>2022-06-04T12:37:51.000Z</time>
      </trkpt>
      <trkpt lat="43.50379868410527706146240234375" lon="-5.6905302219092845916748046875">
        <ele>58.799999237060546875</ele>
        <time>2022-06-04T12:37:52.000Z</time>
      </trkpt>
      <trkpt lat="43.503932543098926544189453125" lon="-5.690410025417804718017578125">
        <ele>58.59999847412109375</ele>
        <time>2022-06-04T12:37:54.000Z</time>
      </trkpt>
      <trkpt lat="43.504048883914947509765625" lon="-5.69030466489493846893310546875">
        <ele>58.59999847412109375</ele>
        <time>2022-06-04T12:37:56.000Z</time>
      </trkpt>
      <trkpt lat="43.5042245686054229736328125" lon="-5.69016183726489543914794921875">
        <ele>58.40000152587890625</ele>
        <time>2022-06-04T12:37:58.000Z</time>
      </trkpt>
      <trkpt lat="43.5042245686054229736328125" lon="-5.69016183726489543914794921875">
        <ele>58.40000152587890625</ele>
        <time>2022-06-04T12:37:59.000Z</time>
      </trkpt>
      <trkpt lat="43.5042854212224483489990234375" lon="-5.6901141442358493804931640625">
        <ele>58.40000152587890625</ele>
        <time>2022-06-04T12:38:00.000Z</time>
      </trkpt>
      <trkpt lat="43.5044185258448123931884765625" lon="-5.690005011856555938720703125">
        <ele>58.40000152587890625</ele>
        <time>2022-06-04T12:38:02.000Z</time>
      </trkpt>
      <trkpt lat="43.50454534403979778289794921875" lon="-5.68988925777375698089599609375">
        <ele>58</ele>
        <time>2022-06-04T12:38:04.000Z</time>
      </trkpt>
      <trkpt lat="43.50460904650390148162841796875" lon="-5.68982966244220733642578125">
        <ele>57.59999847412109375</ele>
        <time>2022-06-04T12:38:05.000Z</time>
      </trkpt>
      <trkpt lat="43.50467459298670291900634765625" lon="-5.68976931273937225341796875">
        <ele>57.59999847412109375</ele>
        <time>2022-06-04T12:38:06.000Z</time>
      </trkpt>
      <trkpt lat="43.50480216555297374725341796875" lon="-5.68965506739914417266845703125">
        <ele>57.40000152587890625</ele>
        <time>2022-06-04T12:38:08.000Z</time>
      </trkpt>
      <trkpt lat="43.50492889992892742156982421875" lon="-5.6895344518125057220458984375">
        <ele>57.200000762939453125</ele>
        <time>2022-06-04T12:38:10.000Z</time>
      </trkpt>
      <trkpt lat="43.5050612501800060272216796875" lon="-5.68941299803555011749267578125">
        <ele>56.799999237060546875</ele>
        <time>2022-06-04T12:38:12.000Z</time>
      </trkpt>
      <trkpt lat="43.50512151606380939483642578125" lon="-5.6893497146666049957275390625">
        <ele>56.59999847412109375</ele>
        <time>2022-06-04T12:38:13.000Z</time>
      </trkpt>
      <trkpt lat="43.50518354214727878570556640625" lon="-5.68928006105124950408935546875">
        <ele>56.40000152587890625</ele>
        <time>2022-06-04T12:38:14.000Z</time>
      </trkpt>
      <trkpt lat="43.505242131650447845458984375" lon="-5.68920604884624481201171875">
        <ele>56.200000762939453125</ele>
        <time>2022-06-04T12:38:15.000Z</time>
      </trkpt>
      <trkpt lat="43.5052979551255702972412109375" lon="-5.68913036026060581207275390625">
        <ele>56</ele>
        <time>2022-06-04T12:38:16.000Z</time>
      </trkpt>
      <trkpt lat="43.505412451922893524169921875" lon="-5.68897998891770839691162109375">
        <ele>55.40000152587890625</ele>
        <time>2022-06-04T12:38:18.000Z</time>
      </trkpt>
      <trkpt lat="43.50551144219934940338134765625" lon="-5.68882592953741550445556640625">
        <ele>55.200000762939453125</ele>
        <time>2022-06-04T12:38:20.000Z</time>
      </trkpt>
      <trkpt lat="43.5055551119148731231689453125" lon="-5.68875166587531566619873046875">
        <ele>55.200000762939453125</ele>
        <time>2022-06-04T12:38:21.000Z</time>
      </trkpt>
      <trkpt lat="43.50559827871620655059814453125" lon="-5.68867589347064495086669921875">
        <ele>55</ele>
        <time>2022-06-04T12:38:22.000Z</time>
      </trkpt>
      <trkpt lat="43.50569508969783782958984375" lon="-5.688511691987514495849609375">
        <ele>55</ele>
        <time>2022-06-04T12:38:24.000Z</time>
      </trkpt>
      <trkpt lat="43.50578720681369304656982421875" lon="-5.6883442215621471405029296875">
        <ele>54.799999237060546875</ele>
        <time>2022-06-04T12:38:26.000Z</time>
      </trkpt>
      <trkpt lat="43.50583297200500965118408203125" lon="-5.6882557086646556854248046875">
        <ele>54.799999237060546875</ele>
        <time>2022-06-04T12:38:27.000Z</time>
      </trkpt>
      <trkpt lat="43.50588192231953144073486328125" lon="-5.6881695427000522613525390625">
        <ele>54.40000152587890625</ele>
        <time>2022-06-04T12:38:28.000Z</time>
      </trkpt>
      <trkpt lat="43.5059346444904804229736328125" lon="-5.68808446638286113739013671875">
        <ele>54.40000152587890625</ele>
        <time>2022-06-04T12:38:29.000Z</time>
      </trkpt>
      <trkpt lat="43.50598334334790706634521484375" lon="-5.688000060617923736572265625">
        <ele>54.200000762939453125</ele>
        <time>2022-06-04T12:38:30.000Z</time>
      </trkpt>
      <trkpt lat="43.506080321967601776123046875" lon="-5.68782806396484375">
        <ele>53.799999237060546875</ele>
        <time>2022-06-04T12:38:32.000Z</time>
      </trkpt>
      <trkpt lat="43.50613069720566272735595703125" lon="-5.68774466402828693389892578125">
        <ele>53.59999847412109375</ele>
        <time>2022-06-04T12:38:33.000Z</time>
      </trkpt>
      <trkpt lat="43.5061780549585819244384765625" lon="-5.6876666285097599029541015625">
        <ele>53.59999847412109375</ele>
        <time>2022-06-04T12:38:34.000Z</time>
      </trkpt>
      <trkpt lat="43.506288863718509674072265625" lon="-5.68751181475818157196044921875">
        <ele>53</ele>
        <time>2022-06-04T12:38:36.000Z</time>
      </trkpt>
      <trkpt lat="43.506396152079105377197265625" lon="-5.68734727799892425537109375">
        <ele>52.200000762939453125</ele>
        <time>2022-06-04T12:38:38.000Z</time>
      </trkpt>
      <trkpt lat="43.506495058536529541015625" lon="-5.68717838265001773834228515625">
        <ele>51.799999237060546875</ele>
        <time>2022-06-04T12:38:40.000Z</time>
      </trkpt>
      <trkpt lat="43.50659958086907863616943359375" lon="-5.6870228983461856842041015625">
        <ele>51.40000152587890625</ele>
        <time>2022-06-04T12:38:42.000Z</time>
      </trkpt>
      <trkpt lat="43.5067269019782543182373046875" lon="-5.68688057363033294677734375">
        <ele>51.200000762939453125</ele>
        <time>2022-06-04T12:38:44.000Z</time>
      </trkpt>
      <trkpt lat="43.50686050951480865478515625" lon="-5.68675107322633266448974609375">
        <ele>51</ele>
        <time>2022-06-04T12:38:46.000Z</time>
      </trkpt>
      <trkpt lat="43.506985567510128021240234375" lon="-5.68662836216390132904052734375">
        <ele>50.59999847412109375</ele>
        <time>2022-06-04T12:38:48.000Z</time>
      </trkpt>
      <trkpt lat="43.5071164928376674652099609375" lon="-5.68651554174721240997314453125">
        <ele>50.59999847412109375</ele>
        <time>2022-06-04T12:38:50.000Z</time>
      </trkpt>
      <trkpt lat="43.5072412155568599700927734375" lon="-5.6864090077579021453857421875">
        <ele>50.40000152587890625</ele>
        <time>2022-06-04T12:38:52.000Z</time>
      </trkpt>
      <trkpt lat="43.5073654353618621826171875" lon="-5.68632409907877445220947265625">
        <ele>50.40000152587890625</ele>
        <time>2022-06-04T12:38:54.000Z</time>
      </trkpt>
      <trkpt lat="43.5074920020997524261474609375" lon="-5.68625469692051410675048828125">
        <ele>49.59999847412109375</ele>
        <time>2022-06-04T12:38:56.000Z</time>
      </trkpt>
      <trkpt lat="43.507557548582553863525390625" lon="-5.68622418679296970367431640625">
        <ele>49.40000152587890625</ele>
        <time>2022-06-04T12:38:57.000Z</time>
      </trkpt>
      <trkpt lat="43.50762116722762584686279296875" lon="-5.6861971132457256317138671875">
        <ele>49.200000762939453125</ele>
        <time>2022-06-04T12:38:58.000Z</time>
      </trkpt>
      <trkpt lat="43.50774337537586688995361328125" lon="-5.6861421279609203338623046875">
        <ele>49</ele>
        <time>2022-06-04T12:39:00.000Z</time>
      </trkpt>
      <trkpt lat="43.50787295959889888763427734375" lon="-5.6861122883856296539306640625">
        <ele>48.799999237060546875</ele>
        <time>2022-06-04T12:39:02.000Z</time>
      </trkpt>
      <trkpt lat="43.507999442517757415771484375" lon="-5.686084292829036712646484375">
        <ele>48.59999847412109375</ele>
        <time>2022-06-04T12:39:04.000Z</time>
      </trkpt>
      <trkpt lat="43.50813313387334346771240234375" lon="-5.68606006912887096405029296875">
        <ele>48.59999847412109375</ele>
        <time>2022-06-04T12:39:06.000Z</time>
      </trkpt>
      <trkpt lat="43.5082866065204143524169921875" lon="-5.6860371865332126617431640625">
        <ele>48.40000152587890625</ele>
        <time>2022-06-04T12:39:08.000Z</time>
      </trkpt>
      <trkpt lat="43.50843974389135837554931640625" lon="-5.6860361807048320770263671875">
        <ele>48.40000152587890625</ele>
        <time>2022-06-04T12:39:10.000Z</time>
      </trkpt>
      <trkpt lat="43.50859916768968105316162109375" lon="-5.68603978492319583892822265625">
        <ele>48</ele>
        <time>2022-06-04T12:39:12.000Z</time>
      </trkpt>
      <trkpt lat="43.50867209024727344512939453125" lon="-5.686048753559589385986328125">
        <ele>47.59999847412109375</ele>
        <time>2022-06-04T12:39:13.000Z</time>
      </trkpt>
      <trkpt lat="43.508742414414882659912109375" lon="-5.68606057204306125640869140625">
        <ele>47.40000152587890625</ele>
        <time>2022-06-04T12:39:14.000Z</time>
      </trkpt>
      <trkpt lat="43.50888364948332309722900390625" lon="-5.68608622066676616668701171875">
        <ele>47.200000762939453125</ele>
        <time>2022-06-04T12:39:16.000Z</time>
      </trkpt>
      <trkpt lat="43.50903167389333248138427734375" lon="-5.68612293340265750885009765625">
        <ele>47</ele>
        <time>2022-06-04T12:39:18.000Z</time>
      </trkpt>
      <trkpt lat="43.50910157896578311920166015625" lon="-5.68614455871284008026123046875">
        <ele>46.799999237060546875</ele>
        <time>2022-06-04T12:39:19.000Z</time>
      </trkpt>
      <trkpt lat="43.50916855037212371826171875" lon="-5.68616685457527637481689453125">
        <ele>46.59999847412109375</ele>
        <time>2022-06-04T12:39:20.000Z</time>
      </trkpt>
      <trkpt lat="43.50929872132837772369384765625" lon="-5.68621940910816192626953125">
        <ele>46.40000152587890625</ele>
        <time>2022-06-04T12:39:22.000Z</time>
      </trkpt>
      <trkpt lat="43.50942562334239482879638671875" lon="-5.6862772442400455474853515625">
        <ele>46</ele>
        <time>2022-06-04T12:39:24.000Z</time>
      </trkpt>
      <trkpt lat="43.50948580540716648101806640625" lon="-5.686304904520511627197265625">
        <ele>46</ele>
        <time>2022-06-04T12:39:25.000Z</time>
      </trkpt>
      <trkpt lat="43.50954431109130382537841796875" lon="-5.6863375939428806304931640625">
        <ele>45.799999237060546875</ele>
        <time>2022-06-04T12:39:26.000Z</time>
      </trkpt>
      <trkpt lat="43.509649671614170074462890625" lon="-5.68641177378594875335693359375">
        <ele>45.799999237060546875</ele>
        <time>2022-06-04T12:39:28.000Z</time>
      </trkpt>
      <trkpt lat="43.5097048245370388031005859375" lon="-5.68644144572317600250244140625">
        <ele>45.59999847412109375</ele>
        <time>2022-06-04T12:39:29.000Z</time>
      </trkpt>
      <trkpt lat="43.50976408459246158599853515625" lon="-5.686453096568584442138671875">
        <ele>45.40000152587890625</ele>
        <time>2022-06-04T12:39:30.000Z</time>
      </trkpt>
      <trkpt lat="43.50987606681883335113525390625" lon="-5.68639551289379596710205078125">
        <ele>45.200000762939453125</ele>
        <time>2022-06-04T12:39:32.000Z</time>
      </trkpt>
      <trkpt lat="43.50997815839946269989013671875" lon="-5.6862839497625827789306640625">
        <ele>45</ele>
        <time>2022-06-04T12:39:34.000Z</time>
      </trkpt>
      <trkpt lat="43.51006432436406612396240234375" lon="-5.6861803494393825531005859375">
        <ele>44.799999237060546875</ele>
        <time>2022-06-04T12:39:36.000Z</time>
      </trkpt>
      <trkpt lat="43.51009584031999111175537109375" lon="-5.686139278113842010498046875">
        <ele>44.40000152587890625</ele>
        <time>2022-06-04T12:39:38.000Z</time>
      </trkpt>
      <trkpt lat="43.51008913479745388031005859375" lon="-5.6861369311809539794921875">
        <ele>44.200000762939453125</ele>
        <time>2022-06-04T12:39:39.000Z</time>
      </trkpt>
      <trkpt lat="43.510075472295284271240234375" lon="-5.68612016737461090087890625">
        <ele>44</ele>
        <time>2022-06-04T12:39:40.000Z</time>
      </trkpt>
      <trkpt lat="43.510036580264568328857421875" lon="-5.68611346185207366943359375">
        <ele>43.59999847412109375</ele>
        <time>2022-06-04T12:39:42.000Z</time>
      </trkpt>
      <trkpt lat="43.510019145905971527099609375" lon="-5.686103738844394683837890625">
        <ele>43.40000152587890625</ele>
        <time>2022-06-04T12:39:43.000Z</time>
      </trkpt>
      <trkpt lat="43.5100025497376918792724609375" lon="-5.68608219735324382781982421875">
        <ele>43.200000762939453125</ele>
        <time>2022-06-04T12:39:44.000Z</time>
      </trkpt>
      <trkpt lat="43.50998603738844394683837890625" lon="-5.686056129634380340576171875">
        <ele>42.40000152587890625</ele>
        <time>2022-06-04T12:39:45.000Z</time>
      </trkpt>
      <trkpt lat="43.50996927358210086822509765625" lon="-5.686033666133880615234375">
        <ele>42.200000762939453125</ele>
        <time>2022-06-04T12:39:46.000Z</time>
      </trkpt>
      <trkpt lat="43.509934656322002410888671875" lon="-5.68598094396293163299560546875">
        <ele>41.799999237060546875</ele>
        <time>2022-06-04T12:39:48.000Z</time>
      </trkpt>
      <trkpt lat="43.5099294595420360565185546875" lon="-5.68595060147345066070556640625">
        <ele>41.799999237060546875</ele>
        <time>2022-06-04T12:39:50.000Z</time>
      </trkpt>
      <trkpt lat="43.5099569521844387054443359375" lon="-5.6859674490988254547119140625">
        <ele>41.59999847412109375</ele>
        <time>2022-06-04T12:39:51.000Z</time>
      </trkpt>
      <trkpt lat="43.509976565837860107421875" lon="-5.685981027781963348388671875">
        <ele>41.40000152587890625</ele>
        <time>2022-06-04T12:39:52.000Z</time>
      </trkpt>
      <trkpt lat="43.51002191193401813507080078125" lon="-5.68602989427745342254638671875">
        <ele>41.200000762939453125</ele>
        <time>2022-06-04T12:39:54.000Z</time>
      </trkpt>
      <trkpt lat="43.51003901101648807525634765625" lon="-5.686060488224029541015625">
        <ele>41.200000762939453125</ele>
        <time>2022-06-04T12:39:55.000Z</time>
      </trkpt>
      <trkpt lat="43.51005778647959232330322265625" lon="-5.6860700435936450958251953125">
        <ele>41.200000762939453125</ele>
        <time>2022-06-04T12:39:56.000Z</time>
      </trkpt>
      <trkpt lat="43.51010422222316265106201171875" lon="-5.6860428862273693084716796875">
        <ele>41.200000762939453125</ele>
        <time>2022-06-04T12:39:58.000Z</time>
      </trkpt>
      <trkpt lat="43.5101805813610553741455078125" lon="-5.6859604083001613616943359375">
        <ele>41.200000762939453125</ele>
        <time>2022-06-04T12:40:00.000Z</time>
      </trkpt>
      <trkpt lat="43.51027035154402256011962890625" lon="-5.68585907109081745147705078125">
        <ele>41.40000152587890625</ele>
        <time>2022-06-04T12:40:02.000Z</time>
      </trkpt>
      <trkpt lat="43.51036012172698974609375" lon="-5.68574189208447933197021484375">
        <ele>41.59999847412109375</ele>
        <time>2022-06-04T12:40:04.000Z</time>
      </trkpt>
      <trkpt lat="43.51047000847756862640380859375" lon="-5.6856288202106952667236328125">
        <ele>41.799999237060546875</ele>
        <time>2022-06-04T12:40:06.000Z</time>
      </trkpt>
      <trkpt lat="43.51058718748390674591064453125" lon="-5.68550728261470794677734375">
        <ele>41.799999237060546875</ele>
        <time>2022-06-04T12:40:08.000Z</time>
      </trkpt>
      <trkpt lat="43.51070319302380084991455078125" lon="-5.685384571552276611328125">
        <ele>41.799999237060546875</ele>
        <time>2022-06-04T12:40:10.000Z</time>
      </trkpt>
      <trkpt lat="43.510811738669872283935546875" lon="-5.68525406531989574432373046875">
        <ele>41.799999237060546875</ele>
        <time>2022-06-04T12:40:12.000Z</time>
      </trkpt>
      <trkpt lat="43.5108960606157779693603515625" lon="-5.685149542987346649169921875">
        <ele>41.40000152587890625</ele>
        <time>2022-06-04T12:40:14.000Z</time>
      </trkpt>
      <trkpt lat="43.5109714977443218231201171875" lon="-5.685051642358303070068359375">
        <ele>41.200000762939453125</ele>
        <time>2022-06-04T12:40:16.000Z</time>
      </trkpt>
      <trkpt lat="43.51106327958405017852783203125" lon="-5.68495214916765689849853515625">
        <ele>40.200000762939453125</ele>
        <time>2022-06-04T12:40:18.000Z</time>
      </trkpt>
      <trkpt lat="43.51111105643212795257568359375" lon="-5.68489498458802700042724609375">
        <ele>40</ele>
        <time>2022-06-04T12:40:19.000Z</time>
      </trkpt>
      <trkpt lat="43.5111580789089202880859375" lon="-5.6848358921706676483154296875">
        <ele>39.59999847412109375</ele>
        <time>2022-06-04T12:40:20.000Z</time>
      </trkpt>
      <trkpt lat="43.51126109249889850616455078125" lon="-5.684715025126934051513671875">
        <ele>39</ele>
        <time>2022-06-04T12:40:22.000Z</time>
      </trkpt>
      <trkpt lat="43.5113664530217647552490234375" lon="-5.68458954803645610809326171875">
        <ele>38.40000152587890625</ele>
        <time>2022-06-04T12:40:24.000Z</time>
      </trkpt>
      <trkpt lat="43.51147818379104137420654296875" lon="-5.6844610534608364105224609375">
        <ele>38.200000762939453125</ele>
        <time>2022-06-04T12:40:26.000Z</time>
      </trkpt>
      <trkpt lat="43.51159435696899890899658203125" lon="-5.684334821999073028564453125">
        <ele>38</ele>
        <time>2022-06-04T12:40:28.000Z</time>
      </trkpt>
      <trkpt lat="43.5117134638130664825439453125" lon="-5.684220157563686370849609375">
        <ele>37.799999237060546875</ele>
        <time>2022-06-04T12:40:30.000Z</time>
      </trkpt>
      <trkpt lat="43.511775992810726165771484375" lon="-5.68417279981076717376708984375">
        <ele>37.799999237060546875</ele>
        <time>2022-06-04T12:40:31.000Z</time>
      </trkpt>
      <trkpt lat="43.511841036379337310791015625" lon="-5.68413290195167064666748046875">
        <ele>37.40000152587890625</ele>
        <time>2022-06-04T12:40:32.000Z</time>
      </trkpt>
      <trkpt lat="43.511971794068813323974609375" lon="-5.68406634964048862457275390625">
        <ele>37</ele>
        <time>2022-06-04T12:40:34.000Z</time>
      </trkpt>
      <trkpt lat="43.512022085487842559814453125" lon="-5.68404304794967174530029296875">
        <ele>36.799999237060546875</ele>
        <time>2022-06-04T12:40:35.000Z</time>
      </trkpt>
      <trkpt lat="43.51205569691956043243408203125" lon="-5.68403131328523159027099609375">
        <ele>36.40000152587890625</ele>
        <time>2022-06-04T12:40:36.000Z</time>
      </trkpt>
      <trkpt lat="43.51209408603608608245849609375" lon="-5.68400667048990726470947265625">
        <ele>36.200000762939453125</ele>
        <time>2022-06-04T12:40:38.000Z</time>
      </trkpt>
      <trkpt lat="43.5120968520641326904296875" lon="-5.68398378789424896240234375">
        <ele>36.200000762939453125</ele>
        <time>2022-06-04T12:40:39.000Z</time>
      </trkpt>
      <trkpt lat="43.51208721287548542022705078125" lon="-5.6839745678007602691650390625">
        <ele>35.799999237060546875</ele>
        <time>2022-06-04T12:40:40.000Z</time>
      </trkpt>
      <trkpt lat="43.5120718739926815032958984375" lon="-5.68397968076169490814208984375">
        <ele>35.59999847412109375</ele>
        <time>2022-06-04T12:40:41.000Z</time>
      </trkpt>
      <trkpt lat="43.51205519400537014007568359375" lon="-5.68399543873965740203857421875">
        <ele>35</ele>
        <time>2022-06-04T12:40:42.000Z</time>
      </trkpt>
      <trkpt lat="43.51203943602740764617919921875" lon="-5.68401471711695194244384765625">
        <ele>34.40000152587890625</ele>
        <time>2022-06-04T12:40:43.000Z</time>
      </trkpt>
      <trkpt lat="43.5120229236781597137451171875" lon="-5.6840322352945804595947265625">
        <ele>33.59999847412109375</ele>
        <time>2022-06-04T12:40:44.000Z</time>
      </trkpt>
      <trkpt lat="43.51200632750988006591796875" lon="-5.6840429641306400299072265625">
        <ele>33.200000762939453125</ele>
        <time>2022-06-04T12:40:45.000Z</time>
      </trkpt>
      <trkpt lat="43.51198621094226837158203125" lon="-5.68404489196836948394775390625">
        <ele>33</ele>
        <time>2022-06-04T12:40:46.000Z</time>
      </trkpt>
      <trkpt lat="43.51196584291756153106689453125" lon="-5.68403583951294422149658203125">
        <ele>33</ele>
        <time>2022-06-04T12:40:47.000Z</time>
      </trkpt>
      <trkpt lat="43.5119491629302501678466796875" lon="-5.68401337601244449615478515625">
        <ele>33</ele>
        <time>2022-06-04T12:40:48.000Z</time>
      </trkpt>
      <trkpt lat="43.51192192174494266510009765625" lon="-5.6839494220912456512451171875">
        <ele>33</ele>
        <time>2022-06-04T12:40:50.000Z</time>
      </trkpt>
      <trkpt lat="43.511912114918231964111328125" lon="-5.68391094915568828582763671875">
        <ele>33</ele>
        <time>2022-06-04T12:40:51.000Z</time>
      </trkpt>
      <trkpt lat="43.5119035653769969940185546875" lon="-5.6838682852685451507568359375">
        <ele>33</ele>
        <time>2022-06-04T12:40:52.000Z</time>
      </trkpt>
      <trkpt lat="43.51188085041940212249755859375" lon="-5.6837747432291507720947265625">
        <ele>33.200000762939453125</ele>
        <time>2022-06-04T12:40:54.000Z</time>
      </trkpt>
      <trkpt lat="43.51186106912791728973388671875" lon="-5.68367692641913890838623046875">
        <ele>33.40000152587890625</ele>
        <time>2022-06-04T12:40:56.000Z</time>
      </trkpt>
      <trkpt lat="43.51183173246681690216064453125" lon="-5.6835792772471904754638671875">
        <ele>34</ele>
        <time>2022-06-04T12:40:58.000Z</time>
      </trkpt>
      <trkpt lat="43.51180038414895534515380859375" lon="-5.68348179571330547332763671875">
        <ele>34.200000762939453125</ele>
        <time>2022-06-04T12:41:00.000Z</time>
      </trkpt>
      <trkpt lat="43.5117865540087223052978515625" lon="-5.68343251012265682220458984375">
        <ele>34.200000762939453125</ele>
        <time>2022-06-04T12:41:01.000Z</time>
      </trkpt>
      <trkpt lat="43.511771298944950103759765625" lon="-5.68338775075972080230712890625">
        <ele>34.200000762939453125</ele>
        <time>2022-06-04T12:41:02.000Z</time>
      </trkpt>
      <trkpt lat="43.51176467724144458770751953125" lon="-5.6833425723016262054443359375">
        <ele>34.200000762939453125</ele>
        <time>2022-06-04T12:41:03.000Z</time>
      </trkpt>
      <trkpt lat="43.51175897754728794097900390625" lon="-5.6832983158528804779052734375">
        <ele>34.200000762939453125</ele>
        <time>2022-06-04T12:41:04.000Z</time>
      </trkpt>
      <trkpt lat="43.51176668889820575714111328125" lon="-5.683217681944370269775390625">
        <ele>34.200000762939453125</ele>
        <time>2022-06-04T12:41:06.000Z</time>
      </trkpt>
      <trkpt lat="43.511787392199039459228515625" lon="-5.6831918656826019287109375">
        <ele>34.40000152587890625</ele>
        <time>2022-06-04T12:41:07.000Z</time>
      </trkpt>
      <trkpt lat="43.5118090175092220306396484375" lon="-5.68317015655338764190673828125">
        <ele>34.40000152587890625</ele>
        <time>2022-06-04T12:41:08.000Z</time>
      </trkpt>
      <trkpt lat="43.51186777465045452117919921875" lon="-5.68312288261950016021728515625">
        <ele>34.40000152587890625</ele>
        <time>2022-06-04T12:41:10.000Z</time>
      </trkpt>
      <trkpt lat="43.511882610619068145751953125" lon="-5.68307829089462757110595703125">
        <ele>34.40000152587890625</ele>
        <time>2022-06-04T12:41:11.000Z</time>
      </trkpt>
      <trkpt lat="43.5118782520294189453125" lon="-5.6830287538468837738037109375">
        <ele>34.40000152587890625</ele>
        <time>2022-06-04T12:41:12.000Z</time>
      </trkpt>
      <trkpt lat="43.51185503415763378143310546875" lon="-5.68293093703687191009521484375">
        <ele>34.40000152587890625</ele>
        <time>2022-06-04T12:41:14.000Z</time>
      </trkpt>
      <trkpt lat="43.51183977909386157989501953125" lon="-5.68288165144622325897216796875">
        <ele>34.40000152587890625</ele>
        <time>2022-06-04T12:41:15.000Z</time>
      </trkpt>
      <trkpt lat="43.51182318292558193206787109375" lon="-5.6828351318836212158203125">
        <ele>34.59999847412109375</ele>
        <time>2022-06-04T12:41:16.000Z</time>
      </trkpt>
      <trkpt lat="43.5117905773222446441650390625" lon="-5.682744942605495452880859375">
        <ele>34.59999847412109375</ele>
        <time>2022-06-04T12:41:18.000Z</time>
      </trkpt>
      <trkpt lat="43.51176333613693714141845703125" lon="-5.68265249021351337432861328125">
        <ele>34.59999847412109375</ele>
        <time>2022-06-04T12:41:20.000Z</time>
      </trkpt>
      <trkpt lat="43.5117479972541332244873046875" lon="-5.682605467736721038818359375">
        <ele>34.799999237060546875</ele>
        <time>2022-06-04T12:41:21.000Z</time>
      </trkpt>
      <trkpt lat="43.5117282159626483917236328125" lon="-5.682559199631214141845703125">
        <ele>35</ele>
        <time>2022-06-04T12:41:22.000Z</time>
      </trkpt>
      <trkpt lat="43.51170466281473636627197265625" lon="-5.682461969554424285888671875">
        <ele>35.200000762939453125</ele>
        <time>2022-06-04T12:41:24.000Z</time>
      </trkpt>
      <trkpt lat="43.51170147769153118133544921875" lon="-5.68241603672504425048828125">
        <ele>35.200000762939453125</ele>
        <time>2022-06-04T12:41:25.000Z</time>
      </trkpt>
      <trkpt lat="43.5116926766932010650634765625" lon="-5.6823702715337276458740234375">
        <ele>35.200000762939453125</ele>
        <time>2022-06-04T12:41:26.000Z</time>
      </trkpt>
      <trkpt lat="43.51167683489620685577392578125" lon="-5.68228100426495075225830078125">
        <ele>35.40000152587890625</ele>
        <time>2022-06-04T12:41:28.000Z</time>
      </trkpt>
      <trkpt lat="43.51165990345180034637451171875" lon="-5.68220690824091434478759765625">
        <ele>35.59999847412109375</ele>
        <time>2022-06-04T12:41:30.000Z</time>
      </trkpt>
      <trkpt lat="43.51165956817567348480224609375" lon="-5.682175643742084503173828125">
        <ele>35.59999847412109375</ele>
        <time>2022-06-04T12:41:31.000Z</time>
      </trkpt>
      <trkpt lat="43.51165856234729290008544921875" lon="-5.6821466423571109771728515625">
        <ele>35.799999237060546875</ele>
        <time>2022-06-04T12:41:32.000Z</time>
      </trkpt>
      <trkpt lat="43.511650264263153076171875" lon="-5.68209559656679630279541015625">
        <ele>36</ele>
        <time>2022-06-04T12:41:34.000Z</time>
      </trkpt>
      <trkpt lat="43.5116500966250896453857421875" lon="-5.6820814311504364013671875">
        <ele>36</ele>
        <time>2022-06-04T12:41:36.000Z</time>
      </trkpt>
      <trkpt lat="43.51165269501507282257080078125" lon="-5.68207916803658008575439453125">
        <ele>36</ele>
        <time>2022-06-04T12:41:37.000Z</time>
      </trkpt>
    </trkseg>
  </trk>
</gpx>
